<?xml version='1.0' encoding='UTF-8'?><gpx version="1.1" creator="JPX - https://github.com/jenetics/jpx" xmlns="http://www.topografix.com/GPX/1/1"><trk><trkseg><trkpt lat="42.66006011445392" lon="11.980824817025324"><ele>456.2857142857143</ele><time>2026-04-17T11:14:12Z</time></trkpt><trkpt lat="42.65999899365185" lon="11.98087285614871"><ele>456.57142857142856</ele><time>2026-04-17T11:14:19Z</time></trkpt><trkpt lat="42.659963471632466" lon="11.980960586652797"><ele>456.85714285714283</ele><time>2026-04-17T11:14:25Z</time></trkpt><trkpt lat="42.659918072489546" lon="11.98104898761142"><ele>457.1428571428571</ele><time>2026-04-17T11:14:31.001Z</time></trkpt><trkpt lat="42.659895107857615" lon="11.981131561815126"><ele>457.42857142857144</ele><time>2026-04-17T11:14:38.001Z</time></trkpt><trkpt lat="42.6598509056676" lon="11.981198721932556"><ele>457.71428571428567</ele><time>2026-04-17T11:14:45.001Z</time></trkpt><trkpt lat="42.65986118221321" lon="11.981301268468624"><ele>458.0</ele><time>2026-04-17T11:14:51.999Z</time></trkpt><trkpt lat="42.65985001083866" lon="11.981397950968171"><ele>458.0</ele><time>2026-04-17T11:14:57.999Z</time></trkpt><trkpt lat="42.659845456111135" lon="11.9814947494803"><ele>458.0</ele><time>2026-04-17T11:15:04Z</time></trkpt><trkpt lat="42.65984435536058" lon="11.981581370494657"><ele>458.0</ele><time>2026-04-17T11:15:09Z</time></trkpt><trkpt lat="42.65988590888675" lon="11.981507938820002"><ele>458.0</ele><time>2026-04-17T11:16:18.001Z</time></trkpt><trkpt lat="42.659893095316775" lon="11.981415196232298"><ele>458.0</ele><time>2026-04-17T11:16:24.001Z</time></trkpt><trkpt lat="42.65990142147374" lon="11.981313698654269"><ele>458.0</ele><time>2026-04-17T11:16:30.001Z</time></trkpt><trkpt lat="42.659892672830956" lon="11.981224734994832"><ele>458.0</ele><time>2026-04-17T11:16:37.001Z</time></trkpt><trkpt lat="42.65991917877184" lon="11.981144904613187"><ele>458.0</ele><time>2026-04-17T11:16:42.001Z</time></trkpt><trkpt lat="42.65995907901926" lon="11.98105925766552"><ele>457.99999999999994</ele><time>2026-04-17T11:16:48.001Z</time></trkpt><trkpt lat="42.66006703063042" lon="11.981044785869598"><ele>457.99999999999994</ele><time>2026-04-17T11:17:01.001Z</time></trkpt><trkpt lat="42.660079486079006" lon="11.980957592318253"><ele>458.0</ele><time>2026-04-17T11:18:05.001Z</time></trkpt><trkpt lat="42.66006684226273" lon="11.98086995408018"><ele>458.0</ele><time>2026-04-17T11:18:17.001Z</time></trkpt><trkpt lat="42.659897566812944" lon="11.981103541340662"><ele>458.0</ele><time>2026-04-17T11:18:29.001Z</time></trkpt><trkpt lat="42.66007730957526" lon="11.980869975785547"><ele>458.0</ele><time>2026-04-17T11:18:50.424Z</time></trkpt><trkpt lat="42.66010732378514" lon="11.980962741348216"><ele>458.0</ele><time>2026-04-17T11:19:24.001Z</time></trkpt><trkpt lat="42.66017269982124" lon="11.980992791315286"><ele>458.0</ele><time>2026-04-17T11:19:36.001Z</time></trkpt><trkpt lat="42.65999715052149" lon="11.980957846533702"><ele>458.0</ele><time>2026-04-17T11:19:59.001Z</time></trkpt><trkpt lat="42.659942745528845" lon="11.981017334220144"><ele>458.0</ele><time>2026-04-17T11:20:01.001Z</time></trkpt><trkpt lat="42.65991345625388" lon="11.981113572391084"><ele>458.0</ele><time>2026-04-17T11:20:07.001Z</time></trkpt><trkpt lat="42.65989486355469" lon="11.981202777304707"><ele>458.0</ele><time>2026-04-17T11:20:11.001Z</time></trkpt><trkpt lat="42.65986782155223" lon="11.981285027441466"><ele>458.0</ele><time>2026-04-17T11:20:16.001Z</time></trkpt><trkpt lat="42.659863350725146" lon="11.98137574106454"><ele>458.0</ele><time>2026-04-17T11:20:21.001Z</time></trkpt><trkpt lat="42.659858541251054" lon="11.981472906021603"><ele>458.0</ele><time>2026-04-17T11:20:26.001Z</time></trkpt><trkpt lat="42.65984506889444" lon="11.981570870274918"><ele>458.0</ele><time>2026-04-17T11:20:33.001Z</time></trkpt><trkpt lat="42.659897192208746" lon="11.981619176379752"><ele>458.0</ele><time>2026-04-17T12:07:37Z</time></trkpt><trkpt lat="42.65995580283296" lon="11.981655708929784"><ele>458.0</ele><time>2026-04-17T12:11:45Z</time></trkpt><trkpt lat="42.659996094385974" lon="11.98174871002801"><ele>458.0</ele><time>2026-04-17T12:11:47Z</time></trkpt><trkpt lat="42.6599732697614" lon="11.981844390803873"><ele>458.0</ele><time>2026-04-17T12:11:48Z</time></trkpt><trkpt lat="42.65994247085471" lon="11.981926020450441"><ele>458.0</ele><time>2026-04-17T12:11:49Z</time></trkpt><trkpt lat="42.659918028983185" lon="11.982010070649801"><ele>458.0</ele><time>2026-04-17T12:11:50Z</time></trkpt><trkpt lat="42.65989652631553" lon="11.982102828339112"><ele>458.49999999999994</ele><time>2026-04-17T12:11:51Z</time></trkpt><trkpt lat="42.65987233060185" lon="11.98219961862093"><ele>459.0</ele><time>2026-04-17T12:11:52Z</time></trkpt><trkpt lat="42.65985137274062" lon="11.982303363195102"><ele>459.5</ele><time>2026-04-17T12:11:53Z</time></trkpt><trkpt lat="42.659833074787414" lon="11.982390215661457"><ele>460.0</ele><time>2026-04-17T12:11:54Z</time></trkpt><trkpt lat="42.65979326001693" lon="11.982529870381484"><ele>460.49999999999994</ele><time>2026-04-17T12:11:56Z</time></trkpt><trkpt lat="42.659755714288316" lon="11.982618412662791"><ele>461.0</ele><time>2026-04-17T12:11:58Z</time></trkpt><trkpt lat="42.65966586202554" lon="11.982675048503918"><ele>459.42857142857144</ele><time>2026-04-17T12:12:00Z</time></trkpt><trkpt lat="42.65960272558956" lon="11.982671271431455"><ele>457.8571428571429</ele><time>2026-04-17T12:12:01Z</time></trkpt><trkpt lat="42.65953141389656" lon="11.982637640560009"><ele>456.28571428571433</ele><time>2026-04-17T12:12:02Z</time></trkpt><trkpt lat="42.659469091148644" lon="11.982607772015484"><ele>454.7142857142858</ele><time>2026-04-17T12:12:03Z</time></trkpt><trkpt lat="42.65940610651448" lon="11.982584170930387"><ele>453.14285714285717</ele><time>2026-04-17T12:12:04Z</time></trkpt><trkpt lat="42.65933208934009" lon="11.98257071291705"><ele>451.57142857142867</ele><time>2026-04-17T12:12:05Z</time></trkpt><trkpt lat="42.65925208201874" lon="11.982550641442861"><ele>450.00000000000006</ele><time>2026-04-17T12:12:06Z</time></trkpt><trkpt lat="42.65917641068001" lon="11.982527580345746"><ele>450.7142857142858</ele><time>2026-04-17T12:12:07Z</time></trkpt><trkpt lat="42.65910554842126" lon="11.982505329955538"><ele>451.42857142857144</ele><time>2026-04-17T12:12:08Z</time></trkpt><trkpt lat="42.6590373876989" lon="11.982472650871253"><ele>452.14285714285717</ele><time>2026-04-17T12:12:09Z</time></trkpt><trkpt lat="42.65896914723636" lon="11.98244382716505"><ele>452.8571428571429</ele><time>2026-04-17T12:12:10.001Z</time></trkpt><trkpt lat="42.658897379758436" lon="11.982427393379071"><ele>453.57142857142856</ele><time>2026-04-17T12:12:11.001Z</time></trkpt><trkpt lat="42.65882378652914" lon="11.98243176086025"><ele>454.2857142857143</ele><time>2026-04-17T12:12:12.001Z</time></trkpt><trkpt lat="42.65873909522616" lon="11.982442887414493"><ele>455.0</ele><time>2026-04-17T12:12:13.001Z</time></trkpt><trkpt lat="42.65864287965664" lon="11.982473732663413"><ele>453.0</ele><time>2026-04-17T12:12:14.001Z</time></trkpt><trkpt lat="42.65853297001947" lon="11.982519832977593"><ele>451.0</ele><time>2026-04-17T12:12:15.001Z</time></trkpt><trkpt lat="42.65843465843048" lon="11.982565292027026"><ele>449.0</ele><time>2026-04-17T12:12:16.001Z</time></trkpt><trkpt lat="42.658354729873835" lon="11.98259711896169"><ele>447.0</ele><time>2026-04-17T12:12:17.001Z</time></trkpt><trkpt lat="42.65827360384941" lon="11.982611843802276"><ele>445.0</ele><time>2026-04-17T12:12:18.001Z</time></trkpt><trkpt lat="42.658175565911776" lon="11.982620914695117"><ele>445.0</ele><time>2026-04-17T12:12:19.001Z</time></trkpt><trkpt lat="42.65806450834404" lon="11.98261688271263"><ele>445.0</ele><time>2026-04-17T12:12:20.001Z</time></trkpt><trkpt lat="42.65796334469534" lon="11.98260255419054"><ele>445.0</ele><time>2026-04-17T12:12:21.001Z</time></trkpt><trkpt lat="42.65788086796929" lon="11.98259847387498"><ele>445.0</ele><time>2026-04-17T12:12:22.001Z</time></trkpt><trkpt lat="42.65780361679978" lon="11.982608222626158"><ele>445.0</ele><time>2026-04-17T12:12:23.001Z</time></trkpt><trkpt lat="42.65772309109795" lon="11.982636845856241"><ele>446.00000000000006</ele><time>2026-04-17T12:12:24.001Z</time></trkpt><trkpt lat="42.65763491789135" lon="11.982687146731086"><ele>447.0</ele><time>2026-04-17T12:12:25.001Z</time></trkpt><trkpt lat="42.65755551232681" lon="11.98274837053043"><ele>448.0</ele><time>2026-04-17T12:12:26.001Z</time></trkpt><trkpt lat="42.65747711677381" lon="11.982829737284156"><ele>449.0</ele><time>2026-04-17T12:12:27.001Z</time></trkpt><trkpt lat="42.65741232887759" lon="11.982909132418527"><ele>450.00000000000006</ele><time>2026-04-17T12:12:28.001Z</time></trkpt><trkpt lat="42.657355238814596" lon="11.98297638317988"><ele>451.0</ele><time>2026-04-17T12:12:29.001Z</time></trkpt><trkpt lat="42.657301111431416" lon="11.98303373459078"><ele>451.00000000000006</ele><time>2026-04-17T12:12:30.001Z</time></trkpt><trkpt lat="42.65720682100246" lon="11.98312618465049"><ele>451.0</ele><time>2026-04-17T12:12:32.001Z</time></trkpt><trkpt lat="42.65711823194" lon="11.983218382049422"><ele>451.0</ele><time>2026-04-17T12:12:34.001Z</time></trkpt><trkpt lat="42.65706444966917" lon="11.983274290120471"><ele>451.0</ele><time>2026-04-17T12:12:36.001Z</time></trkpt><trkpt lat="42.65700023288852" lon="11.983315828039572"><ele>451.00000000000006</ele><time>2026-04-17T12:12:49.002Z</time></trkpt><trkpt lat="42.65694431388294" lon="11.983358388111245"><ele>451.0</ele><time>2026-04-17T12:12:50.002Z</time></trkpt><trkpt lat="42.65687759836055" lon="11.983418130680906"><ele>451.00000000000006</ele><time>2026-04-17T12:12:52.002Z</time></trkpt><trkpt lat="42.656939170131125" lon="11.98339815053721"><ele>451.0</ele><time>2026-04-17T12:13:02.002Z</time></trkpt><trkpt lat="42.657019497668685" lon="11.983312916790208"><ele>451.0</ele><time>2026-04-17T12:13:03.002Z</time></trkpt><trkpt lat="42.65708133781755" lon="11.983278398294988"><ele>451.0</ele><time>2026-04-17T12:13:05.002Z</time></trkpt><trkpt lat="42.65714795054429" lon="11.983226270601978"><ele>451.00000000000006</ele><time>2026-04-17T12:13:08.002Z</time></trkpt><trkpt lat="42.65720711295716" lon="11.983128360057314"><ele>451.0</ele><time>2026-04-17T12:13:15.002Z</time></trkpt><trkpt lat="42.657273147542384" lon="11.983066235518647"><ele>451.0</ele><time>2026-04-17T12:13:16.002Z</time></trkpt><trkpt lat="42.65736095237472" lon="11.982995667199233"><ele>451.0</ele><time>2026-04-17T12:13:17.002Z</time></trkpt><trkpt lat="42.65745075443107" lon="11.982903563293641"><ele>451.0</ele><time>2026-04-17T12:13:18.002Z</time></trkpt><trkpt lat="42.65754746671469" lon="11.982794263933625"><ele>451.0</ele><time>2026-04-17T12:13:19.002Z</time></trkpt><trkpt lat="42.657633143151166" lon="11.982715729671428"><ele>451.0</ele><time>2026-04-17T12:13:20.003Z</time></trkpt><trkpt lat="42.657717410742244" lon="11.982661786001943"><ele>449.8</ele><time>2026-04-17T12:13:21.003Z</time></trkpt><trkpt lat="42.65779572313882" lon="11.982629330938835"><ele>448.6</ele><time>2026-04-17T12:13:22.003Z</time></trkpt><trkpt lat="42.657972785583766" lon="11.982605665275349"><ele>447.4</ele><time>2026-04-17T12:13:24.003Z</time></trkpt><trkpt lat="42.65806843094723" lon="11.982609099337665"><ele>446.2</ele><time>2026-04-17T12:13:25.003Z</time></trkpt><trkpt lat="42.65814837782762" lon="11.98262193785538"><ele>445.0</ele><time>2026-04-17T12:13:26.003Z</time></trkpt><trkpt lat="42.65823236872394" lon="11.982633776113811"><ele>445.00000000000006</ele><time>2026-04-17T12:13:27.003Z</time></trkpt><trkpt lat="42.658324773004736" lon="11.982623992777922"><ele>445.0</ele><time>2026-04-17T12:13:28.003Z</time></trkpt><trkpt lat="42.658407914126" lon="11.982600337026671"><ele>445.0</ele><time>2026-04-17T12:13:29.003Z</time></trkpt><trkpt lat="42.65848584254797" lon="11.982571248417448"><ele>445.0</ele><time>2026-04-17T12:13:30.003Z</time></trkpt><trkpt lat="42.65857359484253" lon="11.982527355556229"><ele>445.00000000000006</ele><time>2026-04-17T12:13:31.003Z</time></trkpt><trkpt lat="42.658664308111234" lon="11.982487313274175"><ele>445.0</ele><time>2026-04-17T12:13:32.003Z</time></trkpt><trkpt lat="42.65875907427194" lon="11.982454733345874"><ele>444.6</ele><time>2026-04-17T12:13:33.003Z</time></trkpt><trkpt lat="42.65884640290879" lon="11.982441297563424"><ele>444.2</ele><time>2026-04-17T12:13:34.003Z</time></trkpt><trkpt lat="42.65893024938649" lon="11.982445423187533"><ele>443.79999999999995</ele><time>2026-04-17T12:13:35.003Z</time></trkpt><trkpt lat="42.65902392409833" lon="11.982464587876981"><ele>443.4</ele><time>2026-04-17T12:13:36.003Z</time></trkpt><trkpt lat="42.65912219935762" lon="11.982491014042138"><ele>443.0</ele><time>2026-04-17T12:13:37.003Z</time></trkpt><trkpt lat="42.659226148368845" lon="11.982525814095334"><ele>442.99999999999994</ele><time>2026-04-17T12:13:38.003Z</time></trkpt><trkpt lat="42.65933648853489" lon="11.982561607136374"><ele>443.0</ele><time>2026-04-17T12:13:39.003Z</time></trkpt><trkpt lat="42.65943328549051" lon="11.982588102850029"><ele>443.0</ele><time>2026-04-17T12:13:40.003Z</time></trkpt><trkpt lat="42.6595198706637" lon="11.982610204890147"><ele>443.0</ele><time>2026-04-17T12:13:41.003Z</time></trkpt><trkpt lat="42.65959513684201" lon="11.982642758698107"><ele>442.99999999999994</ele><time>2026-04-17T12:13:42.003Z</time></trkpt><trkpt lat="42.65965857434052" lon="11.982670568365656"><ele>443.0</ele><time>2026-04-17T12:13:43.003Z</time></trkpt><trkpt lat="42.65974294280376" lon="11.982652834407036"><ele>444.4</ele><time>2026-04-17T12:13:45.003Z</time></trkpt><trkpt lat="42.659812431137055" lon="11.982555127800257"><ele>445.79999999999995</ele><time>2026-04-17T12:13:47.003Z</time></trkpt><trkpt lat="42.659842250791876" lon="11.982449169906728"><ele>447.2</ele><time>2026-04-17T12:13:48Z</time></trkpt><trkpt lat="42.6598655283102" lon="11.9823193831735"><ele>448.6</ele><time>2026-04-17T12:13:49Z</time></trkpt><trkpt lat="42.659886680817145" lon="11.982191026457292"><ele>450.0</ele><time>2026-04-17T12:13:50Z</time></trkpt><trkpt lat="42.65991331964601" lon="11.982079491806159"><ele>451.3333333333333</ele><time>2026-04-17T12:13:51Z</time></trkpt><trkpt lat="42.65994442744672" lon="11.98195703924948"><ele>452.66666666666663</ele><time>2026-04-17T12:13:52Z</time></trkpt><trkpt lat="42.65996580934154" lon="11.981855927573262"><ele>454.0</ele><time>2026-04-17T12:13:53Z</time></trkpt><trkpt lat="42.65998005359815" lon="11.981765926904927"><ele>455.3333333333333</ele><time>2026-04-17T12:13:54Z</time></trkpt><trkpt lat="42.659965893026886" lon="11.98166690238541"><ele>456.66666666666663</ele><time>2026-04-17T12:13:56Z</time></trkpt><trkpt lat="42.659887885394994" lon="11.981576772220745"><ele>458.0</ele><time>2026-04-17T12:13:58Z</time></trkpt><trkpt lat="42.659823678320556" lon="11.981614157417939"><ele>458.0</ele><time>2026-04-17T12:14:01Z</time></trkpt><trkpt lat="42.65993794921667" lon="11.981650148583594"><ele>457.99999999999994</ele><time>2026-04-17T12:26:07.001Z</time></trkpt><trkpt lat="42.659996739516416" lon="11.981747003666484"><ele>457.99999999999994</ele><time>2026-04-17T12:26:09.001Z</time></trkpt><trkpt lat="42.659981691042766" lon="11.981832799912"><ele>458.0</ele><time>2026-04-17T12:26:10.001Z</time></trkpt><trkpt lat="42.65994792453501" lon="11.981970468703942"><ele>458.0</ele><time>2026-04-17T12:26:11.001Z</time></trkpt><trkpt lat="42.65989304907814" lon="11.982141850502707"><ele>458.59999999999997</ele><time>2026-04-17T12:26:12.001Z</time></trkpt><trkpt lat="42.65984091642874" lon="11.982324514474811"><ele>459.19999999999993</ele><time>2026-04-17T12:26:13.001Z</time></trkpt><trkpt lat="42.65980834744818" lon="11.982453225016277"><ele>459.8</ele><time>2026-04-17T12:26:14.001Z</time></trkpt><trkpt lat="42.6597850415328" lon="11.98254416690378"><ele>460.4</ele><time>2026-04-17T12:26:15.001Z</time></trkpt><trkpt lat="42.659770594489224" lon="11.98265568677855"><ele>461.0</ele><time>2026-04-17T12:26:17.001Z</time></trkpt><trkpt lat="42.6595928254407" lon="11.982620008862146"><ele>459.5</ele><time>2026-04-17T12:26:20.001Z</time></trkpt><trkpt lat="42.65948947957959" lon="11.98259213331768"><ele>458.0</ele><time>2026-04-17T12:26:21.001Z</time></trkpt><trkpt lat="42.65936518413755" lon="11.98257073612582"><ele>456.5</ele><time>2026-04-17T12:26:22.001Z</time></trkpt><trkpt lat="42.659218689194994" lon="11.982519809214235"><ele>455.0</ele><time>2026-04-17T12:26:23.001Z</time></trkpt><trkpt lat="42.65908941461656" lon="11.982475491500868"><ele>455.0</ele><time>2026-04-17T12:26:24Z</time></trkpt><trkpt lat="42.65899498930816" lon="11.982442929547329"><ele>455.0</ele><time>2026-04-17T12:26:24.999Z</time></trkpt><trkpt lat="42.6588986440659" lon="11.982414622697716"><ele>455.0</ele><time>2026-04-17T12:26:26Z</time></trkpt><trkpt lat="42.65880052544756" lon="11.982414615963991"><ele>455.0</ele><time>2026-04-17T12:26:26.999Z</time></trkpt><trkpt lat="42.65870339468603" lon="11.982437792887648"><ele>455.0</ele><time>2026-04-17T12:26:27.999Z</time></trkpt><trkpt lat="42.65862168195566" lon="11.982472570719947"><ele>454.66666666666663</ele><time>2026-04-17T12:26:28.999Z</time></trkpt><trkpt lat="42.658553047008176" lon="11.982511358982306"><ele>454.3333333333333</ele><time>2026-04-17T12:26:29.999Z</time></trkpt><trkpt lat="42.65849204813096" lon="11.98254890895725"><ele>454.0</ele><time>2026-04-17T12:26:30.999Z</time></trkpt><trkpt lat="42.65837972983488" lon="11.98259592035356"><ele>453.66666666666663</ele><time>2026-04-17T12:26:32.999Z</time></trkpt><trkpt lat="42.65825822884856" lon="11.982623982011578"><ele>453.3333333333333</ele><time>2026-04-17T12:26:34.999Z</time></trkpt><trkpt lat="42.65819413177701" lon="11.982627293053087"><ele>453.0</ele><time>2026-04-17T12:26:35.999Z</time></trkpt><trkpt lat="42.65812602980352" lon="11.98262974384278"><ele>452.6666666666667</ele><time>2026-04-17T12:26:36.999Z</time></trkpt><trkpt lat="42.658061659798214" lon="11.982627226904247"><ele>452.33333333333337</ele><time>2026-04-17T12:26:37.999Z</time></trkpt><trkpt lat="42.657998193977825" lon="11.982618080092353"><ele>452.0</ele><time>2026-04-17T12:26:38.999Z</time></trkpt><trkpt lat="42.65787977537389" lon="11.982600108701869"><ele>451.6666666666667</ele><time>2026-04-17T12:26:40.999Z</time></trkpt><trkpt lat="42.65781079923302" lon="11.982617108859536"><ele>451.33333333333337</ele><time>2026-04-17T12:26:41.999Z</time></trkpt><trkpt lat="42.657735532324686" lon="11.982647923047995"><ele>451.0</ele><time>2026-04-17T12:26:42.999Z</time></trkpt><trkpt lat="42.65765007436143" lon="11.9826921945313"><ele>451.0</ele><time>2026-04-17T12:26:44Z</time></trkpt><trkpt lat="42.65756812940889" lon="11.982745126988998"><ele>451.0</ele><time>2026-04-17T12:26:45Z</time></trkpt><trkpt lat="42.657491522331114" lon="11.982830929592462"><ele>451.0</ele><time>2026-04-17T12:26:46Z</time></trkpt><trkpt lat="42.657405150715284" lon="11.982934955327053"><ele>451.0</ele><time>2026-04-17T12:26:47Z</time></trkpt><trkpt lat="42.657316675166044" lon="11.983034498894227"><ele>451.0</ele><time>2026-04-17T12:26:48Z</time></trkpt><trkpt lat="42.65724200667509" lon="11.983105695696565"><ele>451.00000000000006</ele><time>2026-04-17T12:26:49Z</time></trkpt><trkpt lat="42.65716580122805" lon="11.983169779477302"><ele>451.0</ele><time>2026-04-17T12:26:50Z</time></trkpt><trkpt lat="42.657088549192885" lon="11.98323423304917"><ele>451.0</ele><time>2026-04-17T12:26:51Z</time></trkpt><trkpt lat="42.65702081105021" lon="11.983290845308785"><ele>451.0</ele><time>2026-04-17T12:26:52Z</time></trkpt><trkpt lat="42.656948821113296" lon="11.983345294554763"><ele>451.00000000000006</ele><time>2026-04-17T12:26:53Z</time></trkpt><trkpt lat="42.6568540130778" lon="11.983413583295533"><ele>451.0</ele><time>2026-04-17T12:26:54Z</time></trkpt><trkpt lat="42.656740170661664" lon="11.983495036465053"><ele>449.8</ele><time>2026-04-17T12:26:55Z</time></trkpt><trkpt lat="42.65664023226008" lon="11.983568201498231"><ele>448.6</ele><time>2026-04-17T12:26:56Z</time></trkpt><trkpt lat="42.6565440570605" lon="11.98363643502641"><ele>447.4</ele><time>2026-04-17T12:26:57Z</time></trkpt><trkpt lat="42.656458062984726" lon="11.983695916330907"><ele>446.2</ele><time>2026-04-17T12:26:58Z</time></trkpt><trkpt lat="42.65637710170543" lon="11.983743374202252"><ele>445.0</ele><time>2026-04-17T12:26:59Z</time></trkpt><trkpt lat="42.65628935616863" lon="11.983795214630865"><ele>445.0</ele><time>2026-04-17T12:27:00Z</time></trkpt><trkpt lat="42.65620275184005" lon="11.983838676311166"><ele>445.0</ele><time>2026-04-17T12:27:01Z</time></trkpt><trkpt lat="42.65611519304812" lon="11.983888734835084"><ele>445.0</ele><time>2026-04-17T12:27:02Z</time></trkpt><trkpt lat="42.656024006062474" lon="11.98395217113957"><ele>445.0</ele><time>2026-04-17T12:27:03Z</time></trkpt><trkpt lat="42.655937835829214" lon="11.984027753369487"><ele>445.0</ele><time>2026-04-17T12:27:04Z</time></trkpt><trkpt lat="42.655859609689685" lon="11.984109266642829"><ele>443.6666666666667</ele><time>2026-04-17T12:27:05Z</time></trkpt><trkpt lat="42.65578335965371" lon="11.984184748152494"><ele>442.33333333333337</ele><time>2026-04-17T12:27:06Z</time></trkpt><trkpt lat="42.65571896335147" lon="11.984246622462898"><ele>441.0</ele><time>2026-04-17T12:27:07Z</time></trkpt><trkpt lat="42.65565396246861" lon="11.984303017057524"><ele>439.66666666666663</ele><time>2026-04-17T12:27:08Z</time></trkpt><trkpt lat="42.65558023140007" lon="11.984340538425954"><ele>438.3333333333333</ele><time>2026-04-17T12:27:09Z</time></trkpt><trkpt lat="42.65549135255607" lon="11.984332002349806"><ele>437.0</ele><time>2026-04-17T12:27:10Z</time></trkpt><trkpt lat="42.65540522395749" lon="11.984322621825346"><ele>436.99999999999994</ele><time>2026-04-17T12:27:11Z</time></trkpt><trkpt lat="42.65531148720701" lon="11.984311123910794"><ele>437.0</ele><time>2026-04-17T12:27:12Z</time></trkpt><trkpt lat="42.65520892245645" lon="11.984299699308176"><ele>437.0</ele><time>2026-04-17T12:27:13Z</time></trkpt><trkpt lat="42.65511177527776" lon="11.984304079972668"><ele>437.0</ele><time>2026-04-17T12:27:14Z</time></trkpt><trkpt lat="42.65502773575848" lon="11.984298265743506"><ele>436.99999999999994</ele><time>2026-04-17T12:27:15Z</time></trkpt><trkpt lat="42.6549580693722" lon="11.984288786540352"><ele>437.0</ele><time>2026-04-17T12:27:16Z</time></trkpt><trkpt lat="42.6548948355785" lon="11.984274457659764"><ele>435.3333333333333</ele><time>2026-04-17T12:27:17Z</time></trkpt><trkpt lat="42.65481772769818" lon="11.984263730191794"><ele>433.66666666666663</ele><time>2026-04-17T12:27:18Z</time></trkpt><trkpt lat="42.65473279620956" lon="11.984279601006476"><ele>432.0</ele><time>2026-04-17T12:27:19Z</time></trkpt><trkpt lat="42.654667607665594" lon="11.98430514014232"><ele>430.33333333333337</ele><time>2026-04-17T12:27:20Z</time></trkpt><trkpt lat="42.65461065222221" lon="11.984362577588998"><ele>428.6666666666667</ele><time>2026-04-17T12:27:21Z</time></trkpt><trkpt lat="42.65455451426659" lon="11.98445825550385"><ele>427.0</ele><time>2026-04-17T12:27:22Z</time></trkpt><trkpt lat="42.65450130291713" lon="11.984555841375434"><ele>424.83333333333337</ele><time>2026-04-17T12:27:23Z</time></trkpt><trkpt lat="42.65443487028259" lon="11.984615096074855"><ele>422.6666666666667</ele><time>2026-04-17T12:27:24Z</time></trkpt><trkpt lat="42.65436977021933" lon="11.984663149008155"><ele>420.5</ele><time>2026-04-17T12:27:25Z</time></trkpt><trkpt lat="42.65429287418454" lon="11.984715226702809"><ele>418.33333333333337</ele><time>2026-04-17T12:27:26Z</time></trkpt><trkpt lat="42.65420861867069" lon="11.984763572612907"><ele>416.1666666666667</ele><time>2026-04-17T12:27:27Z</time></trkpt><trkpt lat="42.654118252599616" lon="11.984814792210033"><ele>414.0</ele><time>2026-04-17T12:27:28Z</time></trkpt><trkpt lat="42.654023252877366" lon="11.984871815354637"><ele>414.0</ele><time>2026-04-17T12:27:29Z</time></trkpt><trkpt lat="42.65393528409909" lon="11.984926188006039"><ele>414.0</ele><time>2026-04-17T12:27:30Z</time></trkpt><trkpt lat="42.65384818858533" lon="11.985005413825178"><ele>414.0</ele><time>2026-04-17T12:27:31Z</time></trkpt><trkpt lat="42.65375223524885" lon="11.98505819491447"><ele>414.0</ele><time>2026-04-17T12:27:32Z</time></trkpt><trkpt lat="42.653651273645075" lon="11.985101281350602"><ele>414.0</ele><time>2026-04-17T12:27:33Z</time></trkpt><trkpt lat="42.65353998288966" lon="11.985104453526167"><ele>410.79999999999995</ele><time>2026-04-17T12:27:34Z</time></trkpt><trkpt lat="42.6534389591422" lon="11.985162065868154"><ele>407.59999999999997</ele><time>2026-04-17T12:27:35Z</time></trkpt><trkpt lat="42.653344263846726" lon="11.985224972229432"><ele>404.4</ele><time>2026-04-17T12:27:36Z</time></trkpt><trkpt lat="42.653249553357185" lon="11.985293911461548"><ele>401.2</ele><time>2026-04-17T12:27:37Z</time></trkpt><trkpt lat="42.653157351961376" lon="11.98536109969505"><ele>398.0</ele><time>2026-04-17T12:27:38Z</time></trkpt><trkpt lat="42.65307305232423" lon="11.985424021993818"><ele>397.99999999999994</ele><time>2026-04-17T12:27:39Z</time></trkpt><trkpt lat="42.65299884738828" lon="11.98547609927686"><ele>398.0</ele><time>2026-04-17T12:27:40Z</time></trkpt><trkpt lat="42.65293057891319" lon="11.985515630051726"><ele>398.0</ele><time>2026-04-17T12:27:41Z</time></trkpt><trkpt lat="42.65285477546748" lon="11.985547252607187"><ele>398.0</ele><time>2026-04-17T12:27:42Z</time></trkpt><trkpt lat="42.65278280640909" lon="11.9855665102091"><ele>398.0</ele><time>2026-04-17T12:27:43.001Z</time></trkpt><trkpt lat="42.65271362995944" lon="11.985571497399084"><ele>397.99999999999994</ele><time>2026-04-17T12:27:44.001Z</time></trkpt><trkpt lat="42.652649525004634" lon="11.985551554272043"><ele>398.0</ele><time>2026-04-17T12:27:45.001Z</time></trkpt><trkpt lat="42.65259003053993" lon="11.985512890960791"><ele>397.4</ele><time>2026-04-17T12:27:46.001Z</time></trkpt><trkpt lat="42.65255213979411" lon="11.985403801568326"><ele>396.79999999999995</ele><time>2026-04-17T12:27:47.001Z</time></trkpt><trkpt lat="42.652498544740524" lon="11.98527789181434"><ele>396.2</ele><time>2026-04-17T12:27:48.001Z</time></trkpt><trkpt lat="42.652434664771825" lon="11.985153032566368"><ele>395.6</ele><time>2026-04-17T12:27:49.001Z</time></trkpt><trkpt lat="42.65238057448686" lon="11.985047308919079"><ele>395.0</ele><time>2026-04-17T12:27:50.001Z</time></trkpt><trkpt lat="42.652305731780885" lon="11.984962517182822"><ele>396.16666666666663</ele><time>2026-04-17T12:27:51.001Z</time></trkpt><trkpt lat="42.65225167392844" lon="11.98486963211424"><ele>397.3333333333333</ele><time>2026-04-17T12:27:52.001Z</time></trkpt><trkpt lat="42.65221010530721" lon="11.984780670735027"><ele>398.5</ele><time>2026-04-17T12:27:53.001Z</time></trkpt><trkpt lat="42.65217439739272" lon="11.98468647251036"><ele>399.66666666666663</ele><time>2026-04-17T12:27:54.001Z</time></trkpt><trkpt lat="42.652143868123154" lon="11.984579571280511"><ele>400.8333333333333</ele><time>2026-04-17T12:27:55.001Z</time></trkpt><trkpt lat="42.652139340012816" lon="11.98446658770059"><ele>402.0</ele><time>2026-04-17T12:27:56.001Z</time></trkpt><trkpt lat="42.652098460661776" lon="11.984380044415959"><ele>402.0</ele><time>2026-04-17T12:27:57.001Z</time></trkpt><trkpt lat="42.65206116653345" lon="11.984293317706415"><ele>402.0</ele><time>2026-04-17T12:27:58.001Z</time></trkpt><trkpt lat="42.6520132638746" lon="11.984228217820563"><ele>402.0</ele><time>2026-04-17T12:27:59.001Z</time></trkpt><trkpt lat="42.651910106501504" lon="11.984163545279664"><ele>402.0</ele><time>2026-04-17T12:28:01.001Z</time></trkpt><trkpt lat="42.65181533705526" lon="11.984208718748093"><ele>402.0</ele><time>2026-04-17T12:28:03.001Z</time></trkpt><trkpt lat="42.65175118271937" lon="11.984230777165413"><ele>402.0</ele><time>2026-04-17T12:28:06.001Z</time></trkpt><trkpt lat="42.65174892230774" lon="11.984418939087506"><ele>399.1666666666667</ele><time>2026-04-17T12:28:07.001Z</time></trkpt><trkpt lat="42.651744962409424" lon="11.984536236222405"><ele>396.33333333333337</ele><time>2026-04-17T12:28:08.001Z</time></trkpt><trkpt lat="42.65174049986088" lon="11.984624246265758"><ele>393.5</ele><time>2026-04-17T12:28:09.001Z</time></trkpt><trkpt lat="42.65171467334563" lon="11.984761653535688"><ele>390.6666666666667</ele><time>2026-04-17T12:28:11.001Z</time></trkpt><trkpt lat="42.65161553173778" lon="11.984759065643926"><ele>387.83333333333337</ele><time>2026-04-17T12:28:13.001Z</time></trkpt><trkpt lat="42.65155960464124" lon="11.984708926060458"><ele>385.0</ele><time>2026-04-17T12:28:14.001Z</time></trkpt><trkpt lat="42.65147869592818" lon="11.984607551922059"><ele>385.0</ele><time>2026-04-17T12:28:15.001Z</time></trkpt><trkpt lat="42.651365024322125" lon="11.984493946553345"><ele>385.0</ele><time>2026-04-17T12:28:16.001Z</time></trkpt><trkpt lat="42.65127189178795" lon="11.984374010033024"><ele>385.0</ele><time>2026-04-17T12:28:17.001Z</time></trkpt><trkpt lat="42.651181967746766" lon="11.984289034765062"><ele>385.0</ele><time>2026-04-17T12:28:18.001Z</time></trkpt><trkpt lat="42.65109475595842" lon="11.984210667715729"><ele>383.00000000000006</ele><time>2026-04-17T12:28:19.001Z</time></trkpt><trkpt lat="42.65102447619853" lon="11.984145887144308"><ele>381.0</ele><time>2026-04-17T12:28:20.001Z</time></trkpt><trkpt lat="42.650958069466284" lon="11.984109323787841"><ele>379.0</ele><time>2026-04-17T12:28:21.001Z</time></trkpt><trkpt lat="42.65088620259855" lon="11.98407698435352"><ele>377.0</ele><time>2026-04-17T12:28:22.001Z</time></trkpt><trkpt lat="42.65079401336994" lon="11.984115775742923"><ele>375.0</ele><time>2026-04-17T12:28:23.001Z</time></trkpt><trkpt lat="42.65070212110354" lon="11.984126086341483"><ele>373.0</ele><time>2026-04-17T12:28:24.001Z</time></trkpt><trkpt lat="42.650620388269346" lon="11.984165753972068"><ele>373.79999999999995</ele><time>2026-04-17T12:28:25.001Z</time></trkpt><trkpt lat="42.65055299402279" lon="11.984229965260313"><ele>374.6</ele><time>2026-04-17T12:28:26.001Z</time></trkpt><trkpt lat="42.650480610126195" lon="11.984292173729788"><ele>375.4</ele><time>2026-04-17T12:28:27.001Z</time></trkpt><trkpt lat="42.65041006312206" lon="11.984382975291952"><ele>376.20000000000005</ele><time>2026-04-17T12:28:28.001Z</time></trkpt><trkpt lat="42.650333844156776" lon="11.984490939691081"><ele>377.0</ele><time>2026-04-17T12:28:29.001Z</time></trkpt><trkpt lat="42.65026257299711" lon="11.984588745422053"><ele>377.0</ele><time>2026-04-17T12:28:29.997Z</time></trkpt><trkpt lat="42.65020314255641" lon="11.984673085104307"><ele>377.0</ele><time>2026-04-17T12:28:30.997Z</time></trkpt><trkpt lat="42.65016665522315" lon="11.984746284764588"><ele>377.0</ele><time>2026-04-17T12:28:31.997Z</time></trkpt><trkpt lat="42.650111463982945" lon="11.984832338271788"><ele>377.0</ele><time>2026-04-17T12:28:33.997Z</time></trkpt><trkpt lat="42.65030039844094" lon="11.984736118730865"><ele>377.0</ele><time>2026-04-17T12:28:39.997Z</time></trkpt><trkpt lat="42.650405987338175" lon="11.984618786301326"><ele>379.0</ele><time>2026-04-17T12:28:40.997Z</time></trkpt><trkpt lat="42.65052444790099" lon="11.984480248653979"><ele>381.0</ele><time>2026-04-17T12:28:41.997Z</time></trkpt><trkpt lat="42.65063537913027" lon="11.984358485448269"><ele>383.0</ele><time>2026-04-17T12:28:42.997Z</time></trkpt><trkpt lat="42.6507411566955" lon="11.984303048854956"><ele>385.0</ele><time>2026-04-17T12:28:43.998Z</time></trkpt><trkpt lat="42.650839867994634" lon="11.984317293429838"><ele>385.0</ele><time>2026-04-17T12:28:44.998Z</time></trkpt><trkpt lat="42.65093783534566" lon="11.9843908048972"><ele>385.0</ele><time>2026-04-17T12:28:45.998Z</time></trkpt><trkpt lat="42.651002268813194" lon="11.984511437586445"><ele>385.0</ele><time>2026-04-17T12:28:46.998Z</time></trkpt><trkpt lat="42.65099264190989" lon="11.984657008327986"><ele>385.0</ele><time>2026-04-17T12:28:47.998Z</time></trkpt><trkpt lat="42.650978767346146" lon="11.984809906414396"><ele>385.0</ele><time>2026-04-17T12:28:48.998Z</time></trkpt><trkpt lat="42.650881749109864" lon="11.984945409147539"><ele>387.33333333333337</ele><time>2026-04-17T12:28:49.998Z</time></trkpt><trkpt lat="42.650775538995276" lon="11.985114515484137"><ele>389.66666666666663</ele><time>2026-04-17T12:28:50.998Z</time></trkpt><trkpt lat="42.65066884280663" lon="11.985280107786549"><ele>392.0</ele><time>2026-04-17T12:28:51.998Z</time></trkpt><trkpt lat="42.6505302742445" lon="11.985451606450365"><ele>392.0</ele><time>2026-04-17T12:28:52.998Z</time></trkpt><trkpt lat="42.65040426196873" lon="11.985663489822874"><ele>392.0</ele><time>2026-04-17T12:28:53.998Z</time></trkpt><trkpt lat="42.650267399639695" lon="11.98583284457648"><ele>392.0</ele><time>2026-04-17T12:28:54.998Z</time></trkpt><trkpt lat="42.65016165550995" lon="11.985984278806454"><ele>391.5</ele><time>2026-04-17T12:28:55.999Z</time></trkpt><trkpt lat="42.65008189584423" lon="11.986125049833497"><ele>391.0</ele><time>2026-04-17T12:28:56.999Z</time></trkpt><trkpt lat="42.65004080294132" lon="11.986254185268399"><ele>390.5</ele><time>2026-04-17T12:28:57.999Z</time></trkpt><trkpt lat="42.65003287210971" lon="11.986407118515123"><ele>390.0</ele><time>2026-04-17T12:28:58.999Z</time></trkpt><trkpt lat="42.65005939228405" lon="11.986585034719708"><ele>390.33333333333337</ele><time>2026-04-17T12:28:59.999Z</time></trkpt><trkpt lat="42.65011897213522" lon="11.9867767184875"><ele>390.6666666666667</ele><time>2026-04-17T12:29:00.999Z</time></trkpt><trkpt lat="42.650175988946145" lon="11.986974987313232"><ele>391.0</ele><time>2026-04-17T12:29:01.999Z</time></trkpt><trkpt lat="42.65022828863412" lon="11.987158088663715"><ele>391.0</ele><time>2026-04-17T12:29:02.999Z</time></trkpt><trkpt lat="42.65027345165663" lon="11.987317591574616"><ele>391.0</ele><time>2026-04-17T12:29:03.999Z</time></trkpt><trkpt lat="42.650311657078376" lon="11.987458926230868"><ele>391.0</ele><time>2026-04-17T12:29:04.999Z</time></trkpt><trkpt lat="42.65033448258941" lon="11.987601193332617"><ele>391.0</ele><time>2026-04-17T12:29:05.999Z</time></trkpt><trkpt lat="42.650327307810734" lon="11.987748785513487"><ele>393.0</ele><time>2026-04-17T12:29:06.999Z</time></trkpt><trkpt lat="42.65028485421683" lon="11.987888524118572"><ele>395.0</ele><time>2026-04-17T12:29:07.999Z</time></trkpt><trkpt lat="42.65021379149156" lon="11.98802802049579"><ele>397.0</ele><time>2026-04-17T12:29:08.999Z</time></trkpt><trkpt lat="42.650108720451534" lon="11.988173259391774"><ele>399.0</ele><time>2026-04-17T12:29:09.999Z</time></trkpt><trkpt lat="42.649983066610886" lon="11.98833389849457"><ele>401.66666666666663</ele><time>2026-04-17T12:29:10.999Z</time></trkpt><trkpt lat="42.64984570974125" lon="11.988529194538705"><ele>404.3333333333333</ele><time>2026-04-17T12:29:11.999Z</time></trkpt><trkpt lat="42.64970180628427" lon="11.988731974921654"><ele>407.0</ele><time>2026-04-17T12:29:12.999Z</time></trkpt><trkpt lat="42.649573127804814" lon="11.98890891937699"><ele>407.25</ele><time>2026-04-17T12:29:13.999Z</time></trkpt><trkpt lat="42.64945609377762" lon="11.9890646488019"><ele>407.5</ele><time>2026-04-17T12:29:14.999Z</time></trkpt><trkpt lat="42.64935273063153" lon="11.989204097302611"><ele>407.75</ele><time>2026-04-17T12:29:15.999Z</time></trkpt><trkpt lat="42.64925314062401" lon="11.989335512501968"><ele>408.0</ele><time>2026-04-17T12:29:16.999Z</time></trkpt><trkpt lat="42.649161896550126" lon="11.989472494615978"><ele>408.0</ele><time>2026-04-17T12:29:17.999Z</time></trkpt><trkpt lat="42.64908336481514" lon="11.989624224080078"><ele>408.0</ele><time>2026-04-17T12:29:18.999Z</time></trkpt><trkpt lat="42.649009820318405" lon="11.989808024751538"><ele>408.0</ele><time>2026-04-17T12:29:19.999Z</time></trkpt><trkpt lat="42.6489416391033" lon="11.990007435258887"><ele>407.5</ele><time>2026-04-17T12:29:21Z</time></trkpt><trkpt lat="42.648882755178796" lon="11.990174756248756"><ele>407.0</ele><time>2026-04-17T12:29:22Z</time></trkpt><trkpt lat="42.648849111329554" lon="11.990327025939784"><ele>406.5</ele><time>2026-04-17T12:29:23Z</time></trkpt><trkpt lat="42.648848391217705" lon="11.990472050751531"><ele>406.0</ele><time>2026-04-17T12:29:24Z</time></trkpt><trkpt lat="42.64886805066347" lon="11.990605506216324"><ele>406.0</ele><time>2026-04-17T12:29:25Z</time></trkpt><trkpt lat="42.648968949796796" lon="11.990729247715832"><ele>406.0</ele><time>2026-04-17T12:29:26Z</time></trkpt><trkpt lat="42.649094620714585" lon="11.990853382527034"><ele>406.0</ele><time>2026-04-17T12:29:27Z</time></trkpt><trkpt lat="42.64917735734301" lon="11.991026061410276"><ele>406.0</ele><time>2026-04-17T12:29:28Z</time></trkpt><trkpt lat="42.649254578109414" lon="11.991241963920642"><ele>405.6666666666667</ele><time>2026-04-17T12:29:29Z</time></trkpt><trkpt lat="42.64936350505746" lon="11.9914570798319"><ele>405.33333333333337</ele><time>2026-04-17T12:29:30Z</time></trkpt><trkpt lat="42.64948692181842" lon="11.991635483897573"><ele>405.0</ele><time>2026-04-17T12:29:31Z</time></trkpt><trkpt lat="42.64965594298475" lon="11.991785416547629"><ele>410.0</ele><time>2026-04-17T12:29:32Z</time></trkpt><trkpt lat="42.64982531209214" lon="11.991923719439617"><ele>415.0</ele><time>2026-04-17T12:29:33Z</time></trkpt><trkpt lat="42.64996846345911" lon="11.99202960471708"><ele>420.0</ele><time>2026-04-17T12:29:34Z</time></trkpt><trkpt lat="42.65009438605207" lon="11.992094946161997"><ele>420.0</ele><time>2026-04-17T12:29:35Z</time></trkpt><trkpt lat="42.650228078366" lon="11.99210791476393"><ele>420.0</ele><time>2026-04-17T12:29:36Z</time></trkpt><trkpt lat="42.65036167990042" lon="11.992071221633466"><ele>420.0</ele><time>2026-04-17T12:29:37Z</time></trkpt><trkpt lat="42.65047514066418" lon="11.992052757721579"><ele>420.0</ele><time>2026-04-17T12:29:38Z</time></trkpt><trkpt lat="42.65057855966122" lon="11.992096064001835"><ele>421.5</ele><time>2026-04-17T12:29:39Z</time></trkpt><trkpt lat="42.65065303405299" lon="11.992216444721608"><ele>423.0</ele><time>2026-04-17T12:29:40Z</time></trkpt><trkpt lat="42.65071592267084" lon="11.992334411788766"><ele>424.5</ele><time>2026-04-17T12:29:41Z</time></trkpt><trkpt lat="42.65072932412089" lon="11.992491445065175"><ele>426.0</ele><time>2026-04-17T12:29:42Z</time></trkpt><trkpt lat="42.65068460083693" lon="11.992640788416997"><ele>427.5</ele><time>2026-04-17T12:29:43Z</time></trkpt><trkpt lat="42.65058893349997" lon="11.992762724661752"><ele>429.0</ele><time>2026-04-17T12:29:44Z</time></trkpt><trkpt lat="42.65044999548738" lon="11.99281508279732"><ele>430.5</ele><time>2026-04-17T12:29:45Z</time></trkpt><trkpt lat="42.650298608512486" lon="11.992810641180544"><ele>432.0</ele><time>2026-04-17T12:29:46Z</time></trkpt><trkpt lat="42.6501062577397" lon="11.992814058924477"><ele>432.0</ele><time>2026-04-17T12:29:47Z</time></trkpt><trkpt lat="42.64992200567582" lon="11.992797889890275"><ele>432.0</ele><time>2026-04-17T12:29:48Z</time></trkpt><trkpt lat="42.64977856700098" lon="11.992788291814493"><ele>432.0</ele><time>2026-04-17T12:29:49Z</time></trkpt><trkpt lat="42.64966473147024" lon="11.992799564626798"><ele>432.0</ele><time>2026-04-17T12:29:50Z</time></trkpt><trkpt lat="42.649549878725566" lon="11.992862584106053"><ele>432.0</ele><time>2026-04-17T12:29:51Z</time></trkpt><trkpt lat="42.64946314967732" lon="11.992984958940939"><ele>432.0</ele><time>2026-04-17T12:29:52Z</time></trkpt><trkpt lat="42.649400512901266" lon="11.993159594027674"><ele>432.0</ele><time>2026-04-17T12:29:53Z</time></trkpt><trkpt lat="42.649359278618356" lon="11.993379025102646"><ele>432.0</ele><time>2026-04-17T12:29:54Z</time></trkpt><trkpt lat="42.64930591863285" lon="11.9936340504757"><ele>432.33333333333337</ele><time>2026-04-17T12:29:55Z</time></trkpt><trkpt lat="42.6492469786709" lon="11.993902280941546"><ele>432.6666666666667</ele><time>2026-04-17T12:29:56Z</time></trkpt><trkpt lat="42.64918283551129" lon="11.994199448293088"><ele>433.0</ele><time>2026-04-17T12:29:57Z</time></trkpt><trkpt lat="42.64911393771962" lon="11.994508868714119"><ele>433.0</ele><time>2026-04-17T12:29:58Z</time></trkpt><trkpt lat="42.64904750310989" lon="11.994817825292634"><ele>433.0</ele><time>2026-04-17T12:29:59Z</time></trkpt><trkpt lat="42.64898531489963" lon="11.99510733159657"><ele>435.33333333333337</ele><time>2026-04-17T12:30:00Z</time></trkpt><trkpt lat="42.6489315229939" lon="11.995355781213565"><ele>437.66666666666663</ele><time>2026-04-17T12:30:01.001Z</time></trkpt><trkpt lat="42.64887710437436" lon="11.995586539000527"><ele>440.0</ele><time>2026-04-17T12:30:02.001Z</time></trkpt><trkpt lat="42.64883100727055" lon="11.995793048314628"><ele>440.5</ele><time>2026-04-17T12:30:03.001Z</time></trkpt><trkpt lat="42.648817822474534" lon="11.995993948956194"><ele>441.0</ele><time>2026-04-17T12:30:04.001Z</time></trkpt><trkpt lat="42.64884335036861" lon="11.996187020247769"><ele>441.5</ele><time>2026-04-17T12:30:05.001Z</time></trkpt><trkpt lat="42.64890674341761" lon="11.996369911480436"><ele>442.0</ele><time>2026-04-17T12:30:06.001Z</time></trkpt><trkpt lat="42.6489973348593" lon="11.996568364507414"><ele>443.33333333333337</ele><time>2026-04-17T12:30:07.001Z</time></trkpt><trkpt lat="42.6490882014828" lon="11.996753714236949"><ele>444.66666666666663</ele><time>2026-04-17T12:30:08.001Z</time></trkpt><trkpt lat="42.649152511526644" lon="11.996968068863714"><ele>446.0</ele><time>2026-04-17T12:30:09.001Z</time></trkpt><trkpt lat="42.64919683074032" lon="11.997213998266488"><ele>446.0</ele><time>2026-04-17T12:30:10.001Z</time></trkpt><trkpt lat="42.649231754535435" lon="11.997479512379085"><ele>446.0</ele><time>2026-04-17T12:30:11.001Z</time></trkpt><trkpt lat="42.64924919469741" lon="11.997683746472918"><ele>446.0</ele><time>2026-04-17T12:30:12.001Z</time></trkpt><trkpt lat="42.6492533425781" lon="11.997855031832549"><ele>448.75</ele><time>2026-04-17T12:30:13.001Z</time></trkpt><trkpt lat="42.649198758963436" lon="11.998025047688976"><ele>451.5</ele><time>2026-04-17T12:30:14.001Z</time></trkpt><trkpt lat="42.649115372235755" lon="11.998170168152235"><ele>454.25</ele><time>2026-04-17T12:30:15.001Z</time></trkpt><trkpt lat="42.64901883919606" lon="11.99826046019032"><ele>457.0</ele><time>2026-04-17T12:30:16.001Z</time></trkpt><trkpt lat="42.64890421901081" lon="11.998293635397198"><ele>457.0</ele><time>2026-04-17T12:30:17.001Z</time></trkpt><trkpt lat="42.64877507160157" lon="11.998286172404477"><ele>457.0</ele><time>2026-04-17T12:30:18.001Z</time></trkpt><trkpt lat="42.648623827219915" lon="11.99823616648765"><ele>457.0</ele><time>2026-04-17T12:30:19.001Z</time></trkpt><trkpt lat="42.648452080840975" lon="11.998163502225069"><ele>457.0</ele><time>2026-04-17T12:30:20.001Z</time></trkpt><trkpt lat="42.64826418255042" lon="11.998083665218296"><ele>457.0</ele><time>2026-04-17T12:30:21.001Z</time></trkpt><trkpt lat="42.648093808514254" lon="11.998025282249213"><ele>457.0</ele><time>2026-04-17T12:30:22.001Z</time></trkpt><trkpt lat="42.64794063510749" lon="11.997981004691036"><ele>457.0</ele><time>2026-04-17T12:30:23.001Z</time></trkpt><trkpt lat="42.647797950702234" lon="11.997952599740358"><ele>457.0</ele><time>2026-04-17T12:30:24.001Z</time></trkpt><trkpt lat="42.64765247745485" lon="11.997974650661787"><ele>457.0</ele><time>2026-04-17T12:30:25.001Z</time></trkpt><trkpt lat="42.64751055511738" lon="11.998041747685175"><ele>457.0</ele><time>2026-04-17T12:30:26.001Z</time></trkpt><trkpt lat="42.647377963996206" lon="11.998154718999537"><ele>456.6666666666667</ele><time>2026-04-17T12:30:27.001Z</time></trkpt><trkpt lat="42.647243792932656" lon="11.998314547639866"><ele>456.33333333333337</ele><time>2026-04-17T12:30:28.001Z</time></trkpt><trkpt lat="42.64709666390759" lon="11.998511141876639"><ele>456.0</ele><time>2026-04-17T12:30:29.001Z</time></trkpt><trkpt lat="42.64693693048116" lon="11.998720437115535"><ele>457.33333333333337</ele><time>2026-04-17T12:30:30.001Z</time></trkpt><trkpt lat="42.64679564627756" lon="11.998901974050218"><ele>458.6666666666667</ele><time>2026-04-17T12:30:31.001Z</time></trkpt><trkpt lat="42.64666812356572" lon="11.999060653888824"><ele>460.0</ele><time>2026-04-17T12:30:32.001Z</time></trkpt><trkpt lat="42.64656255484572" lon="11.999193717978544"><ele>460.25</ele><time>2026-04-17T12:30:33.001Z</time></trkpt><trkpt lat="42.646490518058926" lon="11.999317732883807"><ele>460.5</ele><time>2026-04-17T12:30:34.001Z</time></trkpt><trkpt lat="42.64645145949021" lon="11.9994592781923"><ele>460.75</ele><time>2026-04-17T12:30:35.001Z</time></trkpt><trkpt lat="42.646446389129686" lon="11.99963163403391"><ele>461.0</ele><time>2026-04-17T12:30:35.999Z</time></trkpt><trkpt lat="42.6464872396965" lon="11.99979303630032"><ele>461.0</ele><time>2026-04-17T12:30:36.999Z</time></trkpt><trkpt lat="42.646558151125" lon="11.99992328967917"><ele>461.0</ele><time>2026-04-17T12:30:37.999Z</time></trkpt><trkpt lat="42.64666787243432" lon="12.000030917568642"><ele>461.0</ele><time>2026-04-17T12:30:38.999Z</time></trkpt><trkpt lat="42.64680400090519" lon="12.000118003312897"><ele>461.0</ele><time>2026-04-17T12:30:39.999Z</time></trkpt><trkpt lat="42.646940800579024" lon="12.000238371100615"><ele>464.0</ele><time>2026-04-17T12:30:40.999Z</time></trkpt><trkpt lat="42.64705978153601" lon="12.000329661629904"><ele>467.0</ele><time>2026-04-17T12:30:41.999Z</time></trkpt><trkpt lat="42.64715656153344" lon="12.000416035423553"><ele>470.0</ele><time>2026-04-17T12:30:42.999Z</time></trkpt><trkpt lat="42.647213497370736" lon="12.000547014375208"><ele>473.0</ele><time>2026-04-17T12:30:43.999Z</time></trkpt><trkpt lat="42.6472362248782" lon="12.000698409163624"><ele>473.25</ele><time>2026-04-17T12:30:44.999Z</time></trkpt><trkpt lat="42.6472168472694" lon="12.00085842410667"><ele>473.5</ele><time>2026-04-17T12:30:45.999Z</time></trkpt><trkpt lat="42.6471575250761" lon="12.001033659290258"><ele>473.75</ele><time>2026-04-17T12:30:46.999Z</time></trkpt><trkpt lat="42.64707191340651" lon="12.00123920020636"><ele>474.0</ele><time>2026-04-17T12:30:47.999Z</time></trkpt><trkpt lat="42.6469705388834" lon="12.001467513686775"><ele>470.33333333333337</ele><time>2026-04-17T12:30:48.999Z</time></trkpt><trkpt lat="42.64686956478613" lon="12.001713400893763"><ele>466.6666666666667</ele><time>2026-04-17T12:30:49.999Z</time></trkpt><trkpt lat="42.64677530355935" lon="12.001980661179925"><ele>463.0</ele><time>2026-04-17T12:30:50.999Z</time></trkpt><trkpt lat="42.64670722057273" lon="12.002223956348839"><ele>463.0</ele><time>2026-04-17T12:30:51.999Z</time></trkpt><trkpt lat="42.64665274419671" lon="12.002486471805904"><ele>463.0</ele><time>2026-04-17T12:30:52.999Z</time></trkpt><trkpt lat="42.646611216063285" lon="12.002775177477318"><ele>463.0</ele><time>2026-04-17T12:30:53.999Z</time></trkpt><trkpt lat="42.646582989902925" lon="12.00307240864543"><ele>468.33333333333337</ele><time>2026-04-17T12:30:54.999Z</time></trkpt><trkpt lat="42.64657494417229" lon="12.0033828714776"><ele>473.66666666666663</ele><time>2026-04-17T12:30:55.999Z</time></trkpt><trkpt lat="42.64656316930818" lon="12.003664763948496"><ele>479.0</ele><time>2026-04-17T12:30:56.999Z</time></trkpt><trkpt lat="42.646560604075944" lon="12.003919548584769"><ele>479.0</ele><time>2026-04-17T12:30:57.999Z</time></trkpt><trkpt lat="42.64655063801294" lon="12.004145409775507"><ele>479.0</ele><time>2026-04-17T12:30:58.999Z</time></trkpt><trkpt lat="42.64653565213115" lon="12.004339864793268"><ele>479.0</ele><time>2026-04-17T12:30:59.999Z</time></trkpt><trkpt lat="42.64649210014004" lon="12.00449256575159"><ele>479.0</ele><time>2026-04-17T12:31:01Z</time></trkpt><trkpt lat="42.64639468046408" lon="12.004563694297262"><ele>481.66666666666663</ele><time>2026-04-17T12:31:02Z</time></trkpt><trkpt lat="42.64629382202038" lon="12.004627859341381"><ele>484.33333333333337</ele><time>2026-04-17T12:31:03Z</time></trkpt><trkpt lat="42.646157630295676" lon="12.00473363624094"><ele>487.0</ele><time>2026-04-17T12:31:04Z</time></trkpt><trkpt lat="42.64599409386539" lon="12.004885392512994"><ele>482.0</ele><time>2026-04-17T12:31:05Z</time></trkpt><trkpt lat="42.645797427428" lon="12.005050243287473"><ele>477.0</ele><time>2026-04-17T12:31:06Z</time></trkpt><trkpt lat="42.64559440911987" lon="12.005241961779438"><ele>477.0</ele><time>2026-04-17T12:31:07Z</time></trkpt><trkpt lat="42.645396130672296" lon="12.00543071904171"><ele>477.0</ele><time>2026-04-17T12:31:08Z</time></trkpt><trkpt lat="42.64523487881624" lon="12.005588862648901"><ele>477.0</ele><time>2026-04-17T12:31:09Z</time></trkpt><trkpt lat="42.64507900996773" lon="12.005720833803924"><ele>478.33333333333337</ele><time>2026-04-17T12:31:10Z</time></trkpt><trkpt lat="42.644937024524204" lon="12.005855424972946"><ele>479.6666666666667</ele><time>2026-04-17T12:31:11Z</time></trkpt><trkpt lat="42.64481102259794" lon="12.006015862260577"><ele>481.0</ele><time>2026-04-17T12:31:12Z</time></trkpt><trkpt lat="42.644693009188714" lon="12.00620781153065"><ele>481.0</ele><time>2026-04-17T12:31:13Z</time></trkpt><trkpt lat="42.64460846598189" lon="12.006436926331784"><ele>481.0</ele><time>2026-04-17T12:31:14Z</time></trkpt><trkpt lat="42.64454997038362" lon="12.006695767919599"><ele>481.0</ele><time>2026-04-17T12:31:15Z</time></trkpt><trkpt lat="42.64451928228473" lon="12.007002335139708"><ele>481.0</ele><time>2026-04-17T12:31:16Z</time></trkpt><trkpt lat="42.64445673797114" lon="12.007324149774895"><ele>481.0</ele><time>2026-04-17T12:31:17Z</time></trkpt><trkpt lat="42.644406329129296" lon="12.007665734850631"><ele>482.5</ele><time>2026-04-17T12:31:18Z</time></trkpt><trkpt lat="42.64435760812727" lon="12.0079939841925"><ele>484.0</ele><time>2026-04-17T12:31:19Z</time></trkpt><trkpt lat="42.644314037685696" lon="12.008288702843663"><ele>484.6666666666667</ele><time>2026-04-17T12:31:20Z</time></trkpt><trkpt lat="42.64428854499389" lon="12.008566753761517"><ele>485.33333333333337</ele><time>2026-04-17T12:31:21Z</time></trkpt><trkpt lat="42.644251052768276" lon="12.008812302063403"><ele>486.0</ele><time>2026-04-17T12:31:22Z</time></trkpt><trkpt lat="42.64422119101836" lon="12.009042058424866"><ele>487.66666666666663</ele><time>2026-04-17T12:31:23Z</time></trkpt><trkpt lat="42.64417936499058" lon="12.009264571560648"><ele>489.3333333333333</ele><time>2026-04-17T12:31:24Z</time></trkpt><trkpt lat="42.644166047503425" lon="12.009491895978197"><ele>491.0</ele><time>2026-04-17T12:31:25Z</time></trkpt><trkpt lat="42.64418074117346" lon="12.00971776033425"><ele>491.0</ele><time>2026-04-17T12:31:26Z</time></trkpt><trkpt lat="42.644237259449895" lon="12.009933480713014"><ele>491.0</ele><time>2026-04-17T12:31:27Z</time></trkpt><trkpt lat="42.64432223198849" lon="12.010152883991056"><ele>491.0</ele><time>2026-04-17T12:31:28Z</time></trkpt><trkpt lat="42.64444472085747" lon="12.010361720057599"><ele>494.66666666666663</ele><time>2026-04-17T12:31:29Z</time></trkpt><trkpt lat="42.644601372177405" lon="12.010559282112856"><ele>498.33333333333337</ele><time>2026-04-17T12:31:30Z</time></trkpt><trkpt lat="42.64477334136798" lon="12.010755830395023"><ele>502.0</ele><time>2026-04-17T12:31:31.001Z</time></trkpt><trkpt lat="42.6449180886623" lon="12.0109405233449"><ele>502.0</ele><time>2026-04-17T12:31:32.001Z</time></trkpt><trkpt lat="42.645046768028685" lon="12.011079687166852"><ele>502.0</ele><time>2026-04-17T12:31:33.001Z</time></trkpt><trkpt lat="42.64517675778217" lon="12.01118902578527"><ele>502.0</ele><time>2026-04-17T12:31:34.001Z</time></trkpt><trkpt lat="42.64531712301703" lon="12.01125511813567"><ele>505.0</ele><time>2026-04-17T12:31:35.001Z</time></trkpt><trkpt lat="42.64548311004962" lon="12.011276895406297"><ele>508.0</ele><time>2026-04-17T12:31:36.001Z</time></trkpt><trkpt lat="42.645663882173814" lon="12.0112928661542"><ele>511.0</ele><time>2026-04-17T12:31:37.001Z</time></trkpt><trkpt lat="42.64585068753387" lon="12.011297049921316"><ele>511.0</ele><time>2026-04-17T12:31:38.001Z</time></trkpt><trkpt lat="42.64601704536056" lon="12.01131024639789"><ele>511.0</ele><time>2026-04-17T12:31:39.001Z</time></trkpt><trkpt lat="42.64617025698862" lon="12.011328480285298"><ele>511.0</ele><time>2026-04-17T12:31:40.001Z</time></trkpt><trkpt lat="42.64630682375333" lon="12.01141273359467"><ele>511.25</ele><time>2026-04-17T12:31:41.001Z</time></trkpt><trkpt lat="42.6464253195648" lon="12.011538011622273"><ele>511.5</ele><time>2026-04-17T12:31:42.001Z</time></trkpt><trkpt lat="42.64652020014444" lon="12.011716984911194"><ele>511.75</ele><time>2026-04-17T12:31:43.001Z</time></trkpt><trkpt lat="42.64660863011323" lon="12.011852485309928"><ele>512.0</ele><time>2026-04-17T12:31:44.001Z</time></trkpt><trkpt lat="42.64668226316813" lon="12.012028023387389"><ele>511.66666666666663</ele><time>2026-04-17T12:31:45.001Z</time></trkpt><trkpt lat="42.646739463555726" lon="12.0122209729303"><ele>511.33333333333337</ele><time>2026-04-17T12:31:46.001Z</time></trkpt><trkpt lat="42.64675798539002" lon="12.01245207585008"><ele>511.0</ele><time>2026-04-17T12:31:47.001Z</time></trkpt><trkpt lat="42.64678067440062" lon="12.01269176396423"><ele>511.0</ele><time>2026-04-17T12:31:48.001Z</time></trkpt><trkpt lat="42.6468186505513" lon="12.012926498394938"><ele>511.0</ele><time>2026-04-17T12:31:49.001Z</time></trkpt><trkpt lat="42.646838848746306" lon="12.01315056871469"><ele>511.0</ele><time>2026-04-17T12:31:50.001Z</time></trkpt><trkpt lat="42.6468669642411" lon="12.013373342330354"><ele>512.3333333333334</ele><time>2026-04-17T12:31:51.001Z</time></trkpt><trkpt lat="42.64690489092513" lon="12.01358385301738"><ele>513.6666666666666</ele><time>2026-04-17T12:31:52.001Z</time></trkpt><trkpt lat="42.64694631388147" lon="12.013786370433023"><ele>515.0</ele><time>2026-04-17T12:31:53.001Z</time></trkpt><trkpt lat="42.64697618649709" lon="12.013974181453609"><ele>518.75</ele><time>2026-04-17T12:31:54.001Z</time></trkpt><trkpt lat="42.64699535147965" lon="12.014161027025338"><ele>522.5</ele><time>2026-04-17T12:31:55.001Z</time></trkpt><trkpt lat="42.64699947804553" lon="12.014347067227247"><ele>526.25</ele><time>2026-04-17T12:31:56.001Z</time></trkpt><trkpt lat="42.64698866136558" lon="12.014532785986834"><ele>530.0</ele><time>2026-04-17T12:31:57.001Z</time></trkpt><trkpt lat="42.64696659685681" lon="12.014723357257537"><ele>528.0</ele><time>2026-04-17T12:31:58.001Z</time></trkpt><trkpt lat="42.646934336335995" lon="12.014926192181647"><ele>526.0</ele><time>2026-04-17T12:31:59.001Z</time></trkpt><trkpt lat="42.646891342923155" lon="12.01513218657246"><ele>524.0</ele><time>2026-04-17T12:32:00.001Z</time></trkpt><trkpt lat="42.64684045503743" lon="12.015329815093285"><ele>524.0</ele><time>2026-04-17T12:32:01.001Z</time></trkpt><trkpt lat="42.64677774986511" lon="12.01552078964237"><ele>524.0</ele><time>2026-04-17T12:32:02.001Z</time></trkpt><trkpt lat="42.64669668720529" lon="12.015699071918126"><ele>524.0</ele><time>2026-04-17T12:32:03.001Z</time></trkpt><trkpt lat="42.64661709132768" lon="12.015866722724128"><ele>525.25</ele><time>2026-04-17T12:32:04.001Z</time></trkpt><trkpt lat="42.64654115774069" lon="12.016022281496072"><ele>526.5</ele><time>2026-04-17T12:32:05.001Z</time></trkpt><trkpt lat="42.64646037600917" lon="12.016172684834816"><ele>527.75</ele><time>2026-04-17T12:32:06.001Z</time></trkpt><trkpt lat="42.6463610320769" lon="12.016315948082164"><ele>529.0</ele><time>2026-04-17T12:32:07.001Z</time></trkpt><trkpt lat="42.64623462570299" lon="12.016441634721735"><ele>529.75</ele><time>2026-04-17T12:32:08.001Z</time></trkpt><trkpt lat="42.646095110217786" lon="12.016561565771298"><ele>530.5</ele><time>2026-04-17T12:32:09.002Z</time></trkpt><trkpt lat="42.645970282301725" lon="12.01664786446215"><ele>531.25</ele><time>2026-04-17T12:32:10.002Z</time></trkpt><trkpt lat="42.64584469654231" lon="12.01672252565037"><ele>532.0</ele><time>2026-04-17T12:32:11.002Z</time></trkpt><trkpt lat="42.64573005027223" lon="12.016803621662477"><ele>532.0</ele><time>2026-04-17T12:32:12.002Z</time></trkpt><trkpt lat="42.64562034028066" lon="12.016908557417432"><ele>532.0</ele><time>2026-04-17T12:32:13.002Z</time></trkpt><trkpt lat="42.64551649200233" lon="12.017033716869276"><ele>532.0</ele><time>2026-04-17T12:32:14.002Z</time></trkpt><trkpt lat="42.64542703560751" lon="12.017177449444905"><ele>532.0</ele><time>2026-04-17T12:32:15.002Z</time></trkpt><trkpt lat="42.64535468665435" lon="12.017354750989435"><ele>531.0</ele><time>2026-04-17T12:32:16.002Z</time></trkpt><trkpt lat="42.645305332081044" lon="12.017545985872303"><ele>530.0</ele><time>2026-04-17T12:32:17.002Z</time></trkpt><trkpt lat="42.645281855861" lon="12.017751243129192"><ele>529.0</ele><time>2026-04-17T12:32:18.002Z</time></trkpt><trkpt lat="42.64527702875029" lon="12.017966963280212"><ele>529.0</ele><time>2026-04-17T12:32:19.002Z</time></trkpt><trkpt lat="42.64527770598936" lon="12.018172319996335"><ele>529.0</ele><time>2026-04-17T12:32:20.002Z</time></trkpt><trkpt lat="42.64527618839938" lon="12.018366079639874"><ele>529.0</ele><time>2026-04-17T12:32:21.002Z</time></trkpt><trkpt lat="42.64526314760967" lon="12.018560321350439"><ele>529.0</ele><time>2026-04-17T12:32:22.002Z</time></trkpt><trkpt lat="42.64526314761146" lon="12.018756964507014"><ele>530.5</ele><time>2026-04-17T12:32:23.002Z</time></trkpt><trkpt lat="42.64526314761287" lon="12.018957368101432"><ele>532.0</ele><time>2026-04-17T12:32:24.002Z</time></trkpt><trkpt lat="42.6452631476153" lon="12.019166727456552"><ele>533.5</ele><time>2026-04-17T12:32:25.002Z</time></trkpt><trkpt lat="42.64527872861366" lon="12.019366870643127"><ele>535.0</ele><time>2026-04-17T12:32:26.002Z</time></trkpt><trkpt lat="42.64527644746116" lon="12.01954970371189"><ele>536.25</ele><time>2026-04-17T12:32:27.002Z</time></trkpt><trkpt lat="42.645272209785325" lon="12.019725682187325"><ele>537.5</ele><time>2026-04-17T12:32:28.002Z</time></trkpt><trkpt lat="42.64524670779889" lon="12.01989978723261"><ele>538.75</ele><time>2026-04-17T12:32:29.002Z</time></trkpt><trkpt lat="42.64523407640717" lon="12.020097936049583"><ele>540.0</ele><time>2026-04-17T12:32:30.002Z</time></trkpt><trkpt lat="42.64517104201876" lon="12.02029139501193"><ele>542.3333333333334</ele><time>2026-04-17T12:32:31.002Z</time></trkpt><trkpt lat="42.64507999049255" lon="12.020479728203451"><ele>544.6666666666667</ele><time>2026-04-17T12:32:32.002Z</time></trkpt><trkpt lat="42.64495254758168" lon="12.0206242165048"><ele>547.0</ele><time>2026-04-17T12:32:33.002Z</time></trkpt><trkpt lat="42.64482216641741" lon="12.020766704708658"><ele>548.0</ele><time>2026-04-17T12:32:34.002Z</time></trkpt><trkpt lat="42.644677725018546" lon="12.020867443478268"><ele>549.0</ele><time>2026-04-17T12:32:35.002Z</time></trkpt><trkpt lat="42.64455045908477" lon="12.020958983851356"><ele>550.0</ele><time>2026-04-17T12:32:36.002Z</time></trkpt><trkpt lat="42.64444028273907" lon="12.02106410550358"><ele>551.0</ele><time>2026-04-17T12:32:37.002Z</time></trkpt><trkpt lat="42.64434109142832" lon="12.021178327164204"><ele>553.5</ele><time>2026-04-17T12:32:38.002Z</time></trkpt><trkpt lat="42.64425560146718" lon="12.021293393152844"><ele>556.0</ele><time>2026-04-17T12:32:39.002Z</time></trkpt><trkpt lat="42.64418584426074" lon="12.021419871377088"><ele>558.5</ele><time>2026-04-17T12:32:40.002Z</time></trkpt><trkpt lat="42.644129047928345" lon="12.021558388782795"><ele>561.0</ele><time>2026-04-17T12:32:41.002Z</time></trkpt><trkpt lat="42.6440693131746" lon="12.021694740210673"><ele>561.75</ele><time>2026-04-17T12:32:41.999Z</time></trkpt><trkpt lat="42.64401447974073" lon="12.021851960223051"><ele>562.5</ele><time>2026-04-17T12:32:42.999Z</time></trkpt><trkpt lat="42.64397924015331" lon="12.022033490414694"><ele>563.25</ele><time>2026-04-17T12:32:43.999Z</time></trkpt><trkpt lat="42.64394139812563" lon="12.022207763755976"><ele>564.0</ele><time>2026-04-17T12:32:44.999Z</time></trkpt><trkpt lat="42.64392524611516" lon="12.022362482426901"><ele>564.6</ele><time>2026-04-17T12:32:45.999Z</time></trkpt><trkpt lat="42.64392889802756" lon="12.022504382795509"><ele>565.2</ele><time>2026-04-17T12:32:46.999Z</time></trkpt><trkpt lat="42.643916939964896" lon="12.022643554097634"><ele>565.8000000000001</ele><time>2026-04-17T12:32:47.999Z</time></trkpt><trkpt lat="42.64390279912169" lon="12.022784499669928"><ele>566.4</ele><time>2026-04-17T12:32:48.999Z</time></trkpt><trkpt lat="42.643892484888376" lon="12.022917183610302"><ele>567.0</ele><time>2026-04-17T12:32:49.999Z</time></trkpt><trkpt lat="42.643885699634254" lon="12.023031796005046"><ele>567.0</ele><time>2026-04-17T12:32:50.999Z</time></trkpt><trkpt lat="42.64387659436473" lon="12.02317721704864"><ele>567.0</ele><time>2026-04-17T12:32:51.999Z</time></trkpt><trkpt lat="42.64384974461144" lon="12.023360507542298"><ele>567.0</ele><time>2026-04-17T12:32:52.999Z</time></trkpt><trkpt lat="42.64383904626127" lon="12.023580879321102"><ele>567.0</ele><time>2026-04-17T12:32:53.999Z</time></trkpt><trkpt lat="42.64380412318542" lon="12.02382312938925"><ele>568.3333333333334</ele><time>2026-04-17T12:32:54.999Z</time></trkpt><trkpt lat="42.64378252909648" lon="12.024096554241348"><ele>569.6666666666667</ele><time>2026-04-17T12:32:56Z</time></trkpt><trkpt lat="42.64377000767955" lon="12.024379097492709"><ele>571.0</ele><time>2026-04-17T12:32:57Z</time></trkpt><trkpt lat="42.643750594896154" lon="12.024671671841391"><ele>573.0</ele><time>2026-04-17T12:32:58Z</time></trkpt><trkpt lat="42.643723077668945" lon="12.024974039401176"><ele>575.0</ele><time>2026-04-17T12:32:59Z</time></trkpt><trkpt lat="42.64369758012647" lon="12.025298108350707"><ele>578.0</ele><time>2026-04-17T12:33:00Z</time></trkpt><trkpt lat="42.6436736068563" lon="12.025632940618596"><ele>581.0</ele><time>2026-04-17T12:33:01Z</time></trkpt><trkpt lat="42.64365155785418" lon="12.025953723189767"><ele>581.0</ele><time>2026-04-17T12:33:02Z</time></trkpt><trkpt lat="42.64363180560705" lon="12.026234722501664"><ele>581.0</ele><time>2026-04-17T12:33:03Z</time></trkpt><trkpt lat="42.64360659743885" lon="12.026503309757882"><ele>581.0</ele><time>2026-04-17T12:33:04Z</time></trkpt><trkpt lat="42.64357945937546" lon="12.026774428838014"><ele>582.0</ele><time>2026-04-17T12:33:05Z</time></trkpt><trkpt lat="42.64353934626165" lon="12.027053079566103"><ele>583.0</ele><time>2026-04-17T12:33:06Z</time></trkpt><trkpt lat="42.64348069941111" lon="12.027348192324018"><ele>584.0</ele><time>2026-04-17T12:33:07Z</time></trkpt><trkpt lat="42.64340854608951" lon="12.027637224603698"><ele>586.0</ele><time>2026-04-17T12:33:08Z</time></trkpt><trkpt lat="42.64331779470967" lon="12.0279077927333"><ele>588.0</ele><time>2026-04-17T12:33:09Z</time></trkpt><trkpt lat="42.64324427434114" lon="12.028151711298744"><ele>590.0</ele><time>2026-04-17T12:33:10Z</time></trkpt><trkpt lat="42.64318422304322" lon="12.028395242778595"><ele>590.3333333333333</ele><time>2026-04-17T12:33:11Z</time></trkpt><trkpt lat="42.64310009115746" lon="12.02863941189603"><ele>590.6666666666666</ele><time>2026-04-17T12:33:12Z</time></trkpt><trkpt lat="42.64301791372699" lon="12.028894783599785"><ele>591.0</ele><time>2026-04-17T12:33:13Z</time></trkpt><trkpt lat="42.64293752900343" lon="12.029150613572794"><ele>590.6666666666666</ele><time>2026-04-17T12:33:14Z</time></trkpt><trkpt lat="42.6428671259841" lon="12.029397849996212"><ele>590.3333333333333</ele><time>2026-04-17T12:33:15Z</time></trkpt><trkpt lat="42.64280394062619" lon="12.029634418684791"><ele>590.0</ele><time>2026-04-17T12:33:16Z</time></trkpt><trkpt lat="42.6427620007609" lon="12.02986101219878"><ele>590.0</ele><time>2026-04-17T12:33:17Z</time></trkpt><trkpt lat="42.64274256615403" lon="12.0300792737513"><ele>590.0</ele><time>2026-04-17T12:33:18Z</time></trkpt><trkpt lat="42.64275284406877" lon="12.030284872768398"><ele>590.0</ele><time>2026-04-17T12:33:19Z</time></trkpt><trkpt lat="42.64279564959745" lon="12.030494294898979"><ele>588.0</ele><time>2026-04-17T12:33:20Z</time></trkpt><trkpt lat="42.64287908083939" lon="12.030711508586643"><ele>586.0</ele><time>2026-04-17T12:33:21Z</time></trkpt><trkpt lat="42.64298124647424" lon="12.030950667407522"><ele>584.0</ele><time>2026-04-17T12:33:22Z</time></trkpt><trkpt lat="42.64306400056158" lon="12.031191903267349"><ele>583.3333333333333</ele><time>2026-04-17T12:33:23.001Z</time></trkpt><trkpt lat="42.64313159485358" lon="12.031416499875684"><ele>582.6666666666666</ele><time>2026-04-17T12:33:24.001Z</time></trkpt><trkpt lat="42.64318527500726" lon="12.031676353536229"><ele>582.0</ele><time>2026-04-17T12:33:25.001Z</time></trkpt><trkpt lat="42.64322260972809" lon="12.031957744473553"><ele>581.6666666666666</ele><time>2026-04-17T12:33:26.001Z</time></trkpt><trkpt lat="42.64327171764653" lon="12.032206570064329"><ele>581.3333333333333</ele><time>2026-04-17T12:33:27.001Z</time></trkpt><trkpt lat="42.64330008203464" lon="12.03243405179553"><ele>581.0</ele><time>2026-04-17T12:33:28.001Z</time></trkpt><trkpt lat="42.64332719094062" lon="12.032638724656863"><ele>580.5</ele><time>2026-04-17T12:33:29.001Z</time></trkpt><trkpt lat="42.64335175615267" lon="12.032835019077801"><ele>580.0</ele><time>2026-04-17T12:33:30.001Z</time></trkpt><trkpt lat="42.64337685105242" lon="12.033027720224819"><ele>579.5</ele><time>2026-04-17T12:33:31.001Z</time></trkpt><trkpt lat="42.643399666666426" lon="12.033211997373423"><ele>579.0</ele><time>2026-04-17T12:33:32.001Z</time></trkpt><trkpt lat="42.6434201161841" lon="12.03337659125415"><ele>578.2</ele><time>2026-04-17T12:33:33.001Z</time></trkpt><trkpt lat="42.64343476878126" lon="12.033522859950768"><ele>577.4</ele><time>2026-04-17T12:33:34.001Z</time></trkpt><trkpt lat="42.64344597015456" lon="12.03367014718978"><ele>576.6</ele><time>2026-04-17T12:33:35.001Z</time></trkpt><trkpt lat="42.643459704055175" lon="12.033804323855541"><ele>575.8</ele><time>2026-04-17T12:33:36.001Z</time></trkpt><trkpt lat="42.643467454944194" lon="12.033905365160638"><ele>575.0</ele><time>2026-04-17T12:33:37.001Z</time></trkpt><trkpt lat="42.643473036018264" lon="12.03402539925395"><ele>575.0</ele><time>2026-04-17T12:33:39.001Z</time></trkpt><trkpt lat="42.64349003564838" lon="12.034127297590564"><ele>575.0</ele><time>2026-04-17T12:33:42.001Z</time></trkpt><trkpt lat="42.64350949373945" lon="12.03427118323678"><ele>575.0</ele><time>2026-04-17T12:33:43.001Z</time></trkpt><trkpt lat="42.6435409441369" lon="12.034443155420984"><ele>575.0</ele><time>2026-04-17T12:33:44.001Z</time></trkpt><trkpt lat="42.64358029909967" lon="12.03463516867125"><ele>573.0</ele><time>2026-04-17T12:33:45.001Z</time></trkpt><trkpt lat="42.64361103719488" lon="12.03486663849559"><ele>571.0</ele><time>2026-04-17T12:33:46.001Z</time></trkpt><trkpt lat="42.643615169982645" lon="12.035075921971698"><ele>569.0</ele><time>2026-04-17T12:33:47.001Z</time></trkpt><trkpt lat="42.64360305378351" lon="12.035289210985262"><ele>568.6666666666666</ele><time>2026-04-17T12:33:48.001Z</time></trkpt><trkpt lat="42.643571529108115" lon="12.035527623001636"><ele>568.3333333333334</ele><time>2026-04-17T12:33:49.001Z</time></trkpt><trkpt lat="42.64352150193154" lon="12.035774158468087"><ele>568.0</ele><time>2026-04-17T12:33:50.001Z</time></trkpt><trkpt lat="42.64345955493171" lon="12.035989119432642"><ele>569.0</ele><time>2026-04-17T12:33:51.001Z</time></trkpt><trkpt lat="42.64340326368197" lon="12.036178680487449"><ele>570.0</ele><time>2026-04-17T12:33:52.001Z</time></trkpt><trkpt lat="42.64334974817374" lon="12.036380201981158"><ele>571.0</ele><time>2026-04-17T12:33:53.001Z</time></trkpt><trkpt lat="42.64330191918535" lon="12.036585127997219"><ele>572.0</ele><time>2026-04-17T12:33:54.001Z</time></trkpt><trkpt lat="42.64325706397968" lon="12.036787702027334"><ele>573.0</ele><time>2026-04-17T12:33:55.001Z</time></trkpt><trkpt lat="42.643208287113815" lon="12.036996846239427"><ele>574.0</ele><time>2026-04-17T12:33:56.001Z</time></trkpt><trkpt lat="42.64316163374052" lon="12.0371913319766"><ele>574.0</ele><time>2026-04-17T12:33:57.002Z</time></trkpt><trkpt lat="42.64311485164514" lon="12.037376565746385"><ele>574.0</ele><time>2026-04-17T12:33:58.002Z</time></trkpt><trkpt lat="42.64306530674383" lon="12.037564630541823"><ele>574.0</ele><time>2026-04-17T12:33:59.002Z</time></trkpt><trkpt lat="42.642987440519526" lon="12.037744245247112"><ele>574.0</ele><time>2026-04-17T12:34:00.002Z</time></trkpt><trkpt lat="42.64293033864745" lon="12.037925854760514"><ele>574.75</ele><time>2026-04-17T12:34:01.002Z</time></trkpt><trkpt lat="42.642856820580995" lon="12.038095435367756"><ele>575.5</ele><time>2026-04-17T12:34:02.002Z</time></trkpt><trkpt lat="42.6427876161409" lon="12.03826067752543"><ele>576.25</ele><time>2026-04-17T12:34:03.002Z</time></trkpt><trkpt lat="42.642723097801834" lon="12.038415065410282"><ele>577.0</ele><time>2026-04-17T12:34:04.002Z</time></trkpt><trkpt lat="42.64265971262902" lon="12.03856090869272"><ele>575.5</ele><time>2026-04-17T12:34:05.002Z</time></trkpt><trkpt lat="42.642598093199645" lon="12.038708862962626"><ele>574.0</ele><time>2026-04-17T12:34:06.002Z</time></trkpt><trkpt lat="42.64253766454181" lon="12.038856530848163"><ele>572.5</ele><time>2026-04-17T12:34:07.002Z</time></trkpt><trkpt lat="42.642487009514724" lon="12.039006037923333"><ele>571.0</ele><time>2026-04-17T12:34:08.002Z</time></trkpt><trkpt lat="42.642443718091926" lon="12.03917251691608"><ele>570.75</ele><time>2026-04-17T12:34:09.002Z</time></trkpt><trkpt lat="42.64240206921823" lon="12.039344077002488"><ele>570.5</ele><time>2026-04-17T12:34:10.002Z</time></trkpt><trkpt lat="42.6423667987253" lon="12.039516793364776"><ele>570.25</ele><time>2026-04-17T12:34:11.002Z</time></trkpt><trkpt lat="42.64233701656419" lon="12.03970370718036"><ele>570.0</ele><time>2026-04-17T12:34:12.002Z</time></trkpt><trkpt lat="42.64231527498864" lon="12.039901604433517"><ele>570.0</ele><time>2026-04-17T12:34:13.002Z</time></trkpt><trkpt lat="42.642307207155795" lon="12.040118145807856"><ele>570.0</ele><time>2026-04-17T12:34:14.002Z</time></trkpt><trkpt lat="42.64229111280509" lon="12.040381848261724"><ele>570.0</ele><time>2026-04-17T12:34:15.002Z</time></trkpt><trkpt lat="42.64229308228327" lon="12.04069234320377"><ele>570.5</ele><time>2026-04-17T12:34:16.002Z</time></trkpt><trkpt lat="42.64229536169385" lon="12.0410519034609"><ele>571.0</ele><time>2026-04-17T12:34:17.002Z</time></trkpt><trkpt lat="42.642306070294694" lon="12.041438508667861"><ele>569.5</ele><time>2026-04-17T12:34:18.002Z</time></trkpt><trkpt lat="42.64229593710643" lon="12.04183297256521"><ele>568.0</ele><time>2026-04-17T12:34:19.002Z</time></trkpt><trkpt lat="42.64229288912802" lon="12.042204652637373"><ele>566.5</ele><time>2026-04-17T12:34:20.002Z</time></trkpt><trkpt lat="42.64229094344659" lon="12.04255292471195"><ele>565.0</ele><time>2026-04-17T12:34:21.002Z</time></trkpt><trkpt lat="42.64228928630355" lon="12.042885869685986"><ele>565.0</ele><time>2026-04-17T12:34:22.002Z</time></trkpt><trkpt lat="42.64228760031113" lon="12.043206512574034"><ele>565.0</ele><time>2026-04-17T12:34:23.002Z</time></trkpt><trkpt lat="42.64228640881674" lon="12.043519704102634"><ele>563.5</ele><time>2026-04-17T12:34:24.002Z</time></trkpt><trkpt lat="42.64228762103559" lon="12.043833171642088"><ele>562.0</ele><time>2026-04-17T12:34:25.002Z</time></trkpt><trkpt lat="42.642288454212306" lon="12.04414847435348"><ele>560.0</ele><time>2026-04-17T12:34:26.002Z</time></trkpt><trkpt lat="42.64228580760051" lon="12.04447165286093"><ele>558.0</ele><time>2026-04-17T12:34:27.002Z</time></trkpt><trkpt lat="42.6422844597017" lon="12.044805774779892"><ele>556.0</ele><time>2026-04-17T12:34:28.002Z</time></trkpt><trkpt lat="42.64228117534108" lon="12.045142866869474"><ele>554.0</ele><time>2026-04-17T12:34:29.002Z</time></trkpt><trkpt lat="42.64227981577155" lon="12.045474766023258"><ele>552.5</ele><time>2026-04-17T12:34:30.002Z</time></trkpt><trkpt lat="42.64228430204182" lon="12.045801612854808"><ele>551.0</ele><time>2026-04-17T12:34:31.002Z</time></trkpt><trkpt lat="42.64229358764353" lon="12.046125926412783"><ele>551.0</ele><time>2026-04-17T12:34:32.002Z</time></trkpt><trkpt lat="42.64230769270431" lon="12.046450534945068"><ele>551.0</ele><time>2026-04-17T12:34:33.003Z</time></trkpt><trkpt lat="42.6423251764965" lon="12.04676609640472"><ele>549.5</ele><time>2026-04-17T12:34:34.003Z</time></trkpt><trkpt lat="42.64234521599523" lon="12.047078179908173"><ele>548.0</ele><time>2026-04-17T12:34:35.003Z</time></trkpt><trkpt lat="42.642364202005446" lon="12.04738712047818"><ele>547.5</ele><time>2026-04-17T12:34:36.003Z</time></trkpt><trkpt lat="42.642383365197496" lon="12.047694526851563"><ele>547.0</ele><time>2026-04-17T12:34:37.003Z</time></trkpt><trkpt lat="42.642400290111226" lon="12.048010100065813"><ele>543.5</ele><time>2026-04-17T12:34:38.003Z</time></trkpt><trkpt lat="42.64241302541369" lon="12.048350030183528"><ele>540.0</ele><time>2026-04-17T12:34:39.003Z</time></trkpt><trkpt lat="42.642423232916826" lon="12.04871617473739"><ele>540.0</ele><time>2026-04-17T12:34:40.003Z</time></trkpt><trkpt lat="42.64243087863369" lon="12.049102582420387"><ele>540.0</ele><time>2026-04-17T12:34:41.003Z</time></trkpt><trkpt lat="42.642438990573076" lon="12.049508183425502"><ele>537.5</ele><time>2026-04-17T12:34:42.003Z</time></trkpt><trkpt lat="42.64244769909798" lon="12.049928891365573"><ele>535.0</ele><time>2026-04-17T12:34:43.003Z</time></trkpt><trkpt lat="42.6424553675194" lon="12.05036435606673"><ele>532.5</ele><time>2026-04-17T12:34:44.003Z</time></trkpt><trkpt lat="42.64246530807726" lon="12.050816606494593"><ele>530.0</ele><time>2026-04-17T12:34:45.003Z</time></trkpt><trkpt lat="42.64247261055054" lon="12.05126695411214"><ele>530.0</ele><time>2026-04-17T12:34:46.003Z</time></trkpt><trkpt lat="42.642480111112356" lon="12.051678488870555"><ele>530.0</ele><time>2026-04-17T12:34:47.003Z</time></trkpt><trkpt lat="42.642486173987976" lon="12.052056151427323"><ele>530.0</ele><time>2026-04-17T12:34:48.001Z</time></trkpt><trkpt lat="42.64249300994749" lon="12.052415139270103"><ele>530.0</ele><time>2026-04-17T12:34:49.001Z</time></trkpt><trkpt lat="42.64250238453296" lon="12.052763352465561"><ele>530.0</ele><time>2026-04-17T12:34:50.001Z</time></trkpt><trkpt lat="42.64251066643964" lon="12.053091304144923"><ele>530.0</ele><time>2026-04-17T12:34:51.001Z</time></trkpt><trkpt lat="42.642518066197965" lon="12.053402548643174"><ele>530.0</ele><time>2026-04-17T12:34:52.001Z</time></trkpt><trkpt lat="42.642527000250816" lon="12.053702829776755"><ele>530.0</ele><time>2026-04-17T12:34:53.001Z</time></trkpt><trkpt lat="42.642540049400715" lon="12.053997788494364"><ele>530.0</ele><time>2026-04-17T12:34:54.001Z</time></trkpt><trkpt lat="42.64256696678171" lon="12.05430943748365"><ele>529.5</ele><time>2026-04-17T12:34:55.001Z</time></trkpt><trkpt lat="42.64260996405695" lon="12.054639609017615"><ele>529.0</ele><time>2026-04-17T12:34:56.001Z</time></trkpt><trkpt lat="42.64266336224739" lon="12.054982440772958"><ele>529.0</ele><time>2026-04-17T12:34:57.001Z</time></trkpt><trkpt lat="42.64271309797077" lon="12.055340852060196"><ele>529.0</ele><time>2026-04-17T12:34:58.001Z</time></trkpt><trkpt lat="42.642762087701335" lon="12.055713817062392"><ele>527.5</ele><time>2026-04-17T12:34:59.001Z</time></trkpt><trkpt lat="42.642811183380125" lon="12.056091588497258"><ele>526.0</ele><time>2026-04-17T12:35:00.001Z</time></trkpt><trkpt lat="42.64286069307229" lon="12.056473738810126"><ele>526.5</ele><time>2026-04-17T12:35:01.001Z</time></trkpt><trkpt lat="42.642912598720784" lon="12.056860301924813"><ele>527.0</ele><time>2026-04-17T12:35:02.001Z</time></trkpt><trkpt lat="42.6429634409033" lon="12.057239622205802"><ele>528.0</ele><time>2026-04-17T12:35:03.001Z</time></trkpt><trkpt lat="42.64301261841691" lon="12.057607775841058"><ele>529.0</ele><time>2026-04-17T12:35:04.001Z</time></trkpt><trkpt lat="42.6430640311749" lon="12.057982036638467"><ele>531.0</ele><time>2026-04-17T12:35:05.001Z</time></trkpt><trkpt lat="42.64311613719836" lon="12.058346497878297"><ele>533.0</ele><time>2026-04-17T12:35:06.001Z</time></trkpt><trkpt lat="42.64317198858394" lon="12.058732121921244"><ele>533.0</ele><time>2026-04-17T12:35:07.001Z</time></trkpt><trkpt lat="42.64322320529755" lon="12.059095902364174"><ele>533.0</ele><time>2026-04-17T12:35:08.001Z</time></trkpt><trkpt lat="42.643269511177365" lon="12.05942735487371"><ele>533.6666666666666</ele><time>2026-04-17T12:35:09.001Z</time></trkpt><trkpt lat="42.643303822388255" lon="12.059742552326536"><ele>534.3333333333334</ele><time>2026-04-17T12:35:10.001Z</time></trkpt><trkpt lat="42.643339887067356" lon="12.06002909279345"><ele>535.0</ele><time>2026-04-17T12:35:11.001Z</time></trkpt><trkpt lat="42.643379221324025" lon="12.060299766874419"><ele>535.0</ele><time>2026-04-17T12:35:12.001Z</time></trkpt><trkpt lat="42.64341562996185" lon="12.060551037057662"><ele>535.0</ele><time>2026-04-17T12:35:13.001Z</time></trkpt><trkpt lat="42.64344803394887" lon="12.060792052507187"><ele>535.0</ele><time>2026-04-17T12:35:14.001Z</time></trkpt><trkpt lat="42.64346627265564" lon="12.061046210600333"><ele>534.3333333333334</ele><time>2026-04-17T12:35:15.001Z</time></trkpt><trkpt lat="42.64346881209472" lon="12.061321908081753"><ele>533.6666666666666</ele><time>2026-04-17T12:35:16.001Z</time></trkpt><trkpt lat="42.64345164680052" lon="12.061634721254748"><ele>533.0</ele><time>2026-04-17T12:35:17.001Z</time></trkpt><trkpt lat="42.643427330626714" lon="12.061986376414843"><ele>531.0</ele><time>2026-04-17T12:35:18.001Z</time></trkpt><trkpt lat="42.64339786347774" lon="12.062319493073355"><ele>529.0</ele><time>2026-04-17T12:35:19.001Z</time></trkpt><trkpt lat="42.64337314806129" lon="12.062624456482286"><ele>528.3333333333334</ele><time>2026-04-17T12:35:20.001Z</time></trkpt><trkpt lat="42.643362529853455" lon="12.062911621784549"><ele>527.6666666666666</ele><time>2026-04-17T12:35:21.001Z</time></trkpt><trkpt lat="42.64337703244634" lon="12.063197903677679"><ele>527.0</ele><time>2026-04-17T12:35:22.001Z</time></trkpt><trkpt lat="42.6434037460295" lon="12.063518080338929"><ele>526.0</ele><time>2026-04-17T12:35:23.001Z</time></trkpt><trkpt lat="42.64345254094678" lon="12.063870168575558"><ele>525.0</ele><time>2026-04-17T12:35:24.001Z</time></trkpt><trkpt lat="42.64351491712929" lon="12.064245130011972"><ele>525.0</ele><time>2026-04-17T12:35:25.001Z</time></trkpt><trkpt lat="42.64357906426643" lon="12.06461595073849"><ele>525.0</ele><time>2026-04-17T12:35:26.001Z</time></trkpt><trkpt lat="42.643643297139285" lon="12.065008195712617"><ele>522.5</ele><time>2026-04-17T12:35:27.001Z</time></trkpt><trkpt lat="42.64371060358507" lon="12.065414401629269"><ele>520.0</ele><time>2026-04-17T12:35:28.001Z</time></trkpt><trkpt lat="42.64376894929644" lon="12.065786634855801"><ele>520.0</ele><time>2026-04-17T12:35:29.001Z</time></trkpt><trkpt lat="42.64381960514233" lon="12.066125380469309"><ele>520.0</ele><time>2026-04-17T12:35:30.001Z</time></trkpt><trkpt lat="42.643868348730564" lon="12.066449669424895"><ele>519.5</ele><time>2026-04-17T12:35:31.001Z</time></trkpt><trkpt lat="42.643919509559204" lon="12.06676124340566"><ele>519.0</ele><time>2026-04-17T12:35:32.001Z</time></trkpt><trkpt lat="42.643968295763635" lon="12.067055238252545"><ele>519.0</ele><time>2026-04-17T12:35:33.001Z</time></trkpt><trkpt lat="42.64401063195841" lon="12.067336249602773"><ele>519.0</ele><time>2026-04-17T12:35:34.001Z</time></trkpt><trkpt lat="42.644045471765864" lon="12.067626003915096"><ele>519.0</ele><time>2026-04-17T12:35:35.001Z</time></trkpt><trkpt lat="42.644075707094565" lon="12.067922023652779"><ele>518.3333333333334</ele><time>2026-04-17T12:35:36.001Z</time></trkpt><trkpt lat="42.644098840076616" lon="12.068221814142836"><ele>517.6666666666667</ele><time>2026-04-17T12:35:37.001Z</time></trkpt><trkpt lat="42.64411085639187" lon="12.068525881519289"><ele>517.0</ele><time>2026-04-17T12:35:38.001Z</time></trkpt><trkpt lat="42.64411262311711" lon="12.068815450128312"><ele>516.6666666666667</ele><time>2026-04-17T12:35:39.001Z</time></trkpt><trkpt lat="42.644113436283924" lon="12.069054770107925"><ele>516.3333333333334</ele><time>2026-04-17T12:35:40.001Z</time></trkpt><trkpt lat="42.644101079489985" lon="12.06928582917336"><ele>516.0</ele><time>2026-04-17T12:35:41.001Z</time></trkpt><trkpt lat="42.64406466850411" lon="12.069520180998147"><ele>516.0</ele><time>2026-04-17T12:35:42.001Z</time></trkpt><trkpt lat="42.64399725034591" lon="12.069756659273786"><ele>516.0</ele><time>2026-04-17T12:35:43.002Z</time></trkpt><trkpt lat="42.64389967150505" lon="12.070000864483188"><ele>516.0</ele><time>2026-04-17T12:35:44.002Z</time></trkpt><trkpt lat="42.643792334164864" lon="12.070232141754605"><ele>515.0</ele><time>2026-04-17T12:35:45.002Z</time></trkpt><trkpt lat="42.64370725601852" lon="12.070455335091006"><ele>514.0</ele><time>2026-04-17T12:35:46.002Z</time></trkpt><trkpt lat="42.64366299889281" lon="12.070680679359151"><ele>513.0</ele><time>2026-04-17T12:35:47.002Z</time></trkpt><trkpt lat="42.643658519592165" lon="12.07091189673452"><ele>512.0</ele><time>2026-04-17T12:35:48.002Z</time></trkpt><trkpt lat="42.6436819342228" lon="12.071161646254529"><ele>511.0</ele><time>2026-04-17T12:35:49.002Z</time></trkpt><trkpt lat="42.64372949099279" lon="12.071431374035004"><ele>510.0</ele><time>2026-04-17T12:35:50.002Z</time></trkpt><trkpt lat="42.64378516579606" lon="12.071732076124736"><ele>510.0</ele><time>2026-04-17T12:35:51.002Z</time></trkpt><trkpt lat="42.643837270781034" lon="12.07203209989071"><ele>510.0</ele><time>2026-04-17T12:35:52.002Z</time></trkpt><trkpt lat="42.643891665154904" lon="12.07230132470738"><ele>510.0</ele><time>2026-04-17T12:35:53.002Z</time></trkpt><trkpt lat="42.64395785348637" lon="12.072568452490884"><ele>510.0</ele><time>2026-04-17T12:35:54.002Z</time></trkpt><trkpt lat="42.64402645011415" lon="12.072832934620287"><ele>510.0</ele><time>2026-04-17T12:35:55.002Z</time></trkpt><trkpt lat="42.64409539521672" lon="12.07306694794801"><ele>510.0</ele><time>2026-04-17T12:35:56.002Z</time></trkpt><trkpt lat="42.64414213654428" lon="12.073266394831537"><ele>510.5</ele><time>2026-04-17T12:35:57.002Z</time></trkpt><trkpt lat="42.64417941208255" lon="12.073458026197759"><ele>511.0</ele><time>2026-04-17T12:35:58.002Z</time></trkpt><trkpt lat="42.644173917866674" lon="12.073640318252014"><ele>511.5</ele><time>2026-04-17T12:35:59.002Z</time></trkpt><trkpt lat="42.644164961507144" lon="12.073823491044934"><ele>512.0</ele><time>2026-04-17T12:36:00.002Z</time></trkpt><trkpt lat="42.6441219824819" lon="12.074000514627402"><ele>512.0</ele><time>2026-04-17T12:36:01.002Z</time></trkpt><trkpt lat="42.64404726176114" lon="12.074188041847647"><ele>512.0</ele><time>2026-04-17T12:36:02.002Z</time></trkpt><trkpt lat="42.64394372820545" lon="12.074371585306015"><ele>512.0</ele><time>2026-04-17T12:36:03.002Z</time></trkpt><trkpt lat="42.643829414474446" lon="12.074542021573485"><ele>512.0</ele><time>2026-04-17T12:36:04.002Z</time></trkpt><trkpt lat="42.64367718417356" lon="12.074700355155992"><ele>512.0</ele><time>2026-04-17T12:36:05.002Z</time></trkpt><trkpt lat="42.64348762110344" lon="12.074847446790415"><ele>512.0</ele><time>2026-04-17T12:36:06.002Z</time></trkpt><trkpt lat="42.64329852634858" lon="12.07504139900496"><ele>510.0</ele><time>2026-04-17T12:36:07.002Z</time></trkpt><trkpt lat="42.6430885394276" lon="12.075230358203694"><ele>508.0</ele><time>2026-04-17T12:36:08.002Z</time></trkpt><trkpt lat="42.64289912580803" lon="12.075423304017948"><ele>508.33333333333337</ele><time>2026-04-17T12:36:09.002Z</time></trkpt><trkpt lat="42.642728401306435" lon="12.075617969918124"><ele>508.66666666666663</ele><time>2026-04-17T12:36:10.002Z</time></trkpt><trkpt lat="42.6425803466417" lon="12.075839686646122"><ele>509.0</ele><time>2026-04-17T12:36:11.002Z</time></trkpt><trkpt lat="42.64243353520649" lon="12.076114981770937"><ele>509.0</ele><time>2026-04-17T12:36:12.002Z</time></trkpt><trkpt lat="42.642292396514165" lon="12.076433919447775"><ele>509.0</ele><time>2026-04-17T12:36:13.002Z</time></trkpt><trkpt lat="42.64216190768052" lon="12.076742248223992"><ele>509.3333333333333</ele><time>2026-04-17T12:36:14.002Z</time></trkpt><trkpt lat="42.6420396982129" lon="12.077012615463847"><ele>509.66666666666663</ele><time>2026-04-17T12:36:15.002Z</time></trkpt><trkpt lat="42.64192429104615" lon="12.077239373871029"><ele>510.0</ele><time>2026-04-17T12:36:16.002Z</time></trkpt><trkpt lat="42.64184299423088" lon="12.077423985378552"><ele>511.0</ele><time>2026-04-17T12:36:17.002Z</time></trkpt><trkpt lat="42.641756130693764" lon="12.077622527859354"><ele>512.0</ele><time>2026-04-17T12:36:18.002Z</time></trkpt><trkpt lat="42.6416671554432" lon="12.077843622478069"><ele>513.0</ele><time>2026-04-17T12:36:19.002Z</time></trkpt><trkpt lat="42.64158490712956" lon="12.078092076312565"><ele>512.3333333333334</ele><time>2026-04-17T12:36:20.002Z</time></trkpt><trkpt lat="42.64150966551513" lon="12.078363218202833"><ele>511.6666666666667</ele><time>2026-04-17T12:36:21.002Z</time></trkpt><trkpt lat="42.641426438203645" lon="12.07865313899388"><ele>511.0</ele><time>2026-04-17T12:36:22.003Z</time></trkpt><trkpt lat="42.64134133596843" lon="12.078950834437945"><ele>508.5</ele><time>2026-04-17T12:36:23.003Z</time></trkpt><trkpt lat="42.641255859471514" lon="12.079241120857139"><ele>506.0</ele><time>2026-04-17T12:36:24.003Z</time></trkpt><trkpt lat="42.64118727100894" lon="12.079537073189513"><ele>506.0</ele><time>2026-04-17T12:36:25.003Z</time></trkpt><trkpt lat="42.64114493294726" lon="12.079850009759562"><ele>506.0</ele><time>2026-04-17T12:36:26.003Z</time></trkpt><trkpt lat="42.641116214264386" lon="12.080182304488272"><ele>508.0</ele><time>2026-04-17T12:36:27.003Z</time></trkpt><trkpt lat="42.64110038009804" lon="12.08053317886795"><ele>510.0</ele><time>2026-04-17T12:36:28.003Z</time></trkpt><trkpt lat="42.64109631762247" lon="12.08089592244899"><ele>510.0</ele><time>2026-04-17T12:36:29.003Z</time></trkpt><trkpt lat="42.6410939689038" lon="12.081231996396832"><ele>510.0</ele><time>2026-04-17T12:36:30.003Z</time></trkpt><trkpt lat="42.64108344266345" lon="12.081538641728777"><ele>510.5</ele><time>2026-04-17T12:36:31.003Z</time></trkpt><trkpt lat="42.64106256608086" lon="12.081844373325879"><ele>511.0</ele><time>2026-04-17T12:36:32.003Z</time></trkpt><trkpt lat="42.64103133896485" lon="12.082158009635886"><ele>510.5</ele><time>2026-04-17T12:36:33.003Z</time></trkpt><trkpt lat="42.640990158816216" lon="12.082481896533576"><ele>510.0</ele><time>2026-04-17T12:36:34.003Z</time></trkpt><trkpt lat="42.640938471187695" lon="12.082820094042699"><ele>510.0</ele><time>2026-04-17T12:36:35.003Z</time></trkpt><trkpt lat="42.64088193103907" lon="12.083132318907662"><ele>510.0</ele><time>2026-04-17T12:36:36.003Z</time></trkpt><trkpt lat="42.640824092494704" lon="12.083435595463126"><ele>509.33333333333337</ele><time>2026-04-17T12:36:37.003Z</time></trkpt><trkpt lat="42.64077150566304" lon="12.083720253190886"><ele>508.6666666666667</ele><time>2026-04-17T12:36:38.003Z</time></trkpt><trkpt lat="42.64072369338646" lon="12.083970576104079"><ele>508.0</ele><time>2026-04-17T12:36:39.003Z</time></trkpt><trkpt lat="42.64068410018229" lon="12.084202397605736"><ele>509.33333333333337</ele><time>2026-04-17T12:36:40.003Z</time></trkpt><trkpt lat="42.640662768783834" lon="12.084449439985184"><ele>510.66666666666663</ele><time>2026-04-17T12:36:41.003Z</time></trkpt><trkpt lat="42.64065413011296" lon="12.084750876613178"><ele>512.0</ele><time>2026-04-17T12:36:42.003Z</time></trkpt><trkpt lat="42.64062107782947" lon="12.085105157089354"><ele>513.5</ele><time>2026-04-17T12:36:43.003Z</time></trkpt><trkpt lat="42.64059977761831" lon="12.085493209026717"><ele>515.0</ele><time>2026-04-17T12:36:44.003Z</time></trkpt><trkpt lat="42.6406024452031" lon="12.085861728073638"><ele>515.0</ele><time>2026-04-17T12:36:45.003Z</time></trkpt><trkpt lat="42.64058508313622" lon="12.086201468078821"><ele>515.0</ele><time>2026-04-17T12:36:46.003Z</time></trkpt><trkpt lat="42.64056952099709" lon="12.086523712294351"><ele>513.0</ele><time>2026-04-17T12:36:47.003Z</time></trkpt><trkpt lat="42.64055244556391" lon="12.086837755627867"><ele>511.0</ele><time>2026-04-17T12:36:48.003Z</time></trkpt><trkpt lat="42.64053714411256" lon="12.087133640195638"><ele>511.0</ele><time>2026-04-17T12:36:49.003Z</time></trkpt><trkpt lat="42.64052221330124" lon="12.087426022361544"><ele>511.0</ele><time>2026-04-17T12:36:50.003Z</time></trkpt><trkpt lat="42.64050710866862" lon="12.087719394259706"><ele>511.0</ele><time>2026-04-17T12:36:51.003Z</time></trkpt><trkpt lat="42.64049071663839" lon="12.088020621580924"><ele>511.0</ele><time>2026-04-17T12:36:52.003Z</time></trkpt><trkpt lat="42.64047117011556" lon="12.088322195335998"><ele>511.0</ele><time>2026-04-17T12:36:53.003Z</time></trkpt><trkpt lat="42.64045613030781" lon="12.088613876851161"><ele>511.0</ele><time>2026-04-17T12:36:54.002Z</time></trkpt><trkpt lat="42.64044111490636" lon="12.088881256952744"><ele>511.0</ele><time>2026-04-17T12:36:55.002Z</time></trkpt><trkpt lat="42.640432530882826" lon="12.08913254647846"><ele>511.0</ele><time>2026-04-17T12:36:56.002Z</time></trkpt><trkpt lat="42.64041605073684" lon="12.089377369774205"><ele>511.0</ele><time>2026-04-17T12:36:57.002Z</time></trkpt><trkpt lat="42.640383794933726" lon="12.089619895918759"><ele>511.0</ele><time>2026-04-17T12:36:58.002Z</time></trkpt><trkpt lat="42.64033083246683" lon="12.089856108474754"><ele>511.0</ele><time>2026-04-17T12:36:59.002Z</time></trkpt><trkpt lat="42.64023779280218" lon="12.0900897674171"><ele>511.0</ele><time>2026-04-17T12:37:00.002Z</time></trkpt><trkpt lat="42.640122021369805" lon="12.090321802751994"><ele>509.6666666666667</ele><time>2026-04-17T12:37:01.001Z</time></trkpt><trkpt lat="42.63999171696838" lon="12.090544589984132"><ele>508.33333333333337</ele><time>2026-04-17T12:37:02.001Z</time></trkpt><trkpt lat="42.63984925211415" lon="12.090749212952764"><ele>507.0</ele><time>2026-04-17T12:37:03.001Z</time></trkpt><trkpt lat="42.639672568090226" lon="12.090914316250524"><ele>507.5</ele><time>2026-04-17T12:37:04.001Z</time></trkpt><trkpt lat="42.6394647151455" lon="12.09106659762917"><ele>508.0</ele><time>2026-04-17T12:37:05.001Z</time></trkpt><trkpt lat="42.63924713107483" lon="12.091227217126084"><ele>508.0</ele><time>2026-04-17T12:37:06.001Z</time></trkpt><trkpt lat="42.63904149045647" lon="12.091383866933155"><ele>508.0</ele><time>2026-04-17T12:37:07.001Z</time></trkpt><trkpt lat="42.63884936986137" lon="12.091527776981875"><ele>508.0</ele><time>2026-04-17T12:37:08.001Z</time></trkpt><trkpt lat="42.638657377114754" lon="12.091668878341183"><ele>508.0</ele><time>2026-04-17T12:37:09.001Z</time></trkpt><trkpt lat="42.63847797232459" lon="12.09179794681094"><ele>508.0</ele><time>2026-04-17T12:37:10.001Z</time></trkpt><trkpt lat="42.63831268835328" lon="12.091923207707671"><ele>508.33333333333337</ele><time>2026-04-17T12:37:11.001Z</time></trkpt><trkpt lat="42.638163428130476" lon="12.09205287872393"><ele>508.66666666666663</ele><time>2026-04-17T12:37:12.001Z</time></trkpt><trkpt lat="42.638017447641964" lon="12.09219695980671"><ele>509.0</ele><time>2026-04-17T12:37:13.001Z</time></trkpt><trkpt lat="42.63785629254194" lon="12.092364701034635"><ele>508.3333333333333</ele><time>2026-04-17T12:37:14.001Z</time></trkpt><trkpt lat="42.63768813475907" lon="12.092538009634325"><ele>507.66666666666663</ele><time>2026-04-17T12:37:15.001Z</time></trkpt><trkpt lat="42.63753146497959" lon="12.092698022978311"><ele>507.0</ele><time>2026-04-17T12:37:16.001Z</time></trkpt><trkpt lat="42.637382541803156" lon="12.092850218991622"><ele>507.0</ele><time>2026-04-17T12:37:17.001Z</time></trkpt><trkpt lat="42.63724031940478" lon="12.092997385748587"><ele>507.0</ele><time>2026-04-17T12:37:18.001Z</time></trkpt><trkpt lat="42.637110737668934" lon="12.093129270956124"><ele>507.0</ele><time>2026-04-17T12:37:19.001Z</time></trkpt><trkpt lat="42.63699268302279" lon="12.093257230344708"><ele>505.8</ele><time>2026-04-17T12:37:20.001Z</time></trkpt><trkpt lat="42.636884247142596" lon="12.093359394817272"><ele>504.6</ele><time>2026-04-17T12:37:21.001Z</time></trkpt><trkpt lat="42.63678467014065" lon="12.093445932208844"><ele>503.40000000000003</ele><time>2026-04-17T12:37:22.001Z</time></trkpt><trkpt lat="42.63669827588026" lon="12.093505817392677"><ele>502.20000000000005</ele><time>2026-04-17T12:37:23.001Z</time></trkpt><trkpt lat="42.63662550413184" lon="12.09354702586607"><ele>501.0</ele><time>2026-04-17T12:37:24.001Z</time></trkpt><trkpt lat="42.63654326166483" lon="12.09361803441389"><ele>501.0</ele><time>2026-04-17T12:37:26.001Z</time></trkpt><trkpt lat="42.636540938415685" lon="12.09370928475199"><ele>501.0</ele><time>2026-04-17T12:37:28.001Z</time></trkpt><trkpt lat="42.63656257979813" lon="12.093805830167149"><ele>501.0</ele><time>2026-04-17T12:37:29.001Z</time></trkpt><trkpt lat="42.636617485299794" lon="12.0939449416016"><ele>501.0</ele><time>2026-04-17T12:37:30.001Z</time></trkpt><trkpt lat="42.63670603951717" lon="12.094114839855527"><ele>501.0</ele><time>2026-04-17T12:37:31.001Z</time></trkpt><trkpt lat="42.636830628432826" lon="12.094311833136961"><ele>500.5</ele><time>2026-04-17T12:37:32.001Z</time></trkpt><trkpt lat="42.63699236715973" lon="12.094533326510046"><ele>500.0</ele><time>2026-04-17T12:37:33.001Z</time></trkpt><trkpt lat="42.637171428387695" lon="12.094771366339499"><ele>499.0</ele><time>2026-04-17T12:37:34.001Z</time></trkpt><trkpt lat="42.637347887149474" lon="12.095001899371757"><ele>498.0</ele><time>2026-04-17T12:37:35.001Z</time></trkpt><trkpt lat="42.63750084699216" lon="12.0952095554782"><ele>498.0</ele><time>2026-04-17T12:37:36.001Z</time></trkpt><trkpt lat="42.63764163464768" lon="12.095399462997502"><ele>498.0</ele><time>2026-04-17T12:37:37.001Z</time></trkpt><trkpt lat="42.63778777968133" lon="12.095561032208009"><ele>498.0</ele><time>2026-04-17T12:37:38.001Z</time></trkpt><trkpt lat="42.63795570998087" lon="12.095717875323286"><ele>497.5</ele><time>2026-04-17T12:37:39.001Z</time></trkpt><trkpt lat="42.63813728686124" lon="12.095876576434017"><ele>497.0</ele><time>2026-04-17T12:37:40.001Z</time></trkpt><trkpt lat="42.63833922611229" lon="12.096049413132523"><ele>497.0</ele><time>2026-04-17T12:37:41.001Z</time></trkpt><trkpt lat="42.638523790584884" lon="12.096209642079431"><ele>497.0</ele><time>2026-04-17T12:37:42.001Z</time></trkpt><trkpt lat="42.63867912823995" lon="12.09635486217264"><ele>497.0</ele><time>2026-04-17T12:37:43.001Z</time></trkpt><trkpt lat="42.638822641502195" lon="12.096488826431038"><ele>495.0</ele><time>2026-04-17T12:37:44.001Z</time></trkpt><trkpt lat="42.63896179736597" lon="12.09661663771675"><ele>493.0</ele><time>2026-04-17T12:37:45.001Z</time></trkpt><trkpt lat="42.639101089447976" lon="12.0967403316147"><ele>491.0</ele><time>2026-04-17T12:37:46.001Z</time></trkpt><trkpt lat="42.63924442097634" lon="12.09686928276618"><ele>491.0</ele><time>2026-04-17T12:37:47.002Z</time></trkpt><trkpt lat="42.63939546044195" lon="12.097007661682571"><ele>491.0</ele><time>2026-04-17T12:37:48.002Z</time></trkpt><trkpt lat="42.63954740280523" lon="12.09714494574831"><ele>491.0</ele><time>2026-04-17T12:37:49.002Z</time></trkpt><trkpt lat="42.639687890044506" lon="12.097271796694605"><ele>491.0</ele><time>2026-04-17T12:37:50.002Z</time></trkpt><trkpt lat="42.639825784817276" lon="12.097395627851789"><ele>491.0</ele><time>2026-04-17T12:37:51.002Z</time></trkpt><trkpt lat="42.6399565266349" lon="12.09751889344565"><ele>491.0</ele><time>2026-04-17T12:37:52.002Z</time></trkpt><trkpt lat="42.64007786061042" lon="12.09763027217949"><ele>490.6</ele><time>2026-04-17T12:37:53.002Z</time></trkpt><trkpt lat="42.64018288101368" lon="12.097730864734945"><ele>490.20000000000005</ele><time>2026-04-17T12:37:54.002Z</time></trkpt><trkpt lat="42.64027530358979" lon="12.097809308854645"><ele>489.79999999999995</ele><time>2026-04-17T12:37:55.002Z</time></trkpt><trkpt lat="42.64034437925506" lon="12.097892248182193"><ele>489.4</ele><time>2026-04-17T12:37:56.002Z</time></trkpt><trkpt lat="42.64037924201504" lon="12.097999215954065"><ele>489.0</ele><time>2026-04-17T12:37:57.002Z</time></trkpt><trkpt lat="42.640338758092895" lon="12.098254516769558"><ele>489.0</ele><time>2026-04-17T12:37:59.002Z</time></trkpt><trkpt lat="42.64030962468267" lon="12.09844564287192"><ele>489.0</ele><time>2026-04-17T12:38:00.002Z</time></trkpt><trkpt lat="42.640276302530985" lon="12.09868126375444"><ele>489.0</ele><time>2026-04-17T12:38:01.002Z</time></trkpt><trkpt lat="42.64028784813351" lon="12.098923703906316"><ele>488.0</ele><time>2026-04-17T12:38:02.002Z</time></trkpt><trkpt lat="42.64033854295107" lon="12.09915348146814"><ele>487.0</ele><time>2026-04-17T12:38:03.002Z</time></trkpt><trkpt lat="42.6404234118364" lon="12.099373215128862"><ele>486.0</ele><time>2026-04-17T12:38:04.002Z</time></trkpt><trkpt lat="42.64053368687498" lon="12.099583886859365"><ele>486.0</ele><time>2026-04-17T12:38:05.002Z</time></trkpt><trkpt lat="42.64065250668293" lon="12.099831199131636"><ele>486.0</ele><time>2026-04-17T12:38:06.002Z</time></trkpt><trkpt lat="42.64076670997869" lon="12.10013582231957"><ele>485.0</ele><time>2026-04-17T12:38:07.002Z</time></trkpt><trkpt lat="42.64085678637774" lon="12.100450879830513"><ele>484.0</ele><time>2026-04-17T12:38:08.002Z</time></trkpt><trkpt lat="42.64093570024021" lon="12.100750710170704"><ele>482.5</ele><time>2026-04-17T12:38:09.002Z</time></trkpt><trkpt lat="42.640990663225786" lon="12.101061171095383"><ele>481.0</ele><time>2026-04-17T12:38:10.002Z</time></trkpt><trkpt lat="42.641055078358164" lon="12.101368390520847"><ele>480.6666666666667</ele><time>2026-04-17T12:38:11.002Z</time></trkpt><trkpt lat="42.64110543588785" lon="12.101661660189535"><ele>480.33333333333337</ele><time>2026-04-17T12:38:12.002Z</time></trkpt><trkpt lat="42.64115673021929" lon="12.101955488626112"><ele>480.0</ele><time>2026-04-17T12:38:13.002Z</time></trkpt><trkpt lat="42.641177176812434" lon="12.102243641524622"><ele>478.0</ele><time>2026-04-17T12:38:14.002Z</time></trkpt><trkpt lat="42.64118818420207" lon="12.102514828066655"><ele>476.0</ele><time>2026-04-17T12:38:15.002Z</time></trkpt><trkpt lat="42.64118823483222" lon="12.102779211691425"><ele>474.0</ele><time>2026-04-17T12:38:16.002Z</time></trkpt><trkpt lat="42.64118392180397" lon="12.103049215187385"><ele>473.5</ele><time>2026-04-17T12:38:17.002Z</time></trkpt><trkpt lat="42.64116980334765" lon="12.103356000492537"><ele>473.0</ele><time>2026-04-17T12:38:18.002Z</time></trkpt><trkpt lat="42.64114616541914" lon="12.10369693176401"><ele>472.5</ele><time>2026-04-17T12:38:19.002Z</time></trkpt><trkpt lat="42.641123419143824" lon="12.104036358125935"><ele>472.0</ele><time>2026-04-17T12:38:20.002Z</time></trkpt><trkpt lat="42.64110014597395" lon="12.104348851159127"><ele>472.0</ele><time>2026-04-17T12:38:21.002Z</time></trkpt><trkpt lat="42.64108180322645" lon="12.104662181553303"><ele>472.0</ele><time>2026-04-17T12:38:22.002Z</time></trkpt><trkpt lat="42.64107140186038" lon="12.104979407199318"><ele>472.0</ele><time>2026-04-17T12:38:23.002Z</time></trkpt><trkpt lat="42.64106225430667" lon="12.105303420340771"><ele>472.0</ele><time>2026-04-17T12:38:24.002Z</time></trkpt><trkpt lat="42.64107682172131" lon="12.10564910269835"><ele>472.5</ele><time>2026-04-17T12:38:25.002Z</time></trkpt><trkpt lat="42.641121680157056" lon="12.106015856897884"><ele>473.0</ele><time>2026-04-17T12:38:26.002Z</time></trkpt><trkpt lat="42.641179847525954" lon="12.106380971380977"><ele>471.0</ele><time>2026-04-17T12:38:27.002Z</time></trkpt><trkpt lat="42.641228353326994" lon="12.106721303984386"><ele>469.0</ele><time>2026-04-17T12:38:28.002Z</time></trkpt><trkpt lat="42.64126337275619" lon="12.107055971854722"><ele>469.0</ele><time>2026-04-17T12:38:29.002Z</time></trkpt><trkpt lat="42.64129063679559" lon="12.107399713660191"><ele>469.0</ele><time>2026-04-17T12:38:30.002Z</time></trkpt><trkpt lat="42.64131291220787" lon="12.10773383692105"><ele>468.0</ele><time>2026-04-17T12:38:31.002Z</time></trkpt><trkpt lat="42.64133103263318" lon="12.10806855802618"><ele>467.0</ele><time>2026-04-17T12:38:32.002Z</time></trkpt><trkpt lat="42.64134896236856" lon="12.108417813210375"><ele>466.5</ele><time>2026-04-17T12:38:33.002Z</time></trkpt><trkpt lat="42.64136501738072" lon="12.108754631508269"><ele>466.0</ele><time>2026-04-17T12:38:34.002Z</time></trkpt><trkpt lat="42.641381332000705" lon="12.109073243092812"><ele>465.33333333333337</ele><time>2026-04-17T12:38:35.003Z</time></trkpt><trkpt lat="42.641396730052215" lon="12.109366070735055"><ele>464.66666666666663</ele><time>2026-04-17T12:38:36.003Z</time></trkpt><trkpt lat="42.64141273045414" lon="12.109667935034192"><ele>464.0</ele><time>2026-04-17T12:38:37.003Z</time></trkpt><trkpt lat="42.641422393417194" lon="12.10996815328352"><ele>464.0</ele><time>2026-04-17T12:38:38.003Z</time></trkpt><trkpt lat="42.64143693531288" lon="12.110275760572287"><ele>464.0</ele><time>2026-04-17T12:38:39.003Z</time></trkpt><trkpt lat="42.64144874146112" lon="12.110593880934267"><ele>462.0</ele><time>2026-04-17T12:38:40.003Z</time></trkpt><trkpt lat="42.64146187074303" lon="12.11091001469397"><ele>460.0</ele><time>2026-04-17T12:38:41.003Z</time></trkpt><trkpt lat="42.64147657778125" lon="12.111208158417469"><ele>460.0</ele><time>2026-04-17T12:38:42.003Z</time></trkpt><trkpt lat="42.641487729301296" lon="12.111487061680604"><ele>460.0</ele><time>2026-04-17T12:38:43.003Z</time></trkpt><trkpt lat="42.64149714161908" lon="12.11175341264452"><ele>460.0</ele><time>2026-04-17T12:38:44.003Z</time></trkpt><trkpt lat="42.64150752905502" lon="12.111997546799309"><ele>459.5</ele><time>2026-04-17T12:38:45.003Z</time></trkpt><trkpt lat="42.64151726484311" lon="12.112207932053579"><ele>459.0</ele><time>2026-04-17T12:38:46.003Z</time></trkpt><trkpt lat="42.64152925040651" lon="12.11238348395619"><ele>458.5</ele><time>2026-04-17T12:38:47.003Z</time></trkpt><trkpt lat="42.64154770115319" lon="12.112518512672258"><ele>458.0</ele><time>2026-04-17T12:38:48.003Z</time></trkpt><trkpt lat="42.64157533938621" lon="12.112611050589345"><ele>457.66666666666663</ele><time>2026-04-17T12:38:49.003Z</time></trkpt><trkpt lat="42.641603256127965" lon="12.112750472815065"><ele>457.33333333333337</ele><time>2026-04-17T12:38:51.003Z</time></trkpt><trkpt lat="42.64179529022334" lon="12.11266477634531"><ele>457.0</ele><time>2026-04-17T12:38:52.003Z</time></trkpt><trkpt lat="42.64193858494148" lon="12.11262477195409"><ele>457.0</ele><time>2026-04-17T12:38:53.003Z</time></trkpt><trkpt lat="42.64211731013158" lon="12.112646586685479"><ele>457.0</ele><time>2026-04-17T12:38:54.003Z</time></trkpt><trkpt lat="42.6422801702744" lon="12.11265304804732"><ele>457.0</ele><time>2026-04-17T12:38:55.003Z</time></trkpt><trkpt lat="42.64240067082434" lon="12.112671662780896"><ele>457.0</ele><time>2026-04-17T12:38:56.003Z</time></trkpt><trkpt lat="42.64249970322306" lon="12.112719877061963"><ele>457.0</ele><time>2026-04-17T12:38:57.003Z</time></trkpt><trkpt lat="42.64260276513586" lon="12.112792802474859"><ele>457.0</ele><time>2026-04-17T12:38:58.003Z</time></trkpt><trkpt lat="42.64273231139534" lon="12.112891187565545"><ele>457.0</ele><time>2026-04-17T12:38:59.003Z</time></trkpt><trkpt lat="42.64285373337924" lon="12.11297366348349"><ele>456.5</ele><time>2026-04-17T12:39:00.002Z</time></trkpt><trkpt lat="42.64295857306025" lon="12.113050921292842"><ele>456.0</ele><time>2026-04-17T12:39:01.002Z</time></trkpt><trkpt lat="42.64306251052725" lon="12.113141047114116"><ele>455.5</ele><time>2026-04-17T12:39:02.002Z</time></trkpt><trkpt lat="42.64317043529637" lon="12.113267537023125"><ele>455.0</ele><time>2026-04-17T12:39:03.002Z</time></trkpt><trkpt lat="42.643282815617255" lon="12.113447135039712"><ele>455.0</ele><time>2026-04-17T12:39:04.002Z</time></trkpt><trkpt lat="42.643399324862436" lon="12.113646958730175"><ele>455.0</ele><time>2026-04-17T12:39:05.002Z</time></trkpt><trkpt lat="42.64350790320895" lon="12.113835934371801"><ele>455.0</ele><time>2026-04-17T12:39:06.002Z</time></trkpt><trkpt lat="42.6436019187961" lon="12.114000227764993"><ele>455.25</ele><time>2026-04-17T12:39:07.002Z</time></trkpt><trkpt lat="42.64368693034731" lon="12.11414878641495"><ele>455.5</ele><time>2026-04-17T12:39:08.002Z</time></trkpt><trkpt lat="42.64378318972997" lon="12.114282963358159"><ele>455.75</ele><time>2026-04-17T12:39:09.001Z</time></trkpt><trkpt lat="42.64386736482405" lon="12.114434468523323"><ele>456.0</ele><time>2026-04-17T12:39:10.001Z</time></trkpt><trkpt lat="42.64393535964479" lon="12.114564904594069"><ele>456.0</ele><time>2026-04-17T12:39:11.001Z</time></trkpt><trkpt lat="42.64399177604565" lon="12.114664880924776"><ele>456.0</ele><time>2026-04-17T12:39:12.001Z</time></trkpt><trkpt lat="42.644051920561765" lon="12.114756574470343"><ele>456.0</ele><time>2026-04-17T12:39:13.001Z</time></trkpt><trkpt lat="42.64412426937436" lon="12.114858255598758"><ele>456.0</ele><time>2026-04-17T12:39:14.001Z</time></trkpt><trkpt lat="42.64437562446164" lon="12.114742331732076"><ele>456.33333333333337</ele><time>2026-04-17T12:39:15.001Z</time></trkpt><trkpt lat="42.644578442158384" lon="12.114712968377322"><ele>456.6666666666667</ele><time>2026-04-17T12:39:16.001Z</time></trkpt><trkpt lat="42.64479000751867" lon="12.114685656951298"><ele>457.0</ele><time>2026-04-17T12:39:17.001Z</time></trkpt><trkpt lat="42.64496972196329" lon="12.114687918571587"><ele>457.0</ele><time>2026-04-17T12:39:18.001Z</time></trkpt><trkpt lat="42.64511872574967" lon="12.11472347351971"><ele>457.0</ele><time>2026-04-17T12:39:19.001Z</time></trkpt><trkpt lat="42.6452686123116" lon="12.114781405926593"><ele>457.0</ele><time>2026-04-17T12:39:20.001Z</time></trkpt><trkpt lat="42.64542188948515" lon="12.114858454875156"><ele>455.0</ele><time>2026-04-17T12:39:21.001Z</time></trkpt><trkpt lat="42.64559040325533" lon="12.114945411059885"><ele>453.0</ele><time>2026-04-17T12:39:22.001Z</time></trkpt><trkpt lat="42.6457583085076" lon="12.115046833949489"><ele>451.0</ele><time>2026-04-17T12:39:23.001Z</time></trkpt><trkpt lat="42.64590888473158" lon="12.115134096318057"><ele>451.0</ele><time>2026-04-17T12:39:24.001Z</time></trkpt><trkpt lat="42.646048197519356" lon="12.11520463054039"><ele>451.0</ele><time>2026-04-17T12:39:25.001Z</time></trkpt><trkpt lat="42.646188769129346" lon="12.115270569709894"><ele>451.0</ele><time>2026-04-17T12:39:26.001Z</time></trkpt><trkpt lat="42.64634357826226" lon="12.115303304683216"><ele>451.6666666666667</ele><time>2026-04-17T12:39:27.001Z</time></trkpt><trkpt lat="42.64652895823488" lon="12.115303025634883"><ele>452.33333333333337</ele><time>2026-04-17T12:39:28.001Z</time></trkpt><trkpt lat="42.6467445412161" lon="12.115316484322559"><ele>453.0</ele><time>2026-04-17T12:39:29.001Z</time></trkpt><trkpt lat="42.64695481592298" lon="12.115374458951148"><ele>453.33333333333337</ele><time>2026-04-17T12:39:30.001Z</time></trkpt><trkpt lat="42.6471309280826" lon="12.115467356198142"><ele>453.6666666666667</ele><time>2026-04-17T12:39:31.001Z</time></trkpt><trkpt lat="42.64728755015801" lon="12.115550464777145"><ele>454.0</ele><time>2026-04-17T12:39:32.001Z</time></trkpt><trkpt lat="42.647423097631325" lon="12.11561740066197"><ele>454.0</ele><time>2026-04-17T12:39:33.001Z</time></trkpt><trkpt lat="42.64750533318531" lon="12.115664566754061"><ele>454.0</ele><time>2026-04-17T12:39:34.001Z</time></trkpt><trkpt lat="42.64760277762809" lon="12.115681830092985"><ele>454.0</ele><time>2026-04-17T12:39:36.001Z</time></trkpt><trkpt lat="42.647719281855885" lon="12.115661621909734"><ele>454.0</ele><time>2026-04-17T12:39:38.001Z</time></trkpt><trkpt lat="42.64780713835993" lon="12.115635476061058"><ele>454.0</ele><time>2026-04-17T12:39:39.001Z</time></trkpt><trkpt lat="42.64791285218809" lon="12.115593985542473"><ele>454.75</ele><time>2026-04-17T12:39:40.001Z</time></trkpt><trkpt lat="42.64803706937624" lon="12.11555254165103"><ele>455.5</ele><time>2026-04-17T12:39:41.001Z</time></trkpt><trkpt lat="42.64815124650973" lon="12.115538706934592"><ele>456.25</ele><time>2026-04-17T12:39:42.001Z</time></trkpt><trkpt lat="42.648258198267946" lon="12.11556887626815"><ele>457.0</ele><time>2026-04-17T12:39:43.001Z</time></trkpt><trkpt lat="42.64836172585669" lon="12.115639626831895"><ele>455.25</ele><time>2026-04-17T12:39:44.001Z</time></trkpt><trkpt lat="42.648482976042864" lon="12.11576058055935"><ele>453.5</ele><time>2026-04-17T12:39:45.001Z</time></trkpt><trkpt lat="42.64859619287932" lon="12.115901909869061"><ele>451.75</ele><time>2026-04-17T12:39:46.001Z</time></trkpt><trkpt lat="42.648693374656474" lon="12.11603040048331"><ele>450.0</ele><time>2026-04-17T12:39:47.001Z</time></trkpt><trkpt lat="42.64878630214914" lon="12.116131814140983"><ele>449.33333333333337</ele><time>2026-04-17T12:39:48.001Z</time></trkpt><trkpt lat="42.64889147677131" lon="12.116217982069694"><ele>448.6666666666667</ele><time>2026-04-17T12:39:49.001Z</time></trkpt><trkpt lat="42.649032967248495" lon="12.116288598166216"><ele>448.0</ele><time>2026-04-17T12:39:50.001Z</time></trkpt><trkpt lat="42.64920672010883" lon="12.116361854620923"><ele>448.0</ele><time>2026-04-17T12:39:51.001Z</time></trkpt><trkpt lat="42.64939497895409" lon="12.11645261077191"><ele>448.0</ele><time>2026-04-17T12:39:52.001Z</time></trkpt><trkpt lat="42.649563667510556" lon="12.116556886277246"><ele>448.0</ele><time>2026-04-17T12:39:53.001Z</time></trkpt><trkpt lat="42.64972443050995" lon="12.116670020685987"><ele>443.6666666666667</ele><time>2026-04-17T12:39:54.002Z</time></trkpt><trkpt lat="42.649885591300055" lon="12.116803381624594"><ele>439.33333333333337</ele><time>2026-04-17T12:39:55.002Z</time></trkpt><trkpt lat="42.650063313746216" lon="12.116944770672486"><ele>435.0</ele><time>2026-04-17T12:39:56.002Z</time></trkpt><trkpt lat="42.65023342201966" lon="12.117096978059717"><ele>434.33333333333337</ele><time>2026-04-17T12:39:57.002Z</time></trkpt><trkpt lat="42.65039460530772" lon="12.117233248272152"><ele>433.6666666666667</ele><time>2026-04-17T12:39:58.002Z</time></trkpt><trkpt lat="42.65053911595486" lon="12.117385635293303"><ele>433.0</ele><time>2026-04-17T12:39:59.002Z</time></trkpt><trkpt lat="42.65068457080762" lon="12.117490716865728"><ele>433.0</ele><time>2026-04-17T12:40:00.002Z</time></trkpt><trkpt lat="42.650833444744045" lon="12.117629383565784"><ele>433.0</ele><time>2026-04-17T12:40:01.002Z</time></trkpt><trkpt lat="42.650998178980046" lon="12.117776229160258"><ele>433.0</ele><time>2026-04-17T12:40:02.002Z</time></trkpt><trkpt lat="42.65112938616921" lon="12.117892655127799"><ele>433.79999999999995</ele><time>2026-04-17T12:40:03.002Z</time></trkpt><trkpt lat="42.65122975872573" lon="12.118005099960161"><ele>434.59999999999997</ele><time>2026-04-17T12:40:04.002Z</time></trkpt><trkpt lat="42.65132070989618" lon="12.118087306827766"><ele>435.40000000000003</ele><time>2026-04-17T12:40:05.002Z</time></trkpt><trkpt lat="42.65139247900593" lon="12.11815979407015"><ele>436.20000000000005</ele><time>2026-04-17T12:40:06.002Z</time></trkpt><trkpt lat="42.65147014447306" lon="12.118254909377132"><ele>437.0</ele><time>2026-04-17T12:40:07.002Z</time></trkpt><trkpt lat="42.651587383234855" lon="12.118371189669022"><ele>437.5</ele><time>2026-04-17T12:40:08.002Z</time></trkpt><trkpt lat="42.65170517019564" lon="12.118527976387107"><ele>438.0</ele><time>2026-04-17T12:40:09.002Z</time></trkpt><trkpt lat="42.65180345014495" lon="12.118656683409176"><ele>438.5</ele><time>2026-04-17T12:40:10.002Z</time></trkpt><trkpt lat="42.65189210555537" lon="12.118766221446979"><ele>439.0</ele><time>2026-04-17T12:40:11.002Z</time></trkpt><trkpt lat="42.651986059597" lon="12.118872826237812"><ele>439.75</ele><time>2026-04-17T12:40:12.002Z</time></trkpt><trkpt lat="42.652074868128764" lon="12.118989926059774"><ele>440.5</ele><time>2026-04-17T12:40:13.002Z</time></trkpt><trkpt lat="42.652195703556615" lon="12.119062213919554"><ele>441.25</ele><time>2026-04-17T12:40:14.002Z</time></trkpt><trkpt lat="42.652325105258704" lon="12.119152765910739"><ele>442.0</ele><time>2026-04-17T12:40:15.002Z</time></trkpt><trkpt lat="42.65249342030671" lon="12.119243355892388"><ele>442.33333333333337</ele><time>2026-04-17T12:40:16.002Z</time></trkpt><trkpt lat="42.652663399241966" lon="12.119337556533882"><ele>442.66666666666663</ele><time>2026-04-17T12:40:17.002Z</time></trkpt><trkpt lat="42.6528022071938" lon="12.119420912919962"><ele>443.0</ele><time>2026-04-17T12:40:18.002Z</time></trkpt><trkpt lat="42.65292913538177" lon="12.119515030530607"><ele>443.5</ele><time>2026-04-17T12:40:19.002Z</time></trkpt><trkpt lat="42.65304153598932" lon="12.119643831009814"><ele>444.0</ele><time>2026-04-17T12:40:20.002Z</time></trkpt><trkpt lat="42.653151872433845" lon="12.119775298382745"><ele>444.5</ele><time>2026-04-17T12:40:21.002Z</time></trkpt><trkpt lat="42.65323678482715" lon="12.11990320384082"><ele>445.0</ele><time>2026-04-17T12:40:22.002Z</time></trkpt><trkpt lat="42.65334147913211" lon="12.120048072463868"><ele>445.0</ele><time>2026-04-17T12:40:23.002Z</time></trkpt><trkpt lat="42.65344763611813" lon="12.120248332608579"><ele>445.0</ele><time>2026-04-17T12:40:24.002Z</time></trkpt><trkpt lat="42.65353315865851" lon="12.120432074133769"><ele>445.0</ele><time>2026-04-17T12:40:25.002Z</time></trkpt><trkpt lat="42.6536046235264" lon="12.120568461508107"><ele>444.4</ele><time>2026-04-17T12:40:26.002Z</time></trkpt><trkpt lat="42.65367332870259" lon="12.120671968061563"><ele>443.8</ele><time>2026-04-17T12:40:27.002Z</time></trkpt><trkpt lat="42.65375031066798" lon="12.120762338994759"><ele>443.20000000000005</ele><time>2026-04-17T12:40:28.002Z</time></trkpt><trkpt lat="42.6538433782883" lon="12.120842817498737"><ele>442.6</ele><time>2026-04-17T12:40:29.002Z</time></trkpt><trkpt lat="42.65396873609284" lon="12.120908104390008"><ele>442.0</ele><time>2026-04-17T12:40:30.002Z</time></trkpt><trkpt lat="42.65409490133653" lon="12.120972745369068"><ele>442.0</ele><time>2026-04-17T12:40:31.002Z</time></trkpt><trkpt lat="42.65422355676016" lon="12.121029424938294"><ele>442.0</ele><time>2026-04-17T12:40:32.002Z</time></trkpt><trkpt lat="42.6543637052368" lon="12.121082013993966"><ele>442.0</ele><time>2026-04-17T12:40:33.002Z</time></trkpt><trkpt lat="42.65452653484981" lon="12.121148877930535"><ele>441.6666666666667</ele><time>2026-04-17T12:40:34.002Z</time></trkpt><trkpt lat="42.654728362450584" lon="12.121150707771886"><ele>441.33333333333337</ele><time>2026-04-17T12:40:35.002Z</time></trkpt><trkpt lat="42.654928883898165" lon="12.12116573550727"><ele>441.0</ele><time>2026-04-17T12:40:36.002Z</time></trkpt><trkpt lat="42.655083490754045" lon="12.121163724154949"><ele>441.0</ele><time>2026-04-17T12:40:37.002Z</time></trkpt><trkpt lat="42.65520640426235" lon="12.12115863499168"><ele>441.0</ele><time>2026-04-17T12:40:38.002Z</time></trkpt><trkpt lat="42.655304474401014" lon="12.121148507493304"><ele>441.0</ele><time>2026-04-17T12:40:39.002Z</time></trkpt><trkpt lat="42.65539098969843" lon="12.121118888528237"><ele>441.0</ele><time>2026-04-17T12:40:40.002Z</time></trkpt><trkpt lat="42.65549085255347" lon="12.121054298666333"><ele>441.0</ele><time>2026-04-17T12:40:41.002Z</time></trkpt><trkpt lat="42.65561362722305" lon="12.120993990556716"><ele>440.6</ele><time>2026-04-17T12:40:42.002Z</time></trkpt><trkpt lat="42.65571074950777" lon="12.12094232031578"><ele>440.20000000000005</ele><time>2026-04-17T12:40:43.002Z</time></trkpt><trkpt lat="42.65579911202707" lon="12.120904772227867"><ele>439.79999999999995</ele><time>2026-04-17T12:40:44.002Z</time></trkpt><trkpt lat="42.65589535703573" lon="12.120896737934261"><ele>439.4</ele><time>2026-04-17T12:40:45.002Z</time></trkpt><trkpt lat="42.65599880689014" lon="12.120933355547528"><ele>439.0</ele><time>2026-04-17T12:40:46.002Z</time></trkpt><trkpt lat="42.65611230419788" lon="12.120995113584327"><ele>440.6666666666667</ele><time>2026-04-17T12:40:47.002Z</time></trkpt><trkpt lat="42.6562336125008" lon="12.121100563697743"><ele>442.33333333333337</ele><time>2026-04-17T12:40:48.002Z</time></trkpt><trkpt lat="42.65635704857022" lon="12.121242778079598"><ele>444.0</ele><time>2026-04-17T12:40:49.002Z</time></trkpt><trkpt lat="42.65649728486643" lon="12.1213606715425"><ele>444.0</ele><time>2026-04-17T12:40:50.002Z</time></trkpt><trkpt lat="42.656633793280044" lon="12.121423829952164"><ele>444.0</ele><time>2026-04-17T12:40:51.002Z</time></trkpt><trkpt lat="42.65677006234994" lon="12.121489872594204"><ele>444.0</ele><time>2026-04-17T12:40:52.002Z</time></trkpt><trkpt lat="42.65692929928303" lon="12.12157595477778"><ele>445.0</ele><time>2026-04-17T12:40:53.003Z</time></trkpt><trkpt lat="42.65706688804333" lon="12.121672678784075"><ele>446.0</ele><time>2026-04-17T12:40:54.003Z</time></trkpt><trkpt lat="42.65714138928379" lon="12.121802094234935"><ele>447.0</ele><time>2026-04-17T12:40:55.003Z</time></trkpt><trkpt lat="42.657226465146536" lon="12.12187718542747"><ele>448.0</ele><time>2026-04-17T12:40:56.003Z</time></trkpt><trkpt lat="42.65731401270055" lon="12.121933307258407"><ele>448.0</ele><time>2026-04-17T12:40:57.003Z</time></trkpt><trkpt lat="42.657441572414754" lon="12.12199250420285"><ele>448.0</ele><time>2026-04-17T12:40:58.003Z</time></trkpt><trkpt lat="42.65760471247133" lon="12.122005858169436"><ele>448.0</ele><time>2026-04-17T12:40:59.003Z</time></trkpt><trkpt lat="42.657739377399196" lon="12.122027537985135"><ele>448.0</ele><time>2026-04-17T12:41:00.003Z</time></trkpt><trkpt lat="42.65788130919974" lon="12.122030918367827"><ele>447.0</ele><time>2026-04-17T12:41:01.003Z</time></trkpt><trkpt lat="42.65803783596413" lon="12.122015588981789"><ele>446.0</ele><time>2026-04-17T12:41:02.003Z</time></trkpt><trkpt lat="42.65821189522898" lon="12.121989909248269"><ele>445.0</ele><time>2026-04-17T12:41:03.003Z</time></trkpt><trkpt lat="42.65837550115175" lon="12.121965633776977"><ele>445.0</ele><time>2026-04-17T12:41:04.003Z</time></trkpt><trkpt lat="42.65852425614239" lon="12.121955148317651"><ele>445.0</ele><time>2026-04-17T12:41:05.003Z</time></trkpt><trkpt lat="42.6586559743254" lon="12.121923480602025"><ele>445.0</ele><time>2026-04-17T12:41:06.001Z</time></trkpt><trkpt lat="42.6587688705365" lon="12.12186211036358"><ele>445.0</ele><time>2026-04-17T12:41:07.001Z</time></trkpt><trkpt lat="42.65888011944655" lon="12.12184305235211"><ele>444.25</ele><time>2026-04-17T12:41:08.001Z</time></trkpt><trkpt lat="42.65897773253361" lon="12.121888869803342"><ele>443.5</ele><time>2026-04-17T12:41:09.001Z</time></trkpt><trkpt lat="42.65910178907437" lon="12.121943118576631"><ele>442.75</ele><time>2026-04-17T12:41:10.001Z</time></trkpt><trkpt lat="42.659244039480555" lon="12.122030693236209"><ele>442.0</ele><time>2026-04-17T12:41:11.001Z</time></trkpt><trkpt lat="42.65941293962346" lon="12.12211170729368"><ele>441.5</ele><time>2026-04-17T12:41:12.001Z</time></trkpt><trkpt lat="42.65956395834072" lon="12.122205762638083"><ele>441.0</ele><time>2026-04-17T12:41:13.001Z</time></trkpt><trkpt lat="42.6596942120358" lon="12.122279536688664"><ele>440.5</ele><time>2026-04-17T12:41:14.001Z</time></trkpt><trkpt lat="42.659812766833575" lon="12.122359317857416"><ele>440.0</ele><time>2026-04-17T12:41:15.001Z</time></trkpt><trkpt lat="42.65994098825479" lon="12.122468614167406"><ele>440.0</ele><time>2026-04-17T12:41:16.001Z</time></trkpt><trkpt lat="42.66008010336884" lon="12.122629878023721"><ele>440.0</ele><time>2026-04-17T12:41:17.001Z</time></trkpt><trkpt lat="42.660226659211034" lon="12.12285653310868"><ele>440.0</ele><time>2026-04-17T12:41:18.001Z</time></trkpt><trkpt lat="42.660396919208104" lon="12.123079077650798"><ele>438.0</ele><time>2026-04-17T12:41:19.001Z</time></trkpt><trkpt lat="42.66053257262195" lon="12.123250901872254"><ele>436.0</ele><time>2026-04-17T12:41:20.001Z</time></trkpt><trkpt lat="42.66064874351094" lon="12.12336821997959"><ele>434.0</ele><time>2026-04-17T12:41:21.001Z</time></trkpt><trkpt lat="42.66073025071285" lon="12.123509675126362"><ele>434.0</ele><time>2026-04-17T12:41:22.001Z</time></trkpt><trkpt lat="42.66080070202776" lon="12.123633280478131"><ele>434.0</ele><time>2026-04-17T12:41:23.001Z</time></trkpt><trkpt lat="42.660869093453286" lon="12.12376856746316"><ele>434.0</ele><time>2026-04-17T12:41:24.001Z</time></trkpt><trkpt lat="42.66088995127699" lon="12.123986192380848"><ele>434.0</ele><time>2026-04-17T12:41:25.001Z</time></trkpt><trkpt lat="42.66095286601255" lon="12.12420647385948"><ele>433.0</ele><time>2026-04-17T12:41:26.001Z</time></trkpt><trkpt lat="42.66098777876304" lon="12.124380004805767"><ele>432.0</ele><time>2026-04-17T12:41:27.001Z</time></trkpt><trkpt lat="42.661022706136606" lon="12.124554286908987"><ele>431.0</ele><time>2026-04-17T12:41:28.001Z</time></trkpt><trkpt lat="42.66103885476462" lon="12.124789057614139"><ele>430.0</ele><time>2026-04-17T12:41:29.001Z</time></trkpt><trkpt lat="42.66105387632565" lon="12.12509775227462"><ele>425.5</ele><time>2026-04-17T12:41:30.001Z</time></trkpt><trkpt lat="42.66107086607702" lon="12.125455691535748"><ele>421.0</ele><time>2026-04-17T12:41:31.001Z</time></trkpt><trkpt lat="42.66108715998622" lon="12.125823214328475"><ele>419.33333333333337</ele><time>2026-04-17T12:41:32.001Z</time></trkpt><trkpt lat="42.66109900721147" lon="12.126132107586189"><ele>417.66666666666663</ele><time>2026-04-17T12:41:33.001Z</time></trkpt><trkpt lat="42.66110994551246" lon="12.126386902417607"><ele>416.0</ele><time>2026-04-17T12:41:34.001Z</time></trkpt><trkpt lat="42.661132534705864" lon="12.126620531007283"><ele>415.66666666666663</ele><time>2026-04-17T12:41:35.001Z</time></trkpt><trkpt lat="42.66120968366657" lon="12.12684408667112"><ele>415.33333333333337</ele><time>2026-04-17T12:41:36.001Z</time></trkpt><trkpt lat="42.661293467781285" lon="12.127055338528779"><ele>415.0</ele><time>2026-04-17T12:41:37.001Z</time></trkpt><trkpt lat="42.661406509015684" lon="12.127232848262034"><ele>415.0</ele><time>2026-04-17T12:41:38.001Z</time></trkpt><trkpt lat="42.66153887649912" lon="12.1273857808145"><ele>415.0</ele><time>2026-04-17T12:41:39.001Z</time></trkpt><trkpt lat="42.66167721131697" lon="12.127599908815743"><ele>415.0</ele><time>2026-04-17T12:41:40.001Z</time></trkpt><trkpt lat="42.66184197739029" lon="12.127810256269699"><ele>416.0</ele><time>2026-04-17T12:41:41.001Z</time></trkpt><trkpt lat="42.661982838250644" lon="12.127983449258318"><ele>417.0</ele><time>2026-04-17T12:41:42.001Z</time></trkpt><trkpt lat="42.66208926207872" lon="12.128114935936864"><ele>418.0</ele><time>2026-04-17T12:41:43.001Z</time></trkpt><trkpt lat="42.66217731771791" lon="12.128235733090403"><ele>419.75</ele><time>2026-04-17T12:41:44.001Z</time></trkpt><trkpt lat="42.662251920300626" lon="12.128361745422504"><ele>421.5</ele><time>2026-04-17T12:41:45.001Z</time></trkpt><trkpt lat="42.662326826930055" lon="12.128511546143107"><ele>423.25</ele><time>2026-04-17T12:41:46.001Z</time></trkpt><trkpt lat="42.66240360004593" lon="12.12867093954607"><ele>425.0</ele><time>2026-04-17T12:41:47.001Z</time></trkpt><trkpt lat="42.6624714493502" lon="12.128811805737687"><ele>425.0</ele><time>2026-04-17T12:41:48.001Z</time></trkpt><trkpt lat="42.662545948925896" lon="12.128929238697687"><ele>425.0</ele><time>2026-04-17T12:41:49.001Z</time></trkpt><trkpt lat="42.66260340910341" lon="12.129058476921953"><ele>425.0</ele><time>2026-04-17T12:41:50.001Z</time></trkpt><trkpt lat="42.66266521445494" lon="12.129182903400165"><ele>425.0</ele><time>2026-04-17T12:41:51.001Z</time></trkpt><trkpt lat="42.66272500083684" lon="12.129302330070526"><ele>425.0</ele><time>2026-04-17T12:41:52.001Z</time></trkpt><trkpt lat="42.662780980004854" lon="12.129415620450894"><ele>424.99999999999994</ele><time>2026-04-17T12:41:53.001Z</time></trkpt><trkpt lat="42.66283400688375" lon="12.129525617397471"><ele>425.0</ele><time>2026-04-17T12:41:54.001Z</time></trkpt><trkpt lat="42.662882430349995" lon="12.129624957967897"><ele>425.0</ele><time>2026-04-17T12:41:55.001Z</time></trkpt><trkpt lat="42.66292676948101" lon="12.129724728550292"><ele>425.0</ele><time>2026-04-17T12:41:56.001Z</time></trkpt><trkpt lat="42.66297378324753" lon="12.129816601221616"><ele>424.99999999999994</ele><time>2026-04-17T12:41:57.001Z</time></trkpt><trkpt lat="42.66301358553354" lon="12.129913309842225"><ele>425.0</ele><time>2026-04-17T12:41:58.001Z</time></trkpt><trkpt lat="42.66305863544206" lon="12.129998802582865"><ele>424.8333333333333</ele><time>2026-04-17T12:41:59.001Z</time></trkpt><trkpt lat="42.66308696032038" lon="12.13009410364658"><ele>424.66666666666663</ele><time>2026-04-17T12:42:00.001Z</time></trkpt><trkpt lat="42.66312568960044" lon="12.1301763109157"><ele>424.5</ele><time>2026-04-17T12:42:01.001Z</time></trkpt><trkpt lat="42.66317513577374" lon="12.130258977592097"><ele>424.33333333333337</ele><time>2026-04-17T12:42:02.001Z</time></trkpt><trkpt lat="42.6632187979102" lon="12.130352097246599"><ele>424.1666666666667</ele><time>2026-04-17T12:42:03.001Z</time></trkpt><trkpt lat="42.663262017187584" lon="12.130444016769909"><ele>424.0</ele><time>2026-04-17T12:42:04.001Z</time></trkpt><trkpt lat="42.663307191588814" lon="12.130547681216042"><ele>424.00000000000006</ele><time>2026-04-17T12:42:05.001Z</time></trkpt><trkpt lat="42.663361813139986" lon="12.130657703295764"><ele>424.0</ele><time>2026-04-17T12:42:06.001Z</time></trkpt><trkpt lat="42.66342003319969" lon="12.130772299075922"><ele>424.0</ele><time>2026-04-17T12:42:07.001Z</time></trkpt><trkpt lat="42.663464565446354" lon="12.13087080290405"><ele>424.0</ele><time>2026-04-17T12:42:08.001Z</time></trkpt><trkpt lat="42.663501512004174" lon="12.13096175720668"><ele>424.00000000000006</ele><time>2026-04-17T12:42:09.001Z</time></trkpt><trkpt lat="42.663566250884" lon="12.131030462360963"><ele>424.0</ele><time>2026-04-17T12:42:10.001Z</time></trkpt><trkpt lat="42.66364848969255" lon="12.13108581923051"><ele>420.33333333333337</ele><time>2026-04-17T12:42:11.001Z</time></trkpt><trkpt lat="42.663756990175905" lon="12.131150737472263"><ele>416.66666666666663</ele><time>2026-04-17T12:42:12.001Z</time></trkpt><trkpt lat="42.66391342174024" lon="12.131163797255844"><ele>413.0</ele><time>2026-04-17T12:42:13.001Z</time></trkpt><trkpt lat="42.664093236726174" lon="12.131210988671244"><ele>413.0</ele><time>2026-04-17T12:42:14.001Z</time></trkpt><trkpt lat="42.664305101077446" lon="12.131271778081947"><ele>413.0</ele><time>2026-04-17T12:42:15.001Z</time></trkpt><trkpt lat="42.664525321810345" lon="12.131324177768944"><ele>413.0</ele><time>2026-04-17T12:42:16.001Z</time></trkpt><trkpt lat="42.66471172255102" lon="12.131371537628503"><ele>410.66666666666663</ele><time>2026-04-17T12:42:17.001Z</time></trkpt><trkpt lat="42.66487487666092" lon="12.13141386838041"><ele>408.33333333333337</ele><time>2026-04-17T12:42:18.001Z</time></trkpt><trkpt lat="42.6650400186243" lon="12.131454161368943"><ele>406.0</ele><time>2026-04-17T12:42:19.001Z</time></trkpt><trkpt lat="42.665199927435985" lon="12.131517728660619"><ele>406.33333333333337</ele><time>2026-04-17T12:42:20.001Z</time></trkpt><trkpt lat="42.66536851218892" lon="12.131563767856186"><ele>406.66666666666663</ele><time>2026-04-17T12:42:21.001Z</time></trkpt><trkpt lat="42.66556212102913" lon="12.131617555325496"><ele>407.0</ele><time>2026-04-17T12:42:22.001Z</time></trkpt><trkpt lat="42.66577626226595" lon="12.131677046949806"><ele>407.0</ele><time>2026-04-17T12:42:23.001Z</time></trkpt><trkpt lat="42.66595948036232" lon="12.131726461400827"><ele>407.0</ele><time>2026-04-17T12:42:24.001Z</time></trkpt><trkpt lat="42.66611895023017" lon="12.131767946477787"><ele>407.0</ele><time>2026-04-17T12:42:25.001Z</time></trkpt><trkpt lat="42.66626293770921" lon="12.131808085325202"><ele>406.5</ele><time>2026-04-17T12:42:26.001Z</time></trkpt><trkpt lat="42.66639641937315" lon="12.131850612943216"><ele>406.0</ele><time>2026-04-17T12:42:27.001Z</time></trkpt><trkpt lat="42.66653694471116" lon="12.131898728404853"><ele>405.5</ele><time>2026-04-17T12:42:28.001Z</time></trkpt><trkpt lat="42.66668880863102" lon="12.131969046796971"><ele>405.0</ele><time>2026-04-17T12:42:29.001Z</time></trkpt><trkpt lat="42.66686833992141" lon="12.132077987041402"><ele>406.5</ele><time>2026-04-17T12:42:30.002Z</time></trkpt><trkpt lat="42.66707425728583" lon="12.132214887105157"><ele>408.0</ele><time>2026-04-17T12:42:31.002Z</time></trkpt><trkpt lat="42.6672815987811" lon="12.132352852480224"><ele>405.0</ele><time>2026-04-17T12:42:32.002Z</time></trkpt><trkpt lat="42.667469257512884" lon="12.132457838677624"><ele>402.0</ele><time>2026-04-17T12:42:33.002Z</time></trkpt><trkpt lat="42.667632814539886" lon="12.132576113892831"><ele>399.0</ele><time>2026-04-17T12:42:34.002Z</time></trkpt><trkpt lat="42.66777319416142" lon="12.132685745494454"><ele>399.0</ele><time>2026-04-17T12:42:35.002Z</time></trkpt><trkpt lat="42.66790267128294" lon="12.13278616923274"><ele>399.0</ele><time>2026-04-17T12:42:36.002Z</time></trkpt><trkpt lat="42.66802136219615" lon="12.132880541546374"><ele>399.0</ele><time>2026-04-17T12:42:37.002Z</time></trkpt><trkpt lat="42.66812745653949" lon="12.132964752924469"><ele>399.0</ele><time>2026-04-17T12:42:38.002Z</time></trkpt><trkpt lat="42.6682223952991" lon="12.133044259277856"><ele>399.0</ele><time>2026-04-17T12:42:39.002Z</time></trkpt><trkpt lat="42.668306293064816" lon="12.133113742938628"><ele>399.0</ele><time>2026-04-17T12:42:40.002Z</time></trkpt><trkpt lat="42.6683939078576" lon="12.13315405567879"><ele>399.0</ele><time>2026-04-17T12:42:41.002Z</time></trkpt><trkpt lat="42.668498541310754" lon="12.133162396865913"><ele>399.0</ele><time>2026-04-17T12:42:42.002Z</time></trkpt><trkpt lat="42.6686270292987" lon="12.13313880308016"><ele>399.0</ele><time>2026-04-17T12:42:43.002Z</time></trkpt><trkpt lat="42.66875905849391" lon="12.133140909864249"><ele>397.2</ele><time>2026-04-17T12:42:44.002Z</time></trkpt><trkpt lat="42.66887032436838" lon="12.133134956469023"><ele>395.4</ele><time>2026-04-17T12:42:45.002Z</time></trkpt><trkpt lat="42.668970466826366" lon="12.133152215208462"><ele>393.6</ele><time>2026-04-17T12:42:46.002Z</time></trkpt><trkpt lat="42.66905970786249" lon="12.133185654961714"><ele>391.8</ele><time>2026-04-17T12:42:47.002Z</time></trkpt><trkpt lat="42.66912753451155" lon="12.13323347715009"><ele>390.0</ele><time>2026-04-17T12:42:48.002Z</time></trkpt><trkpt lat="42.669191608400716" lon="12.133314633677657"><ele>388.0</ele><time>2026-04-17T12:42:49.002Z</time></trkpt><trkpt lat="42.669265412421446" lon="12.13343098018029"><ele>386.0</ele><time>2026-04-17T12:42:50.002Z</time></trkpt><trkpt lat="42.66935906329862" lon="12.1335895387243"><ele>384.0</ele><time>2026-04-17T12:42:51.002Z</time></trkpt><trkpt lat="42.66946616174456" lon="12.13380472733784"><ele>379.0</ele><time>2026-04-17T12:42:52.002Z</time></trkpt><trkpt lat="42.669580652043514" lon="12.134076325839064"><ele>374.0</ele><time>2026-04-17T12:42:53.002Z</time></trkpt><trkpt lat="42.66969130015145" lon="12.13436044222174"><ele>374.0</ele><time>2026-04-17T12:42:54.002Z</time></trkpt><trkpt lat="42.66979011798472" lon="12.134615107164308"><ele>374.0</ele><time>2026-04-17T12:42:55.002Z</time></trkpt><trkpt lat="42.66989084292126" lon="12.134830913818313"><ele>374.0</ele><time>2026-04-17T12:42:56.002Z</time></trkpt><trkpt lat="42.669945763196026" lon="12.135033452592449"><ele>373.0</ele><time>2026-04-17T12:42:57.002Z</time></trkpt><trkpt lat="42.6700001499868" lon="12.135177594943428"><ele>372.0</ele><time>2026-04-17T12:42:58.002Z</time></trkpt><trkpt lat="42.670049417491484" lon="12.135292237484592"><ele>371.0</ele><time>2026-04-17T12:42:59.002Z</time></trkpt><trkpt lat="42.670121945317575" lon="12.135405828858906"><ele>370.0</ele><time>2026-04-17T12:43:00.002Z</time></trkpt><trkpt lat="42.67024989462085" lon="12.13547874431702"><ele>367.66666666666663</ele><time>2026-04-17T12:43:01.002Z</time></trkpt><trkpt lat="42.67034491957569" lon="12.135611199419328"><ele>365.3333333333333</ele><time>2026-04-17T12:43:02.002Z</time></trkpt><trkpt lat="42.67042147275149" lon="12.135786419713066"><ele>363.0</ele><time>2026-04-17T12:43:03.002Z</time></trkpt><trkpt lat="42.670511483831234" lon="12.135990031576902"><ele>363.0</ele><time>2026-04-17T12:43:04.002Z</time></trkpt><trkpt lat="42.6706155772774" lon="12.136224257064997"><ele>363.0</ele><time>2026-04-17T12:43:05.002Z</time></trkpt><trkpt lat="42.670724878154246" lon="12.136500469033063"><ele>363.0</ele><time>2026-04-17T12:43:06.002Z</time></trkpt><trkpt lat="42.670844357249145" lon="12.13677902006521"><ele>363.25</ele><time>2026-04-17T12:43:07.002Z</time></trkpt><trkpt lat="42.670937847844634" lon="12.136984704617317"><ele>363.5</ele><time>2026-04-17T12:43:08.002Z</time></trkpt><trkpt lat="42.671007835246925" lon="12.137128046483863"><ele>363.75</ele><time>2026-04-17T12:43:09.002Z</time></trkpt><trkpt lat="42.671085342503055" lon="12.13727554160067"><ele>364.0</ele><time>2026-04-17T12:43:10.002Z</time></trkpt><trkpt lat="42.671195879488025" lon="12.137462064145154"><ele>361.0</ele><time>2026-04-17T12:43:11.002Z</time></trkpt><trkpt lat="42.67133750584216" lon="12.137679561226756"><ele>358.0</ele><time>2026-04-17T12:43:12.001Z</time></trkpt><trkpt lat="42.67149544516806" lon="12.137920098827514"><ele>358.0</ele><time>2026-04-17T12:43:13.001Z</time></trkpt><trkpt lat="42.67164236010979" lon="12.138143383527147"><ele>358.0</ele><time>2026-04-17T12:43:14.001Z</time></trkpt><trkpt lat="42.671776553347264" lon="12.138343597495947"><ele>358.0</ele><time>2026-04-17T12:43:15.001Z</time></trkpt><trkpt lat="42.67190788540169" lon="12.138536412342743"><ele>354.66666666666663</ele><time>2026-04-17T12:43:16.001Z</time></trkpt><trkpt lat="42.67202465575414" lon="12.138706432564502"><ele>351.3333333333333</ele><time>2026-04-17T12:43:17.001Z</time></trkpt><trkpt lat="42.67213063934888" lon="12.138859982456946"><ele>348.0</ele><time>2026-04-17T12:43:18.001Z</time></trkpt><trkpt lat="42.67222494340854" lon="12.139000340397434"><ele>348.0</ele><time>2026-04-17T12:43:19.001Z</time></trkpt><trkpt lat="42.672297264387076" lon="12.139120304840173"><ele>348.0</ele><time>2026-04-17T12:43:20.001Z</time></trkpt><trkpt lat="42.672360586283276" lon="12.139240513870567"><ele>348.0</ele><time>2026-04-17T12:43:21.001Z</time></trkpt><trkpt lat="42.67240492290774" lon="12.139386373443632"><ele>348.0</ele><time>2026-04-17T12:43:22.001Z</time></trkpt><trkpt lat="42.67241917745595" lon="12.139567987669528"><ele>348.0</ele><time>2026-04-17T12:43:23.001Z</time></trkpt><trkpt lat="42.67240529705698" lon="12.139792752411612"><ele>348.0</ele><time>2026-04-17T12:43:24Z</time></trkpt><trkpt lat="42.672395776079156" lon="12.140039652987753"><ele>348.0</ele><time>2026-04-17T12:43:25Z</time></trkpt><trkpt lat="42.67244086770565" lon="12.140276815842359"><ele>347.6666666666667</ele><time>2026-04-17T12:43:26Z</time></trkpt><trkpt lat="42.67249431399275" lon="12.14054097036836"><ele>347.33333333333337</ele><time>2026-04-17T12:43:27Z</time></trkpt><trkpt lat="42.67255178222217" lon="12.140809699719759"><ele>347.0</ele><time>2026-04-17T12:43:28Z</time></trkpt><trkpt lat="42.67257441560429" lon="12.141002148946502"><ele>347.0</ele><time>2026-04-17T12:43:29Z</time></trkpt><trkpt lat="42.67260652111889" lon="12.141172626646409"><ele>347.0</ele><time>2026-04-17T12:43:30Z</time></trkpt><trkpt lat="42.672643191541596" lon="12.141395403206173"><ele>347.0</ele><time>2026-04-17T12:43:31Z</time></trkpt><trkpt lat="42.67268942557364" lon="12.141666619938569"><ele>346.0</ele><time>2026-04-17T12:43:32Z</time></trkpt><trkpt lat="42.67273715997588" lon="12.141900356365763"><ele>345.0</ele><time>2026-04-17T12:43:33Z</time></trkpt><trkpt lat="42.672777400900245" lon="12.142091615712596"><ele>344.0</ele><time>2026-04-17T12:43:34Z</time></trkpt><trkpt lat="42.67282493071498" lon="12.142300076561058"><ele>343.33333333333337</ele><time>2026-04-17T12:43:35Z</time></trkpt><trkpt lat="42.672907921254236" lon="12.142511914419321"><ele>342.6666666666667</ele><time>2026-04-17T12:43:36Z</time></trkpt><trkpt lat="42.67294586987927" lon="12.142757009157846"><ele>342.0</ele><time>2026-04-17T12:43:37.001Z</time></trkpt><trkpt lat="42.672987228768875" lon="12.14296890418974"><ele>342.0</ele><time>2026-04-17T12:43:38.001Z</time></trkpt><trkpt lat="42.67302371778992" lon="12.143145542250332"><ele>342.0</ele><time>2026-04-17T12:43:39.001Z</time></trkpt><trkpt lat="42.673059845798655" lon="12.14332243396723"><ele>342.0</ele><time>2026-04-17T12:43:40.001Z</time></trkpt><trkpt lat="42.67309803398603" lon="12.143520219767888"><ele>342.0</ele><time>2026-04-17T12:43:41.001Z</time></trkpt><trkpt lat="42.67312959417697" lon="12.143718890623019"><ele>342.6666666666667</ele><time>2026-04-17T12:43:42.001Z</time></trkpt><trkpt lat="42.67315836043376" lon="12.143939587228777"><ele>343.33333333333337</ele><time>2026-04-17T12:43:43.001Z</time></trkpt><trkpt lat="42.67318740063003" lon="12.144173850437559"><ele>344.0</ele><time>2026-04-17T12:43:44.001Z</time></trkpt><trkpt lat="42.673227906578845" lon="12.144433368859342"><ele>344.0</ele><time>2026-04-17T12:43:45.001Z</time></trkpt><trkpt lat="42.673270996398415" lon="12.144678839043532"><ele>344.0</ele><time>2026-04-17T12:43:46.001Z</time></trkpt><trkpt lat="42.673312114177094" lon="12.144893230651554"><ele>344.0</ele><time>2026-04-17T12:43:47.001Z</time></trkpt><trkpt lat="42.67334917253215" lon="12.145092040617158"><ele>344.0</ele><time>2026-04-17T12:43:48.001Z</time></trkpt><trkpt lat="42.67338068823772" lon="12.145268710385439"><ele>344.0</ele><time>2026-04-17T12:43:49.001Z</time></trkpt><trkpt lat="42.6734084714219" lon="12.145433069314533"><ele>344.0</ele><time>2026-04-17T12:43:50.001Z</time></trkpt><trkpt lat="42.673429359341995" lon="12.145570534662575"><ele>344.0</ele><time>2026-04-17T12:43:51.001Z</time></trkpt><trkpt lat="42.673454930855065" lon="12.145704548637"><ele>344.4</ele><time>2026-04-17T12:43:52.001Z</time></trkpt><trkpt lat="42.673496489883696" lon="12.145827308425902"><ele>344.79999999999995</ele><time>2026-04-17T12:43:53.001Z</time></trkpt><trkpt lat="42.67353839607946" lon="12.145940050999737"><ele>345.20000000000005</ele><time>2026-04-17T12:43:54.001Z</time></trkpt><trkpt lat="42.67359658486853" lon="12.146035439933144"><ele>345.6</ele><time>2026-04-17T12:43:55.001Z</time></trkpt><trkpt lat="42.67366841979964" lon="12.14613530404148"><ele>346.0</ele><time>2026-04-17T12:43:56.001Z</time></trkpt><trkpt lat="42.67374741755594" lon="12.14624613629142"><ele>345.8333333333333</ele><time>2026-04-17T12:43:57.001Z</time></trkpt><trkpt lat="42.67382702098071" lon="12.146341629361881"><ele>345.66666666666663</ele><time>2026-04-17T12:43:58.001Z</time></trkpt><trkpt lat="42.673880782888595" lon="12.14644830604976"><ele>345.5</ele><time>2026-04-17T12:43:59.001Z</time></trkpt><trkpt lat="42.67393262636357" lon="12.146529462622013"><ele>345.3333333333333</ele><time>2026-04-17T12:44:00.001Z</time></trkpt><trkpt lat="42.673981712283236" lon="12.146606668143502"><ele>345.1666666666667</ele><time>2026-04-17T12:44:01.001Z</time></trkpt><trkpt lat="42.67402967314509" lon="12.146680516633756"><ele>345.0</ele><time>2026-04-17T12:44:02.001Z</time></trkpt><trkpt lat="42.674076348240305" lon="12.146751073509368"><ele>345.0</ele><time>2026-04-17T12:44:03.001Z</time></trkpt><trkpt lat="42.674147095565274" lon="12.14687515297732"><ele>345.0</ele><time>2026-04-17T12:44:04.001Z</time></trkpt><trkpt lat="42.67424267554282" lon="12.14695904610233"><ele>345.0</ele><time>2026-04-17T12:44:05.001Z</time></trkpt><trkpt lat="42.674353503710506" lon="12.147013386826425"><ele>345.0</ele><time>2026-04-17T12:44:06.001Z</time></trkpt><trkpt lat="42.674434996055105" lon="12.14704052025381"><ele>345.0</ele><time>2026-04-17T12:44:07.001Z</time></trkpt><trkpt lat="42.67455610934854" lon="12.14708076392564"><ele>344.6</ele><time>2026-04-17T12:44:09.001Z</time></trkpt><trkpt lat="42.67463873200828" lon="12.147093563215623"><ele>344.2</ele><time>2026-04-17T12:44:10.001Z</time></trkpt><trkpt lat="42.67474542972112" lon="12.147108758416554"><ele>343.79999999999995</ele><time>2026-04-17T12:44:11.001Z</time></trkpt><trkpt lat="42.67486728963274" lon="12.147136896894555"><ele>343.4</ele><time>2026-04-17T12:44:12.001Z</time></trkpt><trkpt lat="42.67500138499415" lon="12.147149870524835"><ele>343.0</ele><time>2026-04-17T12:44:13.001Z</time></trkpt><trkpt lat="42.67515353262612" lon="12.14717632015852"><ele>341.3333333333333</ele><time>2026-04-17T12:44:14.001Z</time></trkpt><trkpt lat="42.675323631905925" lon="12.147213159770452"><ele>339.6666666666667</ele><time>2026-04-17T12:44:15.001Z</time></trkpt><trkpt lat="42.6755214195714" lon="12.147253230545308"><ele>338.0</ele><time>2026-04-17T12:44:16.001Z</time></trkpt><trkpt lat="42.675752910663434" lon="12.147296163052266"><ele>338.0</ele><time>2026-04-17T12:44:17.001Z</time></trkpt><trkpt lat="42.676009099405526" lon="12.147336158819748"><ele>338.0</ele><time>2026-04-17T12:44:18.001Z</time></trkpt><trkpt lat="42.676241113173404" lon="12.147395485353995"><ele>336.33333333333337</ele><time>2026-04-17T12:44:19.001Z</time></trkpt><trkpt lat="42.676450466986886" lon="12.147430262544665"><ele>334.6666666666667</ele><time>2026-04-17T12:44:20.001Z</time></trkpt><trkpt lat="42.676660585371465" lon="12.14746761183561"><ele>333.0</ele><time>2026-04-17T12:44:21.001Z</time></trkpt><trkpt lat="42.67687625321245" lon="12.147505947510664"><ele>331.5</ele><time>2026-04-17T12:44:22.001Z</time></trkpt><trkpt lat="42.677099957695276" lon="12.147545711817697"><ele>330.0</ele><time>2026-04-17T12:44:23.001Z</time></trkpt><trkpt lat="42.677330302226174" lon="12.147586656376307"><ele>330.0</ele><time>2026-04-17T12:44:24.001Z</time></trkpt><trkpt lat="42.67754405455771" lon="12.147624651652261"><ele>330.0</ele><time>2026-04-17T12:44:25.001Z</time></trkpt><trkpt lat="42.67776457550779" lon="12.147641088156337"><ele>330.0</ele><time>2026-04-17T12:44:26.001Z</time></trkpt><trkpt lat="42.677955558564065" lon="12.147697616028482"><ele>329.3333333333333</ele><time>2026-04-17T12:44:27.001Z</time></trkpt><trkpt lat="42.678117439040065" lon="12.147726315245425"><ele>328.66666666666663</ele><time>2026-04-17T12:44:28.001Z</time></trkpt><trkpt lat="42.67827161114234" lon="12.147753647874254"><ele>328.0</ele><time>2026-04-17T12:44:29.001Z</time></trkpt><trkpt lat="42.67842162027084" lon="12.147780242448839"><ele>328.0</ele><time>2026-04-17T12:44:30.001Z</time></trkpt><trkpt lat="42.67857422124707" lon="12.147807296561622"><ele>328.0</ele><time>2026-04-17T12:44:31.001Z</time></trkpt><trkpt lat="42.678732539821" lon="12.147835364296462"><ele>328.0</ele><time>2026-04-17T12:44:32.001Z</time></trkpt><trkpt lat="42.67889487759696" lon="12.147864411751607"><ele>327.3333333333333</ele><time>2026-04-17T12:44:33.001Z</time></trkpt><trkpt lat="42.67905770666493" lon="12.147893701342188"><ele>326.6666666666667</ele><time>2026-04-17T12:44:34.001Z</time></trkpt><trkpt lat="42.67922268056431" lon="12.14792337847417"><ele>326.0</ele><time>2026-04-17T12:44:35.001Z</time></trkpt><trkpt lat="42.679384607732516" lon="12.14795250579828"><ele>325.6666666666667</ele><time>2026-04-17T12:44:36.001Z</time></trkpt><trkpt lat="42.67955700732424" lon="12.147983716729273"><ele>325.3333333333333</ele><time>2026-04-17T12:44:37.001Z</time></trkpt><trkpt lat="42.67975631388579" lon="12.148021582964923"><ele>325.0</ele><time>2026-04-17T12:44:38.001Z</time></trkpt><trkpt lat="42.67996796857931" lon="12.148061795337064"><ele>325.0</ele><time>2026-04-17T12:44:39.001Z</time></trkpt><trkpt lat="42.68016492470392" lon="12.148098596621729"><ele>325.0</ele><time>2026-04-17T12:44:40.001Z</time></trkpt><trkpt lat="42.6803417114062" lon="12.148126759733575"><ele>325.0</ele><time>2026-04-17T12:44:41.001Z</time></trkpt><trkpt lat="42.68050817231787" lon="12.148154166540365"><ele>325.0</ele><time>2026-04-17T12:44:42.001Z</time></trkpt><trkpt lat="42.68067540320094" lon="12.14818500359666"><ele>325.0</ele><time>2026-04-17T12:44:43.001Z</time></trkpt><trkpt lat="42.680828497202086" lon="12.148213172323274"><ele>325.0</ele><time>2026-04-17T12:44:44.001Z</time></trkpt><trkpt lat="42.680946613739444" lon="12.148234905314142"><ele>325.0</ele><time>2026-04-17T12:44:45.001Z</time></trkpt><trkpt lat="42.681056443063916" lon="12.148255335698758"><ele>326.25</ele><time>2026-04-17T12:44:46.001Z</time></trkpt><trkpt lat="42.68114869537772" lon="12.148273626285325"><ele>327.5</ele><time>2026-04-17T12:44:47.001Z</time></trkpt><trkpt lat="42.681242847034085" lon="12.148292293415006"><ele>328.75</ele><time>2026-04-17T12:44:48.001Z</time></trkpt><trkpt lat="42.681373263067435" lon="12.148317206676825"><ele>330.0</ele><time>2026-04-17T12:44:49.001Z</time></trkpt><trkpt lat="42.68154726212827" lon="12.148348610582788"><ele>330.0</ele><time>2026-04-17T12:44:50.001Z</time></trkpt><trkpt lat="42.68175446810909" lon="12.148383306967894"><ele>330.0</ele><time>2026-04-17T12:44:51.001Z</time></trkpt><trkpt lat="42.68194055826827" lon="12.148413447512379"><ele>330.0</ele><time>2026-04-17T12:44:52.001Z</time></trkpt><trkpt lat="42.68212197913173" lon="12.148440949128018"><ele>330.3333333333333</ele><time>2026-04-17T12:44:53.001Z</time></trkpt><trkpt lat="42.68233209050637" lon="12.148474556112259"><ele>330.66666666666663</ele><time>2026-04-17T12:44:54.001Z</time></trkpt><trkpt lat="42.68254733997325" lon="12.14851152513565"><ele>331.0</ele><time>2026-04-17T12:44:55.001Z</time></trkpt><trkpt lat="42.682720297336814" lon="12.148544044445165"><ele>331.25</ele><time>2026-04-17T12:44:56.001Z</time></trkpt><trkpt lat="42.68286303794362" lon="12.148575274335942"><ele>331.5</ele><time>2026-04-17T12:44:57.001Z</time></trkpt><trkpt lat="42.68299052968545" lon="12.14861863734025"><ele>331.75</ele><time>2026-04-17T12:44:58.002Z</time></trkpt><trkpt lat="42.68310138467552" lon="12.148692873148882"><ele>332.0</ele><time>2026-04-17T12:44:59.002Z</time></trkpt><trkpt lat="42.683182608223504" lon="12.148806929606213"><ele>332.0</ele><time>2026-04-17T12:45:00.002Z</time></trkpt><trkpt lat="42.68325951550091" lon="12.148956546709206"><ele>332.0</ele><time>2026-04-17T12:45:01.002Z</time></trkpt><trkpt lat="42.68335119148527" lon="12.149149507138894"><ele>332.0</ele><time>2026-04-17T12:45:02.002Z</time></trkpt><trkpt lat="42.68345807478643" lon="12.14936428654948"><ele>331.75</ele><time>2026-04-17T12:45:03.002Z</time></trkpt><trkpt lat="42.68355416808355" lon="12.14955348017607"><ele>331.5</ele><time>2026-04-17T12:45:04.002Z</time></trkpt><trkpt lat="42.68363746078874" lon="12.149715548439373"><ele>331.25</ele><time>2026-04-17T12:45:05.002Z</time></trkpt><trkpt lat="42.6837139938809" lon="12.149864463963022"><ele>331.0</ele><time>2026-04-17T12:45:06.002Z</time></trkpt><trkpt lat="42.683794759675024" lon="12.150010505106358"><ele>331.0</ele><time>2026-04-17T12:45:07.002Z</time></trkpt><trkpt lat="42.68388938808903" lon="12.150156880670748"><ele>331.0</ele><time>2026-04-17T12:45:08.002Z</time></trkpt><trkpt lat="42.68400505747027" lon="12.150300568143688"><ele>331.0</ele><time>2026-04-17T12:45:09.002Z</time></trkpt><trkpt lat="42.68412093670912" lon="12.15043801211556"><ele>331.0</ele><time>2026-04-17T12:45:10.002Z</time></trkpt><trkpt lat="42.68422637991718" lon="12.15055686508313"><ele>331.0</ele><time>2026-04-17T12:45:11.002Z</time></trkpt><trkpt lat="42.684330469593284" lon="12.150666131702023"><ele>331.0</ele><time>2026-04-17T12:45:12.002Z</time></trkpt><trkpt lat="42.68458267515845" lon="12.150852077825101"><ele>330.5</ele><time>2026-04-17T12:45:14.002Z</time></trkpt><trkpt lat="42.68472724638167" lon="12.150926242419189"><ele>330.0</ele><time>2026-04-17T12:45:15.002Z</time></trkpt><trkpt lat="42.684854312746936" lon="12.15098221143728"><ele>329.5</ele><time>2026-04-17T12:45:16.002Z</time></trkpt><trkpt lat="42.684964961524955" lon="12.15103498652075"><ele>329.0</ele><time>2026-04-17T12:45:17.002Z</time></trkpt><trkpt lat="42.68507570045301" lon="12.15106994506376"><ele>329.0</ele><time>2026-04-17T12:45:18Z</time></trkpt><trkpt lat="42.68520302933241" lon="12.151051249680272"><ele>329.0</ele><time>2026-04-17T12:45:19Z</time></trkpt><trkpt lat="42.68532906387686" lon="12.150969943559177"><ele>329.0</ele><time>2026-04-17T12:45:20Z</time></trkpt><trkpt lat="42.68547544841599" lon="12.150923628045451"><ele>329.0</ele><time>2026-04-17T12:45:21Z</time></trkpt><trkpt lat="42.685612840443795" lon="12.150857999948"><ele>328.4</ele><time>2026-04-17T12:45:22Z</time></trkpt><trkpt lat="42.685728695669304" lon="12.150802960987434"><ele>327.79999999999995</ele><time>2026-04-17T12:45:23Z</time></trkpt><trkpt lat="42.68581981161778" lon="12.150759674924434"><ele>327.20000000000005</ele><time>2026-04-17T12:45:24Z</time></trkpt><trkpt lat="42.68589306604108" lon="12.150724874210743"><ele>326.6</ele><time>2026-04-17T12:45:25Z</time></trkpt><trkpt lat="42.685985230839215" lon="12.150681090462472"><ele>326.0</ele><time>2026-04-17T12:45:26Z</time></trkpt><trkpt lat="42.686122063247495" lon="12.150618939741811"><ele>326.0</ele><time>2026-04-17T12:45:27Z</time></trkpt><trkpt lat="42.68630230119755" lon="12.150536125542333"><ele>326.0</ele><time>2026-04-17T12:45:28Z</time></trkpt><trkpt lat="42.68652386835239" lon="12.150435800296393"><ele>326.0</ele><time>2026-04-17T12:45:29Z</time></trkpt><trkpt lat="42.686778016649775" lon="12.150321741969137"><ele>327.0</ele><time>2026-04-17T12:45:30Z</time></trkpt><trkpt lat="42.687045028637804" lon="12.15019550689278"><ele>328.0</ele><time>2026-04-17T12:45:31Z</time></trkpt><trkpt lat="42.68733681963992" lon="12.1500577672326"><ele>328.0</ele><time>2026-04-17T12:45:32Z</time></trkpt><trkpt lat="42.68760542610333" lon="12.14993292619077"><ele>328.0</ele><time>2026-04-17T12:45:33Z</time></trkpt><trkpt lat="42.687841530857085" lon="12.149825813673138"><ele>330.0</ele><time>2026-04-17T12:45:34Z</time></trkpt><trkpt lat="42.688055556642766" lon="12.149729525706446"><ele>332.0</ele><time>2026-04-17T12:45:35Z</time></trkpt><trkpt lat="42.68825934258874" lon="12.149634942202912"><ele>334.0</ele><time>2026-04-17T12:45:36Z</time></trkpt><trkpt lat="42.68846265638533" lon="12.149537329348297"><ele>333.0</ele><time>2026-04-17T12:45:37Z</time></trkpt><trkpt lat="42.688664316008214" lon="12.149441655771087"><ele>332.0</ele><time>2026-04-17T12:45:38Z</time></trkpt><trkpt lat="42.68886021050116" lon="12.149349877329431"><ele>331.0</ele><time>2026-04-17T12:45:39Z</time></trkpt><trkpt lat="42.68904854223975" lon="12.14926165585495"><ele>331.0</ele><time>2026-04-17T12:45:40Z</time></trkpt><trkpt lat="42.689220676461034" lon="12.149182559048112"><ele>331.0</ele><time>2026-04-17T12:45:41Z</time></trkpt><trkpt lat="42.689380728072166" lon="12.149112321680919"><ele>331.0</ele><time>2026-04-17T12:45:42Z</time></trkpt><trkpt lat="42.689531670704206" lon="12.149049357692077"><ele>331.0</ele><time>2026-04-17T12:45:43Z</time></trkpt><trkpt lat="42.68968141097685" lon="12.148993356199641"><ele>331.0</ele><time>2026-04-17T12:45:44Z</time></trkpt><trkpt lat="42.68983169725286" lon="12.14894049994233"><ele>331.0</ele><time>2026-04-17T12:45:45Z</time></trkpt><trkpt lat="42.68998031016369" lon="12.14888815830067"><ele>331.0</ele><time>2026-04-17T12:45:46Z</time></trkpt><trkpt lat="42.690126943197136" lon="12.148837943881759"><ele>331.0</ele><time>2026-04-17T12:45:47Z</time></trkpt><trkpt lat="42.69027163715915" lon="12.148789447038697"><ele>331.0</ele><time>2026-04-17T12:45:48Z</time></trkpt><trkpt lat="42.69041865621225" lon="12.148740170816447"><ele>331.3333333333333</ele><time>2026-04-17T12:45:49Z</time></trkpt><trkpt lat="42.69058136640442" lon="12.148685347949373"><ele>331.6666666666667</ele><time>2026-04-17T12:45:50Z</time></trkpt><trkpt lat="42.690745775003926" lon="12.148629528483202"><ele>332.0</ele><time>2026-04-17T12:45:51Z</time></trkpt><trkpt lat="42.69089919461448" lon="12.148577439930213"><ele>332.0</ele><time>2026-04-17T12:45:52Z</time></trkpt><trkpt lat="42.69104278858804" lon="12.14852891673372"><ele>332.0</ele><time>2026-04-17T12:45:53Z</time></trkpt><trkpt lat="42.691181978185725" lon="12.148484798870022"><ele>332.0</ele><time>2026-04-17T12:45:54Z</time></trkpt><trkpt lat="42.69132239409481" lon="12.148442493609647"><ele>332.0</ele><time>2026-04-17T12:45:55Z</time></trkpt><trkpt lat="42.69146050793519" lon="12.148405732033048"><ele>331.25</ele><time>2026-04-17T12:45:56Z</time></trkpt><trkpt lat="42.69159209044949" lon="12.148375781507497"><ele>330.5</ele><time>2026-04-17T12:45:57Z</time></trkpt><trkpt lat="42.69172526100462" lon="12.148349705101317"><ele>329.75</ele><time>2026-04-17T12:45:58Z</time></trkpt><trkpt lat="42.69185068098815" lon="12.14829414181854"><ele>329.0</ele><time>2026-04-17T12:45:59Z</time></trkpt><trkpt lat="42.691990400042336" lon="12.148278455813417"><ele>327.33333333333337</ele><time>2026-04-17T12:46:00Z</time></trkpt><trkpt lat="42.69213817424703" lon="12.148236155044684"><ele>325.6666666666667</ele><time>2026-04-17T12:46:01Z</time></trkpt><trkpt lat="42.69229113177058" lon="12.148179790438299"><ele>324.0</ele><time>2026-04-17T12:46:02Z</time></trkpt><trkpt lat="42.69244026713859" lon="12.148106471197629"><ele>323.3333333333333</ele><time>2026-04-17T12:46:03Z</time></trkpt><trkpt lat="42.69257929610097" lon="12.148020639163718"><ele>322.66666666666663</ele><time>2026-04-17T12:46:04Z</time></trkpt><trkpt lat="42.69270760337131" lon="12.147896283445284"><ele>322.0</ele><time>2026-04-17T12:46:05Z</time></trkpt><trkpt lat="42.69281583709501" lon="12.147771580770572"><ele>320.5</ele><time>2026-04-17T12:46:06.001Z</time></trkpt><trkpt lat="42.69290748623105" lon="12.147634105416676"><ele>319.0</ele><time>2026-04-17T12:46:07.001Z</time></trkpt><trkpt lat="42.69298986525611" lon="12.147468407879266"><ele>317.5</ele><time>2026-04-17T12:46:08.001Z</time></trkpt><trkpt lat="42.69308981504167" lon="12.147316642434408"><ele>316.0</ele><time>2026-04-17T12:46:09.001Z</time></trkpt><trkpt lat="42.693174690886366" lon="12.14717043865292"><ele>314.3333333333333</ele><time>2026-04-17T12:46:10.001Z</time></trkpt><trkpt lat="42.69328178301265" lon="12.147052295290404"><ele>312.6666666666667</ele><time>2026-04-17T12:46:11.001Z</time></trkpt><trkpt lat="42.69342975552969" lon="12.146928723235098"><ele>311.0</ele><time>2026-04-17T12:46:12.001Z</time></trkpt><trkpt lat="42.693617349860375" lon="12.146809093416945"><ele>308.0</ele><time>2026-04-17T12:46:13.001Z</time></trkpt><trkpt lat="42.69382889496699" lon="12.146665884381662"><ele>305.0</ele><time>2026-04-17T12:46:14.001Z</time></trkpt><trkpt lat="42.69406042125829" lon="12.146505669932674"><ele>302.5</ele><time>2026-04-17T12:46:15.001Z</time></trkpt><trkpt lat="42.69431284641273" lon="12.146332906912189"><ele>300.0</ele><time>2026-04-17T12:46:16.001Z</time></trkpt><trkpt lat="42.69456300375224" lon="12.146168476670343"><ele>299.5</ele><time>2026-04-17T12:46:17.001Z</time></trkpt><trkpt lat="42.694787125988555" lon="12.146012576666182"><ele>299.0</ele><time>2026-04-17T12:46:18.001Z</time></trkpt><trkpt lat="42.694999138936595" lon="12.145869183962185"><ele>299.0</ele><time>2026-04-17T12:46:19.001Z</time></trkpt><trkpt lat="42.69520410822618" lon="12.145730986669758"><ele>299.0</ele><time>2026-04-17T12:46:20.001Z</time></trkpt><trkpt lat="42.6954002867737" lon="12.14559798197491"><ele>299.0</ele><time>2026-04-17T12:46:21.001Z</time></trkpt><trkpt lat="42.69559547600552" lon="12.14546253337215"><ele>297.6666666666667</ele><time>2026-04-17T12:46:22.001Z</time></trkpt><trkpt lat="42.69577906221333" lon="12.145335561778284"><ele>296.3333333333333</ele><time>2026-04-17T12:46:23.001Z</time></trkpt><trkpt lat="42.695952849804705" lon="12.145218089318103"><ele>295.0</ele><time>2026-04-17T12:46:24.001Z</time></trkpt><trkpt lat="42.69611843458243" lon="12.145105396408722"><ele>295.3333333333333</ele><time>2026-04-17T12:46:25.001Z</time></trkpt><trkpt lat="42.69627324403654" lon="12.144976630106479"><ele>295.6666666666667</ele><time>2026-04-17T12:46:26.001Z</time></trkpt><trkpt lat="42.69640216483638" lon="12.144792785286523"><ele>296.0</ele><time>2026-04-17T12:46:27.001Z</time></trkpt><trkpt lat="42.696538573983915" lon="12.14457475757096"><ele>296.0</ele><time>2026-04-17T12:46:28.001Z</time></trkpt><trkpt lat="42.69667608640892" lon="12.144307949497252"><ele>296.0</ele><time>2026-04-17T12:46:29.001Z</time></trkpt><trkpt lat="42.69683861292251" lon="12.144035823797962"><ele>298.0</ele><time>2026-04-17T12:46:30.001Z</time></trkpt><trkpt lat="42.696999479590225" lon="12.143736048795436"><ele>300.0</ele><time>2026-04-17T12:46:31.001Z</time></trkpt><trkpt lat="42.697163038749714" lon="12.143429866508967"><ele>303.0</ele><time>2026-04-17T12:46:32.001Z</time></trkpt><trkpt lat="42.697310642783044" lon="12.143160177621837"><ele>306.0</ele><time>2026-04-17T12:46:33.001Z</time></trkpt><trkpt lat="42.69744203970141" lon="12.142917977084682"><ele>306.0</ele><time>2026-04-17T12:46:34.001Z</time></trkpt><trkpt lat="42.69756321288077" lon="12.142688881788201"><ele>306.0</ele><time>2026-04-17T12:46:35.001Z</time></trkpt><trkpt lat="42.69767704397597" lon="12.142482846828248"><ele>306.0</ele><time>2026-04-17T12:46:36.001Z</time></trkpt><trkpt lat="42.69777168582955" lon="12.142276761356495"><ele>306.0</ele><time>2026-04-17T12:46:37.001Z</time></trkpt><trkpt lat="42.697890352076506" lon="12.142100746503786"><ele>306.0</ele><time>2026-04-17T12:46:38.001Z</time></trkpt><trkpt lat="42.697985678337204" lon="12.141922680524043"><ele>306.0</ele><time>2026-04-17T12:46:39.001Z</time></trkpt><trkpt lat="42.698042579584765" lon="12.141747339131605"><ele>306.0</ele><time>2026-04-17T12:46:40.001Z</time></trkpt><trkpt lat="42.6980954398051" lon="12.141581096420008"><ele>306.0</ele><time>2026-04-17T12:46:41.001Z</time></trkpt><trkpt lat="42.698138987002245" lon="12.141391959967482"><ele>306.0</ele><time>2026-04-17T12:46:42.001Z</time></trkpt><trkpt lat="42.698172012972" lon="12.141187142914177"><ele>306.0</ele><time>2026-04-17T12:46:43.001Z</time></trkpt><trkpt lat="42.698193686376676" lon="12.140994067068261"><ele>307.0</ele><time>2026-04-17T12:46:44.001Z</time></trkpt><trkpt lat="42.698205041495974" lon="12.14079172333613"><ele>308.0</ele><time>2026-04-17T12:46:45.001Z</time></trkpt><trkpt lat="42.69820181873485" lon="12.140550937053007"><ele>309.0</ele><time>2026-04-17T12:46:46.001Z</time></trkpt><trkpt lat="42.69819108707415" lon="12.140287200220786"><ele>310.0</ele><time>2026-04-17T12:46:47.001Z</time></trkpt><trkpt lat="42.69819186969268" lon="12.139995683856352"><ele>311.0</ele><time>2026-04-17T12:46:48.001Z</time></trkpt><trkpt lat="42.698180960809566" lon="12.139727301762145"><ele>312.0</ele><time>2026-04-17T12:46:49.001Z</time></trkpt><trkpt lat="42.698171365656115" lon="12.139495376435935"><ele>312.25</ele><time>2026-04-17T12:46:50.001Z</time></trkpt><trkpt lat="42.6981664300891" lon="12.139284866953707"><ele>312.5</ele><time>2026-04-17T12:46:51.001Z</time></trkpt><trkpt lat="42.69815806409632" lon="12.139109393976666"><ele>312.75</ele><time>2026-04-17T12:46:52.001Z</time></trkpt><trkpt lat="42.69821947461972" lon="12.138954404774855"><ele>313.0</ele><time>2026-04-17T12:46:53.001Z</time></trkpt><trkpt lat="42.69829116566295" lon="12.138772011811977"><ele>313.66666666666663</ele><time>2026-04-17T12:46:54.001Z</time></trkpt><trkpt lat="42.6983813248676" lon="12.13855526241468"><ele>314.3333333333333</ele><time>2026-04-17T12:46:55.001Z</time></trkpt><trkpt lat="42.69848545075367" lon="12.138302807266593"><ele>315.0</ele><time>2026-04-17T12:46:56.001Z</time></trkpt><trkpt lat="42.69860096364041" lon="12.138020526219355"><ele>316.3333333333333</ele><time>2026-04-17T12:46:57.001Z</time></trkpt><trkpt lat="42.69870666664998" lon="12.137762836401562"><ele>317.66666666666663</ele><time>2026-04-17T12:46:58.001Z</time></trkpt><trkpt lat="42.69879880597519" lon="12.137538210144895"><ele>319.0</ele><time>2026-04-17T12:46:59.001Z</time></trkpt><trkpt lat="42.69888076476311" lon="12.13733840288985"><ele>320.25</ele><time>2026-04-17T12:47:00.001Z</time></trkpt><trkpt lat="42.69895672014138" lon="12.137153231491851"><ele>321.5</ele><time>2026-04-17T12:47:01.001Z</time></trkpt><trkpt lat="42.6990249424227" lon="12.136986912499276"><ele>322.75</ele><time>2026-04-17T12:47:02.001Z</time></trkpt><trkpt lat="42.699080547574766" lon="12.136849242707358"><ele>324.0</ele><time>2026-04-17T12:47:03.001Z</time></trkpt><trkpt lat="42.699124076823075" lon="12.136740852383802"><ele>324.0</ele><time>2026-04-17T12:47:04.001Z</time></trkpt><trkpt lat="42.69914157472281" lon="12.136651343963731"><ele>324.0</ele><time>2026-04-17T12:47:05.001Z</time></trkpt><trkpt lat="42.69917850777292" lon="12.136566457199887"><ele>324.0</ele><time>2026-04-17T12:47:07.001Z</time></trkpt><trkpt lat="42.69921696201202" lon="12.136495965679556"><ele>324.0</ele><time>2026-04-17T12:47:11.001Z</time></trkpt><trkpt lat="42.69931887930836" lon="12.136549214259373"><ele>324.0</ele><time>2026-04-17T12:47:12.001Z</time></trkpt><trkpt lat="42.69942300014434" lon="12.136518896799593"><ele>324.0</ele><time>2026-04-17T12:47:13.001Z</time></trkpt><trkpt lat="42.69954446211865" lon="12.136462881552385"><ele>323.0</ele><time>2026-04-17T12:47:14.001Z</time></trkpt><trkpt lat="42.699669094054634" lon="12.136431673489508"><ele>322.0</ele><time>2026-04-17T12:47:15.001Z</time></trkpt><trkpt lat="42.699811285721694" lon="12.136334306672543"><ele>321.0</ele><time>2026-04-17T12:47:16.001Z</time></trkpt><trkpt lat="42.699939462504254" lon="12.13615363421842"><ele>321.0</ele><time>2026-04-17T12:47:17.001Z</time></trkpt><trkpt lat="42.70007300111429" lon="12.135931816025662"><ele>321.0</ele><time>2026-04-17T12:47:18.002Z</time></trkpt><trkpt lat="42.70019705306288" lon="12.13569028053839"><ele>321.0</ele><time>2026-04-17T12:47:19.002Z</time></trkpt><trkpt lat="42.70032358082804" lon="12.135456198938643"><ele>322.3333333333333</ele><time>2026-04-17T12:47:20.002Z</time></trkpt><trkpt lat="42.700444161004064" lon="12.135247153273234"><ele>323.66666666666663</ele><time>2026-04-17T12:47:21.002Z</time></trkpt><trkpt lat="42.70054118860598" lon="12.135079805365608"><ele>325.0</ele><time>2026-04-17T12:47:22.002Z</time></trkpt><trkpt lat="42.70063235858477" lon="12.134921460389085"><ele>326.0</ele><time>2026-04-17T12:47:23.002Z</time></trkpt><trkpt lat="42.70071323851828" lon="12.134765719649259"><ele>327.0</ele><time>2026-04-17T12:47:24Z</time></trkpt><trkpt lat="42.7007770805606" lon="12.134599677304012"><ele>328.0</ele><time>2026-04-17T12:47:25Z</time></trkpt><trkpt lat="42.70082119306805" lon="12.134395397037471"><ele>329.0</ele><time>2026-04-17T12:47:26Z</time></trkpt><trkpt lat="42.70084253912032" lon="12.134157156664642"><ele>328.6666666666667</ele><time>2026-04-17T12:47:27Z</time></trkpt><trkpt lat="42.700849512672065" lon="12.133891417299061"><ele>328.3333333333333</ele><time>2026-04-17T12:47:28Z</time></trkpt><trkpt lat="42.70085657247471" lon="12.133645234630674"><ele>328.0</ele><time>2026-04-17T12:47:29Z</time></trkpt><trkpt lat="42.70086505347895" lon="12.133421863299462"><ele>327.0</ele><time>2026-04-17T12:47:30Z</time></trkpt><trkpt lat="42.70088153312261" lon="12.133190392959333"><ele>326.0</ele><time>2026-04-17T12:47:31Z</time></trkpt><trkpt lat="42.700898140875495" lon="12.132941026507332"><ele>325.0</ele><time>2026-04-17T12:47:32Z</time></trkpt><trkpt lat="42.70091643947168" lon="12.13267649411763"><ele>325.0</ele><time>2026-04-17T12:47:33Z</time></trkpt><trkpt lat="42.70093430574259" lon="12.132416533301916"><ele>325.0</ele><time>2026-04-17T12:47:34Z</time></trkpt><trkpt lat="42.700950347687595" lon="12.132178351942594"><ele>325.0</ele><time>2026-04-17T12:47:35Z</time></trkpt><trkpt lat="42.700964378104246" lon="12.131949794522225"><ele>323.75</ele><time>2026-04-17T12:47:36Z</time></trkpt><trkpt lat="42.70097890407451" lon="12.131735465070612"><ele>322.5</ele><time>2026-04-17T12:47:37Z</time></trkpt><trkpt lat="42.70099000483754" lon="12.131539894814772"><ele>321.25</ele><time>2026-04-17T12:47:38Z</time></trkpt><trkpt lat="42.701003598233115" lon="12.13135491185685"><ele>320.0</ele><time>2026-04-17T12:47:39Z</time></trkpt><trkpt lat="42.701011057324635" lon="12.131183022860574"><ele>319.2</ele><time>2026-04-17T12:47:40Z</time></trkpt><trkpt lat="42.70102202416271" lon="12.131026773079858"><ele>318.4</ele><time>2026-04-17T12:47:41Z</time></trkpt><trkpt lat="42.701032072965575" lon="12.130884694722036"><ele>317.6</ele><time>2026-04-17T12:47:42Z</time></trkpt><trkpt lat="42.70104218486611" lon="12.130756114689344"><ele>316.8</ele><time>2026-04-17T12:47:43Z</time></trkpt><trkpt lat="42.7010504816045" lon="12.130626045375323"><ele>316.0</ele><time>2026-04-17T12:47:44Z</time></trkpt><trkpt lat="42.701063611234886" lon="12.130491434784945"><ele>315.75</ele><time>2026-04-17T12:47:45Z</time></trkpt><trkpt lat="42.70107679040831" lon="12.130354380134538"><ele>315.5</ele><time>2026-04-17T12:47:46Z</time></trkpt><trkpt lat="42.701092051906336" lon="12.130210143348206"><ele>315.25</ele><time>2026-04-17T12:47:47Z</time></trkpt><trkpt lat="42.70110315189973" lon="12.130045908430102"><ele>315.0</ele><time>2026-04-17T12:47:48Z</time></trkpt><trkpt lat="42.70111565417969" lon="12.129848908145402"><ele>312.25</ele><time>2026-04-17T12:47:49Z</time></trkpt><trkpt lat="42.70112730376426" lon="12.129651050141616"><ele>309.5</ele><time>2026-04-17T12:47:50Z</time></trkpt><trkpt lat="42.701136573723815" lon="12.129468377641944"><ele>306.75</ele><time>2026-04-17T12:47:51Z</time></trkpt><trkpt lat="42.70114532816604" lon="12.129295772956645"><ele>304.0</ele><time>2026-04-17T12:47:52Z</time></trkpt><trkpt lat="42.7011534001308" lon="12.12913419989314"><ele>302.4</ele><time>2026-04-17T12:47:53Z</time></trkpt><trkpt lat="42.70116073896688" lon="12.128985066228793"><ele>300.79999999999995</ele><time>2026-04-17T12:47:54Z</time></trkpt><trkpt lat="42.701177000464625" lon="12.128851962449748"><ele>299.20000000000005</ele><time>2026-04-17T12:47:55Z</time></trkpt><trkpt lat="42.701204228529306" lon="12.128743090435988"><ele>297.6</ele><time>2026-04-17T12:47:56Z</time></trkpt><trkpt lat="42.70125000558938" lon="12.128659050356122"><ele>296.0</ele><time>2026-04-17T12:47:57Z</time></trkpt><trkpt lat="42.70133479009063" lon="12.128630081211515"><ele>296.0</ele><time>2026-04-17T12:47:58Z</time></trkpt><trkpt lat="42.70140944184676" lon="12.128632120564452"><ele>296.0</ele><time>2026-04-17T12:47:59Z</time></trkpt><trkpt lat="42.70148696724906" lon="12.128653729545851"><ele>296.0</ele><time>2026-04-17T12:48:00Z</time></trkpt><trkpt lat="42.70160564031468" lon="12.128674907477013"><ele>296.0</ele><time>2026-04-17T12:48:01Z</time></trkpt><trkpt lat="42.701754859134574" lon="12.128700833939982"><ele>296.0</ele><time>2026-04-17T12:48:02Z</time></trkpt><trkpt lat="42.70189805010539" lon="12.128725767660995"><ele>296.2</ele><time>2026-04-17T12:48:03Z</time></trkpt><trkpt lat="42.702023475081184" lon="12.128746225056105"><ele>296.40000000000003</ele><time>2026-04-17T12:48:04Z</time></trkpt><trkpt lat="42.7021336770254" lon="12.128754476965687"><ele>296.6</ele><time>2026-04-17T12:48:05Z</time></trkpt><trkpt lat="42.70223820047319" lon="12.128734989745857"><ele>296.8</ele><time>2026-04-17T12:48:06Z</time></trkpt><trkpt lat="42.70231638684353" lon="12.128637070319526"><ele>297.0</ele><time>2026-04-17T12:48:07Z</time></trkpt><trkpt lat="42.70237232956476" lon="12.128508669874554"><ele>297.0</ele><time>2026-04-17T12:48:08Z</time></trkpt><trkpt lat="42.702404082370045" lon="12.128330978783117"><ele>297.0</ele><time>2026-04-17T12:48:09Z</time></trkpt><trkpt lat="42.70241224837662" lon="12.128148768220994"><ele>297.0</ele><time>2026-04-17T12:48:10Z</time></trkpt><trkpt lat="42.70241801180697" lon="12.128006770056368"><ele>297.0</ele><time>2026-04-17T12:48:11Z</time></trkpt><trkpt lat="42.702458457544914" lon="12.127902540291792"><ele>293.4</ele><time>2026-04-17T12:48:12Z</time></trkpt><trkpt lat="42.70251607638218" lon="12.127845015653802"><ele>289.79999999999995</ele><time>2026-04-17T12:48:13Z</time></trkpt><trkpt lat="42.70261124964179" lon="12.127838480662087"><ele>286.2</ele><time>2026-04-17T12:48:14Z</time></trkpt><trkpt lat="42.702727330063375" lon="12.127883904890309"><ele>282.59999999999997</ele><time>2026-04-17T12:48:15Z</time></trkpt><trkpt lat="42.70287089383529" lon="12.12793032262474"><ele>279.0</ele><time>2026-04-17T12:48:16Z</time></trkpt><trkpt lat="42.702989868329354" lon="12.12796883582004"><ele>278.4</ele><time>2026-04-17T12:48:17.001Z</time></trkpt><trkpt lat="42.703101711831216" lon="12.128005040608976"><ele>277.79999999999995</ele><time>2026-04-17T12:48:18.001Z</time></trkpt><trkpt lat="42.703206345081355" lon="12.128038912146883"><ele>277.20000000000005</ele><time>2026-04-17T12:48:19.001Z</time></trkpt><trkpt lat="42.703304931671056" lon="12.128070618910838"><ele>276.6</ele><time>2026-04-17T12:48:20.001Z</time></trkpt><trkpt lat="42.703404246141154" lon="12.128101786441178"><ele>276.0</ele><time>2026-04-17T12:48:21.001Z</time></trkpt><trkpt lat="42.70350218121753" lon="12.128123816378595"><ele>274.0</ele><time>2026-04-17T12:48:22.001Z</time></trkpt><trkpt lat="42.70360826119614" lon="12.12812947773345"><ele>272.0</ele><time>2026-04-17T12:48:23.001Z</time></trkpt><trkpt lat="42.703731698158" lon="12.128088071051192"><ele>270.0</ele><time>2026-04-17T12:48:24.001Z</time></trkpt><trkpt lat="42.70383999212856" lon="12.128051958126846"><ele>268.0</ele><time>2026-04-17T12:48:25.001Z</time></trkpt><trkpt lat="42.70394305325931" lon="12.12801671990786"><ele>268.0</ele><time>2026-04-17T12:48:26.001Z</time></trkpt><trkpt lat="42.70404218837927" lon="12.12798231099958"><ele>268.0</ele><time>2026-04-17T12:48:27.001Z</time></trkpt><trkpt lat="42.70414012088767" lon="12.127949125388122"><ele>268.0</ele><time>2026-04-17T12:48:28.001Z</time></trkpt><trkpt lat="42.70423825107949" lon="12.127917952346714"><ele>268.0</ele><time>2026-04-17T12:48:29.001Z</time></trkpt><trkpt lat="42.7043379192593" lon="12.12789713876991"><ele>268.0</ele><time>2026-04-17T12:48:30.001Z</time></trkpt><trkpt lat="42.70445771467067" lon="12.12787602488816"><ele>269.0</ele><time>2026-04-17T12:48:31.001Z</time></trkpt><trkpt lat="42.70460011643085" lon="12.127866924127646"><ele>270.0</ele><time>2026-04-17T12:48:32.001Z</time></trkpt><trkpt lat="42.70476155749945" lon="12.127842730182042"><ele>271.0</ele><time>2026-04-17T12:48:33.001Z</time></trkpt><trkpt lat="42.704916925563886" lon="12.127863715942313"><ele>271.0</ele><time>2026-04-17T12:48:34.001Z</time></trkpt><trkpt lat="42.70505986533306" lon="12.127863970491862"><ele>271.0</ele><time>2026-04-17T12:48:35.001Z</time></trkpt><trkpt lat="42.7051964613443" lon="12.127852754303435"><ele>271.0</ele><time>2026-04-17T12:48:36.001Z</time></trkpt><trkpt lat="42.70533203330342" lon="12.12783325111743"><ele>271.0</ele><time>2026-04-17T12:48:37.001Z</time></trkpt><trkpt lat="42.7054441450268" lon="12.127792334154922"><ele>272.75</ele><time>2026-04-17T12:48:38.001Z</time></trkpt><trkpt lat="42.705561934795675" lon="12.127755692865344"><ele>274.5</ele><time>2026-04-17T12:48:39.001Z</time></trkpt><trkpt lat="42.70569667238964" lon="12.127690870751389"><ele>276.25</ele><time>2026-04-17T12:48:40.001Z</time></trkpt><trkpt lat="42.70584458840525" lon="12.127618631453931"><ele>278.0</ele><time>2026-04-17T12:48:41.001Z</time></trkpt><trkpt lat="42.705998227391866" lon="12.127520261801186"><ele>280.0</ele><time>2026-04-17T12:48:42.001Z</time></trkpt><trkpt lat="42.70616457896552" lon="12.127430481293837"><ele>282.0</ele><time>2026-04-17T12:48:43.001Z</time></trkpt><trkpt lat="42.70632615200166" lon="12.127325999028413"><ele>284.0</ele><time>2026-04-17T12:48:44.001Z</time></trkpt><trkpt lat="42.70647176130651" lon="12.12722477505559"><ele>276.6666666666667</ele><time>2026-04-17T12:48:45.001Z</time></trkpt><trkpt lat="42.706623828182074" lon="12.12714486543677"><ele>269.3333333333333</ele><time>2026-04-17T12:48:46.001Z</time></trkpt><trkpt lat="42.70679761254796" lon="12.127088304034892"><ele>262.0</ele><time>2026-04-17T12:48:47.001Z</time></trkpt><trkpt lat="42.70699818728846" lon="12.127068464435826"><ele>262.0</ele><time>2026-04-17T12:48:48.001Z</time></trkpt><trkpt lat="42.70722033499246" lon="12.127021037412819"><ele>262.0</ele><time>2026-04-17T12:48:49.001Z</time></trkpt><trkpt lat="42.7074738286062" lon="12.126946250818227"><ele>262.0</ele><time>2026-04-17T12:48:50.001Z</time></trkpt><trkpt lat="42.70770885311464" lon="12.126886001734023"><ele>262.0</ele><time>2026-04-17T12:48:51.001Z</time></trkpt><trkpt lat="42.707917768007" lon="12.126829279274823"><ele>263.0</ele><time>2026-04-17T12:48:52.001Z</time></trkpt><trkpt lat="42.708111777246714" lon="12.12680628005207"><ele>264.0</ele><time>2026-04-17T12:48:53.001Z</time></trkpt><trkpt lat="42.70829264808533" lon="12.126772574213774"><ele>265.0</ele><time>2026-04-17T12:48:54.001Z</time></trkpt><trkpt lat="42.70846426820417" lon="12.126753154922248"><ele>262.3333333333333</ele><time>2026-04-17T12:48:55.001Z</time></trkpt><trkpt lat="42.70862825808848" lon="12.126764115501372"><ele>259.6666666666667</ele><time>2026-04-17T12:48:56.001Z</time></trkpt><trkpt lat="42.7087853204753" lon="12.126822611270946"><ele>257.0</ele><time>2026-04-17T12:48:57.001Z</time></trkpt><trkpt lat="42.70897329827321" lon="12.126905900840937"><ele>257.0</ele><time>2026-04-17T12:48:58.001Z</time></trkpt><trkpt lat="42.709160880648916" lon="12.126974503089272"><ele>257.0</ele><time>2026-04-17T12:48:59.001Z</time></trkpt><trkpt lat="42.709331904873025" lon="12.126980197658623"><ele>257.0</ele><time>2026-04-17T12:49:00.001Z</time></trkpt><trkpt lat="42.7094972108879" lon="12.126970381737497"><ele>257.33333333333337</ele><time>2026-04-17T12:49:01.001Z</time></trkpt><trkpt lat="42.70966397601769" lon="12.126940609310521"><ele>257.6666666666667</ele><time>2026-04-17T12:49:02.001Z</time></trkpt><trkpt lat="42.70982018232351" lon="12.126896848097532"><ele>258.0</ele><time>2026-04-17T12:49:03.001Z</time></trkpt><trkpt lat="42.70995088737893" lon="12.12684551211343"><ele>258.0</ele><time>2026-04-17T12:49:04.001Z</time></trkpt><trkpt lat="42.710064268704066" lon="12.126756308648428"><ele>258.0</ele><time>2026-04-17T12:49:05.001Z</time></trkpt><trkpt lat="42.71016607721256" lon="12.126610899778692"><ele>258.0</ele><time>2026-04-17T12:49:06.001Z</time></trkpt><trkpt lat="42.7102525762157" lon="12.126432382592167"><ele>258.0</ele><time>2026-04-17T12:49:07.001Z</time></trkpt><trkpt lat="42.710318128873986" lon="12.12623997668236"><ele>256.2</ele><time>2026-04-17T12:49:08.001Z</time></trkpt><trkpt lat="42.7103696234121" lon="12.126077931245199"><ele>254.4</ele><time>2026-04-17T12:49:09.001Z</time></trkpt><trkpt lat="42.710407838102206" lon="12.125957229796985"><ele>252.59999999999997</ele><time>2026-04-17T12:49:10.001Z</time></trkpt><trkpt lat="42.71045135155468" lon="12.125861847552052"><ele>250.79999999999998</ele><time>2026-04-17T12:49:11.001Z</time></trkpt><trkpt lat="42.71051304452676" lon="12.12579610607464"><ele>249.0</ele><time>2026-04-17T12:49:12.001Z</time></trkpt><trkpt lat="42.71059254063456" lon="12.125731233255118"><ele>244.6</ele><time>2026-04-17T12:49:13.001Z</time></trkpt><trkpt lat="42.710682694697866" lon="12.12567782008734"><ele>240.2</ele><time>2026-04-17T12:49:14.001Z</time></trkpt><trkpt lat="42.710785935471655" lon="12.125651761091248"><ele>235.79999999999998</ele><time>2026-04-17T12:49:15.001Z</time></trkpt><trkpt lat="42.71089274188526" lon="12.125620612582921"><ele>231.39999999999998</ele><time>2026-04-17T12:49:16.001Z</time></trkpt><trkpt lat="42.711012194820235" lon="12.125603546719292"><ele>227.0</ele><time>2026-04-17T12:49:17.001Z</time></trkpt><trkpt lat="42.71112545673018" lon="12.125641320517857"><ele>230.33333333333334</ele><time>2026-04-17T12:49:18.001Z</time></trkpt><trkpt lat="42.711239053123016" lon="12.125739425253414"><ele>233.66666666666669</ele><time>2026-04-17T12:49:19.001Z</time></trkpt><trkpt lat="42.71137098055269" lon="12.12584393698483"><ele>237.0</ele><time>2026-04-17T12:49:20.001Z</time></trkpt><trkpt lat="42.71153048926656" lon="12.125976302365725"><ele>237.0</ele><time>2026-04-17T12:49:21.001Z</time></trkpt><trkpt lat="42.71168082897638" lon="12.126101913178116"><ele>237.0</ele><time>2026-04-17T12:49:22.001Z</time></trkpt><trkpt lat="42.711823918712035" lon="12.126217605206314"><ele>237.0</ele><time>2026-04-17T12:49:23.001Z</time></trkpt><trkpt lat="42.71197319639463" lon="12.1263152168993"><ele>235.33333333333331</ele><time>2026-04-17T12:49:24.001Z</time></trkpt><trkpt lat="42.71213244027352" lon="12.126440820361449"><ele>233.66666666666666</ele><time>2026-04-17T12:49:25.001Z</time></trkpt><trkpt lat="42.71229731916366" lon="12.126574351095632"><ele>232.0</ele><time>2026-04-17T12:49:26.002Z</time></trkpt><trkpt lat="42.712440458753534" lon="12.126698775389462"><ele>232.0</ele><time>2026-04-17T12:49:27.002Z</time></trkpt><trkpt lat="42.71254892553125" lon="12.126806778584996"><ele>232.0</ele><time>2026-04-17T12:49:28.002Z</time></trkpt><trkpt lat="42.71264382245775" lon="12.126904921511047"><ele>232.0</ele><time>2026-04-17T12:49:29.002Z</time></trkpt><trkpt lat="42.712727487936895" lon="12.126980737438794"><ele>232.0</ele><time>2026-04-17T12:49:30Z</time></trkpt><trkpt lat="42.712827081040906" lon="12.127023014346301"><ele>230.0</ele><time>2026-04-17T12:49:31Z</time></trkpt><trkpt lat="42.71291251077462" lon="12.127016715920695"><ele>228.0</ele><time>2026-04-17T12:49:32Z</time></trkpt><trkpt lat="42.71299238210323" lon="12.12695631076171"><ele>226.0</ele><time>2026-04-17T12:49:33Z</time></trkpt><trkpt lat="42.71303044459957" lon="12.126843724370312"><ele>224.0</ele><time>2026-04-17T12:49:34Z</time></trkpt><trkpt lat="42.713062982834366" lon="12.126723070053975"><ele>222.0</ele><time>2026-04-17T12:49:35Z</time></trkpt><trkpt lat="42.712980469940675" lon="12.126554142839"><ele>221.25</ele><time>2026-04-17T12:49:36Z</time></trkpt><trkpt lat="42.71289420197624" lon="12.126417274585918"><ele>220.5</ele><time>2026-04-17T12:49:37Z</time></trkpt><trkpt lat="42.71276943435323" lon="12.12631318054737"><ele>219.75</ele><time>2026-04-17T12:49:38Z</time></trkpt><trkpt lat="42.71262697249351" lon="12.126232184754159"><ele>219.0</ele><time>2026-04-17T12:49:39Z</time></trkpt><trkpt lat="42.71250458125054" lon="12.126176392840286"><ele>219.0</ele><time>2026-04-17T12:49:40Z</time></trkpt><trkpt lat="42.71239917240251" lon="12.12610725098595"><ele>219.0</ele><time>2026-04-17T12:49:41Z</time></trkpt><trkpt lat="42.71231890261287" lon="12.125996181658275"><ele>219.0</ele><time>2026-04-17T12:49:42Z</time></trkpt><trkpt lat="42.71226156881029" lon="12.125841175487595"><ele>219.0</ele><time>2026-04-17T12:49:43Z</time></trkpt><trkpt lat="42.7122203937604" lon="12.125643780386996"><ele>217.0</ele><time>2026-04-17T12:49:44Z</time></trkpt><trkpt lat="42.712187058968624" lon="12.125455179383394"><ele>215.0</ele><time>2026-04-17T12:49:45Z</time></trkpt><trkpt lat="42.71213089915109" lon="12.125278941585584"><ele>213.0</ele><time>2026-04-17T12:49:46Z</time></trkpt><trkpt lat="42.712037364890435" lon="12.12510049004123"><ele>211.0</ele><time>2026-04-17T12:49:47Z</time></trkpt><trkpt lat="42.71192964399675" lon="12.124928089819942"><ele>209.25</ele><time>2026-04-17T12:49:48Z</time></trkpt><trkpt lat="42.71183196322221" lon="12.12477436956132"><ele>207.5</ele><time>2026-04-17T12:49:49Z</time></trkpt><trkpt lat="42.71173363335939" lon="12.124634512588495"><ele>205.75</ele><time>2026-04-17T12:49:50Z</time></trkpt><trkpt lat="42.71163983249822" lon="12.124517045306337"><ele>204.0</ele><time>2026-04-17T12:49:51Z</time></trkpt><trkpt lat="42.71151688536014" lon="12.12443795683783"><ele>204.0</ele><time>2026-04-17T12:49:52Z</time></trkpt><trkpt lat="42.71135409890756" lon="12.124384383697034"><ele>204.0</ele><time>2026-04-17T12:49:53Z</time></trkpt><trkpt lat="42.71115386668168" lon="12.124338580620604"><ele>204.0</ele><time>2026-04-17T12:49:54Z</time></trkpt><trkpt lat="42.71094558140541" lon="12.124288019122016"><ele>205.0</ele><time>2026-04-17T12:49:55Z</time></trkpt><trkpt lat="42.7107602328552" lon="12.124235162870997"><ele>206.0</ele><time>2026-04-17T12:49:56Z</time></trkpt><trkpt lat="42.71058650634346" lon="12.124188551793347"><ele>207.0</ele><time>2026-04-17T12:49:57Z</time></trkpt><trkpt lat="42.710418119477325" lon="12.12414452922467"><ele>207.0</ele><time>2026-04-17T12:49:58Z</time></trkpt><trkpt lat="42.71025858282181" lon="12.124106312346157"><ele>207.0</ele><time>2026-04-17T12:49:59Z</time></trkpt><trkpt lat="42.710103905629886" lon="12.124068253394796"><ele>207.0</ele><time>2026-04-17T12:50:00Z</time></trkpt><trkpt lat="42.70995376034903" lon="12.1240323675664"><ele>204.2</ele><time>2026-04-17T12:50:01Z</time></trkpt><trkpt lat="42.70982375310201" lon="12.123999263189653"><ele>201.39999999999998</ele><time>2026-04-17T12:50:02Z</time></trkpt><trkpt lat="42.7097158616662" lon="12.12397027843705"><ele>198.60000000000002</ele><time>2026-04-17T12:50:03Z</time></trkpt><trkpt lat="42.709625311798064" lon="12.123939529702584"><ele>195.8</ele><time>2026-04-17T12:50:04Z</time></trkpt><trkpt lat="42.709555386588015" lon="12.123894931432764"><ele>193.0</ele><time>2026-04-17T12:50:05Z</time></trkpt><trkpt lat="42.70953004223634" lon="12.123737792479693"><ele>193.0</ele><time>2026-04-17T12:50:07Z</time></trkpt><trkpt lat="42.709576925157904" lon="12.123657870809279"><ele>193.0</ele><time>2026-04-17T12:50:08Z</time></trkpt><trkpt lat="42.709674336277054" lon="12.123643440249348"><ele>193.0</ele><time>2026-04-17T12:50:09Z</time></trkpt><trkpt lat="42.709798184737025" lon="12.123595273491155"><ele>193.0</ele><time>2026-04-17T12:50:10Z</time></trkpt><trkpt lat="42.70995130105211" lon="12.123529450178392"><ele>193.0</ele><time>2026-04-17T12:50:11Z</time></trkpt><trkpt lat="42.71012064727584" lon="12.123468454097189"><ele>193.0</ele><time>2026-04-17T12:50:12Z</time></trkpt><trkpt lat="42.71026927200261" lon="12.123408265551609"><ele>193.0</ele><time>2026-04-17T12:50:13Z</time></trkpt><trkpt lat="42.71041350895016" lon="12.123365678943086"><ele>192.33333333333331</ele><time>2026-04-17T12:50:14Z</time></trkpt><trkpt lat="42.710568314828805" lon="12.123361990810471"><ele>191.66666666666666</ele><time>2026-04-17T12:50:15Z</time></trkpt><trkpt lat="42.71074740462289" lon="12.123370930209033"><ele>191.0</ele><time>2026-04-17T12:50:16Z</time></trkpt><trkpt lat="42.71091530092753" lon="12.123387689083021"><ele>191.0</ele><time>2026-04-17T12:50:17Z</time></trkpt><trkpt lat="42.71106165713319" lon="12.123399937236435"><ele>191.0</ele><time>2026-04-17T12:50:18Z</time></trkpt><trkpt lat="42.71117444084831" lon="12.123400142777081"><ele>191.0</ele><time>2026-04-17T12:50:19Z</time></trkpt><trkpt lat="42.71125758170821" lon="12.123396986735456"><ele>191.0</ele><time>2026-04-17T12:50:20Z</time></trkpt><trkpt lat="42.71132406211157" lon="12.123371832952891"><ele>191.0</ele><time>2026-04-17T12:50:21Z</time></trkpt><trkpt lat="42.71136805938203" lon="12.123304500588027"><ele>188.60000000000002</ele><time>2026-04-17T12:50:22Z</time></trkpt><trkpt lat="42.71137643157928" lon="12.123211118432621"><ele>186.2</ele><time>2026-04-17T12:50:23Z</time></trkpt><trkpt lat="42.711339360747196" lon="12.123119576353167"><ele>183.8</ele><time>2026-04-17T12:50:24Z</time></trkpt><trkpt lat="42.71125215106399" lon="12.123046692830055"><ele>181.39999999999998</ele><time>2026-04-17T12:50:25Z</time></trkpt><trkpt lat="42.71112673856769" lon="12.122969853147593"><ele>179.0</ele><time>2026-04-17T12:50:26Z</time></trkpt><trkpt lat="42.710971171633204" lon="12.122876525929357"><ele>179.0</ele><time>2026-04-17T12:50:27Z</time></trkpt><trkpt lat="42.710829078967215" lon="12.122783424301307"><ele>179.0</ele><time>2026-04-17T12:50:28Z</time></trkpt><trkpt lat="42.710706454177725" lon="12.122708505084956"><ele>179.0</ele><time>2026-04-17T12:50:29.001Z</time></trkpt><trkpt lat="42.71057345979634" lon="12.122665110086919"><ele>179.0</ele><time>2026-04-17T12:50:30.001Z</time></trkpt><trkpt lat="42.71042800838797" lon="12.12266511543567"><ele>179.0</ele><time>2026-04-17T12:50:31.001Z</time></trkpt><trkpt lat="42.71026476417794" lon="12.12271690756193"><ele>179.0</ele><time>2026-04-17T12:50:32.001Z</time></trkpt><trkpt lat="42.7101173124699" lon="12.12278224105188"><ele>179.0</ele><time>2026-04-17T12:50:33.001Z</time></trkpt><trkpt lat="42.70999872007601" lon="12.122820612540066"><ele>179.0</ele><time>2026-04-17T12:50:34.001Z</time></trkpt><trkpt lat="42.70990102212095" lon="12.122831816204618"><ele>178.79999999999998</ele><time>2026-04-17T12:50:35.001Z</time></trkpt><trkpt lat="42.709825779107874" lon="12.122822700570776"><ele>178.6</ele><time>2026-04-17T12:50:36.001Z</time></trkpt><trkpt lat="42.7097553206036" lon="12.122686906792485"><ele>178.4</ele><time>2026-04-17T12:50:38.001Z</time></trkpt><trkpt lat="42.70976914070386" lon="12.12258207122366"><ele>178.2</ele><time>2026-04-17T12:50:39.001Z</time></trkpt><trkpt lat="42.709843977579794" lon="12.122508013620898"><ele>178.0</ele><time>2026-04-17T12:50:40.001Z</time></trkpt><trkpt lat="42.709948940367894" lon="12.122436245767904"><ele>173.66666666666669</ele><time>2026-04-17T12:50:41.001Z</time></trkpt><trkpt lat="42.710083794789284" lon="12.122372779218065"><ele>169.33333333333334</ele><time>2026-04-17T12:50:42.001Z</time></trkpt><trkpt lat="42.710231735786735" lon="12.122254468348688"><ele>165.0</ele><time>2026-04-17T12:50:43.001Z</time></trkpt><trkpt lat="42.710395007908446" lon="12.122138328135428"><ele>164.33333333333334</ele><time>2026-04-17T12:50:44.001Z</time></trkpt><trkpt lat="42.710551545601156" lon="12.122031194383345"><ele>163.66666666666669</ele><time>2026-04-17T12:50:45.001Z</time></trkpt><trkpt lat="42.71069169255154" lon="12.12193030569522"><ele>163.0</ele><time>2026-04-17T12:50:46.001Z</time></trkpt><trkpt lat="42.710825153340004" lon="12.121835946316574"><ele>163.0</ele><time>2026-04-17T12:50:47.001Z</time></trkpt><trkpt lat="42.7109523254805" lon="12.121747667468112"><ele>163.0</ele><time>2026-04-17T12:50:48.001Z</time></trkpt><trkpt lat="42.71107947154176" lon="12.121670054471554"><ele>163.0</ele><time>2026-04-17T12:50:49.001Z</time></trkpt><trkpt lat="42.711191941027366" lon="12.121590917830522"><ele>163.0</ele><time>2026-04-17T12:50:50.001Z</time></trkpt><trkpt lat="42.71128589807056" lon="12.121514344893994"><ele>162.0</ele><time>2026-04-17T12:50:51.001Z</time></trkpt><trkpt lat="42.711346673551866" lon="12.12142305404411"><ele>161.0</ele><time>2026-04-17T12:50:52.001Z</time></trkpt><trkpt lat="42.71138280785207" lon="12.121298778483395"><ele>160.0</ele><time>2026-04-17T12:50:53.001Z</time></trkpt><trkpt lat="42.71138547365701" lon="12.12115458247907"><ele>159.0</ele><time>2026-04-17T12:50:54.001Z</time></trkpt><trkpt lat="42.71136840312247" lon="12.120987866240336"><ele>158.0</ele><time>2026-04-17T12:50:55.001Z</time></trkpt><trkpt lat="42.71133833267542" lon="12.120813072558391"><ele>157.66666666666666</ele><time>2026-04-17T12:50:56.001Z</time></trkpt><trkpt lat="42.71130477605279" lon="12.120656798477604"><ele>157.33333333333331</ele><time>2026-04-17T12:50:57.001Z</time></trkpt><trkpt lat="42.71128460345339" lon="12.120542421074783"><ele>157.0</ele><time>2026-04-17T12:50:58.001Z</time></trkpt><trkpt lat="42.71127389277721" lon="12.120443533263673"><ele>156.66666666666666</ele><time>2026-04-17T12:50:59.001Z</time></trkpt><trkpt lat="42.71128433721936" lon="12.120336211508302"><ele>156.33333333333334</ele><time>2026-04-17T12:51:00.001Z</time></trkpt><trkpt lat="42.711320925438194" lon="12.120231929849394"><ele>156.0</ele><time>2026-04-17T12:51:01.001Z</time></trkpt><trkpt lat="42.71138786189633" lon="12.12013021779715"><ele>156.0</ele><time>2026-04-17T12:51:02.001Z</time></trkpt><trkpt lat="42.711484806192104" lon="12.120048332639882"><ele>156.0</ele><time>2026-04-17T12:51:03.001Z</time></trkpt><trkpt lat="42.71162852773428" lon="12.120037569347401"><ele>156.0</ele><time>2026-04-17T12:51:04.001Z</time></trkpt><trkpt lat="42.71179764692149" lon="12.120008087164098"><ele>156.0</ele><time>2026-04-17T12:51:05.001Z</time></trkpt><trkpt lat="42.71200274607679" lon="12.119967816269801"><ele>155.33333333333334</ele><time>2026-04-17T12:51:06.001Z</time></trkpt><trkpt lat="42.712220387712584" lon="12.11992157861476"><ele>154.66666666666669</ele><time>2026-04-17T12:51:07.001Z</time></trkpt><trkpt lat="42.71241916879017" lon="12.119861099567915"><ele>154.0</ele><time>2026-04-17T12:51:08.001Z</time></trkpt><trkpt lat="42.712611900742765" lon="12.1198444634281"><ele>154.33333333333334</ele><time>2026-04-17T12:51:09.001Z</time></trkpt><trkpt lat="42.712787399210754" lon="12.119807732645342"><ele>154.66666666666666</ele><time>2026-04-17T12:51:10.001Z</time></trkpt><trkpt lat="42.71295006621826" lon="12.119773826217962"><ele>155.0</ele><time>2026-04-17T12:51:11.001Z</time></trkpt><trkpt lat="42.713099122138054" lon="12.119719740786637"><ele>155.0</ele><time>2026-04-17T12:51:12.001Z</time></trkpt><trkpt lat="42.71321532289419" lon="12.119726057069332"><ele>155.0</ele><time>2026-04-17T12:51:13.001Z</time></trkpt><trkpt lat="42.71330705970404" lon="12.119724194120556"><ele>155.0</ele><time>2026-04-17T12:51:14.001Z</time></trkpt><trkpt lat="42.71339566138321" lon="12.119726367698716"><ele>155.0</ele><time>2026-04-17T12:51:15.001Z</time></trkpt><trkpt lat="42.713492711595656" lon="12.119789468571813"><ele>155.0</ele><time>2026-04-17T12:51:16.001Z</time></trkpt><trkpt lat="42.71358889575644" lon="12.119874068246297"><ele>156.0</ele><time>2026-04-17T12:51:17.001Z</time></trkpt><trkpt lat="42.71367212608741" lon="12.119963026649248"><ele>157.0</ele><time>2026-04-17T12:51:18.001Z</time></trkpt><trkpt lat="42.713732392213174" lon="12.120046025170385"><ele>158.0</ele><time>2026-04-17T12:51:19.001Z</time></trkpt><trkpt lat="42.71378574847978" lon="12.120131365490856"><ele>159.0</ele><time>2026-04-17T12:51:20.001Z</time></trkpt><trkpt lat="42.713845215102616" lon="12.120239340954244"><ele>160.0</ele><time>2026-04-17T12:51:21.001Z</time></trkpt><trkpt lat="42.713915305042214" lon="12.120375083133764"><ele>160.0</ele><time>2026-04-17T12:51:22.001Z</time></trkpt><trkpt lat="42.714011644039196" lon="12.120548261622796"><ele>160.0</ele><time>2026-04-17T12:51:23.001Z</time></trkpt><trkpt lat="42.71412670462115" lon="12.120738688899841"><ele>160.0</ele><time>2026-04-17T12:51:24.001Z</time></trkpt><trkpt lat="42.714265613410745" lon="12.120957343815762"><ele>161.0</ele><time>2026-04-17T12:51:25.001Z</time></trkpt><trkpt lat="42.71442434346382" lon="12.121196264000169"><ele>162.0</ele><time>2026-04-17T12:51:26.001Z</time></trkpt><trkpt lat="42.714600060937926" lon="12.121444589513196"><ele>157.0</ele><time>2026-04-17T12:51:27.001Z</time></trkpt><trkpt lat="42.71478204521196" lon="12.121686214684802"><ele>152.0</ele><time>2026-04-17T12:51:28.001Z</time></trkpt><trkpt lat="42.714944330555085" lon="12.121897313707032"><ele>152.0</ele><time>2026-04-17T12:51:29.001Z</time></trkpt><trkpt lat="42.71510345646575" lon="12.122094341389175"><ele>152.0</ele><time>2026-04-17T12:51:30.001Z</time></trkpt><trkpt lat="42.715254586812605" lon="12.122275970036835"><ele>152.0</ele><time>2026-04-17T12:51:31.001Z</time></trkpt><trkpt lat="42.71537736650409" lon="12.122465942513402"><ele>151.66666666666666</ele><time>2026-04-17T12:51:32.001Z</time></trkpt><trkpt lat="42.71551009626257" lon="12.12261314794096"><ele>151.33333333333334</ele><time>2026-04-17T12:51:33.001Z</time></trkpt><trkpt lat="42.71563045496135" lon="12.122773810827011"><ele>151.0</ele><time>2026-04-17T12:51:34.001Z</time></trkpt><trkpt lat="42.71575055923847" lon="12.122950666807268"><ele>151.0</ele><time>2026-04-17T12:51:35.001Z</time></trkpt><trkpt lat="42.715866884375146" lon="12.123152641405893"><ele>151.0</ele><time>2026-04-17T12:51:36Z</time></trkpt><trkpt lat="42.71596996759226" lon="12.1234061972226"><ele>151.0</ele><time>2026-04-17T12:51:37Z</time></trkpt><trkpt lat="42.71606078754783" lon="12.123646299444829"><ele>147.66666666666669</ele><time>2026-04-17T12:51:38Z</time></trkpt><trkpt lat="42.71617425783278" lon="12.123869138245086"><ele>144.33333333333334</ele><time>2026-04-17T12:51:39Z</time></trkpt><trkpt lat="42.716333934697765" lon="12.124075574618074"><ele>141.0</ele><time>2026-04-17T12:51:40Z</time></trkpt><trkpt lat="42.71652576797279" lon="12.124268695956035"><ele>140.5</ele><time>2026-04-17T12:51:41Z</time></trkpt><trkpt lat="42.7167459003132" lon="12.124458042082438"><ele>140.0</ele><time>2026-04-17T12:51:42Z</time></trkpt><trkpt lat="42.71697790072149" lon="12.124659232389233"><ele>140.0</ele><time>2026-04-17T12:51:43Z</time></trkpt><trkpt lat="42.717197673388974" lon="12.12485724080256"><ele>140.0</ele><time>2026-04-17T12:51:44Z</time></trkpt><trkpt lat="42.71738705828429" lon="12.125041922023234"><ele>139.66666666666666</ele><time>2026-04-17T12:51:45Z</time></trkpt><trkpt lat="42.71756678374451" lon="12.125219378992512"><ele>139.33333333333334</ele><time>2026-04-17T12:51:46Z</time></trkpt><trkpt lat="42.71774037065157" lon="12.12539240173225"><ele>139.0</ele><time>2026-04-17T12:51:47Z</time></trkpt><trkpt lat="42.71790932764496" lon="12.12557303964881"><ele>139.0</ele><time>2026-04-17T12:51:48Z</time></trkpt><trkpt lat="42.718068408881685" lon="12.125748962087657"><ele>139.0</ele><time>2026-04-17T12:51:49Z</time></trkpt><trkpt lat="42.718219895054446" lon="12.125911348241324"><ele>139.0</ele><time>2026-04-17T12:51:50Z</time></trkpt><trkpt lat="42.71836872216637" lon="12.126066249283689"><ele>139.0</ele><time>2026-04-17T12:51:51Z</time></trkpt><trkpt lat="42.71851506136409" lon="12.126220143557518"><ele>139.0</ele><time>2026-04-17T12:51:52Z</time></trkpt><trkpt lat="42.71865963399027" lon="12.126372559325757"><ele>139.0</ele><time>2026-04-17T12:51:53Z</time></trkpt><trkpt lat="42.71879856651316" lon="12.126519725410764"><ele>137.0</ele><time>2026-04-17T12:51:54Z</time></trkpt><trkpt lat="42.71893093412041" lon="12.126661672144293"><ele>135.0</ele><time>2026-04-17T12:51:55Z</time></trkpt><trkpt lat="42.7190585852514" lon="12.12680573064857"><ele>133.0</ele><time>2026-04-17T12:51:56Z</time></trkpt><trkpt lat="42.71918177168165" lon="12.126958573704966"><ele>133.0</ele><time>2026-04-17T12:51:57Z</time></trkpt><trkpt lat="42.719295698680746" lon="12.12712911330406"><ele>133.0</ele><time>2026-04-17T12:51:58Z</time></trkpt><trkpt lat="42.71939599170414" lon="12.127311923028602"><ele>133.0</ele><time>2026-04-17T12:51:59Z</time></trkpt><trkpt lat="42.7194873362255" lon="12.127503719142373"><ele>132.33333333333334</ele><time>2026-04-17T12:52:00Z</time></trkpt><trkpt lat="42.71956514482393" lon="12.127699292378038"><ele>131.66666666666666</ele><time>2026-04-17T12:52:01Z</time></trkpt><trkpt lat="42.71963462027451" lon="12.12789729602504"><ele>131.0</ele><time>2026-04-17T12:52:02Z</time></trkpt><trkpt lat="42.719698610673795" lon="12.128127575782907"><ele>131.0</ele><time>2026-04-17T12:52:03Z</time></trkpt><trkpt lat="42.719753679394856" lon="12.128380714848848"><ele>131.0</ele><time>2026-04-17T12:52:04Z</time></trkpt><trkpt lat="42.71978504902214" lon="12.128672916656393"><ele>131.0</ele><time>2026-04-17T12:52:05Z</time></trkpt><trkpt lat="42.71979925886985" lon="12.128980512207391"><ele>130.33333333333331</ele><time>2026-04-17T12:52:06Z</time></trkpt><trkpt lat="42.719803996086604" lon="12.129268703273132"><ele>129.66666666666666</ele><time>2026-04-17T12:52:07Z</time></trkpt><trkpt lat="42.719807159128" lon="12.12953890151194"><ele>129.0</ele><time>2026-04-17T12:52:08Z</time></trkpt><trkpt lat="42.719803418261" lon="12.129802995867538"><ele>127.66666666666666</ele><time>2026-04-17T12:52:09Z</time></trkpt><trkpt lat="42.71979445784069" lon="12.130070371332463"><ele>126.33333333333333</ele><time>2026-04-17T12:52:10Z</time></trkpt><trkpt lat="42.71977963291356" lon="12.130322697882026"><ele>125.0</ele><time>2026-04-17T12:52:11Z</time></trkpt><trkpt lat="42.71976440501407" lon="12.130568193526384"><ele>125.0</ele><time>2026-04-17T12:52:12Z</time></trkpt><trkpt lat="42.71975626436039" lon="12.130796943270827"><ele>125.0</ele><time>2026-04-17T12:52:13Z</time></trkpt><trkpt lat="42.71975125435006" lon="12.131007264727318"><ele>125.0</ele><time>2026-04-17T12:52:14Z</time></trkpt><trkpt lat="42.71974995179504" lon="12.131208379579109"><ele>125.0</ele><time>2026-04-17T12:52:15Z</time></trkpt><trkpt lat="42.719748330600225" lon="12.13140419207741"><ele>125.0</ele><time>2026-04-17T12:52:16Z</time></trkpt><trkpt lat="42.719748769008625" lon="12.131594052275307"><ele>125.0</ele><time>2026-04-17T12:52:17Z</time></trkpt><trkpt lat="42.719758271048896" lon="12.131782482470078"><ele>125.0</ele><time>2026-04-17T12:52:18Z</time></trkpt><trkpt lat="42.7197805261016" lon="12.131980489237037"><ele>125.0</ele><time>2026-04-17T12:52:19Z</time></trkpt><trkpt lat="42.719811432495874" lon="12.13216839285573"><ele>125.0</ele><time>2026-04-17T12:52:20Z</time></trkpt><trkpt lat="42.71984831304688" lon="12.13233184792919"><ele>125.0</ele><time>2026-04-17T12:52:21Z</time></trkpt><trkpt lat="42.71989051812368" lon="12.132488267149933"><ele>125.0</ele><time>2026-04-17T12:52:22Z</time></trkpt><trkpt lat="42.719932700025566" lon="12.132634921371054"><ele>125.0</ele><time>2026-04-17T12:52:23Z</time></trkpt><trkpt lat="42.71999618583239" lon="12.132805271202955"><ele>125.0</ele><time>2026-04-17T12:52:24Z</time></trkpt><trkpt lat="42.7200920971158" lon="12.13300359457338"><ele>125.0</ele><time>2026-04-17T12:52:25Z</time></trkpt><trkpt lat="42.720192760774204" lon="12.133185894011515"><ele>123.25</ele><time>2026-04-17T12:52:26Z</time></trkpt><trkpt lat="42.720303665600504" lon="12.133341354571014"><ele>121.5</ele><time>2026-04-17T12:52:27Z</time></trkpt><trkpt lat="42.72039243560444" lon="12.133483996260555"><ele>119.75</ele><time>2026-04-17T12:52:28Z</time></trkpt><trkpt lat="42.7204990529252" lon="12.133573374635708"><ele>118.0</ele><time>2026-04-17T12:52:29Z</time></trkpt><trkpt lat="42.72058620004037" lon="12.13366726875115"><ele>118.0</ele><time>2026-04-17T12:52:30.001Z</time></trkpt><trkpt lat="42.720662404740445" lon="12.133746241900264"><ele>118.00000000000001</ele><time>2026-04-17T12:52:31.001Z</time></trkpt><trkpt lat="42.72073853252549" lon="12.133820147031603"><ele>118.00000000000001</ele><time>2026-04-17T12:52:32.001Z</time></trkpt><trkpt lat="42.720840166588864" lon="12.133910978051714"><ele>118.0</ele><time>2026-04-17T12:52:33.001Z</time></trkpt><trkpt lat="42.720951466876954" lon="12.134021082099338"><ele>118.0</ele><time>2026-04-17T12:52:34.001Z</time></trkpt><trkpt lat="42.72103307708712" lon="12.134087984856937"><ele>117.66666666666667</ele><time>2026-04-17T12:52:35.001Z</time></trkpt><trkpt lat="42.721089454425254" lon="12.134140012586512"><ele>117.33333333333334</ele><time>2026-04-17T12:52:36.001Z</time></trkpt><trkpt lat="42.72117119845469" lon="12.134214350450263"><ele>117.0</ele><time>2026-04-17T12:52:38.001Z</time></trkpt><trkpt lat="42.721228357832516" lon="12.134275098350084"><ele>116.66666666666666</ele><time>2026-04-17T12:52:40.001Z</time></trkpt><trkpt lat="42.72129904909858" lon="12.134388322597143"><ele>116.33333333333333</ele><time>2026-04-17T12:52:42.001Z</time></trkpt><trkpt lat="42.721329922606714" lon="12.134516622083202"><ele>116.0</ele><time>2026-04-17T12:52:43.001Z</time></trkpt><trkpt lat="42.72139299362968" lon="12.134648250943066"><ele>116.0</ele><time>2026-04-17T12:52:44.001Z</time></trkpt><trkpt lat="42.72149880239622" lon="12.134767584907271"><ele>116.0</ele><time>2026-04-17T12:52:45.001Z</time></trkpt><trkpt lat="42.72161977510386" lon="12.134834156269656"><ele>116.0</ele><time>2026-04-17T12:52:46.001Z</time></trkpt><trkpt lat="42.72175295751778" lon="12.134874888449069"><ele>116.0</ele><time>2026-04-17T12:52:47.001Z</time></trkpt><trkpt lat="42.72186498443076" lon="12.134945220799704"><ele>116.5</ele><time>2026-04-17T12:52:48.001Z</time></trkpt><trkpt lat="42.72197028047132" lon="12.135027887759898"><ele>117.0</ele><time>2026-04-17T12:52:49.001Z</time></trkpt><trkpt lat="42.72207336426936" lon="12.135109181415421"><ele>117.5</ele><time>2026-04-17T12:52:50.001Z</time></trkpt><trkpt lat="42.72217322343781" lon="12.135185809430299"><ele>118.0</ele><time>2026-04-17T12:52:51.001Z</time></trkpt><trkpt lat="42.722273401817084" lon="12.135260684626887"><ele>118.0</ele><time>2026-04-17T12:52:52.001Z</time></trkpt><trkpt lat="42.72237616065892" lon="12.135333229567808"><ele>118.00000000000001</ele><time>2026-04-17T12:52:53.001Z</time></trkpt><trkpt lat="42.72248221051856" lon="12.135401039868578"><ele>118.00000000000001</ele><time>2026-04-17T12:52:54.001Z</time></trkpt><trkpt lat="42.722586196463475" lon="12.135461019774635"><ele>118.0</ele><time>2026-04-17T12:52:55.001Z</time></trkpt><trkpt lat="42.72268252280436" lon="12.135507948431702"><ele>118.0</ele><time>2026-04-17T12:52:56.001Z</time></trkpt><trkpt lat="42.722768361065526" lon="12.135546400376573"><ele>117.80000000000001</ele><time>2026-04-17T12:52:57.001Z</time></trkpt><trkpt lat="42.72283917495603" lon="12.135572647506836"><ele>117.60000000000001</ele><time>2026-04-17T12:52:58.001Z</time></trkpt><trkpt lat="42.722945112217104" lon="12.135609885546353"><ele>117.39999999999999</ele><time>2026-04-17T12:53:00.001Z</time></trkpt><trkpt lat="42.72304159302452" lon="12.135653824708559"><ele>117.19999999999999</ele><time>2026-04-17T12:53:02.001Z</time></trkpt><trkpt lat="42.72313875300407" lon="12.135691447930194"><ele>117.0</ele><time>2026-04-17T12:53:04.001Z</time></trkpt><trkpt lat="42.72319994748115" lon="12.135720017213396"><ele>116.5</ele><time>2026-04-17T12:53:05.001Z</time></trkpt><trkpt lat="42.72325674030049" lon="12.135771795668733"><ele>116.0</ele><time>2026-04-17T12:53:06.001Z</time></trkpt><trkpt lat="42.72331364554884" lon="12.135854322163308"><ele>115.5</ele><time>2026-04-17T12:53:07.001Z</time></trkpt><trkpt lat="42.723353578988664" lon="12.13594381730166"><ele>115.0</ele><time>2026-04-17T12:53:08.001Z</time></trkpt><trkpt lat="42.723396044745066" lon="12.136017484241005"><ele>114.5</ele><time>2026-04-17T12:53:09.001Z</time></trkpt><trkpt lat="42.723513704617034" lon="12.13605778189167"><ele>114.0</ele><time>2026-04-17T12:53:11.001Z</time></trkpt><trkpt lat="42.72358759941121" lon="12.13605862688743"><ele>113.57142857142857</ele><time>2026-04-17T12:53:12.001Z</time></trkpt><trkpt lat="42.723639042531104" lon="12.135966477735229"><ele>113.14285714285714</ele><time>2026-04-17T12:53:13.001Z</time></trkpt><trkpt lat="42.72369513594888" lon="12.13589602377176"><ele>112.71428571428571</ele><time>2026-04-17T12:53:14.001Z</time></trkpt><trkpt lat="42.72375430568397" lon="12.13584381601012"><ele>112.28571428571428</ele><time>2026-04-17T12:53:15.001Z</time></trkpt><trkpt lat="42.72381772513356" lon="12.13582180043779"><ele>111.85714285714286</ele><time>2026-04-17T12:53:16.001Z</time></trkpt><trkpt lat="42.72388261356867" lon="12.135816288516763"><ele>111.42857142857142</ele><time>2026-04-17T12:53:17.001Z</time></trkpt><trkpt lat="42.72395278611738" lon="12.1358468579436"><ele>111.0</ele><time>2026-04-17T12:53:18.001Z</time></trkpt><trkpt lat="42.724028428089134" lon="12.135858075143402"><ele>111.0</ele><time>2026-04-17T12:53:19.001Z</time></trkpt><trkpt lat="42.72410944040564" lon="12.1358700887442"><ele>111.0</ele><time>2026-04-17T12:53:20.001Z</time></trkpt><trkpt lat="42.724195678071226" lon="12.135882877216508"><ele>111.0</ele><time>2026-04-17T12:53:21.001Z</time></trkpt><trkpt lat="42.72427788116655" lon="12.13589506738525"><ele>111.0</ele><time>2026-04-17T12:53:22.001Z</time></trkpt><trkpt lat="42.72437041768419" lon="12.135908338611669"><ele>111.0</ele><time>2026-04-17T12:53:23.001Z</time></trkpt><trkpt lat="42.72448240627252" lon="12.135924333137735"><ele>110.66666666666666</ele><time>2026-04-17T12:53:24.001Z</time></trkpt><trkpt lat="42.72462193249617" lon="12.135944260610051"><ele>110.33333333333333</ele><time>2026-04-17T12:53:25.001Z</time></trkpt><trkpt lat="42.72478591412881" lon="12.13596801225165"><ele>110.0</ele><time>2026-04-17T12:53:26.001Z</time></trkpt><trkpt lat="42.724942218496366" lon="12.135990952963681"><ele>110.0</ele><time>2026-04-17T12:53:27.001Z</time></trkpt><trkpt lat="42.72507617520642" lon="12.136010612234893"><ele>110.0</ele><time>2026-04-17T12:53:28.001Z</time></trkpt><trkpt lat="42.725199226529305" lon="12.136028671098803"><ele>110.0</ele><time>2026-04-17T12:53:29.001Z</time></trkpt><trkpt lat="42.72531044507599" lon="12.1360449933383"><ele>110.0</ele><time>2026-04-17T12:53:30.001Z</time></trkpt><trkpt lat="42.72541780076286" lon="12.136060748727493"><ele>110.4</ele><time>2026-04-17T12:53:31.001Z</time></trkpt><trkpt lat="42.72552429449134" lon="12.136076357212334"><ele>110.8</ele><time>2026-04-17T12:53:32.002Z</time></trkpt><trkpt lat="42.725639233972615" lon="12.136092916107874"><ele>111.19999999999999</ele><time>2026-04-17T12:53:33.002Z</time></trkpt><trkpt lat="42.7257469968059" lon="12.136107955889953"><ele>111.6</ele><time>2026-04-17T12:53:34.002Z</time></trkpt><trkpt lat="42.72585711023689" lon="12.13612470961024"><ele>112.0</ele><time>2026-04-17T12:53:35.002Z</time></trkpt><trkpt lat="42.72596988797197" lon="12.136141531239026"><ele>113.0</ele><time>2026-04-17T12:53:36.002Z</time></trkpt><trkpt lat="42.726083063997564" lon="12.136159906173216"><ele>113.99999999999999</ele><time>2026-04-17T12:53:37.002Z</time></trkpt><trkpt lat="42.72619345284721" lon="12.136156584011736"><ele>114.99999999999999</ele><time>2026-04-17T12:53:38.002Z</time></trkpt><trkpt lat="42.72630063871842" lon="12.136194142651016"><ele>116.0</ele><time>2026-04-17T12:53:39.002Z</time></trkpt><trkpt lat="42.7264012646484" lon="12.136242412976653"><ele>117.0</ele><time>2026-04-17T12:53:40.002Z</time></trkpt><trkpt lat="42.726497365930534" lon="12.136300679632765"><ele>117.0</ele><time>2026-04-17T12:53:41.002Z</time></trkpt><trkpt lat="42.726585795747134" lon="12.136367845108726"><ele>116.99999999999999</ele><time>2026-04-17T12:53:41.999Z</time></trkpt><trkpt lat="42.726670999604984" lon="12.136449285390306"><ele>116.99999999999999</ele><time>2026-04-17T12:53:42.999Z</time></trkpt><trkpt lat="42.72674763917505" lon="12.13653747255055"><ele>117.0</ele><time>2026-04-17T12:53:43.999Z</time></trkpt><trkpt lat="42.726829081447455" lon="12.136607973848326"><ele>117.0</ele><time>2026-04-17T12:53:44.999Z</time></trkpt><trkpt lat="42.726927705804776" lon="12.136669117761617"><ele>117.5</ele><time>2026-04-17T12:53:45.999Z</time></trkpt><trkpt lat="42.727031583109614" lon="12.136730001538776"><ele>118.0</ele><time>2026-04-17T12:53:46.999Z</time></trkpt><trkpt lat="42.72713605737663" lon="12.136796648967572"><ele>118.5</ele><time>2026-04-17T12:53:47.999Z</time></trkpt><trkpt lat="42.727256247998575" lon="12.136871062290727"><ele>119.0</ele><time>2026-04-17T12:53:48.999Z</time></trkpt><trkpt lat="42.727403186955875" lon="12.136965932614954"><ele>119.0</ele><time>2026-04-17T12:53:49.999Z</time></trkpt><trkpt lat="42.727571191336416" lon="12.137081831471361"><ele>119.0</ele><time>2026-04-17T12:53:50.999Z</time></trkpt><trkpt lat="42.72772626062489" lon="12.13719349466026"><ele>119.0</ele><time>2026-04-17T12:53:51.999Z</time></trkpt><trkpt lat="42.72786947277678" lon="12.137294645105563"><ele>119.66666666666666</ele><time>2026-04-17T12:53:52.999Z</time></trkpt><trkpt lat="42.72800815312657" lon="12.137391586119783"><ele>120.33333333333334</ele><time>2026-04-17T12:53:53.999Z</time></trkpt><trkpt lat="42.728145561757316" lon="12.13748701160331"><ele>121.0</ele><time>2026-04-17T12:53:54.999Z</time></trkpt><trkpt lat="42.72828505146609" lon="12.137584055825554"><ele>121.0</ele><time>2026-04-17T12:53:55.999Z</time></trkpt><trkpt lat="42.728416623987684" lon="12.137685820721359"><ele>121.0</ele><time>2026-04-17T12:53:56.999Z</time></trkpt><trkpt lat="42.72853576192652" lon="12.137776554745223"><ele>121.0</ele><time>2026-04-17T12:53:57.999Z</time></trkpt><trkpt lat="42.72865800592987" lon="12.137862783957429"><ele>121.0</ele><time>2026-04-17T12:53:58.999Z</time></trkpt><trkpt lat="42.72878311831161" lon="12.137951761760073"><ele>121.75</ele><time>2026-04-17T12:53:59.999Z</time></trkpt><trkpt lat="42.72891104591037" lon="12.138047368085669"><ele>122.5</ele><time>2026-04-17T12:54:00.999Z</time></trkpt><trkpt lat="42.729018448146505" lon="12.138132930218998"><ele>123.25</ele><time>2026-04-17T12:54:01.999Z</time></trkpt><trkpt lat="42.729113764743616" lon="12.138212118413312"><ele>124.0</ele><time>2026-04-17T12:54:02.999Z</time></trkpt><trkpt lat="42.72919752512553" lon="12.138280902857424"><ele>124.33333333333334</ele><time>2026-04-17T12:54:03.999Z</time></trkpt><trkpt lat="42.7292838484177" lon="12.138350717932228"><ele>124.66666666666667</ele><time>2026-04-17T12:54:05Z</time></trkpt><trkpt lat="42.72935302752473" lon="12.138423626487045"><ele>125.0</ele><time>2026-04-17T12:54:06Z</time></trkpt><trkpt lat="42.72939536263493" lon="12.138506404407057"><ele>125.33333333333334</ele><time>2026-04-17T12:54:07Z</time></trkpt><trkpt lat="42.7294098069305" lon="12.138603872877612"><ele>125.66666666666667</ele><time>2026-04-17T12:54:08Z</time></trkpt><trkpt lat="42.729394789281535" lon="12.138703002040147"><ele>126.0</ele><time>2026-04-17T12:54:09Z</time></trkpt><trkpt lat="42.729348202933124" lon="12.138811727208244"><ele>126.0</ele><time>2026-04-17T12:54:10Z</time></trkpt><trkpt lat="42.72932959384637" lon="12.138929709219083"><ele>126.0</ele><time>2026-04-17T12:54:11Z</time></trkpt><trkpt lat="42.72922659826185" lon="12.139000376794561"><ele>126.0</ele><time>2026-04-17T12:54:12Z</time></trkpt><trkpt lat="42.72916694800739" lon="12.139087477625935"><ele>126.0</ele><time>2026-04-17T12:54:13Z</time></trkpt><trkpt lat="42.72910229134205" lon="12.13918013279902"><ele>126.0</ele><time>2026-04-17T12:54:14Z</time></trkpt><trkpt lat="42.729048411303566" lon="12.139271004474242"><ele>126.0</ele><time>2026-04-17T12:54:15Z</time></trkpt><trkpt lat="42.72900524157003" lon="12.139366462115197"><ele>126.0</ele><time>2026-04-17T12:54:16Z</time></trkpt><trkpt lat="42.72896479024059" lon="12.139481723855896"><ele>126.0</ele><time>2026-04-17T12:54:17Z</time></trkpt><trkpt lat="42.72892432307332" lon="12.139620784377373"><ele>126.0</ele><time>2026-04-17T12:54:18Z</time></trkpt><trkpt lat="42.72888388533507" lon="12.139819606110382"><ele>126.0</ele><time>2026-04-17T12:54:19Z</time></trkpt><trkpt lat="42.72882402814361" lon="12.140051223676751"><ele>126.0</ele><time>2026-04-17T12:54:20Z</time></trkpt><trkpt lat="42.728760341193784" lon="12.140260299709377"><ele>126.0</ele><time>2026-04-17T12:54:21Z</time></trkpt><trkpt lat="42.72871234263761" lon="12.140448670581016"><ele>126.0</ele><time>2026-04-17T12:54:22Z</time></trkpt><trkpt lat="42.728672649607205" lon="12.140629956297294"><ele>126.25</ele><time>2026-04-17T12:54:23Z</time></trkpt><trkpt lat="42.72862694681923" lon="12.140796830665382"><ele>126.5</ele><time>2026-04-17T12:54:24Z</time></trkpt><trkpt lat="42.72856298537748" lon="12.140951404631299"><ele>126.75</ele><time>2026-04-17T12:54:25Z</time></trkpt><trkpt lat="42.728472479687916" lon="12.141114783811624"><ele>127.0</ele><time>2026-04-17T12:54:26Z</time></trkpt><trkpt lat="42.72835792795224" lon="12.141296310067698"><ele>126.0</ele><time>2026-04-17T12:54:27Z</time></trkpt><trkpt lat="42.728228147380214" lon="12.141512355540334"><ele>125.0</ele><time>2026-04-17T12:54:28Z</time></trkpt><trkpt lat="42.7280939644457" lon="12.141742277400441"><ele>124.0</ele><time>2026-04-17T12:54:29Z</time></trkpt><trkpt lat="42.72795714435406" lon="12.141979371123641"><ele>124.0</ele><time>2026-04-17T12:54:30Z</time></trkpt><trkpt lat="42.72782749004338" lon="12.1421976089772"><ele>124.0</ele><time>2026-04-17T12:54:31Z</time></trkpt><trkpt lat="42.72770607440374" lon="12.142400064728442"><ele>124.0</ele><time>2026-04-17T12:54:32Z</time></trkpt><trkpt lat="42.72759049739159" lon="12.142603602963966"><ele>123.33333333333334</ele><time>2026-04-17T12:54:33Z</time></trkpt><trkpt lat="42.72748303677711" lon="12.1428201497667"><ele>122.66666666666666</ele><time>2026-04-17T12:54:34Z</time></trkpt><trkpt lat="42.72738526818935" lon="12.14304076228098"><ele>122.0</ele><time>2026-04-17T12:54:35Z</time></trkpt><trkpt lat="42.727290360720076" lon="12.143256684152671"><ele>122.0</ele><time>2026-04-17T12:54:36Z</time></trkpt><trkpt lat="42.727193666728624" lon="12.143475598385344"><ele>122.0</ele><time>2026-04-17T12:54:37Z</time></trkpt><trkpt lat="42.72708787261203" lon="12.143713106906912"><ele>122.0</ele><time>2026-04-17T12:54:38Z</time></trkpt><trkpt lat="42.72697413967923" lon="12.143973974396458"><ele>121.5</ele><time>2026-04-17T12:54:39Z</time></trkpt><trkpt lat="42.72684603408371" lon="12.144255907864768"><ele>121.0</ele><time>2026-04-17T12:54:40Z</time></trkpt><trkpt lat="42.72671450665347" lon="12.144554973912228"><ele>121.0</ele><time>2026-04-17T12:54:41Z</time></trkpt><trkpt lat="42.72657106646366" lon="12.144877649411093"><ele>121.0</ele><time>2026-04-17T12:54:42Z</time></trkpt><trkpt lat="42.72642034407727" lon="12.145216311215819"><ele>121.5</ele><time>2026-04-17T12:54:43Z</time></trkpt><trkpt lat="42.72626572450401" lon="12.145572414371905"><ele>122.0</ele><time>2026-04-17T12:54:44Z</time></trkpt><trkpt lat="42.72610145213505" lon="12.145936991963797"><ele>121.0</ele><time>2026-04-17T12:54:45.001Z</time></trkpt><trkpt lat="42.72595198455424" lon="12.146267790623769"><ele>120.0</ele><time>2026-04-17T12:54:46.001Z</time></trkpt><trkpt lat="42.72581312271861" lon="12.146581047722073"><ele>120.0</ele><time>2026-04-17T12:54:47.001Z</time></trkpt><trkpt lat="42.72568645418878" lon="12.14687705795451"><ele>120.0</ele><time>2026-04-17T12:54:48.001Z</time></trkpt><trkpt lat="42.72556114973544" lon="12.147163311726144"><ele>120.33333333333334</ele><time>2026-04-17T12:54:49.001Z</time></trkpt><trkpt lat="42.72544270195243" lon="12.147430124037953"><ele>120.66666666666667</ele><time>2026-04-17T12:54:50.001Z</time></trkpt><trkpt lat="42.72533135099085" lon="12.147681989890415"><ele>121.0</ele><time>2026-04-17T12:54:51.001Z</time></trkpt><trkpt lat="42.72522218338341" lon="12.147930986170282"><ele>120.66666666666667</ele><time>2026-04-17T12:54:52.001Z</time></trkpt><trkpt lat="42.72510955270672" lon="12.148187263146577"><ele>120.33333333333334</ele><time>2026-04-17T12:54:53.001Z</time></trkpt><trkpt lat="42.72499340177344" lon="12.148448655617408"><ele>120.0</ele><time>2026-04-17T12:54:54.001Z</time></trkpt><trkpt lat="42.72487483579744" lon="12.148714702235878"><ele>120.0</ele><time>2026-04-17T12:54:55.001Z</time></trkpt><trkpt lat="42.72475154960179" lon="12.148989405294763"><ele>120.0</ele><time>2026-04-17T12:54:56.001Z</time></trkpt><trkpt lat="42.72462475240833" lon="12.149265538951578"><ele>120.0</ele><time>2026-04-17T12:54:57.001Z</time></trkpt><trkpt lat="42.72448620998808" lon="12.149541187961178"><ele>120.0</ele><time>2026-04-17T12:54:58.001Z</time></trkpt><trkpt lat="42.724324754774656" lon="12.149831781180444"><ele>121.5</ele><time>2026-04-17T12:54:59.001Z</time></trkpt><trkpt lat="42.72415723215344" lon="12.150110448713141"><ele>123.0</ele><time>2026-04-17T12:55:00.001Z</time></trkpt><trkpt lat="42.72400259131143" lon="12.150361170834598"><ele>123.0</ele><time>2026-04-17T12:55:01.001Z</time></trkpt><trkpt lat="42.723856596527845" lon="12.150600913382442"><ele>123.0</ele><time>2026-04-17T12:55:02.001Z</time></trkpt><trkpt lat="42.72370795028666" lon="12.150849936785132"><ele>123.0</ele><time>2026-04-17T12:55:03.001Z</time></trkpt><trkpt lat="42.723551024482276" lon="12.151108952282138"><ele>123.0</ele><time>2026-04-17T12:55:04.001Z</time></trkpt><trkpt lat="42.72339204930411" lon="12.15137668266549"><ele>124.5</ele><time>2026-04-17T12:55:05.001Z</time></trkpt><trkpt lat="42.72324541407036" lon="12.151631932219347"><ele>126.0</ele><time>2026-04-17T12:55:06.001Z</time></trkpt><trkpt lat="42.723113475631784" lon="12.151862839350864"><ele>126.0</ele><time>2026-04-17T12:55:07.001Z</time></trkpt><trkpt lat="42.7229800684701" lon="12.152087855028519"><ele>126.0</ele><time>2026-04-17T12:55:08.001Z</time></trkpt><trkpt lat="42.722840811262" lon="12.152323233730028"><ele>126.0</ele><time>2026-04-17T12:55:09.001Z</time></trkpt><trkpt lat="42.72269911720209" lon="12.152562710184291"><ele>125.33333333333334</ele><time>2026-04-17T12:55:10.001Z</time></trkpt><trkpt lat="42.72256989510195" lon="12.152785776483716"><ele>124.66666666666667</ele><time>2026-04-17T12:55:11.001Z</time></trkpt><trkpt lat="42.7224527325282" lon="12.152990527398625"><ele>124.0</ele><time>2026-04-17T12:55:12.001Z</time></trkpt><trkpt lat="42.72233966161312" lon="12.153181365371792"><ele>124.25</ele><time>2026-04-17T12:55:13.001Z</time></trkpt><trkpt lat="42.72223929745326" lon="12.15334363887245"><ele>124.5</ele><time>2026-04-17T12:55:14.001Z</time></trkpt><trkpt lat="42.72215767172573" lon="12.153480021901414"><ele>124.75</ele><time>2026-04-17T12:55:15.001Z</time></trkpt><trkpt lat="42.72208610743585" lon="12.153588255965891"><ele>125.0</ele><time>2026-04-17T12:55:16.001Z</time></trkpt><trkpt lat="42.722017610691594" lon="12.15369783099467"><ele>125.0</ele><time>2026-04-17T12:55:17.001Z</time></trkpt><trkpt lat="42.72193357467528" lon="12.15378283631267"><ele>125.0</ele><time>2026-04-17T12:55:18.001Z</time></trkpt><trkpt lat="42.72182980261971" lon="12.153845503945258"><ele>125.0</ele><time>2026-04-17T12:55:19.001Z</time></trkpt><trkpt lat="42.721705720445506" lon="12.1538232129945"><ele>125.0</ele><time>2026-04-17T12:55:20.001Z</time></trkpt><trkpt lat="42.72157019970468" lon="12.153782533575953"><ele>125.0</ele><time>2026-04-17T12:55:21.001Z</time></trkpt><trkpt lat="42.72142117775937" lon="12.153762316741656"><ele>125.0</ele><time>2026-04-17T12:55:22.001Z</time></trkpt><trkpt lat="42.721257515916065" lon="12.153723409473631"><ele>125.0</ele><time>2026-04-17T12:55:23.001Z</time></trkpt><trkpt lat="42.72108852371169" lon="12.153727804152574"><ele>124.5</ele><time>2026-04-17T12:55:24.001Z</time></trkpt><trkpt lat="42.72094783855663" lon="12.153750307515686"><ele>124.0</ele><time>2026-04-17T12:55:25.001Z</time></trkpt><trkpt lat="42.7208307975779" lon="12.153800268346012"><ele>123.5</ele><time>2026-04-17T12:55:26.001Z</time></trkpt><trkpt lat="42.72072661206653" lon="12.153886844432849"><ele>123.0</ele><time>2026-04-17T12:55:27.001Z</time></trkpt><trkpt lat="42.720614404287346" lon="12.154035676569283"><ele>122.0</ele><time>2026-04-17T12:55:28.001Z</time></trkpt><trkpt lat="42.720490456911705" lon="12.154237374502342"><ele>121.0</ele><time>2026-04-17T12:55:29.001Z</time></trkpt><trkpt lat="42.720340009934326" lon="12.154467575273337"><ele>120.0</ele><time>2026-04-17T12:55:30.001Z</time></trkpt><trkpt lat="42.720172629187985" lon="12.154672505667193"><ele>121.66666666666666</ele><time>2026-04-17T12:55:31.001Z</time></trkpt><trkpt lat="42.72003161818897" lon="12.154876769881264"><ele>123.33333333333333</ele><time>2026-04-17T12:55:32.001Z</time></trkpt><trkpt lat="42.71988763816332" lon="12.155080387016982"><ele>125.0</ele><time>2026-04-17T12:55:33.001Z</time></trkpt><trkpt lat="42.71974468675666" lon="12.155325887084349"><ele>125.0</ele><time>2026-04-17T12:55:34.001Z</time></trkpt><trkpt lat="42.71957788202329" lon="12.155605329604832"><ele>125.0</ele><time>2026-04-17T12:55:35.001Z</time></trkpt><trkpt lat="42.719407224782366" lon="12.155930539001512"><ele>123.5</ele><time>2026-04-17T12:55:36.001Z</time></trkpt><trkpt lat="42.71921656915174" lon="12.156265862418598"><ele>122.0</ele><time>2026-04-17T12:55:37.001Z</time></trkpt><trkpt lat="42.71905305479282" lon="12.156571959213053"><ele>122.0</ele><time>2026-04-17T12:55:38.002Z</time></trkpt><trkpt lat="42.7189069235193" lon="12.156848094246985"><ele>122.0</ele><time>2026-04-17T12:55:39.002Z</time></trkpt><trkpt lat="42.71876959445046" lon="12.157106464573488"><ele>122.0</ele><time>2026-04-17T12:55:40.002Z</time></trkpt><trkpt lat="42.71863488519316" lon="12.157355746204441"><ele>122.0</ele><time>2026-04-17T12:55:41.002Z</time></trkpt><trkpt lat="42.718498495135684" lon="12.157608137497007"><ele>121.5</ele><time>2026-04-17T12:55:42.002Z</time></trkpt><trkpt lat="42.718360729079606" lon="12.157869564777643"><ele>121.0</ele><time>2026-04-17T12:55:43.002Z</time></trkpt><trkpt lat="42.718233118478075" lon="12.158149178846976"><ele>122.66666666666667</ele><time>2026-04-17T12:55:44.002Z</time></trkpt><trkpt lat="42.71809574948982" lon="12.158397294118343"><ele>124.33333333333334</ele><time>2026-04-17T12:55:45.002Z</time></trkpt><trkpt lat="42.71797023374894" lon="12.158625051985808"><ele>126.0</ele><time>2026-04-17T12:55:46.002Z</time></trkpt><trkpt lat="42.71784829841035" lon="12.15885224507159"><ele>125.0</ele><time>2026-04-17T12:55:47.002Z</time></trkpt><trkpt lat="42.71772322595766" lon="12.159077195688125"><ele>124.0</ele><time>2026-04-17T12:55:47.998Z</time></trkpt><trkpt lat="42.71759281887834" lon="12.15930643842895"><ele>123.0</ele><time>2026-04-17T12:55:48.998Z</time></trkpt><trkpt lat="42.717479305528016" lon="12.159533294891238"><ele>123.0</ele><time>2026-04-17T12:55:49.998Z</time></trkpt><trkpt lat="42.717357418594936" lon="12.15974357541835"><ele>123.0</ele><time>2026-04-17T12:55:50.998Z</time></trkpt><trkpt lat="42.71723625631869" lon="12.159961784750735"><ele>123.0</ele><time>2026-04-17T12:55:51.998Z</time></trkpt><trkpt lat="42.717125779248136" lon="12.160170999034907"><ele>124.0</ele><time>2026-04-17T12:55:52.998Z</time></trkpt><trkpt lat="42.7170174236998" lon="12.160389103395717"><ele>125.0</ele><time>2026-04-17T12:55:53.998Z</time></trkpt><trkpt lat="42.716901721820165" lon="12.1606157406468"><ele>126.0</ele><time>2026-04-17T12:55:54.998Z</time></trkpt><trkpt lat="42.71677626747085" lon="12.160844711099067"><ele>126.0</ele><time>2026-04-17T12:55:55.998Z</time></trkpt><trkpt lat="42.716667060869874" lon="12.161041206732108"><ele>126.0</ele><time>2026-04-17T12:55:56.999Z</time></trkpt><trkpt lat="42.716567739401064" lon="12.161222885492588"><ele>126.0</ele><time>2026-04-17T12:55:57.999Z</time></trkpt><trkpt lat="42.716469020604706" lon="12.16139154547364"><ele>126.0</ele><time>2026-04-17T12:55:58.999Z</time></trkpt><trkpt lat="42.716345970134164" lon="12.161542431519873"><ele>126.0</ele><time>2026-04-17T12:55:59.999Z</time></trkpt><trkpt lat="42.71617269147315" lon="12.161641384792189"><ele>126.0</ele><time>2026-04-17T12:56:00.999Z</time></trkpt><trkpt lat="42.716031016356766" lon="12.161755874133855"><ele>126.0</ele><time>2026-04-17T12:56:01.999Z</time></trkpt><trkpt lat="42.715910234731176" lon="12.161845404695345"><ele>126.0</ele><time>2026-04-17T12:56:02.999Z</time></trkpt><trkpt lat="42.71580761946993" lon="12.161984441766496"><ele>126.0</ele><time>2026-04-17T12:56:03.999Z</time></trkpt><trkpt lat="42.71570026031533" lon="12.162167371512295"><ele>130.66666666666666</ele><time>2026-04-17T12:56:04.999Z</time></trkpt><trkpt lat="42.71558048457889" lon="12.162378553463537"><ele>135.33333333333331</ele><time>2026-04-17T12:56:05.999Z</time></trkpt><trkpt lat="42.715458194931294" lon="12.162592287891924"><ele>140.0</ele><time>2026-04-17T12:56:06.999Z</time></trkpt><trkpt lat="42.71535522640907" lon="12.16278778140333"><ele>140.0</ele><time>2026-04-17T12:56:07.999Z</time></trkpt><trkpt lat="42.71526453482546" lon="12.16299050762319"><ele>140.0</ele><time>2026-04-17T12:56:08.999Z</time></trkpt><trkpt lat="42.71518303045248" lon="12.163223630403012"><ele>140.0</ele><time>2026-04-17T12:56:09.999Z</time></trkpt><trkpt lat="42.71512266019203" lon="12.163455695620316"><ele>138.33333333333331</ele><time>2026-04-17T12:56:10.999Z</time></trkpt><trkpt lat="42.71507790167887" lon="12.163660347051335"><ele>136.66666666666666</ele><time>2026-04-17T12:56:11.999Z</time></trkpt><trkpt lat="42.71503766956871" lon="12.163863920260031"><ele>135.0</ele><time>2026-04-17T12:56:12.999Z</time></trkpt><trkpt lat="42.715012122085874" lon="12.16409913400067"><ele>135.0</ele><time>2026-04-17T12:56:13.999Z</time></trkpt><trkpt lat="42.71500980404502" lon="12.164384713290836"><ele>135.0</ele><time>2026-04-17T12:56:14.999Z</time></trkpt><trkpt lat="42.715010160152616" lon="12.164690378724243"><ele>135.0</ele><time>2026-04-17T12:56:15.999Z</time></trkpt><trkpt lat="42.714984127164385" lon="12.164961517160306"><ele>135.0</ele><time>2026-04-17T12:56:16.999Z</time></trkpt><trkpt lat="42.71497160714321" lon="12.16520492270959"><ele>135.0</ele><time>2026-04-17T12:56:17.999Z</time></trkpt><trkpt lat="42.71496584678085" lon="12.16544282085319"><ele>135.0</ele><time>2026-04-17T12:56:19Z</time></trkpt><trkpt lat="42.71497093487326" lon="12.165661047087532"><ele>134.75</ele><time>2026-04-17T12:56:20Z</time></trkpt><trkpt lat="42.71497860761319" lon="12.165862331851802"><ele>134.5</ele><time>2026-04-17T12:56:21Z</time></trkpt><trkpt lat="42.71499342697585" lon="12.166053955774979"><ele>134.25</ele><time>2026-04-17T12:56:22Z</time></trkpt><trkpt lat="42.71499702710095" lon="12.166233079377033"><ele>134.0</ele><time>2026-04-17T12:56:23Z</time></trkpt><trkpt lat="42.71500356874889" lon="12.166388374911104"><ele>134.0</ele><time>2026-04-17T12:56:24Z</time></trkpt><trkpt lat="42.71498568401181" lon="12.16651659639351"><ele>134.0</ele><time>2026-04-17T12:56:25Z</time></trkpt><trkpt lat="42.714977687493935" lon="12.166627712521183"><ele>134.0</ele><time>2026-04-17T12:56:26Z</time></trkpt><trkpt lat="42.71491510807355" lon="12.166729366688395"><ele>134.0</ele><time>2026-04-17T12:56:27Z</time></trkpt><trkpt lat="42.71482090048801" lon="12.166806288727717"><ele>134.0</ele><time>2026-04-17T12:56:28Z</time></trkpt><trkpt lat="42.71470063778539" lon="12.166814453450959"><ele>134.2</ele><time>2026-04-17T12:56:29Z</time></trkpt><trkpt lat="42.7145964814268" lon="12.166840485472447"><ele>134.4</ele><time>2026-04-17T12:56:30Z</time></trkpt><trkpt lat="42.714504188519065" lon="12.166795741503295"><ele>134.6</ele><time>2026-04-17T12:56:31Z</time></trkpt><trkpt lat="42.71442763874382" lon="12.16671565504498"><ele>134.8</ele><time>2026-04-17T12:56:32Z</time></trkpt><trkpt lat="42.714367517966835" lon="12.166581843004357"><ele>135.0</ele><time>2026-04-17T12:56:33Z</time></trkpt><trkpt lat="42.71428339727499" lon="12.16641448613515"><ele>134.0</ele><time>2026-04-17T12:56:34Z</time></trkpt><trkpt lat="42.714209200442596" lon="12.166183612174255"><ele>133.0</ele><time>2026-04-17T12:56:35Z</time></trkpt><trkpt lat="42.71411345778916" lon="12.165940520812033"><ele>132.0</ele><time>2026-04-17T12:56:36Z</time></trkpt><trkpt lat="42.713988780854805" lon="12.165689546867082"><ele>130.0</ele><time>2026-04-17T12:56:37Z</time></trkpt><trkpt lat="42.713851906891236" lon="12.165487366032012"><ele>128.0</ele><time>2026-04-17T12:56:38Z</time></trkpt><trkpt lat="42.713729036574236" lon="12.165322294871848"><ele>126.0</ele><time>2026-04-17T12:56:39Z</time></trkpt><trkpt lat="42.713627839568524" lon="12.165165669504633"><ele>128.75</ele><time>2026-04-17T12:56:40Z</time></trkpt><trkpt lat="42.71356243137501" lon="12.164981936542654"><ele>131.5</ele><time>2026-04-17T12:56:41Z</time></trkpt><trkpt lat="42.7135284706392" lon="12.164775005291991"><ele>134.25</ele><time>2026-04-17T12:56:42Z</time></trkpt><trkpt lat="42.71349590052597" lon="12.164615984475452"><ele>137.0</ele><time>2026-04-17T12:56:43Z</time></trkpt><trkpt lat="42.71340725418245" lon="12.164482416853005"><ele>137.0</ele><time>2026-04-17T12:56:44Z</time></trkpt><trkpt lat="42.713279190494355" lon="12.16435393773744"><ele>137.0</ele><time>2026-04-17T12:56:45Z</time></trkpt><trkpt lat="42.713128983733476" lon="12.16421012991681"><ele>137.0</ele><time>2026-04-17T12:56:46Z</time></trkpt><trkpt lat="42.71297445790414" lon="12.164081539679149"><ele>136.5</ele><time>2026-04-17T12:56:47Z</time></trkpt><trkpt lat="42.71285516051432" lon="12.163965694691862"><ele>136.0</ele><time>2026-04-17T12:56:48Z</time></trkpt><trkpt lat="42.71274530229345" lon="12.163877665461023"><ele>135.5</ele><time>2026-04-17T12:56:49Z</time></trkpt><trkpt lat="42.71265147447336" lon="12.163819720188801"><ele>135.0</ele><time>2026-04-17T12:56:50Z</time></trkpt><trkpt lat="42.71254845876894" lon="12.163770726351164"><ele>135.0</ele><time>2026-04-17T12:56:51Z</time></trkpt><trkpt lat="42.71242328403568" lon="12.163746417447308"><ele>135.0</ele><time>2026-04-17T12:56:52Z</time></trkpt><trkpt lat="42.71231607670219" lon="12.16376534257761"><ele>135.0</ele><time>2026-04-17T12:56:53.001Z</time></trkpt><trkpt lat="42.71222923941679" lon="12.163827839965494"><ele>135.0</ele><time>2026-04-17T12:56:54.001Z</time></trkpt><trkpt lat="42.71218558646361" lon="12.163914895869313"><ele>135.0</ele><time>2026-04-17T12:56:55.001Z</time></trkpt><trkpt lat="42.71216716101602" lon="12.164039166603672"><ele>140.0</ele><time>2026-04-17T12:56:56.001Z</time></trkpt><trkpt lat="42.71219564656988" lon="12.164195239529874"><ele>145.0</ele><time>2026-04-17T12:56:57.001Z</time></trkpt><trkpt lat="42.71228781724886" lon="12.164381005696137"><ele>150.0</ele><time>2026-04-17T12:56:58.001Z</time></trkpt><trkpt lat="42.71235414841352" lon="12.164590848119156"><ele>150.0</ele><time>2026-04-17T12:56:59.001Z</time></trkpt><trkpt lat="42.71238166571669" lon="12.16482455731429"><ele>150.0</ele><time>2026-04-17T12:57:00.001Z</time></trkpt><trkpt lat="42.712390998970534" lon="12.165033292234593"><ele>150.0</ele><time>2026-04-17T12:57:01.001Z</time></trkpt><trkpt lat="42.7123770729022" lon="12.165232397804166"><ele>151.2</ele><time>2026-04-17T12:57:02.001Z</time></trkpt><trkpt lat="42.712364996734166" lon="12.165411348526824"><ele>152.4</ele><time>2026-04-17T12:57:03.001Z</time></trkpt><trkpt lat="42.712292855161145" lon="12.16554434431871"><ele>153.6</ele><time>2026-04-17T12:57:04.001Z</time></trkpt><trkpt lat="42.71224188976521" lon="12.165634634265812"><ele>154.8</ele><time>2026-04-17T12:57:05.001Z</time></trkpt><trkpt lat="42.71216988715179" lon="12.165704137729971"><ele>156.0</ele><time>2026-04-17T12:57:06.001Z</time></trkpt><trkpt lat="42.71209413718057" lon="12.165719102228424"><ele>156.0</ele><time>2026-04-17T12:57:07.001Z</time></trkpt><trkpt lat="42.71201537281182" lon="12.165688381906916"><ele>156.0</ele><time>2026-04-17T12:57:08.001Z</time></trkpt><trkpt lat="42.711949347264664" lon="12.16560352788215"><ele>156.0</ele><time>2026-04-17T12:57:09.001Z</time></trkpt><trkpt lat="42.71187775763195" lon="12.165457301385553"><ele>156.0</ele><time>2026-04-17T12:57:10.001Z</time></trkpt><trkpt lat="42.71177386099285" lon="12.165284351762063"><ele>156.5</ele><time>2026-04-17T12:57:11.001Z</time></trkpt><trkpt lat="42.711683669905966" lon="12.165142658336416"><ele>157.0</ele><time>2026-04-17T12:57:12.001Z</time></trkpt><trkpt lat="42.71158963418721" lon="12.16508294339939"><ele>157.5</ele><time>2026-04-17T12:57:13.001Z</time></trkpt><trkpt lat="42.71147958819738" lon="12.165053661503745"><ele>158.0</ele><time>2026-04-17T12:57:14.001Z</time></trkpt><trkpt lat="42.71133601097994" lon="12.16501923676901"><ele>158.0</ele><time>2026-04-17T12:57:15.001Z</time></trkpt><trkpt lat="42.71119542573723" lon="12.164987654430927"><ele>158.0</ele><time>2026-04-17T12:57:16.001Z</time></trkpt><trkpt lat="42.71105608344567" lon="12.164903559174006"><ele>158.0</ele><time>2026-04-17T12:57:17.001Z</time></trkpt><trkpt lat="42.710934757981086" lon="12.16477372959115"><ele>158.0</ele><time>2026-04-17T12:57:18.001Z</time></trkpt><trkpt lat="42.7108005596156" lon="12.164598177507163"><ele>158.33333333333331</ele><time>2026-04-17T12:57:19.001Z</time></trkpt><trkpt lat="42.71065120714311" lon="12.16440137924753"><ele>158.66666666666666</ele><time>2026-04-17T12:57:20.001Z</time></trkpt><trkpt lat="42.710524603860826" lon="12.16424648671839"><ele>159.0</ele><time>2026-04-17T12:57:21.001Z</time></trkpt><trkpt lat="42.710428918032406" lon="12.164121888825326"><ele>156.5</ele><time>2026-04-17T12:57:22.001Z</time></trkpt><trkpt lat="42.710337476335894" lon="12.16400832075739"><ele>154.0</ele><time>2026-04-17T12:57:23.001Z</time></trkpt><trkpt lat="42.71022848160973" lon="12.163903256506803"><ele>151.5</ele><time>2026-04-17T12:57:24.001Z</time></trkpt><trkpt lat="42.71009268260856" lon="12.163822848724205"><ele>149.0</ele><time>2026-04-17T12:57:25.001Z</time></trkpt><trkpt lat="42.70996605250701" lon="12.163766410739186"><ele>149.0</ele><time>2026-04-17T12:57:26.001Z</time></trkpt><trkpt lat="42.709860621100574" lon="12.163751692382112"><ele>149.0</ele><time>2026-04-17T12:57:27.001Z</time></trkpt><trkpt lat="42.70977507298988" lon="12.163771986870666"><ele>149.0</ele><time>2026-04-17T12:57:28.001Z</time></trkpt><trkpt lat="42.70971822421753" lon="12.16383466871431"><ele>149.0</ele><time>2026-04-17T12:57:29.001Z</time></trkpt><trkpt lat="42.709685164312916" lon="12.163960588644684"><ele>149.0</ele><time>2026-04-17T12:57:30.001Z</time></trkpt><trkpt lat="42.70965878921357" lon="12.164143885460094"><ele>157.33333333333331</ele><time>2026-04-17T12:57:31.001Z</time></trkpt><trkpt lat="42.70964806602947" lon="12.164380256812649"><ele>165.66666666666666</ele><time>2026-04-17T12:57:32.001Z</time></trkpt><trkpt lat="42.70959438290709" lon="12.164652281925655"><ele>174.0</ele><time>2026-04-17T12:57:33.001Z</time></trkpt><trkpt lat="42.70954544804102" lon="12.164959152584693"><ele>178.0</ele><time>2026-04-17T12:57:34.001Z</time></trkpt><trkpt lat="42.70950484785047" lon="12.165213756174325"><ele>182.0</ele><time>2026-04-17T12:57:35.002Z</time></trkpt><trkpt lat="42.70946997346612" lon="12.165433008469007"><ele>186.0</ele><time>2026-04-17T12:57:36.002Z</time></trkpt><trkpt lat="42.70944401912247" lon="12.16560321571942"><ele>186.8</ele><time>2026-04-17T12:57:37.002Z</time></trkpt><trkpt lat="42.709430342803955" lon="12.165744186182843"><ele>187.60000000000002</ele><time>2026-04-17T12:57:38.002Z</time></trkpt><trkpt lat="42.70946515213995" lon="12.165872348154819"><ele>188.4</ele><time>2026-04-17T12:57:39.002Z</time></trkpt><trkpt lat="42.70951419279436" lon="12.166010020751836"><ele>189.2</ele><time>2026-04-17T12:57:40.002Z</time></trkpt><trkpt lat="42.70956277594719" lon="12.166169839112644"><ele>190.0</ele><time>2026-04-17T12:57:41.002Z</time></trkpt><trkpt lat="42.709572691193664" lon="12.166292106241027"><ele>190.0</ele><time>2026-04-17T12:57:42.002Z</time></trkpt><trkpt lat="42.70954409386673" lon="12.166382884101411"><ele>190.0</ele><time>2026-04-17T12:57:43.002Z</time></trkpt><trkpt lat="42.709488844988954" lon="12.166460376222656"><ele>190.0</ele><time>2026-04-17T12:57:44.002Z</time></trkpt><trkpt lat="42.70936485707387" lon="12.16647786837895"><ele>190.0</ele><time>2026-04-17T12:57:45.002Z</time></trkpt><trkpt lat="42.709230118036366" lon="12.166575271926876"><ele>190.0</ele><time>2026-04-17T12:57:46.002Z</time></trkpt><trkpt lat="42.70905263370838" lon="12.166663233908936"><ele>191.0</ele><time>2026-04-17T12:57:47.002Z</time></trkpt><trkpt lat="42.70885915853304" lon="12.166767275870026"><ele>192.0</ele><time>2026-04-17T12:57:48.002Z</time></trkpt><trkpt lat="42.708696038950606" lon="12.16685923249099"><ele>193.0</ele><time>2026-04-17T12:57:49.002Z</time></trkpt><trkpt lat="42.70856747633" lon="12.166928985590209"><ele>193.2</ele><time>2026-04-17T12:57:50.002Z</time></trkpt><trkpt lat="42.708465877352545" lon="12.16698274139786"><ele>193.4</ele><time>2026-04-17T12:57:51.002Z</time></trkpt><trkpt lat="42.70836677296723" lon="12.16704701308957"><ele>193.6</ele><time>2026-04-17T12:57:52.002Z</time></trkpt><trkpt lat="42.708273474751515" lon="12.16712623613181"><ele>193.79999999999998</ele><time>2026-04-17T12:57:53.002Z</time></trkpt><trkpt lat="42.70819408713253" lon="12.167214654923937"><ele>194.0</ele><time>2026-04-17T12:57:53.999Z</time></trkpt><trkpt lat="42.708131896468764" lon="12.167311690118606"><ele>194.2</ele><time>2026-04-17T12:57:54.999Z</time></trkpt><trkpt lat="42.70808289515829" lon="12.167412943536958"><ele>194.39999999999998</ele><time>2026-04-17T12:57:55.999Z</time></trkpt><trkpt lat="42.708040392506256" lon="12.167509051778753"><ele>194.6</ele><time>2026-04-17T12:57:56.999Z</time></trkpt><trkpt lat="42.70799384481274" lon="12.167621513966479"><ele>194.8</ele><time>2026-04-17T12:57:58.999Z</time></trkpt><trkpt lat="42.70811898407456" lon="12.167748719125031"><ele>195.0</ele><time>2026-04-17T12:58:00.999Z</time></trkpt><trkpt lat="42.708171242432435" lon="12.167801359681341"><ele>195.0</ele><time>2026-04-17T12:58:01.999Z</time></trkpt><trkpt lat="42.70823480221198" lon="12.167865874147113"><ele>195.0</ele><time>2026-04-17T12:58:02.999Z</time></trkpt><trkpt lat="42.70831133739731" lon="12.167980036385337"><ele>195.0</ele><time>2026-04-17T12:58:03.999Z</time></trkpt><trkpt lat="42.70841839570489" lon="12.168102808466594"><ele>195.0</ele><time>2026-04-17T12:58:04.999Z</time></trkpt><trkpt lat="42.708548107744505" lon="12.168251559433886"><ele>197.66666666666669</ele><time>2026-04-17T12:58:05.999Z</time></trkpt><trkpt lat="42.70870696433372" lon="12.168432935721354"><ele>200.33333333333334</ele><time>2026-04-17T12:58:06.999Z</time></trkpt><trkpt lat="42.708855985180676" lon="12.168605748789966"><ele>203.0</ele><time>2026-04-17T12:58:07.999Z</time></trkpt><trkpt lat="42.70898302287789" lon="12.168757962721735"><ele>203.0</ele><time>2026-04-17T12:58:08.999Z</time></trkpt><trkpt lat="42.70909294867371" lon="12.168887527144284"><ele>203.0</ele><time>2026-04-17T12:58:09.999Z</time></trkpt><trkpt lat="42.70919913650401" lon="12.169009093099135"><ele>203.0</ele><time>2026-04-17T12:58:10.999Z</time></trkpt><trkpt lat="42.709303338657236" lon="12.169126457329448"><ele>203.0</ele><time>2026-04-17T12:58:11.999Z</time></trkpt><trkpt lat="42.70939544413855" lon="12.16922945727974"><ele>204.2</ele><time>2026-04-17T12:58:13Z</time></trkpt><trkpt lat="42.70948281150788" lon="12.169327158582668"><ele>205.4</ele><time>2026-04-17T12:58:14Z</time></trkpt><trkpt lat="42.70956129978977" lon="12.169414930621357"><ele>206.6</ele><time>2026-04-17T12:58:15Z</time></trkpt><trkpt lat="42.70964879856942" lon="12.169512778883329"><ele>207.79999999999998</ele><time>2026-04-17T12:58:16Z</time></trkpt><trkpt lat="42.70973685770563" lon="12.169583472690334"><ele>209.0</ele><time>2026-04-17T12:58:17Z</time></trkpt><trkpt lat="42.70980950117534" lon="12.16966075722425"><ele>209.00000000000003</ele><time>2026-04-17T12:58:18Z</time></trkpt><trkpt lat="42.709888480833705" lon="12.169737792042886"><ele>209.0</ele><time>2026-04-17T12:58:19Z</time></trkpt><trkpt lat="42.70996051168344" lon="12.16979461618641"><ele>209.0</ele><time>2026-04-17T12:58:20Z</time></trkpt><trkpt lat="42.71001996813281" lon="12.169842138757309"><ele>209.0</ele><time>2026-04-17T12:58:21Z</time></trkpt><trkpt lat="42.710077817583006" lon="12.169888787888933"><ele>209.00000000000003</ele><time>2026-04-17T12:58:22Z</time></trkpt><trkpt lat="42.71014050904307" lon="12.169946889083072"><ele>209.0</ele><time>2026-04-17T12:58:23Z</time></trkpt><trkpt lat="42.7102009586478" lon="12.169999116528885"><ele>211.16666666666669</ele><time>2026-04-17T12:58:24Z</time></trkpt><trkpt lat="42.71025753274396" lon="12.17004285772653"><ele>213.33333333333334</ele><time>2026-04-17T12:58:25Z</time></trkpt><trkpt lat="42.71034432306247" lon="12.170151340354197"><ele>215.5</ele><time>2026-04-17T12:58:27Z</time></trkpt><trkpt lat="42.71040352990789" lon="12.170242188969107"><ele>217.66666666666669</ele><time>2026-04-17T12:58:29Z</time></trkpt><trkpt lat="42.71042495065789" lon="12.170327019770259"><ele>219.83333333333334</ele><time>2026-04-17T12:58:31Z</time></trkpt><trkpt lat="42.71044412069265" lon="12.170443429872606"><ele>222.0</ele><time>2026-04-17T12:58:33Z</time></trkpt><trkpt lat="42.71048433609589" lon="12.17058753770029"><ele>222.0</ele><time>2026-04-17T12:58:35Z</time></trkpt><trkpt lat="42.71056782324109" lon="12.170658874310686"><ele>222.0</ele><time>2026-04-17T12:58:37Z</time></trkpt><trkpt lat="42.710619348578795" lon="12.170749183216287"><ele>222.0</ele><time>2026-04-17T12:58:39Z</time></trkpt><trkpt lat="42.710668015625664" lon="12.170854917973807"><ele>222.0</ele><time>2026-04-17T12:58:42.001Z</time></trkpt><trkpt lat="42.710718182911556" lon="12.170916592065632"><ele>222.0</ele><time>2026-04-17T12:58:43.001Z</time></trkpt><trkpt lat="42.71075031769472" lon="12.171009881405013"><ele>222.0</ele><time>2026-04-17T12:58:44.001Z</time></trkpt><trkpt lat="42.71079630395967" lon="12.171097288498707"><ele>222.2</ele><time>2026-04-17T12:58:45.001Z</time></trkpt><trkpt lat="42.71086324754942" lon="12.17116685920011"><ele>222.39999999999998</ele><time>2026-04-17T12:58:46.001Z</time></trkpt><trkpt lat="42.71093805361292" lon="12.171226337216611"><ele>222.60000000000002</ele><time>2026-04-17T12:58:47.001Z</time></trkpt><trkpt lat="42.71103159878734" lon="12.171280938692142"><ele>222.8</ele><time>2026-04-17T12:58:48.001Z</time></trkpt><trkpt lat="42.711123860958196" lon="12.171361937043335"><ele>223.0</ele><time>2026-04-17T12:58:49.001Z</time></trkpt><trkpt lat="42.71122463791105" lon="12.171433018787445"><ele>222.75</ele><time>2026-04-17T12:58:50.001Z</time></trkpt><trkpt lat="42.71133196490194" lon="12.171501179079058"><ele>222.5</ele><time>2026-04-17T12:58:51.001Z</time></trkpt><trkpt lat="42.71144340495667" lon="12.171571736237276"><ele>222.25</ele><time>2026-04-17T12:58:52.001Z</time></trkpt><trkpt lat="42.71155044102954" lon="12.171647861074584"><ele>222.0</ele><time>2026-04-17T12:58:53.001Z</time></trkpt><trkpt lat="42.711657869013486" lon="12.171704714152808"><ele>222.0</ele><time>2026-04-17T12:58:54.001Z</time></trkpt><trkpt lat="42.71177389953488" lon="12.171761788040687"><ele>222.0</ele><time>2026-04-17T12:58:55.001Z</time></trkpt><trkpt lat="42.71189170583133" lon="12.171812091177767"><ele>222.0</ele><time>2026-04-17T12:58:56.001Z</time></trkpt><trkpt lat="42.71202536870275" lon="12.171864611586521"><ele>222.0</ele><time>2026-04-17T12:58:57.001Z</time></trkpt><trkpt lat="42.71218567788591" lon="12.171930602318227"><ele>221.33333333333331</ele><time>2026-04-17T12:58:58.001Z</time></trkpt><trkpt lat="42.71235711350192" lon="12.172000575652019"><ele>220.66666666666666</ele><time>2026-04-17T12:58:59.001Z</time></trkpt><trkpt lat="42.71251150313354" lon="12.172070857317717"><ele>220.0</ele><time>2026-04-17T12:59:00.001Z</time></trkpt><trkpt lat="42.71265256760615" lon="12.172160591030032"><ele>217.25</ele><time>2026-04-17T12:59:01.001Z</time></trkpt><trkpt lat="42.71279333138882" lon="12.172231776730346"><ele>214.5</ele><time>2026-04-17T12:59:02.001Z</time></trkpt><trkpt lat="42.71292825468677" lon="12.172300248935553"><ele>211.75</ele><time>2026-04-17T12:59:03.001Z</time></trkpt><trkpt lat="42.71307085152321" lon="12.172376832951592"><ele>209.0</ele><time>2026-04-17T12:59:04.001Z</time></trkpt><trkpt lat="42.71319928304953" lon="12.172445809286437"><ele>209.0</ele><time>2026-04-17T12:59:05.001Z</time></trkpt><trkpt lat="42.71332308579124" lon="12.17251160274309"><ele>209.0</ele><time>2026-04-17T12:59:06.001Z</time></trkpt><trkpt lat="42.71344393068126" lon="12.172573769835607"><ele>209.0</ele><time>2026-04-17T12:59:07.001Z</time></trkpt><trkpt lat="42.71355494048079" lon="12.172630559159877"><ele>209.0</ele><time>2026-04-17T12:59:08.001Z</time></trkpt><trkpt lat="42.71366250317656" lon="12.172678564600696"><ele>208.25</ele><time>2026-04-17T12:59:09.001Z</time></trkpt><trkpt lat="42.71376236960652" lon="12.172704507500534"><ele>207.5</ele><time>2026-04-17T12:59:10.001Z</time></trkpt><trkpt lat="42.71386875777058" lon="12.172705012348207"><ele>206.75</ele><time>2026-04-17T12:59:11.001Z</time></trkpt><trkpt lat="42.71401077993491" lon="12.172678455261135"><ele>206.0</ele><time>2026-04-17T12:59:12.001Z</time></trkpt><trkpt lat="42.71416372252712" lon="12.172640981084243"><ele>206.00000000000003</ele><time>2026-04-17T12:59:13.001Z</time></trkpt><trkpt lat="42.71427787849014" lon="12.172610944726044"><ele>206.0</ele><time>2026-04-17T12:59:14.001Z</time></trkpt><trkpt lat="42.714356211477046" lon="12.17260579137496"><ele>206.0</ele><time>2026-04-17T12:59:15.001Z</time></trkpt><trkpt lat="42.71442488789876" lon="12.172638364792643"><ele>206.0</ele><time>2026-04-17T12:59:16.001Z</time></trkpt><trkpt lat="42.71449508672023" lon="12.1726975354809"><ele>206.00000000000003</ele><time>2026-04-17T12:59:17.002Z</time></trkpt><trkpt lat="42.714556022344944" lon="12.172776624416247"><ele>206.0</ele><time>2026-04-17T12:59:18.002Z</time></trkpt><trkpt lat="42.71460755354089" lon="12.172904902173954"><ele>206.8</ele><time>2026-04-17T12:59:19.002Z</time></trkpt><trkpt lat="42.71468560199837" lon="12.173036338448284"><ele>207.60000000000002</ele><time>2026-04-17T12:59:20.002Z</time></trkpt><trkpt lat="42.71476508004438" lon="12.173105498858074"><ele>208.4</ele><time>2026-04-17T12:59:21.002Z</time></trkpt><trkpt lat="42.714834085024" lon="12.173160245925912"><ele>209.2</ele><time>2026-04-17T12:59:22.002Z</time></trkpt><trkpt lat="42.7149285746724" lon="12.173194799255786"><ele>210.0</ele><time>2026-04-17T12:59:23.002Z</time></trkpt><trkpt lat="42.71505512395815" lon="12.17321832659945"><ele>211.25</ele><time>2026-04-17T12:59:24.002Z</time></trkpt><trkpt lat="42.715219011548974" lon="12.173261228360603"><ele>212.5</ele><time>2026-04-17T12:59:25.002Z</time></trkpt><trkpt lat="42.71537692603209" lon="12.17325676692264"><ele>213.75</ele><time>2026-04-17T12:59:26.002Z</time></trkpt><trkpt lat="42.71547986013377" lon="12.17327759533299"><ele>215.0</ele><time>2026-04-17T12:59:27.002Z</time></trkpt><trkpt lat="42.715567949274224" lon="12.173346005214533"><ele>216.75</ele><time>2026-04-17T12:59:28.002Z</time></trkpt><trkpt lat="42.715664869788384" lon="12.17345792194573"><ele>218.5</ele><time>2026-04-17T12:59:29.002Z</time></trkpt><trkpt lat="42.71577669369046" lon="12.17356533222259"><ele>220.25</ele><time>2026-04-17T12:59:30.002Z</time></trkpt><trkpt lat="42.71591051437307" lon="12.173651966015507"><ele>222.0</ele><time>2026-04-17T12:59:31.002Z</time></trkpt><trkpt lat="42.716018500648055" lon="12.17373242827042"><ele>222.66666666666666</ele><time>2026-04-17T12:59:32.002Z</time></trkpt><trkpt lat="42.7160758681324" lon="12.173816351200577"><ele>223.33333333333331</ele><time>2026-04-17T12:59:33.002Z</time></trkpt><trkpt lat="42.71611880610461" lon="12.173885847470121"><ele>224.0</ele><time>2026-04-17T12:59:34.002Z</time></trkpt><trkpt lat="42.716145735971566" lon="12.174037156616052"><ele>224.66666666666666</ele><time>2026-04-17T12:59:36.002Z</time></trkpt><trkpt lat="42.71611076332482" lon="12.174132351709712"><ele>225.33333333333331</ele><time>2026-04-17T12:59:37.002Z</time></trkpt><trkpt lat="42.71606242261846" lon="12.174239771498318"><ele>226.0</ele><time>2026-04-17T12:59:38.002Z</time></trkpt><trkpt lat="42.71602642316318" lon="12.174387122477768"><ele>226.0</ele><time>2026-04-17T12:59:39.002Z</time></trkpt><trkpt lat="42.7160197335894" lon="12.174538097367066"><ele>226.0</ele><time>2026-04-17T12:59:40.002Z</time></trkpt><trkpt lat="42.71603721109555" lon="12.174683498077837"><ele>226.0</ele><time>2026-04-17T12:59:41.002Z</time></trkpt><trkpt lat="42.71607117034259" lon="12.174820506475498"><ele>226.0</ele><time>2026-04-17T12:59:42.002Z</time></trkpt><trkpt lat="42.71611644186162" lon="12.175003598143403"><ele>228.0</ele><time>2026-04-17T12:59:43.002Z</time></trkpt><trkpt lat="42.71615193540057" lon="12.175177915067284"><ele>230.00000000000003</ele><time>2026-04-17T12:59:44.002Z</time></trkpt><trkpt lat="42.716170542378734" lon="12.175305044799677"><ele>232.00000000000003</ele><time>2026-04-17T12:59:45.002Z</time></trkpt><trkpt lat="42.716205052674844" lon="12.175424489211247"><ele>234.0</ele><time>2026-04-17T12:59:46.002Z</time></trkpt><trkpt lat="42.716262172889046" lon="12.175545292298246"><ele>236.0</ele><time>2026-04-17T12:59:47.002Z</time></trkpt><trkpt lat="42.71633381115217" lon="12.175642832557164"><ele>235.8</ele><time>2026-04-17T12:59:48.002Z</time></trkpt><trkpt lat="42.71642595609003" lon="12.175737268810803"><ele>235.60000000000002</ele><time>2026-04-17T12:59:49.002Z</time></trkpt><trkpt lat="42.71651354558327" lon="12.175823444056823"><ele>235.4</ele><time>2026-04-17T12:59:50.002Z</time></trkpt><trkpt lat="42.7165877538633" lon="12.175886555337616"><ele>235.2</ele><time>2026-04-17T12:59:51.002Z</time></trkpt><trkpt lat="42.71666360659206" lon="12.175931866064158"><ele>235.0</ele><time>2026-04-17T12:59:52.002Z</time></trkpt><trkpt lat="42.71674341235047" lon="12.175959687188328"><ele>234.99999999999997</ele><time>2026-04-17T12:59:53.002Z</time></trkpt><trkpt lat="42.71681943907641" lon="12.1760094300857"><ele>235.0</ele><time>2026-04-17T12:59:54.002Z</time></trkpt><trkpt lat="42.71689964993665" lon="12.17603758160819"><ele>235.0</ele><time>2026-04-17T12:59:55.003Z</time></trkpt><trkpt lat="42.71698275990239" lon="12.176065483062825"><ele>235.0</ele><time>2026-04-17T12:59:56.003Z</time></trkpt><trkpt lat="42.71706074821697" lon="12.176091665087043"><ele>234.99999999999997</ele><time>2026-04-17T12:59:57.003Z</time></trkpt><trkpt lat="42.717132891430914" lon="12.176115885367262"><ele>235.0</ele><time>2026-04-17T12:59:58.003Z</time></trkpt><trkpt lat="42.71721234565776" lon="12.176128466507398"><ele>233.6</ele><time>2026-04-17T12:59:59.003Z</time></trkpt><trkpt lat="42.717287196785236" lon="12.176159079965444"><ele>232.2</ele><time>2026-04-17T13:00:00Z</time></trkpt><trkpt lat="42.71737822494648" lon="12.176172859199877"><ele>230.8</ele><time>2026-04-17T13:00:01Z</time></trkpt><trkpt lat="42.71747002754245" lon="12.176228776954364"><ele>229.4</ele><time>2026-04-17T13:00:02Z</time></trkpt><trkpt lat="42.71756793209878" lon="12.17628966675298"><ele>228.0</ele><time>2026-04-17T13:00:03Z</time></trkpt><trkpt lat="42.717656175401565" lon="12.176340179262898"><ele>228.0</ele><time>2026-04-17T13:00:04Z</time></trkpt><trkpt lat="42.71773367247764" lon="12.176414290010563"><ele>228.0</ele><time>2026-04-17T13:00:05Z</time></trkpt><trkpt lat="42.71782451179374" lon="12.176477514320192"><ele>228.0</ele><time>2026-04-17T13:00:06Z</time></trkpt><trkpt lat="42.717924020332184" lon="12.176547796876145"><ele>228.0</ele><time>2026-04-17T13:00:07Z</time></trkpt><trkpt lat="42.71803185062273" lon="12.176608589250606"><ele>228.0</ele><time>2026-04-17T13:00:08Z</time></trkpt><trkpt lat="42.718125559819796" lon="12.176673112912384"><ele>228.66666666666666</ele><time>2026-04-17T13:00:09Z</time></trkpt><trkpt lat="42.71820081506466" lon="12.176757953115748"><ele>229.33333333333331</ele><time>2026-04-17T13:00:10Z</time></trkpt><trkpt lat="42.71828235596373" lon="12.176811256936523"><ele>230.0</ele><time>2026-04-17T13:00:11Z</time></trkpt><trkpt lat="42.71836132791126" lon="12.176834510003816"><ele>230.66666666666666</ele><time>2026-04-17T13:00:12Z</time></trkpt><trkpt lat="42.71843778187079" lon="12.176817926821716"><ele>231.33333333333331</ele><time>2026-04-17T13:00:13Z</time></trkpt><trkpt lat="42.718509827506246" lon="12.176798216741645"><ele>232.0</ele><time>2026-04-17T13:00:14Z</time></trkpt><trkpt lat="42.718606804046324" lon="12.176787884594606"><ele>232.66666666666666</ele><time>2026-04-17T13:00:15Z</time></trkpt><trkpt lat="42.71873512181635" lon="12.176747492174341"><ele>233.33333333333331</ele><time>2026-04-17T13:00:16Z</time></trkpt><trkpt lat="42.71890062262257" lon="12.176706903254404"><ele>234.0</ele><time>2026-04-17T13:00:17Z</time></trkpt><trkpt lat="42.71909370138379" lon="12.176671447997053"><ele>234.0</ele><time>2026-04-17T13:00:18Z</time></trkpt><trkpt lat="42.71929630811595" lon="12.176640790271742"><ele>234.0</ele><time>2026-04-17T13:00:19Z</time></trkpt><trkpt lat="42.719491300689214" lon="12.176606219579687"><ele>234.0</ele><time>2026-04-17T13:00:20Z</time></trkpt><trkpt lat="42.719637517802504" lon="12.176620411138087"><ele>235.75</ele><time>2026-04-17T13:00:21Z</time></trkpt><trkpt lat="42.71976157516152" lon="12.176633684722338"><ele>237.5</ele><time>2026-04-17T13:00:22Z</time></trkpt><trkpt lat="42.71987076836665" lon="12.1766300725846"><ele>239.25</ele><time>2026-04-17T13:00:23Z</time></trkpt><trkpt lat="42.71997430624029" lon="12.176594329984251"><ele>241.0</ele><time>2026-04-17T13:00:24Z</time></trkpt><trkpt lat="42.72009935337354" lon="12.17657062428801"><ele>242.25</ele><time>2026-04-17T13:00:25Z</time></trkpt><trkpt lat="42.72023763609336" lon="12.176540528919697"><ele>243.5</ele><time>2026-04-17T13:00:26Z</time></trkpt><trkpt lat="42.72034310842935" lon="12.176525607157009"><ele>244.75</ele><time>2026-04-17T13:00:27Z</time></trkpt><trkpt lat="42.720445488568764" lon="12.176548421587231"><ele>246.0</ele><time>2026-04-17T13:00:28Z</time></trkpt><trkpt lat="42.72057084712317" lon="12.176559785922677"><ele>246.0</ele><time>2026-04-17T13:00:29Z</time></trkpt><trkpt lat="42.72070133013204" lon="12.17656366350997"><ele>246.0</ele><time>2026-04-17T13:00:30Z</time></trkpt><trkpt lat="42.72081737135422" lon="12.176589404048446"><ele>246.0</ele><time>2026-04-17T13:00:31Z</time></trkpt><trkpt lat="42.720928223148185" lon="12.176634177565646"><ele>246.0</ele><time>2026-04-17T13:00:32Z</time></trkpt><trkpt lat="42.721043470426466" lon="12.17666404006691"><ele>246.4</ele><time>2026-04-17T13:00:33Z</time></trkpt><trkpt lat="42.721153316203925" lon="12.176694099360306"><ele>246.8</ele><time>2026-04-17T13:00:34Z</time></trkpt><trkpt lat="42.72125835410499" lon="12.176724110307555"><ele>247.20000000000002</ele><time>2026-04-17T13:00:35Z</time></trkpt><trkpt lat="42.72135890129495" lon="12.176740905856088"><ele>247.60000000000002</ele><time>2026-04-17T13:00:36.001Z</time></trkpt><trkpt lat="42.72144722829079" lon="12.176753515073317"><ele>248.0</ele><time>2026-04-17T13:00:37.001Z</time></trkpt><trkpt lat="42.721561395184416" lon="12.176735983316169"><ele>248.0</ele><time>2026-04-17T13:00:38.001Z</time></trkpt><trkpt lat="42.72173287759971" lon="12.176704823180932"><ele>248.0</ele><time>2026-04-17T13:00:39.001Z</time></trkpt><trkpt lat="42.72191490581577" lon="12.176722375103838"><ele>248.0</ele><time>2026-04-17T13:00:40.001Z</time></trkpt><trkpt lat="42.722039627613746" lon="12.176725220945535"><ele>248.25</ele><time>2026-04-17T13:00:41.001Z</time></trkpt><trkpt lat="42.72212682796914" lon="12.176732040475768"><ele>248.5</ele><time>2026-04-17T13:00:42.001Z</time></trkpt><trkpt lat="42.72222542843678" lon="12.17674775224644"><ele>248.75</ele><time>2026-04-17T13:00:43.001Z</time></trkpt><trkpt lat="42.72235680443076" lon="12.176780888787672"><ele>249.0</ele><time>2026-04-17T13:00:44.001Z</time></trkpt><trkpt lat="42.72248195279187" lon="12.176828877661531"><ele>249.0</ele><time>2026-04-17T13:00:45.001Z</time></trkpt><trkpt lat="42.72257513238859" lon="12.176870837899525"><ele>248.99999999999997</ele><time>2026-04-17T13:00:46.001Z</time></trkpt><trkpt lat="42.72266813236061" lon="12.17691768840075"><ele>248.99999999999997</ele><time>2026-04-17T13:00:47.001Z</time></trkpt><trkpt lat="42.72273296113754" lon="12.176962077677095"><ele>249.0</ele><time>2026-04-17T13:00:48.001Z</time></trkpt><trkpt lat="42.72280784403383" lon="12.177092422600271"><ele>249.0</ele><time>2026-04-17T13:00:50.001Z</time></trkpt><trkpt lat="42.722788032261406" lon="12.177242415268893"><ele>251.0</ele><time>2026-04-17T13:00:51.001Z</time></trkpt><trkpt lat="42.722827957816556" lon="12.177432801444771"><ele>253.0</ele><time>2026-04-17T13:00:52.001Z</time></trkpt><trkpt lat="42.72285902544846" lon="12.177632759891486"><ele>255.0</ele><time>2026-04-17T13:00:53.001Z</time></trkpt><trkpt lat="42.72290310564465" lon="12.177819584527432"><ele>257.0</ele><time>2026-04-17T13:00:54.001Z</time></trkpt><trkpt lat="42.72295167026039" lon="12.1779832928631"><ele>257.0</ele><time>2026-04-17T13:00:55.001Z</time></trkpt><trkpt lat="42.72299641203246" lon="12.178124627793965"><ele>257.0</ele><time>2026-04-17T13:00:56.001Z</time></trkpt><trkpt lat="42.72304241479487" lon="12.178257533510582"><ele>257.0</ele><time>2026-04-17T13:00:57.001Z</time></trkpt><trkpt lat="42.723098863773714" lon="12.178389187679546"><ele>257.0</ele><time>2026-04-17T13:00:58.001Z</time></trkpt><trkpt lat="42.72315666520967" lon="12.1785156692333"><ele>257.0</ele><time>2026-04-17T13:00:59.001Z</time></trkpt><trkpt lat="42.72321971855241" lon="12.178642323846882"><ele>255.8</ele><time>2026-04-17T13:01:00.001Z</time></trkpt><trkpt lat="42.72328638295165" lon="12.178772540189977"><ele>254.6</ele><time>2026-04-17T13:01:01.001Z</time></trkpt><trkpt lat="42.723320066786954" lon="12.178907876399286"><ele>253.40000000000003</ele><time>2026-04-17T13:01:02.001Z</time></trkpt><trkpt lat="42.72335297091045" lon="12.179017422614535"><ele>252.20000000000002</ele><time>2026-04-17T13:01:03.001Z</time></trkpt><trkpt lat="42.72337504659066" lon="12.17914234709486"><ele>251.0</ele><time>2026-04-17T13:01:04.001Z</time></trkpt><trkpt lat="42.72339926167341" lon="12.179310174057226"><ele>249.0</ele><time>2026-04-17T13:01:05.001Z</time></trkpt><trkpt lat="42.723392871724165" lon="12.17952443333906"><ele>247.0</ele><time>2026-04-17T13:01:06.001Z</time></trkpt><trkpt lat="42.7233975095909" lon="12.179733822156098"><ele>245.0</ele><time>2026-04-17T13:01:07.001Z</time></trkpt><trkpt lat="42.72340035754903" lon="12.17989926704244"><ele>243.0</ele><time>2026-04-17T13:01:08.001Z</time></trkpt><trkpt lat="42.7234049872393" lon="12.180040276377222"><ele>242.0</ele><time>2026-04-17T13:01:09.001Z</time></trkpt><trkpt lat="42.72341490377975" lon="12.180172762472894"><ele>241.0</ele><time>2026-04-17T13:01:10.001Z</time></trkpt><trkpt lat="42.7234425876805" lon="12.180312238263475"><ele>240.0</ele><time>2026-04-17T13:01:11.002Z</time></trkpt><trkpt lat="42.72348427118971" lon="12.18044087991722"><ele>239.0</ele><time>2026-04-17T13:01:12.002Z</time></trkpt><trkpt lat="42.723531225253936" lon="12.180561172304078"><ele>238.0</ele><time>2026-04-17T13:01:13.002Z</time></trkpt><trkpt lat="42.72358365328341" lon="12.180693419555787"><ele>239.99999999999997</ele><time>2026-04-17T13:01:14.002Z</time></trkpt><trkpt lat="42.723632597645995" lon="12.180799831914403"><ele>242.0</ele><time>2026-04-17T13:01:15.002Z</time></trkpt><trkpt lat="42.7236912777075" lon="12.180897736560603"><ele>244.0</ele><time>2026-04-17T13:01:16.002Z</time></trkpt><trkpt lat="42.7237478003443" lon="12.180982568161447"><ele>246.0</ele><time>2026-04-17T13:01:17.002Z</time></trkpt><trkpt lat="42.72381076955533" lon="12.181046099102781"><ele>247.99999999999997</ele><time>2026-04-17T13:01:18.002Z</time></trkpt><trkpt lat="42.723898027512604" lon="12.181082599156817"><ele>250.0</ele><time>2026-04-17T13:01:19.002Z</time></trkpt><trkpt lat="42.723980856989115" lon="12.181100261948256"><ele>250.0</ele><time>2026-04-17T13:01:20.002Z</time></trkpt><trkpt lat="42.72402001727782" lon="12.181185788824955"><ele>250.0</ele><time>2026-04-17T13:01:22.002Z</time></trkpt><trkpt lat="42.72403117021901" lon="12.181336763846934"><ele>250.0</ele><time>2026-04-17T13:01:24.002Z</time></trkpt><trkpt lat="42.72408360928866" lon="12.181500727078447"><ele>250.0</ele><time>2026-04-17T13:01:26.002Z</time></trkpt><trkpt lat="42.72416810159276" lon="12.181535496787147"><ele>250.0</ele><time>2026-04-17T13:01:27.002Z</time></trkpt><trkpt lat="42.72425602718589" lon="12.181589302616594"><ele>251.49999999999997</ele><time>2026-04-17T13:01:28.002Z</time></trkpt><trkpt lat="42.724333101673885" lon="12.181605752532422"><ele>253.0</ele><time>2026-04-17T13:01:29.002Z</time></trkpt><trkpt lat="42.72445640005339" lon="12.1815747341783"><ele>254.5</ele><time>2026-04-17T13:01:31.002Z</time></trkpt><trkpt lat="42.72452369235618" lon="12.181572080350449"><ele>256.0</ele><time>2026-04-17T13:01:32.002Z</time></trkpt><trkpt lat="42.72457474743984" lon="12.181660014866363"><ele>257.5</ele><time>2026-04-17T13:01:36.002Z</time></trkpt><trkpt lat="42.724586019348614" lon="12.18178277054622"><ele>259.0</ele><time>2026-04-17T13:01:37.002Z</time></trkpt><trkpt lat="42.724573166211734" lon="12.181927974180837"><ele>259.0</ele><time>2026-04-17T13:01:38.002Z</time></trkpt><trkpt lat="42.724556863861515" lon="12.182044002816411"><ele>259.0</ele><time>2026-04-17T13:01:39.002Z</time></trkpt><trkpt lat="42.72450771294213" lon="12.18210880789565"><ele>259.0</ele><time>2026-04-17T13:01:40.002Z</time></trkpt><trkpt lat="42.72444502870358" lon="12.182122679193924"><ele>259.0</ele><time>2026-04-17T13:01:41.002Z</time></trkpt><trkpt lat="42.72433229244676" lon="12.182193017010755"><ele>259.0</ele><time>2026-04-17T13:01:43.002Z</time></trkpt><trkpt lat="42.724259054021644" lon="12.1822491477338"><ele>259.0</ele><time>2026-04-17T13:01:44.002Z</time></trkpt><trkpt lat="42.724161699405556" lon="12.182327289134612"><ele>256.75</ele><time>2026-04-17T13:01:45.002Z</time></trkpt><trkpt lat="42.724035941428504" lon="12.182406477610234"><ele>254.5</ele><time>2026-04-17T13:01:46.002Z</time></trkpt><trkpt lat="42.723925488292835" lon="12.182429660052081"><ele>252.25</ele><time>2026-04-17T13:01:47.002Z</time></trkpt><trkpt lat="42.72382365936931" lon="12.18239768550192"><ele>250.0</ele><time>2026-04-17T13:01:48.003Z</time></trkpt><trkpt lat="42.72371520485315" lon="12.182422938810683"><ele>250.0</ele><time>2026-04-17T13:01:49.003Z</time></trkpt><trkpt lat="42.723651585244205" lon="12.182462493277079"><ele>250.0</ele><time>2026-04-17T13:01:50.003Z</time></trkpt><trkpt lat="42.72359079020326" lon="12.182491868287986"><ele>250.0</ele><time>2026-04-17T13:01:51.003Z</time></trkpt><trkpt lat="42.72345288109065" lon="12.182438565740645"><ele>250.0</ele><time>2026-04-17T13:01:53.003Z</time></trkpt><trkpt lat="42.72332284854406" lon="12.18240411731733"><ele>250.0</ele><time>2026-04-17T13:01:54.003Z</time></trkpt><trkpt lat="42.72322039700929" lon="12.1824272300532"><ele>249.83333333333331</ele><time>2026-04-17T13:01:55.003Z</time></trkpt><trkpt lat="42.72315239421905" lon="12.182456283234629"><ele>249.66666666666666</ele><time>2026-04-17T13:01:56.003Z</time></trkpt><trkpt lat="42.72307676916128" lon="12.182463320697847"><ele>249.5</ele><time>2026-04-17T13:01:57.003Z</time></trkpt><trkpt lat="42.72299450186351" lon="12.182496715456766"><ele>249.33333333333331</ele><time>2026-04-17T13:01:58.003Z</time></trkpt><trkpt lat="42.722915800452164" lon="12.182556873351562"><ele>249.16666666666666</ele><time>2026-04-17T13:01:59.003Z</time></trkpt><trkpt lat="42.722840786412796" lon="12.182597100463372"><ele>249.0</ele><time>2026-04-17T13:02:00.003Z</time></trkpt><trkpt lat="42.722729997883384" lon="12.182583467701575"><ele>249.5</ele><time>2026-04-17T13:02:01.003Z</time></trkpt><trkpt lat="42.72259383015889" lon="12.182539649505994"><ele>250.0</ele><time>2026-04-17T13:02:02.003Z</time></trkpt><trkpt lat="42.72244561686356" lon="12.182473470062257"><ele>250.5</ele><time>2026-04-17T13:02:03.003Z</time></trkpt><trkpt lat="42.722333680827404" lon="12.182429352273509"><ele>251.0</ele><time>2026-04-17T13:02:04.003Z</time></trkpt><trkpt lat="42.722253713197055" lon="12.182397928536055"><ele>251.0</ele><time>2026-04-17T13:02:05.003Z</time></trkpt><trkpt lat="42.72214003107025" lon="12.182386812128492"><ele>251.0</ele><time>2026-04-17T13:02:07Z</time></trkpt><trkpt lat="42.722059291772666" lon="12.182394263299209"><ele>251.0</ele><time>2026-04-17T13:02:09Z</time></trkpt><trkpt lat="42.722001199770865" lon="12.182483204583747"><ele>251.0</ele><time>2026-04-17T13:02:10Z</time></trkpt><trkpt lat="42.722175405748104" lon="12.182562973890029"><ele>251.00000000000003</ele><time>2026-04-17T13:02:12Z</time></trkpt><trkpt lat="42.722245996132784" lon="12.182603575899648"><ele>251.0</ele><time>2026-04-17T13:02:13Z</time></trkpt><trkpt lat="42.722303978523186" lon="12.182645526936412"><ele>251.0</ele><time>2026-04-17T13:02:14Z</time></trkpt><trkpt lat="42.72236517171748" lon="12.182703839214202"><ele>251.0</ele><time>2026-04-17T13:02:15Z</time></trkpt><trkpt lat="42.722422689538284" lon="12.18278773773758"><ele>251.00000000000003</ele><time>2026-04-17T13:02:16Z</time></trkpt><trkpt lat="42.72247532145457" lon="12.182871571692155"><ele>251.0</ele><time>2026-04-17T13:02:17Z</time></trkpt><trkpt lat="42.722547661875254" lon="12.182967577031814"><ele>251.0</ele><time>2026-04-17T13:02:18Z</time></trkpt><trkpt lat="42.722584428128336" lon="12.183072768773052"><ele>251.0</ele><time>2026-04-17T13:02:19Z</time></trkpt><trkpt lat="42.722655454146576" lon="12.183221313191117"><ele>251.0</ele><time>2026-04-17T13:02:20Z</time></trkpt><trkpt lat="42.72274244977028" lon="12.183363671255231"><ele>251.0</ele><time>2026-04-17T13:02:21Z</time></trkpt><trkpt lat="42.72280326158099" lon="12.18351060803274"><ele>254.75</ele><time>2026-04-17T13:02:22Z</time></trkpt><trkpt lat="42.72289115117929" lon="12.183638005895194"><ele>258.5</ele><time>2026-04-17T13:02:23Z</time></trkpt><trkpt lat="42.722970246544875" lon="12.183766459887757"><ele>262.25</ele><time>2026-04-17T13:02:24Z</time></trkpt><trkpt lat="42.723044211563945" lon="12.183856185633605"><ele>266.0</ele><time>2026-04-17T13:02:25Z</time></trkpt><trkpt lat="42.723145259755746" lon="12.183936752132022"><ele>267.25</ele><time>2026-04-17T13:02:26Z</time></trkpt><trkpt lat="42.723244501774204" lon="12.184034926712064"><ele>268.5</ele><time>2026-04-17T13:02:27Z</time></trkpt><trkpt lat="42.72331313748892" lon="12.184165461355823"><ele>269.75</ele><time>2026-04-17T13:02:28Z</time></trkpt><trkpt lat="42.72340185838847" lon="12.184322098546637"><ele>271.0</ele><time>2026-04-17T13:02:29Z</time></trkpt><trkpt lat="42.72350664603804" lon="12.184471650800232"><ele>271.0</ele><time>2026-04-17T13:02:30Z</time></trkpt><trkpt lat="42.72355907857371" lon="12.184602555449116"><ele>271.0</ele><time>2026-04-17T13:02:31Z</time></trkpt><trkpt lat="42.723596377462584" lon="12.18470063861006"><ele>271.0</ele><time>2026-04-17T13:02:32Z</time></trkpt><trkpt lat="42.72364805690413" lon="12.184820321092893"><ele>271.0</ele><time>2026-04-17T13:02:33Z</time></trkpt><trkpt lat="42.723655318244376" lon="12.184976166257252"><ele>271.0</ele><time>2026-04-17T13:02:34Z</time></trkpt><trkpt lat="42.72365514716336" lon="12.185137140174144"><ele>273.0</ele><time>2026-04-17T13:02:35.001Z</time></trkpt><trkpt lat="42.7236514162379" lon="12.185285814344295"><ele>275.0</ele><time>2026-04-17T13:02:36.001Z</time></trkpt><trkpt lat="42.723645766371554" lon="12.18543149638354"><ele>277.0</ele><time>2026-04-17T13:02:37.001Z</time></trkpt><trkpt lat="42.72366527697796" lon="12.185570015749535"><ele>279.0</ele><time>2026-04-17T13:02:38.001Z</time></trkpt><trkpt lat="42.723697853992356" lon="12.185676298240214"><ele>281.0</ele><time>2026-04-17T13:02:39.001Z</time></trkpt><trkpt lat="42.723748449666324" lon="12.185770790625451"><ele>281.33333333333337</ele><time>2026-04-17T13:02:40.001Z</time></trkpt><trkpt lat="42.72381553838799" lon="12.185843332975887"><ele>281.6666666666667</ele><time>2026-04-17T13:02:41.001Z</time></trkpt><trkpt lat="42.72388243069797" lon="12.185933960333468"><ele>282.0</ele><time>2026-04-17T13:02:42.001Z</time></trkpt><trkpt lat="42.72394554668024" lon="12.185983283696094"><ele>282.3333333333333</ele><time>2026-04-17T13:02:43.001Z</time></trkpt><trkpt lat="42.72400604306174" lon="12.186029546773709"><ele>282.66666666666663</ele><time>2026-04-17T13:02:44.001Z</time></trkpt><trkpt lat="42.72411171929816" lon="12.186013216786346"><ele>283.0</ele><time>2026-04-17T13:02:45.001Z</time></trkpt><trkpt lat="42.72422358791672" lon="12.186021893910153"><ele>283.0</ele><time>2026-04-17T13:02:46.001Z</time></trkpt><trkpt lat="42.72435303461969" lon="12.18604744950584"><ele>283.0</ele><time>2026-04-17T13:02:47.001Z</time></trkpt><trkpt lat="42.72451154296731" lon="12.186056005203975"><ele>283.0</ele><time>2026-04-17T13:02:48.001Z</time></trkpt><trkpt lat="42.724666296169836" lon="12.18608097784589"><ele>283.0</ele><time>2026-04-17T13:02:49.001Z</time></trkpt><trkpt lat="42.72478664295696" lon="12.186103907069473"><ele>285.0</ele><time>2026-04-17T13:02:50.001Z</time></trkpt><trkpt lat="42.7248846164392" lon="12.186135306811968"><ele>287.0</ele><time>2026-04-17T13:02:51.001Z</time></trkpt><trkpt lat="42.72497968677087" lon="12.186150136994414"><ele>289.0</ele><time>2026-04-17T13:02:52.001Z</time></trkpt><trkpt lat="42.725066400248615" lon="12.18616476301611"><ele>291.0</ele><time>2026-04-17T13:02:53.001Z</time></trkpt><trkpt lat="42.72515632723883" lon="12.186181471575502"><ele>293.0</ele><time>2026-04-17T13:02:54.001Z</time></trkpt><trkpt lat="42.725242711029686" lon="12.18619752179463"><ele>294.1666666666667</ele><time>2026-04-17T13:02:55.001Z</time></trkpt><trkpt lat="42.72532871862374" lon="12.18621350213311"><ele>295.33333333333337</ele><time>2026-04-17T13:02:56.001Z</time></trkpt><trkpt lat="42.72541123060953" lon="12.186227080580753"><ele>296.5</ele><time>2026-04-17T13:02:57.001Z</time></trkpt><trkpt lat="42.725489805047864" lon="12.186218741280012"><ele>297.6666666666667</ele><time>2026-04-17T13:02:58.001Z</time></trkpt><trkpt lat="42.72556626406726" lon="12.186234068578276"><ele>298.8333333333333</ele><time>2026-04-17T13:02:59.001Z</time></trkpt><trkpt lat="42.725632663157185" lon="12.18624733877906"><ele>300.0</ele><time>2026-04-17T13:03:00.001Z</time></trkpt><trkpt lat="42.725706570497174" lon="12.186280045669955"><ele>300.0</ele><time>2026-04-17T13:03:01.001Z</time></trkpt><trkpt lat="42.725779192599276" lon="12.186305851214309"><ele>300.0</ele><time>2026-04-17T13:03:02.001Z</time></trkpt><trkpt lat="42.725831391690384" lon="12.186380101787472"><ele>300.0</ele><time>2026-04-17T13:03:03.001Z</time></trkpt><trkpt lat="42.725865209429735" lon="12.186454105368915"><ele>300.0</ele><time>2026-04-17T13:03:04.001Z</time></trkpt><trkpt lat="42.72584781704365" lon="12.186558671004853"><ele>300.0</ele><time>2026-04-17T13:03:05.001Z</time></trkpt><trkpt lat="42.72585367752693" lon="12.18665895753009"><ele>300.0</ele><time>2026-04-17T13:03:06.001Z</time></trkpt><trkpt lat="42.72586965750518" lon="12.186770186646878"><ele>300.0</ele><time>2026-04-17T13:03:07.001Z</time></trkpt><trkpt lat="42.72587869877588" lon="12.186867534067089"><ele>300.0</ele><time>2026-04-17T13:03:08.001Z</time></trkpt><trkpt lat="42.72596321962061" lon="12.186976999293543"><ele>300.0</ele><time>2026-04-17T13:03:10.001Z</time></trkpt><trkpt lat="42.72601847842452" lon="12.187072125422018"><ele>300.0</ele><time>2026-04-17T13:03:11.001Z</time></trkpt><trkpt lat="42.726113177311355" lon="12.187188267321337"><ele>300.0</ele><time>2026-04-17T13:03:12.001Z</time></trkpt><trkpt lat="42.72622651791829" lon="12.18733419448578"><ele>298.6666666666667</ele><time>2026-04-17T13:03:13.002Z</time></trkpt><trkpt lat="42.72634186007766" lon="12.187532751387838"><ele>297.33333333333337</ele><time>2026-04-17T13:03:14.002Z</time></trkpt><trkpt lat="42.72649392047414" lon="12.187743146978876"><ele>296.0</ele><time>2026-04-17T13:03:15.002Z</time></trkpt><trkpt lat="42.726644930663575" lon="12.187974635854754"><ele>296.6666666666667</ele><time>2026-04-17T13:03:16.002Z</time></trkpt><trkpt lat="42.72678259767194" lon="12.188187861795653"><ele>297.3333333333333</ele><time>2026-04-17T13:03:17.002Z</time></trkpt><trkpt lat="42.72689880114194" lon="12.188357703615953"><ele>298.0</ele><time>2026-04-17T13:03:18.002Z</time></trkpt><trkpt lat="42.72699812226193" lon="12.188499217477771"><ele>298.0</ele><time>2026-04-17T13:03:19.002Z</time></trkpt><trkpt lat="42.727090139791024" lon="12.188631356597345"><ele>298.0</ele><time>2026-04-17T13:03:20.002Z</time></trkpt><trkpt lat="42.727176116355" lon="12.188752315485498"><ele>298.0</ele><time>2026-04-17T13:03:21.002Z</time></trkpt><trkpt lat="42.727278705081176" lon="12.18888343423149"><ele>298.0</ele><time>2026-04-17T13:03:22.002Z</time></trkpt><trkpt lat="42.7273906499199" lon="12.189027636671586"><ele>299.5</ele><time>2026-04-17T13:03:23.002Z</time></trkpt><trkpt lat="42.72749030959343" lon="12.18915363009453"><ele>301.0</ele><time>2026-04-17T13:03:24.002Z</time></trkpt><trkpt lat="42.72760159032108" lon="12.189254478957949"><ele>302.5</ele><time>2026-04-17T13:03:25.002Z</time></trkpt><trkpt lat="42.72774609328192" lon="12.189374861321111"><ele>304.0</ele><time>2026-04-17T13:03:26.002Z</time></trkpt><trkpt lat="42.7279090889155" lon="12.189494279512697"><ele>305.0</ele><time>2026-04-17T13:03:27.002Z</time></trkpt><trkpt lat="42.72810141914068" lon="12.189620494859849"><ele>306.0</ele><time>2026-04-17T13:03:28.002Z</time></trkpt><trkpt lat="42.72830560173261" lon="12.189737403542685"><ele>307.0</ele><time>2026-04-17T13:03:29.002Z</time></trkpt><trkpt lat="42.7284845592667" lon="12.189837290647622"><ele>311.5</ele><time>2026-04-17T13:03:30.002Z</time></trkpt><trkpt lat="42.72863488262205" lon="12.189918810318227"><ele>316.0</ele><time>2026-04-17T13:03:31.002Z</time></trkpt><trkpt lat="42.72875558654974" lon="12.189982053938104"><ele>320.5</ele><time>2026-04-17T13:03:32.002Z</time></trkpt><trkpt lat="42.72884298600914" lon="12.190028230463858"><ele>325.0</ele><time>2026-04-17T13:03:33.002Z</time></trkpt><trkpt lat="42.72889941306628" lon="12.190088275144904"><ele>325.0</ele><time>2026-04-17T13:03:34.002Z</time></trkpt><trkpt lat="42.72892618688449" lon="12.190212021227044"><ele>325.0</ele><time>2026-04-17T13:03:37.002Z</time></trkpt><trkpt lat="42.7289001909716" lon="12.190317708504283"><ele>325.0</ele><time>2026-04-17T13:03:38.002Z</time></trkpt><trkpt lat="42.72887540505505" lon="12.190473701331852"><ele>325.0</ele><time>2026-04-17T13:03:39.002Z</time></trkpt><trkpt lat="42.728860447709465" lon="12.190661723177941"><ele>325.0</ele><time>2026-04-17T13:03:40.002Z</time></trkpt><trkpt lat="42.728843515712775" lon="12.190882705762958"><ele>324.75</ele><time>2026-04-17T13:03:41.002Z</time></trkpt><trkpt lat="42.72882664715553" lon="12.191100996645154"><ele>324.5</ele><time>2026-04-17T13:03:42.002Z</time></trkpt><trkpt lat="42.72881084950324" lon="12.191269499872176"><ele>324.25</ele><time>2026-04-17T13:03:43.002Z</time></trkpt><trkpt lat="42.72880638217648" lon="12.191395394199871"><ele>324.0</ele><time>2026-04-17T13:03:44.002Z</time></trkpt><trkpt lat="42.72877536689407" lon="12.191484441483952"><ele>323.5</ele><time>2026-04-17T13:03:45.002Z</time></trkpt><trkpt lat="42.72872313282158" lon="12.191554799119638"><ele>323.0</ele><time>2026-04-17T13:03:46.002Z</time></trkpt><trkpt lat="42.72863993426484" lon="12.191621429610253"><ele>322.5</ele><time>2026-04-17T13:03:47.002Z</time></trkpt><trkpt lat="42.72852023709261" lon="12.191687410111255"><ele>322.0</ele><time>2026-04-17T13:03:48.002Z</time></trkpt><trkpt lat="42.728374519168945" lon="12.191746776529374"><ele>318.3333333333333</ele><time>2026-04-17T13:03:49.002Z</time></trkpt><trkpt lat="42.72819883126339" lon="12.191814480203954"><ele>314.6666666666667</ele><time>2026-04-17T13:03:50.002Z</time></trkpt><trkpt lat="42.72799300874039" lon="12.191897815120608"><ele>311.0</ele><time>2026-04-17T13:03:51.003Z</time></trkpt><trkpt lat="42.72780899158139" lon="12.191962793845905"><ele>309.33333333333337</ele><time>2026-04-17T13:03:52.003Z</time></trkpt><trkpt lat="42.72762946982452" lon="12.192035063562829"><ele>307.6666666666667</ele><time>2026-04-17T13:03:53.003Z</time></trkpt><trkpt lat="42.72747394790041" lon="12.192102305365474"><ele>306.0</ele><time>2026-04-17T13:03:54.003Z</time></trkpt><trkpt lat="42.72731016786784" lon="12.1921797170238"><ele>306.0</ele><time>2026-04-17T13:03:55.003Z</time></trkpt><trkpt lat="42.727156679840604" lon="12.192220282699086"><ele>306.0</ele><time>2026-04-17T13:03:56.003Z</time></trkpt><trkpt lat="42.72702240999933" lon="12.192220914702158"><ele>306.0</ele><time>2026-04-17T13:03:57.003Z</time></trkpt><trkpt lat="42.72689706459728" lon="12.192246780805586"><ele>306.0</ele><time>2026-04-17T13:03:58.003Z</time></trkpt><trkpt lat="42.726753281289845" lon="12.19224118188059"><ele>305.0</ele><time>2026-04-17T13:03:59.003Z</time></trkpt><trkpt lat="42.72661006635363" lon="12.192228508073752"><ele>304.0</ele><time>2026-04-17T13:04:00.003Z</time></trkpt><trkpt lat="42.72649371850718" lon="12.192206106061525"><ele>303.0</ele><time>2026-04-17T13:04:01.003Z</time></trkpt><trkpt lat="42.72639329203042" lon="12.19217039455513"><ele>302.0</ele><time>2026-04-17T13:04:02.003Z</time></trkpt><trkpt lat="42.72631490363697" lon="12.19208439082803"><ele>302.0</ele><time>2026-04-17T13:04:03.003Z</time></trkpt><trkpt lat="42.72623866931498" lon="12.192001787989017"><ele>302.0</ele><time>2026-04-17T13:04:04.003Z</time></trkpt><trkpt lat="42.72618059354907" lon="12.191892666440705"><ele>302.0</ele><time>2026-04-17T13:04:05.003Z</time></trkpt><trkpt lat="42.72611860294847" lon="12.19177404621548"><ele>302.0</ele><time>2026-04-17T13:04:06.003Z</time></trkpt><trkpt lat="42.72606682445292" lon="12.191637867234467"><ele>302.0</ele><time>2026-04-17T13:04:07.003Z</time></trkpt><trkpt lat="42.72601666857143" lon="12.191515106528021"><ele>299.75</ele><time>2026-04-17T13:04:08.003Z</time></trkpt><trkpt lat="42.725953145744626" lon="12.191415691796207"><ele>297.5</ele><time>2026-04-17T13:04:09.003Z</time></trkpt><trkpt lat="42.725866495081696" lon="12.191291060198319"><ele>295.25</ele><time>2026-04-17T13:04:10.003Z</time></trkpt><trkpt lat="42.725768535925916" lon="12.191128814498773"><ele>293.0</ele><time>2026-04-17T13:04:11.003Z</time></trkpt><trkpt lat="42.72563547722154" lon="12.191006351191493"><ele>293.0</ele><time>2026-04-17T13:04:12.001Z</time></trkpt><trkpt lat="42.72548581528011" lon="12.19086220847966"><ele>293.0</ele><time>2026-04-17T13:04:13.001Z</time></trkpt><trkpt lat="42.725328136965594" lon="12.190717145535197"><ele>293.0</ele><time>2026-04-17T13:04:14.001Z</time></trkpt><trkpt lat="42.72517812651992" lon="12.190597259319064"><ele>290.75</ele><time>2026-04-17T13:04:15.001Z</time></trkpt><trkpt lat="42.72505663274186" lon="12.190501883833045"><ele>288.5</ele><time>2026-04-17T13:04:16.001Z</time></trkpt><trkpt lat="42.724944785886606" lon="12.190426231154317"><ele>286.25</ele><time>2026-04-17T13:04:17.001Z</time></trkpt><trkpt lat="42.72484459482885" lon="12.190370782129952"><ele>284.0</ele><time>2026-04-17T13:04:18.001Z</time></trkpt><trkpt lat="42.724731980802005" lon="12.190334407651552"><ele>284.0</ele><time>2026-04-17T13:04:19.001Z</time></trkpt><trkpt lat="42.724614292411815" lon="12.190326803398788"><ele>284.0</ele><time>2026-04-17T13:04:20.001Z</time></trkpt><trkpt lat="42.72447217897653" lon="12.190338383005988"><ele>284.0</ele><time>2026-04-17T13:04:21.001Z</time></trkpt><trkpt lat="42.72431201151234" lon="12.190369861447142"><ele>284.0</ele><time>2026-04-17T13:04:22.001Z</time></trkpt><trkpt lat="42.724137778297205" lon="12.190430953231173"><ele>284.33333333333337</ele><time>2026-04-17T13:04:23.001Z</time></trkpt><trkpt lat="42.72393636496775" lon="12.190513866127421"><ele>284.6666666666667</ele><time>2026-04-17T13:04:24.001Z</time></trkpt><trkpt lat="42.7237117795638" lon="12.19062112684289"><ele>285.0</ele><time>2026-04-17T13:04:25.001Z</time></trkpt><trkpt lat="42.72349992637263" lon="12.190720982130468"><ele>284.3333333333333</ele><time>2026-04-17T13:04:26.001Z</time></trkpt><trkpt lat="42.72330757704854" lon="12.190814963376207"><ele>283.66666666666663</ele><time>2026-04-17T13:04:27.001Z</time></trkpt><trkpt lat="42.72310072788138" lon="12.19091800020548"><ele>283.0</ele><time>2026-04-17T13:04:28.001Z</time></trkpt><trkpt lat="42.722869189585374" lon="12.191037481114167"><ele>278.5</ele><time>2026-04-17T13:04:29.001Z</time></trkpt><trkpt lat="42.72263367501169" lon="12.19116016018577"><ele>274.0</ele><time>2026-04-17T13:04:30.001Z</time></trkpt><trkpt lat="42.72242219327709" lon="12.19127034823354"><ele>274.0</ele><time>2026-04-17T13:04:31.001Z</time></trkpt><trkpt lat="42.7222238954343" lon="12.191374218921293"><ele>274.0</ele><time>2026-04-17T13:04:32.001Z</time></trkpt><trkpt lat="42.722035007817354" lon="12.19146607030667"><ele>274.0</ele><time>2026-04-17T13:04:33.001Z</time></trkpt><trkpt lat="42.72185193884186" lon="12.19155377909449"><ele>272.0</ele><time>2026-04-17T13:04:34.001Z</time></trkpt><trkpt lat="42.72167557424418" lon="12.191643330558101"><ele>270.0</ele><time>2026-04-17T13:04:35.001Z</time></trkpt><trkpt lat="42.7215256774036" lon="12.191719437177609"><ele>268.0</ele><time>2026-04-17T13:04:36.001Z</time></trkpt><trkpt lat="42.72139331226863" lon="12.191791629699086"><ele>268.0</ele><time>2026-04-17T13:04:37.001Z</time></trkpt><trkpt lat="42.72127975252281" lon="12.191854128348366"><ele>268.0</ele><time>2026-04-17T13:04:38.001Z</time></trkpt><trkpt lat="42.72117907318042" lon="12.19190809428443"><ele>268.0</ele><time>2026-04-17T13:04:39.001Z</time></trkpt><trkpt lat="42.721096034213865" lon="12.191952945920129"><ele>268.0</ele><time>2026-04-17T13:04:40.001Z</time></trkpt><trkpt lat="42.72102189380471" lon="12.19198845178594"><ele>268.0</ele><time>2026-04-17T13:04:41.001Z</time></trkpt><trkpt lat="42.72094496098322" lon="12.192016680833165"><ele>267.3333333333333</ele><time>2026-04-17T13:04:42.001Z</time></trkpt><trkpt lat="42.720866143756126" lon="12.192039091250734"><ele>266.66666666666663</ele><time>2026-04-17T13:04:43.001Z</time></trkpt><trkpt lat="42.720790320649826" lon="12.192067805068938"><ele>266.0</ele><time>2026-04-17T13:04:44.001Z</time></trkpt><trkpt lat="42.72071457654205" lon="12.192108740374277"><ele>265.3333333333333</ele><time>2026-04-17T13:04:45.001Z</time></trkpt><trkpt lat="42.720642956675384" lon="12.192170152679163"><ele>264.6666666666667</ele><time>2026-04-17T13:04:46.001Z</time></trkpt><trkpt lat="42.72056964493749" lon="12.19223745579137"><ele>264.0</ele><time>2026-04-17T13:04:47.001Z</time></trkpt><trkpt lat="42.72049983668731" lon="12.192312411529725"><ele>264.0</ele><time>2026-04-17T13:04:48.001Z</time></trkpt><trkpt lat="42.720413279223195" lon="12.192403635889919"><ele>264.0</ele><time>2026-04-17T13:04:49.001Z</time></trkpt><trkpt lat="42.72031429472443" lon="12.1925100557259"><ele>264.0</ele><time>2026-04-17T13:04:50.001Z</time></trkpt><trkpt lat="42.72020476311651" lon="12.192621641493112"><ele>264.0</ele><time>2026-04-17T13:04:51.001Z</time></trkpt><trkpt lat="42.720079045504875" lon="12.192743831904671"><ele>262.3333333333333</ele><time>2026-04-17T13:04:52.001Z</time></trkpt><trkpt lat="42.71993587474248" lon="12.192871759745648"><ele>260.66666666666663</ele><time>2026-04-17T13:04:53.001Z</time></trkpt><trkpt lat="42.71976765478731" lon="12.193026775011663"><ele>259.0</ele><time>2026-04-17T13:04:54.001Z</time></trkpt><trkpt lat="42.71960072081409" lon="12.193178392725686"><ele>257.66666666666663</ele><time>2026-04-17T13:04:55.001Z</time></trkpt><trkpt lat="42.719454330379904" lon="12.193309192406712"><ele>256.3333333333333</ele><time>2026-04-17T13:04:56.001Z</time></trkpt><trkpt lat="42.71932370945998" lon="12.193416638302095"><ele>255.0</ele><time>2026-04-17T13:04:57.001Z</time></trkpt><trkpt lat="42.719209890802276" lon="12.193509956422076"><ele>254.5</ele><time>2026-04-17T13:04:58.001Z</time></trkpt><trkpt lat="42.719121272576885" lon="12.193598286725548"><ele>254.0</ele><time>2026-04-17T13:04:59.001Z</time></trkpt><trkpt lat="42.719051864286314" lon="12.193701712487378"><ele>253.5</ele><time>2026-04-17T13:05:00.001Z</time></trkpt><trkpt lat="42.71898848880301" lon="12.193840028227834"><ele>253.0</ele><time>2026-04-17T13:05:01.001Z</time></trkpt><trkpt lat="42.718928818397565" lon="12.194025984297289"><ele>252.66666666666666</ele><time>2026-04-17T13:05:02.001Z</time></trkpt><trkpt lat="42.71886612271625" lon="12.194267875677903"><ele>252.33333333333331</ele><time>2026-04-17T13:05:03.001Z</time></trkpt><trkpt lat="42.71879815020659" lon="12.194546094801261"><ele>252.0</ele><time>2026-04-17T13:05:04.001Z</time></trkpt><trkpt lat="42.71874619470044" lon="12.194783391292964"><ele>250.0</ele><time>2026-04-17T13:05:05.001Z</time></trkpt><trkpt lat="42.71870336414635" lon="12.194955886033044"><ele>248.0</ele><time>2026-04-17T13:05:06.001Z</time></trkpt><trkpt lat="42.71866528401617" lon="12.195103988991447"><ele>246.0</ele><time>2026-04-17T13:05:07.001Z</time></trkpt><trkpt lat="42.71859601244765" lon="12.19520978254414"><ele>244.0</ele><time>2026-04-17T13:05:08.001Z</time></trkpt><trkpt lat="42.71853041978145" lon="12.195316294949421"><ele>243.25</ele><time>2026-04-17T13:05:09.001Z</time></trkpt><trkpt lat="42.71844650109409" lon="12.1954527003398"><ele>242.5</ele><time>2026-04-17T13:05:10.001Z</time></trkpt><trkpt lat="42.718342600928345" lon="12.195556133393831"><ele>241.75</ele><time>2026-04-17T13:05:11.002Z</time></trkpt><trkpt lat="42.71824318495345" lon="12.195644784798553"><ele>241.0</ele><time>2026-04-17T13:05:12.002Z</time></trkpt><trkpt lat="42.71814948179135" lon="12.195707664917986"><ele>240.75</ele><time>2026-04-17T13:05:13.002Z</time></trkpt><trkpt lat="42.71804680644497" lon="12.195689717072703"><ele>240.5</ele><time>2026-04-17T13:05:14.002Z</time></trkpt><trkpt lat="42.717910032216146" lon="12.195698257007496"><ele>240.25</ele><time>2026-04-17T13:05:15.002Z</time></trkpt><trkpt lat="42.71774308950648" lon="12.195717356143888"><ele>240.0</ele><time>2026-04-17T13:05:16.002Z</time></trkpt><trkpt lat="42.71754648642324" lon="12.195712411480825"><ele>237.5</ele><time>2026-04-17T13:05:17.002Z</time></trkpt><trkpt lat="42.71730865169747" lon="12.195725259173852"><ele>235.0</ele><time>2026-04-17T13:05:18.002Z</time></trkpt><trkpt lat="42.71705858396131" lon="12.195736447086365"><ele>234.33333333333331</ele><time>2026-04-17T13:05:19.002Z</time></trkpt><trkpt lat="42.71682308189778" lon="12.195748301673483"><ele>233.66666666666669</ele><time>2026-04-17T13:05:20.002Z</time></trkpt><trkpt lat="42.71661817574321" lon="12.19575761909257"><ele>233.0</ele><time>2026-04-17T13:05:21.002Z</time></trkpt><trkpt lat="42.71640702335478" lon="12.195765130092871"><ele>233.0</ele><time>2026-04-17T13:05:22.002Z</time></trkpt><trkpt lat="42.71617698974066" lon="12.195768481481625"><ele>233.0</ele><time>2026-04-17T13:05:23.002Z</time></trkpt><trkpt lat="42.71595889435014" lon="12.195774610124028"><ele>233.0</ele><time>2026-04-17T13:05:24.002Z</time></trkpt><trkpt lat="42.715757702652596" lon="12.195785257004525"><ele>231.33333333333334</ele><time>2026-04-17T13:05:25.002Z</time></trkpt><trkpt lat="42.71557641377055" lon="12.195796013900036"><ele>229.66666666666669</ele><time>2026-04-17T13:05:26.002Z</time></trkpt><trkpt lat="42.71541491126347" lon="12.195805871111025"><ele>228.0</ele><time>2026-04-17T13:05:27.002Z</time></trkpt><trkpt lat="42.71528454780357" lon="12.19580454089322"><ele>227.0</ele><time>2026-04-17T13:05:28.002Z</time></trkpt><trkpt lat="42.715178692405544" lon="12.195760420196217"><ele>226.0</ele><time>2026-04-17T13:05:29.002Z</time></trkpt><trkpt lat="42.71509794402377" lon="12.195697469116576"><ele>225.0</ele><time>2026-04-17T13:05:30.002Z</time></trkpt><trkpt lat="42.715020732923584" lon="12.195635385266936"><ele>224.0</ele><time>2026-04-17T13:05:31.002Z</time></trkpt><trkpt lat="42.714917074730934" lon="12.195528846102597"><ele>223.0</ele><time>2026-04-17T13:05:32.002Z</time></trkpt><trkpt lat="42.71481207952853" lon="12.19541841912085"><ele>222.25</ele><time>2026-04-17T13:05:33.002Z</time></trkpt><trkpt lat="42.71469596843403" lon="12.195319702396134"><ele>221.5</ele><time>2026-04-17T13:05:34.002Z</time></trkpt><trkpt lat="42.714585183463306" lon="12.195241897802523"><ele>220.75</ele><time>2026-04-17T13:05:35.002Z</time></trkpt><trkpt lat="42.714475250463096" lon="12.195178174420217"><ele>220.0</ele><time>2026-04-17T13:05:36.002Z</time></trkpt><trkpt lat="42.71436169954182" lon="12.195134831634284"><ele>219.4</ele><time>2026-04-17T13:05:37.002Z</time></trkpt><trkpt lat="42.71424370100146" lon="12.195138564258064"><ele>218.8</ele><time>2026-04-17T13:05:38.002Z</time></trkpt><trkpt lat="42.71413392265257" lon="12.19513995487518"><ele>218.2</ele><time>2026-04-17T13:05:39.002Z</time></trkpt><trkpt lat="42.71403047120838" lon="12.19514459485499"><ele>217.6</ele><time>2026-04-17T13:05:40.002Z</time></trkpt><trkpt lat="42.713929618371445" lon="12.195152388339299"><ele>217.0</ele><time>2026-04-17T13:05:41.002Z</time></trkpt><trkpt lat="42.71384167407409" lon="12.195156643033544"><ele>217.0</ele><time>2026-04-17T13:05:42.002Z</time></trkpt><trkpt lat="42.71376333542604" lon="12.195162100281292"><ele>217.0</ele><time>2026-04-17T13:05:43.002Z</time></trkpt><trkpt lat="42.71369281143532" lon="12.195165844108448"><ele>217.0</ele><time>2026-04-17T13:05:44.002Z</time></trkpt><trkpt lat="42.71362320507096" lon="12.195177198831331"><ele>217.0</ele><time>2026-04-17T13:05:45.002Z</time></trkpt><trkpt lat="42.71355199365397" lon="12.19519390035742"><ele>217.0</ele><time>2026-04-17T13:05:46.002Z</time></trkpt><trkpt lat="42.71348579152831" lon="12.195207821361013"><ele>217.0</ele><time>2026-04-17T13:05:47.002Z</time></trkpt><trkpt lat="42.713415251918725" lon="12.195217171570068"><ele>217.0</ele><time>2026-04-17T13:05:48.002Z</time></trkpt><trkpt lat="42.71334353008598" lon="12.195192847244522"><ele>216.49999999999997</ele><time>2026-04-17T13:05:49.002Z</time></trkpt><trkpt lat="42.7132650155691" lon="12.195179986706814"><ele>216.0</ele><time>2026-04-17T13:05:50.002Z</time></trkpt><trkpt lat="42.71318759547712" lon="12.195160579776857"><ele>215.5</ele><time>2026-04-17T13:05:51.002Z</time></trkpt><trkpt lat="42.71310881998941" lon="12.195137994357887"><ele>215.0</ele><time>2026-04-17T13:05:52.003Z</time></trkpt><trkpt lat="42.7130274951181" lon="12.195108114189571"><ele>214.49999999999997</ele><time>2026-04-17T13:05:53.003Z</time></trkpt><trkpt lat="42.71294837054569" lon="12.195077666109125"><ele>214.0</ele><time>2026-04-17T13:05:54.003Z</time></trkpt><trkpt lat="42.71286800082356" lon="12.195052628154826"><ele>214.00000000000003</ele><time>2026-04-17T13:05:55.003Z</time></trkpt><trkpt lat="42.71278436859721" lon="12.195053994127436"><ele>214.0</ele><time>2026-04-17T13:05:56.003Z</time></trkpt><trkpt lat="42.71271215699128" lon="12.195025381644765"><ele>214.0</ele><time>2026-04-17T13:05:57.003Z</time></trkpt><trkpt lat="42.71264720585328" lon="12.195019330376962"><ele>214.0</ele><time>2026-04-17T13:05:58.003Z</time></trkpt><trkpt lat="42.712576944047264" lon="12.195005542544715"><ele>214.0</ele><time>2026-04-17T13:05:59.003Z</time></trkpt><trkpt lat="42.712503406133756" lon="12.195006753528967"><ele>214.00000000000003</ele><time>2026-04-17T13:06:00.003Z</time></trkpt><trkpt lat="42.712424877418364" lon="12.195014882336002"><ele>214.0</ele><time>2026-04-17T13:06:01.003Z</time></trkpt><trkpt lat="42.71235741121816" lon="12.195026103929688"><ele>213.6</ele><time>2026-04-17T13:06:02.003Z</time></trkpt><trkpt lat="42.71224815429264" lon="12.194980163191538"><ele>213.2</ele><time>2026-04-17T13:06:04.003Z</time></trkpt><trkpt lat="42.71214765558597" lon="12.19485205093411"><ele>212.79999999999998</ele><time>2026-04-17T13:06:06.003Z</time></trkpt><trkpt lat="42.71205314077681" lon="12.194824294140508"><ele>212.39999999999998</ele><time>2026-04-17T13:06:07.003Z</time></trkpt><trkpt lat="42.71195407658201" lon="12.194845801516863"><ele>212.0</ele><time>2026-04-17T13:06:08.003Z</time></trkpt><trkpt lat="42.711853113083336" lon="12.19486813826013"><ele>211.8</ele><time>2026-04-17T13:06:09.003Z</time></trkpt><trkpt lat="42.71175331651768" lon="12.19490828002713"><ele>211.6</ele><time>2026-04-17T13:06:10.003Z</time></trkpt><trkpt lat="42.71165734320447" lon="12.194952783407606"><ele>211.4</ele><time>2026-04-17T13:06:11.003Z</time></trkpt><trkpt lat="42.711568799850745" lon="12.194996364291471"><ele>211.20000000000002</ele><time>2026-04-17T13:06:12.003Z</time></trkpt><trkpt lat="42.71147511808948" lon="12.195039808614794"><ele>211.0</ele><time>2026-04-17T13:06:13.003Z</time></trkpt><trkpt lat="42.71137684504073" lon="12.195088770686183"><ele>211.0</ele><time>2026-04-17T13:06:14.003Z</time></trkpt><trkpt lat="42.711274143783484" lon="12.195135028577068"><ele>211.0</ele><time>2026-04-17T13:06:15.003Z</time></trkpt><trkpt lat="42.711167212218676" lon="12.195179764314089"><ele>211.0</ele><time>2026-04-17T13:06:16.003Z</time></trkpt><trkpt lat="42.711064371798784" lon="12.195218393302797"><ele>211.0</ele><time>2026-04-17T13:06:17.003Z</time></trkpt><trkpt lat="42.710964358158215" lon="12.195250587154938"><ele>211.0</ele><time>2026-04-17T13:06:18.001Z</time></trkpt><trkpt lat="42.71085317978859" lon="12.195294390215192"><ele>209.25</ele><time>2026-04-17T13:06:19.001Z</time></trkpt><trkpt lat="42.7107213794902" lon="12.19534956711959"><ele>207.5</ele><time>2026-04-17T13:06:20.001Z</time></trkpt><trkpt lat="42.71057717720774" lon="12.195423762916633"><ele>205.75</ele><time>2026-04-17T13:06:21.001Z</time></trkpt><trkpt lat="42.71045398082721" lon="12.19548430614971"><ele>204.0</ele><time>2026-04-17T13:06:22.001Z</time></trkpt><trkpt lat="42.71034198122487" lon="12.195513286525205"><ele>202.0</ele><time>2026-04-17T13:06:23.001Z</time></trkpt><trkpt lat="42.710236288449" lon="12.195569593410925"><ele>200.0</ele><time>2026-04-17T13:06:24.001Z</time></trkpt><trkpt lat="42.710138681676185" lon="12.19563288000441"><ele>198.0</ele><time>2026-04-17T13:06:25.001Z</time></trkpt><trkpt lat="42.71004633303446" lon="12.195721637245995"><ele>196.0</ele><time>2026-04-17T13:06:26.001Z</time></trkpt><trkpt lat="42.70993680321665" lon="12.195788709303214"><ele>196.0</ele><time>2026-04-17T13:06:27.001Z</time></trkpt><trkpt lat="42.70981927388944" lon="12.195870538513391"><ele>196.0</ele><time>2026-04-17T13:06:28.001Z</time></trkpt><trkpt lat="42.70970741960037" lon="12.195944077992628"><ele>196.0</ele><time>2026-04-17T13:06:29.001Z</time></trkpt><trkpt lat="42.709589669279644" lon="12.196017671326171"><ele>196.0</ele><time>2026-04-17T13:06:30.001Z</time></trkpt><trkpt lat="42.709469138040376" lon="12.196096977616348"><ele>196.4</ele><time>2026-04-17T13:06:31.001Z</time></trkpt><trkpt lat="42.709359135185785" lon="12.196169949247235"><ele>196.8</ele><time>2026-04-17T13:06:32.001Z</time></trkpt><trkpt lat="42.70926521665017" lon="12.196241845789281"><ele>197.20000000000002</ele><time>2026-04-17T13:06:33.001Z</time></trkpt><trkpt lat="42.709186491672114" lon="12.196327255701917"><ele>197.60000000000002</ele><time>2026-04-17T13:06:34.001Z</time></trkpt><trkpt lat="42.70911554344281" lon="12.196435151103698"><ele>198.0</ele><time>2026-04-17T13:06:35.001Z</time></trkpt><trkpt lat="42.709041040960265" lon="12.196564707659986"><ele>197.0</ele><time>2026-04-17T13:06:36.001Z</time></trkpt><trkpt lat="42.70894929719898" lon="12.196678433403909"><ele>196.0</ele><time>2026-04-17T13:06:37.001Z</time></trkpt><trkpt lat="42.70885434232162" lon="12.196759254855921"><ele>195.0</ele><time>2026-04-17T13:06:38.001Z</time></trkpt><trkpt lat="42.708763929664464" lon="12.196811324460999"><ele>194.0</ele><time>2026-04-17T13:06:39.001Z</time></trkpt><trkpt lat="42.70864163572971" lon="12.196844879869994"><ele>196.5</ele><time>2026-04-17T13:06:40.001Z</time></trkpt><trkpt lat="42.70849645077021" lon="12.196866013115367"><ele>199.0</ele><time>2026-04-17T13:06:41.001Z</time></trkpt><trkpt lat="42.70836743464858" lon="12.196879722972634"><ele>201.5</ele><time>2026-04-17T13:06:42.001Z</time></trkpt><trkpt lat="42.7082566622838" lon="12.196903722116652"><ele>204.0</ele><time>2026-04-17T13:06:43.001Z</time></trkpt><trkpt lat="42.70816811359489" lon="12.196947932849223"><ele>204.0</ele><time>2026-04-17T13:06:44.001Z</time></trkpt><trkpt lat="42.708096708897735" lon="12.197004318525016"><ele>204.0</ele><time>2026-04-17T13:06:45.001Z</time></trkpt><trkpt lat="42.70800748696774" lon="12.197082800316648"><ele>204.0</ele><time>2026-04-17T13:06:46.001Z</time></trkpt><trkpt lat="42.70791268775761" lon="12.197213170925417"><ele>204.0</ele><time>2026-04-17T13:06:47.001Z</time></trkpt><trkpt lat="42.70780903020211" lon="12.197349904812631"><ele>202.79999999999998</ele><time>2026-04-17T13:06:48.001Z</time></trkpt><trkpt lat="42.70771677731087" lon="12.197456072288412"><ele>201.6</ele><time>2026-04-17T13:06:49.001Z</time></trkpt><trkpt lat="42.707637883376165" lon="12.197559393734128"><ele>200.4</ele><time>2026-04-17T13:06:50.001Z</time></trkpt><trkpt lat="42.707566151603" lon="12.197640133363555"><ele>199.2</ele><time>2026-04-17T13:06:51.001Z</time></trkpt><trkpt lat="42.707476753791596" lon="12.197711069819128"><ele>198.0</ele><time>2026-04-17T13:06:52.001Z</time></trkpt><trkpt lat="42.70737341189473" lon="12.197776148854674"><ele>198.0</ele><time>2026-04-17T13:06:53.001Z</time></trkpt><trkpt lat="42.707260139546804" lon="12.197788892069491"><ele>198.0</ele><time>2026-04-17T13:06:54.001Z</time></trkpt><trkpt lat="42.707152775321326" lon="12.197804242206498"><ele>198.0</ele><time>2026-04-17T13:06:55.001Z</time></trkpt><trkpt lat="42.707042249315904" lon="12.19779958012556"><ele>198.0</ele><time>2026-04-17T13:06:56.001Z</time></trkpt><trkpt lat="42.70694254642157" lon="12.197777771162533"><ele>198.0</ele><time>2026-04-17T13:06:57.001Z</time></trkpt><trkpt lat="42.70686530189673" lon="12.197724631858645"><ele>198.0</ele><time>2026-04-17T13:06:58.001Z</time></trkpt><trkpt lat="42.70678615500078" lon="12.197653299225141"><ele>198.0</ele><time>2026-04-17T13:06:59.001Z</time></trkpt><trkpt lat="42.70671689813268" lon="12.197559476009069"><ele>198.0</ele><time>2026-04-17T13:07:00.001Z</time></trkpt><trkpt lat="42.70663274785661" lon="12.19742917323184"><ele>198.0</ele><time>2026-04-17T13:07:01.001Z</time></trkpt><trkpt lat="42.70654424065793" lon="12.197294213205563"><ele>198.0</ele><time>2026-04-17T13:07:02.001Z</time></trkpt><trkpt lat="42.706473435840984" lon="12.197179727770331"><ele>198.0</ele><time>2026-04-17T13:07:03.001Z</time></trkpt><trkpt lat="42.706415234124414" lon="12.197080077989071"><ele>198.0</ele><time>2026-04-17T13:07:04.001Z</time></trkpt><trkpt lat="42.70634699056437" lon="12.196994936161815"><ele>198.0</ele><time>2026-04-17T13:07:05.001Z</time></trkpt><trkpt lat="42.70628648295329" lon="12.196928516657755"><ele>198.0</ele><time>2026-04-17T13:07:06.001Z</time></trkpt><trkpt lat="42.706203645079604" lon="12.196890842327688"><ele>198.0</ele><time>2026-04-17T13:07:07.001Z</time></trkpt><trkpt lat="42.706111784963824" lon="12.19687935743123"><ele>198.0</ele><time>2026-04-17T13:07:08.001Z</time></trkpt><trkpt lat="42.70601372955385" lon="12.196905889306716"><ele>198.0</ele><time>2026-04-17T13:07:09.001Z</time></trkpt><trkpt lat="42.70590609815649" lon="12.196949921672905"><ele>198.0</ele><time>2026-04-17T13:07:10.001Z</time></trkpt><trkpt lat="42.70581241190128" lon="12.197012269627825"><ele>198.0</ele><time>2026-04-17T13:07:11.001Z</time></trkpt><trkpt lat="42.70574531720987" lon="12.1970457231821"><ele>194.5</ele><time>2026-04-17T13:07:12.001Z</time></trkpt><trkpt lat="42.70566958208778" lon="12.196999199296242"><ele>191.0</ele><time>2026-04-17T13:07:13.001Z</time></trkpt><trkpt lat="42.70558273070841" lon="12.196958771432362"><ele>187.5</ele><time>2026-04-17T13:07:14.001Z</time></trkpt><trkpt lat="42.70544244873302" lon="12.196897772160073"><ele>184.0</ele><time>2026-04-17T13:07:15.001Z</time></trkpt><trkpt lat="42.70528287027948" lon="12.196834280567934"><ele>181.25</ele><time>2026-04-17T13:07:16.001Z</time></trkpt><trkpt lat="42.70512101196369" lon="12.196799293047345"><ele>178.5</ele><time>2026-04-17T13:07:17.001Z</time></trkpt><trkpt lat="42.70499336136182" lon="12.19675569053347"><ele>175.75</ele><time>2026-04-17T13:07:18.001Z</time></trkpt><trkpt lat="42.704872977150856" lon="12.196703658460395"><ele>173.0</ele><time>2026-04-17T13:07:19.001Z</time></trkpt><trkpt lat="42.70474929311212" lon="12.196668535623983"><ele>173.0</ele><time>2026-04-17T13:07:20.002Z</time></trkpt><trkpt lat="42.70463345161392" lon="12.196643809560594"><ele>173.0</ele><time>2026-04-17T13:07:21.002Z</time></trkpt><trkpt lat="42.70451252563721" lon="12.196630250347477"><ele>173.0</ele><time>2026-04-17T13:07:22.002Z</time></trkpt><trkpt lat="42.704385218628516" lon="12.196630447121773"><ele>173.0</ele><time>2026-04-17T13:07:23.002Z</time></trkpt><trkpt lat="42.704269849524685" lon="12.1966426053165"><ele>171.2</ele><time>2026-04-17T13:07:24.002Z</time></trkpt><trkpt lat="42.70416122086741" lon="12.196666168579268"><ele>169.4</ele><time>2026-04-17T13:07:25.002Z</time></trkpt><trkpt lat="42.70405829320471" lon="12.19669845192683"><ele>167.6</ele><time>2026-04-17T13:07:26.002Z</time></trkpt><trkpt lat="42.7039505996545" lon="12.196721838248937"><ele>165.79999999999998</ele><time>2026-04-17T13:07:27.002Z</time></trkpt><trkpt lat="42.7038339011592" lon="12.196752906208397"><ele>164.0</ele><time>2026-04-17T13:07:28.002Z</time></trkpt><trkpt lat="42.703708406527106" lon="12.196804203664113"><ele>164.0</ele><time>2026-04-17T13:07:29.002Z</time></trkpt><trkpt lat="42.70359202233948" lon="12.19687361897742"><ele>164.0</ele><time>2026-04-17T13:07:30.002Z</time></trkpt><trkpt lat="42.70348363695008" lon="12.196962694734852"><ele>164.0</ele><time>2026-04-17T13:07:31.002Z</time></trkpt><trkpt lat="42.70337788250135" lon="12.197077853294402"><ele>164.0</ele><time>2026-04-17T13:07:32.002Z</time></trkpt><trkpt lat="42.703272411904564" lon="12.19723182471438"><ele>160.5</ele><time>2026-04-17T13:07:33.002Z</time></trkpt><trkpt lat="42.703169298431746" lon="12.197409644700917"><ele>157.0</ele><time>2026-04-17T13:07:34.002Z</time></trkpt><trkpt lat="42.703076700406676" lon="12.19756393222198"><ele>153.5</ele><time>2026-04-17T13:07:35.002Z</time></trkpt><trkpt lat="42.7029957667278" lon="12.197694508497507"><ele>150.0</ele><time>2026-04-17T13:07:36.002Z</time></trkpt><trkpt lat="42.70290691559882" lon="12.197810345844045"><ele>150.0</ele><time>2026-04-17T13:07:37.002Z</time></trkpt><trkpt lat="42.70280854244214" lon="12.197920081967508"><ele>150.0</ele><time>2026-04-17T13:07:38.002Z</time></trkpt><trkpt lat="42.70271330990897" lon="12.19801539471002"><ele>150.0</ele><time>2026-04-17T13:07:39.002Z</time></trkpt><trkpt lat="42.702613416661706" lon="12.198120625946729"><ele>150.0</ele><time>2026-04-17T13:07:40.002Z</time></trkpt><trkpt lat="42.70250380518019" lon="12.198222698952636"><ele>147.75</ele><time>2026-04-17T13:07:41.002Z</time></trkpt><trkpt lat="42.70237238718332" lon="12.198316655106312"><ele>145.5</ele><time>2026-04-17T13:07:42.002Z</time></trkpt><trkpt lat="42.702237909428575" lon="12.198400132663753"><ele>143.25</ele><time>2026-04-17T13:07:43.002Z</time></trkpt><trkpt lat="42.70210310766196" lon="12.198469224084816"><ele>141.0</ele><time>2026-04-17T13:07:44.002Z</time></trkpt><trkpt lat="42.701975050516666" lon="12.19853771413612"><ele>140.0</ele><time>2026-04-17T13:07:45.002Z</time></trkpt><trkpt lat="42.701845096125176" lon="12.198610932286858"><ele>139.0</ele><time>2026-04-17T13:07:46.002Z</time></trkpt><trkpt lat="42.701713621703796" lon="12.198678390198776"><ele>138.0</ele><time>2026-04-17T13:07:47.002Z</time></trkpt><trkpt lat="42.701590267424194" lon="12.198726727642494"><ele>137.0</ele><time>2026-04-17T13:07:48.002Z</time></trkpt><trkpt lat="42.7014743941152" lon="12.198772908996261"><ele>137.0</ele><time>2026-04-17T13:07:49.002Z</time></trkpt><trkpt lat="42.70136538740364" lon="12.198833241708337"><ele>137.0</ele><time>2026-04-17T13:07:50.002Z</time></trkpt><trkpt lat="42.701252999821754" lon="12.198912830490777"><ele>137.0</ele><time>2026-04-17T13:07:51.002Z</time></trkpt><trkpt lat="42.70116809850543" lon="12.198992413338116"><ele>137.0</ele><time>2026-04-17T13:07:52.002Z</time></trkpt><trkpt lat="42.701094843296175" lon="12.19909363483562"><ele>134.6</ele><time>2026-04-17T13:07:53.002Z</time></trkpt><trkpt lat="42.70103407438397" lon="12.199224598051519"><ele>132.2</ele><time>2026-04-17T13:07:54.002Z</time></trkpt><trkpt lat="42.70097308014827" lon="12.19935819920581"><ele>129.8</ele><time>2026-04-17T13:07:55.002Z</time></trkpt><trkpt lat="42.70090519714109" lon="12.199472632407662"><ele>127.4</ele><time>2026-04-17T13:07:56.002Z</time></trkpt><trkpt lat="42.7008375805132" lon="12.199580717470214"><ele>125.0</ele><time>2026-04-17T13:07:57.002Z</time></trkpt><trkpt lat="42.70075120827174" lon="12.199654254559473"><ele>125.0</ele><time>2026-04-17T13:07:58.002Z</time></trkpt><trkpt lat="42.70065629442421" lon="12.199778531068327"><ele>125.0</ele><time>2026-04-17T13:07:59.002Z</time></trkpt><trkpt lat="42.70055174128209" lon="12.199876942196987"><ele>125.0</ele><time>2026-04-17T13:08:00.002Z</time></trkpt><trkpt lat="42.700465572611684" lon="12.19996075271687"><ele>125.0</ele><time>2026-04-17T13:08:01.002Z</time></trkpt><trkpt lat="42.70038723819546" lon="12.199998048258989"><ele>125.0</ele><time>2026-04-17T13:08:02.002Z</time></trkpt><trkpt lat="42.700326035097675" lon="12.20002805655056"><ele>124.16666666666666</ele><time>2026-04-17T13:08:03.002Z</time></trkpt><trkpt lat="42.70025335745565" lon="12.200030809916305"><ele>123.33333333333333</ele><time>2026-04-17T13:08:04.003Z</time></trkpt><trkpt lat="42.70017790050691" lon="12.199997072533577"><ele>122.5</ele><time>2026-04-17T13:08:05.003Z</time></trkpt><trkpt lat="42.70009545920538" lon="12.19993065974256"><ele>121.66666666666666</ele><time>2026-04-17T13:08:06.003Z</time></trkpt><trkpt lat="42.700024277122466" lon="12.199851196794393"><ele>120.83333333333333</ele><time>2026-04-17T13:08:07.003Z</time></trkpt><trkpt lat="42.69994998627517" lon="12.199766010580207"><ele>120.0</ele><time>2026-04-17T13:08:09.003Z</time></trkpt><trkpt lat="42.69988637452702" lon="12.199729251750398"><ele>116.25</ele><time>2026-04-17T13:08:14.003Z</time></trkpt><trkpt lat="42.69989802989858" lon="12.199952107043593"><ele>112.5</ele><time>2026-04-17T13:08:16.003Z</time></trkpt><trkpt lat="42.699984137191066" lon="12.200091031819834"><ele>108.75</ele><time>2026-04-17T13:08:17.003Z</time></trkpt><trkpt lat="42.70003541476046" lon="12.20024791884265"><ele>105.0</ele><time>2026-04-17T13:08:18.003Z</time></trkpt><trkpt lat="42.70007949922863" lon="12.20041475464806"><ele>105.0</ele><time>2026-04-17T13:08:19.003Z</time></trkpt><trkpt lat="42.70010091023331" lon="12.200641176614141"><ele>105.0</ele><time>2026-04-17T13:08:20.003Z</time></trkpt><trkpt lat="42.70012931255473" lon="12.200908010238328"><ele>105.0</ele><time>2026-04-17T13:08:21.003Z</time></trkpt><trkpt lat="42.70017597416613" lon="12.201214560251366"><ele>101.5</ele><time>2026-04-17T13:08:22.003Z</time></trkpt><trkpt lat="42.700218115485335" lon="12.201560302964102"><ele>98.0</ele><time>2026-04-17T13:08:23.003Z</time></trkpt><trkpt lat="42.700245235138546" lon="12.201940282213487"><ele>105.5</ele><time>2026-04-17T13:08:24.001Z</time></trkpt><trkpt lat="42.70028637093378" lon="12.202312923613267"><ele>113.0</ele><time>2026-04-17T13:08:25.001Z</time></trkpt><trkpt lat="42.7003437586982" lon="12.20270056672635"><ele>113.0</ele><time>2026-04-17T13:08:26.001Z</time></trkpt><trkpt lat="42.700387350496264" lon="12.203108869407863"><ele>113.0</ele><time>2026-04-17T13:08:27.001Z</time></trkpt><trkpt lat="42.70043363845445" lon="12.203502757303498"><ele>109.5</ele><time>2026-04-17T13:08:28.001Z</time></trkpt><trkpt lat="42.70046291991403" lon="12.203912468265107"><ele>106.0</ele><time>2026-04-17T13:08:29.001Z</time></trkpt><trkpt lat="42.700503338886" lon="12.204285027850483"><ele>104.5</ele><time>2026-04-17T13:08:30.001Z</time></trkpt><trkpt lat="42.7005405116697" lon="12.204633660981884"><ele>103.0</ele><time>2026-04-17T13:08:31.001Z</time></trkpt><trkpt lat="42.700575383162935" lon="12.204960086236674"><ele>103.0</ele><time>2026-04-17T13:08:32.001Z</time></trkpt><trkpt lat="42.70062474224655" lon="12.205251735842166"><ele>103.0</ele><time>2026-04-17T13:08:33.001Z</time></trkpt><trkpt lat="42.70065125957625" lon="12.205530931065914"><ele>103.0</ele><time>2026-04-17T13:08:34.001Z</time></trkpt><trkpt lat="42.7006993451679" lon="12.205792788298504"><ele>103.0</ele><time>2026-04-17T13:08:35.001Z</time></trkpt><trkpt lat="42.70074856321322" lon="12.206031184363201"><ele>103.0</ele><time>2026-04-17T13:08:36.001Z</time></trkpt><trkpt lat="42.70080665711992" lon="12.206233209382846"><ele>103.0</ele><time>2026-04-17T13:08:37.001Z</time></trkpt><trkpt lat="42.70084575756592" lon="12.206416955073955"><ele>103.5</ele><time>2026-04-17T13:08:38.001Z</time></trkpt><trkpt lat="42.70088586656455" lon="12.206571764417163"><ele>104.0</ele><time>2026-04-17T13:08:39.001Z</time></trkpt><trkpt lat="42.700912708157496" lon="12.206712774200051"><ele>104.5</ele><time>2026-04-17T13:08:40.001Z</time></trkpt><trkpt lat="42.70092005455891" lon="12.20686388454452"><ele>105.0</ele><time>2026-04-17T13:08:41.001Z</time></trkpt><trkpt lat="42.700900543864115" lon="12.207012779995711"><ele>105.0</ele><time>2026-04-17T13:08:42.001Z</time></trkpt><trkpt lat="42.700825644475906" lon="12.207166502528075"><ele>105.0</ele><time>2026-04-17T13:08:43.001Z</time></trkpt><trkpt lat="42.70079250122654" lon="12.20736807243481"><ele>105.0</ele><time>2026-04-17T13:08:44.001Z</time></trkpt><trkpt lat="42.70075404817635" lon="12.207597739329955"><ele>105.33333333333334</ele><time>2026-04-17T13:08:45.001Z</time></trkpt><trkpt lat="42.70073500971235" lon="12.207855593151148"><ele>105.66666666666667</ele><time>2026-04-17T13:08:46.001Z</time></trkpt><trkpt lat="42.70073086676584" lon="12.208143799154794"><ele>106.0</ele><time>2026-04-17T13:08:47.001Z</time></trkpt><trkpt lat="42.70072209026941" lon="12.208449591513649"><ele>106.0</ele><time>2026-04-17T13:08:48.001Z</time></trkpt><trkpt lat="42.70071381443306" lon="12.208739522397869"><ele>106.0</ele><time>2026-04-17T13:08:49.001Z</time></trkpt><trkpt lat="42.70071344293778" lon="12.20899216441636"><ele>106.0</ele><time>2026-04-17T13:08:50.001Z</time></trkpt><trkpt lat="42.700736041011616" lon="12.20923647053347"><ele>106.33333333333334</ele><time>2026-04-17T13:08:51.001Z</time></trkpt><trkpt lat="42.70080107546855" lon="12.20950811970826"><ele>106.66666666666666</ele><time>2026-04-17T13:08:52.001Z</time></trkpt><trkpt lat="42.70089330787199" lon="12.209799622708061"><ele>107.0</ele><time>2026-04-17T13:08:53.001Z</time></trkpt><trkpt lat="42.700990329075076" lon="12.210117331565234"><ele>107.0</ele><time>2026-04-17T13:08:54.001Z</time></trkpt><trkpt lat="42.70106341348632" lon="12.21044908681159"><ele>107.0</ele><time>2026-04-17T13:08:55.001Z</time></trkpt><trkpt lat="42.70113693439538" lon="12.210719845590283"><ele>107.33333333333333</ele><time>2026-04-17T13:08:56.001Z</time></trkpt><trkpt lat="42.70121677583088" lon="12.210950522389817"><ele>107.66666666666666</ele><time>2026-04-17T13:08:57.001Z</time></trkpt><trkpt lat="42.70123900507606" lon="12.211157341765013"><ele>108.0</ele><time>2026-04-17T13:08:58.001Z</time></trkpt><trkpt lat="42.70128242386539" lon="12.21138538983304"><ele>109.33333333333334</ele><time>2026-04-17T13:08:59.001Z</time></trkpt><trkpt lat="42.70130310141837" lon="12.211666730243975"><ele>110.66666666666667</ele><time>2026-04-17T13:09:00.001Z</time></trkpt><trkpt lat="42.70133646003644" lon="12.211980492377373"><ele>112.0</ele><time>2026-04-17T13:09:01.001Z</time></trkpt><trkpt lat="42.701376440089206" lon="12.212321022846687"><ele>112.0</ele><time>2026-04-17T13:09:02.001Z</time></trkpt><trkpt lat="42.70139752328628" lon="12.212681341179328"><ele>112.0</ele><time>2026-04-17T13:09:03.001Z</time></trkpt><trkpt lat="42.701447059018236" lon="12.21301149158537"><ele>111.5</ele><time>2026-04-17T13:09:04.001Z</time></trkpt><trkpt lat="42.701475034934965" lon="12.213324401867835"><ele>111.0</ele><time>2026-04-17T13:09:05.001Z</time></trkpt><trkpt lat="42.70150341100478" lon="12.213637957420534"><ele>111.0</ele><time>2026-04-17T13:09:06.001Z</time></trkpt><trkpt lat="42.70153319893611" lon="12.213956534782428"><ele>111.0</ele><time>2026-04-17T13:09:07.001Z</time></trkpt><trkpt lat="42.701563482554505" lon="12.214283245952307"><ele>111.0</ele><time>2026-04-17T13:09:08.001Z</time></trkpt><trkpt lat="42.70159440962727" lon="12.21460643375886"><ele>111.0</ele><time>2026-04-17T13:09:09.001Z</time></trkpt><trkpt lat="42.70162490716358" lon="12.214926912955816"><ele>111.0</ele><time>2026-04-17T13:09:10.001Z</time></trkpt><trkpt lat="42.70165712755745" lon="12.215254839606976"><ele>111.0</ele><time>2026-04-17T13:09:11.001Z</time></trkpt><trkpt lat="42.70168909759306" lon="12.215596970345175"><ele>110.0</ele><time>2026-04-17T13:09:12.001Z</time></trkpt><trkpt lat="42.701718976911" lon="12.215939820126549"><ele>109.0</ele><time>2026-04-17T13:09:13.001Z</time></trkpt><trkpt lat="42.70174976128725" lon="12.216258314361031"><ele>108.5</ele><time>2026-04-17T13:09:14.001Z</time></trkpt><trkpt lat="42.701765584345225" lon="12.216583910954284"><ele>108.0</ele><time>2026-04-17T13:09:15.001Z</time></trkpt><trkpt lat="42.70179899198612" lon="12.216933323734374"><ele>108.0</ele><time>2026-04-17T13:09:16.001Z</time></trkpt><trkpt lat="42.70183255215178" lon="12.217300395313488"><ele>108.0</ele><time>2026-04-17T13:09:17.001Z</time></trkpt><trkpt lat="42.70186568433833" lon="12.217662785703451"><ele>107.5</ele><time>2026-04-17T13:09:18.001Z</time></trkpt><trkpt lat="42.701909820843206" lon="12.217992283903405"><ele>107.0</ele><time>2026-04-17T13:09:19.001Z</time></trkpt><trkpt lat="42.70193323626024" lon="12.218299030022623"><ele>108.66666666666666</ele><time>2026-04-17T13:09:20.001Z</time></trkpt><trkpt lat="42.70195792905415" lon="12.218592561878134"><ele>110.33333333333334</ele><time>2026-04-17T13:09:21.001Z</time></trkpt><trkpt lat="42.70198618852731" lon="12.21888173989097"><ele>112.0</ele><time>2026-04-17T13:09:22.001Z</time></trkpt><trkpt lat="42.70199696173493" lon="12.219177644118105"><ele>113.5</ele><time>2026-04-17T13:09:23.001Z</time></trkpt><trkpt lat="42.7020239149375" lon="12.219473866291462"><ele>115.0</ele><time>2026-04-17T13:09:24.001Z</time></trkpt><trkpt lat="42.70205199339411" lon="12.21978876357647"><ele>114.5</ele><time>2026-04-17T13:09:25.001Z</time></trkpt><trkpt lat="42.70208221636996" lon="12.220126275341656"><ele>114.0</ele><time>2026-04-17T13:09:26.001Z</time></trkpt><trkpt lat="42.70211031558513" lon="12.220440070294712"><ele>114.33333333333334</ele><time>2026-04-17T13:09:27.001Z</time></trkpt><trkpt lat="42.702134470636345" lon="12.220709819429075"><ele>114.66666666666667</ele><time>2026-04-17T13:09:28.001Z</time></trkpt><trkpt lat="42.70215620255483" lon="12.220952508417502"><ele>115.0</ele><time>2026-04-17T13:09:29.001Z</time></trkpt><trkpt lat="42.7021769240626" lon="12.221183913200674"><ele>115.0</ele><time>2026-04-17T13:09:30.001Z</time></trkpt><trkpt lat="42.70219747433881" lon="12.221413406175184"><ele>115.0</ele><time>2026-04-17T13:09:31.001Z</time></trkpt><trkpt lat="42.7022380738313" lon="12.221626603526353"><ele>115.0</ele><time>2026-04-17T13:09:32.001Z</time></trkpt><trkpt lat="42.702274418782885" lon="12.221833312994267"><ele>114.33333333333334</ele><time>2026-04-17T13:09:33.001Z</time></trkpt><trkpt lat="42.70234736076676" lon="12.22205009325235"><ele>113.66666666666666</ele><time>2026-04-17T13:09:34.002Z</time></trkpt><trkpt lat="42.70244620728882" lon="12.222275460305243"><ele>113.0</ele><time>2026-04-17T13:09:35.002Z</time></trkpt><trkpt lat="42.70252720617828" lon="12.222502316475273"><ele>112.5</ele><time>2026-04-17T13:09:36.002Z</time></trkpt><trkpt lat="42.70260896884575" lon="12.222690448971898"><ele>112.0</ele><time>2026-04-17T13:09:37.002Z</time></trkpt><trkpt lat="42.702673446023134" lon="12.222840224181287"><ele>111.5</ele><time>2026-04-17T13:09:38.002Z</time></trkpt><trkpt lat="42.702732874895425" lon="12.222978146586863"><ele>111.0</ele><time>2026-04-17T13:09:39.002Z</time></trkpt><trkpt lat="42.70278679569421" lon="12.223120402776178"><ele>110.75</ele><time>2026-04-17T13:09:40.002Z</time></trkpt><trkpt lat="42.70283074631848" lon="12.223269174833312"><ele>110.5</ele><time>2026-04-17T13:09:41.002Z</time></trkpt><trkpt lat="42.702824144630924" lon="12.223453856172158"><ele>110.25</ele><time>2026-04-17T13:09:42.002Z</time></trkpt><trkpt lat="42.70275669995824" lon="12.22364126837551"><ele>110.0</ele><time>2026-04-17T13:09:43.002Z</time></trkpt><trkpt lat="42.70272809150884" lon="12.22385723438678"><ele>110.5</ele><time>2026-04-17T13:09:44.002Z</time></trkpt><trkpt lat="42.70268771209237" lon="12.22404329355994"><ele>111.0</ele><time>2026-04-17T13:09:45.002Z</time></trkpt><trkpt lat="42.70267294871572" lon="12.224206206161947"><ele>111.5</ele><time>2026-04-17T13:09:46.002Z</time></trkpt><trkpt lat="42.70267549234184" lon="12.224356343707912"><ele>112.0</ele><time>2026-04-17T13:09:47.002Z</time></trkpt><trkpt lat="42.70270290368217" lon="12.22450601798596"><ele>114.5</ele><time>2026-04-17T13:09:48.002Z</time></trkpt><trkpt lat="42.70274837599591" lon="12.22465130506776"><ele>117.0</ele><time>2026-04-17T13:09:49.002Z</time></trkpt><trkpt lat="42.70280791353462" lon="12.224789831153496"><ele>119.5</ele><time>2026-04-17T13:09:50.002Z</time></trkpt><trkpt lat="42.70288311452376" lon="12.224923802494683"><ele>122.0</ele><time>2026-04-17T13:09:51.002Z</time></trkpt><trkpt lat="42.70295588728935" lon="12.225041363262854"><ele>121.99999999999999</ele><time>2026-04-17T13:09:52.002Z</time></trkpt><trkpt lat="42.70301771058214" lon="12.225146545554196"><ele>122.0</ele><time>2026-04-17T13:09:53.002Z</time></trkpt><trkpt lat="42.70307295384208" lon="12.225246842010808"><ele>122.0</ele><time>2026-04-17T13:09:54.002Z</time></trkpt><trkpt lat="42.703125349772655" lon="12.225332485992057"><ele>122.0</ele><time>2026-04-17T13:09:55.002Z</time></trkpt><trkpt lat="42.70318386662489" lon="12.2253984554994"><ele>121.99999999999999</ele><time>2026-04-17T13:09:56.002Z</time></trkpt><trkpt lat="42.703249894633316" lon="12.225430907040371"><ele>122.0</ele><time>2026-04-17T13:09:57.002Z</time></trkpt><trkpt lat="42.703318989033754" lon="12.225435554640228"><ele>122.0</ele><time>2026-04-17T13:09:58.002Z</time></trkpt><trkpt lat="42.70338954992238" lon="12.22541072362999"><ele>121.99999999999999</ele><time>2026-04-17T13:09:59.002Z</time></trkpt><trkpt lat="42.7034811645947" lon="12.225386627565667"><ele>121.99999999999999</ele><time>2026-04-17T13:10:00.002Z</time></trkpt><trkpt lat="42.70356183731365" lon="12.225375007213225"><ele>122.0</ele><time>2026-04-17T13:10:01.002Z</time></trkpt><trkpt lat="42.70344086736301" lon="12.225409923984921"><ele>122.0</ele><time>2026-04-17T13:10:07.002Z</time></trkpt><trkpt lat="42.70333685985229" lon="12.225433362528754"><ele>122.0</ele><time>2026-04-17T13:10:08.002Z</time></trkpt><trkpt lat="42.70323778278965" lon="12.225445040959592"><ele>122.0</ele><time>2026-04-17T13:10:09.002Z</time></trkpt><trkpt lat="42.703145441562306" lon="12.225416115797207"><ele>122.0</ele><time>2026-04-17T13:10:10.002Z</time></trkpt><trkpt lat="42.70307308917706" lon="12.225247001414772"><ele>122.0</ele><time>2026-04-17T13:10:11.002Z</time></trkpt><trkpt lat="42.70300381637981" lon="12.225111532947254"><ele>122.0</ele><time>2026-04-17T13:10:12.002Z</time></trkpt><trkpt lat="42.702933680689824" lon="12.22496539606004"><ele>121.99999999999999</ele><time>2026-04-17T13:10:13.002Z</time></trkpt><trkpt lat="42.70287373372572" lon="12.22486148208546"><ele>121.99999999999999</ele><time>2026-04-17T13:10:14.002Z</time></trkpt><trkpt lat="42.70283129738855" lon="12.22479119843788"><ele>122.0</ele><time>2026-04-17T13:10:15.002Z</time></trkpt><trkpt lat="42.70279481070889" lon="12.224687847295073"><ele>122.0</ele><time>2026-04-17T13:10:17.002Z</time></trkpt><trkpt lat="42.702650477162955" lon="12.22486294775199"><ele>122.0</ele><time>2026-04-17T13:10:19.002Z</time></trkpt><trkpt lat="42.702652789677686" lon="12.225003223722474"><ele>122.0</ele><time>2026-04-17T13:10:20.002Z</time></trkpt><trkpt lat="42.70270058537103" lon="12.225151178666867"><ele>122.0</ele><time>2026-04-17T13:10:21.002Z</time></trkpt><trkpt lat="42.702791641831105" lon="12.22533189026182"><ele>122.0</ele><time>2026-04-17T13:10:22.002Z</time></trkpt><trkpt lat="42.7028747440465" lon="12.225530219674303"><ele>120.25</ele><time>2026-04-17T13:10:23.003Z</time></trkpt><trkpt lat="42.70296538106356" lon="12.225705909275215"><ele>118.5</ele><time>2026-04-17T13:10:24.003Z</time></trkpt><trkpt lat="42.70304068995576" lon="12.225838600500964"><ele>116.75</ele><time>2026-04-17T13:10:25.003Z</time></trkpt><trkpt lat="42.70310691003821" lon="12.225952331643507"><ele>115.0</ele><time>2026-04-17T13:10:26.003Z</time></trkpt><trkpt lat="42.70317117937146" lon="12.226045607954434"><ele>115.00000000000001</ele><time>2026-04-17T13:10:27.003Z</time></trkpt><trkpt lat="42.70319871668196" lon="12.226145287188038"><ele>115.0</ele><time>2026-04-17T13:10:28.003Z</time></trkpt><trkpt lat="42.70320803610025" lon="12.22626704496384"><ele>115.0</ele><time>2026-04-17T13:10:29.003Z</time></trkpt><trkpt lat="42.70319792521419" lon="12.22639218382702"><ele>115.0</ele><time>2026-04-17T13:10:30.001Z</time></trkpt><trkpt lat="42.70316867865044" lon="12.226489229079714"><ele>115.00000000000001</ele><time>2026-04-17T13:10:31.001Z</time></trkpt><trkpt lat="42.703122251563585" lon="12.22657585080169"><ele>115.0</ele><time>2026-04-17T13:10:32.001Z</time></trkpt><trkpt lat="42.703069437120035" lon="12.226670222826233"><ele>114.4</ele><time>2026-04-17T13:10:33.001Z</time></trkpt><trkpt lat="42.70302495635619" lon="12.226772149252016"><ele>113.8</ele><time>2026-04-17T13:10:34.001Z</time></trkpt><trkpt lat="42.70300729948437" lon="12.226880736990795"><ele>113.19999999999999</ele><time>2026-04-17T13:10:35.001Z</time></trkpt><trkpt lat="42.703016190382094" lon="12.227004638073687"><ele>112.6</ele><time>2026-04-17T13:10:36.001Z</time></trkpt><trkpt lat="42.70304234015634" lon="12.227141328257362"><ele>112.0</ele><time>2026-04-17T13:10:37.001Z</time></trkpt><trkpt lat="42.70308312469027" lon="12.22731384940126"><ele>111.25</ele><time>2026-04-17T13:10:38.001Z</time></trkpt><trkpt lat="42.70310367539337" lon="12.227483936022105"><ele>110.5</ele><time>2026-04-17T13:10:39.001Z</time></trkpt><trkpt lat="42.70315606366338" lon="12.227644995650452"><ele>109.75</ele><time>2026-04-17T13:10:40.001Z</time></trkpt><trkpt lat="42.70321582895231" lon="12.227780236165577"><ele>109.0</ele><time>2026-04-17T13:10:41.001Z</time></trkpt><trkpt lat="42.70327448562416" lon="12.22788992586149"><ele>109.00000000000001</ele><time>2026-04-17T13:10:42.001Z</time></trkpt><trkpt lat="42.7032947846591" lon="12.22800475407438"><ele>109.0</ele><time>2026-04-17T13:10:43.001Z</time></trkpt><trkpt lat="42.70329374865419" lon="12.228095432791855"><ele>109.0</ele><time>2026-04-17T13:10:44.001Z</time></trkpt><trkpt lat="42.70325661886433" lon="12.22817122295082"><ele>109.0</ele><time>2026-04-17T13:10:45.001Z</time></trkpt><trkpt lat="42.70314153013259" lon="12.228233726454402"><ele>109.00000000000001</ele><time>2026-04-17T13:10:47.001Z</time></trkpt><trkpt lat="42.70305759029354" lon="12.228209920194704"><ele>109.0</ele><time>2026-04-17T13:10:48.001Z</time></trkpt><trkpt lat="42.702966587270204" lon="12.228183767434365"><ele>107.4</ele><time>2026-04-17T13:10:49.001Z</time></trkpt><trkpt lat="42.70285349165057" lon="12.228175758881484"><ele>105.80000000000001</ele><time>2026-04-17T13:10:50.001Z</time></trkpt><trkpt lat="42.70273553892188" lon="12.228133962630617"><ele>104.19999999999999</ele><time>2026-04-17T13:10:51.001Z</time></trkpt><trkpt lat="42.7026255271444" lon="12.228106483494026"><ele>102.6</ele><time>2026-04-17T13:10:52.001Z</time></trkpt><trkpt lat="42.702524663664136" lon="12.228087213955172"><ele>101.0</ele><time>2026-04-17T13:10:53.001Z</time></trkpt><trkpt lat="42.70242324578074" lon="12.22806468377315"><ele>100.0</ele><time>2026-04-17T13:10:54.001Z</time></trkpt><trkpt lat="42.70230636096176" lon="12.228031714052934"><ele>99.0</ele><time>2026-04-17T13:10:55.001Z</time></trkpt><trkpt lat="42.70219503849428" lon="12.228006052609889"><ele>98.0</ele><time>2026-04-17T13:10:56.001Z</time></trkpt><trkpt lat="42.7020911595107" lon="12.227998940342843"><ele>97.0</ele><time>2026-04-17T13:10:57.001Z</time></trkpt><trkpt lat="42.70198181619134" lon="12.228043895022607"><ele>98.0</ele><time>2026-04-17T13:10:58.001Z</time></trkpt><trkpt lat="42.70185949988478" lon="12.228128205778228"><ele>99.0</ele><time>2026-04-17T13:10:59.001Z</time></trkpt><trkpt lat="42.70172820587438" lon="12.228224094509587"><ele>100.0</ele><time>2026-04-17T13:11:00.001Z</time></trkpt><trkpt lat="42.701584427512394" lon="12.228311704142268"><ele>101.0</ele><time>2026-04-17T13:11:01.001Z</time></trkpt><trkpt lat="42.701425338078934" lon="12.228366994704638"><ele>102.33333333333333</ele><time>2026-04-17T13:11:02.001Z</time></trkpt><trkpt lat="42.70125200228044" lon="12.228458552856601"><ele>103.66666666666666</ele><time>2026-04-17T13:11:03.001Z</time></trkpt><trkpt lat="42.70111281554024" lon="12.228576090631318"><ele>105.0</ele><time>2026-04-17T13:11:04.001Z</time></trkpt><trkpt lat="42.7009760473083" lon="12.22864678852286"><ele>106.33333333333334</ele><time>2026-04-17T13:11:05.001Z</time></trkpt><trkpt lat="42.70081531461658" lon="12.228706026281385"><ele>107.66666666666667</ele><time>2026-04-17T13:11:06.001Z</time></trkpt><trkpt lat="42.70062777097131" lon="12.228762619182296"><ele>109.0</ele><time>2026-04-17T13:11:07.001Z</time></trkpt><trkpt lat="42.70039437727018" lon="12.228829956323036"><ele>109.66666666666667</ele><time>2026-04-17T13:11:08.001Z</time></trkpt><trkpt lat="42.70016774304344" lon="12.228903711195281"><ele>110.33333333333334</ele><time>2026-04-17T13:11:09.001Z</time></trkpt><trkpt lat="42.69997867548025" lon="12.228973086708269"><ele>111.0</ele><time>2026-04-17T13:11:10.001Z</time></trkpt><trkpt lat="42.69981392421981" lon="12.22902967447305"><ele>111.6</ele><time>2026-04-17T13:11:11.001Z</time></trkpt><trkpt lat="42.69969320194195" lon="12.229075913333148"><ele>112.19999999999999</ele><time>2026-04-17T13:11:12.001Z</time></trkpt><trkpt lat="42.69959820024081" lon="12.22910037205304"><ele>112.80000000000001</ele><time>2026-04-17T13:11:13.001Z</time></trkpt><trkpt lat="42.69950981409676" lon="12.229098045090344"><ele>113.4</ele><time>2026-04-17T13:11:14.001Z</time></trkpt><trkpt lat="42.69943990544286" lon="12.22904185527354"><ele>114.0</ele><time>2026-04-17T13:11:15.001Z</time></trkpt><trkpt lat="42.699399249724344" lon="12.228928840138517"><ele>117.0</ele><time>2026-04-17T13:11:16.001Z</time></trkpt><trkpt lat="42.699334826107226" lon="12.228793233569567"><ele>120.0</ele><time>2026-04-17T13:11:17.001Z</time></trkpt><trkpt lat="42.69927490815451" lon="12.228685861332174"><ele>123.0</ele><time>2026-04-17T13:11:18.001Z</time></trkpt><trkpt lat="42.69923352260161" lon="12.22859954041624"><ele>126.0</ele><time>2026-04-17T13:11:19.001Z</time></trkpt><trkpt lat="42.69917166974116" lon="12.228464608237806"><ele>129.0</ele><time>2026-04-17T13:11:20.001Z</time></trkpt><trkpt lat="42.69909600925083" lon="12.228276200418048"><ele>128.8</ele><time>2026-04-17T13:11:21.001Z</time></trkpt><trkpt lat="42.69903447085691" lon="12.228090352988863"><ele>128.60000000000002</ele><time>2026-04-17T13:11:22.001Z</time></trkpt><trkpt lat="42.69900059871328" lon="12.227948052275948"><ele>128.4</ele><time>2026-04-17T13:11:23.001Z</time></trkpt><trkpt lat="42.698981949373874" lon="12.227840815726216"><ele>128.20000000000002</ele><time>2026-04-17T13:11:24.001Z</time></trkpt><trkpt lat="42.69894895046863" lon="12.22772703690637"><ele>128.0</ele><time>2026-04-17T13:11:26.001Z</time></trkpt><trkpt lat="42.69884581527083" lon="12.22781160886898"><ele>128.0</ele><time>2026-04-17T13:11:30.001Z</time></trkpt><trkpt lat="42.69883858981164" lon="12.22796532079243"><ele>128.0</ele><time>2026-04-17T13:11:31.001Z</time></trkpt><trkpt lat="42.69887093292377" lon="12.228168305019798"><ele>128.0</ele><time>2026-04-17T13:11:32.001Z</time></trkpt><trkpt lat="42.69891588507452" lon="12.228390105574812"><ele>128.0</ele><time>2026-04-17T13:11:33.001Z</time></trkpt><trkpt lat="42.69893762082147" lon="12.228648363217635"><ele>128.33333333333331</ele><time>2026-04-17T13:11:34.001Z</time></trkpt><trkpt lat="42.698959366055924" lon="12.228945637838523"><ele>128.66666666666666</ele><time>2026-04-17T13:11:35.001Z</time></trkpt><trkpt lat="42.69893467518085" lon="12.229255866564772"><ele>129.0</ele><time>2026-04-17T13:11:36.001Z</time></trkpt><trkpt lat="42.69892481021125" lon="12.22949861790857"><ele>130.33333333333334</ele><time>2026-04-17T13:11:37.001Z</time></trkpt><trkpt lat="42.69893351517651" lon="12.22969909697654"><ele>131.66666666666669</ele><time>2026-04-17T13:11:38.001Z</time></trkpt><trkpt lat="42.69897277637071" lon="12.229892590971469"><ele>133.0</ele><time>2026-04-17T13:11:39.001Z</time></trkpt><trkpt lat="42.69904761617805" lon="12.230108803946406"><ele>134.33333333333334</ele><time>2026-04-17T13:11:40.001Z</time></trkpt><trkpt lat="42.69912910047721" lon="12.230319057739628"><ele>135.66666666666666</ele><time>2026-04-17T13:11:41.001Z</time></trkpt><trkpt lat="42.69918343759607" lon="12.230514808594158"><ele>137.0</ele><time>2026-04-17T13:11:42.001Z</time></trkpt><trkpt lat="42.699200022923286" lon="12.230713747215308"><ele>139.33333333333331</ele><time>2026-04-17T13:11:43.001Z</time></trkpt><trkpt lat="42.699214934840505" lon="12.230937434640362"><ele>141.66666666666666</ele><time>2026-04-17T13:11:44.001Z</time></trkpt><trkpt lat="42.69923330158004" lon="12.231169459254959"><ele>144.0</ele><time>2026-04-17T13:11:45.001Z</time></trkpt><trkpt lat="42.699244343514415" lon="12.231378153362808"><ele>144.0</ele><time>2026-04-17T13:11:46.001Z</time></trkpt><trkpt lat="42.699247556376335" lon="12.231567224344005"><ele>144.0</ele><time>2026-04-17T13:11:47.001Z</time></trkpt><trkpt lat="42.699234443835245" lon="12.231743883142107"><ele>144.0</ele><time>2026-04-17T13:11:48.001Z</time></trkpt><trkpt lat="42.699186166096325" lon="12.231908536772217"><ele>144.0</ele><time>2026-04-17T13:11:49.001Z</time></trkpt><trkpt lat="42.69909900525713" lon="12.232090870783942"><ele>144.0</ele><time>2026-04-17T13:11:50.002Z</time></trkpt><trkpt lat="42.69898754393941" lon="12.232293020704656"><ele>144.0</ele><time>2026-04-17T13:11:51.002Z</time></trkpt><trkpt lat="42.69885974058652" lon="12.232524936308623"><ele>144.0</ele><time>2026-04-17T13:11:52.002Z</time></trkpt><trkpt lat="42.69873146978944" lon="12.232788823000389"><ele>143.33333333333334</ele><time>2026-04-17T13:11:53.002Z</time></trkpt><trkpt lat="42.698598090938766" lon="12.233046902653594"><ele>142.66666666666669</ele><time>2026-04-17T13:11:54.002Z</time></trkpt><trkpt lat="42.698472381393806" lon="12.233254653437648"><ele>142.0</ele><time>2026-04-17T13:11:55.002Z</time></trkpt><trkpt lat="42.69834092156825" lon="12.233431358495157"><ele>142.33333333333334</ele><time>2026-04-17T13:11:56.002Z</time></trkpt><trkpt lat="42.69822638443857" lon="12.233606298384219"><ele>142.66666666666666</ele><time>2026-04-17T13:11:57.002Z</time></trkpt><trkpt lat="42.69815056777882" lon="12.23382361587097"><ele>143.0</ele><time>2026-04-17T13:11:58.002Z</time></trkpt><trkpt lat="42.69811303748084" lon="12.23408153450238"><ele>143.0</ele><time>2026-04-17T13:11:59.002Z</time></trkpt><trkpt lat="42.698080349438406" lon="12.234373563451967"><ele>143.0</ele><time>2026-04-17T13:12:00.002Z</time></trkpt><trkpt lat="42.698041720325136" lon="12.234681831525327"><ele>143.0</ele><time>2026-04-17T13:12:01.002Z</time></trkpt><trkpt lat="42.69800747791566" lon="12.234987030985591"><ele>140.66666666666666</ele><time>2026-04-17T13:12:02.002Z</time></trkpt><trkpt lat="42.69797157082672" lon="12.235257596135543"><ele>138.33333333333334</ele><time>2026-04-17T13:12:03.002Z</time></trkpt><trkpt lat="42.69794157283748" lon="12.235517124114631"><ele>136.0</ele><time>2026-04-17T13:12:04.002Z</time></trkpt><trkpt lat="42.69791287276469" lon="12.235777436508512"><ele>136.0</ele><time>2026-04-17T13:12:05.002Z</time></trkpt><trkpt lat="42.697887588936204" lon="12.236034826043985"><ele>136.0</ele><time>2026-04-17T13:12:06.002Z</time></trkpt><trkpt lat="42.69786530757791" lon="12.236292255007726"><ele>136.0</ele><time>2026-04-17T13:12:07.002Z</time></trkpt><trkpt lat="42.697850462012816" lon="12.236560495820491"><ele>136.66666666666669</ele><time>2026-04-17T13:12:08.002Z</time></trkpt><trkpt lat="42.69785563470797" lon="12.236823117287882"><ele>137.33333333333334</ele><time>2026-04-17T13:12:09.002Z</time></trkpt><trkpt lat="42.69787759989907" lon="12.237063385331886"><ele>138.0</ele><time>2026-04-17T13:12:10.002Z</time></trkpt><trkpt lat="42.6978909891928" lon="12.237277383921693"><ele>137.5</ele><time>2026-04-17T13:12:11.002Z</time></trkpt><trkpt lat="42.69790441181719" lon="12.237481368210823"><ele>137.0</ele><time>2026-04-17T13:12:12.002Z</time></trkpt><trkpt lat="42.697904353106686" lon="12.237680016085761"><ele>136.5</ele><time>2026-04-17T13:12:13.002Z</time></trkpt><trkpt lat="42.6978897623383" lon="12.237866434256942"><ele>136.0</ele><time>2026-04-17T13:12:14.002Z</time></trkpt><trkpt lat="42.69787462390573" lon="12.23804926322788"><ele>136.2</ele><time>2026-04-17T13:12:15.002Z</time></trkpt><trkpt lat="42.69786138847902" lon="12.238221581444577"><ele>136.39999999999998</ele><time>2026-04-17T13:12:16.002Z</time></trkpt><trkpt lat="42.6978468653922" lon="12.23833037071968"><ele>136.6</ele><time>2026-04-17T13:12:17.002Z</time></trkpt><trkpt lat="42.69780494111033" lon="12.238450381572132"><ele>136.79999999999998</ele><time>2026-04-17T13:12:19.002Z</time></trkpt><trkpt lat="42.6977673065706" lon="12.238523327706202"><ele>137.0</ele><time>2026-04-17T13:12:20.002Z</time></trkpt><trkpt lat="42.697721349668846" lon="12.23861120461394"><ele>139.33333333333331</ele><time>2026-04-17T13:12:21.002Z</time></trkpt><trkpt lat="42.697676661469174" lon="12.23869930268078"><ele>141.66666666666666</ele><time>2026-04-17T13:12:22.002Z</time></trkpt><trkpt lat="42.697632988114066" lon="12.238775359901915"><ele>144.0</ele><time>2026-04-17T13:12:23.002Z</time></trkpt><trkpt lat="42.69757556010494" lon="12.238823837550836"><ele>146.33333333333334</ele><time>2026-04-17T13:12:24.002Z</time></trkpt><trkpt lat="42.69750031087835" lon="12.238856161085685"><ele>148.66666666666669</ele><time>2026-04-17T13:12:25.002Z</time></trkpt><trkpt lat="42.69741086262862" lon="12.238877801657747"><ele>151.0</ele><time>2026-04-17T13:12:26.002Z</time></trkpt><trkpt lat="42.69731526577354" lon="12.238882621449951"><ele>151.0</ele><time>2026-04-17T13:12:27.002Z</time></trkpt><trkpt lat="42.697222213358735" lon="12.238865544633773"><ele>151.0</ele><time>2026-04-17T13:12:28.002Z</time></trkpt><trkpt lat="42.697137409812015" lon="12.238832605854855"><ele>151.0</ele><time>2026-04-17T13:12:29.002Z</time></trkpt><trkpt lat="42.6970587766984" lon="12.238819601081241"><ele>151.0</ele><time>2026-04-17T13:12:30.002Z</time></trkpt><trkpt lat="42.696978837102904" lon="12.238834860240123"><ele>151.0</ele><time>2026-04-17T13:12:31.002Z</time></trkpt><trkpt lat="42.696898343090375" lon="12.238885075842983"><ele>151.0</ele><time>2026-04-17T13:12:32.002Z</time></trkpt><trkpt lat="42.6968312720661" lon="12.23895234015204"><ele>151.4</ele><time>2026-04-17T13:12:33.002Z</time></trkpt><trkpt lat="42.696772388422524" lon="12.2390286042778"><ele>151.8</ele><time>2026-04-17T13:12:34.002Z</time></trkpt><trkpt lat="42.69665840897556" lon="12.239077939466064"><ele>152.20000000000002</ele><time>2026-04-17T13:12:36Z</time></trkpt><trkpt lat="42.69659033405306" lon="12.239046159429726"><ele>152.6</ele><time>2026-04-17T13:12:37Z</time></trkpt><trkpt lat="42.69650954581133" lon="12.239005666382052"><ele>153.0</ele><time>2026-04-17T13:12:38Z</time></trkpt><trkpt lat="42.69639964578384" lon="12.238938004905028"><ele>153.0</ele><time>2026-04-17T13:12:39Z</time></trkpt><trkpt lat="42.69627895759768" lon="12.23886113329395"><ele>153.0</ele><time>2026-04-17T13:12:40Z</time></trkpt><trkpt lat="42.69615580391348" lon="12.238806515868866"><ele>153.0</ele><time>2026-04-17T13:12:41Z</time></trkpt><trkpt lat="42.6960328705636" lon="12.238747031221115"><ele>153.0</ele><time>2026-04-17T13:12:42Z</time></trkpt><trkpt lat="42.695925253815666" lon="12.238701841264268"><ele>153.0</ele><time>2026-04-17T13:12:43Z</time></trkpt><trkpt lat="42.69584598671802" lon="12.238652954766849"><ele>153.0</ele><time>2026-04-17T13:12:44Z</time></trkpt><trkpt lat="42.695780079730476" lon="12.238591107885537"><ele>153.0</ele><time>2026-04-17T13:12:45Z</time></trkpt><trkpt lat="42.695727780151365" lon="12.238503338419926"><ele>153.0</ele><time>2026-04-17T13:12:46Z</time></trkpt><trkpt lat="42.69570135493287" lon="12.238374626363804"><ele>153.0</ele><time>2026-04-17T13:12:47Z</time></trkpt><trkpt lat="42.6956786226771" lon="12.238246660999579"><ele>153.0</ele><time>2026-04-17T13:12:48Z</time></trkpt><trkpt lat="42.69563182581746" lon="12.238097341097518"><ele>155.60000000000002</ele><time>2026-04-17T13:12:49Z</time></trkpt><trkpt lat="42.69556442847964" lon="12.237975894409946"><ele>158.20000000000002</ele><time>2026-04-17T13:12:50Z</time></trkpt><trkpt lat="42.69552316754226" lon="12.237840809149223"><ele>160.8</ele><time>2026-04-17T13:12:51Z</time></trkpt><trkpt lat="42.69546459980858" lon="12.237732975951083"><ele>163.4</ele><time>2026-04-17T13:12:52Z</time></trkpt><trkpt lat="42.695408150177464" lon="12.237659344733858"><ele>166.0</ele><time>2026-04-17T13:12:53Z</time></trkpt><trkpt lat="42.695340626328864" lon="12.237642076674407"><ele>166.0</ele><time>2026-04-17T13:12:54Z</time></trkpt><trkpt lat="42.69527227207889" lon="12.237683137321026"><ele>166.0</ele><time>2026-04-17T13:12:55Z</time></trkpt><trkpt lat="42.695209983846624" lon="12.237726077499039"><ele>166.0</ele><time>2026-04-17T13:12:56Z</time></trkpt><trkpt lat="42.695194403736295" lon="12.237836613261045"><ele>166.0</ele><time>2026-04-17T13:12:57Z</time></trkpt><trkpt lat="42.69518247305262" lon="12.23796186173547"><ele>166.0</ele><time>2026-04-17T13:12:58Z</time></trkpt><trkpt lat="42.695145292140666" lon="12.238073492561185"><ele>166.0</ele><time>2026-04-17T13:12:59Z</time></trkpt><trkpt lat="42.69512374222063" lon="12.238155989398424"><ele>162.25</ele><time>2026-04-17T13:13:00.001Z</time></trkpt><trkpt lat="42.69498799976941" lon="12.238236636890024"><ele>158.5</ele><time>2026-04-17T13:13:02.001Z</time></trkpt><trkpt lat="42.6948784182316" lon="12.238252873015265"><ele>154.75</ele><time>2026-04-17T13:13:03.001Z</time></trkpt><trkpt lat="42.69476543029019" lon="12.238250210256655"><ele>151.0</ele><time>2026-04-17T13:13:04.001Z</time></trkpt><trkpt lat="42.69467520711932" lon="12.238251060361302"><ele>151.0</ele><time>2026-04-17T13:13:05.001Z</time></trkpt><trkpt lat="42.694601051630464" lon="12.238237072601029"><ele>151.0</ele><time>2026-04-17T13:13:06.001Z</time></trkpt><trkpt lat="42.69453051936541" lon="12.238206966021238"><ele>151.0</ele><time>2026-04-17T13:13:07.001Z</time></trkpt><trkpt lat="42.69451968035314" lon="12.23809153299807"><ele>151.0</ele><time>2026-04-17T13:13:08.001Z</time></trkpt><trkpt lat="42.69446386094874" lon="12.237980173053984"><ele>151.0</ele><time>2026-04-17T13:13:09.001Z</time></trkpt><trkpt lat="42.694414234455195" lon="12.237903723339404"><ele>151.0</ele><time>2026-04-17T13:13:10.001Z</time></trkpt><trkpt lat="42.6943070244372" lon="12.237861021134472"><ele>151.6</ele><time>2026-04-17T13:13:12.001Z</time></trkpt><trkpt lat="42.69423762769879" lon="12.23795305142751"><ele>152.2</ele><time>2026-04-17T13:13:13.001Z</time></trkpt><trkpt lat="42.694224911609545" lon="12.23809168912527"><ele>152.8</ele><time>2026-04-17T13:13:14.001Z</time></trkpt><trkpt lat="42.69422600582608" lon="12.23822905922982"><ele>153.4</ele><time>2026-04-17T13:13:15.001Z</time></trkpt><trkpt lat="42.694240750008056" lon="12.238396171383064"><ele>154.0</ele><time>2026-04-17T13:13:16.001Z</time></trkpt><trkpt lat="42.69423028318243" lon="12.238567805678535"><ele>154.0</ele><time>2026-04-17T13:13:17.001Z</time></trkpt><trkpt lat="42.69424945095854" lon="12.23869630317024"><ele>154.0</ele><time>2026-04-17T13:13:18.001Z</time></trkpt><trkpt lat="42.694251501206416" lon="12.238794536721082"><ele>154.0</ele><time>2026-04-17T13:13:19.001Z</time></trkpt><trkpt lat="42.69423223097345" lon="12.238878849134732"><ele>154.0</ele><time>2026-04-17T13:13:20.001Z</time></trkpt><trkpt lat="42.69418834582592" lon="12.23895356989311"><ele>154.0</ele><time>2026-04-17T13:13:21.001Z</time></trkpt><trkpt lat="42.69411159416558" lon="12.2390116667295"><ele>154.0</ele><time>2026-04-17T13:13:22.001Z</time></trkpt><trkpt lat="42.69400300121826" lon="12.239027592479164"><ele>153.5</ele><time>2026-04-17T13:13:23.001Z</time></trkpt><trkpt lat="42.69389457550348" lon="12.239065590611169"><ele>153.0</ele><time>2026-04-17T13:13:24.001Z</time></trkpt><trkpt lat="42.693779303956035" lon="12.239134341263847"><ele>152.5</ele><time>2026-04-17T13:13:25.001Z</time></trkpt><trkpt lat="42.693647899540736" lon="12.23917400851081"><ele>152.0</ele><time>2026-04-17T13:13:26.001Z</time></trkpt><trkpt lat="42.6935296463669" lon="12.239224242566005"><ele>153.8</ele><time>2026-04-17T13:13:27.001Z</time></trkpt><trkpt lat="42.69341500427383" lon="12.239276104002675"><ele>155.6</ele><time>2026-04-17T13:13:28.001Z</time></trkpt><trkpt lat="42.69329340362785" lon="12.239332886532596"><ele>157.4</ele><time>2026-04-17T13:13:29.001Z</time></trkpt><trkpt lat="42.69319403842601" lon="12.239381554085"><ele>159.20000000000002</ele><time>2026-04-17T13:13:30.001Z</time></trkpt><trkpt lat="42.6931131167228" lon="12.239418054930116"><ele>161.0</ele><time>2026-04-17T13:13:31.001Z</time></trkpt><trkpt lat="42.69305289617957" lon="12.239446577478905"><ele>161.0</ele><time>2026-04-17T13:13:32.001Z</time></trkpt><trkpt lat="42.69297548279826" lon="12.239471537070875"><ele>161.0</ele><time>2026-04-17T13:13:34.001Z</time></trkpt><trkpt lat="42.69291236805836" lon="12.23939967581463"><ele>161.0</ele><time>2026-04-17T13:13:37.001Z</time></trkpt><trkpt lat="42.692927803743544" lon="12.239314529128569"><ele>161.0</ele><time>2026-04-17T13:13:38.001Z</time></trkpt><trkpt lat="42.69290053384527" lon="12.23921787585422"><ele>161.0</ele><time>2026-04-17T13:13:39.001Z</time></trkpt><trkpt lat="42.69287057516276" lon="12.239100423854048"><ele>161.0</ele><time>2026-04-17T13:13:40.001Z</time></trkpt><trkpt lat="42.692834401153746" lon="12.238957314969197"><ele>161.5</ele><time>2026-04-17T13:13:41.001Z</time></trkpt><trkpt lat="42.692791599091784" lon="12.238783164774448"><ele>162.0</ele><time>2026-04-17T13:13:42.001Z</time></trkpt><trkpt lat="42.69274349954921" lon="12.23858576566757"><ele>162.5</ele><time>2026-04-17T13:13:43.001Z</time></trkpt><trkpt lat="42.692693732627134" lon="12.238381375594535"><ele>163.0</ele><time>2026-04-17T13:13:44.001Z</time></trkpt><trkpt lat="42.69264568627482" lon="12.238170258774078"><ele>166.25</ele><time>2026-04-17T13:13:45.001Z</time></trkpt><trkpt lat="42.692593345234776" lon="12.237998430122731"><ele>169.5</ele><time>2026-04-17T13:13:46.001Z</time></trkpt><trkpt lat="42.69256751468045" lon="12.237827594078198"><ele>172.75</ele><time>2026-04-17T13:13:47.001Z</time></trkpt><trkpt lat="42.692518156569825" lon="12.23770840631946"><ele>176.0</ele><time>2026-04-17T13:13:48.001Z</time></trkpt><trkpt lat="42.69247376347595" lon="12.237580530150332"><ele>176.0</ele><time>2026-04-17T13:13:49.001Z</time></trkpt><trkpt lat="42.692411813715346" lon="12.237443162156755"><ele>176.0</ele><time>2026-04-17T13:13:50.001Z</time></trkpt><trkpt lat="42.69232049379382" lon="12.23730949196755"><ele>176.0</ele><time>2026-04-17T13:13:51.001Z</time></trkpt><trkpt lat="42.69224491902899" lon="12.237148441145749"><ele>176.0</ele><time>2026-04-17T13:13:52.001Z</time></trkpt><trkpt lat="42.692162928280425" lon="12.237006028575312"><ele>180.0</ele><time>2026-04-17T13:13:53.001Z</time></trkpt><trkpt lat="42.69209551306856" lon="12.236894019232073"><ele>184.0</ele><time>2026-04-17T13:13:54.001Z</time></trkpt><trkpt lat="42.692019037333296" lon="12.2367892015169"><ele>188.0</ele><time>2026-04-17T13:13:55.001Z</time></trkpt><trkpt lat="42.69193378999856" lon="12.236706402500861"><ele>192.0</ele><time>2026-04-17T13:13:56.001Z</time></trkpt><trkpt lat="42.691848143364695" lon="12.23665841829713"><ele>196.0</ele><time>2026-04-17T13:13:57.001Z</time></trkpt><trkpt lat="42.69174964543935" lon="12.236633332164914"><ele>196.4</ele><time>2026-04-17T13:13:58.001Z</time></trkpt><trkpt lat="42.691649957951704" lon="12.236619894804885"><ele>196.8</ele><time>2026-04-17T13:13:59.001Z</time></trkpt><trkpt lat="42.691566513720474" lon="12.236623220531934"><ele>197.20000000000002</ele><time>2026-04-17T13:14:00.001Z</time></trkpt><trkpt lat="42.691499006107584" lon="12.236621723900292"><ele>197.60000000000002</ele><time>2026-04-17T13:14:01.002Z</time></trkpt><trkpt lat="42.69139987657442" lon="12.23650784568537"><ele>198.0</ele><time>2026-04-17T13:14:03.002Z</time></trkpt><trkpt lat="42.69139262774609" lon="12.23637164083034"><ele>202.2</ele><time>2026-04-17T13:14:05.002Z</time></trkpt><trkpt lat="42.691477126087534" lon="12.236368382354513"><ele>206.4</ele><time>2026-04-17T13:14:07.002Z</time></trkpt><trkpt lat="42.691565667267376" lon="12.236369415695904"><ele>210.59999999999997</ele><time>2026-04-17T13:14:10.002Z</time></trkpt><trkpt lat="42.69163675819674" lon="12.236336247093671"><ele>214.79999999999998</ele><time>2026-04-17T13:14:11.002Z</time></trkpt><trkpt lat="42.69176636524345" lon="12.236309119542074"><ele>219.0</ele><time>2026-04-17T13:14:13.002Z</time></trkpt><trkpt lat="42.691845628854836" lon="12.236277276947876"><ele>218.5</ele><time>2026-04-17T13:14:14.002Z</time></trkpt><trkpt lat="42.69194478288453" lon="12.236216667020951"><ele>218.0</ele><time>2026-04-17T13:14:15.002Z</time></trkpt><trkpt lat="42.692087095018785" lon="12.236175168442804"><ele>217.5</ele><time>2026-04-17T13:14:16.002Z</time></trkpt><trkpt lat="42.692222107420776" lon="12.236131040758325"><ele>217.0</ele><time>2026-04-17T13:14:17.002Z</time></trkpt><trkpt lat="42.6923270347771" lon="12.236109128371023"><ele>217.0</ele><time>2026-04-17T13:14:18.002Z</time></trkpt><trkpt lat="42.69242413357852" lon="12.236090538129822"><ele>217.0</ele><time>2026-04-17T13:14:19.002Z</time></trkpt><trkpt lat="42.692504631912705" lon="12.236054983017103"><ele>217.0</ele><time>2026-04-17T13:14:20.002Z</time></trkpt><trkpt lat="42.69257918104335" lon="12.23596579264576"><ele>217.0</ele><time>2026-04-17T13:14:22.002Z</time></trkpt><trkpt lat="42.692606688893136" lon="12.235824655233108"><ele>217.0</ele><time>2026-04-17T13:14:24.002Z</time></trkpt><trkpt lat="42.692555716456894" lon="12.235749771077783"><ele>217.0</ele><time>2026-04-17T13:14:25.002Z</time></trkpt><trkpt lat="42.692441031244115" lon="12.235779706328758"><ele>217.0</ele><time>2026-04-17T13:14:26.002Z</time></trkpt><trkpt lat="42.69235342354711" lon="12.2357711950981"><ele>217.0</ele><time>2026-04-17T13:14:27.002Z</time></trkpt><trkpt lat="42.69225221020175" lon="12.235778313833148"><ele>217.0</ele><time>2026-04-17T13:14:28.002Z</time></trkpt><trkpt lat="42.69212099986027" lon="12.235763737437715"><ele>217.0</ele><time>2026-04-17T13:14:29.002Z</time></trkpt><trkpt lat="42.692003706418234" lon="12.235774295104212"><ele>216.99999999999997</ele><time>2026-04-17T13:14:30.002Z</time></trkpt><trkpt lat="42.691929631230956" lon="12.235776010972542"><ele>217.0</ele><time>2026-04-17T13:14:31.002Z</time></trkpt><trkpt lat="42.69188298292321" lon="12.235696826444613"><ele>217.0</ele><time>2026-04-17T13:14:34.002Z</time></trkpt><trkpt lat="42.69196451631042" lon="12.235655811310767"><ele>217.0</ele><time>2026-04-17T13:14:36.002Z</time></trkpt><trkpt lat="42.69210458601041" lon="12.235640615484076"><ele>216.99999999999997</ele><time>2026-04-17T13:14:38.002Z</time></trkpt><trkpt lat="42.69215808842557" lon="12.235582374351644"><ele>217.0</ele><time>2026-04-17T13:14:39.002Z</time></trkpt><trkpt lat="42.692178015962526" lon="12.235458555571446"><ele>220.2</ele><time>2026-04-17T13:14:41.002Z</time></trkpt><trkpt lat="42.6921572701675" lon="12.235373417642299"><ele>223.39999999999998</ele><time>2026-04-17T13:14:42.001Z</time></trkpt><trkpt lat="42.69209713192849" lon="12.23529331122599"><ele>226.60000000000002</ele><time>2026-04-17T13:14:43.001Z</time></trkpt><trkpt lat="42.69201309687397" lon="12.235218422232077"><ele>229.8</ele><time>2026-04-17T13:14:44.001Z</time></trkpt><trkpt lat="42.691946486064644" lon="12.235111359945241"><ele>233.0</ele><time>2026-04-17T13:14:45.001Z</time></trkpt><trkpt lat="42.691872820167376" lon="12.235027049323591"><ele>233.25</ele><time>2026-04-17T13:14:46.001Z</time></trkpt><trkpt lat="42.6917762912067" lon="12.23494380189116"><ele>233.5</ele><time>2026-04-17T13:14:47.001Z</time></trkpt><trkpt lat="42.691673053285456" lon="12.234824582007493"><ele>233.75</ele><time>2026-04-17T13:14:48.001Z</time></trkpt><trkpt lat="42.69155594114467" lon="12.234708744164488"><ele>234.0</ele><time>2026-04-17T13:14:49.001Z</time></trkpt><trkpt lat="42.691441364238834" lon="12.23457545565929"><ele>235.5</ele><time>2026-04-17T13:14:50.001Z</time></trkpt><trkpt lat="42.69132824928894" lon="12.234445235067131"><ele>237.0</ele><time>2026-04-17T13:14:51.001Z</time></trkpt><trkpt lat="42.691237626764035" lon="12.234333453069263"><ele>238.5</ele><time>2026-04-17T13:14:52.001Z</time></trkpt><trkpt lat="42.69115131340935" lon="12.234252385788999"><ele>240.0</ele><time>2026-04-17T13:14:53.001Z</time></trkpt><trkpt lat="42.69107672960173" lon="12.234169039280578"><ele>241.6</ele><time>2026-04-17T13:14:54.001Z</time></trkpt><trkpt lat="42.69099240544023" lon="12.23408630101823"><ele>243.2</ele><time>2026-04-17T13:14:55.001Z</time></trkpt><trkpt lat="42.69090065547914" lon="12.234005913240916"><ele>244.8</ele><time>2026-04-17T13:14:56.001Z</time></trkpt><trkpt lat="42.690803155679134" lon="12.233914476178212"><ele>246.4</ele><time>2026-04-17T13:14:57.001Z</time></trkpt><trkpt lat="42.69071804914733" lon="12.233813905820055"><ele>248.0</ele><time>2026-04-17T13:14:58.001Z</time></trkpt><trkpt lat="42.690632273445374" lon="12.23373525016516"><ele>249.25</ele><time>2026-04-17T13:14:59.001Z</time></trkpt><trkpt lat="42.69054867148796" lon="12.233659423899445"><ele>250.5</ele><time>2026-04-17T13:15:00.001Z</time></trkpt><trkpt lat="42.69045679186206" lon="12.233576217876415"><ele>251.75</ele><time>2026-04-17T13:15:01.001Z</time></trkpt><trkpt lat="42.690347966470604" lon="12.233503454175485"><ele>253.0</ele><time>2026-04-17T13:15:02.001Z</time></trkpt><trkpt lat="42.69025093727081" lon="12.233411137413638"><ele>254.25</ele><time>2026-04-17T13:15:03.001Z</time></trkpt><trkpt lat="42.69014474208582" lon="12.23332126529131"><ele>255.5</ele><time>2026-04-17T13:15:04.001Z</time></trkpt><trkpt lat="42.69004061813368" lon="12.233244382346884"><ele>256.75</ele><time>2026-04-17T13:15:05.001Z</time></trkpt><trkpt lat="42.6899403031673" lon="12.233167468476362"><ele>258.0</ele><time>2026-04-17T13:15:06.001Z</time></trkpt><trkpt lat="42.689839163406184" lon="12.233086446558449"><ele>258.75</ele><time>2026-04-17T13:15:07.001Z</time></trkpt><trkpt lat="42.68973855201368" lon="12.232989045560968"><ele>259.5</ele><time>2026-04-17T13:15:08.001Z</time></trkpt><trkpt lat="42.689624993203466" lon="12.232867701359215"><ele>260.25</ele><time>2026-04-17T13:15:09.001Z</time></trkpt><trkpt lat="42.689491049478214" lon="12.232727902439741"><ele>261.0</ele><time>2026-04-17T13:15:10.001Z</time></trkpt><trkpt lat="42.689369060157404" lon="12.232583392347387"><ele>263.3333333333333</ele><time>2026-04-17T13:15:11.001Z</time></trkpt><trkpt lat="42.6892768312065" lon="12.232403243888838"><ele>265.66666666666663</ele><time>2026-04-17T13:15:12.001Z</time></trkpt><trkpt lat="42.68919030313029" lon="12.232216625920856"><ele>268.0</ele><time>2026-04-17T13:15:13.001Z</time></trkpt><trkpt lat="42.689119525308676" lon="12.232043255858857"><ele>269.25</ele><time>2026-04-17T13:15:14.001Z</time></trkpt><trkpt lat="42.68903898478723" lon="12.231895794126661"><ele>270.5</ele><time>2026-04-17T13:15:15.001Z</time></trkpt><trkpt lat="42.688965891340914" lon="12.231757575580085"><ele>271.75</ele><time>2026-04-17T13:15:16.001Z</time></trkpt><trkpt lat="42.68887619554327" lon="12.231634766574002"><ele>273.0</ele><time>2026-04-17T13:15:17.001Z</time></trkpt><trkpt lat="42.688775764906204" lon="12.231519184071466"><ele>273.75</ele><time>2026-04-17T13:15:18.001Z</time></trkpt><trkpt lat="42.68865958506213" lon="12.231404100952064"><ele>274.5</ele><time>2026-04-17T13:15:19.001Z</time></trkpt><trkpt lat="42.68857157766562" lon="12.231300138866239"><ele>275.25</ele><time>2026-04-17T13:15:20.001Z</time></trkpt><trkpt lat="42.688512277159354" lon="12.231194862154078"><ele>276.0</ele><time>2026-04-17T13:15:21.001Z</time></trkpt><trkpt lat="42.68840278887593" lon="12.231096770389419"><ele>276.0</ele><time>2026-04-17T13:15:22.001Z</time></trkpt><trkpt lat="42.68828388609817" lon="12.2309545991436"><ele>276.0</ele><time>2026-04-17T13:15:23.001Z</time></trkpt><trkpt lat="42.68816796985752" lon="12.230815373762523"><ele>276.0</ele><time>2026-04-17T13:15:24.001Z</time></trkpt><trkpt lat="42.688080699291305" lon="12.230704265302835"><ele>276.0</ele><time>2026-04-17T13:15:25.001Z</time></trkpt><trkpt lat="42.68802184437129" lon="12.230612574511781"><ele>275.40000000000003</ele><time>2026-04-17T13:15:26.001Z</time></trkpt><trkpt lat="42.68798827960785" lon="12.230528663984904"><ele>274.8</ele><time>2026-04-17T13:15:27.001Z</time></trkpt><trkpt lat="42.687957735969405" lon="12.23041122935422"><ele>274.20000000000005</ele><time>2026-04-17T13:15:29.001Z</time></trkpt><trkpt lat="42.68783287811395" lon="12.230453756703984"><ele>273.6</ele><time>2026-04-17T13:15:31.001Z</time></trkpt><trkpt lat="42.68775223146377" lon="12.23050215320858"><ele>273.0</ele><time>2026-04-17T13:15:32.001Z</time></trkpt><trkpt lat="42.68765971302236" lon="12.230580462082157"><ele>273.3333333333333</ele><time>2026-04-17T13:15:33.001Z</time></trkpt><trkpt lat="42.68752344856137" lon="12.23068087686002"><ele>273.66666666666663</ele><time>2026-04-17T13:15:34.001Z</time></trkpt><trkpt lat="42.68735167591255" lon="12.230784101375654"><ele>274.0</ele><time>2026-04-17T13:15:35.001Z</time></trkpt><trkpt lat="42.68718364877012" lon="12.230874079486634"><ele>274.0</ele><time>2026-04-17T13:15:36.001Z</time></trkpt><trkpt lat="42.687043104575814" lon="12.230932085652144"><ele>274.0</ele><time>2026-04-17T13:15:37.001Z</time></trkpt><trkpt lat="42.686910546076575" lon="12.230969687729997"><ele>274.0</ele><time>2026-04-17T13:15:38.001Z</time></trkpt><trkpt lat="42.68679253124566" lon="12.230997025832867"><ele>274.0</ele><time>2026-04-17T13:15:39.001Z</time></trkpt><trkpt lat="42.68668975056289" lon="12.231043489087158"><ele>273.75</ele><time>2026-04-17T13:15:40.001Z</time></trkpt><trkpt lat="42.68658669789429" lon="12.231123243397358"><ele>273.5</ele><time>2026-04-17T13:15:41.001Z</time></trkpt><trkpt lat="42.68647305892636" lon="12.23121834822894"><ele>273.25</ele><time>2026-04-17T13:15:42.001Z</time></trkpt><trkpt lat="42.68633634750033" lon="12.231318847274345"><ele>273.0</ele><time>2026-04-17T13:15:43.001Z</time></trkpt><trkpt lat="42.68619486680043" lon="12.231416996756375"><ele>271.75</ele><time>2026-04-17T13:15:44.001Z</time></trkpt><trkpt lat="42.68606330030005" lon="12.231502438088985"><ele>270.5</ele><time>2026-04-17T13:15:45.001Z</time></trkpt><trkpt lat="42.68594264657843" lon="12.231581275943446"><ele>269.25</ele><time>2026-04-17T13:15:46.001Z</time></trkpt><trkpt lat="42.68582177591165" lon="12.231654658236177"><ele>268.0</ele><time>2026-04-17T13:15:47.001Z</time></trkpt><trkpt lat="42.685693923184054" lon="12.231709357457332"><ele>268.0</ele><time>2026-04-17T13:15:48.001Z</time></trkpt><trkpt lat="42.685563976343055" lon="12.231748500336778"><ele>268.0</ele><time>2026-04-17T13:15:49.001Z</time></trkpt><trkpt lat="42.685434454430535" lon="12.231767837608567"><ele>268.0</ele><time>2026-04-17T13:15:50.001Z</time></trkpt><trkpt lat="42.68530461906493" lon="12.231770379735435"><ele>268.0</ele><time>2026-04-17T13:15:51.001Z</time></trkpt><trkpt lat="42.6851647235522" lon="12.231758447245921"><ele>269.75</ele><time>2026-04-17T13:15:52.001Z</time></trkpt><trkpt lat="42.68504509918156" lon="12.231746098305036"><ele>271.5</ele><time>2026-04-17T13:15:53.001Z</time></trkpt><trkpt lat="42.684933883069164" lon="12.231764810904227"><ele>273.25</ele><time>2026-04-17T13:15:54.001Z</time></trkpt><trkpt lat="42.68483036172938" lon="12.23181505229681"><ele>275.0</ele><time>2026-04-17T13:15:55.001Z</time></trkpt><trkpt lat="42.68470144858996" lon="12.23191828985238"><ele>275.0</ele><time>2026-04-17T13:15:56.001Z</time></trkpt><trkpt lat="42.684564675449856" lon="12.2320321402476"><ele>275.0</ele><time>2026-04-17T13:15:57.001Z</time></trkpt><trkpt lat="42.684426213678584" lon="12.232140080611172"><ele>275.0</ele><time>2026-04-17T13:15:58.001Z</time></trkpt><trkpt lat="42.684306116114314" lon="12.232230274562696"><ele>275.5</ele><time>2026-04-17T13:15:59.001Z</time></trkpt><trkpt lat="42.68419771925412" lon="12.23232649946714"><ele>276.0</ele><time>2026-04-17T13:16:00.001Z</time></trkpt><trkpt lat="42.684082665067265" lon="12.232452256296012"><ele>276.5</ele><time>2026-04-17T13:16:01.001Z</time></trkpt><trkpt lat="42.683975271724705" lon="12.232573445398172"><ele>277.0</ele><time>2026-04-17T13:16:02.001Z</time></trkpt><trkpt lat="42.68386505923243" lon="12.232677089702142"><ele>277.0</ele><time>2026-04-17T13:16:03.001Z</time></trkpt><trkpt lat="42.68374839335981" lon="12.232764717117648"><ele>277.0</ele><time>2026-04-17T13:16:04.001Z</time></trkpt><trkpt lat="42.68362405064039" lon="12.232839356830233"><ele>277.0</ele><time>2026-04-17T13:16:05.001Z</time></trkpt><trkpt lat="42.683483765562215" lon="12.232905206444796"><ele>277.0</ele><time>2026-04-17T13:16:06.001Z</time></trkpt><trkpt lat="42.6833610587882" lon="12.23296106422133"><ele>277.4</ele><time>2026-04-17T13:16:07.001Z</time></trkpt><trkpt lat="42.68325652902854" lon="12.233015422519898"><ele>277.79999999999995</ele><time>2026-04-17T13:16:08.001Z</time></trkpt><trkpt lat="42.683168640605025" lon="12.233096436904956"><ele>278.2</ele><time>2026-04-17T13:16:09.001Z</time></trkpt><trkpt lat="42.683103529015376" lon="12.233204169966564"><ele>278.59999999999997</ele><time>2026-04-17T13:16:10.001Z</time></trkpt><trkpt lat="42.68305102925628" lon="12.233320051312496"><ele>279.0</ele><time>2026-04-17T13:16:11.001Z</time></trkpt><trkpt lat="42.683012024477904" lon="12.233462408217395"><ele>277.6666666666667</ele><time>2026-04-17T13:16:12.001Z</time></trkpt><trkpt lat="42.68298511386043" lon="12.233637372793913"><ele>276.33333333333337</ele><time>2026-04-17T13:16:13.001Z</time></trkpt><trkpt lat="42.682957902677515" lon="12.233845015992284"><ele>275.0</ele><time>2026-04-17T13:16:14.001Z</time></trkpt><trkpt lat="42.68291852631174" lon="12.234070921950897"><ele>275.0</ele><time>2026-04-17T13:16:15.001Z</time></trkpt><trkpt lat="42.682875350763446" lon="12.234289419484144"><ele>275.0</ele><time>2026-04-17T13:16:16.001Z</time></trkpt><trkpt lat="42.682832484947035" lon="12.234480255709567"><ele>275.0</ele><time>2026-04-17T13:16:17.002Z</time></trkpt><trkpt lat="42.682799486076945" lon="12.23464841359886"><ele>275.0</ele><time>2026-04-17T13:16:18.002Z</time></trkpt><trkpt lat="42.68277051721547" lon="12.234808916736226"><ele>277.0</ele><time>2026-04-17T13:16:19.002Z</time></trkpt><trkpt lat="42.682740176573056" lon="12.234967251616084"><ele>279.0</ele><time>2026-04-17T13:16:20.002Z</time></trkpt><trkpt lat="42.68271941601299" lon="12.235141195346692"><ele>281.0</ele><time>2026-04-17T13:16:21.002Z</time></trkpt><trkpt lat="42.6827031428606" lon="12.235343692002738"><ele>283.0</ele><time>2026-04-17T13:16:22.002Z</time></trkpt><trkpt lat="42.682689830128346" lon="12.235570253879098"><ele>282.5</ele><time>2026-04-17T13:16:23.002Z</time></trkpt><trkpt lat="42.68267906325861" lon="12.235797858678822"><ele>282.0</ele><time>2026-04-17T13:16:24.002Z</time></trkpt><trkpt lat="42.682665682121865" lon="12.23599926784609"><ele>281.5</ele><time>2026-04-17T13:16:25.002Z</time></trkpt><trkpt lat="42.68266137096836" lon="12.236175049435081"><ele>281.0</ele><time>2026-04-17T13:16:26.002Z</time></trkpt><trkpt lat="42.682655001430476" lon="12.23634086870888"><ele>280.5</ele><time>2026-04-17T13:16:27.002Z</time></trkpt><trkpt lat="42.682641377012516" lon="12.236496721044638"><ele>280.0</ele><time>2026-04-17T13:16:28.002Z</time></trkpt><trkpt lat="42.682611939307606" lon="12.236669163011712"><ele>279.5</ele><time>2026-04-17T13:16:29.002Z</time></trkpt><trkpt lat="42.682552279181614" lon="12.23686512743896"><ele>279.0</ele><time>2026-04-17T13:16:30.002Z</time></trkpt><trkpt lat="42.682465900760924" lon="12.237068166836396"><ele>279.0</ele><time>2026-04-17T13:16:31.002Z</time></trkpt><trkpt lat="42.68234499087704" lon="12.237286430092832"><ele>279.0</ele><time>2026-04-17T13:16:32.002Z</time></trkpt><trkpt lat="42.682213349990576" lon="12.237484649718356"><ele>279.0</ele><time>2026-04-17T13:16:33.002Z</time></trkpt><trkpt lat="42.68209979803486" lon="12.23765873438875"><ele>279.6666666666667</ele><time>2026-04-17T13:16:34.002Z</time></trkpt><trkpt lat="42.681994546712495" lon="12.237839726643813"><ele>280.33333333333337</ele><time>2026-04-17T13:16:35.002Z</time></trkpt><trkpt lat="42.68189045140868" lon="12.238030873011231"><ele>281.0</ele><time>2026-04-17T13:16:36.002Z</time></trkpt><trkpt lat="42.68177616347204" lon="12.238227403149555"><ele>281.6666666666667</ele><time>2026-04-17T13:16:37.002Z</time></trkpt><trkpt lat="42.68164120683798" lon="12.238432288607747"><ele>282.3333333333333</ele><time>2026-04-17T13:16:38.002Z</time></trkpt><trkpt lat="42.68151833044748" lon="12.238609513587155"><ele>283.0</ele><time>2026-04-17T13:16:39.002Z</time></trkpt><trkpt lat="42.68141167760909" lon="12.238784544982103"><ele>282.3333333333333</ele><time>2026-04-17T13:16:40.002Z</time></trkpt><trkpt lat="42.68133084696316" lon="12.238971367323675"><ele>281.6666666666667</ele><time>2026-04-17T13:16:41.002Z</time></trkpt><trkpt lat="42.68127551949714" lon="12.239164850222704"><ele>281.0</ele><time>2026-04-17T13:16:42.002Z</time></trkpt><trkpt lat="42.681250141769446" lon="12.239351438022426"><ele>281.0</ele><time>2026-04-17T13:16:43.002Z</time></trkpt><trkpt lat="42.68125795063691" lon="12.239541025251215"><ele>281.0</ele><time>2026-04-17T13:16:44.002Z</time></trkpt><trkpt lat="42.68128209379106" lon="12.239724660896512"><ele>281.0</ele><time>2026-04-17T13:16:45.002Z</time></trkpt><trkpt lat="42.68131301558535" lon="12.23990919505173"><ele>281.0</ele><time>2026-04-17T13:16:46.002Z</time></trkpt><trkpt lat="42.68132308699967" lon="12.240089570378283"><ele>281.25</ele><time>2026-04-17T13:16:47.002Z</time></trkpt><trkpt lat="42.681304731173185" lon="12.240241292008411"><ele>281.5</ele><time>2026-04-17T13:16:48Z</time></trkpt><trkpt lat="42.681267236152415" lon="12.240392410175723"><ele>281.75</ele><time>2026-04-17T13:16:49Z</time></trkpt><trkpt lat="42.68120749027688" lon="12.240556676629135"><ele>282.0</ele><time>2026-04-17T13:16:50Z</time></trkpt><trkpt lat="42.681153942329516" lon="12.24073239493878"><ele>282.3333333333333</ele><time>2026-04-17T13:16:51Z</time></trkpt><trkpt lat="42.68110487319234" lon="12.240939661154098"><ele>282.66666666666663</ele><time>2026-04-17T13:16:52Z</time></trkpt><trkpt lat="42.68105997481163" lon="12.24117130376871"><ele>283.0</ele><time>2026-04-17T13:16:53Z</time></trkpt><trkpt lat="42.68103008249265" lon="12.241403202086062"><ele>283.5</ele><time>2026-04-17T13:16:54Z</time></trkpt><trkpt lat="42.681011598295605" lon="12.241609645257876"><ele>284.0</ele><time>2026-04-17T13:16:55Z</time></trkpt><trkpt lat="42.680996456276155" lon="12.241797890177896"><ele>284.5</ele><time>2026-04-17T13:16:56Z</time></trkpt><trkpt lat="42.6809675347381" lon="12.241969073320803"><ele>285.0</ele><time>2026-04-17T13:16:57Z</time></trkpt><trkpt lat="42.68092033563831" lon="12.24212929694039"><ele>285.0</ele><time>2026-04-17T13:16:58Z</time></trkpt><trkpt lat="42.680862435435685" lon="12.24226425148682"><ele>285.0</ele><time>2026-04-17T13:16:59Z</time></trkpt><trkpt lat="42.680804894206396" lon="12.24238266568494"><ele>285.0</ele><time>2026-04-17T13:17:00Z</time></trkpt><trkpt lat="42.680757127596245" lon="12.242480172433394"><ele>285.0</ele><time>2026-04-17T13:17:01Z</time></trkpt><trkpt lat="42.68072098239742" lon="12.242553766805297"><ele>285.0</ele><time>2026-04-17T13:17:02Z</time></trkpt><trkpt lat="42.680668908344984" lon="12.24266407382349"><ele>284.75</ele><time>2026-04-17T13:17:04Z</time></trkpt><trkpt lat="42.6806188714059" lon="12.242764985190801"><ele>284.5</ele><time>2026-04-17T13:17:06Z</time></trkpt><trkpt lat="42.68064147001376" lon="12.242919104180995"><ele>284.25</ele><time>2026-04-17T13:17:07Z</time></trkpt><trkpt lat="42.68064951005432" lon="12.243087864680412"><ele>284.0</ele><time>2026-04-17T13:17:08Z</time></trkpt><trkpt lat="42.680662781854636" lon="12.24328244368104"><ele>283.0</ele><time>2026-04-17T13:17:09Z</time></trkpt><trkpt lat="42.68066870794327" lon="12.24350328156051"><ele>282.0</ele><time>2026-04-17T13:17:10Z</time></trkpt><trkpt lat="42.680664391261644" lon="12.243720084349446"><ele>281.0</ele><time>2026-04-17T13:17:11Z</time></trkpt><trkpt lat="42.68064928737527" lon="12.243908504850282"><ele>280.0</ele><time>2026-04-17T13:17:12Z</time></trkpt><trkpt lat="42.680617155752856" lon="12.244096291707594"><ele>279.0</ele><time>2026-04-17T13:17:13Z</time></trkpt><trkpt lat="42.68056280672314" lon="12.244291063742997"><ele>278.0</ele><time>2026-04-17T13:17:14Z</time></trkpt><trkpt lat="42.68048307831932" lon="12.244484614132508"><ele>278.0</ele><time>2026-04-17T13:17:15Z</time></trkpt><trkpt lat="42.680388464045315" lon="12.244672559035257"><ele>278.0</ele><time>2026-04-17T13:17:16Z</time></trkpt><trkpt lat="42.68028762316265" lon="12.244843670425809"><ele>278.0</ele><time>2026-04-17T13:17:17Z</time></trkpt><trkpt lat="42.680192138018114" lon="12.245004798185692"><ele>276.0</ele><time>2026-04-17T13:17:18Z</time></trkpt><trkpt lat="42.680059963867016" lon="12.245151911855093"><ele>274.0</ele><time>2026-04-17T13:17:19Z</time></trkpt><trkpt lat="42.67991503922147" lon="12.245290138008198"><ele>272.0</ele><time>2026-04-17T13:17:20Z</time></trkpt><trkpt lat="42.67977011780702" lon="12.245420364402392"><ele>272.0</ele><time>2026-04-17T13:17:21Z</time></trkpt><trkpt lat="42.679642305486155" lon="12.245539944340678"><ele>272.0</ele><time>2026-04-17T13:17:22Z</time></trkpt><trkpt lat="42.67951475839888" lon="12.245687054720715"><ele>272.0</ele><time>2026-04-17T13:17:23Z</time></trkpt><trkpt lat="42.6793915281977" lon="12.245856817609068"><ele>273.33333333333337</ele><time>2026-04-17T13:17:24.001Z</time></trkpt><trkpt lat="42.67927408465354" lon="12.246029683408423"><ele>274.6666666666667</ele><time>2026-04-17T13:17:25.001Z</time></trkpt><trkpt lat="42.67915483971228" lon="12.246187229105342"><ele>276.0</ele><time>2026-04-17T13:17:26.001Z</time></trkpt><trkpt lat="42.6790264013341" lon="12.246328573828952"><ele>276.0</ele><time>2026-04-17T13:17:27.001Z</time></trkpt><trkpt lat="42.67888506432957" lon="12.246447219908996"><ele>276.0</ele><time>2026-04-17T13:17:28.001Z</time></trkpt><trkpt lat="42.67872870599066" lon="12.246554077204161"><ele>276.0</ele><time>2026-04-17T13:17:29.001Z</time></trkpt><trkpt lat="42.67856705146234" lon="12.246657052732504"><ele>273.6666666666667</ele><time>2026-04-17T13:17:30.001Z</time></trkpt><trkpt lat="42.67839937840362" lon="12.246773498923922"><ele>271.33333333333337</ele><time>2026-04-17T13:17:31.001Z</time></trkpt><trkpt lat="42.67823622742452" lon="12.246911324257223"><ele>269.0</ele><time>2026-04-17T13:17:32.001Z</time></trkpt><trkpt lat="42.67806840820327" lon="12.247089914373793"><ele>269.0</ele><time>2026-04-17T13:17:33.001Z</time></trkpt><trkpt lat="42.677922401851745" lon="12.247275445286617"><ele>269.0</ele><time>2026-04-17T13:17:34.001Z</time></trkpt><trkpt lat="42.677787843357805" lon="12.24744367485557"><ele>269.0</ele><time>2026-04-17T13:17:35.001Z</time></trkpt><trkpt lat="42.67767646068175" lon="12.247616504975948"><ele>267.33333333333337</ele><time>2026-04-17T13:17:36.001Z</time></trkpt><trkpt lat="42.67759284454917" lon="12.247824780134092"><ele>265.6666666666667</ele><time>2026-04-17T13:17:37.001Z</time></trkpt><trkpt lat="42.67753234760524" lon="12.248065356513424"><ele>264.0</ele><time>2026-04-17T13:17:38.001Z</time></trkpt><trkpt lat="42.677474906548305" lon="12.24834220245278"><ele>264.0</ele><time>2026-04-17T13:17:39.001Z</time></trkpt><trkpt lat="42.6774213930646" lon="12.248625460543796"><ele>264.0</ele><time>2026-04-17T13:17:40.001Z</time></trkpt><trkpt lat="42.677370808253315" lon="12.248904620611015"><ele>264.0</ele><time>2026-04-17T13:17:41.001Z</time></trkpt><trkpt lat="42.67732166193014" lon="12.249187115634035"><ele>264.0</ele><time>2026-04-17T13:17:42.001Z</time></trkpt><trkpt lat="42.67727553515392" lon="12.24948173171049"><ele>264.0</ele><time>2026-04-17T13:17:43.001Z</time></trkpt><trkpt lat="42.677235214578374" lon="12.249774033564485"><ele>264.0</ele><time>2026-04-17T13:17:44.001Z</time></trkpt><trkpt lat="42.67719985429368" lon="12.25007035545202"><ele>264.5</ele><time>2026-04-17T13:17:45.001Z</time></trkpt><trkpt lat="42.67716617046861" lon="12.25037092069052"><ele>265.0</ele><time>2026-04-17T13:17:46.001Z</time></trkpt><trkpt lat="42.677116858948054" lon="12.250773233851811"><ele>265.0</ele><time>2026-04-17T13:17:47.001Z</time></trkpt><trkpt lat="42.677075887762314" lon="12.251109975225537"><ele>265.0</ele><time>2026-04-17T13:17:48.001Z</time></trkpt><trkpt lat="42.677040555581314" lon="12.251421961615554"><ele>265.66666666666663</ele><time>2026-04-17T13:17:49.001Z</time></trkpt><trkpt lat="42.6770179020538" lon="12.251708113773805"><ele>266.3333333333333</ele><time>2026-04-17T13:17:50.001Z</time></trkpt><trkpt lat="42.677021903270294" lon="12.251979400453578"><ele>267.0</ele><time>2026-04-17T13:17:51.001Z</time></trkpt><trkpt lat="42.67704529725371" lon="12.252233983938856"><ele>268.75</ele><time>2026-04-17T13:17:52.001Z</time></trkpt><trkpt lat="42.677065291651026" lon="12.25245024944724"><ele>270.5</ele><time>2026-04-17T13:17:53.001Z</time></trkpt><trkpt lat="42.677083692265064" lon="12.252640358448383"><ele>272.25</ele><time>2026-04-17T13:17:54.001Z</time></trkpt><trkpt lat="42.67710205947522" lon="12.252821035433922"><ele>274.0</ele><time>2026-04-17T13:17:55.001Z</time></trkpt><trkpt lat="42.677117580793386" lon="12.252978859446864"><ele>275.25</ele><time>2026-04-17T13:17:56.001Z</time></trkpt><trkpt lat="42.677144609240464" lon="12.253133281380844"><ele>276.5</ele><time>2026-04-17T13:17:57.001Z</time></trkpt><trkpt lat="42.677193580871446" lon="12.253285762501463"><ele>277.75</ele><time>2026-04-17T13:17:58.001Z</time></trkpt><trkpt lat="42.67728065286274" lon="12.25342247003928"><ele>279.0</ele><time>2026-04-17T13:17:59.001Z</time></trkpt><trkpt lat="42.677402501804146" lon="12.25352320571147"><ele>279.0</ele><time>2026-04-17T13:18:00.001Z</time></trkpt><trkpt lat="42.67754901419405" lon="12.25359993428015"><ele>279.0</ele><time>2026-04-17T13:18:01.001Z</time></trkpt><trkpt lat="42.67772205972075" lon="12.253666702204258"><ele>279.0</ele><time>2026-04-17T13:18:02.001Z</time></trkpt><trkpt lat="42.6779106291541" lon="12.25372431818849"><ele>277.3333333333333</ele><time>2026-04-17T13:18:03.001Z</time></trkpt><trkpt lat="42.678076153464545" lon="12.253805213200556"><ele>275.66666666666663</ele><time>2026-04-17T13:18:04.001Z</time></trkpt><trkpt lat="42.6782210945561" lon="12.2538654748061"><ele>274.0</ele><time>2026-04-17T13:18:05.001Z</time></trkpt><trkpt lat="42.678349531669575" lon="12.253930433284184"><ele>275.0</ele><time>2026-04-17T13:18:06.001Z</time></trkpt><trkpt lat="42.67845425190074" lon="12.254003323163428"><ele>276.0</ele><time>2026-04-17T13:18:07.001Z</time></trkpt><trkpt lat="42.678534595959306" lon="12.254077288045588"><ele>277.0</ele><time>2026-04-17T13:18:08.001Z</time></trkpt><trkpt lat="42.67858435230639" lon="12.254152144213652"><ele>278.0</ele><time>2026-04-17T13:18:09.001Z</time></trkpt><trkpt lat="42.67862632599406" lon="12.254224555875277"><ele>279.0</ele><time>2026-04-17T13:18:10.001Z</time></trkpt><trkpt lat="42.67866411339554" lon="12.254307931478145"><ele>280.0</ele><time>2026-04-17T13:18:11.001Z</time></trkpt><trkpt lat="42.678695962376786" lon="12.254396470755962"><ele>280.0</ele><time>2026-04-17T13:18:12.001Z</time></trkpt><trkpt lat="42.678720780988186" lon="12.25449521177431"><ele>280.0</ele><time>2026-04-17T13:18:13.001Z</time></trkpt><trkpt lat="42.67875243025431" lon="12.254623703435898"><ele>280.0</ele><time>2026-04-17T13:18:14.001Z</time></trkpt><trkpt lat="42.678748788923976" lon="12.254774900861074"><ele>280.0</ele><time>2026-04-17T13:18:15.001Z</time></trkpt><trkpt lat="42.67871964390177" lon="12.254921241082036"><ele>280.0</ele><time>2026-04-17T13:18:16.001Z</time></trkpt><trkpt lat="42.678679382516094" lon="12.255059042190275"><ele>279.2</ele><time>2026-04-17T13:18:17.001Z</time></trkpt><trkpt lat="42.67862651196587" lon="12.255182028318261"><ele>278.4</ele><time>2026-04-17T13:18:18.001Z</time></trkpt><trkpt lat="42.67856640628915" lon="12.255291599640511"><ele>277.6</ele><time>2026-04-17T13:18:19.001Z</time></trkpt><trkpt lat="42.67850282453664" lon="12.255398921989222"><ele>276.8</ele><time>2026-04-17T13:18:20.001Z</time></trkpt><trkpt lat="42.678426953385966" lon="12.255531410215967"><ele>276.0</ele><time>2026-04-17T13:18:21.001Z</time></trkpt><trkpt lat="42.67834536584732" lon="12.255669289935362"><ele>274.40000000000003</ele><time>2026-04-17T13:18:22.001Z</time></trkpt><trkpt lat="42.67827362683246" lon="12.255796279246649"><ele>272.8</ele><time>2026-04-17T13:18:23.001Z</time></trkpt><trkpt lat="42.67820562623907" lon="12.255910391485719"><ele>271.20000000000005</ele><time>2026-04-17T13:18:24.001Z</time></trkpt><trkpt lat="42.67813762150587" lon="12.256025141351484"><ele>269.6</ele><time>2026-04-17T13:18:25.001Z</time></trkpt><trkpt lat="42.67806956315915" lon="12.256139408446282"><ele>268.0</ele><time>2026-04-17T13:18:26.001Z</time></trkpt><trkpt lat="42.678004229843495" lon="12.256253560297429"><ele>268.0</ele><time>2026-04-17T13:18:27.001Z</time></trkpt><trkpt lat="42.677943123251964" lon="12.256365218994583"><ele>268.0</ele><time>2026-04-17T13:18:28.001Z</time></trkpt><trkpt lat="42.67787866099263" lon="12.256471884240538"><ele>268.0</ele><time>2026-04-17T13:18:29.001Z</time></trkpt><trkpt lat="42.67781755854834" lon="12.256569101645375"><ele>268.0</ele><time>2026-04-17T13:18:30.001Z</time></trkpt><trkpt lat="42.67775692339314" lon="12.256665992150452"><ele>268.0</ele><time>2026-04-17T13:18:31.001Z</time></trkpt><trkpt lat="42.677699153264214" lon="12.256763650402428"><ele>267.0</ele><time>2026-04-17T13:18:32.001Z</time></trkpt><trkpt lat="42.67765123285614" lon="12.256870796325899"><ele>266.0</ele><time>2026-04-17T13:18:33.001Z</time></trkpt><trkpt lat="42.67761910207239" lon="12.256989564739714"><ele>265.0</ele><time>2026-04-17T13:18:34.001Z</time></trkpt><trkpt lat="42.677612727803385" lon="12.257113779787945"><ele>264.0</ele><time>2026-04-17T13:18:35.002Z</time></trkpt><trkpt lat="42.677625208093424" lon="12.257253489610543"><ele>263.0</ele><time>2026-04-17T13:18:36.002Z</time></trkpt><trkpt lat="42.67765796462458" lon="12.257414983263535"><ele>259.25</ele><time>2026-04-17T13:18:37.002Z</time></trkpt><trkpt lat="42.6777053956564" lon="12.257595633679912"><ele>255.5</ele><time>2026-04-17T13:18:38.002Z</time></trkpt><trkpt lat="42.67775939019183" lon="12.257772413905622"><ele>251.75</ele><time>2026-04-17T13:18:39.002Z</time></trkpt><trkpt lat="42.67781011560974" lon="12.25792111415824"><ele>248.0</ele><time>2026-04-17T13:18:40.002Z</time></trkpt><trkpt lat="42.67784400085536" lon="12.25804918793925"><ele>248.83333333333334</ele><time>2026-04-17T13:18:41.002Z</time></trkpt><trkpt lat="42.67788147034397" lon="12.258155622585877"><ele>249.66666666666669</ele><time>2026-04-17T13:18:42.002Z</time></trkpt><trkpt lat="42.677888681919065" lon="12.258255115508733"><ele>250.5</ele><time>2026-04-17T13:18:43.002Z</time></trkpt><trkpt lat="42.67790738346284" lon="12.258343635178734"><ele>251.33333333333331</ele><time>2026-04-17T13:18:44.002Z</time></trkpt><trkpt lat="42.67789073819517" lon="12.258445956843481"><ele>252.16666666666666</ele><time>2026-04-17T13:18:45.002Z</time></trkpt><trkpt lat="42.67785552500168" lon="12.258550268958603"><ele>253.0</ele><time>2026-04-17T13:18:46.002Z</time></trkpt><trkpt lat="42.67779924786734" lon="12.25864606777783"><ele>252.5</ele><time>2026-04-17T13:18:47.002Z</time></trkpt><trkpt lat="42.67771881477063" lon="12.258729277286355"><ele>252.0</ele><time>2026-04-17T13:18:48.002Z</time></trkpt><trkpt lat="42.67761956853899" lon="12.258795369794354"><ele>251.5</ele><time>2026-04-17T13:18:49.002Z</time></trkpt><trkpt lat="42.67749179616883" lon="12.258847452214914"><ele>251.0</ele><time>2026-04-17T13:18:50.002Z</time></trkpt><trkpt lat="42.67734084816741" lon="12.258896889811009"><ele>251.0</ele><time>2026-04-17T13:18:51.002Z</time></trkpt><trkpt lat="42.677201359501154" lon="12.258927056195116"><ele>251.00000000000003</ele><time>2026-04-17T13:18:52.002Z</time></trkpt><trkpt lat="42.677093972880684" lon="12.258944120259088"><ele>251.00000000000003</ele><time>2026-04-17T13:18:53.002Z</time></trkpt><trkpt lat="42.67699934582542" lon="12.258950282235505"><ele>251.0</ele><time>2026-04-17T13:18:54Z</time></trkpt><trkpt lat="42.676901873389696" lon="12.25893659980846"><ele>251.0</ele><time>2026-04-17T13:18:55Z</time></trkpt><trkpt lat="42.676807011889686" lon="12.258894241367276"><ele>249.60000000000002</ele><time>2026-04-17T13:18:56Z</time></trkpt><trkpt lat="42.67673272224632" lon="12.258858417746607"><ele>248.20000000000002</ele><time>2026-04-17T13:18:57Z</time></trkpt><trkpt lat="42.67662423876621" lon="12.258859817460014"><ele>246.79999999999998</ele><time>2026-04-17T13:18:59Z</time></trkpt><trkpt lat="42.67656057697452" lon="12.258935464801796"><ele>245.39999999999998</ele><time>2026-04-17T13:19:01Z</time></trkpt><trkpt lat="42.676548634906204" lon="12.259048865877547"><ele>244.0</ele><time>2026-04-17T13:19:03Z</time></trkpt><trkpt lat="42.67662118686308" lon="12.259199274093238"><ele>244.0</ele><time>2026-04-17T13:19:05Z</time></trkpt><trkpt lat="42.67669520210714" lon="12.259288730075486"><ele>243.99999999999997</ele><time>2026-04-17T13:19:06Z</time></trkpt><trkpt lat="42.676778307591476" lon="12.259389020981232"><ele>243.99999999999997</ele><time>2026-04-17T13:19:07Z</time></trkpt><trkpt lat="42.67682456879477" lon="12.259493919859684"><ele>244.0</ele><time>2026-04-17T13:19:08Z</time></trkpt><trkpt lat="42.67688736600256" lon="12.259559643844161"><ele>244.0</ele><time>2026-04-17T13:19:09Z</time></trkpt><trkpt lat="42.676927026685945" lon="12.259652243950304"><ele>243.49999999999997</ele><time>2026-04-17T13:19:10Z</time></trkpt><trkpt lat="42.67696891974902" lon="12.259722564014737"><ele>243.0</ele><time>2026-04-17T13:19:11Z</time></trkpt><trkpt lat="42.677011512377305" lon="12.25980106365659"><ele>242.5</ele><time>2026-04-17T13:19:12Z</time></trkpt><trkpt lat="42.67704582034623" lon="12.259881325181313"><ele>242.0</ele><time>2026-04-17T13:19:13Z</time></trkpt><trkpt lat="42.6770753891158" lon="12.260037872958584"><ele>241.49999999999997</ele><time>2026-04-17T13:19:15Z</time></trkpt><trkpt lat="42.677061409378005" lon="12.26017912443205"><ele>241.0</ele><time>2026-04-17T13:19:17Z</time></trkpt><trkpt lat="42.67703657284693" lon="12.260306632982635"><ele>240.99999999999997</ele><time>2026-04-17T13:19:19Z</time></trkpt><trkpt lat="42.67701291371212" lon="12.260474906192092"><ele>241.0</ele><time>2026-04-17T13:19:21Z</time></trkpt><trkpt lat="42.67699921430141" lon="12.260573800469722"><ele>241.0</ele><time>2026-04-17T13:19:22Z</time></trkpt><trkpt lat="42.676976338099614" lon="12.260673023144006"><ele>241.0</ele><time>2026-04-17T13:19:23Z</time></trkpt><trkpt lat="42.67694182610348" lon="12.260760416669497"><ele>240.99999999999997</ele><time>2026-04-17T13:19:24Z</time></trkpt><trkpt lat="42.67689058386125" lon="12.260835890374562"><ele>241.0</ele><time>2026-04-17T13:19:25Z</time></trkpt><trkpt lat="42.676828992274245" lon="12.260891821906366"><ele>240.16666666666666</ele><time>2026-04-17T13:19:26Z</time></trkpt><trkpt lat="42.676759743817264" lon="12.260924907930354"><ele>239.33333333333331</ele><time>2026-04-17T13:19:27Z</time></trkpt><trkpt lat="42.67667419706279" lon="12.26090097466062"><ele>238.5</ele><time>2026-04-17T13:19:28Z</time></trkpt><trkpt lat="42.676594148461355" lon="12.260935497052229"><ele>237.66666666666669</ele><time>2026-04-17T13:19:29Z</time></trkpt><trkpt lat="42.676510704946395" lon="12.260957227821647"><ele>236.83333333333334</ele><time>2026-04-17T13:19:30Z</time></trkpt><trkpt lat="42.67642462496123" lon="12.261009128270388"><ele>236.0</ele><time>2026-04-17T13:19:31Z</time></trkpt><trkpt lat="42.676337037901924" lon="12.261038825681034"><ele>236.0</ele><time>2026-04-17T13:19:32Z</time></trkpt><trkpt lat="42.676242345209985" lon="12.261073570893771"><ele>236.00000000000003</ele><time>2026-04-17T13:19:33Z</time></trkpt><trkpt lat="42.67614507587588" lon="12.261105569698891"><ele>236.00000000000003</ele><time>2026-04-17T13:19:34Z</time></trkpt><trkpt lat="42.67603843527888" lon="12.261080216646539"><ele>236.0</ele><time>2026-04-17T13:19:35Z</time></trkpt><trkpt lat="42.67593551835928" lon="12.261039747861778"><ele>236.0</ele><time>2026-04-17T13:19:36Z</time></trkpt><trkpt lat="42.67584841463867" lon="12.261008003433966"><ele>237.0</ele><time>2026-04-17T13:19:37Z</time></trkpt><trkpt lat="42.67577590992405" lon="12.260983459416732"><ele>238.00000000000003</ele><time>2026-04-17T13:19:38Z</time></trkpt><trkpt lat="42.67569896019575" lon="12.260982248705222"><ele>239.00000000000003</ele><time>2026-04-17T13:19:39Z</time></trkpt><trkpt lat="42.67561318919312" lon="12.261016319204037"><ele>240.0</ele><time>2026-04-17T13:19:40Z</time></trkpt><trkpt lat="42.67551050945816" lon="12.261092591908811"><ele>241.0</ele><time>2026-04-17T13:19:41Z</time></trkpt><trkpt lat="42.67540096512234" lon="12.261186517942198"><ele>240.99999999999997</ele><time>2026-04-17T13:19:42Z</time></trkpt><trkpt lat="42.67532161142073" lon="12.261248668257512"><ele>241.0</ele><time>2026-04-17T13:19:43Z</time></trkpt><trkpt lat="42.67524424451858" lon="12.261290749988685"><ele>241.0</ele><time>2026-04-17T13:19:44Z</time></trkpt><trkpt lat="42.67517360224545" lon="12.261342768535679"><ele>241.0</ele><time>2026-04-17T13:19:45Z</time></trkpt><trkpt lat="42.67511688513811" lon="12.261407633041186"><ele>240.99999999999997</ele><time>2026-04-17T13:19:46Z</time></trkpt><trkpt lat="42.67506343027348" lon="12.26147782932613"><ele>241.0</ele><time>2026-04-17T13:19:47.001Z</time></trkpt><trkpt lat="42.67501622866758" lon="12.26156229469039"><ele>242.83333333333331</ele><time>2026-04-17T13:19:48.001Z</time></trkpt><trkpt lat="42.67498552467152" lon="12.261652859285393"><ele>244.66666666666666</ele><time>2026-04-17T13:19:49.001Z</time></trkpt><trkpt lat="42.67497284505936" lon="12.261755880718708"><ele>246.5</ele><time>2026-04-17T13:19:50.001Z</time></trkpt><trkpt lat="42.67496355796703" lon="12.261881840211334"><ele>248.33333333333331</ele><time>2026-04-17T13:19:51.001Z</time></trkpt><trkpt lat="42.674951705218916" lon="12.262016428300202"><ele>250.16666666666666</ele><time>2026-04-17T13:19:52.001Z</time></trkpt><trkpt lat="42.674942395426534" lon="12.262125291880375"><ele>252.0</ele><time>2026-04-17T13:19:53.001Z</time></trkpt><trkpt lat="42.67493542960774" lon="12.262223260833245"><ele>254.2</ele><time>2026-04-17T13:19:54.001Z</time></trkpt><trkpt lat="42.674930647348866" lon="12.262329516194374"><ele>256.4</ele><time>2026-04-17T13:19:55.001Z</time></trkpt><trkpt lat="42.674937242115575" lon="12.262455582470386"><ele>258.6</ele><time>2026-04-17T13:19:56.001Z</time></trkpt><trkpt lat="42.67494464055392" lon="12.262603128921118"><ele>260.8</ele><time>2026-04-17T13:19:57.001Z</time></trkpt><trkpt lat="42.674944330411805" lon="12.262742907139826"><ele>263.0</ele><time>2026-04-17T13:19:58.001Z</time></trkpt><trkpt lat="42.67495860653165" lon="12.262895897097778"><ele>263.0</ele><time>2026-04-17T13:19:59.001Z</time></trkpt><trkpt lat="42.674967841345875" lon="12.263018684929778"><ele>263.0</ele><time>2026-04-17T13:20:00.001Z</time></trkpt><trkpt lat="42.67498010345981" lon="12.263111840874538"><ele>263.0</ele><time>2026-04-17T13:20:01.001Z</time></trkpt><trkpt lat="42.675002540953294" lon="12.263203006758179"><ele>263.0</ele><time>2026-04-17T13:20:02.001Z</time></trkpt><trkpt lat="42.67503337686692" lon="12.263292659908114"><ele>263.0</ele><time>2026-04-17T13:20:03.001Z</time></trkpt><trkpt lat="42.67507305709433" lon="12.263367877059105"><ele>263.0</ele><time>2026-04-17T13:20:04.001Z</time></trkpt><trkpt lat="42.675116301414505" lon="12.26345126608392"><ele>263.0</ele><time>2026-04-17T13:20:05.001Z</time></trkpt><trkpt lat="42.67520525315129" lon="12.263530865977337"><ele>262.4</ele><time>2026-04-17T13:20:06.001Z</time></trkpt><trkpt lat="42.67528526403969" lon="12.26360437496887"><ele>261.8</ele><time>2026-04-17T13:20:07.001Z</time></trkpt><trkpt lat="42.67535683400655" lon="12.26367420149191"><ele>261.2</ele><time>2026-04-17T13:20:08.001Z</time></trkpt><trkpt lat="42.67543169767733" lon="12.263748309759112"><ele>260.6</ele><time>2026-04-17T13:20:09.001Z</time></trkpt><trkpt lat="42.67552627235165" lon="12.263840401757443"><ele>260.0</ele><time>2026-04-17T13:20:10.001Z</time></trkpt><trkpt lat="42.67562601778559" lon="12.263934746726424"><ele>261.2</ele><time>2026-04-17T13:20:11.001Z</time></trkpt><trkpt lat="42.67571629595203" lon="12.264018880464933"><ele>262.4</ele><time>2026-04-17T13:20:12.001Z</time></trkpt><trkpt lat="42.67579495128135" lon="12.264092182441766"><ele>263.6</ele><time>2026-04-17T13:20:13.001Z</time></trkpt><trkpt lat="42.67586822990811" lon="12.264160473637695"><ele>264.8</ele><time>2026-04-17T13:20:14.001Z</time></trkpt><trkpt lat="42.67594074599701" lon="12.26422965349788"><ele>266.0</ele><time>2026-04-17T13:20:15.001Z</time></trkpt><trkpt lat="42.67601205659352" lon="12.264298137096619"><ele>266.0</ele><time>2026-04-17T13:20:16.001Z</time></trkpt><trkpt lat="42.676081508489055" lon="12.264364835674446"><ele>266.0</ele><time>2026-04-17T13:20:17.001Z</time></trkpt><trkpt lat="42.67614852410796" lon="12.264429194560345"><ele>266.0</ele><time>2026-04-17T13:20:18.001Z</time></trkpt><trkpt lat="42.676205822536424" lon="12.264484221480448"><ele>266.0</ele><time>2026-04-17T13:20:19.001Z</time></trkpt><trkpt lat="42.67626442671315" lon="12.26454335438707"><ele>266.0</ele><time>2026-04-17T13:20:20.001Z</time></trkpt><trkpt lat="42.67634841044556" lon="12.264644569183341"><ele>266.0</ele><time>2026-04-17T13:20:22.001Z</time></trkpt><trkpt lat="42.67640201728842" lon="12.264692095130988"><ele>265.40000000000003</ele><time>2026-04-17T13:20:23.001Z</time></trkpt><trkpt lat="42.67642471415167" lon="12.264786105643758"><ele>264.8</ele><time>2026-04-17T13:20:24.001Z</time></trkpt><trkpt lat="42.67640568843371" lon="12.264903193678917"><ele>264.20000000000005</ele><time>2026-04-17T13:20:25.001Z</time></trkpt><trkpt lat="42.67641280578349" lon="12.2650514134712"><ele>263.6</ele><time>2026-04-17T13:20:26.001Z</time></trkpt><trkpt lat="42.676375353850744" lon="12.26521387845145"><ele>263.0</ele><time>2026-04-17T13:20:27.001Z</time></trkpt><trkpt lat="42.67634259258879" lon="12.265346814590998"><ele>263.0</ele><time>2026-04-17T13:20:28.001Z</time></trkpt><trkpt lat="42.676316778825885" lon="12.265469338118272"><ele>263.0</ele><time>2026-04-17T13:20:29.001Z</time></trkpt><trkpt lat="42.67627925889479" lon="12.265572597870037"><ele>263.0</ele><time>2026-04-17T13:20:30.001Z</time></trkpt><trkpt lat="42.67625724805349" lon="12.265673423693636"><ele>263.0</ele><time>2026-04-17T13:20:31.001Z</time></trkpt><trkpt lat="42.67624395996066" lon="12.265776057836165"><ele>263.0</ele><time>2026-04-17T13:20:32.001Z</time></trkpt><trkpt lat="42.676188190527384" lon="12.265854373520183"><ele>263.0</ele><time>2026-04-17T13:20:33.001Z</time></trkpt><trkpt lat="42.67613466235515" lon="12.265926877408546"><ele>261.4</ele><time>2026-04-17T13:20:34.001Z</time></trkpt><trkpt lat="42.676057465648086" lon="12.265986017025204"><ele>259.8</ele><time>2026-04-17T13:20:35.001Z</time></trkpt><trkpt lat="42.675966119878716" lon="12.266020808534812"><ele>258.2</ele><time>2026-04-17T13:20:36.001Z</time></trkpt><trkpt lat="42.67586796352852" lon="12.266059336974145"><ele>256.6</ele><time>2026-04-17T13:20:37.001Z</time></trkpt><trkpt lat="42.6757629856431" lon="12.266099357356273"><ele>255.0</ele><time>2026-04-17T13:20:38.001Z</time></trkpt><trkpt lat="42.67564297307085" lon="12.266144387098343"><ele>255.0</ele><time>2026-04-17T13:20:39.001Z</time></trkpt><trkpt lat="42.67551734969379" lon="12.266204298998064"><ele>255.0</ele><time>2026-04-17T13:20:40.001Z</time></trkpt><trkpt lat="42.675374414110564" lon="12.266251359222656"><ele>255.0</ele><time>2026-04-17T13:20:41.001Z</time></trkpt><trkpt lat="42.67523720269861" lon="12.266296758460491"><ele>255.0</ele><time>2026-04-17T13:20:42.001Z</time></trkpt><trkpt lat="42.67510612757034" lon="12.266353678131267"><ele>252.25</ele><time>2026-04-17T13:20:43.001Z</time></trkpt><trkpt lat="42.67498284216891" lon="12.266430830221953"><ele>249.5</ele><time>2026-04-17T13:20:44.001Z</time></trkpt><trkpt lat="42.67486575787361" lon="12.266523445329593"><ele>246.75</ele><time>2026-04-17T13:20:45.001Z</time></trkpt><trkpt lat="42.674752199433875" lon="12.266621505702604"><ele>244.0</ele><time>2026-04-17T13:20:46.001Z</time></trkpt><trkpt lat="42.67463884703842" lon="12.266721225753551"><ele>244.0</ele><time>2026-04-17T13:20:47.001Z</time></trkpt><trkpt lat="42.674518619164125" lon="12.266826480256512"><ele>244.0</ele><time>2026-04-17T13:20:48.001Z</time></trkpt><trkpt lat="42.67439813465743" lon="12.266945279499074"><ele>244.0</ele><time>2026-04-17T13:20:49.001Z</time></trkpt><trkpt lat="42.6742905403398" lon="12.267065148399743"><ele>244.0</ele><time>2026-04-17T13:20:50.001Z</time></trkpt><trkpt lat="42.674197191744256" lon="12.267204699459155"><ele>243.25</ele><time>2026-04-17T13:20:51.001Z</time></trkpt><trkpt lat="42.67411369322441" lon="12.267374246339648"><ele>242.5</ele><time>2026-04-17T13:20:52.001Z</time></trkpt><trkpt lat="42.67402994828863" lon="12.267517324896227"><ele>241.75</ele><time>2026-04-17T13:20:53.001Z</time></trkpt><trkpt lat="42.67393824676519" lon="12.267620127669883"><ele>241.0</ele><time>2026-04-17T13:20:54.001Z</time></trkpt><trkpt lat="42.67383096723349" lon="12.267697223306117"><ele>241.0</ele><time>2026-04-17T13:20:55.002Z</time></trkpt><trkpt lat="42.673701433726606" lon="12.267741171315114"><ele>241.0</ele><time>2026-04-17T13:20:56.002Z</time></trkpt><trkpt lat="42.67353767144082" lon="12.267783546237537"><ele>241.0</ele><time>2026-04-17T13:20:57.002Z</time></trkpt><trkpt lat="42.67335739102033" lon="12.267838909107342"><ele>241.0</ele><time>2026-04-17T13:20:58.002Z</time></trkpt><trkpt lat="42.6731760741886" lon="12.267897376019336"><ele>241.0</ele><time>2026-04-17T13:20:59.002Z</time></trkpt><trkpt lat="42.67299447795874" lon="12.267961243295359"><ele>241.0</ele><time>2026-04-17T13:21:00Z</time></trkpt><trkpt lat="42.672815562546845" lon="12.268024385314838"><ele>237.66666666666666</ele><time>2026-04-17T13:21:01Z</time></trkpt><trkpt lat="42.67263435726946" lon="12.268088098713507"><ele>234.33333333333331</ele><time>2026-04-17T13:21:02Z</time></trkpt><trkpt lat="42.67246063251677" lon="12.268145269023755"><ele>231.0</ele><time>2026-04-17T13:21:03Z</time></trkpt><trkpt lat="42.67228430959796" lon="12.268202717007238"><ele>229.66666666666669</ele><time>2026-04-17T13:21:04Z</time></trkpt><trkpt lat="42.6721091408572" lon="12.268263356210388"><ele>228.33333333333334</ele><time>2026-04-17T13:21:05Z</time></trkpt><trkpt lat="42.671935756260474" lon="12.268323576111626"><ele>227.0</ele><time>2026-04-17T13:21:06Z</time></trkpt><trkpt lat="42.67178130294811" lon="12.268361227335363"><ele>225.25</ele><time>2026-04-17T13:21:07Z</time></trkpt><trkpt lat="42.67163661181576" lon="12.268380100045492"><ele>223.5</ele><time>2026-04-17T13:21:08Z</time></trkpt><trkpt lat="42.67149762156273" lon="12.268376790902122"><ele>221.75</ele><time>2026-04-17T13:21:09Z</time></trkpt><trkpt lat="42.671368756589345" lon="12.26834816467325"><ele>220.0</ele><time>2026-04-17T13:21:10Z</time></trkpt><trkpt lat="42.67125406034221" lon="12.268310116629923"><ele>219.99999999999997</ele><time>2026-04-17T13:21:11Z</time></trkpt><trkpt lat="42.671152749662625" lon="12.268288050354188"><ele>220.0</ele><time>2026-04-17T13:21:12Z</time></trkpt><trkpt lat="42.67106800334535" lon="12.268288961441996"><ele>220.0</ele><time>2026-04-17T13:21:13Z</time></trkpt><trkpt lat="42.67099807228053" lon="12.268319269389988"><ele>220.0</ele><time>2026-04-17T13:21:14Z</time></trkpt><trkpt lat="42.6709393485967" lon="12.268394446591408"><ele>219.99999999999997</ele><time>2026-04-17T13:21:15Z</time></trkpt><trkpt lat="42.670905917897116" lon="12.268496498606952"><ele>220.0</ele><time>2026-04-17T13:21:16Z</time></trkpt><trkpt lat="42.67090600428129" lon="12.26859232523759"><ele>219.0</ele><time>2026-04-17T13:21:17Z</time></trkpt><trkpt lat="42.67092852885277" lon="12.268697215570334"><ele>218.0</ele><time>2026-04-17T13:21:18Z</time></trkpt><trkpt lat="42.670981230288824" lon="12.268787100161088"><ele>217.0</ele><time>2026-04-17T13:21:19Z</time></trkpt><trkpt lat="42.67105292686814" lon="12.268862495077663"><ele>216.0</ele><time>2026-04-17T13:21:20Z</time></trkpt><trkpt lat="42.671138279058994" lon="12.268967502776533"><ele>215.0</ele><time>2026-04-17T13:21:21Z</time></trkpt><trkpt lat="42.67123300754325" lon="12.269052267784549"><ele>214.6</ele><time>2026-04-17T13:21:22Z</time></trkpt><trkpt lat="42.67130987525483" lon="12.269132324059914"><ele>214.2</ele><time>2026-04-17T13:21:23Z</time></trkpt><trkpt lat="42.671396765638626" lon="12.26917540601057"><ele>213.8</ele><time>2026-04-17T13:21:24Z</time></trkpt><trkpt lat="42.67147975563971" lon="12.269215272107996"><ele>213.4</ele><time>2026-04-17T13:21:25Z</time></trkpt><trkpt lat="42.67159212743979" lon="12.269237439080939"><ele>213.0</ele><time>2026-04-17T13:21:26Z</time></trkpt><trkpt lat="42.67169682784427" lon="12.26925230738287"><ele>213.0</ele><time>2026-04-17T13:21:27Z</time></trkpt><trkpt lat="42.67180970448891" lon="12.269267842413296"><ele>213.0</ele><time>2026-04-17T13:21:28Z</time></trkpt><trkpt lat="42.671934274608965" lon="12.269284986821974"><ele>213.0</ele><time>2026-04-17T13:21:29Z</time></trkpt><trkpt lat="42.67205139638551" lon="12.269301106072806"><ele>213.0</ele><time>2026-04-17T13:21:30Z</time></trkpt><trkpt lat="42.67215423670301" lon="12.269315861721706"><ele>213.5</ele><time>2026-04-17T13:21:31Z</time></trkpt><trkpt lat="42.672250789957744" lon="12.269337978528707"><ele>214.0</ele><time>2026-04-17T13:21:32Z</time></trkpt><trkpt lat="42.672325528619545" lon="12.269374197141914"><ele>214.5</ele><time>2026-04-17T13:21:33Z</time></trkpt><trkpt lat="42.67238204780395" lon="12.269420022645148"><ele>215.0</ele><time>2026-04-17T13:21:34Z</time></trkpt><trkpt lat="42.672404562450616" lon="12.269527248738635"><ele>215.5</ele><time>2026-04-17T13:21:35Z</time></trkpt><trkpt lat="42.6723990285194" lon="12.269644303807848"><ele>216.0</ele><time>2026-04-17T13:21:36Z</time></trkpt><trkpt lat="42.672348404472686" lon="12.269745326024655"><ele>216.0</ele><time>2026-04-17T13:21:37Z</time></trkpt><trkpt lat="42.67226253822212" lon="12.269795239399826"><ele>216.00000000000003</ele><time>2026-04-17T13:21:38Z</time></trkpt><trkpt lat="42.67217374432266" lon="12.269786489798156"><ele>216.00000000000003</ele><time>2026-04-17T13:21:39Z</time></trkpt><trkpt lat="42.67207761914364" lon="12.269773131121427"><ele>216.0</ele><time>2026-04-17T13:21:40Z</time></trkpt><trkpt lat="42.67193522866065" lon="12.269766910820657"><ele>216.0</ele><time>2026-04-17T13:21:41Z</time></trkpt><trkpt lat="42.67180347504294" lon="12.269779059037644"><ele>215.25</ele><time>2026-04-17T13:21:42Z</time></trkpt><trkpt lat="42.671688387034756" lon="12.26976940304807"><ele>214.5</ele><time>2026-04-17T13:21:43Z</time></trkpt><trkpt lat="42.671576596191116" lon="12.269770696915423"><ele>213.75</ele><time>2026-04-17T13:21:44Z</time></trkpt><trkpt lat="42.67146173505046" lon="12.269766615894943"><ele>213.0</ele><time>2026-04-17T13:21:45Z</time></trkpt><trkpt lat="42.67134889263115" lon="12.269760194761188"><ele>213.0</ele><time>2026-04-17T13:21:46Z</time></trkpt><trkpt lat="42.67123636767315" lon="12.269757112368454"><ele>213.0</ele><time>2026-04-17T13:21:47Z</time></trkpt><trkpt lat="42.671117975922925" lon="12.269756666832434"><ele>213.0</ele><time>2026-04-17T13:21:48Z</time></trkpt><trkpt lat="42.671006551997884" lon="12.269753488514034"><ele>213.0</ele><time>2026-04-17T13:21:49Z</time></trkpt><trkpt lat="42.670895175222775" lon="12.26975516565837"><ele>209.60000000000002</ele><time>2026-04-17T13:21:50Z</time></trkpt><trkpt lat="42.67078255085465" lon="12.269775432756456"><ele>206.20000000000002</ele><time>2026-04-17T13:21:51Z</time></trkpt><trkpt lat="42.67067493302575" lon="12.269817646663357"><ele>202.8</ele><time>2026-04-17T13:21:52Z</time></trkpt><trkpt lat="42.6705635916217" lon="12.269844340792702"><ele>199.4</ele><time>2026-04-17T13:21:53.001Z</time></trkpt><trkpt lat="42.670463902476214" lon="12.26990060636225"><ele>196.0</ele><time>2026-04-17T13:21:54.001Z</time></trkpt><trkpt lat="42.67035545800362" lon="12.269934625484177"><ele>195.20000000000002</ele><time>2026-04-17T13:21:55.001Z</time></trkpt><trkpt lat="42.67025276463559" lon="12.269974001413818"><ele>194.4</ele><time>2026-04-17T13:21:56.001Z</time></trkpt><trkpt lat="42.67015445400024" lon="12.26998621187559"><ele>193.6</ele><time>2026-04-17T13:21:57.001Z</time></trkpt><trkpt lat="42.67007109194879" lon="12.269948049732394"><ele>192.8</ele><time>2026-04-17T13:21:58.001Z</time></trkpt><trkpt lat="42.669995236594296" lon="12.269894935709429"><ele>192.0</ele><time>2026-04-17T13:21:59.001Z</time></trkpt><trkpt lat="42.669919334826325" lon="12.269811403741418"><ele>193.5</ele><time>2026-04-17T13:22:00.001Z</time></trkpt><trkpt lat="42.669823024078816" lon="12.269716507350587"><ele>195.0</ele><time>2026-04-17T13:22:01.001Z</time></trkpt><trkpt lat="42.66972357976584" lon="12.26961661103918"><ele>196.5</ele><time>2026-04-17T13:22:02.001Z</time></trkpt><trkpt lat="42.6696241726117" lon="12.269517558238295"><ele>198.0</ele><time>2026-04-17T13:22:03.001Z</time></trkpt><trkpt lat="42.66952952258169" lon="12.26942921062643"><ele>198.0</ele><time>2026-04-17T13:22:04.001Z</time></trkpt><trkpt lat="42.669444807917294" lon="12.26934777308493"><ele>198.0</ele><time>2026-04-17T13:22:05.001Z</time></trkpt><trkpt lat="42.66937512977208" lon="12.269259789579825"><ele>198.0</ele><time>2026-04-17T13:22:06.001Z</time></trkpt><trkpt lat="42.66932907030059" lon="12.269165737087539"><ele>198.0</ele><time>2026-04-17T13:22:07.001Z</time></trkpt><trkpt lat="42.66929336369944" lon="12.2690511242515"><ele>198.0</ele><time>2026-04-17T13:22:08.001Z</time></trkpt><trkpt lat="42.66924863821145" lon="12.268894462634028"><ele>193.75</ele><time>2026-04-17T13:22:09.001Z</time></trkpt><trkpt lat="42.66920021951432" lon="12.268735184478222"><ele>189.5</ele><time>2026-04-17T13:22:10.001Z</time></trkpt><trkpt lat="42.669133187009884" lon="12.268599186496408"><ele>185.25</ele><time>2026-04-17T13:22:11.001Z</time></trkpt><trkpt lat="42.669077707438895" lon="12.26845201971011"><ele>181.0</ele><time>2026-04-17T13:22:12.001Z</time></trkpt><trkpt lat="42.6690069951534" lon="12.268319093115213"><ele>181.0</ele><time>2026-04-17T13:22:13.001Z</time></trkpt><trkpt lat="42.668920832061545" lon="12.268189466335922"><ele>181.0</ele><time>2026-04-17T13:22:14.001Z</time></trkpt><trkpt lat="42.66881562193495" lon="12.268077469853116"><ele>181.0</ele><time>2026-04-17T13:22:15.001Z</time></trkpt><trkpt lat="42.66869231269052" lon="12.267995922896837"><ele>181.0</ele><time>2026-04-17T13:22:16.001Z</time></trkpt><trkpt lat="42.66857309053426" lon="12.267921467399905"><ele>179.0</ele><time>2026-04-17T13:22:17.001Z</time></trkpt><trkpt lat="42.66848408249654" lon="12.26786678753902"><ele>177.0</ele><time>2026-04-17T13:22:18.001Z</time></trkpt><trkpt lat="42.66838813879564" lon="12.267789227688056"><ele>175.0</ele><time>2026-04-17T13:22:19.001Z</time></trkpt><trkpt lat="42.66830358402408" lon="12.267727669292578"><ele>173.0</ele><time>2026-04-17T13:22:20.001Z</time></trkpt><trkpt lat="42.668217124754385" lon="12.267674713127048"><ele>171.0</ele><time>2026-04-17T13:22:21.001Z</time></trkpt><trkpt lat="42.668129847449855" lon="12.26764697034262"><ele>171.0</ele><time>2026-04-17T13:22:22.001Z</time></trkpt><trkpt lat="42.66804512182472" lon="12.267666221181079"><ele>171.0</ele><time>2026-04-17T13:22:23.001Z</time></trkpt><trkpt lat="42.66797042564814" lon="12.267736891616527"><ele>171.0</ele><time>2026-04-17T13:22:24.001Z</time></trkpt><trkpt lat="42.66791653004484" lon="12.26781958531228"><ele>171.0</ele><time>2026-04-17T13:22:25.001Z</time></trkpt><trkpt lat="42.66787309875817" lon="12.267886475372043"><ele>171.0</ele><time>2026-04-17T13:22:26.001Z</time></trkpt><trkpt lat="42.66782849693244" lon="12.267952435423622"><ele>171.0</ele><time>2026-04-17T13:22:27.001Z</time></trkpt><trkpt lat="42.66776802433996" lon="12.268017626443186"><ele>170.66666666666666</ele><time>2026-04-17T13:22:29.001Z</time></trkpt><trkpt lat="42.66770214362656" lon="12.268060883879532"><ele>170.33333333333334</ele><time>2026-04-17T13:22:32.001Z</time></trkpt><trkpt lat="42.66761036212562" lon="12.268086801843628"><ele>170.0</ele><time>2026-04-17T13:22:35.001Z</time></trkpt><trkpt lat="42.667498304924116" lon="12.268064536450064"><ele>169.66666666666669</ele><time>2026-04-17T13:22:37.001Z</time></trkpt><trkpt lat="42.667426151528" lon="12.26803819931568"><ele>169.33333333333334</ele><time>2026-04-17T13:22:39.001Z</time></trkpt><trkpt lat="42.667491431111245" lon="12.268072513626915"><ele>169.0</ele><time>2026-04-17T13:22:42.001Z</time></trkpt><trkpt lat="42.66757590494447" lon="12.26809005737177"><ele>169.0</ele><time>2026-04-17T13:22:45.001Z</time></trkpt><trkpt lat="42.66763962410016" lon="12.268076232620041"><ele>169.0</ele><time>2026-04-17T13:22:47.001Z</time></trkpt><trkpt lat="42.66771318256897" lon="12.268039885755837"><ele>169.0</ele><time>2026-04-17T13:22:49.001Z</time></trkpt><trkpt lat="42.66778544654995" lon="12.268103773575977"><ele>169.0</ele><time>2026-04-17T13:22:51.001Z</time></trkpt><trkpt lat="42.66783652685819" lon="12.2679493726247"><ele>169.0</ele><time>2026-04-17T13:22:52.001Z</time></trkpt><trkpt lat="42.66790177086884" lon="12.267876188644756"><ele>169.0</ele><time>2026-04-17T13:22:54.001Z</time></trkpt><trkpt lat="42.667962104885376" lon="12.267808888999008"><ele>169.33333333333334</ele><time>2026-04-17T13:22:56.002Z</time></trkpt><trkpt lat="42.668030543610726" lon="12.26773394814122"><ele>169.66666666666669</ele><time>2026-04-17T13:22:58.002Z</time></trkpt><trkpt lat="42.6680929701098" lon="12.26769663451156"><ele>170.0</ele><time>2026-04-17T13:22:59.002Z</time></trkpt><trkpt lat="42.668163365481405" lon="12.267685563022654"><ele>170.33333333333334</ele><time>2026-04-17T13:23:00.002Z</time></trkpt><trkpt lat="42.66825372411281" lon="12.267707674476727"><ele>170.66666666666666</ele><time>2026-04-17T13:23:01.002Z</time></trkpt><trkpt lat="42.66834295043418" lon="12.267758159473972"><ele>171.0</ele><time>2026-04-17T13:23:02.002Z</time></trkpt><trkpt lat="42.66841722978395" lon="12.267815928063655"><ele>171.0</ele><time>2026-04-17T13:23:03.002Z</time></trkpt><trkpt lat="42.668490024554856" lon="12.267867088355013"><ele>171.0</ele><time>2026-04-17T13:23:04.002Z</time></trkpt><trkpt lat="42.668557184703786" lon="12.267917491591216"><ele>171.0</ele><time>2026-04-17T13:23:05.002Z</time></trkpt><trkpt lat="42.66861542080293" lon="12.267961963490626"><ele>171.0</ele><time>2026-04-17T13:23:05.999Z</time></trkpt><trkpt lat="42.66871898549614" lon="12.268034950968193"><ele>171.0</ele><time>2026-04-17T13:23:07.999Z</time></trkpt><trkpt lat="42.668802393656506" lon="12.268097345011665"><ele>171.0</ele><time>2026-04-17T13:23:09.999Z</time></trkpt><trkpt lat="42.66886862894829" lon="12.268099235076383"><ele>170.99999999999997</ele><time>2026-04-17T13:23:11.999Z</time></trkpt><trkpt lat="42.668877645567726" lon="12.26800341183104"><ele>171.0</ele><time>2026-04-17T13:23:13.999Z</time></trkpt><trkpt lat="42.66883741794775" lon="12.267927935154136"><ele>171.0</ele><time>2026-04-17T13:23:14.999Z</time></trkpt><trkpt lat="42.66878426693494" lon="12.267866935609362"><ele>171.0</ele><time>2026-04-17T13:23:15.999Z</time></trkpt><trkpt lat="42.66873004496466" lon="12.267800971565432"><ele>171.0</ele><time>2026-04-17T13:23:16.999Z</time></trkpt><trkpt lat="42.66867133981067" lon="12.26772845555834"><ele>170.99999999999997</ele><time>2026-04-17T13:23:17.999Z</time></trkpt><trkpt lat="42.66861043160695" lon="12.267660638699864"><ele>171.0</ele><time>2026-04-17T13:23:18.999Z</time></trkpt><trkpt lat="42.66854508975408" lon="12.267596945022516"><ele>171.0</ele><time>2026-04-17T13:23:19.999Z</time></trkpt><trkpt lat="42.668483094407584" lon="12.26753643550577"><ele>171.0</ele><time>2026-04-17T13:23:20.999Z</time></trkpt><trkpt lat="42.66842922053792" lon="12.26746323135677"><ele>171.0</ele><time>2026-04-17T13:23:21.999Z</time></trkpt><trkpt lat="42.668384657039844" lon="12.267377370713529"><ele>171.0</ele><time>2026-04-17T13:23:22.999Z</time></trkpt><trkpt lat="42.66834672656652" lon="12.267292408183062"><ele>171.0</ele><time>2026-04-17T13:23:23.999Z</time></trkpt><trkpt lat="42.66831215683741" lon="12.2672057226694"><ele>171.0</ele><time>2026-04-17T13:23:24.999Z</time></trkpt><trkpt lat="42.66827368955384" lon="12.26711629856324"><ele>170.66666666666666</ele><time>2026-04-17T13:23:25.999Z</time></trkpt><trkpt lat="42.66822471831098" lon="12.267045717248163"><ele>170.33333333333334</ele><time>2026-04-17T13:23:26.999Z</time></trkpt><trkpt lat="42.66815874466294" lon="12.26699184353765"><ele>170.0</ele><time>2026-04-17T13:23:28Z</time></trkpt><trkpt lat="42.66807821562522" lon="12.266955203026662"><ele>169.66666666666669</ele><time>2026-04-17T13:23:29Z</time></trkpt><trkpt lat="42.667986978330184" lon="12.266933550750473"><ele>169.33333333333334</ele><time>2026-04-17T13:23:30Z</time></trkpt><trkpt lat="42.667879694870194" lon="12.266910853799885"><ele>169.0</ele><time>2026-04-17T13:23:31Z</time></trkpt><trkpt lat="42.667776857891546" lon="12.266870227492888"><ele>169.0</ele><time>2026-04-17T13:23:32Z</time></trkpt><trkpt lat="42.66767328928911" lon="12.266820909044037"><ele>169.0</ele><time>2026-04-17T13:23:33Z</time></trkpt><trkpt lat="42.667576293583565" lon="12.266770403101468"><ele>169.0</ele><time>2026-04-17T13:23:34Z</time></trkpt><trkpt lat="42.66748202511108" lon="12.26671560133341"><ele>169.0</ele><time>2026-04-17T13:23:35Z</time></trkpt><trkpt lat="42.66738602663304" lon="12.2666566088086"><ele>169.0</ele><time>2026-04-17T13:23:36Z</time></trkpt><trkpt lat="42.66728108604443" lon="12.26660078671979"><ele>169.0</ele><time>2026-04-17T13:23:37Z</time></trkpt><trkpt lat="42.66716855269843" lon="12.26654140854513"><ele>169.0</ele><time>2026-04-17T13:23:38Z</time></trkpt><trkpt lat="42.66705971672337" lon="12.266479784978095"><ele>169.0</ele><time>2026-04-17T13:23:39Z</time></trkpt><trkpt lat="42.66696231061981" lon="12.266422626331202"><ele>169.0</ele><time>2026-04-17T13:23:40Z</time></trkpt><trkpt lat="42.666880439216676" lon="12.266369657815998"><ele>169.0</ele><time>2026-04-17T13:23:41Z</time></trkpt><trkpt lat="42.666800508460405" lon="12.26626333940237"><ele>168.39999999999998</ele><time>2026-04-17T13:23:43Z</time></trkpt><trkpt lat="42.66688392926734" lon="12.266104179754818"><ele>167.8</ele><time>2026-04-17T13:23:45Z</time></trkpt><trkpt lat="42.66688963448207" lon="12.265997290542892"><ele>167.2</ele><time>2026-04-17T13:23:47Z</time></trkpt><trkpt lat="42.66684717275203" lon="12.265903453551616"><ele>166.60000000000002</ele><time>2026-04-17T13:23:48Z</time></trkpt><trkpt lat="42.66680745663293" lon="12.265737466256367"><ele>166.0</ele><time>2026-04-17T13:23:50Z</time></trkpt><trkpt lat="42.6667668781446" lon="12.26564815091325"><ele>166.20000000000002</ele><time>2026-04-17T13:23:51Z</time></trkpt><trkpt lat="42.666711028548306" lon="12.265561191031498"><ele>166.4</ele><time>2026-04-17T13:23:52Z</time></trkpt><trkpt lat="42.66664432109006" lon="12.265481702438343"><ele>166.6</ele><time>2026-04-17T13:23:53Z</time></trkpt><trkpt lat="42.666571572583344" lon="12.26540546531989"><ele>166.8</ele><time>2026-04-17T13:23:54Z</time></trkpt><trkpt lat="42.66649030005565" lon="12.265326178402768"><ele>167.0</ele><time>2026-04-17T13:23:55Z</time></trkpt><trkpt lat="42.666403204102174" lon="12.265244618252435"><ele>167.0</ele><time>2026-04-17T13:23:56Z</time></trkpt><trkpt lat="42.66631078081142" lon="12.265182350404375"><ele>167.0</ele><time>2026-04-17T13:23:57Z</time></trkpt><trkpt lat="42.66621301955603" lon="12.265138232534628"><ele>167.0</ele><time>2026-04-17T13:23:58Z</time></trkpt><trkpt lat="42.66611382052314" lon="12.265131000977819"><ele>167.0</ele><time>2026-04-17T13:23:59Z</time></trkpt><trkpt lat="42.666016828303746" lon="12.265143279213842"><ele>167.0</ele><time>2026-04-17T13:24:00Z</time></trkpt><trkpt lat="42.66591761565743" lon="12.265142042344701"><ele>166.5</ele><time>2026-04-17T13:24:01Z</time></trkpt><trkpt lat="42.66581497872532" lon="12.265099788171108"><ele>166.0</ele><time>2026-04-17T13:24:02Z</time></trkpt><trkpt lat="42.66570691432706" lon="12.265046609891472"><ele>165.5</ele><time>2026-04-17T13:24:03Z</time></trkpt><trkpt lat="42.66559252124461" lon="12.264983003056445"><ele>165.0</ele><time>2026-04-17T13:24:04Z</time></trkpt><trkpt lat="42.66547385718321" lon="12.264923219205546"><ele>165.0</ele><time>2026-04-17T13:24:05Z</time></trkpt><trkpt lat="42.665352679646354" lon="12.26485980478186"><ele>165.0</ele><time>2026-04-17T13:24:06Z</time></trkpt><trkpt lat="42.665230646779435" lon="12.264797509123385"><ele>165.0</ele><time>2026-04-17T13:24:07Z</time></trkpt><trkpt lat="42.665105460032855" lon="12.264735694621345"><ele>165.0</ele><time>2026-04-17T13:24:08Z</time></trkpt><trkpt lat="42.66498656093245" lon="12.264676767826192"><ele>168.0</ele><time>2026-04-17T13:24:09Z</time></trkpt><trkpt lat="42.66486850019722" lon="12.264620438571844"><ele>171.0</ele><time>2026-04-17T13:24:10.001Z</time></trkpt><trkpt lat="42.66474525747477" lon="12.26455881615078"><ele>174.0</ele><time>2026-04-17T13:24:11.001Z</time></trkpt><trkpt lat="42.66462439897124" lon="12.264492360409637"><ele>177.0</ele><time>2026-04-17T13:24:12.001Z</time></trkpt><trkpt lat="42.664503324459815" lon="12.26442937444697"><ele>174.0</ele><time>2026-04-17T13:24:13.001Z</time></trkpt><trkpt lat="42.66438803461311" lon="12.264368623345337"><ele>171.0</ele><time>2026-04-17T13:24:14.001Z</time></trkpt><trkpt lat="42.66427551799479" lon="12.264308064102565"><ele>168.0</ele><time>2026-04-17T13:24:15.001Z</time></trkpt><trkpt lat="42.664171618738116" lon="12.264258746396054"><ele>165.0</ele><time>2026-04-17T13:24:16.001Z</time></trkpt><trkpt lat="42.66407367137404" lon="12.264212261195356"><ele>165.0</ele><time>2026-04-17T13:24:17.001Z</time></trkpt><trkpt lat="42.663974340342705" lon="12.2641647173123"><ele>165.0</ele><time>2026-04-17T13:24:18.001Z</time></trkpt><trkpt lat="42.66388045262406" lon="12.264120546802443"><ele>165.0</ele><time>2026-04-17T13:24:19.001Z</time></trkpt><trkpt lat="42.66381020732878" lon="12.264093001285465"><ele>165.0</ele><time>2026-04-17T13:24:20.001Z</time></trkpt><trkpt lat="42.66370918499774" lon="12.264058319049314"><ele>165.0</ele><time>2026-04-17T13:24:22.001Z</time></trkpt><trkpt lat="42.663620475806056" lon="12.264056118678894"><ele>164.0</ele><time>2026-04-17T13:24:24.001Z</time></trkpt><trkpt lat="42.66353289735718" lon="12.26405892616158"><ele>163.0</ele><time>2026-04-17T13:24:26.001Z</time></trkpt><trkpt lat="42.66345245709203" lon="12.264075598326224"><ele>162.0</ele><time>2026-04-17T13:24:28.001Z</time></trkpt><trkpt lat="42.663383061390135" lon="12.264126359882537"><ele>161.0</ele><time>2026-04-17T13:24:30.001Z</time></trkpt><trkpt lat="42.66332413910048" lon="12.26424529081215"><ele>160.0</ele><time>2026-04-17T13:24:32.001Z</time></trkpt><trkpt lat="42.66330612052649" lon="12.26434514123783"><ele>159.0</ele><time>2026-04-17T13:24:33.001Z</time></trkpt><trkpt lat="42.663300117612515" lon="12.264454773418697"><ele>159.0</ele><time>2026-04-17T13:24:34.001Z</time></trkpt><trkpt lat="42.66329743767422" lon="12.26457959525113"><ele>159.0</ele><time>2026-04-17T13:24:35.001Z</time></trkpt><trkpt lat="42.66328671457304" lon="12.264718760871524"><ele>159.0</ele><time>2026-04-17T13:24:36.001Z</time></trkpt><trkpt lat="42.66326820662447" lon="12.264853676482081"><ele>159.0</ele><time>2026-04-17T13:24:37.001Z</time></trkpt><trkpt lat="42.66324378045524" lon="12.264984257293726"><ele>159.0</ele><time>2026-04-17T13:24:38.001Z</time></trkpt><trkpt lat="42.66322649883681" lon="12.265105935571532"><ele>159.66666666666666</ele><time>2026-04-17T13:24:39.001Z</time></trkpt><trkpt lat="42.663200593699486" lon="12.265209572955003"><ele>160.33333333333334</ele><time>2026-04-17T13:24:40.001Z</time></trkpt><trkpt lat="42.66318709473988" lon="12.265305505651066"><ele>161.0</ele><time>2026-04-17T13:24:41.001Z</time></trkpt><trkpt lat="42.66316893963626" lon="12.265428660354026"><ele>161.66666666666669</ele><time>2026-04-17T13:24:42.001Z</time></trkpt><trkpt lat="42.66314889030066" lon="12.265571437849628"><ele>162.33333333333334</ele><time>2026-04-17T13:24:43.001Z</time></trkpt><trkpt lat="42.66313298778236" lon="12.265699736059"><ele>163.0</ele><time>2026-04-17T13:24:44.001Z</time></trkpt><trkpt lat="42.66311394415333" lon="12.265821415553932"><ele>164.5</ele><time>2026-04-17T13:24:45.001Z</time></trkpt><trkpt lat="42.663106257742584" lon="12.265937634182547"><ele>166.0</ele><time>2026-04-17T13:24:46.001Z</time></trkpt><trkpt lat="42.66307982317494" lon="12.266039360921324"><ele>167.5</ele><time>2026-04-17T13:24:47.001Z</time></trkpt><trkpt lat="42.66304317974547" lon="12.266122788628538"><ele>169.0</ele><time>2026-04-17T13:24:48.001Z</time></trkpt><trkpt lat="42.662997615968806" lon="12.266192856770704"><ele>170.5</ele><time>2026-04-17T13:24:49.001Z</time></trkpt><trkpt lat="42.6629301361296" lon="12.266253954753221"><ele>172.0</ele><time>2026-04-17T13:24:50.001Z</time></trkpt><trkpt lat="42.66288880641242" lon="12.26632427284296"><ele>173.2</ele><time>2026-04-17T13:24:51.001Z</time></trkpt><trkpt lat="42.66278648682429" lon="12.266460923658832"><ele>174.39999999999998</ele><time>2026-04-17T13:24:53.001Z</time></trkpt><trkpt lat="42.66271650403456" lon="12.266545440263425"><ele>175.60000000000002</ele><time>2026-04-17T13:24:54.001Z</time></trkpt><trkpt lat="42.66267133719822" lon="12.266647033797822"><ele>176.8</ele><time>2026-04-17T13:24:55.001Z</time></trkpt><trkpt lat="42.66261599151669" lon="12.26674766255487"><ele>178.0</ele><time>2026-04-17T13:24:56.001Z</time></trkpt><trkpt lat="42.66257225000109" lon="12.2668714851091"><ele>178.0</ele><time>2026-04-17T13:24:57.001Z</time></trkpt><trkpt lat="42.66254127786116" lon="12.266969665732628"><ele>178.0</ele><time>2026-04-17T13:24:58.001Z</time></trkpt><trkpt lat="42.6624988804734" lon="12.267070766025146"><ele>178.0</ele><time>2026-04-17T13:24:59.001Z</time></trkpt><trkpt lat="42.662459472459815" lon="12.267189527902078"><ele>178.0</ele><time>2026-04-17T13:25:00.001Z</time></trkpt><trkpt lat="42.6624095138022" lon="12.267308781917771"><ele>178.0</ele><time>2026-04-17T13:25:01.001Z</time></trkpt><trkpt lat="42.66235004903577" lon="12.267425160656595"><ele>179.5</ele><time>2026-04-17T13:25:02.001Z</time></trkpt><trkpt lat="42.66228350263997" lon="12.267555733384548"><ele>181.0</ele><time>2026-04-17T13:25:03.001Z</time></trkpt><trkpt lat="42.662224565321544" lon="12.267695369679586"><ele>182.5</ele><time>2026-04-17T13:25:04.002Z</time></trkpt><trkpt lat="42.66216284365684" lon="12.267829364097283"><ele>184.0</ele><time>2026-04-17T13:25:05.002Z</time></trkpt><trkpt lat="42.66211250340808" lon="12.267957321173768"><ele>184.0</ele><time>2026-04-17T13:25:06.002Z</time></trkpt><trkpt lat="42.66206918477721" lon="12.268075274063635"><ele>184.0</ele><time>2026-04-17T13:25:07.002Z</time></trkpt><trkpt lat="42.662029662217364" lon="12.26819567006012"><ele>184.0</ele><time>2026-04-17T13:25:08.002Z</time></trkpt><trkpt lat="42.661975604164006" lon="12.268317826332972"><ele>184.0</ele><time>2026-04-17T13:25:09.002Z</time></trkpt><trkpt lat="42.661919998704555" lon="12.268442810506631"><ele>184.0</ele><time>2026-04-17T13:25:10.002Z</time></trkpt><trkpt lat="42.66186602138301" lon="12.268537099644467"><ele>186.16666666666669</ele><time>2026-04-17T13:25:11.002Z</time></trkpt><trkpt lat="42.661821068417744" lon="12.26861486166639"><ele>188.33333333333334</ele><time>2026-04-17T13:25:11.999Z</time></trkpt><trkpt lat="42.66175576065237" lon="12.268753521516754"><ele>190.5</ele><time>2026-04-17T13:25:13.999Z</time></trkpt><trkpt lat="42.66169283839415" lon="12.268825039592036"><ele>192.66666666666669</ele><time>2026-04-17T13:25:14.999Z</time></trkpt><trkpt lat="42.66164261305452" lon="12.268904535334391"><ele>194.83333333333334</ele><time>2026-04-17T13:25:15.999Z</time></trkpt><trkpt lat="42.66158920862763" lon="12.269005418256036"><ele>197.0</ele><time>2026-04-17T13:25:16.999Z</time></trkpt><trkpt lat="42.66153741256692" lon="12.269104654378348"><ele>197.83333333333334</ele><time>2026-04-17T13:25:17.999Z</time></trkpt><trkpt lat="42.66148663760468" lon="12.269201036011891"><ele>198.66666666666669</ele><time>2026-04-17T13:25:18.999Z</time></trkpt><trkpt lat="42.66143164733164" lon="12.26929897946505"><ele>199.5</ele><time>2026-04-17T13:25:19.999Z</time></trkpt><trkpt lat="42.661377949511014" lon="12.269380052164236"><ele>200.33333333333331</ele><time>2026-04-17T13:25:20.999Z</time></trkpt><trkpt lat="42.66132343798433" lon="12.269451087917432"><ele>201.16666666666666</ele><time>2026-04-17T13:25:21.999Z</time></trkpt><trkpt lat="42.66126142288084" lon="12.269540881722456"><ele>202.0</ele><time>2026-04-17T13:25:22.999Z</time></trkpt><trkpt lat="42.661189967197906" lon="12.269644958610344"><ele>201.99999999999997</ele><time>2026-04-17T13:25:23.999Z</time></trkpt><trkpt lat="42.66113577975112" lon="12.269765765812778"><ele>202.0</ele><time>2026-04-17T13:25:24.999Z</time></trkpt><trkpt lat="42.661086421765596" lon="12.269870448140972"><ele>202.0</ele><time>2026-04-17T13:25:25.999Z</time></trkpt><trkpt lat="42.66104415956224" lon="12.269954512487494"><ele>202.0</ele><time>2026-04-17T13:25:26.999Z</time></trkpt><trkpt lat="42.66100865685621" lon="12.270027690070437"><ele>201.99999999999997</ele><time>2026-04-17T13:25:27.999Z</time></trkpt><trkpt lat="42.660973153457874" lon="12.270101499359525"><ele>202.0</ele><time>2026-04-17T13:25:29Z</time></trkpt><trkpt lat="42.66093845234858" lon="12.27017723430337"><ele>203.49999999999997</ele><time>2026-04-17T13:25:30Z</time></trkpt><trkpt lat="42.66090537855985" lon="12.270254682463216"><ele>205.0</ele><time>2026-04-17T13:25:31Z</time></trkpt><trkpt lat="42.66085796680308" lon="12.270325078020784"><ele>206.5</ele><time>2026-04-17T13:25:32Z</time></trkpt><trkpt lat="42.66080916387417" lon="12.270398746727214"><ele>208.0</ele><time>2026-04-17T13:25:33Z</time></trkpt><trkpt lat="42.66075180300854" lon="12.270489510037141"><ele>209.49999999999997</ele><time>2026-04-17T13:25:34Z</time></trkpt><trkpt lat="42.66069513986376" lon="12.270594482685567"><ele>211.0</ele><time>2026-04-17T13:25:35Z</time></trkpt><trkpt lat="42.660656901997335" lon="12.270691125332897"><ele>212.16666666666666</ele><time>2026-04-17T13:25:36Z</time></trkpt><trkpt lat="42.66063384800249" lon="12.270795140492728"><ele>213.33333333333331</ele><time>2026-04-17T13:25:37Z</time></trkpt><trkpt lat="42.66063921265517" lon="12.270897313375762"><ele>214.5</ele><time>2026-04-17T13:25:38Z</time></trkpt><trkpt lat="42.660666778509906" lon="12.270991758786868"><ele>215.66666666666669</ele><time>2026-04-17T13:25:39Z</time></trkpt><trkpt lat="42.66071131562303" lon="12.271085003135607"><ele>216.83333333333334</ele><time>2026-04-17T13:25:40Z</time></trkpt><trkpt lat="42.66076423399489" lon="12.271195925246037"><ele>218.0</ele><time>2026-04-17T13:25:41Z</time></trkpt><trkpt lat="42.66082181269732" lon="12.271309956106156"><ele>218.0</ele><time>2026-04-17T13:25:42Z</time></trkpt><trkpt lat="42.660871042674096" lon="12.27142584324983"><ele>218.0</ele><time>2026-04-17T13:25:43Z</time></trkpt><trkpt lat="42.660923821494706" lon="12.271534467596101"><ele>218.0</ele><time>2026-04-17T13:25:44Z</time></trkpt><trkpt lat="42.660971751558804" lon="12.271660379571738"><ele>218.0</ele><time>2026-04-17T13:25:45Z</time></trkpt><trkpt lat="42.661017498121836" lon="12.271761487395846"><ele>218.0</ele><time>2026-04-17T13:25:46Z</time></trkpt><trkpt lat="42.661057256519555" lon="12.271863343288082"><ele>218.16666666666669</ele><time>2026-04-17T13:25:47Z</time></trkpt><trkpt lat="42.6611077071672" lon="12.271951405518948"><ele>218.33333333333334</ele><time>2026-04-17T13:25:48Z</time></trkpt><trkpt lat="42.66116210047026" lon="12.27203155861913"><ele>218.5</ele><time>2026-04-17T13:25:49Z</time></trkpt><trkpt lat="42.661217204316934" lon="12.272111190505061"><ele>218.66666666666669</ele><time>2026-04-17T13:25:50Z</time></trkpt><trkpt lat="42.66127854483317" lon="12.2721816624229"><ele>218.83333333333334</ele><time>2026-04-17T13:25:51Z</time></trkpt><trkpt lat="42.661327323463844" lon="12.272267719530292"><ele>219.0</ele><time>2026-04-17T13:25:52Z</time></trkpt><trkpt lat="42.66138336273321" lon="12.272336302492128"><ele>220.0</ele><time>2026-04-17T13:25:53Z</time></trkpt><trkpt lat="42.66143289472172" lon="12.272399650410422"><ele>221.0</ele><time>2026-04-17T13:25:54Z</time></trkpt><trkpt lat="42.661480173152306" lon="12.272458157522495"><ele>222.0</ele><time>2026-04-17T13:25:55Z</time></trkpt><trkpt lat="42.66149518580578" lon="12.272544542185884"><ele>223.0</ele><time>2026-04-17T13:25:56Z</time></trkpt><trkpt lat="42.661448547746645" lon="12.27269478174643"><ele>224.0</ele><time>2026-04-17T13:25:58Z</time></trkpt><trkpt lat="42.661407235733975" lon="12.272833975579077"><ele>225.0</ele><time>2026-04-17T13:26:00Z</time></trkpt><trkpt lat="42.66136399363559" lon="12.272960413068256"><ele>225.0</ele><time>2026-04-17T13:26:02Z</time></trkpt><trkpt lat="42.66134266805476" lon="12.273055331948493"><ele>225.0</ele><time>2026-04-17T13:26:03Z</time></trkpt><trkpt lat="42.66132921380784" lon="12.273159042172507"><ele>225.0</ele><time>2026-04-17T13:26:04Z</time></trkpt><trkpt lat="42.66131102034865" lon="12.273273008372303"><ele>225.0</ele><time>2026-04-17T13:26:05Z</time></trkpt><trkpt lat="42.66130361688783" lon="12.273413756037858"><ele>225.0</ele><time>2026-04-17T13:26:06Z</time></trkpt><trkpt lat="42.661315412206505" lon="12.27356156201454"><ele>225.0</ele><time>2026-04-17T13:26:07.001Z</time></trkpt><trkpt lat="42.6613110046815" lon="12.273680339367663"><ele>225.83333333333334</ele><time>2026-04-17T13:26:08.001Z</time></trkpt><trkpt lat="42.661308239399744" lon="12.273784094744551"><ele>226.66666666666669</ele><time>2026-04-17T13:26:09.001Z</time></trkpt><trkpt lat="42.66130951640202" lon="12.273894952385142"><ele>227.5</ele><time>2026-04-17T13:26:10.001Z</time></trkpt><trkpt lat="42.661302551986225" lon="12.27400470950742"><ele>228.33333333333334</ele><time>2026-04-17T13:26:11.001Z</time></trkpt><trkpt lat="42.66129985522622" lon="12.274109269185045"><ele>229.16666666666669</ele><time>2026-04-17T13:26:12.001Z</time></trkpt><trkpt lat="42.661303382895746" lon="12.274213568464313"><ele>230.0</ele><time>2026-04-17T13:26:13.001Z</time></trkpt><trkpt lat="42.66132415231925" lon="12.274327677736768"><ele>231.00000000000003</ele><time>2026-04-17T13:26:14.001Z</time></trkpt><trkpt lat="42.66133270829212" lon="12.274463954899806"><ele>232.0</ele><time>2026-04-17T13:26:15.001Z</time></trkpt><trkpt lat="42.66136009422864" lon="12.274590010021564"><ele>233.0</ele><time>2026-04-17T13:26:16.001Z</time></trkpt><trkpt lat="42.661375392312884" lon="12.274682231943586"><ele>234.0</ele><time>2026-04-17T13:26:17.001Z</time></trkpt><trkpt lat="42.66139669450898" lon="12.274769934495831"><ele>235.00000000000003</ele><time>2026-04-17T13:26:18.001Z</time></trkpt><trkpt lat="42.66138640114264" lon="12.274858885147609"><ele>236.0</ele><time>2026-04-17T13:26:19.001Z</time></trkpt><trkpt lat="42.66140055737857" lon="12.274947317860814"><ele>237.83333333333334</ele><time>2026-04-17T13:26:20.001Z</time></trkpt><trkpt lat="42.66137085779353" lon="12.275042461850083"><ele>239.66666666666669</ele><time>2026-04-17T13:26:21.001Z</time></trkpt><trkpt lat="42.66131327232323" lon="12.275134469872679"><ele>241.5</ele><time>2026-04-17T13:26:22.001Z</time></trkpt><trkpt lat="42.66121916244092" lon="12.275144870285258"><ele>243.33333333333331</ele><time>2026-04-17T13:26:23.001Z</time></trkpt><trkpt lat="42.661136911807986" lon="12.275168590813044"><ele>245.16666666666666</ele><time>2026-04-17T13:26:24.001Z</time></trkpt><trkpt lat="42.66105755425777" lon="12.275192011906077"><ele>247.0</ele><time>2026-04-17T13:26:25.001Z</time></trkpt><trkpt lat="42.66098268919353" lon="12.27523044691274"><ele>247.8</ele><time>2026-04-17T13:26:26.001Z</time></trkpt><trkpt lat="42.66090528600162" lon="12.275259950046724"><ele>248.6</ele><time>2026-04-17T13:26:27.001Z</time></trkpt><trkpt lat="42.660838612385376" lon="12.27532053478302"><ele>249.40000000000003</ele><time>2026-04-17T13:26:28.001Z</time></trkpt><trkpt lat="42.660811317138716" lon="12.275431816941568"><ele>250.20000000000002</ele><time>2026-04-17T13:26:29.001Z</time></trkpt><trkpt lat="42.66082735541138" lon="12.27555756189947"><ele>251.0</ele><time>2026-04-17T13:26:30.001Z</time></trkpt><trkpt lat="42.660881973628555" lon="12.275720393657732"><ele>253.20000000000002</ele><time>2026-04-17T13:26:31.001Z</time></trkpt><trkpt lat="42.66092392249301" lon="12.27588831461668"><ele>255.40000000000003</ele><time>2026-04-17T13:26:32.001Z</time></trkpt><trkpt lat="42.6609707084367" lon="12.27602384416819"><ele>257.6</ele><time>2026-04-17T13:26:33.001Z</time></trkpt><trkpt lat="42.66099216943347" lon="12.276162123458144"><ele>259.8</ele><time>2026-04-17T13:26:34.001Z</time></trkpt><trkpt lat="42.66103076814751" lon="12.276283558025604"><ele>262.0</ele><time>2026-04-17T13:26:35.001Z</time></trkpt><trkpt lat="42.661056765467215" lon="12.27641527900992"><ele>263.5</ele><time>2026-04-17T13:26:36.001Z</time></trkpt><trkpt lat="42.661074067071965" lon="12.276547055402286"><ele>265.0</ele><time>2026-04-17T13:26:37.001Z</time></trkpt><trkpt lat="42.66109052450921" lon="12.276668346121996"><ele>266.5</ele><time>2026-04-17T13:26:38.001Z</time></trkpt><trkpt lat="42.66111533448552" lon="12.276772667161785"><ele>268.0</ele><time>2026-04-17T13:26:39.001Z</time></trkpt><trkpt lat="42.66115243035979" lon="12.276862400769724"><ele>269.5</ele><time>2026-04-17T13:26:40.001Z</time></trkpt><trkpt lat="42.66120328573152" lon="12.276946420501767"><ele>271.0</ele><time>2026-04-17T13:26:41.001Z</time></trkpt><trkpt lat="42.6612412278799" lon="12.277040901496779"><ele>271.0</ele><time>2026-04-17T13:26:42.001Z</time></trkpt><trkpt lat="42.661298440005105" lon="12.27712972170293"><ele>271.0</ele><time>2026-04-17T13:26:43.001Z</time></trkpt><trkpt lat="42.6613529025318" lon="12.277225029344223"><ele>271.0</ele><time>2026-04-17T13:26:44.001Z</time></trkpt><trkpt lat="42.661409559031895" lon="12.277332838163996"><ele>271.0</ele><time>2026-04-17T13:26:45.001Z</time></trkpt><trkpt lat="42.66146772478348" lon="12.277447808622785"><ele>271.0</ele><time>2026-04-17T13:26:46.001Z</time></trkpt><trkpt lat="42.66154123002219" lon="12.277573784272649"><ele>273.5</ele><time>2026-04-17T13:26:47.001Z</time></trkpt><trkpt lat="42.661603297535706" lon="12.277713623150749"><ele>276.0</ele><time>2026-04-17T13:26:48.001Z</time></trkpt><trkpt lat="42.66165344548187" lon="12.277854413162212"><ele>278.5</ele><time>2026-04-17T13:26:49.001Z</time></trkpt><trkpt lat="42.66172485199381" lon="12.277998689397492"><ele>281.0</ele><time>2026-04-17T13:26:50.001Z</time></trkpt><trkpt lat="42.661796907763474" lon="12.278103170900637"><ele>281.83333333333337</ele><time>2026-04-17T13:26:51.001Z</time></trkpt><trkpt lat="42.66184158540292" lon="12.278196178261531"><ele>282.6666666666667</ele><time>2026-04-17T13:26:52.001Z</time></trkpt><trkpt lat="42.66188028325652" lon="12.278289780747146"><ele>283.5</ele><time>2026-04-17T13:26:53.001Z</time></trkpt><trkpt lat="42.66193293131833" lon="12.278378898388686"><ele>284.3333333333333</ele><time>2026-04-17T13:26:54.001Z</time></trkpt><trkpt lat="42.66199880212127" lon="12.278476962889009"><ele>285.16666666666663</ele><time>2026-04-17T13:26:55.002Z</time></trkpt><trkpt lat="42.66206024617448" lon="12.2785848403942"><ele>286.0</ele><time>2026-04-17T13:26:56.002Z</time></trkpt><trkpt lat="42.66212445138076" lon="12.2786889749495"><ele>286.0</ele><time>2026-04-17T13:26:57.002Z</time></trkpt><trkpt lat="42.66218717045139" lon="12.278780798985435"><ele>286.0</ele><time>2026-04-17T13:26:58.002Z</time></trkpt><trkpt lat="42.662248829132224" lon="12.278869956478536"><ele>286.0</ele><time>2026-04-17T13:26:59.002Z</time></trkpt><trkpt lat="42.662299690910885" lon="12.278965863058737"><ele>286.0</ele><time>2026-04-17T13:27:00.002Z</time></trkpt><trkpt lat="42.66237712357364" lon="12.279044685582306"><ele>286.0</ele><time>2026-04-17T13:27:01.002Z</time></trkpt><trkpt lat="42.66243906441246" lon="12.279139824063664"><ele>287.2</ele><time>2026-04-17T13:27:02.002Z</time></trkpt><trkpt lat="42.66250401922554" lon="12.279217828010674"><ele>288.40000000000003</ele><time>2026-04-17T13:27:03.002Z</time></trkpt><trkpt lat="42.66257857384941" lon="12.279285494146704"><ele>289.6</ele><time>2026-04-17T13:27:04.002Z</time></trkpt><trkpt lat="42.66266516896655" lon="12.279348443041076"><ele>290.8</ele><time>2026-04-17T13:27:05.002Z</time></trkpt><trkpt lat="42.66276531880344" lon="12.279393024803127"><ele>292.0</ele><time>2026-04-17T13:27:06.002Z</time></trkpt><trkpt lat="42.662865506512865" lon="12.279420084122986"><ele>292.0</ele><time>2026-04-17T13:27:07.002Z</time></trkpt><trkpt lat="42.66294731059771" lon="12.279472882469102"><ele>292.0</ele><time>2026-04-17T13:27:08.002Z</time></trkpt><trkpt lat="42.663026746480554" lon="12.279505329719962"><ele>292.0</ele><time>2026-04-17T13:27:09.002Z</time></trkpt><trkpt lat="42.663105072313684" lon="12.279538621955947"><ele>292.0</ele><time>2026-04-17T13:27:10.002Z</time></trkpt><trkpt lat="42.66317962263021" lon="12.279580263706013"><ele>292.0</ele><time>2026-04-17T13:27:11.002Z</time></trkpt><trkpt lat="42.66325092252603" lon="12.279652663284915"><ele>292.0</ele><time>2026-04-17T13:27:12.002Z</time></trkpt><trkpt lat="42.6633146364858" lon="12.279745453757378"><ele>293.6</ele><time>2026-04-17T13:27:13.002Z</time></trkpt><trkpt lat="42.663355611410914" lon="12.279844455665414"><ele>295.2</ele><time>2026-04-17T13:27:14.002Z</time></trkpt><trkpt lat="42.663392490841446" lon="12.279958470270318"><ele>296.8</ele><time>2026-04-17T13:27:15.002Z</time></trkpt><trkpt lat="42.66343755950122" lon="12.280075966400558"><ele>298.4</ele><time>2026-04-17T13:27:16.002Z</time></trkpt><trkpt lat="42.6634812075447" lon="12.280189638067009"><ele>300.0</ele><time>2026-04-17T13:27:17.002Z</time></trkpt><trkpt lat="42.663539544275956" lon="12.280292216834212"><ele>300.0</ele><time>2026-04-17T13:27:17.999Z</time></trkpt><trkpt lat="42.66358441209144" lon="12.280406475921277"><ele>300.0</ele><time>2026-04-17T13:27:18.999Z</time></trkpt><trkpt lat="42.663623763120285" lon="12.280512275074186"><ele>300.0</ele><time>2026-04-17T13:27:19.999Z</time></trkpt><trkpt lat="42.66366828680502" lon="12.280616778242505"><ele>300.0</ele><time>2026-04-17T13:27:20.999Z</time></trkpt><trkpt lat="42.66369871538883" lon="12.280729447298715"><ele>300.0</ele><time>2026-04-17T13:27:21.999Z</time></trkpt><trkpt lat="42.66371796596722" lon="12.280848912007302"><ele>300.0</ele><time>2026-04-17T13:27:22.999Z</time></trkpt><trkpt lat="42.66373094591885" lon="12.280954084754454"><ele>301.0</ele><time>2026-04-17T13:27:23.999Z</time></trkpt><trkpt lat="42.66374095697663" lon="12.281044721386502"><ele>302.0</ele><time>2026-04-17T13:27:24.999Z</time></trkpt><trkpt lat="42.66374465251542" lon="12.281175620509499"><ele>303.0</ele><time>2026-04-17T13:27:26.999Z</time></trkpt><trkpt lat="42.66374296044292" lon="12.281280928077717"><ele>304.0</ele><time>2026-04-17T13:27:29.999Z</time></trkpt><trkpt lat="42.66371915642812" lon="12.281374826268156"><ele>305.0</ele><time>2026-04-17T13:27:32.999Z</time></trkpt><trkpt lat="42.66369574459936" lon="12.281465124999924"><ele>306.0</ele><time>2026-04-17T13:27:36.999Z</time></trkpt><trkpt lat="42.66361035649919" lon="12.281462159409083"><ele>306.40000000000003</ele><time>2026-04-17T13:27:37.999Z</time></trkpt><trkpt lat="42.663525677395434" lon="12.281450152253303"><ele>306.8</ele><time>2026-04-17T13:27:38.999Z</time></trkpt><trkpt lat="42.663441871272525" lon="12.281458848644064"><ele>307.20000000000005</ele><time>2026-04-17T13:27:40Z</time></trkpt><trkpt lat="42.66335598448263" lon="12.281483665687785"><ele>307.6</ele><time>2026-04-17T13:27:41Z</time></trkpt><trkpt lat="42.663261413737025" lon="12.281533224309456"><ele>308.0</ele><time>2026-04-17T13:27:42Z</time></trkpt><trkpt lat="42.66315425202847" lon="12.281628401675361"><ele>308.0</ele><time>2026-04-17T13:27:43Z</time></trkpt><trkpt lat="42.66304753042033" lon="12.281762711040164"><ele>308.0</ele><time>2026-04-17T13:27:44Z</time></trkpt><trkpt lat="42.66294449657902" lon="12.281924410398684"><ele>308.0</ele><time>2026-04-17T13:27:45Z</time></trkpt><trkpt lat="42.662843032978756" lon="12.282077190255633"><ele>308.33333333333337</ele><time>2026-04-17T13:27:46Z</time></trkpt><trkpt lat="42.66273469502765" lon="12.282229553595956"><ele>308.6666666666667</ele><time>2026-04-17T13:27:47Z</time></trkpt><trkpt lat="42.662613914044805" lon="12.282394545722594"><ele>309.0</ele><time>2026-04-17T13:27:48Z</time></trkpt><trkpt lat="42.662493306999615" lon="12.282558537652582"><ele>309.0</ele><time>2026-04-17T13:27:49Z</time></trkpt><trkpt lat="42.66238318889322" lon="12.282715734834525"><ele>309.0</ele><time>2026-04-17T13:27:50Z</time></trkpt><trkpt lat="42.66228354601312" lon="12.282859030655581"><ele>309.0</ele><time>2026-04-17T13:27:51Z</time></trkpt><trkpt lat="42.662190976869496" lon="12.282980565735373"><ele>309.0</ele><time>2026-04-17T13:27:52Z</time></trkpt><trkpt lat="42.66209533234025" lon="12.283070516429811"><ele>309.59999999999997</ele><time>2026-04-17T13:27:53Z</time></trkpt><trkpt lat="42.66197849528964" lon="12.283114399279825"><ele>310.2</ele><time>2026-04-17T13:27:54Z</time></trkpt><trkpt lat="42.66186160824334" lon="12.2831335091382"><ele>310.79999999999995</ele><time>2026-04-17T13:27:55Z</time></trkpt><trkpt lat="42.66177543912324" lon="12.283125902710673"><ele>311.4</ele><time>2026-04-17T13:27:56Z</time></trkpt><trkpt lat="42.661710976613286" lon="12.283116920067245"><ele>312.0</ele><time>2026-04-17T13:27:57Z</time></trkpt><trkpt lat="42.661608186785465" lon="12.283103217454668"><ele>312.0</ele><time>2026-04-17T13:27:59Z</time></trkpt><trkpt lat="42.66152949910857" lon="12.283098769061349"><ele>312.0</ele><time>2026-04-17T13:28:02Z</time></trkpt><trkpt lat="42.6614541839043" lon="12.28309365330537"><ele>312.0</ele><time>2026-04-17T13:28:26.001Z</time></trkpt><trkpt lat="42.661375993064496" lon="12.283153683033174"><ele>312.0</ele><time>2026-04-17T13:28:30.001Z</time></trkpt><trkpt lat="42.66144197574949" lon="12.283306496279314"><ele>312.0</ele><time>2026-04-17T13:28:32.001Z</time></trkpt><trkpt lat="42.661491637493754" lon="12.283361628410491"><ele>312.0</ele><time>2026-04-17T13:28:33.001Z</time></trkpt><trkpt lat="42.66158570122864" lon="12.283491783675045"><ele>312.0</ele><time>2026-04-17T13:28:35.001Z</time></trkpt><trkpt lat="42.66165005002678" lon="12.283566319231552"><ele>312.0</ele><time>2026-04-17T13:28:36.001Z</time></trkpt><trkpt lat="42.661722124886495" lon="12.283643325680117"><ele>312.0</ele><time>2026-04-17T13:28:37.001Z</time></trkpt><trkpt lat="42.66177862874252" lon="12.283697483406918"><ele>312.0</ele><time>2026-04-17T13:28:38.001Z</time></trkpt><trkpt lat="42.66183611403946" lon="12.283741654372804"><ele>312.0</ele><time>2026-04-17T13:28:39.001Z</time></trkpt><trkpt lat="42.661897444805234" lon="12.283775966248744"><ele>312.0</ele><time>2026-04-17T13:28:40.001Z</time></trkpt><trkpt lat="42.66196697693454" lon="12.28378693388592"><ele>312.0</ele><time>2026-04-17T13:28:41.001Z</time></trkpt><trkpt lat="42.66204709477561" lon="12.283772745855046"><ele>314.2</ele><time>2026-04-17T13:28:42.001Z</time></trkpt><trkpt lat="42.662121964642715" lon="12.283746100163043"><ele>316.4</ele><time>2026-04-17T13:28:43.001Z</time></trkpt><trkpt lat="42.66219074143065" lon="12.283717035671236"><ele>318.59999999999997</ele><time>2026-04-17T13:28:44.001Z</time></trkpt><trkpt lat="42.66230383273959" lon="12.28366584402376"><ele>320.79999999999995</ele><time>2026-04-17T13:28:46.001Z</time></trkpt><trkpt lat="42.662389623977205" lon="12.283620781789962"><ele>323.0</ele><time>2026-04-17T13:28:48.001Z</time></trkpt><trkpt lat="42.66248473291849" lon="12.283564899559027"><ele>323.0</ele><time>2026-04-17T13:28:50.001Z</time></trkpt><trkpt lat="42.66258378523494" lon="12.283510516782977"><ele>323.0</ele><time>2026-04-17T13:28:52.001Z</time></trkpt><trkpt lat="42.6627005944948" lon="12.283451014941633"><ele>323.0</ele><time>2026-04-17T13:28:54.001Z</time></trkpt><trkpt lat="42.662773252893146" lon="12.283415839057584"><ele>323.0</ele><time>2026-04-17T13:28:55.002Z</time></trkpt><trkpt lat="42.662871817370686" lon="12.283359963203537"><ele>323.0</ele><time>2026-04-17T13:28:56.002Z</time></trkpt><trkpt lat="42.66294966829931" lon="12.28331407607133"><ele>322.1666666666667</ele><time>2026-04-17T13:28:57.002Z</time></trkpt><trkpt lat="42.66302842283346" lon="12.283264260779506"><ele>321.33333333333337</ele><time>2026-04-17T13:28:58.002Z</time></trkpt><trkpt lat="42.66311159085237" lon="12.283214627991237"><ele>320.5</ele><time>2026-04-17T13:28:59.002Z</time></trkpt><trkpt lat="42.663189138425594" lon="12.28317306461959"><ele>319.6666666666667</ele><time>2026-04-17T13:29:00.002Z</time></trkpt><trkpt lat="42.66325727972775" lon="12.283129759197603"><ele>318.8333333333333</ele><time>2026-04-17T13:29:01.002Z</time></trkpt><trkpt lat="42.663319716427154" lon="12.283095419618625"><ele>318.0</ele><time>2026-04-17T13:29:02.002Z</time></trkpt><trkpt lat="42.66338189913708" lon="12.283064835144732"><ele>318.0</ele><time>2026-04-17T13:29:03.002Z</time></trkpt><trkpt lat="42.663451209309365" lon="12.283072530333278"><ele>318.0</ele><time>2026-04-17T13:29:04.002Z</time></trkpt><trkpt lat="42.66351301166032" lon="12.283111267969787"><ele>318.0</ele><time>2026-04-17T13:29:05.002Z</time></trkpt><trkpt lat="42.66353808727773" lon="12.28319385683873"><ele>318.0</ele><time>2026-04-17T13:29:06.002Z</time></trkpt><trkpt lat="42.66357071718516" lon="12.28328005881606"><ele>318.0</ele><time>2026-04-17T13:29:07.002Z</time></trkpt><trkpt lat="42.663577613155546" lon="12.283394814222891"><ele>318.0</ele><time>2026-04-17T13:29:08.002Z</time></trkpt><trkpt lat="42.66359336499998" lon="12.283518060990447"><ele>317.8333333333333</ele><time>2026-04-17T13:29:09.002Z</time></trkpt><trkpt lat="42.66361008485972" lon="12.28364195901528"><ele>317.6666666666667</ele><time>2026-04-17T13:29:10.002Z</time></trkpt><trkpt lat="42.663624767309074" lon="12.283747325094968"><ele>317.5</ele><time>2026-04-17T13:29:11.002Z</time></trkpt><trkpt lat="42.663633817972105" lon="12.283841165907125"><ele>317.33333333333337</ele><time>2026-04-17T13:29:12.002Z</time></trkpt><trkpt lat="42.66364638124393" lon="12.28393128613008"><ele>317.1666666666667</ele><time>2026-04-17T13:29:13.002Z</time></trkpt><trkpt lat="42.663674276875824" lon="12.284034009854746"><ele>317.0</ele><time>2026-04-17T13:29:14.002Z</time></trkpt><trkpt lat="42.66371609160895" lon="12.284144526627765"><ele>320.0</ele><time>2026-04-17T13:29:15.002Z</time></trkpt><trkpt lat="42.66377046136832" lon="12.284262568482108"><ele>323.0</ele><time>2026-04-17T13:29:16.002Z</time></trkpt><trkpt lat="42.6638308614324" lon="12.284388678513036"><ele>326.0</ele><time>2026-04-17T13:29:17.002Z</time></trkpt><trkpt lat="42.6638994199853" lon="12.28452330965331"><ele>329.0</ele><time>2026-04-17T13:29:18.002Z</time></trkpt><trkpt lat="42.663971655437436" lon="12.284678244179295"><ele>331.5</ele><time>2026-04-17T13:29:19.002Z</time></trkpt><trkpt lat="42.66401519091024" lon="12.284844607964732"><ele>334.0</ele><time>2026-04-17T13:29:20.002Z</time></trkpt><trkpt lat="42.66403152901019" lon="12.284992890449455"><ele>336.5</ele><time>2026-04-17T13:29:21.002Z</time></trkpt><trkpt lat="42.66404502629505" lon="12.285154399359502"><ele>339.0</ele><time>2026-04-17T13:29:22.002Z</time></trkpt><trkpt lat="42.664049337020074" lon="12.285336765787502"><ele>339.0</ele><time>2026-04-17T13:29:23.002Z</time></trkpt><trkpt lat="42.664048601676605" lon="12.285519366624063"><ele>339.0</ele><time>2026-04-17T13:29:23.999Z</time></trkpt><trkpt lat="42.6640395564993" lon="12.285707331517873"><ele>339.0</ele><time>2026-04-17T13:29:24.999Z</time></trkpt><trkpt lat="42.66402872089427" lon="12.285866525988364"><ele>339.0</ele><time>2026-04-17T13:29:25.999Z</time></trkpt><trkpt lat="42.66401848449366" lon="12.286025499250805"><ele>340.0</ele><time>2026-04-17T13:29:26.999Z</time></trkpt><trkpt lat="42.66400755477239" lon="12.286183387221858"><ele>341.0</ele><time>2026-04-17T13:29:27.999Z</time></trkpt><trkpt lat="42.66399782447339" lon="12.286341946813689"><ele>342.0</ele><time>2026-04-17T13:29:28.999Z</time></trkpt><trkpt lat="42.66398970184252" lon="12.286501113569829"><ele>343.0</ele><time>2026-04-17T13:29:29.999Z</time></trkpt><trkpt lat="42.66397135544544" lon="12.286658586069246"><ele>344.25</ele><time>2026-04-17T13:29:30.999Z</time></trkpt><trkpt lat="42.66396571015935" lon="12.286823756701871"><ele>345.5</ele><time>2026-04-17T13:29:31.999Z</time></trkpt><trkpt lat="42.66394914824924" lon="12.28699612314233"><ele>346.75</ele><time>2026-04-17T13:29:32.999Z</time></trkpt><trkpt lat="42.66394128563723" lon="12.287165843884376"><ele>348.0</ele><time>2026-04-17T13:29:33.999Z</time></trkpt><trkpt lat="42.66395639092408" lon="12.287329695775373"><ele>349.5</ele><time>2026-04-17T13:29:34.999Z</time></trkpt><trkpt lat="42.663972288007635" lon="12.287499753341043"><ele>351.0</ele><time>2026-04-17T13:29:35.999Z</time></trkpt><trkpt lat="42.66404578172151" lon="12.287682295899087"><ele>352.5</ele><time>2026-04-17T13:29:36.999Z</time></trkpt><trkpt lat="42.66415330452669" lon="12.287848794363343"><ele>354.0</ele><time>2026-04-17T13:29:37.999Z</time></trkpt><trkpt lat="42.664229367372926" lon="12.288015391338307"><ele>353.5</ele><time>2026-04-17T13:29:38.999Z</time></trkpt><trkpt lat="42.664313974013034" lon="12.28815788352407"><ele>353.0</ele><time>2026-04-17T13:29:40Z</time></trkpt><trkpt lat="42.66440066667243" lon="12.288301360444153"><ele>352.5</ele><time>2026-04-17T13:29:41Z</time></trkpt><trkpt lat="42.66448535279752" lon="12.288441516938619"><ele>352.0</ele><time>2026-04-17T13:29:42Z</time></trkpt><trkpt lat="42.66456575304265" lon="12.288577042016879"><ele>352.0</ele><time>2026-04-17T13:29:43Z</time></trkpt><trkpt lat="42.6646436113024" lon="12.28870976148356"><ele>352.0</ele><time>2026-04-17T13:29:44Z</time></trkpt><trkpt lat="42.6647186003048" lon="12.288839439893923"><ele>352.0</ele><time>2026-04-17T13:29:45Z</time></trkpt><trkpt lat="42.66479341961664" lon="12.288965701411923"><ele>352.0</ele><time>2026-04-17T13:29:46Z</time></trkpt><trkpt lat="42.66486716393231" lon="12.289090614442822"><ele>356.0</ele><time>2026-04-17T13:29:47Z</time></trkpt><trkpt lat="42.66495698985934" lon="12.289204829063536"><ele>360.0</ele><time>2026-04-17T13:29:48Z</time></trkpt><trkpt lat="42.66503470056105" lon="12.289333370258156"><ele>364.0</ele><time>2026-04-17T13:29:49Z</time></trkpt><trkpt lat="42.66511570030066" lon="12.289462877869042"><ele>368.0</ele><time>2026-04-17T13:29:50Z</time></trkpt><trkpt lat="42.66518826291527" lon="12.289590006838152"><ele>368.0</ele><time>2026-04-17T13:29:51Z</time></trkpt><trkpt lat="42.66526112409369" lon="12.289711179722845"><ele>368.0</ele><time>2026-04-17T13:29:52Z</time></trkpt><trkpt lat="42.66534239685573" lon="12.289846933822409"><ele>368.0</ele><time>2026-04-17T13:29:53Z</time></trkpt><trkpt lat="42.66539241576035" lon="12.290015465752036"><ele>368.0</ele><time>2026-04-17T13:29:54Z</time></trkpt><trkpt lat="42.665446499177705" lon="12.290169173822857"><ele>367.25</ele><time>2026-04-17T13:29:55Z</time></trkpt><trkpt lat="42.665496584994614" lon="12.290322269445324"><ele>366.5</ele><time>2026-04-17T13:29:56Z</time></trkpt><trkpt lat="42.665537870631596" lon="12.290483974450822"><ele>365.75</ele><time>2026-04-17T13:29:57Z</time></trkpt><trkpt lat="42.665558301572645" lon="12.290655570104443"><ele>365.0</ele><time>2026-04-17T13:29:58Z</time></trkpt><trkpt lat="42.66556203514969" lon="12.290833623167348"><ele>366.75</ele><time>2026-04-17T13:29:59Z</time></trkpt><trkpt lat="42.66557098732044" lon="12.29100052695786"><ele>368.5</ele><time>2026-04-17T13:30:00Z</time></trkpt><trkpt lat="42.665559566705966" lon="12.291150361362392"><ele>370.25</ele><time>2026-04-17T13:30:01Z</time></trkpt><trkpt lat="42.665544498524724" lon="12.291306257702173"><ele>372.0</ele><time>2026-04-17T13:30:02Z</time></trkpt><trkpt lat="42.66553212850661" lon="12.29147153809404"><ele>373.6</ele><time>2026-04-17T13:30:03Z</time></trkpt><trkpt lat="42.66552323332293" lon="12.291628463570447"><ele>375.20000000000005</ele><time>2026-04-17T13:30:04Z</time></trkpt><trkpt lat="42.66552662235251" lon="12.291779607468005"><ele>376.8</ele><time>2026-04-17T13:30:05Z</time></trkpt><trkpt lat="42.66554760737378" lon="12.291926166035156"><ele>378.4</ele><time>2026-04-17T13:30:06Z</time></trkpt><trkpt lat="42.66559631458724" lon="12.292050302749335"><ele>380.0</ele><time>2026-04-17T13:30:07Z</time></trkpt><trkpt lat="42.66568213687289" lon="12.292141885468057"><ele>380.0</ele><time>2026-04-17T13:30:08Z</time></trkpt><trkpt lat="42.66578710349554" lon="12.292197015673588"><ele>380.0</ele><time>2026-04-17T13:30:09Z</time></trkpt><trkpt lat="42.66590200231407" lon="12.29222421336209"><ele>380.0</ele><time>2026-04-17T13:30:10.001Z</time></trkpt><trkpt lat="42.66601176498111" lon="12.292218989362274"><ele>380.0</ele><time>2026-04-17T13:30:11.001Z</time></trkpt><trkpt lat="42.66610588081189" lon="12.292162501680565"><ele>380.0</ele><time>2026-04-17T13:30:12.001Z</time></trkpt><trkpt lat="42.66617897395138" lon="12.292050873557555"><ele>382.0</ele><time>2026-04-17T13:30:13.001Z</time></trkpt><trkpt lat="42.66623776995964" lon="12.29190968340461"><ele>384.0</ele><time>2026-04-17T13:30:14.001Z</time></trkpt><trkpt lat="42.66629527121104" lon="12.29177274483406"><ele>386.0</ele><time>2026-04-17T13:30:15.001Z</time></trkpt><trkpt lat="42.6663617138218" lon="12.291635990759694"><ele>388.0</ele><time>2026-04-17T13:30:16.001Z</time></trkpt><trkpt lat="42.66642306368285" lon="12.291507261780572"><ele>385.4</ele><time>2026-04-17T13:30:17.001Z</time></trkpt><trkpt lat="42.6664819926193" lon="12.291393512024605"><ele>382.79999999999995</ele><time>2026-04-17T13:30:18.001Z</time></trkpt><trkpt lat="42.666555547379076" lon="12.29129937615048"><ele>380.2</ele><time>2026-04-17T13:30:19.001Z</time></trkpt><trkpt lat="42.66665498772988" lon="12.291228206570876"><ele>377.6</ele><time>2026-04-17T13:30:20.001Z</time></trkpt><trkpt lat="42.66677263973595" lon="12.291198776496785"><ele>375.0</ele><time>2026-04-17T13:30:21.001Z</time></trkpt><trkpt lat="42.6668897111932" lon="12.291218991798292"><ele>375.75</ele><time>2026-04-17T13:30:22.001Z</time></trkpt><trkpt lat="42.66701523095524" lon="12.291273249811542"><ele>376.5</ele><time>2026-04-17T13:30:23.001Z</time></trkpt><trkpt lat="42.6671129957804" lon="12.291385218643034"><ele>377.25</ele><time>2026-04-17T13:30:24.001Z</time></trkpt><trkpt lat="42.66722253179966" lon="12.291491039950714"><ele>378.0</ele><time>2026-04-17T13:30:25.001Z</time></trkpt><trkpt lat="42.667318234731646" lon="12.291585022885599"><ele>381.0</ele><time>2026-04-17T13:30:26.001Z</time></trkpt><trkpt lat="42.66741354866862" lon="12.291680941132228"><ele>384.0</ele><time>2026-04-17T13:30:27.001Z</time></trkpt><trkpt lat="42.667516585568364" lon="12.291786551447476"><ele>387.0</ele><time>2026-04-17T13:30:28.001Z</time></trkpt><trkpt lat="42.66762981341647" lon="12.29187380934844"><ele>390.0</ele><time>2026-04-17T13:30:29.001Z</time></trkpt><trkpt lat="42.66773668546256" lon="12.29197419350179"><ele>388.25</ele><time>2026-04-17T13:30:30.001Z</time></trkpt><trkpt lat="42.6678505787573" lon="12.292067514741852"><ele>386.5</ele><time>2026-04-17T13:30:31.001Z</time></trkpt><trkpt lat="42.66798099424529" lon="12.292139658985445"><ele>384.75</ele><time>2026-04-17T13:30:32.001Z</time></trkpt><trkpt lat="42.668129062372905" lon="12.292194918782505"><ele>383.0</ele><time>2026-04-17T13:30:33.001Z</time></trkpt><trkpt lat="42.66827330579571" lon="12.292276028904203"><ele>387.6666666666667</ele><time>2026-04-17T13:30:34.001Z</time></trkpt><trkpt lat="42.66843096132455" lon="12.29231663305538"><ele>392.33333333333337</ele><time>2026-04-17T13:30:35.001Z</time></trkpt><trkpt lat="42.66858778270221" lon="12.292376252126786"><ele>397.0</ele><time>2026-04-17T13:30:36.001Z</time></trkpt><trkpt lat="42.66874486561929" lon="12.292435841477154"><ele>397.0</ele><time>2026-04-17T13:30:37.001Z</time></trkpt><trkpt lat="42.66889111108522" lon="12.292491464750283"><ele>397.0</ele><time>2026-04-17T13:30:38.001Z</time></trkpt><trkpt lat="42.66903449287494" lon="12.29254321331215"><ele>397.0</ele><time>2026-04-17T13:30:39.001Z</time></trkpt><trkpt lat="42.669180892251795" lon="12.292596639921017"><ele>397.0</ele><time>2026-04-17T13:30:40.001Z</time></trkpt><trkpt lat="42.669325400656014" lon="12.2926548096774"><ele>397.0</ele><time>2026-04-17T13:30:41.001Z</time></trkpt><trkpt lat="42.66945661262414" lon="12.292701889277808"><ele>397.0</ele><time>2026-04-17T13:30:42.001Z</time></trkpt><trkpt lat="42.66958643394529" lon="12.292749922781388"><ele>397.0</ele><time>2026-04-17T13:30:43.001Z</time></trkpt><trkpt lat="42.66972277688498" lon="12.29279336449975"><ele>397.25</ele><time>2026-04-17T13:30:44.001Z</time></trkpt><trkpt lat="42.66986219526151" lon="12.292824726025323"><ele>397.5</ele><time>2026-04-17T13:30:45.001Z</time></trkpt><trkpt lat="42.670011023432764" lon="12.292837678003778"><ele>397.75</ele><time>2026-04-17T13:30:46.001Z</time></trkpt><trkpt lat="42.670164382556834" lon="12.292844772618988"><ele>398.0</ele><time>2026-04-17T13:30:47.001Z</time></trkpt><trkpt lat="42.67031742015103" lon="12.292838293511203"><ele>400.0</ele><time>2026-04-17T13:30:48.002Z</time></trkpt><trkpt lat="42.67046231234077" lon="12.292816673282577"><ele>402.0</ele><time>2026-04-17T13:30:49.002Z</time></trkpt><trkpt lat="42.67059611059673" lon="12.292791271392431"><ele>404.0</ele><time>2026-04-17T13:30:50.002Z</time></trkpt><trkpt lat="42.67072691345563" lon="12.292779751976306"><ele>406.0</ele><time>2026-04-17T13:30:51.002Z</time></trkpt><trkpt lat="42.67085102560415" lon="12.29272247666055"><ele>406.0</ele><time>2026-04-17T13:30:52.002Z</time></trkpt><trkpt lat="42.67098093654068" lon="12.292698242193673"><ele>406.0</ele><time>2026-04-17T13:30:53.002Z</time></trkpt><trkpt lat="42.67110870427554" lon="12.29264632893794"><ele>406.0</ele><time>2026-04-17T13:30:54.002Z</time></trkpt><trkpt lat="42.671237089960634" lon="12.292606043680077"><ele>406.0</ele><time>2026-04-17T13:30:55.002Z</time></trkpt><trkpt lat="42.67136482916781" lon="12.292569171007264"><ele>409.5</ele><time>2026-04-17T13:30:56.002Z</time></trkpt><trkpt lat="42.671500615175674" lon="12.292520505676052"><ele>413.0</ele><time>2026-04-17T13:30:57.002Z</time></trkpt><trkpt lat="42.6716408838603" lon="12.292476973206691"><ele>416.5</ele><time>2026-04-17T13:30:58.002Z</time></trkpt><trkpt lat="42.671781488582916" lon="12.292436087251433"><ele>420.0</ele><time>2026-04-17T13:30:59.002Z</time></trkpt><trkpt lat="42.671919930470786" lon="12.292392276987957"><ele>421.0</ele><time>2026-04-17T13:31:00.002Z</time></trkpt><trkpt lat="42.67204756754793" lon="12.292358518907047"><ele>422.0</ele><time>2026-04-17T13:31:01.002Z</time></trkpt><trkpt lat="42.67217684111491" lon="12.292373066363385"><ele>423.0</ele><time>2026-04-17T13:31:02.002Z</time></trkpt><trkpt lat="42.67229955379001" lon="12.29241121244262"><ele>424.0</ele><time>2026-04-17T13:31:03.002Z</time></trkpt><trkpt lat="42.67240449077464" lon="12.292489987317515"><ele>424.0</ele><time>2026-04-17T13:31:04.002Z</time></trkpt><trkpt lat="42.67249075338963" lon="12.292590552921773"><ele>424.0</ele><time>2026-04-17T13:31:05.002Z</time></trkpt><trkpt lat="42.67258268474602" lon="12.292732036863367"><ele>424.0</ele><time>2026-04-17T13:31:06.002Z</time></trkpt><trkpt lat="42.67263525836049" lon="12.292904743862177"><ele>424.0</ele><time>2026-04-17T13:31:07.002Z</time></trkpt><trkpt lat="42.67263086169254" lon="12.293082828362731"><ele>426.25</ele><time>2026-04-17T13:31:08.002Z</time></trkpt><trkpt lat="42.672628283920275" lon="12.293248384713731"><ele>428.5</ele><time>2026-04-17T13:31:09.002Z</time></trkpt><trkpt lat="42.672565195099715" lon="12.293406456619037"><ele>430.75</ele><time>2026-04-17T13:31:10.002Z</time></trkpt><trkpt lat="42.67250697627865" lon="12.2935883750737"><ele>433.0</ele><time>2026-04-17T13:31:11.002Z</time></trkpt><trkpt lat="42.67243076751238" lon="12.29376787252854"><ele>433.0</ele><time>2026-04-17T13:31:12.002Z</time></trkpt><trkpt lat="42.67235514359164" lon="12.293912856864422"><ele>433.0</ele><time>2026-04-17T13:31:13.002Z</time></trkpt><trkpt lat="42.67227375854673" lon="12.29403598265945"><ele>433.0</ele><time>2026-04-17T13:31:14.002Z</time></trkpt><trkpt lat="42.672173414283925" lon="12.294146678927435"><ele>433.0</ele><time>2026-04-17T13:31:15.002Z</time></trkpt><trkpt lat="42.672053789120575" lon="12.29424212063033"><ele>433.25</ele><time>2026-04-17T13:31:16.002Z</time></trkpt><trkpt lat="42.67192070083817" lon="12.294322948651653"><ele>433.5</ele><time>2026-04-17T13:31:17.002Z</time></trkpt><trkpt lat="42.671794995995796" lon="12.294384635488"><ele>433.75</ele><time>2026-04-17T13:31:18.002Z</time></trkpt><trkpt lat="42.67168957504967" lon="12.294454976294373"><ele>434.0</ele><time>2026-04-17T13:31:19.002Z</time></trkpt><trkpt lat="42.67162529760026" lon="12.294563370914329"><ele>434.0</ele><time>2026-04-17T13:31:20.002Z</time></trkpt><trkpt lat="42.671600084435944" lon="12.294692249665681"><ele>434.0</ele><time>2026-04-17T13:31:21.002Z</time></trkpt><trkpt lat="42.671623941863594" lon="12.294828553742615"><ele>434.0</ele><time>2026-04-17T13:31:22.002Z</time></trkpt><trkpt lat="42.67169211617051" lon="12.294946022334887"><ele>434.0</ele><time>2026-04-17T13:31:23.002Z</time></trkpt><trkpt lat="42.671772221904405" lon="12.295043141613693"><ele>434.0</ele><time>2026-04-17T13:31:24.002Z</time></trkpt><trkpt lat="42.67189044123931" lon="12.295046256990698"><ele>440.25</ele><time>2026-04-17T13:31:25.002Z</time></trkpt><trkpt lat="42.672003127077595" lon="12.295004055436978"><ele>446.5</ele><time>2026-04-17T13:31:26.002Z</time></trkpt><trkpt lat="42.672118522652745" lon="12.294909799160497"><ele>452.75</ele><time>2026-04-17T13:31:27.003Z</time></trkpt><trkpt lat="42.67224533146418" lon="12.294835610911354"><ele>459.0</ele><time>2026-04-17T13:31:28.003Z</time></trkpt><trkpt lat="42.67236771967393" lon="12.294789364619444"><ele>459.0</ele><time>2026-04-17T13:31:29.003Z</time></trkpt><trkpt lat="42.672503427240024" lon="12.29478345113056"><ele>459.0</ele><time>2026-04-17T13:31:30Z</time></trkpt><trkpt lat="42.67266045949192" lon="12.294805609140464"><ele>459.0</ele><time>2026-04-17T13:31:31Z</time></trkpt><trkpt lat="42.67284423368785" lon="12.294838478585085"><ele>461.0</ele><time>2026-04-17T13:31:32Z</time></trkpt><trkpt lat="42.673013640153215" lon="12.294869935817049"><ele>463.0</ele><time>2026-04-17T13:31:33Z</time></trkpt><trkpt lat="42.67316322670954" lon="12.294897712669654"><ele>465.0</ele><time>2026-04-17T13:31:34Z</time></trkpt><trkpt lat="42.67332229433747" lon="12.294906303331596"><ele>465.0</ele><time>2026-04-17T13:31:35Z</time></trkpt><trkpt lat="42.67348497779296" lon="12.294938787269032"><ele>465.0</ele><time>2026-04-17T13:31:36Z</time></trkpt><trkpt lat="42.67365145282944" lon="12.294994101323018"><ele>465.0</ele><time>2026-04-17T13:31:37Z</time></trkpt><trkpt lat="42.67382534285785" lon="12.29503123025792"><ele>465.33333333333337</ele><time>2026-04-17T13:31:38Z</time></trkpt><trkpt lat="42.673996300825806" lon="12.295071455226134"><ele>465.6666666666667</ele><time>2026-04-17T13:31:39Z</time></trkpt><trkpt lat="42.6741768059293" lon="12.295112482134753"><ele>466.0</ele><time>2026-04-17T13:31:40Z</time></trkpt><trkpt lat="42.67434514594412" lon="12.295172500409514"><ele>466.0</ele><time>2026-04-17T13:31:41Z</time></trkpt><trkpt lat="42.67449835827892" lon="12.295218096814422"><ele>466.0</ele><time>2026-04-17T13:31:42Z</time></trkpt><trkpt lat="42.67465400872252" lon="12.29524267898917"><ele>466.0</ele><time>2026-04-17T13:31:43Z</time></trkpt><trkpt lat="42.6748074542919" lon="12.295245383429771"><ele>466.0</ele><time>2026-04-17T13:31:44Z</time></trkpt><trkpt lat="42.67496113663" lon="12.295272034412868"><ele>466.0</ele><time>2026-04-17T13:31:45Z</time></trkpt><trkpt lat="42.675115137227614" lon="12.295278468800891"><ele>466.0</ele><time>2026-04-17T13:31:46Z</time></trkpt><trkpt lat="42.67526664947905" lon="12.295287495297284"><ele>466.0</ele><time>2026-04-17T13:31:47Z</time></trkpt><trkpt lat="42.67541483776421" lon="12.295288517103383"><ele>466.0</ele><time>2026-04-17T13:31:48Z</time></trkpt><trkpt lat="42.675559417062864" lon="12.295332452438554"><ele>466.0</ele><time>2026-04-17T13:31:49Z</time></trkpt><trkpt lat="42.675696997472585" lon="12.295384787628638"><ele>466.0</ele><time>2026-04-17T13:31:50Z</time></trkpt><trkpt lat="42.6758238937564" lon="12.295460507932585"><ele>466.0</ele><time>2026-04-17T13:31:51Z</time></trkpt><trkpt lat="42.6759502477057" lon="12.295528208773515"><ele>466.0</ele><time>2026-04-17T13:31:52Z</time></trkpt><trkpt lat="42.676077381713526" lon="12.295601705897209"><ele>466.0</ele><time>2026-04-17T13:31:53Z</time></trkpt><trkpt lat="42.676203137335115" lon="12.295680545670969"><ele>466.0</ele><time>2026-04-17T13:31:54Z</time></trkpt><trkpt lat="42.676321403187806" lon="12.295752943722256"><ele>471.0</ele><time>2026-04-17T13:31:55Z</time></trkpt><trkpt lat="42.67645229447369" lon="12.295808802659494"><ele>476.0</ele><time>2026-04-17T13:31:56Z</time></trkpt><trkpt lat="42.676584894753304" lon="12.295871378779502"><ele>481.0</ele><time>2026-04-17T13:31:57Z</time></trkpt><trkpt lat="42.676711893370076" lon="12.295904369674053"><ele>486.0</ele><time>2026-04-17T13:31:58Z</time></trkpt><trkpt lat="42.67683236020662" lon="12.295932502405977"><ele>485.5</ele><time>2026-04-17T13:31:59Z</time></trkpt><trkpt lat="42.67695137580104" lon="12.295958940526633"><ele>485.0</ele><time>2026-04-17T13:32:00.001Z</time></trkpt><trkpt lat="42.67706741383067" lon="12.295987678471224"><ele>484.5</ele><time>2026-04-17T13:32:01.001Z</time></trkpt><trkpt lat="42.67719352266643" lon="12.296048880594583"><ele>484.0</ele><time>2026-04-17T13:32:02.001Z</time></trkpt><trkpt lat="42.6773321910742" lon="12.29610689226032"><ele>484.0</ele><time>2026-04-17T13:32:03.001Z</time></trkpt><trkpt lat="42.67746968246418" lon="12.296211500904167"><ele>484.0</ele><time>2026-04-17T13:32:04.001Z</time></trkpt><trkpt lat="42.677584626316516" lon="12.296335073723608"><ele>484.0</ele><time>2026-04-17T13:32:05.001Z</time></trkpt><trkpt lat="42.67768900874136" lon="12.29642621229986"><ele>484.0</ele><time>2026-04-17T13:32:06.001Z</time></trkpt><trkpt lat="42.67779035793683" lon="12.296497275361448"><ele>486.0</ele><time>2026-04-17T13:32:07.001Z</time></trkpt><trkpt lat="42.67788886543143" lon="12.29657911682166"><ele>488.0</ele><time>2026-04-17T13:32:08.001Z</time></trkpt><trkpt lat="42.67798648824428" lon="12.296664338629428"><ele>490.0</ele><time>2026-04-17T13:32:09.001Z</time></trkpt><trkpt lat="42.67807533051091" lon="12.296737788743515"><ele>492.0</ele><time>2026-04-17T13:32:10.001Z</time></trkpt><trkpt lat="42.67814131643965" lon="12.296796876352127"><ele>494.0</ele><time>2026-04-17T13:32:11.001Z</time></trkpt><trkpt lat="42.67821767432497" lon="12.29690026241173"><ele>494.0</ele><time>2026-04-17T13:32:13.001Z</time></trkpt><trkpt lat="42.67817603084884" lon="12.297057716893121"><ele>494.0</ele><time>2026-04-17T13:32:16.001Z</time></trkpt><trkpt lat="42.67811079868988" lon="12.297055900088468"><ele>494.0</ele><time>2026-04-17T13:32:17.001Z</time></trkpt><trkpt lat="42.677995079488426" lon="12.297016911671522"><ele>494.0</ele><time>2026-04-17T13:32:19.001Z</time></trkpt><trkpt lat="42.67790279126384" lon="12.296982100564767"><ele>494.0</ele><time>2026-04-17T13:32:20.001Z</time></trkpt><trkpt lat="42.677808792162416" lon="12.296963169353516"><ele>495.3333333333333</ele><time>2026-04-17T13:32:21.001Z</time></trkpt><trkpt lat="42.67771816678485" lon="12.296948997694274"><ele>496.66666666666663</ele><time>2026-04-17T13:32:22.001Z</time></trkpt><trkpt lat="42.67763497416675" lon="12.296938874957998"><ele>498.0</ele><time>2026-04-17T13:32:23.001Z</time></trkpt><trkpt lat="42.67754369564944" lon="12.29692934533006"><ele>499.33333333333337</ele><time>2026-04-17T13:32:24.001Z</time></trkpt><trkpt lat="42.677454278359406" lon="12.296925832100191"><ele>500.6666666666667</ele><time>2026-04-17T13:32:25.001Z</time></trkpt><trkpt lat="42.67736428480041" lon="12.296935445430734"><ele>502.0</ele><time>2026-04-17T13:32:26.001Z</time></trkpt><trkpt lat="42.67728074509345" lon="12.296979519353007"><ele>502.00000000000006</ele><time>2026-04-17T13:32:27.001Z</time></trkpt><trkpt lat="42.67720371492557" lon="12.29701444094709"><ele>502.0</ele><time>2026-04-17T13:32:28.001Z</time></trkpt><trkpt lat="42.677133887926544" lon="12.297068880599417"><ele>502.0</ele><time>2026-04-17T13:32:29.001Z</time></trkpt><trkpt lat="42.67707006907349" lon="12.297093679146796"><ele>502.0</ele><time>2026-04-17T13:32:30.001Z</time></trkpt><trkpt lat="42.67694646764669" lon="12.297131953853242"><ele>502.00000000000006</ele><time>2026-04-17T13:32:32.001Z</time></trkpt><trkpt lat="42.676879858388354" lon="12.297130279289727"><ele>502.0</ele><time>2026-04-17T13:32:33.001Z</time></trkpt><trkpt lat="42.676751350328225" lon="12.297085382939441"><ele>502.6666666666667</ele><time>2026-04-17T13:32:35.001Z</time></trkpt><trkpt lat="42.67667362653963" lon="12.297057139614425"><ele>503.33333333333337</ele><time>2026-04-17T13:32:36.001Z</time></trkpt><trkpt lat="42.676603877736646" lon="12.297030392121565"><ele>504.0</ele><time>2026-04-17T13:32:37.001Z</time></trkpt><trkpt lat="42.676521121022034" lon="12.296999392549852"><ele>504.66666666666663</ele><time>2026-04-17T13:32:38.001Z</time></trkpt><trkpt lat="42.67642906587073" lon="12.296980803673597"><ele>505.3333333333333</ele><time>2026-04-17T13:32:39.002Z</time></trkpt><trkpt lat="42.67635416596056" lon="12.296937351850191"><ele>506.0</ele><time>2026-04-17T13:32:40.002Z</time></trkpt><trkpt lat="42.67627332670635" lon="12.296926392934129"><ele>505.99999999999994</ele><time>2026-04-17T13:32:41.002Z</time></trkpt><trkpt lat="42.6762033794095" lon="12.29687324562937"><ele>506.0</ele><time>2026-04-17T13:32:42.002Z</time></trkpt><trkpt lat="42.676126314823925" lon="12.296841912728496"><ele>506.0</ele><time>2026-04-17T13:32:43.002Z</time></trkpt><trkpt lat="42.67604684941272" lon="12.296832019878185"><ele>506.0</ele><time>2026-04-17T13:32:44.002Z</time></trkpt><trkpt lat="42.675970504480325" lon="12.296802080210934"><ele>505.99999999999994</ele><time>2026-04-17T13:32:45.002Z</time></trkpt><trkpt lat="42.675892033456066" lon="12.296788998534662"><ele>506.0</ele><time>2026-04-17T13:32:46.002Z</time></trkpt><trkpt lat="42.67581152061824" lon="12.296788968821554"><ele>507.66666666666663</ele><time>2026-04-17T13:32:47.002Z</time></trkpt><trkpt lat="42.67573230481702" lon="12.29679974710074"><ele>509.3333333333333</ele><time>2026-04-17T13:32:48.002Z</time></trkpt><trkpt lat="42.675649843641295" lon="12.29680900518946"><ele>511.0</ele><time>2026-04-17T13:32:49.002Z</time></trkpt><trkpt lat="42.67557025555728" lon="12.296801110218242"><ele>512.6666666666666</ele><time>2026-04-17T13:32:50.002Z</time></trkpt><trkpt lat="42.67547891565626" lon="12.29683718515757"><ele>514.3333333333334</ele><time>2026-04-17T13:32:51.002Z</time></trkpt><trkpt lat="42.675388911799494" lon="12.296827285052014"><ele>516.0</ele><time>2026-04-17T13:32:52.002Z</time></trkpt><trkpt lat="42.67530687268699" lon="12.296860235200416"><ele>516.5</ele><time>2026-04-17T13:32:53.002Z</time></trkpt><trkpt lat="42.67522667366079" lon="12.29686906584279"><ele>517.0</ele><time>2026-04-17T13:32:54.002Z</time></trkpt><trkpt lat="42.67515815639224" lon="12.296878527856181"><ele>517.5</ele><time>2026-04-17T13:32:55.002Z</time></trkpt><trkpt lat="42.675076963712364" lon="12.29689122555678"><ele>518.0</ele><time>2026-04-17T13:32:56.002Z</time></trkpt><trkpt lat="42.67499483561365" lon="12.296904116077211"><ele>518.5</ele><time>2026-04-17T13:32:57.002Z</time></trkpt><trkpt lat="42.67491005413805" lon="12.296895874342582"><ele>519.0</ele><time>2026-04-17T13:32:58.002Z</time></trkpt><trkpt lat="42.67482684269149" lon="12.296930671141428"><ele>519.0</ele><time>2026-04-17T13:32:59.002Z</time></trkpt><trkpt lat="42.67474246662208" lon="12.29694806040354"><ele>519.0</ele><time>2026-04-17T13:33:00.002Z</time></trkpt><trkpt lat="42.67466968888775" lon="12.296964661389696"><ele>519.0</ele><time>2026-04-17T13:33:01.002Z</time></trkpt><trkpt lat="42.67459353539684" lon="12.296985108494631"><ele>519.0</ele><time>2026-04-17T13:33:02.002Z</time></trkpt><trkpt lat="42.67451068497834" lon="12.29699134619006"><ele>519.0</ele><time>2026-04-17T13:33:03.002Z</time></trkpt><trkpt lat="42.674418250486376" lon="12.297014862375885"><ele>519.0</ele><time>2026-04-17T13:33:04.002Z</time></trkpt><trkpt lat="42.67432492375629" lon="12.29705453714399"><ele>519.0</ele><time>2026-04-17T13:33:05.002Z</time></trkpt><trkpt lat="42.67423689257563" lon="12.29709017329865"><ele>519.0</ele><time>2026-04-17T13:33:06.002Z</time></trkpt><trkpt lat="42.67414415137703" lon="12.297122655581557"><ele>519.0</ele><time>2026-04-17T13:33:07.002Z</time></trkpt><trkpt lat="42.674063290261" lon="12.297147247232644"><ele>519.0</ele><time>2026-04-17T13:33:08.002Z</time></trkpt><trkpt lat="42.6739773064132" lon="12.297178903238319"><ele>519.0</ele><time>2026-04-17T13:33:09.002Z</time></trkpt><trkpt lat="42.673888601421595" lon="12.29723191483324"><ele>523.0</ele><time>2026-04-17T13:33:10.002Z</time></trkpt><trkpt lat="42.67379970140831" lon="12.297297501408258"><ele>527.0</ele><time>2026-04-17T13:33:11.002Z</time></trkpt><trkpt lat="42.673719614214185" lon="12.29736191845137"><ele>531.0</ele><time>2026-04-17T13:33:12.002Z</time></trkpt><trkpt lat="42.67364690186959" lon="12.297415258740873"><ele>535.0</ele><time>2026-04-17T13:33:13.002Z</time></trkpt><trkpt lat="42.67355540394841" lon="12.29745250191199"><ele>539.0</ele><time>2026-04-17T13:33:14.002Z</time></trkpt><trkpt lat="42.6734679019674" lon="12.297534434507549"><ele>539.0</ele><time>2026-04-17T13:33:15.002Z</time></trkpt><trkpt lat="42.67337497738387" lon="12.297592314957708"><ele>539.0</ele><time>2026-04-17T13:33:16.002Z</time></trkpt><trkpt lat="42.67329404053915" lon="12.297645484770374"><ele>539.0</ele><time>2026-04-17T13:33:17.002Z</time></trkpt><trkpt lat="42.673218029510345" lon="12.29770917904853"><ele>539.0</ele><time>2026-04-17T13:33:18.002Z</time></trkpt><trkpt lat="42.67312683340784" lon="12.297752115144057"><ele>539.0</ele><time>2026-04-17T13:33:19.003Z</time></trkpt><trkpt lat="42.67305509873306" lon="12.297831490574481"><ele>539.0</ele><time>2026-04-17T13:33:20.003Z</time></trkpt><trkpt lat="42.67297222542616" lon="12.297893505076228"><ele>539.0</ele><time>2026-04-17T13:33:21.003Z</time></trkpt><trkpt lat="42.672890951566536" lon="12.297954781023929"><ele>539.0</ele><time>2026-04-17T13:33:22.003Z</time></trkpt><trkpt lat="42.67280984512118" lon="12.298015347355038"><ele>539.0</ele><time>2026-04-17T13:33:23.003Z</time></trkpt><trkpt lat="42.67273179936781" lon="12.29807576783844"><ele>539.0</ele><time>2026-04-17T13:33:24.003Z</time></trkpt><trkpt lat="42.67264497085866" lon="12.298116751566125"><ele>541.3333333333333</ele><time>2026-04-17T13:33:25.003Z</time></trkpt><trkpt lat="42.67257144078219" lon="12.298192264217477"><ele>543.6666666666666</ele><time>2026-04-17T13:33:26.003Z</time></trkpt><trkpt lat="42.672486261289215" lon="12.298249433342642"><ele>546.0</ele><time>2026-04-17T13:33:27.003Z</time></trkpt><trkpt lat="42.67240471541026" lon="12.298315020138148"><ele>548.3333333333334</ele><time>2026-04-17T13:33:28.003Z</time></trkpt><trkpt lat="42.672336689237156" lon="12.29836914836087"><ele>550.6666666666667</ele><time>2026-04-17T13:33:29.003Z</time></trkpt><trkpt lat="42.67227631106983" lon="12.298418043465945"><ele>553.0</ele><time>2026-04-17T13:33:30.003Z</time></trkpt><trkpt lat="42.672207599305736" lon="12.298453205770404"><ele>553.0</ele><time>2026-04-17T13:33:31.003Z</time></trkpt><trkpt lat="42.67214281937178" lon="12.298516929049901"><ele>553.0</ele><time>2026-04-17T13:33:32.003Z</time></trkpt><trkpt lat="42.672094651333545" lon="12.298593789531775"><ele>553.0</ele><time>2026-04-17T13:33:33.003Z</time></trkpt><trkpt lat="42.67204365505542" lon="12.298645321625118"><ele>553.0</ele><time>2026-04-17T13:33:34.003Z</time></trkpt><trkpt lat="42.671988811156176" lon="12.298708574238336"><ele>553.0</ele><time>2026-04-17T13:33:35.003Z</time></trkpt><trkpt lat="42.671937369118645" lon="12.298783373693823"><ele>553.0</ele><time>2026-04-17T13:33:36.001Z</time></trkpt><trkpt lat="42.67189032208528" lon="12.298853561864933"><ele>553.0</ele><time>2026-04-17T13:33:37.001Z</time></trkpt><trkpt lat="42.671847506104456" lon="12.298924785024962"><ele>553.6666666666667</ele><time>2026-04-17T13:33:38.001Z</time></trkpt><trkpt lat="42.67176632191051" lon="12.299050967826378"><ele>554.3333333333334</ele><time>2026-04-17T13:33:40.001Z</time></trkpt><trkpt lat="42.67172842220792" lon="12.29912736355751"><ele>555.0</ele><time>2026-04-17T13:33:41.001Z</time></trkpt><trkpt lat="42.67169241339276" lon="12.299203619379892"><ele>555.6666666666666</ele><time>2026-04-17T13:33:42.001Z</time></trkpt><trkpt lat="42.67163338891601" lon="12.299343778626147"><ele>556.3333333333333</ele><time>2026-04-17T13:33:44Z</time></trkpt><trkpt lat="42.67161829278579" lon="12.299428260751155"><ele>557.0</ele><time>2026-04-17T13:33:45Z</time></trkpt><trkpt lat="42.67158802915979" lon="12.299507585801436"><ele>557.0</ele><time>2026-04-17T13:33:46Z</time></trkpt><trkpt lat="42.67157200517848" lon="12.299590941145167"><ele>557.0</ele><time>2026-04-17T13:33:47Z</time></trkpt><trkpt lat="42.67156995046056" lon="12.299677840033166"><ele>557.0</ele><time>2026-04-17T13:33:48Z</time></trkpt><trkpt lat="42.671548403817994" lon="12.29976182609859"><ele>557.0</ele><time>2026-04-17T13:33:49Z</time></trkpt><trkpt lat="42.67153762558674" lon="12.299850362865573"><ele>557.0</ele><time>2026-04-17T13:33:50Z</time></trkpt><trkpt lat="42.67152385905834" lon="12.299950852714662"><ele>557.0</ele><time>2026-04-17T13:33:51Z</time></trkpt><trkpt lat="42.671506786470154" lon="12.300073198511507"><ele>557.0</ele><time>2026-04-17T13:33:52Z</time></trkpt><trkpt lat="42.67149078466736" lon="12.300177341496713"><ele>560.0</ele><time>2026-04-17T13:33:53Z</time></trkpt><trkpt lat="42.67146907295777" lon="12.300279504490081"><ele>563.0</ele><time>2026-04-17T13:33:54Z</time></trkpt><trkpt lat="42.6714382239516" lon="12.300379116738945"><ele>566.0</ele><time>2026-04-17T13:33:55Z</time></trkpt><trkpt lat="42.67139397821869" lon="12.30045643295477"><ele>569.0</ele><time>2026-04-17T13:33:56Z</time></trkpt><trkpt lat="42.671270390626425" lon="12.300536915169511"><ele>572.0</ele><time>2026-04-17T13:33:58.001Z</time></trkpt><trkpt lat="42.67121201668565" lon="12.300576543677446"><ele>575.0</ele><time>2026-04-17T13:33:59.001Z</time></trkpt><trkpt lat="42.671136106583944" lon="12.300674747699365"><ele>574.1666666666666</ele><time>2026-04-17T13:34:01.001Z</time></trkpt><trkpt lat="42.67105800172492" lon="12.300757436610125"><ele>573.3333333333333</ele><time>2026-04-17T13:34:03.001Z</time></trkpt><trkpt lat="42.67101987009137" lon="12.300828202187954"><ele>572.5</ele><time>2026-04-17T13:34:04.001Z</time></trkpt><trkpt lat="42.67096641974873" lon="12.3009667081846"><ele>571.6666666666666</ele><time>2026-04-17T13:34:06.001Z</time></trkpt><trkpt lat="42.67093751544043" lon="12.301044841833683"><ele>570.8333333333334</ele><time>2026-04-17T13:34:07.001Z</time></trkpt><trkpt lat="42.670909471632484" lon="12.30112838655735"><ele>570.0</ele><time>2026-04-17T13:34:08.001Z</time></trkpt><trkpt lat="42.67086811035772" lon="12.301202914338448"><ele>570.0</ele><time>2026-04-17T13:34:09.001Z</time></trkpt><trkpt lat="42.67085025198258" lon="12.30130148468597"><ele>570.0</ele><time>2026-04-17T13:34:10.001Z</time></trkpt><trkpt lat="42.6708184253219" lon="12.301379628184339"><ele>570.0</ele><time>2026-04-17T13:34:11.001Z</time></trkpt><trkpt lat="42.670789449247906" lon="12.301468428079987"><ele>570.0</ele><time>2026-04-17T13:34:12.001Z</time></trkpt><trkpt lat="42.670770842937635" lon="12.301565665733747"><ele>570.0</ele><time>2026-04-17T13:34:13.001Z</time></trkpt><trkpt lat="42.67073988575748" lon="12.301646424628524"><ele>570.0</ele><time>2026-04-17T13:34:14.001Z</time></trkpt><trkpt lat="42.67073800221106" lon="12.30174678521063"><ele>570.0</ele><time>2026-04-17T13:34:15.001Z</time></trkpt><trkpt lat="42.670722378528296" lon="12.301842854430653"><ele>572.6666666666666</ele><time>2026-04-17T13:34:16.001Z</time></trkpt><trkpt lat="42.67071585780949" lon="12.302011930705158"><ele>575.3333333333334</ele><time>2026-04-17T13:34:18.001Z</time></trkpt><trkpt lat="42.6706971478153" lon="12.302104814157845"><ele>578.0</ele><time>2026-04-17T13:34:19.001Z</time></trkpt><trkpt lat="42.67071315338392" lon="12.302192805732261"><ele>580.6666666666667</ele><time>2026-04-17T13:34:20.001Z</time></trkpt><trkpt lat="42.67069792267419" lon="12.302347228870698"><ele>583.3333333333334</ele><time>2026-04-17T13:34:22.001Z</time></trkpt><trkpt lat="42.6707150207203" lon="12.302435305145634"><ele>586.0</ele><time>2026-04-17T13:34:23.001Z</time></trkpt><trkpt lat="42.670701743905276" lon="12.302535063290538"><ele>587.1428571428571</ele><time>2026-04-17T13:34:24.001Z</time></trkpt><trkpt lat="42.67070384964847" lon="12.302629821573735"><ele>588.2857142857142</ele><time>2026-04-17T13:34:25.001Z</time></trkpt><trkpt lat="42.67070581926242" lon="12.302718454021187"><ele>589.4285714285714</ele><time>2026-04-17T13:34:26.001Z</time></trkpt><trkpt lat="42.67072577429475" lon="12.30281548460472"><ele>590.5714285714286</ele><time>2026-04-17T13:34:27.001Z</time></trkpt><trkpt lat="42.6707316687162" lon="12.302913060122782"><ele>591.7142857142858</ele><time>2026-04-17T13:34:28.001Z</time></trkpt><trkpt lat="42.67073137456849" lon="12.303018499951273"><ele>592.8571428571429</ele><time>2026-04-17T13:34:29.001Z</time></trkpt><trkpt lat="42.67074141813382" lon="12.303141419220246"><ele>594.0</ele><time>2026-04-17T13:34:30.001Z</time></trkpt><trkpt lat="42.67075009743461" lon="12.303254378832776"><ele>595.0</ele><time>2026-04-17T13:34:31.001Z</time></trkpt><trkpt lat="42.670760592715716" lon="12.303379384860298"><ele>596.0</ele><time>2026-04-17T13:34:32.001Z</time></trkpt><trkpt lat="42.67077369322364" lon="12.303502833726382"><ele>597.0</ele><time>2026-04-17T13:34:33.001Z</time></trkpt><trkpt lat="42.67079054183903" lon="12.303633053239938"><ele>598.0</ele><time>2026-04-17T13:34:34.001Z</time></trkpt><trkpt lat="42.67078583185627" lon="12.303750210760807"><ele>599.0</ele><time>2026-04-17T13:34:35.001Z</time></trkpt><trkpt lat="42.67079559608217" lon="12.30385203730169"><ele>600.0</ele><time>2026-04-17T13:34:36.001Z</time></trkpt><trkpt lat="42.67080246468255" lon="12.303937952989397"><ele>600.7142857142857</ele><time>2026-04-17T13:34:37.001Z</time></trkpt><trkpt lat="42.67080751083697" lon="12.304032413010441"><ele>601.4285714285714</ele><time>2026-04-17T13:34:38.001Z</time></trkpt><trkpt lat="42.67080929530429" lon="12.30413762001365"><ele>602.1428571428571</ele><time>2026-04-17T13:34:39.001Z</time></trkpt><trkpt lat="42.67080876638981" lon="12.304236263233317"><ele>602.8571428571429</ele><time>2026-04-17T13:34:40.001Z</time></trkpt><trkpt lat="42.67082250594813" lon="12.304339701025034"><ele>603.5714285714286</ele><time>2026-04-17T13:34:41.001Z</time></trkpt><trkpt lat="42.670821427509274" lon="12.304430117632263"><ele>604.2857142857142</ele><time>2026-04-17T13:34:42.001Z</time></trkpt><trkpt lat="42.67082888330709" lon="12.30451717301712"><ele>605.0</ele><time>2026-04-17T13:34:43.001Z</time></trkpt><trkpt lat="42.67083679385219" lon="12.304632044583933"><ele>605.0</ele><time>2026-04-17T13:34:44.001Z</time></trkpt><trkpt lat="42.6708264387514" lon="12.304738096326979"><ele>605.0</ele><time>2026-04-17T13:34:45.002Z</time></trkpt><trkpt lat="42.670833295271" lon="12.304848226707096"><ele>605.0</ele><time>2026-04-17T13:34:46.002Z</time></trkpt><trkpt lat="42.67085625510521" lon="12.304950003594985"><ele>605.0</ele><time>2026-04-17T13:34:47.002Z</time></trkpt><trkpt lat="42.67085764232593" lon="12.305050768682852"><ele>605.0</ele><time>2026-04-17T13:34:48.002Z</time></trkpt><trkpt lat="42.670863457587494" lon="12.305150402264362"><ele>605.0</ele><time>2026-04-17T13:34:49.002Z</time></trkpt><trkpt lat="42.670844237907" lon="12.305241178854356"><ele>607.0</ele><time>2026-04-17T13:34:50.002Z</time></trkpt><trkpt lat="42.6708435254169" lon="12.30532768771537"><ele>609.0</ele><time>2026-04-17T13:34:51.002Z</time></trkpt><trkpt lat="42.67080244887172" lon="12.305463674002674"><ele>611.0</ele><time>2026-04-17T13:34:53.002Z</time></trkpt><trkpt lat="42.67069906968906" lon="12.305552694709053"><ele>613.0</ele><time>2026-04-17T13:34:55.002Z</time></trkpt><trkpt lat="42.670629249993674" lon="12.305561974817794"><ele>615.0</ele><time>2026-04-17T13:34:56.002Z</time></trkpt><trkpt lat="42.670541774627374" lon="12.305555133492092"><ele>615.0</ele><time>2026-04-17T13:34:57.002Z</time></trkpt><trkpt lat="42.67043786546549" lon="12.305521633716937"><ele>615.0</ele><time>2026-04-17T13:34:58.002Z</time></trkpt><trkpt lat="42.67032654570382" lon="12.305481650098484"><ele>615.0</ele><time>2026-04-17T13:34:59.002Z</time></trkpt><trkpt lat="42.67021685341987" lon="12.305449620512194"><ele>615.0</ele><time>2026-04-17T13:35:00.002Z</time></trkpt><trkpt lat="42.67011405967155" lon="12.305419589331171"><ele>615.0</ele><time>2026-04-17T13:35:01.002Z</time></trkpt><trkpt lat="42.670015379904704" lon="12.305399211756743"><ele>613.4</ele><time>2026-04-17T13:35:02.002Z</time></trkpt><trkpt lat="42.66991762087959" lon="12.3053839206382"><ele>611.8</ele><time>2026-04-17T13:35:03.002Z</time></trkpt><trkpt lat="42.66982866591761" lon="12.305377061329729"><ele>610.2</ele><time>2026-04-17T13:35:04.002Z</time></trkpt><trkpt lat="42.66973832671398" lon="12.30533184785542"><ele>608.6</ele><time>2026-04-17T13:35:05.002Z</time></trkpt><trkpt lat="42.66964694292081" lon="12.305304858569233"><ele>607.0</ele><time>2026-04-17T13:35:06.002Z</time></trkpt><trkpt lat="42.66955204024633" lon="12.305276830011929"><ele>607.0</ele><time>2026-04-17T13:35:07.002Z</time></trkpt><trkpt lat="42.66944607194366" lon="12.305269906869094"><ele>607.0</ele><time>2026-04-17T13:35:08.002Z</time></trkpt><trkpt lat="42.66934964132108" lon="12.305240341955432"><ele>607.0</ele><time>2026-04-17T13:35:09.002Z</time></trkpt><trkpt lat="42.66925766986027" lon="12.305212944163255"><ele>607.0</ele><time>2026-04-17T13:35:10.002Z</time></trkpt><trkpt lat="42.66917653986381" lon="12.30519561902315"><ele>607.0</ele><time>2026-04-17T13:35:11.002Z</time></trkpt><trkpt lat="42.669084999789604" lon="12.305210172597398"><ele>608.1666666666667</ele><time>2026-04-17T13:35:12.002Z</time></trkpt><trkpt lat="42.6689987945579" lon="12.305197493935365"><ele>609.3333333333334</ele><time>2026-04-17T13:35:13.002Z</time></trkpt><trkpt lat="42.668911681289785" lon="12.305194634670745"><ele>610.5</ele><time>2026-04-17T13:35:14.002Z</time></trkpt><trkpt lat="42.66883679571749" lon="12.30521837012442"><ele>611.6666666666666</ele><time>2026-04-17T13:35:15.002Z</time></trkpt><trkpt lat="42.66875569328951" lon="12.30524568255883"><ele>612.8333333333333</ele><time>2026-04-17T13:35:16.002Z</time></trkpt><trkpt lat="42.66867749315326" lon="12.305273167049432"><ele>614.0</ele><time>2026-04-17T13:35:17.002Z</time></trkpt><trkpt lat="42.66861579402142" lon="12.305298672308322"><ele>613.4</ele><time>2026-04-17T13:35:18.002Z</time></trkpt><trkpt lat="42.668524868160546" lon="12.305349543194957"><ele>612.8</ele><time>2026-04-17T13:35:20.002Z</time></trkpt><trkpt lat="42.66846419830089" lon="12.305415493741599"><ele>612.2</ele><time>2026-04-17T13:35:22.002Z</time></trkpt><trkpt lat="42.668415369335314" lon="12.30552603124777"><ele>611.6</ele><time>2026-04-17T13:35:25.002Z</time></trkpt><trkpt lat="42.66838881304063" lon="12.30565027629086"><ele>611.0</ele><time>2026-04-17T13:35:27.003Z</time></trkpt><trkpt lat="42.66846851625216" lon="12.305753011661562"><ele>613.8333333333333</ele><time>2026-04-17T13:35:29.003Z</time></trkpt><trkpt lat="42.66853967325188" lon="12.305741714001229"><ele>616.6666666666666</ele><time>2026-04-17T13:35:30.003Z</time></trkpt><trkpt lat="42.66861291384027" lon="12.30567071256583"><ele>619.5</ele><time>2026-04-17T13:35:31.003Z</time></trkpt><trkpt lat="42.66867846219124" lon="12.30563616404117"><ele>622.3333333333334</ele><time>2026-04-17T13:35:32.003Z</time></trkpt><trkpt lat="42.668756490473974" lon="12.30559436587213"><ele>625.1666666666667</ele><time>2026-04-17T13:35:33.003Z</time></trkpt><trkpt lat="42.66885256066511" lon="12.30562599985876"><ele>628.0</ele><time>2026-04-17T13:35:35.003Z</time></trkpt><trkpt lat="42.66893495754144" lon="12.305680192196752"><ele>630.4</ele><time>2026-04-17T13:35:37.003Z</time></trkpt><trkpt lat="42.669013245454785" lon="12.305721629629037"><ele>632.8</ele><time>2026-04-17T13:35:38.003Z</time></trkpt><trkpt lat="42.66911454151725" lon="12.305746064715422"><ele>635.2</ele><time>2026-04-17T13:35:39.003Z</time></trkpt><trkpt lat="42.66920275822538" lon="12.305812593363601"><ele>637.6</ele><time>2026-04-17T13:35:40.003Z</time></trkpt><trkpt lat="42.669278250141254" lon="12.305860661450255"><ele>640.0</ele><time>2026-04-17T13:35:41.003Z</time></trkpt><trkpt lat="42.66934983476704" lon="12.305915800050794"><ele>640.0</ele><time>2026-04-17T13:35:42Z</time></trkpt><trkpt lat="42.66942289913973" lon="12.305974804255472"><ele>640.0</ele><time>2026-04-17T13:35:43Z</time></trkpt><trkpt lat="42.66949509812712" lon="12.30603491748479"><ele>640.0</ele><time>2026-04-17T13:35:44Z</time></trkpt><trkpt lat="42.66956390462009" lon="12.306066699776107"><ele>640.0</ele><time>2026-04-17T13:35:45Z</time></trkpt><trkpt lat="42.66964133301902" lon="12.306137444943513"><ele>640.0</ele><time>2026-04-17T13:35:46Z</time></trkpt><trkpt lat="42.66971907227394" lon="12.306205819726426"><ele>640.0</ele><time>2026-04-17T13:35:47Z</time></trkpt><trkpt lat="42.66978375245108" lon="12.306282784729346"><ele>638.6</ele><time>2026-04-17T13:35:48Z</time></trkpt><trkpt lat="42.669838529168004" lon="12.306330991147988"><ele>637.2</ele><time>2026-04-17T13:35:49Z</time></trkpt><trkpt lat="42.66993403349868" lon="12.306400334374466"><ele>635.8</ele><time>2026-04-17T13:35:51Z</time></trkpt><trkpt lat="42.66998920375741" lon="12.30644595422958"><ele>634.4</ele><time>2026-04-17T13:35:52Z</time></trkpt><trkpt lat="42.6701028745295" lon="12.306556463130972"><ele>633.0</ele><time>2026-04-17T13:35:54Z</time></trkpt><trkpt lat="42.67020579287208" lon="12.306623724781424"><ele>636.4285714285714</ele><time>2026-04-17T13:35:56Z</time></trkpt><trkpt lat="42.6702702306524" lon="12.306650959223068"><ele>639.8571428571429</ele><time>2026-04-17T13:35:57Z</time></trkpt><trkpt lat="42.67034004394974" lon="12.306678246700631"><ele>643.2857142857142</ele><time>2026-04-17T13:35:58Z</time></trkpt><trkpt lat="42.670404622842305" lon="12.306715867491382"><ele>646.7142857142858</ele><time>2026-04-17T13:35:59Z</time></trkpt><trkpt lat="42.670479637260094" lon="12.306745472160621"><ele>650.1428571428572</ele><time>2026-04-17T13:36:00Z</time></trkpt><trkpt lat="42.6705531997938" lon="12.306775209720243"><ele>653.5714285714286</ele><time>2026-04-17T13:36:01Z</time></trkpt><trkpt lat="42.6706164966159" lon="12.306805408127738"><ele>657.0</ele><time>2026-04-17T13:36:02Z</time></trkpt><trkpt lat="42.67073704174419" lon="12.306842846983894"><ele>657.0</ele><time>2026-04-17T13:36:04Z</time></trkpt><trkpt lat="42.67080756025979" lon="12.306868144074192"><ele>657.0</ele><time>2026-04-17T13:36:05Z</time></trkpt><trkpt lat="42.670869811058736" lon="12.30688965266401"><ele>657.0</ele><time>2026-04-17T13:36:06Z</time></trkpt><trkpt lat="42.67093554837945" lon="12.306912640367086"><ele>657.0</ele><time>2026-04-17T13:36:07Z</time></trkpt><trkpt lat="42.6710079929533" lon="12.306942651188052"><ele>657.0</ele><time>2026-04-17T13:36:08Z</time></trkpt><trkpt lat="42.67107685283023" lon="12.306967612008618"><ele>657.0</ele><time>2026-04-17T13:36:09Z</time></trkpt><trkpt lat="42.671151191430646" lon="12.3069825437698"><ele>657.0</ele><time>2026-04-17T13:36:10Z</time></trkpt><trkpt lat="42.67122218842866" lon="12.306977245024378"><ele>659.5</ele><time>2026-04-17T13:36:11Z</time></trkpt><trkpt lat="42.671293207182885" lon="12.30696515531982"><ele>662.0</ele><time>2026-04-17T13:36:12Z</time></trkpt><trkpt lat="42.67142544590297" lon="12.306925498207619"><ele>664.5</ele><time>2026-04-17T13:36:14Z</time></trkpt><trkpt lat="42.6714887397245" lon="12.3068948713207"><ele>667.0</ele><time>2026-04-17T13:36:15Z</time></trkpt><trkpt lat="42.67154888462078" lon="12.306861523149314"><ele>669.5</ele><time>2026-04-17T13:36:16.001Z</time></trkpt><trkpt lat="42.67160842081036" lon="12.306806121579843"><ele>672.0</ele><time>2026-04-17T13:36:17.001Z</time></trkpt><trkpt lat="42.67165899561201" lon="12.306735091170369"><ele>672.0</ele><time>2026-04-17T13:36:18.001Z</time></trkpt><trkpt lat="42.671713347862" lon="12.30669031090229"><ele>672.0</ele><time>2026-04-17T13:36:19.001Z</time></trkpt><trkpt lat="42.6717640097841" lon="12.306618558859151"><ele>672.0</ele><time>2026-04-17T13:36:20.001Z</time></trkpt><trkpt lat="42.67181043710521" lon="12.30653114051074"><ele>672.0</ele><time>2026-04-17T13:36:21.001Z</time></trkpt><trkpt lat="42.67186516142149" lon="12.306453899993809"><ele>672.0</ele><time>2026-04-17T13:36:22.001Z</time></trkpt><trkpt lat="42.6719207269809" lon="12.306372699780296"><ele>672.0</ele><time>2026-04-17T13:36:23.001Z</time></trkpt><trkpt lat="42.67196711354086" lon="12.306296109220071"><ele>672.0</ele><time>2026-04-17T13:36:24.001Z</time></trkpt><trkpt lat="42.67204340997416" lon="12.30616143798704"><ele>675.5</ele><time>2026-04-17T13:36:26.001Z</time></trkpt><trkpt lat="42.67207034028534" lon="12.306077914927421"><ele>679.0</ele><time>2026-04-17T13:36:27.001Z</time></trkpt><trkpt lat="42.6721069738381" lon="12.305998240577127"><ele>682.5</ele><time>2026-04-17T13:36:28.001Z</time></trkpt><trkpt lat="42.67215213402166" lon="12.305907129921179"><ele>686.0</ele><time>2026-04-17T13:36:29.001Z</time></trkpt><trkpt lat="42.672187440116964" lon="12.305820681608393"><ele>689.5</ele><time>2026-04-17T13:36:30.001Z</time></trkpt><trkpt lat="42.67221340488481" lon="12.305712396920992"><ele>693.0</ele><time>2026-04-17T13:36:31.001Z</time></trkpt><trkpt lat="42.67223394563551" lon="12.305602335176536"><ele>692.6666666666666</ele><time>2026-04-17T13:36:32.001Z</time></trkpt><trkpt lat="42.67225541224422" lon="12.305511250694028"><ele>692.3333333333334</ele><time>2026-04-17T13:36:33.001Z</time></trkpt><trkpt lat="42.67227383573595" lon="12.305417420087684"><ele>692.0</ele><time>2026-04-17T13:36:34.001Z</time></trkpt><trkpt lat="42.67229427093158" lon="12.305313692115709"><ele>691.6666666666667</ele><time>2026-04-17T13:36:35.001Z</time></trkpt><trkpt lat="42.672314432071715" lon="12.305204086332695"><ele>691.3333333333334</ele><time>2026-04-17T13:36:36.001Z</time></trkpt><trkpt lat="42.672331786730666" lon="12.30509467653709"><ele>691.0</ele><time>2026-04-17T13:36:37.001Z</time></trkpt><trkpt lat="42.672350454968885" lon="12.304987200928675"><ele>691.0</ele><time>2026-04-17T13:36:38.001Z</time></trkpt><trkpt lat="42.67237899485994" lon="12.30488973056179"><ele>691.0</ele><time>2026-04-17T13:36:39.001Z</time></trkpt><trkpt lat="42.67239414775778" lon="12.304797612464865"><ele>691.0</ele><time>2026-04-17T13:36:40.001Z</time></trkpt><trkpt lat="42.67241114150304" lon="12.304694303409248"><ele>691.0</ele><time>2026-04-17T13:36:41.001Z</time></trkpt><trkpt lat="42.672435821246445" lon="12.304574391892107"><ele>691.0</ele><time>2026-04-17T13:36:42.001Z</time></trkpt><trkpt lat="42.672458545095594" lon="12.304476096212841"><ele>691.0</ele><time>2026-04-17T13:36:43.001Z</time></trkpt><trkpt lat="42.67248284048904" lon="12.304382820077379"><ele>690.3333333333334</ele><time>2026-04-17T13:36:44.001Z</time></trkpt><trkpt lat="42.67251156927683" lon="12.30427891763218"><ele>689.6666666666667</ele><time>2026-04-17T13:36:45.001Z</time></trkpt><trkpt lat="42.672518847684216" lon="12.304191103428513"><ele>689.0</ele><time>2026-04-17T13:36:46.001Z</time></trkpt><trkpt lat="42.67254830428458" lon="12.30409340998973"><ele>688.3333333333334</ele><time>2026-04-17T13:36:47.001Z</time></trkpt><trkpt lat="42.672576312702546" lon="12.303998254255658"><ele>687.6666666666666</ele><time>2026-04-17T13:36:48.001Z</time></trkpt><trkpt lat="42.67260634907103" lon="12.303891955937827"><ele>687.0</ele><time>2026-04-17T13:36:49.001Z</time></trkpt><trkpt lat="42.672632664000325" lon="12.30377978440089"><ele>685.4000000000001</ele><time>2026-04-17T13:36:50.001Z</time></trkpt><trkpt lat="42.672653611228284" lon="12.303691235956325"><ele>683.8000000000001</ele><time>2026-04-17T13:36:51.001Z</time></trkpt><trkpt lat="42.67269700417444" lon="12.303516490385492"><ele>682.2</ele><time>2026-04-17T13:36:53.001Z</time></trkpt><trkpt lat="42.672740788659524" lon="12.30344246543355"><ele>680.6</ele><time>2026-04-17T13:36:54.001Z</time></trkpt><trkpt lat="42.67279870697016" lon="12.30330357718496"><ele>679.0</ele><time>2026-04-17T13:36:56.001Z</time></trkpt><trkpt lat="42.67284305137497" lon="12.303227917214715"><ele>681.5714285714286</ele><time>2026-04-17T13:36:57.001Z</time></trkpt><trkpt lat="42.672889241693454" lon="12.303157841278463"><ele>684.1428571428571</ele><time>2026-04-17T13:36:58.001Z</time></trkpt><trkpt lat="42.67294368386722" lon="12.303085360303545"><ele>686.7142857142858</ele><time>2026-04-17T13:36:59.001Z</time></trkpt><trkpt lat="42.6729836796235" lon="12.303009907288256"><ele>689.2857142857142</ele><time>2026-04-17T13:37:00.001Z</time></trkpt><trkpt lat="42.67304433657614" lon="12.30296711575603"><ele>691.8571428571429</ele><time>2026-04-17T13:37:01.002Z</time></trkpt><trkpt lat="42.67310562638938" lon="12.302907984526746"><ele>694.4285714285714</ele><time>2026-04-17T13:37:02.002Z</time></trkpt><trkpt lat="42.67315769226041" lon="12.302837591395757"><ele>697.0</ele><time>2026-04-17T13:37:03.002Z</time></trkpt><trkpt lat="42.67321482721251" lon="12.302776730267313"><ele>697.0</ele><time>2026-04-17T13:37:04.002Z</time></trkpt><trkpt lat="42.67327961329205" lon="12.302699163131612"><ele>697.0</ele><time>2026-04-17T13:37:05.002Z</time></trkpt><trkpt lat="42.67334118419578" lon="12.302619122502803"><ele>697.0</ele><time>2026-04-17T13:37:06.002Z</time></trkpt><trkpt lat="42.673401840695995" lon="12.302547109801477"><ele>697.0</ele><time>2026-04-17T13:37:07.002Z</time></trkpt><trkpt lat="42.673462229564585" lon="12.302483462619074"><ele>697.0</ele><time>2026-04-17T13:37:08.002Z</time></trkpt><trkpt lat="42.6735156752165" lon="12.302416178141346"><ele>697.0</ele><time>2026-04-17T13:37:09.002Z</time></trkpt><trkpt lat="42.673577768758086" lon="12.302362170254536"><ele>700.3333333333334</ele><time>2026-04-17T13:37:10.002Z</time></trkpt><trkpt lat="42.67364879797222" lon="12.302350179331762"><ele>703.6666666666667</ele><time>2026-04-17T13:37:11.002Z</time></trkpt><trkpt lat="42.67371390244104" lon="12.302324408191673"><ele>707.0</ele><time>2026-04-17T13:37:12.002Z</time></trkpt><trkpt lat="42.673789501591216" lon="12.302281233300564"><ele>710.3333333333334</ele><time>2026-04-17T13:37:13.002Z</time></trkpt><trkpt lat="42.6738746883497" lon="12.302295491288096"><ele>713.6666666666666</ele><time>2026-04-17T13:37:14.002Z</time></trkpt><trkpt lat="42.67394867449357" lon="12.302275473344093"><ele>717.0</ele><time>2026-04-17T13:37:15.002Z</time></trkpt><trkpt lat="42.674023235068695" lon="12.302296944962432"><ele>717.0</ele><time>2026-04-17T13:37:16.002Z</time></trkpt><trkpt lat="42.67410633217655" lon="12.302305504331438"><ele>717.0</ele><time>2026-04-17T13:37:17.002Z</time></trkpt><trkpt lat="42.67419124797265" lon="12.302304552288955"><ele>717.0</ele><time>2026-04-17T13:37:18.002Z</time></trkpt><trkpt lat="42.67427985979351" lon="12.302289105323277"><ele>717.0</ele><time>2026-04-17T13:37:19.002Z</time></trkpt><trkpt lat="42.67436153204157" lon="12.302267124850742"><ele>717.0</ele><time>2026-04-17T13:37:20.002Z</time></trkpt><trkpt lat="42.67443371280982" lon="12.30223622437033"><ele>717.0</ele><time>2026-04-17T13:37:21.002Z</time></trkpt><trkpt lat="42.67450436203893" lon="12.302196780171585"><ele>715.4000000000001</ele><time>2026-04-17T13:37:22.002Z</time></trkpt><trkpt lat="42.67456909353486" lon="12.302150374476922"><ele>713.8000000000001</ele><time>2026-04-17T13:37:23.002Z</time></trkpt><trkpt lat="42.674671121455795" lon="12.302103769289591"><ele>712.2</ele><time>2026-04-17T13:37:25.002Z</time></trkpt><trkpt lat="42.67474385174609" lon="12.30208929845785"><ele>710.6</ele><time>2026-04-17T13:37:27.002Z</time></trkpt><trkpt lat="42.67480517624107" lon="12.302185041571748"><ele>709.0</ele><time>2026-04-17T13:37:30.002Z</time></trkpt><trkpt lat="42.67485767394621" lon="12.302307472489293"><ele>709.0</ele><time>2026-04-17T13:37:32.002Z</time></trkpt><trkpt lat="42.67488995764601" lon="12.302450517941756"><ele>709.0</ele><time>2026-04-17T13:37:34.002Z</time></trkpt><trkpt lat="42.674931418819256" lon="12.302648674723281"><ele>709.0</ele><time>2026-04-17T13:37:36.002Z</time></trkpt><trkpt lat="42.674945562428434" lon="12.30275011544558"><ele>709.0</ele><time>2026-04-17T13:37:37.002Z</time></trkpt><trkpt lat="42.67494568970453" lon="12.302847050741365"><ele>709.0</ele><time>2026-04-17T13:37:38.002Z</time></trkpt><trkpt lat="42.67494544816243" lon="12.30294715331564"><ele>709.0</ele><time>2026-04-17T13:37:39.002Z</time></trkpt><trkpt lat="42.67493290476171" lon="12.303056727540943"><ele>709.0</ele><time>2026-04-17T13:37:40.002Z</time></trkpt><trkpt lat="42.6749072762134" lon="12.303181975470032"><ele>709.0</ele><time>2026-04-17T13:37:41.002Z</time></trkpt><trkpt lat="42.67489750061912" lon="12.303320033700615"><ele>709.0</ele><time>2026-04-17T13:37:42.002Z</time></trkpt><trkpt lat="42.67487346856045" lon="12.303434496908961"><ele>709.0</ele><time>2026-04-17T13:37:43.003Z</time></trkpt><trkpt lat="42.67485630902283" lon="12.303554682899025"><ele>710.6</ele><time>2026-04-17T13:37:44.003Z</time></trkpt><trkpt lat="42.674839604048124" lon="12.303688414139167"><ele>712.2</ele><time>2026-04-17T13:37:45.003Z</time></trkpt><trkpt lat="42.67482971313427" lon="12.303819042491059"><ele>713.8000000000001</ele><time>2026-04-17T13:37:46.003Z</time></trkpt><trkpt lat="42.6748264482965" lon="12.303944760421766"><ele>715.4000000000001</ele><time>2026-04-17T13:37:47.003Z</time></trkpt><trkpt lat="42.67482188407188" lon="12.304073366858793"><ele>717.0</ele><time>2026-04-17T13:37:47.999Z</time></trkpt><trkpt lat="42.674797470405984" lon="12.304202945571893"><ele>717.4000000000001</ele><time>2026-04-17T13:37:48.999Z</time></trkpt><trkpt lat="42.674798525898574" lon="12.30432298345769"><ele>717.8000000000001</ele><time>2026-04-17T13:37:49.999Z</time></trkpt><trkpt lat="42.674791363482115" lon="12.304457128941877"><ele>718.2</ele><time>2026-04-17T13:37:50.999Z</time></trkpt><trkpt lat="42.67480491741941" lon="12.304598918970031"><ele>718.6</ele><time>2026-04-17T13:37:51.999Z</time></trkpt><trkpt lat="42.67479159585251" lon="12.30471897506732"><ele>719.0</ele><time>2026-04-17T13:37:52.999Z</time></trkpt><trkpt lat="42.67479189335949" lon="12.304831521852865"><ele>719.5</ele><time>2026-04-17T13:37:53.999Z</time></trkpt><trkpt lat="42.67479219168034" lon="12.304944375373502"><ele>720.0</ele><time>2026-04-17T13:37:54.999Z</time></trkpt><trkpt lat="42.67479250999221" lon="12.30506479284134"><ele>720.5</ele><time>2026-04-17T13:37:56Z</time></trkpt><trkpt lat="42.67479206538379" lon="12.305161923829047"><ele>721.0</ele><time>2026-04-17T13:37:57Z</time></trkpt><trkpt lat="42.674807937203724" lon="12.305251504642863"><ele>721.5</ele><time>2026-04-17T13:37:58Z</time></trkpt><trkpt lat="42.67480380124965" lon="12.305346572316184"><ele>722.0</ele><time>2026-04-17T13:37:59Z</time></trkpt><trkpt lat="42.67480294661018" lon="12.305463250806046"><ele>722.0</ele><time>2026-04-17T13:38:00Z</time></trkpt><trkpt lat="42.67477437873246" lon="12.30557821844247"><ele>722.0</ele><time>2026-04-17T13:38:01Z</time></trkpt><trkpt lat="42.67475395591562" lon="12.305681107666935"><ele>722.0</ele><time>2026-04-17T13:38:02Z</time></trkpt><trkpt lat="42.67472409310617" lon="12.305779771395377"><ele>722.0</ele><time>2026-04-17T13:38:03Z</time></trkpt><trkpt lat="42.67471301312351" lon="12.30587693333486"><ele>722.0</ele><time>2026-04-17T13:38:04Z</time></trkpt><trkpt lat="42.6746815992948" lon="12.305956838010951"><ele>722.0</ele><time>2026-04-17T13:38:05Z</time></trkpt><trkpt lat="42.67465941008862" lon="12.30605098227466"><ele>721.3333333333333</ele><time>2026-04-17T13:38:06Z</time></trkpt><trkpt lat="42.67463310989962" lon="12.306136056634408"><ele>720.6666666666666</ele><time>2026-04-17T13:38:07Z</time></trkpt><trkpt lat="42.6745903366101" lon="12.306212982128791"><ele>720.0</ele><time>2026-04-17T13:38:08Z</time></trkpt><trkpt lat="42.67452504162849" lon="12.306356665720784"><ele>719.3333333333334</ele><time>2026-04-17T13:38:10Z</time></trkpt><trkpt lat="42.6744893408101" lon="12.306428455730524"><ele>718.6666666666667</ele><time>2026-04-17T13:38:11Z</time></trkpt><trkpt lat="42.67446406906419" lon="12.306517205760267"><ele>718.0</ele><time>2026-04-17T13:38:12Z</time></trkpt><trkpt lat="42.67441342807392" lon="12.306592214166825"><ele>721.5714285714286</ele><time>2026-04-17T13:38:13Z</time></trkpt><trkpt lat="42.67437292741314" lon="12.306676894483061"><ele>725.1428571428571</ele><time>2026-04-17T13:38:14Z</time></trkpt><trkpt lat="42.67432314784256" lon="12.306770811536639"><ele>728.7142857142858</ele><time>2026-04-17T13:38:15Z</time></trkpt><trkpt lat="42.674281987833545" lon="12.30684755334076"><ele>732.2857142857142</ele><time>2026-04-17T13:38:16Z</time></trkpt><trkpt lat="42.67423205079972" lon="12.30691313501677"><ele>735.8571428571428</ele><time>2026-04-17T13:38:17Z</time></trkpt><trkpt lat="42.67419172860897" lon="12.306989295143516"><ele>739.4285714285714</ele><time>2026-04-17T13:38:18Z</time></trkpt><trkpt lat="42.674157922109096" lon="12.307090402766958"><ele>743.0</ele><time>2026-04-17T13:38:19Z</time></trkpt><trkpt lat="42.6741119239894" lon="12.307167748103787"><ele>743.0</ele><time>2026-04-17T13:38:20Z</time></trkpt><trkpt lat="42.674056835493445" lon="12.307223756829837"><ele>743.0</ele><time>2026-04-17T13:38:21Z</time></trkpt><trkpt lat="42.674006334615726" lon="12.307298672315023"><ele>743.0</ele><time>2026-04-17T13:38:22Z</time></trkpt><trkpt lat="42.67395307729484" lon="12.307377796115272"><ele>743.0</ele><time>2026-04-17T13:38:23Z</time></trkpt><trkpt lat="42.6738920716874" lon="12.307464835721802"><ele>743.0</ele><time>2026-04-17T13:38:24Z</time></trkpt><trkpt lat="42.673829038540624" lon="12.307550461625883"><ele>743.0</ele><time>2026-04-17T13:38:25Z</time></trkpt><trkpt lat="42.673759332482426" lon="12.307631274575563"><ele>742.6666666666666</ele><time>2026-04-17T13:38:26Z</time></trkpt><trkpt lat="42.67368649537137" lon="12.3077044179261"><ele>742.3333333333333</ele><time>2026-04-17T13:38:27Z</time></trkpt><trkpt lat="42.67361560108672" lon="12.307758636569059"><ele>742.0</ele><time>2026-04-17T13:38:28Z</time></trkpt><trkpt lat="42.67354026475519" lon="12.307835593703532"><ele>741.6666666666666</ele><time>2026-04-17T13:38:29.001Z</time></trkpt><trkpt lat="42.67346430042291" lon="12.307893909986372"><ele>741.3333333333334</ele><time>2026-04-17T13:38:30.001Z</time></trkpt><trkpt lat="42.673401466419584" lon="12.307945993457306"><ele>741.0</ele><time>2026-04-17T13:38:31.001Z</time></trkpt><trkpt lat="42.673339375287824" lon="12.307995694678143"><ele>741.5999999999999</ele><time>2026-04-17T13:38:32.001Z</time></trkpt><trkpt lat="42.67325148407482" lon="12.308092210102695"><ele>742.2</ele><time>2026-04-17T13:38:34.001Z</time></trkpt><trkpt lat="42.67322139664868" lon="12.308169910874433"><ele>742.8</ele><time>2026-04-17T13:38:35.001Z</time></trkpt><trkpt lat="42.673223032515" lon="12.308284443284391"><ele>743.4000000000001</ele><time>2026-04-17T13:38:36.001Z</time></trkpt><trkpt lat="42.67320239289842" lon="12.308409390819916"><ele>744.0</ele><time>2026-04-17T13:38:37.001Z</time></trkpt><trkpt lat="42.67321333814146" lon="12.308538295364263"><ele>744.0</ele><time>2026-04-17T13:38:38.001Z</time></trkpt><trkpt lat="42.67321740772395" lon="12.308661534043663"><ele>744.0</ele><time>2026-04-17T13:38:39.001Z</time></trkpt><trkpt lat="42.67321946197822" lon="12.30876284810115"><ele>744.0</ele><time>2026-04-17T13:38:40.001Z</time></trkpt><trkpt lat="42.67322263582007" lon="12.308863111304614"><ele>744.0</ele><time>2026-04-17T13:38:41.001Z</time></trkpt><trkpt lat="42.6732231852579" lon="12.3090102971557"><ele>744.0</ele><time>2026-04-17T13:38:43.001Z</time></trkpt><trkpt lat="42.6732203814538" lon="12.30919034717338"><ele>745.0</ele><time>2026-04-17T13:38:45.001Z</time></trkpt><trkpt lat="42.6732480209307" lon="12.309298801403155"><ele>746.0</ele><time>2026-04-17T13:38:46.001Z</time></trkpt><trkpt lat="42.673258152325964" lon="12.309411981238114"><ele>747.0</ele><time>2026-04-17T13:38:47.001Z</time></trkpt><trkpt lat="42.67327881679649" lon="12.309507259701315"><ele>748.0</ele><time>2026-04-17T13:38:48.001Z</time></trkpt><trkpt lat="42.67329396960636" lon="12.309613802443552"><ele>749.0</ele><time>2026-04-17T13:38:49.001Z</time></trkpt><trkpt lat="42.67331889034577" lon="12.309718464956703"><ele>750.0</ele><time>2026-04-17T13:38:50.001Z</time></trkpt><trkpt lat="42.673338886996106" lon="12.30980640985447"><ele>750.4285714285714</ele><time>2026-04-17T13:38:51.001Z</time></trkpt><trkpt lat="42.673342780283114" lon="12.309905619733302"><ele>750.8571428571428</ele><time>2026-04-17T13:38:52.001Z</time></trkpt><trkpt lat="42.673355515235144" lon="12.30999694434665"><ele>751.2857142857142</ele><time>2026-04-17T13:38:53.001Z</time></trkpt><trkpt lat="42.67336636782104" lon="12.310097134554695"><ele>751.7142857142858</ele><time>2026-04-17T13:38:54.001Z</time></trkpt><trkpt lat="42.6733800098807" lon="12.310201212338955"><ele>752.1428571428571</ele><time>2026-04-17T13:38:55.001Z</time></trkpt><trkpt lat="42.673373254549546" lon="12.310300236898215"><ele>752.5714285714286</ele><time>2026-04-17T13:38:56.001Z</time></trkpt><trkpt lat="42.673361799046845" lon="12.310407533004465"><ele>753.0</ele><time>2026-04-17T13:38:57.001Z</time></trkpt><trkpt lat="42.67333576752293" lon="12.310518450994207"><ele>753.5</ele><time>2026-04-17T13:38:58.001Z</time></trkpt><trkpt lat="42.67332823005858" lon="12.310634485162687"><ele>754.0</ele><time>2026-04-17T13:38:59.001Z</time></trkpt><trkpt lat="42.673307477240336" lon="12.310731212471179"><ele>754.5</ele><time>2026-04-17T13:39:00.001Z</time></trkpt><trkpt lat="42.67329242930209" lon="12.310817144835514"><ele>755.0</ele><time>2026-04-17T13:39:01.001Z</time></trkpt><trkpt lat="42.67327750109913" lon="12.310918715092896"><ele>755.5</ele><time>2026-04-17T13:39:02.001Z</time></trkpt><trkpt lat="42.6732615934693" lon="12.311038678126328"><ele>756.0</ele><time>2026-04-17T13:39:03.001Z</time></trkpt><trkpt lat="42.67324749245583" lon="12.311160678965647"><ele>756.0</ele><time>2026-04-17T13:39:04.001Z</time></trkpt><trkpt lat="42.67323416022439" lon="12.311279430523706"><ele>756.0</ele><time>2026-04-17T13:39:05.001Z</time></trkpt><trkpt lat="42.67321023894587" lon="12.311403432031994"><ele>756.0</ele><time>2026-04-17T13:39:06.001Z</time></trkpt><trkpt lat="42.673216526469595" lon="12.311526433749878"><ele>756.0</ele><time>2026-04-17T13:39:07.001Z</time></trkpt><trkpt lat="42.67320666494233" lon="12.31165286641973"><ele>756.0</ele><time>2026-04-17T13:39:08.002Z</time></trkpt><trkpt lat="42.673187501733246" lon="12.311790239360036"><ele>756.6666666666666</ele><time>2026-04-17T13:39:09.002Z</time></trkpt><trkpt lat="42.673182638872966" lon="12.311912223038258"><ele>757.3333333333334</ele><time>2026-04-17T13:39:10.002Z</time></trkpt><trkpt lat="42.67317796781031" lon="12.312029395443506"><ele>758.0</ele><time>2026-04-17T13:39:11.002Z</time></trkpt><trkpt lat="42.673173371910416" lon="12.312153485794218"><ele>758.6666666666667</ele><time>2026-04-17T13:39:12.002Z</time></trkpt><trkpt lat="42.67317939202799" lon="12.312270397460761"><ele>759.3333333333334</ele><time>2026-04-17T13:39:13.002Z</time></trkpt><trkpt lat="42.673173701882504" lon="12.312390453950192"><ele>760.0</ele><time>2026-04-17T13:39:14.002Z</time></trkpt><trkpt lat="42.67314888803057" lon="12.31248633673056"><ele>761.0</ele><time>2026-04-17T13:39:15.002Z</time></trkpt><trkpt lat="42.67309419751537" lon="12.312631915804536"><ele>762.0</ele><time>2026-04-17T13:39:17.002Z</time></trkpt><trkpt lat="42.67305909445334" lon="12.312703278446106"><ele>763.0</ele><time>2026-04-17T13:39:18.002Z</time></trkpt><trkpt lat="42.67296474021071" lon="12.312781524136172"><ele>764.0</ele><time>2026-04-17T13:39:20.002Z</time></trkpt><trkpt lat="42.67289755830125" lon="12.312898731398072"><ele>765.0</ele><time>2026-04-17T13:39:22.002Z</time></trkpt><trkpt lat="42.672888998652084" lon="12.312983881089538"><ele>766.2</ele><time>2026-04-17T13:39:23.002Z</time></trkpt><trkpt lat="42.67291635540994" lon="12.313080151716305"><ele>767.4</ele><time>2026-04-17T13:39:24.002Z</time></trkpt><trkpt lat="42.6729862604499" lon="12.313155286566131"><ele>768.5999999999999</ele><time>2026-04-17T13:39:25.002Z</time></trkpt><trkpt lat="42.67307367535459" lon="12.313271132244084"><ele>769.8</ele><time>2026-04-17T13:39:27.002Z</time></trkpt><trkpt lat="42.67316202870998" lon="12.313403787560574"><ele>771.0</ele><time>2026-04-17T13:39:29.002Z</time></trkpt><trkpt lat="42.67317805785839" lon="12.313506827548707"><ele>771.0</ele><time>2026-04-17T13:39:30.002Z</time></trkpt><trkpt lat="42.673203269470086" lon="12.31360482479827"><ele>771.0</ele><time>2026-04-17T13:39:31.002Z</time></trkpt><trkpt lat="42.67323123912305" lon="12.313705434490373"><ele>771.0</ele><time>2026-04-17T13:39:32.002Z</time></trkpt><trkpt lat="42.673262678868404" lon="12.313790551430106"><ele>771.0</ele><time>2026-04-17T13:39:33.002Z</time></trkpt><trkpt lat="42.67328885599267" lon="12.313875384164344"><ele>771.0</ele><time>2026-04-17T13:39:34.002Z</time></trkpt><trkpt lat="42.67335800441612" lon="12.314002352414105"><ele>771.0</ele><time>2026-04-17T13:39:36.002Z</time></trkpt><trkpt lat="42.67341586760783" lon="12.3140940817046"><ele>771.0</ele><time>2026-04-17T13:39:38.002Z</time></trkpt><trkpt lat="42.67348173011448" lon="12.314148724867538"><ele>771.0</ele><time>2026-04-17T13:57:58.999Z</time></trkpt><trkpt lat="42.673549466996505" lon="12.314261795245413"><ele>771.0</ele><time>2026-04-17T14:00:45.999Z</time></trkpt><trkpt lat="42.67358441634989" lon="12.314388276128904"><ele>771.0</ele><time>2026-04-17T14:00:47.999Z</time></trkpt><trkpt lat="42.6735956377781" lon="12.314483753681985"><ele>771.0</ele><time>2026-04-17T14:00:48.999Z</time></trkpt><trkpt lat="42.673595301253236" lon="12.31458090238146"><ele>771.0</ele><time>2026-04-17T14:00:49.999Z</time></trkpt><trkpt lat="42.67359643688249" lon="12.314673913269704"><ele>771.0</ele><time>2026-04-17T14:00:50.999Z</time></trkpt><trkpt lat="42.67360137495884" lon="12.314769039873383"><ele>771.0</ele><time>2026-04-17T14:00:51.999Z</time></trkpt><trkpt lat="42.6735882545635" lon="12.314854104592833"><ele>771.0</ele><time>2026-04-17T14:00:52.999Z</time></trkpt><trkpt lat="42.67359242439905" lon="12.315005708545332"><ele>771.0</ele><time>2026-04-17T14:00:54.999Z</time></trkpt><trkpt lat="42.673571446704685" lon="12.315169683467078"><ele>771.0</ele><time>2026-04-17T14:00:56.999Z</time></trkpt><trkpt lat="42.673549741660416" lon="12.315304516044014"><ele>771.0</ele><time>2026-04-17T14:00:58.999Z</time></trkpt><trkpt lat="42.67351284815735" lon="12.3154195627072"><ele>771.0</ele><time>2026-04-17T14:01:00.999Z</time></trkpt><trkpt lat="42.673491803374674" lon="12.315529224587115"><ele>771.0</ele><time>2026-04-17T14:01:02.999Z</time></trkpt><trkpt lat="42.67346961764181" lon="12.315639198381598"><ele>771.0</ele><time>2026-04-17T14:01:04.999Z</time></trkpt><trkpt lat="42.67344675340541" lon="12.315746253832508"><ele>771.0</ele><time>2026-04-17T14:01:06.999Z</time></trkpt><trkpt lat="42.67341744244397" lon="12.315873634077903"><ele>771.0</ele><time>2026-04-17T14:01:09.999Z</time></trkpt><trkpt lat="42.67339333229942" lon="12.315971774293823"><ele>769.3333333333334</ele><time>2026-04-17T14:01:11.999Z</time></trkpt><trkpt lat="42.67337634773805" lon="12.316080613789763"><ele>767.6666666666666</ele><time>2026-04-17T14:01:13.999Z</time></trkpt><trkpt lat="42.673349662733806" lon="12.316198656614173"><ele>766.0</ele><time>2026-04-17T14:01:16.999Z</time></trkpt><trkpt lat="42.67330862962014" lon="12.316317672511738"><ele>764.3333333333333</ele><time>2026-04-17T14:01:18.999Z</time></trkpt><trkpt lat="42.67327445185785" lon="12.316438722027604"><ele>762.6666666666666</ele><time>2026-04-17T14:01:20.999Z</time></trkpt><trkpt lat="42.67324123241609" lon="12.316538229922177"><ele>761.0</ele><time>2026-04-17T14:01:22.999Z</time></trkpt><trkpt lat="42.673204637426274" lon="12.316627248971844"><ele>758.3333333333333</ele><time>2026-04-17T14:01:24.999Z</time></trkpt><trkpt lat="42.673162324289066" lon="12.316760366193549"><ele>755.6666666666666</ele><time>2026-04-17T14:01:27.999Z</time></trkpt><trkpt lat="42.67310986476189" lon="12.316838559012915"><ele>753.0</ele><time>2026-04-17T14:01:29.999Z</time></trkpt><trkpt lat="42.67307590465236" lon="12.316912206065586"><ele>750.3333333333334</ele><time>2026-04-17T14:01:31.999Z</time></trkpt><trkpt lat="42.673014941304615" lon="12.316996944662957"><ele>747.6666666666667</ele><time>2026-04-17T14:01:34.999Z</time></trkpt><trkpt lat="42.67294474953948" lon="12.317111183489317"><ele>745.0</ele><time>2026-04-17T14:01:36.999Z</time></trkpt><trkpt lat="42.67290281371869" lon="12.317265050653123"><ele>746.1666666666667</ele><time>2026-04-17T14:01:38.999Z</time></trkpt><trkpt lat="42.672854983277325" lon="12.317414994877213"><ele>747.3333333333334</ele><time>2026-04-17T14:01:40.999Z</time></trkpt><trkpt lat="42.67283761645079" lon="12.317509586743325"><ele>748.5</ele><time>2026-04-17T14:01:41.999Z</time></trkpt><trkpt lat="42.672819743685224" lon="12.317606934327168"><ele>749.6666666666666</ele><time>2026-04-17T14:01:42.999Z</time></trkpt><trkpt lat="42.67280252007696" lon="12.317700746157216"><ele>750.8333333333333</ele><time>2026-04-17T14:01:43.999Z</time></trkpt><trkpt lat="42.67279546602291" lon="12.317798429895904"><ele>752.0</ele><time>2026-04-17T14:01:44.999Z</time></trkpt><trkpt lat="42.67276308456131" lon="12.317924211031599"><ele>752.0</ele><time>2026-04-17T14:01:46.999Z</time></trkpt><trkpt lat="42.67272033412546" lon="12.318026803921748"><ele>752.0</ele><time>2026-04-17T14:01:48.999Z</time></trkpt><trkpt lat="42.67269533367539" lon="12.318107604909821"><ele>752.0</ele><time>2026-04-17T14:01:50.999Z</time></trkpt><trkpt lat="42.672664361968465" lon="12.318221701909849"><ele>752.0</ele><time>2026-04-17T14:01:53.999Z</time></trkpt><trkpt lat="42.67262013236128" lon="12.318328131278438"><ele>752.0</ele><time>2026-04-17T14:01:55.999Z</time></trkpt><trkpt lat="42.67255555858268" lon="12.318368916795075"><ele>752.0</ele><time>2026-04-17T14:01:57.999Z</time></trkpt><trkpt lat="42.67248417014188" lon="12.31840487573917"><ele>748.6666666666666</ele><time>2026-04-17T14:01:59.999Z</time></trkpt><trkpt lat="42.67241084842268" lon="12.318450880555558"><ele>745.3333333333333</ele><time>2026-04-17T14:02:01.999Z</time></trkpt><trkpt lat="42.672337134547355" lon="12.318485517144202"><ele>742.0</ele><time>2026-04-17T14:02:03.999Z</time></trkpt><trkpt lat="42.672269654233496" lon="12.31851790281684"><ele>738.6666666666666</ele><time>2026-04-17T14:02:05.999Z</time></trkpt><trkpt lat="42.67220667855691" lon="12.318585922537524"><ele>735.3333333333334</ele><time>2026-04-17T14:02:07.999Z</time></trkpt><trkpt lat="42.67214253694205" lon="12.318622841528919"><ele>732.0</ele><time>2026-04-17T14:02:09.999Z</time></trkpt><trkpt lat="42.67206415855304" lon="12.318640106264791"><ele>732.0</ele><time>2026-04-17T14:02:11.999Z</time></trkpt><trkpt lat="42.67199155455988" lon="12.318681076167003"><ele>732.0</ele><time>2026-04-17T14:02:13.999Z</time></trkpt><trkpt lat="42.67192696445924" lon="12.318731020658118"><ele>732.0</ele><time>2026-04-17T14:02:15.999Z</time></trkpt><trkpt lat="42.67185270469347" lon="12.318771054263669"><ele>732.0</ele><time>2026-04-17T14:02:17.999Z</time></trkpt><trkpt lat="42.671788089251834" lon="12.318835414897986"><ele>732.0</ele><time>2026-04-17T14:02:19.999Z</time></trkpt><trkpt lat="42.671736008258414" lon="12.318929666392638"><ele>732.0</ele><time>2026-04-17T14:02:21.999Z</time></trkpt><trkpt lat="42.671740627886216" lon="12.31904817579264"><ele>733.4000000000001</ele><time>2026-04-17T14:02:23.999Z</time></trkpt><trkpt lat="42.67178323847981" lon="12.319158886565267"><ele>734.8000000000001</ele><time>2026-04-17T14:02:25.999Z</time></trkpt><trkpt lat="42.67187400110502" lon="12.319223095002235"><ele>736.2</ele><time>2026-04-17T14:02:27.999Z</time></trkpt><trkpt lat="42.671985111962" lon="12.319266293701123"><ele>737.6</ele><time>2026-04-17T14:02:29.999Z</time></trkpt><trkpt lat="42.67208753568381" lon="12.319309539493206"><ele>739.0</ele><time>2026-04-17T14:02:31.999Z</time></trkpt><trkpt lat="42.672179258435364" lon="12.319368012997888"><ele>735.0</ele><time>2026-04-17T14:02:33.999Z</time></trkpt><trkpt lat="42.67226513622513" lon="12.319425953883126"><ele>731.0</ele><time>2026-04-17T14:02:35.999Z</time></trkpt><trkpt lat="42.67236098044161" lon="12.319485292004085"><ele>727.0</ele><time>2026-04-17T14:02:37.999Z</time></trkpt><trkpt lat="42.672461154339416" lon="12.319523943371419"><ele>723.0</ele><time>2026-04-17T14:02:39.999Z</time></trkpt><trkpt lat="42.67255740458347" lon="12.319594397093992"><ele>719.0</ele><time>2026-04-17T14:02:41.999Z</time></trkpt><trkpt lat="42.67264576303925" lon="12.319642311244813"><ele>719.0</ele><time>2026-04-17T14:02:43.999Z</time></trkpt><trkpt lat="42.672704773198724" lon="12.319674310690118"><ele>719.0</ele><time>2026-04-17T14:02:44.999Z</time></trkpt><trkpt lat="42.67282133452594" lon="12.319737180159898"><ele>719.0</ele><time>2026-04-17T14:02:46.999Z</time></trkpt><trkpt lat="42.672889203556046" lon="12.319773063514297"><ele>719.0</ele><time>2026-04-17T14:02:47.999Z</time></trkpt><trkpt lat="42.672952222376985" lon="12.319806382492086"><ele>719.0</ele><time>2026-04-17T14:02:48.999Z</time></trkpt><trkpt lat="42.67302172312614" lon="12.319843128562363"><ele>719.0</ele><time>2026-04-17T14:02:49.999Z</time></trkpt><trkpt lat="42.673095171362014" lon="12.31986717093951"><ele>717.0</ele><time>2026-04-17T14:02:50.999Z</time></trkpt><trkpt lat="42.673159516958194" lon="12.3199159821848"><ele>715.0</ele><time>2026-04-17T14:02:51.999Z</time></trkpt><trkpt lat="42.673224872760066" lon="12.319950536754137"><ele>713.0</ele><time>2026-04-17T14:02:52.999Z</time></trkpt><trkpt lat="42.67328412192487" lon="12.319985764012184"><ele>711.0</ele><time>2026-04-17T14:02:53.999Z</time></trkpt><trkpt lat="42.6733978497668" lon="12.320042703385408"><ele>709.0</ele><time>2026-04-17T14:02:55.999Z</time></trkpt><trkpt lat="42.673486730110184" lon="12.320151088116786"><ele>707.0</ele><time>2026-04-17T14:02:57.999Z</time></trkpt><trkpt lat="42.67355832866328" lon="12.320289171826968"><ele>707.0</ele><time>2026-04-17T14:02:59.998Z</time></trkpt><trkpt lat="42.67357643025775" lon="12.320469657272877"><ele>707.0</ele><time>2026-04-17T14:03:01.999Z</time></trkpt><trkpt lat="42.67356639136737" lon="12.320575436215005"><ele>707.0</ele><time>2026-04-17T14:03:02.999Z</time></trkpt><trkpt lat="42.673542791671395" lon="12.320663408810939"><ele>707.0</ele><time>2026-04-17T14:03:03.999Z</time></trkpt><trkpt lat="42.673518003034715" lon="12.320744453886515"><ele>707.0</ele><time>2026-04-17T14:03:04.999Z</time></trkpt><trkpt lat="42.673501518070964" lon="12.320828525589032"><ele>707.0</ele><time>2026-04-17T14:03:05.999Z</time></trkpt><trkpt lat="42.67347082252546" lon="12.320910520268393"><ele>708.2</ele><time>2026-04-17T14:03:06.999Z</time></trkpt><trkpt lat="42.67344393221316" lon="12.32105236071565"><ele>709.4000000000001</ele><time>2026-04-17T14:03:08.999Z</time></trkpt><trkpt lat="42.67343230716849" lon="12.321181233901262"><ele>710.5999999999999</ele><time>2026-04-17T14:03:10.999Z</time></trkpt><trkpt lat="42.67345126676384" lon="12.321285284764354"><ele>711.8</ele><time>2026-04-17T14:03:12.999Z</time></trkpt><trkpt lat="42.6735642324098" lon="12.3213415042815"><ele>713.0</ele><time>2026-04-17T14:03:14.999Z</time></trkpt><trkpt lat="42.67367856168473" lon="12.321297606289926"><ele>710.5</ele><time>2026-04-17T14:03:16.999Z</time></trkpt><trkpt lat="42.67378009799141" lon="12.321194545828158"><ele>708.0</ele><time>2026-04-17T14:03:18.999Z</time></trkpt><trkpt lat="42.67382950637805" lon="12.321134784479842"><ele>705.5</ele><time>2026-04-17T14:03:19.999Z</time></trkpt><trkpt lat="42.673876646090854" lon="12.321077614117913"><ele>703.0</ele><time>2026-04-17T14:03:20.999Z</time></trkpt><trkpt lat="42.67396231042682" lon="12.32099013324599"><ele>700.5</ele><time>2026-04-17T14:03:22.999Z</time></trkpt><trkpt lat="42.674029304452255" lon="12.320932622472785"><ele>698.0</ele><time>2026-04-17T14:03:24.999Z</time></trkpt><trkpt lat="42.67409133168681" lon="12.320885842676416"><ele>698.0</ele><time>2026-04-17T14:03:26.999Z</time></trkpt><trkpt lat="42.6741612900348" lon="12.320835460672228"><ele>698.0</ele><time>2026-04-17T14:03:28.999Z</time></trkpt><trkpt lat="42.674247854805245" lon="12.320772860431763"><ele>698.0</ele><time>2026-04-17T14:03:30.999Z</time></trkpt><trkpt lat="42.674343421884565" lon="12.320706980171538"><ele>698.0</ele><time>2026-04-17T14:03:32.999Z</time></trkpt><trkpt lat="42.67444846393531" lon="12.320622444755257"><ele>698.0</ele><time>2026-04-17T14:03:34.999Z</time></trkpt><trkpt lat="42.67452427265532" lon="12.320613986796547"><ele>698.0</ele><time>2026-04-17T14:03:35.999Z</time></trkpt><trkpt lat="42.674592615398566" lon="12.320596489008228"><ele>698.0</ele><time>2026-04-17T14:03:36.999Z</time></trkpt><trkpt lat="42.67466170885496" lon="12.32059261195314"><ele>698.0</ele><time>2026-04-17T14:03:37.999Z</time></trkpt><trkpt lat="42.674745750904435" lon="12.320585810373302"><ele>698.0</ele><time>2026-04-17T14:03:38.999Z</time></trkpt><trkpt lat="42.674829065446694" lon="12.320590884466206"><ele>698.0</ele><time>2026-04-17T14:03:39.999Z</time></trkpt><trkpt lat="42.67492300039533" lon="12.320598009514553"><ele>698.0</ele><time>2026-04-17T14:03:40.999Z</time></trkpt><trkpt lat="42.67502055627337" lon="12.320602447882495"><ele>698.0</ele><time>2026-04-17T14:03:41.999Z</time></trkpt><trkpt lat="42.675110045942795" lon="12.320595032206361"><ele>698.0</ele><time>2026-04-17T14:03:42.999Z</time></trkpt><trkpt lat="42.6751788463254" lon="12.32057673782891"><ele>698.0</ele><time>2026-04-17T14:03:43.999Z</time></trkpt><trkpt lat="42.67527312468167" lon="12.320546100877015"><ele>698.0</ele><time>2026-04-17T14:03:45.999Z</time></trkpt><trkpt lat="42.675389284672086" lon="12.320516679369206"><ele>698.0</ele><time>2026-04-17T14:03:47.999Z</time></trkpt><trkpt lat="42.67550863283157" lon="12.320519961598785"><ele>695.4</ele><time>2026-04-17T14:03:49.999Z</time></trkpt><trkpt lat="42.675619783150296" lon="12.320535030741928"><ele>692.8</ele><time>2026-04-17T14:03:51.999Z</time></trkpt><trkpt lat="42.67571195065879" lon="12.320583521960264"><ele>690.2</ele><time>2026-04-17T14:03:53.999Z</time></trkpt><trkpt lat="42.67578934012138" lon="12.320641648327653"><ele>687.6</ele><time>2026-04-17T14:03:55.999Z</time></trkpt><trkpt lat="42.675860396590195" lon="12.320734095256613"><ele>685.0</ele><time>2026-04-17T14:03:57.999Z</time></trkpt><trkpt lat="42.67594607190052" lon="12.320801065855129"><ele>685.0</ele><time>2026-04-17T14:03:59.999Z</time></trkpt><trkpt lat="42.6760492598117" lon="12.320774899850035"><ele>685.0</ele><time>2026-04-17T14:04:01.999Z</time></trkpt><trkpt lat="42.676135526258925" lon="12.320782395905084"><ele>685.0</ele><time>2026-04-17T14:04:03.999Z</time></trkpt><trkpt lat="42.67621604172408" lon="12.320735743780434"><ele>685.0</ele><time>2026-04-17T14:04:05.999Z</time></trkpt><trkpt lat="42.67634349700065" lon="12.320729150547171"><ele>685.0</ele><time>2026-04-17T14:04:07.999Z</time></trkpt><trkpt lat="42.67641515709279" lon="12.320784058326591"><ele>680.4</ele><time>2026-04-17T14:04:08.999Z</time></trkpt><trkpt lat="42.67650935399047" lon="12.32082541037616"><ele>675.8</ele><time>2026-04-17T14:04:09.999Z</time></trkpt><trkpt lat="42.67658993635255" lon="12.320896282096355"><ele>671.2</ele><time>2026-04-17T14:04:10.999Z</time></trkpt><trkpt lat="42.6766686481191" lon="12.320975150852226"><ele>666.6</ele><time>2026-04-17T14:04:11.999Z</time></trkpt><trkpt lat="42.67671610986164" lon="12.321051501324487"><ele>662.0</ele><time>2026-04-17T14:04:12.999Z</time></trkpt><trkpt lat="42.676761356287926" lon="12.321172419602703"><ele>662.0</ele><time>2026-04-17T14:04:13.999Z</time></trkpt><trkpt lat="42.67678371548328" lon="12.321302288411145"><ele>662.0</ele><time>2026-04-17T14:04:14.999Z</time></trkpt><trkpt lat="42.67679779413802" lon="12.32143923846249"><ele>662.0</ele><time>2026-04-17T14:04:15.999Z</time></trkpt><trkpt lat="42.676798801467996" lon="12.321577102087906"><ele>662.0</ele><time>2026-04-17T14:04:16.999Z</time></trkpt><trkpt lat="42.67683779529893" lon="12.321713350442353"><ele>662.0</ele><time>2026-04-17T14:04:17.999Z</time></trkpt><trkpt lat="42.67691329959813" lon="12.321838842711154"><ele>659.2</ele><time>2026-04-17T14:04:18.999Z</time></trkpt><trkpt lat="42.67697952179881" lon="12.321912984449428"><ele>656.4000000000001</ele><time>2026-04-17T14:04:19.999Z</time></trkpt><trkpt lat="42.67707244199635" lon="12.321942546082584"><ele>653.5999999999999</ele><time>2026-04-17T14:04:20.999Z</time></trkpt><trkpt lat="42.67716247754643" lon="12.32199063647993"><ele>650.8</ele><time>2026-04-17T14:04:21.999Z</time></trkpt><trkpt lat="42.677263377112766" lon="12.322048588222897"><ele>648.0</ele><time>2026-04-17T14:04:22.999Z</time></trkpt><trkpt lat="42.677340961945646" lon="12.322094201501672"><ele>648.0</ele><time>2026-04-17T14:04:23.999Z</time></trkpt><trkpt lat="42.67740769645323" lon="12.322108913080564"><ele>648.0</ele><time>2026-04-17T14:04:24.999Z</time></trkpt><trkpt lat="42.67746426850494" lon="12.32215124603781"><ele>648.0</ele><time>2026-04-17T14:04:25.999Z</time></trkpt><trkpt lat="42.677510769911315" lon="12.322213970090687"><ele>648.0</ele><time>2026-04-17T14:04:26.999Z</time></trkpt><trkpt lat="42.67756928847092" lon="12.322353022461375"><ele>648.0</ele><time>2026-04-17T14:04:28.999Z</time></trkpt><trkpt lat="42.677568448001665" lon="12.322517044693795"><ele>648.0</ele><time>2026-04-17T14:04:30.999Z</time></trkpt><trkpt lat="42.67754437396496" lon="12.322680772326695"><ele>649.75</ele><time>2026-04-17T14:04:32.999Z</time></trkpt><trkpt lat="42.677527128885146" lon="12.322870833304004"><ele>651.5</ele><time>2026-04-17T14:04:34.999Z</time></trkpt><trkpt lat="42.67751524495138" lon="12.322996962828688"><ele>653.25</ele><time>2026-04-17T14:04:35.999Z</time></trkpt><trkpt lat="42.67754074886524" lon="12.32315184029652"><ele>655.0</ele><time>2026-04-17T14:04:36.999Z</time></trkpt><trkpt lat="42.67756300295134" lon="12.32329956370378"><ele>655.0</ele><time>2026-04-17T14:04:37.999Z</time></trkpt><trkpt lat="42.677576865471565" lon="12.323432497969367"><ele>655.0</ele><time>2026-04-17T14:04:38.999Z</time></trkpt><trkpt lat="42.677569662467185" lon="12.323588645563966"><ele>655.0</ele><time>2026-04-17T14:04:39.999Z</time></trkpt><trkpt lat="42.67755040929773" lon="12.323710540997627"><ele>655.0</ele><time>2026-04-17T14:04:40.999Z</time></trkpt><trkpt lat="42.6775046911938" lon="12.3238649262275"><ele>655.0</ele><time>2026-04-17T14:04:41.999Z</time></trkpt><trkpt lat="42.677444334986625" lon="12.32403654755286"><ele>652.75</ele><time>2026-04-17T14:04:42.999Z</time></trkpt><trkpt lat="42.67738906754036" lon="12.324215696601208"><ele>650.5</ele><time>2026-04-17T14:04:43.999Z</time></trkpt><trkpt lat="42.6773207802956" lon="12.324394867732225"><ele>648.25</ele><time>2026-04-17T14:04:44.999Z</time></trkpt><trkpt lat="42.67725885704455" lon="12.324566206037666"><ele>646.0</ele><time>2026-04-17T14:04:45.999Z</time></trkpt><trkpt lat="42.677197360735654" lon="12.324749208482979"><ele>643.8</ele><time>2026-04-17T14:04:46.999Z</time></trkpt><trkpt lat="42.67714788291802" lon="12.324894916243748"><ele>641.5999999999999</ele><time>2026-04-17T14:04:47.999Z</time></trkpt><trkpt lat="42.677108855942905" lon="12.325043130297027"><ele>639.4</ele><time>2026-04-17T14:04:48.999Z</time></trkpt><trkpt lat="42.67710807974421" lon="12.325181784531267"><ele>637.2</ele><time>2026-04-17T14:04:49.999Z</time></trkpt><trkpt lat="42.67713047419752" lon="12.325319340669257"><ele>635.0</ele><time>2026-04-17T14:04:50.999Z</time></trkpt><trkpt lat="42.67718695301517" lon="12.32548210893887"><ele>633.4</ele><time>2026-04-17T14:04:51.999Z</time></trkpt><trkpt lat="42.67720798505817" lon="12.32562485218436"><ele>631.8</ele><time>2026-04-17T14:04:52.999Z</time></trkpt><trkpt lat="42.67719235310144" lon="12.325735312300191"><ele>630.2</ele><time>2026-04-17T14:04:53.999Z</time></trkpt><trkpt lat="42.677156776088594" lon="12.325844300621132"><ele>628.6</ele><time>2026-04-17T14:04:54.999Z</time></trkpt><trkpt lat="42.67711371313792" lon="12.325957886399143"><ele>627.0</ele><time>2026-04-17T14:04:55.999Z</time></trkpt><trkpt lat="42.67702421703208" lon="12.326095103884656"><ele>631.3333333333334</ele><time>2026-04-17T14:04:56.999Z</time></trkpt><trkpt lat="42.67690989904541" lon="12.326242828504876"><ele>635.6666666666667</ele><time>2026-04-17T14:04:57.999Z</time></trkpt><trkpt lat="42.67681348821328" lon="12.326428551759403"><ele>640.0</ele><time>2026-04-17T14:04:58.999Z</time></trkpt><trkpt lat="42.67672182821417" lon="12.326586157892566"><ele>640.0</ele><time>2026-04-17T14:04:59.999Z</time></trkpt><trkpt lat="42.676657394355125" lon="12.326779045292747"><ele>640.0</ele><time>2026-04-17T14:05:00.999Z</time></trkpt><trkpt lat="42.67657092814392" lon="12.326961465724779"><ele>640.0</ele><time>2026-04-17T14:05:01.999Z</time></trkpt><trkpt lat="42.67651109766426" lon="12.327101069190538"><ele>640.0</ele><time>2026-04-17T14:05:02.999Z</time></trkpt><trkpt lat="42.6764666833658" lon="12.32720470182272"><ele>640.75</ele><time>2026-04-17T14:05:03.999Z</time></trkpt><trkpt lat="42.67641111980502" lon="12.32730429318948"><ele>641.5</ele><time>2026-04-17T14:05:04.999Z</time></trkpt><trkpt lat="42.676293670055564" lon="12.327370529235756"><ele>642.25</ele><time>2026-04-17T14:05:05.998Z</time></trkpt><trkpt lat="42.67614455313247" lon="12.327436822719454"><ele>643.0</ele><time>2026-04-17T14:05:06.998Z</time></trkpt><trkpt lat="42.67599862476832" lon="12.327477319838911"><ele>643.0</ele><time>2026-04-17T14:05:07.998Z</time></trkpt><trkpt lat="42.67589593477756" lon="12.32750595020605"><ele>643.0</ele><time>2026-04-17T14:05:08.998Z</time></trkpt><trkpt lat="42.67583324913687" lon="12.327563158307335"><ele>643.0</ele><time>2026-04-17T14:05:09.998Z</time></trkpt><trkpt lat="42.675782625266685" lon="12.327644451200413"><ele>643.0</ele><time>2026-04-17T14:05:10.998Z</time></trkpt><trkpt lat="42.675772549810766" lon="12.327757930762015"><ele>643.0</ele><time>2026-04-17T14:05:11.998Z</time></trkpt><trkpt lat="42.6757938253796" lon="12.327883668966727"><ele>643.0</ele><time>2026-04-17T14:05:12.998Z</time></trkpt><trkpt lat="42.675832017110906" lon="12.328037249989492"><ele>641.4</ele><time>2026-04-17T14:05:13.998Z</time></trkpt><trkpt lat="42.67584947137907" lon="12.32818833737901"><ele>639.8</ele><time>2026-04-17T14:05:14.998Z</time></trkpt><trkpt lat="42.675826504004974" lon="12.328328338421755"><ele>638.2</ele><time>2026-04-17T14:05:15.999Z</time></trkpt><trkpt lat="42.67578882686865" lon="12.328445273721869"><ele>636.6</ele><time>2026-04-17T14:05:16.999Z</time></trkpt><trkpt lat="42.67576149948119" lon="12.328565487051893"><ele>635.0</ele><time>2026-04-17T14:05:17.999Z</time></trkpt><trkpt lat="42.67571056062765" lon="12.32869217707829"><ele>635.0</ele><time>2026-04-17T14:05:18.999Z</time></trkpt><trkpt lat="42.67563475962819" lon="12.328817576554995"><ele>635.0</ele><time>2026-04-17T14:05:19.999Z</time></trkpt><trkpt lat="42.67554788679223" lon="12.328914343353706"><ele>635.0</ele><time>2026-04-17T14:05:20.999Z</time></trkpt><trkpt lat="42.675443651555945" lon="12.328980149493615"><ele>635.0</ele><time>2026-04-17T14:05:21.999Z</time></trkpt><trkpt lat="42.67532768310889" lon="12.329046089900821"><ele>635.6</ele><time>2026-04-17T14:05:22.999Z</time></trkpt><trkpt lat="42.67523753304647" lon="12.329108671602322"><ele>636.2</ele><time>2026-04-17T14:05:23.999Z</time></trkpt><trkpt lat="42.67514502211452" lon="12.329193722254518"><ele>636.8</ele><time>2026-04-17T14:05:24.999Z</time></trkpt><trkpt lat="42.67508014284512" lon="12.329292651407606"><ele>637.4</ele><time>2026-04-17T14:05:25.999Z</time></trkpt><trkpt lat="42.675029193853725" lon="12.329380704375799"><ele>638.0</ele><time>2026-04-17T14:05:26.999Z</time></trkpt><trkpt lat="42.67500409437966" lon="12.329510138401517"><ele>638.0</ele><time>2026-04-17T14:05:27.999Z</time></trkpt><trkpt lat="42.67499850698935" lon="12.329666967021662"><ele>638.0</ele><time>2026-04-17T14:05:28.999Z</time></trkpt><trkpt lat="42.67498695679155" lon="12.32981820099478"><ele>638.0</ele><time>2026-04-17T14:05:29.999Z</time></trkpt><trkpt lat="42.67496673609901" lon="12.329948105128773"><ele>638.0</ele><time>2026-04-17T14:05:30.999Z</time></trkpt><trkpt lat="42.674927225730904" lon="12.330069008022763"><ele>638.0</ele><time>2026-04-17T14:05:31.999Z</time></trkpt><trkpt lat="42.67489003674424" lon="12.330193065547771"><ele>636.4</ele><time>2026-04-17T14:05:32.999Z</time></trkpt><trkpt lat="42.67482741168301" lon="12.330301923169474"><ele>634.8</ele><time>2026-04-17T14:05:33.999Z</time></trkpt><trkpt lat="42.67476031495402" lon="12.330406316230583"><ele>633.2</ele><time>2026-04-17T14:05:34.999Z</time></trkpt><trkpt lat="42.67467330520259" lon="12.330482854023272"><ele>631.6</ele><time>2026-04-17T14:05:35.999Z</time></trkpt><trkpt lat="42.67457215912622" lon="12.330544521145255"><ele>630.0</ele><time>2026-04-17T14:05:36.999Z</time></trkpt><trkpt lat="42.67445556389908" lon="12.330602724524118"><ele>631.5</ele><time>2026-04-17T14:05:37.999Z</time></trkpt><trkpt lat="42.67432665044063" lon="12.330650377854914"><ele>633.0</ele><time>2026-04-17T14:05:38.999Z</time></trkpt><trkpt lat="42.67422140820314" lon="12.330713625846757"><ele>634.5</ele><time>2026-04-17T14:05:39.999Z</time></trkpt><trkpt lat="42.67415100090413" lon="12.33081498746365"><ele>636.0</ele><time>2026-04-17T14:05:40.999Z</time></trkpt><trkpt lat="42.674103434672496" lon="12.330951238526637"><ele>636.0</ele><time>2026-04-17T14:05:41.999Z</time></trkpt><trkpt lat="42.67406658862071" lon="12.331118603098378"><ele>636.0</ele><time>2026-04-17T14:05:42.999Z</time></trkpt><trkpt lat="42.674035326449534" lon="12.331304923562412"><ele>636.0</ele><time>2026-04-17T14:05:43.999Z</time></trkpt><trkpt lat="42.67399224068378" lon="12.331454043509574"><ele>636.0</ele><time>2026-04-17T14:05:44.999Z</time></trkpt><trkpt lat="42.67392643334817" lon="12.331587323346778"><ele>636.5</ele><time>2026-04-17T14:05:45.999Z</time></trkpt><trkpt lat="42.67383101323806" lon="12.3317034968011"><ele>637.0</ele><time>2026-04-17T14:05:46.999Z</time></trkpt><trkpt lat="42.6737029514629" lon="12.331815997706984"><ele>637.5</ele><time>2026-04-17T14:05:47.999Z</time></trkpt><trkpt lat="42.67358901890966" lon="12.331915912929784"><ele>638.0</ele><time>2026-04-17T14:05:48.999Z</time></trkpt><trkpt lat="42.67346934216705" lon="12.332029758648769"><ele>638.0</ele><time>2026-04-17T14:05:49.999Z</time></trkpt><trkpt lat="42.67333745552145" lon="12.332151859102563"><ele>638.0</ele><time>2026-04-17T14:05:50.999Z</time></trkpt><trkpt lat="42.67321358656798" lon="12.332233289828487"><ele>638.0</ele><time>2026-04-17T14:05:51.999Z</time></trkpt><trkpt lat="42.673086901108405" lon="12.33229891136467"><ele>638.0</ele><time>2026-04-17T14:05:52.999Z</time></trkpt><trkpt lat="42.67293411753666" lon="12.33237672642428"><ele>637.0</ele><time>2026-04-17T14:05:53.999Z</time></trkpt><trkpt lat="42.67275220601184" lon="12.332469365098259"><ele>636.0</ele><time>2026-04-17T14:05:54.999Z</time></trkpt><trkpt lat="42.67259493840494" lon="12.332569286892026"><ele>635.0</ele><time>2026-04-17T14:05:55.999Z</time></trkpt><trkpt lat="42.67244946107331" lon="12.33265867676976"><ele>635.0</ele><time>2026-04-17T14:05:56.999Z</time></trkpt><trkpt lat="42.67231672220018" lon="12.332741928228023"><ele>635.0</ele><time>2026-04-17T14:05:57.999Z</time></trkpt><trkpt lat="42.67218024864213" lon="12.332867609280632"><ele>635.0</ele><time>2026-04-17T14:05:58.999Z</time></trkpt><trkpt lat="42.67204254748338" lon="12.333025066258557"><ele>633.3333333333333</ele><time>2026-04-17T14:05:59.999Z</time></trkpt><trkpt lat="42.67190738776641" lon="12.333223681788027"><ele>631.6666666666666</ele><time>2026-04-17T14:06:00.999Z</time></trkpt><trkpt lat="42.671755701766855" lon="12.33347325858062"><ele>630.0</ele><time>2026-04-17T14:06:01.999Z</time></trkpt><trkpt lat="42.67160809449838" lon="12.333721150074366"><ele>630.6666666666666</ele><time>2026-04-17T14:06:02.999Z</time></trkpt><trkpt lat="42.67147379432328" lon="12.33393175092406"><ele>631.3333333333333</ele><time>2026-04-17T14:06:03.999Z</time></trkpt><trkpt lat="42.67135470402251" lon="12.33412401182237"><ele>632.0</ele><time>2026-04-17T14:06:04.999Z</time></trkpt><trkpt lat="42.67124951798032" lon="12.334295980036869"><ele>632.0</ele><time>2026-04-17T14:06:05.999Z</time></trkpt><trkpt lat="42.67114835610106" lon="12.334472429660833"><ele>632.0</ele><time>2026-04-17T14:06:06.999Z</time></trkpt><trkpt lat="42.671041531418844" lon="12.334639343274922"><ele>632.0</ele><time>2026-04-17T14:06:07.999Z</time></trkpt><trkpt lat="42.67090075771391" lon="12.334795170225393"><ele>626.3333333333333</ele><time>2026-04-17T14:06:08.999Z</time></trkpt><trkpt lat="42.670741847787234" lon="12.334935954126596"><ele>620.6666666666666</ele><time>2026-04-17T14:06:09.999Z</time></trkpt><trkpt lat="42.67060705051127" lon="12.335051950040317"><ele>615.0</ele><time>2026-04-17T14:06:10.999Z</time></trkpt><trkpt lat="42.67048883561177" lon="12.335174077490569"><ele>615.0</ele><time>2026-04-17T14:06:11.999Z</time></trkpt><trkpt lat="42.670374469618906" lon="12.335317509291317"><ele>615.0</ele><time>2026-04-17T14:06:12.999Z</time></trkpt><trkpt lat="42.67026533980036" lon="12.335458170628995"><ele>615.0</ele><time>2026-04-17T14:06:13.999Z</time></trkpt><trkpt lat="42.67018518722426" lon="12.335566967441622"><ele>615.0</ele><time>2026-04-17T14:06:14.999Z</time></trkpt><trkpt lat="42.67008932008426" lon="12.335675462565135"><ele>611.75</ele><time>2026-04-17T14:06:15.999Z</time></trkpt><trkpt lat="42.66998762393696" lon="12.335817315136644"><ele>608.5</ele><time>2026-04-17T14:06:16.999Z</time></trkpt><trkpt lat="42.66988787007432" lon="12.335938885094938"><ele>605.25</ele><time>2026-04-17T14:06:17.999Z</time></trkpt><trkpt lat="42.66980229952022" lon="12.336045089770987"><ele>602.0</ele><time>2026-04-17T14:06:18.999Z</time></trkpt><trkpt lat="42.66972585081696" lon="12.336140548067625"><ele>602.0</ele><time>2026-04-17T14:06:19.999Z</time></trkpt><trkpt lat="42.669658092723765" lon="12.336234017882934"><ele>602.0</ele><time>2026-04-17T14:06:20.999Z</time></trkpt><trkpt lat="42.66958641555069" lon="12.336343368967606"><ele>602.0</ele><time>2026-04-17T14:06:21.999Z</time></trkpt><trkpt lat="42.66950704922073" lon="12.33645443052923"><ele>602.0</ele><time>2026-04-17T14:06:22.999Z</time></trkpt><trkpt lat="42.66943806507825" lon="12.336546696621566"><ele>602.0</ele><time>2026-04-17T14:06:23.999Z</time></trkpt><trkpt lat="42.66939112287" lon="12.33664386030455"><ele>601.5</ele><time>2026-04-17T14:06:24.999Z</time></trkpt><trkpt lat="42.669373646593975" lon="12.336747574911078"><ele>601.0</ele><time>2026-04-17T14:06:25.999Z</time></trkpt><trkpt lat="42.669399741408334" lon="12.336843443495"><ele>600.5</ele><time>2026-04-17T14:06:26.999Z</time></trkpt><trkpt lat="42.669466506691954" lon="12.336929605530168"><ele>600.0</ele><time>2026-04-17T14:06:27.999Z</time></trkpt><trkpt lat="42.669545134291276" lon="12.336989207073877"><ele>599.5</ele><time>2026-04-17T14:06:29.999Z</time></trkpt><trkpt lat="42.66949670276963" lon="12.337048065724613"><ele>599.0</ele><time>2026-04-17T14:06:32.999Z</time></trkpt><trkpt lat="42.66936402205166" lon="12.336958039916816"><ele>596.5</ele><time>2026-04-17T14:06:34.999Z</time></trkpt><trkpt lat="42.66928509422315" lon="12.336874784320193"><ele>594.0</ele><time>2026-04-17T14:06:36.999Z</time></trkpt><trkpt lat="42.66921960187115" lon="12.33670855040333"><ele>591.5</ele><time>2026-04-17T14:06:38.999Z</time></trkpt><trkpt lat="42.66916959242404" lon="12.336561362094557"><ele>589.0</ele><time>2026-04-17T14:06:39.999Z</time></trkpt><trkpt lat="42.6691114248122" lon="12.336367759332068"><ele>588.6666666666667</ele><time>2026-04-17T14:06:40.999Z</time></trkpt><trkpt lat="42.669024381043215" lon="12.33615923448911"><ele>588.3333333333334</ele><time>2026-04-17T14:06:41.999Z</time></trkpt><trkpt lat="42.66891352672694" lon="12.335957741687421"><ele>588.0</ele><time>2026-04-17T14:06:42.999Z</time></trkpt><trkpt lat="42.66879735676359" lon="12.33583610423459"><ele>588.0</ele><time>2026-04-17T14:06:43.999Z</time></trkpt><trkpt lat="42.66864813206475" lon="12.33575175884775"><ele>588.0</ele><time>2026-04-17T14:06:44.999Z</time></trkpt><trkpt lat="42.66845287867906" lon="12.335700153054574"><ele>588.0</ele><time>2026-04-17T14:06:45.999Z</time></trkpt><trkpt lat="42.66822865086212" lon="12.335692746536008"><ele>587.25</ele><time>2026-04-17T14:06:46.999Z</time></trkpt><trkpt lat="42.66804438649883" lon="12.335694791362762"><ele>586.5</ele><time>2026-04-17T14:06:47.999Z</time></trkpt><trkpt lat="42.66790327315661" lon="12.335689704559638"><ele>585.75</ele><time>2026-04-17T14:06:48.999Z</time></trkpt><trkpt lat="42.667786131008135" lon="12.335678290043163"><ele>585.0</ele><time>2026-04-17T14:06:49.999Z</time></trkpt><trkpt lat="42.667682867415074" lon="12.335676500193882"><ele>585.0</ele><time>2026-04-17T14:06:50.999Z</time></trkpt><trkpt lat="42.667593269530926" lon="12.335678570628984"><ele>585.0</ele><time>2026-04-17T14:06:51.999Z</time></trkpt><trkpt lat="42.66751317951398" lon="12.335674766597682"><ele>585.0</ele><time>2026-04-17T14:06:52.999Z</time></trkpt><trkpt lat="42.66744269372264" lon="12.335676839068476"><ele>585.0</ele><time>2026-04-17T14:06:53.999Z</time></trkpt><trkpt lat="42.667363736068395" lon="12.33567232009024"><ele>585.0</ele><time>2026-04-17T14:06:54.999Z</time></trkpt><trkpt lat="42.667243216930004" lon="12.33566543212554"><ele>585.0</ele><time>2026-04-17T14:06:56.999Z</time></trkpt><trkpt lat="42.66714310177975" lon="12.335651669256716"><ele>585.0</ele><time>2026-04-17T14:06:58.999Z</time></trkpt><trkpt lat="42.66703526526734" lon="12.335635388025636"><ele>585.0</ele><time>2026-04-17T14:07:00.999Z</time></trkpt><trkpt lat="42.66692826096694" lon="12.335637629642482"><ele>585.0</ele><time>2026-04-17T14:07:02.999Z</time></trkpt><trkpt lat="42.66681306788119" lon="12.335630943227741"><ele>585.0</ele><time>2026-04-17T14:07:04.999Z</time></trkpt><trkpt lat="42.66671581302028" lon="12.335618451844505"><ele>585.0</ele><time>2026-04-17T14:07:06.999Z</time></trkpt><trkpt lat="42.66663756686386" lon="12.335608035235717"><ele>584.6666666666666</ele><time>2026-04-17T14:07:08.999Z</time></trkpt><trkpt lat="42.666550773085525" lon="12.335599653415182"><ele>584.3333333333334</ele><time>2026-04-17T14:07:11.999Z</time></trkpt><trkpt lat="42.66645739825287" lon="12.335590234973987"><ele>584.0</ele><time>2026-04-17T14:07:14.999Z</time></trkpt><trkpt lat="42.66639225253865" lon="12.335573130179412"><ele>583.6666666666667</ele><time>2026-04-17T14:07:15.999Z</time></trkpt><trkpt lat="42.66630422773983" lon="12.3355634576817"><ele>583.3333333333334</ele><time>2026-04-17T14:07:16.999Z</time></trkpt><trkpt lat="42.66619814737668" lon="12.335555875733125"><ele>583.0</ele><time>2026-04-17T14:07:17.999Z</time></trkpt><trkpt lat="42.66610859193275" lon="12.335533501360295"><ele>584.5</ele><time>2026-04-17T14:07:18.999Z</time></trkpt><trkpt lat="42.66603393877691" lon="12.335515626853782"><ele>586.0</ele><time>2026-04-17T14:07:19.999Z</time></trkpt><trkpt lat="42.66596556616643" lon="12.335497564224044"><ele>587.5</ele><time>2026-04-17T14:07:20.999Z</time></trkpt><trkpt lat="42.66590422972747" lon="12.335477528300258"><ele>589.0</ele><time>2026-04-17T14:07:21.999Z</time></trkpt><trkpt lat="42.66582061858991" lon="12.335453374019513"><ele>590.5</ele><time>2026-04-17T14:07:23.999Z</time></trkpt><trkpt lat="42.66571905822357" lon="12.33542909505334"><ele>592.0</ele><time>2026-04-17T14:09:04Z</time></trkpt><trkpt lat="42.6656250523784" lon="12.335439700609191"><ele>592.0</ele><time>2026-04-17T14:09:06Z</time></trkpt><trkpt lat="42.66555929708361" lon="12.335453637369634"><ele>592.0</ele><time>2026-04-17T14:09:07Z</time></trkpt><trkpt lat="42.66549688734732" lon="12.335492695422216"><ele>592.0</ele><time>2026-04-17T14:09:08Z</time></trkpt><trkpt lat="42.66542898957534" lon="12.335542960276474"><ele>592.0</ele><time>2026-04-17T14:09:09Z</time></trkpt><trkpt lat="42.66535843008405" lon="12.335609997072952"><ele>592.0</ele><time>2026-04-17T14:09:10Z</time></trkpt><trkpt lat="42.66528789748525" lon="12.335696891182447"><ele>592.0</ele><time>2026-04-17T14:09:11Z</time></trkpt><trkpt lat="42.66521604726817" lon="12.33578253455923"><ele>590.4</ele><time>2026-04-17T14:09:12Z</time></trkpt><trkpt lat="42.66513240883262" lon="12.335871784339997"><ele>588.8000000000001</ele><time>2026-04-17T14:09:13Z</time></trkpt><trkpt lat="42.66503611779497" lon="12.335950151420311"><ele>587.2</ele><time>2026-04-17T14:09:14Z</time></trkpt><trkpt lat="42.66493157495108" lon="12.33601348229932"><ele>585.6</ele><time>2026-04-17T14:09:15Z</time></trkpt><trkpt lat="42.66482243653279" lon="12.33606027917358"><ele>584.0</ele><time>2026-04-17T14:09:16Z</time></trkpt><trkpt lat="42.66471326204555" lon="12.336089508842234"><ele>584.0</ele><time>2026-04-17T14:09:17Z</time></trkpt><trkpt lat="42.66460483914534" lon="12.336106210149968"><ele>584.0</ele><time>2026-04-17T14:09:18Z</time></trkpt><trkpt lat="42.664494408213436" lon="12.336122698302429"><ele>584.0</ele><time>2026-04-17T14:09:19Z</time></trkpt><trkpt lat="42.664383377286384" lon="12.336140328918782"><ele>584.0</ele><time>2026-04-17T14:09:20Z</time></trkpt><trkpt lat="42.66426955441727" lon="12.336157969110138"><ele>584.0</ele><time>2026-04-17T14:09:21Z</time></trkpt><trkpt lat="42.66415525310882" lon="12.336175874921441"><ele>585.4</ele><time>2026-04-17T14:09:22Z</time></trkpt><trkpt lat="42.66404042662402" lon="12.336189548665033"><ele>586.8</ele><time>2026-04-17T14:09:23Z</time></trkpt><trkpt lat="42.66393054671093" lon="12.336204510408518"><ele>588.2</ele><time>2026-04-17T14:09:24Z</time></trkpt><trkpt lat="42.66382159942096" lon="12.336224248443516"><ele>589.6</ele><time>2026-04-17T14:09:25Z</time></trkpt><trkpt lat="42.663715326644414" lon="12.336243623799788"><ele>591.0</ele><time>2026-04-17T14:09:26Z</time></trkpt><trkpt lat="42.663612996933644" lon="12.336256971447696"><ele>592.75</ele><time>2026-04-17T14:09:27Z</time></trkpt><trkpt lat="42.66350978544145" lon="12.336272023240085"><ele>594.5</ele><time>2026-04-17T14:09:28Z</time></trkpt><trkpt lat="42.66340195726277" lon="12.336288603032823"><ele>596.25</ele><time>2026-04-17T14:09:29Z</time></trkpt><trkpt lat="42.663286878976905" lon="12.336303351175024"><ele>598.0</ele><time>2026-04-17T14:09:30Z</time></trkpt><trkpt lat="42.66316032255918" lon="12.336326840817797"><ele>598.0</ele><time>2026-04-17T14:09:31Z</time></trkpt><trkpt lat="42.66304922104009" lon="12.336355484837897"><ele>598.0</ele><time>2026-04-17T14:09:32Z</time></trkpt><trkpt lat="42.662934564065715" lon="12.336403476460355"><ele>598.0</ele><time>2026-04-17T14:09:33Z</time></trkpt><trkpt lat="42.66282976081476" lon="12.336466678565495"><ele>598.0</ele><time>2026-04-17T14:09:34Z</time></trkpt><trkpt lat="42.66272853994946" lon="12.336549293277356"><ele>593.0</ele><time>2026-04-17T14:09:35Z</time></trkpt><trkpt lat="42.66263999468366" lon="12.336669407704829"><ele>588.0</ele><time>2026-04-17T14:09:36Z</time></trkpt><trkpt lat="42.66256283979433" lon="12.336804370722543"><ele>583.0</ele><time>2026-04-17T14:09:37Z</time></trkpt><trkpt lat="42.66250512713806" lon="12.336967045768802"><ele>578.0</ele><time>2026-04-17T14:09:38Z</time></trkpt><trkpt lat="42.66247323451717" lon="12.337156911408714"><ele>574.5</ele><time>2026-04-17T14:09:39Z</time></trkpt><trkpt lat="42.66244866648937" lon="12.337342327912273"><ele>571.0</ele><time>2026-04-17T14:09:40Z</time></trkpt><trkpt lat="42.662423213832504" lon="12.337518113991363"><ele>567.5</ele><time>2026-04-17T14:09:41Z</time></trkpt><trkpt lat="42.662392362422445" lon="12.3376893869825"><ele>564.0</ele><time>2026-04-17T14:09:42Z</time></trkpt><trkpt lat="42.66235379321973" lon="12.337857760845957"><ele>564.0</ele><time>2026-04-17T14:09:43Z</time></trkpt><trkpt lat="42.662292150693254" lon="12.33801643354588"><ele>564.0</ele><time>2026-04-17T14:09:44Z</time></trkpt><trkpt lat="42.66219893085449" lon="12.33814532979638"><ele>564.0</ele><time>2026-04-17T14:09:45Z</time></trkpt><trkpt lat="42.66208343115579" lon="12.338213988741101"><ele>564.0</ele><time>2026-04-17T14:09:46Z</time></trkpt><trkpt lat="42.66196926607921" lon="12.33822873640761"><ele>564.25</ele><time>2026-04-17T14:09:47Z</time></trkpt><trkpt lat="42.661856474103715" lon="12.338193699047123"><ele>564.5</ele><time>2026-04-17T14:09:48Z</time></trkpt><trkpt lat="42.66174077694262" lon="12.338112195352416"><ele>564.75</ele><time>2026-04-17T14:09:49Z</time></trkpt><trkpt lat="42.66163991486191" lon="12.338006066371138"><ele>565.0</ele><time>2026-04-17T14:09:50Z</time></trkpt><trkpt lat="42.661550401783416" lon="12.337896260319843"><ele>565.0</ele><time>2026-04-17T14:09:51Z</time></trkpt><trkpt lat="42.661452608178664" lon="12.337804128281569"><ele>565.0</ele><time>2026-04-17T14:09:52Z</time></trkpt><trkpt lat="42.661345115021824" lon="12.33773778940611"><ele>565.0</ele><time>2026-04-17T14:09:53Z</time></trkpt><trkpt lat="42.66123645591045" lon="12.337702950925928"><ele>565.0</ele><time>2026-04-17T14:09:54Z</time></trkpt><trkpt lat="42.6611248854644" lon="12.33771744023565"><ele>564.5</ele><time>2026-04-17T14:09:55Z</time></trkpt><trkpt lat="42.66101380577709" lon="12.337770839317733"><ele>564.0</ele><time>2026-04-17T14:09:56Z</time></trkpt><trkpt lat="42.660908071434484" lon="12.337855607108418"><ele>563.5</ele><time>2026-04-17T14:09:57Z</time></trkpt><trkpt lat="42.66082282896796" lon="12.337976041403623"><ele>563.0</ele><time>2026-04-17T14:09:58Z</time></trkpt><trkpt lat="42.66076080742627" lon="12.338115648436013"><ele>562.25</ele><time>2026-04-17T14:09:59Z</time></trkpt><trkpt lat="42.66069766787878" lon="12.338270380782975"><ele>561.5</ele><time>2026-04-17T14:10:00Z</time></trkpt><trkpt lat="42.660637731710594" lon="12.338432700937807"><ele>560.75</ele><time>2026-04-17T14:10:01Z</time></trkpt><trkpt lat="42.66057246537925" lon="12.338594901871929"><ele>560.0</ele><time>2026-04-17T14:10:02Z</time></trkpt><trkpt lat="42.660494619101826" lon="12.338747346764942"><ele>560.0</ele><time>2026-04-17T14:10:03Z</time></trkpt><trkpt lat="42.66039467160456" lon="12.338876126269689"><ele>560.0</ele><time>2026-04-17T14:10:04Z</time></trkpt><trkpt lat="42.6602788788668" lon="12.338987964725963"><ele>560.0</ele><time>2026-04-17T14:10:05Z</time></trkpt><trkpt lat="42.66015865664579" lon="12.339087582571725"><ele>560.0</ele><time>2026-04-17T14:10:06Z</time></trkpt><trkpt lat="42.660033467801775" lon="12.339177604228661"><ele>561.25</ele><time>2026-04-17T14:10:07Z</time></trkpt><trkpt lat="42.65990209887226" lon="12.339264728127983"><ele>562.5</ele><time>2026-04-17T14:10:08Z</time></trkpt><trkpt lat="42.659778195208524" lon="12.339349359277643"><ele>563.75</ele><time>2026-04-17T14:10:09Z</time></trkpt><trkpt lat="42.65966480157948" lon="12.339424849047239"><ele>565.0</ele><time>2026-04-17T14:10:10Z</time></trkpt><trkpt lat="42.65953916080985" lon="12.339508892385568"><ele>564.0</ele><time>2026-04-17T14:10:11Z</time></trkpt><trkpt lat="42.65941409624734" lon="12.33959482706948"><ele>563.0</ele><time>2026-04-17T14:10:12Z</time></trkpt><trkpt lat="42.659285598550966" lon="12.339683063107682"><ele>562.0</ele><time>2026-04-17T14:10:13Z</time></trkpt><trkpt lat="42.65916762671679" lon="12.339764381392651"><ele>561.0</ele><time>2026-04-17T14:10:14Z</time></trkpt><trkpt lat="42.65904097041909" lon="12.339849470749854"><ele>561.0</ele><time>2026-04-17T14:10:15Z</time></trkpt><trkpt lat="42.6589136864946" lon="12.339941450462689"><ele>561.0</ele><time>2026-04-17T14:10:16Z</time></trkpt><trkpt lat="42.65878464682512" lon="12.340034807342956"><ele>561.0</ele><time>2026-04-17T14:10:17Z</time></trkpt><trkpt lat="42.65864868873288" lon="12.340135159030847"><ele>561.0</ele><time>2026-04-17T14:10:18Z</time></trkpt><trkpt lat="42.658512161534865" lon="12.340235046551074"><ele>567.0</ele><time>2026-04-17T14:10:19Z</time></trkpt><trkpt lat="42.65836351403795" lon="12.340332995160951"><ele>573.0</ele><time>2026-04-17T14:10:20Z</time></trkpt><trkpt lat="42.65822673796867" lon="12.340433506416177"><ele>579.0</ele><time>2026-04-17T14:10:21Z</time></trkpt><trkpt lat="42.658083069098986" lon="12.340535423888529"><ele>577.0</ele><time>2026-04-17T14:10:22Z</time></trkpt><trkpt lat="42.657939587099264" lon="12.340633721663233"><ele>575.0</ele><time>2026-04-17T14:10:23Z</time></trkpt><trkpt lat="42.657797717637784" lon="12.340729581602567"><ele>573.0</ele><time>2026-04-17T14:10:24Z</time></trkpt><trkpt lat="42.65765553681874" lon="12.340831491350666"><ele>573.0</ele><time>2026-04-17T14:10:25Z</time></trkpt><trkpt lat="42.65751330984253" lon="12.340933269684147"><ele>573.0</ele><time>2026-04-17T14:10:26Z</time></trkpt><trkpt lat="42.65737333452551" lon="12.341032636555704"><ele>573.0</ele><time>2026-04-17T14:10:27Z</time></trkpt><trkpt lat="42.65723280019632" lon="12.341129599791538"><ele>573.0</ele><time>2026-04-17T14:10:28Z</time></trkpt><trkpt lat="42.65709413789836" lon="12.341224380737865"><ele>573.0</ele><time>2026-04-17T14:10:29Z</time></trkpt><trkpt lat="42.65696086583076" lon="12.34131795337761"><ele>573.0</ele><time>2026-04-17T14:10:30Z</time></trkpt><trkpt lat="42.65682287329458" lon="12.341416007849523"><ele>571.0</ele><time>2026-04-17T14:10:31Z</time></trkpt><trkpt lat="42.65668210089903" lon="12.341513876411971"><ele>569.0</ele><time>2026-04-17T14:10:32Z</time></trkpt><trkpt lat="42.6565452977218" lon="12.34161195106793"><ele>567.0</ele><time>2026-04-17T14:10:33Z</time></trkpt><trkpt lat="42.65640843783736" lon="12.34171183799776"><ele>567.0</ele><time>2026-04-17T14:10:34Z</time></trkpt><trkpt lat="42.65628070627264" lon="12.341824647338758"><ele>567.0</ele><time>2026-04-17T14:10:35Z</time></trkpt><trkpt lat="42.6561683076299" lon="12.341952427248641"><ele>567.0</ele><time>2026-04-17T14:10:36Z</time></trkpt><trkpt lat="42.65606504172448" lon="12.342085171809604"><ele>567.0</ele><time>2026-04-17T14:10:37Z</time></trkpt><trkpt lat="42.655976814108385" lon="12.342227568822194"><ele>569.25</ele><time>2026-04-17T14:10:38Z</time></trkpt><trkpt lat="42.65588851042084" lon="12.342370251990905"><ele>571.5</ele><time>2026-04-17T14:10:39Z</time></trkpt><trkpt lat="42.65579746410746" lon="12.342510492206685"><ele>573.75</ele><time>2026-04-17T14:10:40Z</time></trkpt><trkpt lat="42.65570354506888" lon="12.342654014589849"><ele>576.0</ele><time>2026-04-17T14:10:41Z</time></trkpt><trkpt lat="42.6556086666643" lon="12.342796178120821"><ele>576.0</ele><time>2026-04-17T14:10:42Z</time></trkpt><trkpt lat="42.6555108651603" lon="12.342935538664292"><ele>576.0</ele><time>2026-04-17T14:10:43Z</time></trkpt><trkpt lat="42.65542419263994" lon="12.343060378387177"><ele>576.0</ele><time>2026-04-17T14:10:44Z</time></trkpt><trkpt lat="42.65534906788359" lon="12.343172095634174"><ele>576.0</ele><time>2026-04-17T14:10:45Z</time></trkpt><trkpt lat="42.65528298678053" lon="12.343293368337678"><ele>577.75</ele><time>2026-04-17T14:10:46Z</time></trkpt><trkpt lat="42.65522918444933" lon="12.343439985285345"><ele>579.5</ele><time>2026-04-17T14:10:47Z</time></trkpt><trkpt lat="42.655197983545385" lon="12.34360226872109"><ele>581.25</ele><time>2026-04-17T14:10:48Z</time></trkpt><trkpt lat="42.655186839900765" lon="12.343768323464626"><ele>583.0</ele><time>2026-04-17T14:10:49Z</time></trkpt><trkpt lat="42.65518588836593" lon="12.3439319658143"><ele>583.0</ele><time>2026-04-17T14:10:50Z</time></trkpt><trkpt lat="42.655188633465485" lon="12.344099050451995"><ele>583.0</ele><time>2026-04-17T14:10:51Z</time></trkpt><trkpt lat="42.65518936881276" lon="12.34427733497455"><ele>583.0</ele><time>2026-04-17T14:10:52Z</time></trkpt><trkpt lat="42.65519063607761" lon="12.34446204091097"><ele>583.0</ele><time>2026-04-17T14:10:53Z</time></trkpt><trkpt lat="42.65519196606812" lon="12.344642573419163"><ele>584.25</ele><time>2026-04-17T14:10:54Z</time></trkpt><trkpt lat="42.65519350532012" lon="12.344815701508335"><ele>585.5</ele><time>2026-04-17T14:10:55Z</time></trkpt><trkpt lat="42.655196646347534" lon="12.34499390233527"><ele>586.75</ele><time>2026-04-17T14:10:56Z</time></trkpt><trkpt lat="42.65520348522509" lon="12.345168570910566"><ele>588.0</ele><time>2026-04-17T14:10:57Z</time></trkpt><trkpt lat="42.65520872761152" lon="12.345365439032188"><ele>588.0</ele><time>2026-04-17T14:10:58Z</time></trkpt><trkpt lat="42.65525767602345" lon="12.345536696532807"><ele>588.0</ele><time>2026-04-17T14:10:59Z</time></trkpt><trkpt lat="42.655349729592174" lon="12.345699397750973"><ele>588.0</ele><time>2026-04-17T14:11:00Z</time></trkpt><trkpt lat="42.65546527614526" lon="12.345860934411952"><ele>579.6666666666666</ele><time>2026-04-17T14:11:01Z</time></trkpt><trkpt lat="42.65557495632938" lon="12.346013502542338"><ele>571.3333333333333</ele><time>2026-04-17T14:11:02Z</time></trkpt><trkpt lat="42.655691009639185" lon="12.346151923262113"><ele>563.0</ele><time>2026-04-17T14:11:03Z</time></trkpt><trkpt lat="42.655810535564534" lon="12.346290102407094"><ele>564.5</ele><time>2026-04-17T14:11:04Z</time></trkpt><trkpt lat="42.655905395714036" lon="12.346438454980925"><ele>566.0</ele><time>2026-04-17T14:11:05Z</time></trkpt><trkpt lat="42.65597481815821" lon="12.34660230254145"><ele>567.5</ele><time>2026-04-17T14:11:06Z</time></trkpt><trkpt lat="42.6560217083874" lon="12.346779381866638"><ele>569.0</ele><time>2026-04-17T14:11:07Z</time></trkpt><trkpt lat="42.65602760026952" lon="12.346972941338699"><ele>569.0</ele><time>2026-04-17T14:11:08Z</time></trkpt><trkpt lat="42.65603269985527" lon="12.347154528704099"><ele>569.0</ele><time>2026-04-17T14:11:09Z</time></trkpt><trkpt lat="42.65603624492541" lon="12.347330378896372"><ele>569.0</ele><time>2026-04-17T14:11:10Z</time></trkpt><trkpt lat="42.656038020730584" lon="12.347498084761876"><ele>569.0</ele><time>2026-04-17T14:11:11Z</time></trkpt><trkpt lat="42.65605551899689" lon="12.347660660616336"><ele>568.6</ele><time>2026-04-17T14:11:12Z</time></trkpt><trkpt lat="42.65604924237396" lon="12.34779579320483"><ele>568.2</ele><time>2026-04-17T14:11:13Z</time></trkpt><trkpt lat="42.6560485536617" lon="12.347908952475489"><ele>567.8000000000001</ele><time>2026-04-17T14:11:14Z</time></trkpt><trkpt lat="42.65600747867801" lon="12.34804100968261"><ele>567.4</ele><time>2026-04-17T14:11:16Z</time></trkpt><trkpt lat="42.65589526030748" lon="12.348121568467198"><ele>567.0</ele><time>2026-04-17T14:11:18Z</time></trkpt><trkpt lat="42.655755567692786" lon="12.348146685996863"><ele>567.6</ele><time>2026-04-17T14:11:20Z</time></trkpt><trkpt lat="42.65569065511571" lon="12.34813973377503"><ele>568.2</ele><time>2026-04-17T14:11:21Z</time></trkpt><trkpt lat="42.655557763952814" lon="12.348144175069644"><ele>568.8</ele><time>2026-04-17T14:11:23Z</time></trkpt><trkpt lat="42.65546921026691" lon="12.348161442412009"><ele>569.4</ele><time>2026-04-17T14:11:24Z</time></trkpt><trkpt lat="42.655377906497584" lon="12.34816798319388"><ele>570.0</ele><time>2026-04-17T14:11:25Z</time></trkpt><trkpt lat="42.65528497781354" lon="12.348163812639498"><ele>570.0</ele><time>2026-04-17T14:11:26Z</time></trkpt><trkpt lat="42.655195986211844" lon="12.348186169698067"><ele>570.0</ele><time>2026-04-17T14:11:27Z</time></trkpt><trkpt lat="42.65511833977185" lon="12.348221271116511"><ele>570.0</ele><time>2026-04-17T14:11:28Z</time></trkpt><trkpt lat="42.6550550947576" lon="12.348269644230855"><ele>570.0</ele><time>2026-04-17T14:11:29Z</time></trkpt><trkpt lat="42.65495841314523" lon="12.348355264635087"><ele>570.0</ele><time>2026-04-17T14:11:31Z</time></trkpt><trkpt lat="42.65485996189713" lon="12.348421328835814"><ele>570.0</ele><time>2026-04-17T14:11:33Z</time></trkpt><trkpt lat="42.65475307966768" lon="12.34850720043497"><ele>570.0</ele><time>2026-04-17T14:11:35Z</time></trkpt><trkpt lat="42.65465411321351" lon="12.348583473600799"><ele>570.0</ele><time>2026-04-17T14:11:37Z</time></trkpt><trkpt lat="42.654560235963764" lon="12.348685721148563"><ele>570.0</ele><time>2026-04-17T14:11:39Z</time></trkpt><trkpt lat="42.65447211953949" lon="12.348791049607554"><ele>571.0</ele><time>2026-04-17T14:11:41Z</time></trkpt><trkpt lat="42.65438449148746" lon="12.348888387159796"><ele>572.0</ele><time>2026-04-17T14:11:43Z</time></trkpt><trkpt lat="42.65431403416367" lon="12.349016036648553"><ele>573.0</ele><time>2026-04-17T14:11:45Z</time></trkpt><trkpt lat="42.65422266970151" lon="12.34911881780137"><ele>574.0</ele><time>2026-04-17T14:11:47Z</time></trkpt><trkpt lat="42.654112064495514" lon="12.349139147244014"><ele>574.0</ele><time>2026-04-17T14:11:49Z</time></trkpt><trkpt lat="42.65401279924685" lon="12.349100923268884"><ele>574.0</ele><time>2026-04-17T14:11:51Z</time></trkpt><trkpt lat="42.65391426814691" lon="12.349017906847466"><ele>574.0</ele><time>2026-04-17T14:11:53Z</time></trkpt><trkpt lat="42.653906010521816" lon="12.348928480085593"><ele>574.0</ele><time>2026-04-17T14:11:54Z</time></trkpt><trkpt lat="42.65381386792818" lon="12.348814112144685"><ele>574.0</ele><time>2026-04-17T14:11:56Z</time></trkpt><trkpt lat="42.65376267032013" lon="12.348758032333578"><ele>575.0</ele><time>2026-04-17T14:11:57Z</time></trkpt><trkpt lat="42.65369855753155" lon="12.348724980174207"><ele>576.0</ele><time>2026-04-17T14:11:58Z</time></trkpt><trkpt lat="42.653635688709585" lon="12.3487000885296"><ele>577.0</ele><time>2026-04-17T14:11:59Z</time></trkpt><trkpt lat="42.653572681326324" lon="12.348682224321271"><ele>578.0</ele><time>2026-04-17T14:12:00Z</time></trkpt><trkpt lat="42.653511100563726" lon="12.348633960687101"><ele>579.0</ele><time>2026-04-17T14:12:01Z</time></trkpt><trkpt lat="42.6534337890466" lon="12.348617374193614"><ele>580.0</ele><time>2026-04-17T14:12:02Z</time></trkpt><trkpt lat="42.65335772855715" lon="12.348567320136905"><ele>581.0</ele><time>2026-04-17T14:12:03Z</time></trkpt><trkpt lat="42.653283240654616" lon="12.348523248676889"><ele>581.0</ele><time>2026-04-17T14:12:04Z</time></trkpt><trkpt lat="42.65322365529922" lon="12.348481626185967"><ele>581.0</ele><time>2026-04-17T14:12:05Z</time></trkpt><trkpt lat="42.65310105290178" lon="12.348403885038035"><ele>581.0</ele><time>2026-04-17T14:12:07Z</time></trkpt><trkpt lat="42.653031546950864" lon="12.348353678335762"><ele>581.0</ele><time>2026-04-17T14:12:08Z</time></trkpt><trkpt lat="42.65296133569887" lon="12.348304420328317"><ele>581.0</ele><time>2026-04-17T14:12:09Z</time></trkpt><trkpt lat="42.652896564632684" lon="12.348242844597195"><ele>581.0</ele><time>2026-04-17T14:12:10Z</time></trkpt><trkpt lat="42.65279936559176" lon="12.348136120017813"><ele>579.0</ele><time>2026-04-17T14:12:12Z</time></trkpt><trkpt lat="42.65269794885676" lon="12.348058665941934"><ele>577.0</ele><time>2026-04-17T14:12:14Z</time></trkpt><trkpt lat="42.65260229229557" lon="12.347956524031288"><ele>575.0</ele><time>2026-04-17T14:12:16Z</time></trkpt><trkpt lat="42.65250244448573" lon="12.347900556505977"><ele>573.0</ele><time>2026-04-17T14:12:18Z</time></trkpt><trkpt lat="42.65240385234927" lon="12.347926103453217"><ele>571.0</ele><time>2026-04-17T14:12:20Z</time></trkpt><trkpt lat="42.65230941499958" lon="12.34801784047517"><ele>571.0</ele><time>2026-04-17T14:12:22Z</time></trkpt><trkpt lat="42.65221207530751" lon="12.34810666546827"><ele>571.0</ele><time>2026-04-17T14:12:24Z</time></trkpt><trkpt lat="42.652142053502196" lon="12.34821338559412"><ele>571.0</ele><time>2026-04-17T14:12:26Z</time></trkpt><trkpt lat="42.652043168685154" lon="12.348308944393331"><ele>571.0</ele><time>2026-04-17T14:12:28Z</time></trkpt><trkpt lat="42.651984444701476" lon="12.348371897983135"><ele>571.0</ele><time>2026-04-17T14:12:29Z</time></trkpt><trkpt lat="42.651917354868104" lon="12.348449644631284"><ele>575.1666666666667</ele><time>2026-04-17T14:12:30Z</time></trkpt><trkpt lat="42.65184740822644" lon="12.348521464806142"><ele>579.3333333333334</ele><time>2026-04-17T14:12:31Z</time></trkpt><trkpt lat="42.65177511313658" lon="12.348598199402982"><ele>583.5</ele><time>2026-04-17T14:12:32Z</time></trkpt><trkpt lat="42.65170138714971" lon="12.348650650112482"><ele>587.6666666666666</ele><time>2026-04-17T14:12:33Z</time></trkpt><trkpt lat="42.65162824861015" lon="12.348711802073714"><ele>591.8333333333333</ele><time>2026-04-17T14:12:34Z</time></trkpt><trkpt lat="42.651548012785" lon="12.348787376281269"><ele>596.0</ele><time>2026-04-17T14:12:35Z</time></trkpt><trkpt lat="42.65147000123604" lon="12.34885611602879"><ele>594.5</ele><time>2026-04-17T14:12:36Z</time></trkpt><trkpt lat="42.65139988352827" lon="12.34891299523511"><ele>593.0</ele><time>2026-04-17T14:12:37Z</time></trkpt><trkpt lat="42.65134071337601" lon="12.348955831260808"><ele>591.5</ele><time>2026-04-17T14:12:38Z</time></trkpt><trkpt lat="42.65130707050914" lon="12.34904528156222"><ele>590.0</ele><time>2026-04-17T14:12:39Z</time></trkpt><trkpt lat="42.6511822607982" lon="12.349105335300633"><ele>588.5</ele><time>2026-04-17T14:12:41Z</time></trkpt><trkpt lat="42.65111855110009" lon="12.349110690092227"><ele>587.0</ele><time>2026-04-17T14:12:42Z</time></trkpt><trkpt lat="42.651041307724874" lon="12.34911338392772"><ele>587.0</ele><time>2026-04-17T14:12:43Z</time></trkpt><trkpt lat="42.65096016860724" lon="12.34910043849773"><ele>587.0</ele><time>2026-04-17T14:12:44Z</time></trkpt><trkpt lat="42.65087755971003" lon="12.349095029395528"><ele>587.0</ele><time>2026-04-17T14:12:45Z</time></trkpt><trkpt lat="42.65079050135999" lon="12.349112716906154"><ele>587.0</ele><time>2026-04-17T14:12:46Z</time></trkpt><trkpt lat="42.650689277885576" lon="12.349104331839646"><ele>587.0</ele><time>2026-04-17T14:12:47Z</time></trkpt><trkpt lat="42.65058810901977" lon="12.349092505600328"><ele>587.0</ele><time>2026-04-17T14:12:48Z</time></trkpt><trkpt lat="42.650486866575946" lon="12.349095291474393"><ele>587.0</ele><time>2026-04-17T14:12:49Z</time></trkpt><trkpt lat="42.65039490411465" lon="12.349094008331893"><ele>587.0</ele><time>2026-04-17T14:12:50Z</time></trkpt><trkpt lat="42.650302610609806" lon="12.349085630148364"><ele>587.0</ele><time>2026-04-17T14:12:51Z</time></trkpt><trkpt lat="42.65019557085468" lon="12.349070435877383"><ele>587.0</ele><time>2026-04-17T14:12:52Z</time></trkpt><trkpt lat="42.65007737632646" lon="12.349078414587527"><ele>585.0</ele><time>2026-04-17T14:12:53Z</time></trkpt><trkpt lat="42.64994759918236" lon="12.349065053150314"><ele>583.0</ele><time>2026-04-17T14:12:54Z</time></trkpt><trkpt lat="42.64980783091056" lon="12.349038811794307"><ele>581.0</ele><time>2026-04-17T14:12:55Z</time></trkpt><trkpt lat="42.64967759801239" lon="12.349024392187568"><ele>579.0</ele><time>2026-04-17T14:12:56Z</time></trkpt><trkpt lat="42.64953214554904" lon="12.34900086704987"><ele>575.3333333333334</ele><time>2026-04-17T14:12:57Z</time></trkpt><trkpt lat="42.649383466202" lon="12.348964573463164"><ele>571.6666666666667</ele><time>2026-04-17T14:12:58Z</time></trkpt><trkpt lat="42.649210220015675" lon="12.348915240025214"><ele>568.0</ele><time>2026-04-17T14:12:59Z</time></trkpt><trkpt lat="42.64903447302506" lon="12.348825650350003"><ele>578.0</ele><time>2026-04-17T14:13:00Z</time></trkpt><trkpt lat="42.648823769362615" lon="12.348741937928066"><ele>588.0</ele><time>2026-04-17T14:13:01Z</time></trkpt><trkpt lat="42.64858702073535" lon="12.348660128624733"><ele>588.0</ele><time>2026-04-17T14:13:02Z</time></trkpt><trkpt lat="42.648365544424436" lon="12.348582219292078"><ele>588.0</ele><time>2026-04-17T14:13:03Z</time></trkpt><trkpt lat="42.64819875029313" lon="12.348520555345857"><ele>588.0</ele><time>2026-04-17T14:13:04Z</time></trkpt><trkpt lat="42.648061976016365" lon="12.348465562491084"><ele>588.0</ele><time>2026-04-17T14:13:05Z</time></trkpt><trkpt lat="42.647890028636894" lon="12.348397223359283"><ele>588.0</ele><time>2026-04-17T14:13:06Z</time></trkpt><trkpt lat="42.64774389441546" lon="12.348318370063534"><ele>588.0</ele><time>2026-04-17T14:13:07Z</time></trkpt><trkpt lat="42.6476217364778" lon="12.348220582103945"><ele>591.6666666666666</ele><time>2026-04-17T14:13:08Z</time></trkpt><trkpt lat="42.64750473868218" lon="12.348118551761242"><ele>595.3333333333333</ele><time>2026-04-17T14:13:09Z</time></trkpt><trkpt lat="42.647345006939155" lon="12.347977260357062"><ele>599.0</ele><time>2026-04-17T14:13:10Z</time></trkpt><trkpt lat="42.64716904624005" lon="12.34782256510298"><ele>599.0</ele><time>2026-04-17T14:13:11Z</time></trkpt><trkpt lat="42.6470258724622" lon="12.347697656022047"><ele>599.0</ele><time>2026-04-17T14:13:12Z</time></trkpt><trkpt lat="42.646913226221166" lon="12.347600606155146"><ele>599.0</ele><time>2026-04-17T14:13:13Z</time></trkpt><trkpt lat="42.646821176141756" lon="12.347521300961803"><ele>599.0</ele><time>2026-04-17T14:13:14Z</time></trkpt><trkpt lat="42.646723300894244" lon="12.347466376961236"><ele>598.2</ele><time>2026-04-17T14:13:15Z</time></trkpt><trkpt lat="42.646644888913094" lon="12.347383241143149"><ele>597.4</ele><time>2026-04-17T14:13:16Z</time></trkpt><trkpt lat="42.64656253732313" lon="12.34732165003716"><ele>596.6</ele><time>2026-04-17T14:13:17Z</time></trkpt><trkpt lat="42.64647989481472" lon="12.347239928022555"><ele>595.8</ele><time>2026-04-17T14:13:18Z</time></trkpt><trkpt lat="42.64639621741915" lon="12.347148588960213"><ele>595.0</ele><time>2026-04-17T14:13:19Z</time></trkpt><trkpt lat="42.646332151440596" lon="12.34704620850317"><ele>595.0</ele><time>2026-04-17T14:13:20Z</time></trkpt><trkpt lat="42.64627901871888" lon="12.346935474600354"><ele>595.0</ele><time>2026-04-17T14:13:21Z</time></trkpt><trkpt lat="42.646272563480004" lon="12.346795500380171"><ele>595.0</ele><time>2026-04-17T14:13:22Z</time></trkpt><trkpt lat="42.64624497707748" lon="12.346646630751888"><ele>595.0</ele><time>2026-04-17T14:13:23Z</time></trkpt><trkpt lat="42.64622930445545" lon="12.346454250806813"><ele>599.6666666666667</ele><time>2026-04-17T14:13:24Z</time></trkpt><trkpt lat="42.64621148887028" lon="12.346205061144813"><ele>604.3333333333334</ele><time>2026-04-17T14:13:25Z</time></trkpt><trkpt lat="42.646188897428324" lon="12.345984229699276"><ele>609.0</ele><time>2026-04-17T14:13:26Z</time></trkpt><trkpt lat="42.64615431689899" lon="12.345811373713953"><ele>609.0</ele><time>2026-04-17T14:13:27Z</time></trkpt><trkpt lat="42.64613598409829" lon="12.345666410848835"><ele>609.0</ele><time>2026-04-17T14:13:28Z</time></trkpt><trkpt lat="42.64612690714977" lon="12.345469160239373"><ele>609.0</ele><time>2026-04-17T14:13:29Z</time></trkpt><trkpt lat="42.64612320882479" lon="12.345216806192077"><ele>609.0</ele><time>2026-04-17T14:13:30Z</time></trkpt><trkpt lat="42.64612460584897" lon="12.345031533920626"><ele>609.2</ele><time>2026-04-17T14:13:31Z</time></trkpt><trkpt lat="42.64612656468877" lon="12.344877515178448"><ele>609.4</ele><time>2026-04-17T14:13:32Z</time></trkpt><trkpt lat="42.64613307480431" lon="12.344753379725999"><ele>609.6</ele><time>2026-04-17T14:13:33Z</time></trkpt><trkpt lat="42.64614521609555" lon="12.344628017830358"><ele>609.8</ele><time>2026-04-17T14:13:34Z</time></trkpt><trkpt lat="42.64617248774314" lon="12.3444892219548"><ele>610.0</ele><time>2026-04-17T14:13:35Z</time></trkpt><trkpt lat="42.64619292325016" lon="12.34437612380506"><ele>610.0</ele><time>2026-04-17T14:13:36Z</time></trkpt><trkpt lat="42.646185081716" lon="12.3442271257893"><ele>610.0</ele><time>2026-04-17T14:13:38Z</time></trkpt><trkpt lat="42.64610637349372" lon="12.344112666563383"><ele>610.0</ele><time>2026-04-17T14:13:40Z</time></trkpt><trkpt lat="42.6460347497674" lon="12.344099646432348"><ele>610.0</ele><time>2026-04-17T14:13:41Z</time></trkpt><trkpt lat="42.645955955631" lon="12.344140775961698"><ele>610.0</ele><time>2026-04-17T14:13:42Z</time></trkpt><trkpt lat="42.645875596473125" lon="12.344148755699546"><ele>612.0</ele><time>2026-04-17T14:13:43Z</time></trkpt><trkpt lat="42.64576663708559" lon="12.344166529537189"><ele>614.0</ele><time>2026-04-17T14:13:44Z</time></trkpt><trkpt lat="42.6456814758984" lon="12.344158195001038"><ele>616.0</ele><time>2026-04-17T14:13:45Z</time></trkpt><trkpt lat="42.64556964274771" lon="12.344017277107852"><ele>618.0</ele><time>2026-04-17T14:13:47Z</time></trkpt><trkpt lat="42.64549123680906" lon="12.343878488254672"><ele>618.0</ele><time>2026-04-17T14:13:48Z</time></trkpt><trkpt lat="42.64538531448675" lon="12.343807047128776"><ele>618.0</ele><time>2026-04-17T14:13:49Z</time></trkpt><trkpt lat="42.645296218553234" lon="12.343759610963783"><ele>618.0</ele><time>2026-04-17T14:13:50Z</time></trkpt><trkpt lat="42.64520336058357" lon="12.34379911380729"><ele>618.0</ele><time>2026-04-17T14:13:51Z</time></trkpt><trkpt lat="42.64510343201019" lon="12.343846885777365"><ele>618.0</ele><time>2026-04-17T14:13:52Z</time></trkpt><trkpt lat="42.64500907334391" lon="12.343954147670456"><ele>613.4</ele><time>2026-04-17T14:13:53Z</time></trkpt><trkpt lat="42.64492727796485" lon="12.344047119874082"><ele>608.8</ele><time>2026-04-17T14:13:54Z</time></trkpt><trkpt lat="42.6448830435455" lon="12.34414307004888"><ele>604.2</ele><time>2026-04-17T14:13:55Z</time></trkpt><trkpt lat="42.64484633222823" lon="12.344260201166149"><ele>599.6</ele><time>2026-04-17T14:13:56Z</time></trkpt><trkpt lat="42.64486862701124" lon="12.344411013205717"><ele>595.0</ele><time>2026-04-17T14:13:57Z</time></trkpt><trkpt lat="42.644891111784624" lon="12.344572526985553"><ele>592.0</ele><time>2026-04-17T14:13:58Z</time></trkpt><trkpt lat="42.64491103960328" lon="12.344723671651188"><ele>589.0</ele><time>2026-04-17T14:13:59Z</time></trkpt><trkpt lat="42.64493649553875" lon="12.344835562977552"><ele>586.0</ele><time>2026-04-17T14:14:00Z</time></trkpt><trkpt lat="42.64494823239177" lon="12.344931627288735"><ele>583.0</ele><time>2026-04-17T14:14:01Z</time></trkpt><trkpt lat="42.64491642712039" lon="12.345078762618009"><ele>580.0</ele><time>2026-04-17T14:14:03Z</time></trkpt><trkpt lat="42.644835471516956" lon="12.345117165050048"><ele>580.0</ele><time>2026-04-17T14:14:04Z</time></trkpt><trkpt lat="42.64477902532125" lon="12.345196445355953"><ele>580.0</ele><time>2026-04-17T14:14:05Z</time></trkpt><trkpt lat="42.644710362322925" lon="12.34521706802492"><ele>580.0</ele><time>2026-04-17T14:14:06Z</time></trkpt><trkpt lat="42.644610478206076" lon="12.345223762783977"><ele>580.0</ele><time>2026-04-17T14:14:08Z</time></trkpt><trkpt lat="42.6445279559279" lon="12.345219289845783"><ele>580.0</ele><time>2026-04-17T14:14:10Z</time></trkpt><trkpt lat="42.6444636026966" lon="12.345166137336937"><ele>580.0</ele><time>2026-04-17T14:14:12Z</time></trkpt><trkpt lat="42.64438074986696" lon="12.345147073046538"><ele>580.4</ele><time>2026-04-17T14:14:14Z</time></trkpt><trkpt lat="42.64431584149738" lon="12.345093742210768"><ele>580.8</ele><time>2026-04-17T14:14:43Z</time></trkpt><trkpt lat="42.644239384280745" lon="12.34499268027596"><ele>581.2</ele><time>2026-04-17T14:14:46Z</time></trkpt><trkpt lat="42.64414471484559" lon="12.34490518212988"><ele>581.6</ele><time>2026-04-17T14:14:48Z</time></trkpt><trkpt lat="42.644035128849346" lon="12.344836999147926"><ele>582.0</ele><time>2026-04-17T14:14:49Z</time></trkpt><trkpt lat="42.64391875052241" lon="12.344757994510694"><ele>585.2</ele><time>2026-04-17T14:14:50Z</time></trkpt><trkpt lat="42.64381881696985" lon="12.344708253293753"><ele>588.4000000000001</ele><time>2026-04-17T14:14:51Z</time></trkpt><trkpt lat="42.64372456073443" lon="12.344672293902923"><ele>591.5999999999999</ele><time>2026-04-17T14:14:52Z</time></trkpt><trkpt lat="42.643639429916334" lon="12.344633848457168"><ele>594.8</ele><time>2026-04-17T14:14:53Z</time></trkpt><trkpt lat="42.643556813887805" lon="12.344608367674118"><ele>598.0</ele><time>2026-04-17T14:14:54Z</time></trkpt><trkpt lat="42.64347904269273" lon="12.344615944515764"><ele>598.0</ele><time>2026-04-17T14:14:55Z</time></trkpt><trkpt lat="42.64341747833783" lon="12.34468478685153"><ele>598.0</ele><time>2026-04-17T14:14:56Z</time></trkpt><trkpt lat="42.64338877801264" lon="12.344797937876319"><ele>598.0</ele><time>2026-04-17T14:14:57Z</time></trkpt><trkpt lat="42.64340341455446" lon="12.344954420606305"><ele>598.0</ele><time>2026-04-17T14:14:58Z</time></trkpt><trkpt lat="42.64344960748522" lon="12.345089811207043"><ele>598.0</ele><time>2026-04-17T14:14:59Z</time></trkpt><trkpt lat="42.64347351408508" lon="12.345169089884076"><ele>595.0</ele><time>2026-04-17T14:15:00Z</time></trkpt><trkpt lat="42.64351554035001" lon="12.345277173798445"><ele>592.0</ele><time>2026-04-17T14:15:02Z</time></trkpt><trkpt lat="42.643504833232925" lon="12.345371738851703"><ele>589.0</ele><time>2026-04-17T14:15:05Z</time></trkpt><trkpt lat="42.64339857272838" lon="12.34542137983628"><ele>586.0</ele><time>2026-04-17T14:15:08Z</time></trkpt><trkpt lat="42.64327527284997" lon="12.345425290457232"><ele>583.0</ele><time>2026-04-17T14:15:10Z</time></trkpt><trkpt lat="42.64319293290458" lon="12.345413800687354"><ele>583.0</ele><time>2026-04-17T14:15:11Z</time></trkpt><trkpt lat="42.643113442916935" lon="12.345405789248904"><ele>583.0</ele><time>2026-04-17T14:15:12Z</time></trkpt><trkpt lat="42.64303138570182" lon="12.345401943512123"><ele>583.0</ele><time>2026-04-17T14:15:13Z</time></trkpt><trkpt lat="42.64289698921356" lon="12.345415973255463"><ele>583.0</ele><time>2026-04-17T14:15:15Z</time></trkpt><trkpt lat="42.6428242057209" lon="12.345457896961884"><ele>583.0</ele><time>2026-04-17T14:15:16Z</time></trkpt><trkpt lat="42.64273853071053" lon="12.345478840637245"><ele>586.4</ele><time>2026-04-17T14:15:17Z</time></trkpt><trkpt lat="42.64264891822744" lon="12.345517383626243"><ele>589.8</ele><time>2026-04-17T14:15:18Z</time></trkpt><trkpt lat="42.642541156760274" lon="12.345576553776137"><ele>593.2</ele><time>2026-04-17T14:15:19Z</time></trkpt><trkpt lat="42.64242896232323" lon="12.345663572179745"><ele>596.6</ele><time>2026-04-17T14:15:20Z</time></trkpt><trkpt lat="42.64233475818398" lon="12.345714882741092"><ele>600.0</ele><time>2026-04-17T14:15:21Z</time></trkpt><trkpt lat="42.64225734035162" lon="12.345775109841645"><ele>600.0</ele><time>2026-04-17T14:15:22Z</time></trkpt><trkpt lat="42.64218376726582" lon="12.345821573697567"><ele>600.0</ele><time>2026-04-17T14:15:23Z</time></trkpt><trkpt lat="42.642068552992654" lon="12.345808562722796"><ele>600.0</ele><time>2026-04-17T14:15:25Z</time></trkpt><trkpt lat="42.64205632182666" lon="12.345723430507014"><ele>600.0</ele><time>2026-04-17T14:15:26Z</time></trkpt><trkpt lat="42.6421341082182" lon="12.3456410830439"><ele>600.0</ele><time>2026-04-17T14:15:27Z</time></trkpt><trkpt lat="42.64219954978317" lon="12.345536861842643"><ele>600.5</ele><time>2026-04-17T14:15:28Z</time></trkpt><trkpt lat="42.64228005402195" lon="12.345395228415944"><ele>601.0</ele><time>2026-04-17T14:15:29Z</time></trkpt><trkpt lat="42.64236623951275" lon="12.345215368900535"><ele>601.5</ele><time>2026-04-17T14:15:30Z</time></trkpt><trkpt lat="42.642426017416504" lon="12.345100155303715"><ele>602.0</ele><time>2026-04-17T14:15:31Z</time></trkpt><trkpt lat="42.6424846348905" lon="12.344989892714192"><ele>602.0</ele><time>2026-04-17T14:15:32Z</time></trkpt><trkpt lat="42.64254217715731" lon="12.344887083346421"><ele>602.0</ele><time>2026-04-17T14:15:33Z</time></trkpt><trkpt lat="42.642606475123195" lon="12.344796774024841"><ele>602.0</ele><time>2026-04-17T14:15:34Z</time></trkpt><trkpt lat="42.64266808917413" lon="12.344728469117968"><ele>602.0</ele><time>2026-04-17T14:15:35Z</time></trkpt><trkpt lat="42.642718692548954" lon="12.344663708386935"><ele>602.0</ele><time>2026-04-17T14:15:36Z</time></trkpt><trkpt lat="42.64273630125704" lon="12.344562089242677"><ele>602.0</ele><time>2026-04-17T14:15:38Z</time></trkpt><trkpt lat="42.64257391866253" lon="12.344457478592266"><ele>603.6</ele><time>2026-04-17T14:15:39Z</time></trkpt><trkpt lat="42.64247002448172" lon="12.344402072982733"><ele>605.2</ele><time>2026-04-17T14:15:40Z</time></trkpt><trkpt lat="42.64238259274733" lon="12.344372544153703"><ele>606.8</ele><time>2026-04-17T14:15:41Z</time></trkpt><trkpt lat="42.642314146060215" lon="12.344362443363575"><ele>608.4</ele><time>2026-04-17T14:15:42Z</time></trkpt><trkpt lat="42.64222884583419" lon="12.344275392240878"><ele>610.0</ele><time>2026-04-17T14:15:44Z</time></trkpt><trkpt lat="42.642239387837854" lon="12.344152347409365"><ele>610.0</ele><time>2026-04-17T14:15:45Z</time></trkpt><trkpt lat="42.64231843094138" lon="12.344032196843807"><ele>610.0</ele><time>2026-04-17T14:15:46Z</time></trkpt><trkpt lat="42.642373598700324" lon="12.343883599077337"><ele>610.0</ele><time>2026-04-17T14:15:47Z</time></trkpt><trkpt lat="42.64243316315881" lon="12.343757093394807"><ele>610.0</ele><time>2026-04-17T14:15:48Z</time></trkpt><trkpt lat="42.642507293879945" lon="12.343638367210486"><ele>613.75</ele><time>2026-04-17T14:15:49Z</time></trkpt><trkpt lat="42.642606988431424" lon="12.343553135140715"><ele>617.5</ele><time>2026-04-17T14:15:50Z</time></trkpt><trkpt lat="42.64273511734106" lon="12.343522341358213"><ele>621.25</ele><time>2026-04-17T14:15:51Z</time></trkpt><trkpt lat="42.6428738632506" lon="12.34350026033093"><ele>625.0</ele><time>2026-04-17T14:15:52Z</time></trkpt><trkpt lat="42.6429952670209" lon="12.34348036995183"><ele>625.0</ele><time>2026-04-17T14:15:53Z</time></trkpt><trkpt lat="42.64311057177588" lon="12.343438849227809"><ele>625.0</ele><time>2026-04-17T14:15:54Z</time></trkpt><trkpt lat="42.643218276341635" lon="12.34342019803125"><ele>625.0</ele><time>2026-04-17T14:15:55Z</time></trkpt><trkpt lat="42.643318044318825" lon="12.343385840598069"><ele>625.0</ele><time>2026-04-17T14:15:56Z</time></trkpt><trkpt lat="42.64342270771733" lon="12.343310248028823"><ele>625.0</ele><time>2026-04-17T14:15:57Z</time></trkpt><trkpt lat="42.643520836692055" lon="12.343223114377855"><ele>625.0</ele><time>2026-04-17T14:15:58Z</time></trkpt><trkpt lat="42.64362550416632" lon="12.343158303277269"><ele>625.0</ele><time>2026-04-17T14:15:59Z</time></trkpt><trkpt lat="42.643716370114134" lon="12.343117497148178"><ele>625.0</ele><time>2026-04-17T14:16:00Z</time></trkpt><trkpt lat="42.64381796116846" lon="12.343119370766113"><ele>625.0</ele><time>2026-04-17T14:16:01Z</time></trkpt><trkpt lat="42.64391838374468" lon="12.343115956322558"><ele>625.0</ele><time>2026-04-17T14:16:02Z</time></trkpt><trkpt lat="42.64399558694063" lon="12.343105932232554"><ele>624.2</ele><time>2026-04-17T14:16:03Z</time></trkpt><trkpt lat="42.64407170314673" lon="12.34314595146044"><ele>623.4</ele><time>2026-04-17T14:16:05Z</time></trkpt><trkpt lat="42.644103894252645" lon="12.343025677625375"><ele>622.6</ele><time>2026-04-17T14:16:09Z</time></trkpt><trkpt lat="42.643992202653365" lon="12.342927912802114"><ele>621.8</ele><time>2026-04-17T14:16:11Z</time></trkpt><trkpt lat="42.64390968060036" lon="12.342930326032695"><ele>621.0</ele><time>2026-04-17T14:16:12Z</time></trkpt><trkpt lat="42.643846856426904" lon="12.342921725503807"><ele>625.6666666666666</ele><time>2026-04-17T14:16:13Z</time></trkpt><trkpt lat="42.64378676720462" lon="12.342879869668208"><ele>630.3333333333334</ele><time>2026-04-17T14:16:14Z</time></trkpt><trkpt lat="42.643666133350514" lon="12.342814513774908"><ele>635.0</ele><time>2026-04-17T14:16:16Z</time></trkpt><trkpt lat="42.643603083736934" lon="12.34279059045678"><ele>639.6666666666667</ele><time>2026-04-17T14:16:17Z</time></trkpt><trkpt lat="42.64353255222549" lon="12.342801715791225"><ele>644.3333333333334</ele><time>2026-04-17T14:16:18Z</time></trkpt><trkpt lat="42.643459693128534" lon="12.342795738359252"><ele>649.0</ele><time>2026-04-17T14:16:19Z</time></trkpt><trkpt lat="42.643379217944705" lon="12.342770294167222"><ele>650.8000000000001</ele><time>2026-04-17T14:16:20Z</time></trkpt><trkpt lat="42.64329115992487" lon="12.342784142666009"><ele>652.6</ele><time>2026-04-17T14:16:21Z</time></trkpt><trkpt lat="42.64319567958982" lon="12.342766755015134"><ele>654.4</ele><time>2026-04-17T14:16:22Z</time></trkpt><trkpt lat="42.64310649891712" lon="12.342723742753268"><ele>656.2</ele><time>2026-04-17T14:16:23Z</time></trkpt><trkpt lat="42.64302646164926" lon="12.342694521356597"><ele>658.0</ele><time>2026-04-17T14:16:24Z</time></trkpt><trkpt lat="42.64293037572827" lon="12.342661204736386"><ele>658.0</ele><time>2026-04-17T14:16:25Z</time></trkpt><trkpt lat="42.64283421736877" lon="12.342629314766258"><ele>658.0</ele><time>2026-04-17T14:16:26Z</time></trkpt><trkpt lat="42.642722856237135" lon="12.342621476332628"><ele>658.0</ele><time>2026-04-17T14:16:27Z</time></trkpt><trkpt lat="42.64262988425595" lon="12.342587075820207"><ele>658.0</ele><time>2026-04-17T14:16:28Z</time></trkpt><trkpt lat="42.64253772274243" lon="12.342542924118655"><ele>658.0</ele><time>2026-04-17T14:16:29Z</time></trkpt><trkpt lat="42.64244301833989" lon="12.342477533521784"><ele>658.5</ele><time>2026-04-17T14:16:30Z</time></trkpt><trkpt lat="42.64234825839246" lon="12.342373144361927"><ele>659.0</ele><time>2026-04-17T14:16:31Z</time></trkpt><trkpt lat="42.64223421065969" lon="12.342297031872013"><ele>659.5</ele><time>2026-04-17T14:16:32Z</time></trkpt><trkpt lat="42.642118683045396" lon="12.342211524593447"><ele>660.0</ele><time>2026-04-17T14:16:33Z</time></trkpt><trkpt lat="42.64200448382154" lon="12.34214926698446"><ele>666.6</ele><time>2026-04-17T14:16:34Z</time></trkpt><trkpt lat="42.64191356423605" lon="12.342100444538799"><ele>673.2</ele><time>2026-04-17T14:16:35Z</time></trkpt><trkpt lat="42.64180367900751" lon="12.342028138887125"><ele>679.8</ele><time>2026-04-17T14:16:36Z</time></trkpt><trkpt lat="42.64167657888089" lon="12.341952903149627"><ele>686.4</ele><time>2026-04-17T14:16:37Z</time></trkpt><trkpt lat="42.64158775931807" lon="12.341926420244942"><ele>693.0</ele><time>2026-04-17T14:16:38Z</time></trkpt><trkpt lat="42.64151749943703" lon="12.34194403326984"><ele>693.0</ele><time>2026-04-17T14:16:39Z</time></trkpt><trkpt lat="42.6414436581421" lon="12.341966274810984"><ele>693.0</ele><time>2026-04-17T14:16:40Z</time></trkpt><trkpt lat="42.64138643548068" lon="12.342030609413115"><ele>693.0</ele><time>2026-04-17T14:16:41Z</time></trkpt><trkpt lat="42.64133737746786" lon="12.342121593789605"><ele>693.0</ele><time>2026-04-17T14:16:42Z</time></trkpt><trkpt lat="42.64133131849563" lon="12.342243789188151"><ele>693.0</ele><time>2026-04-17T14:16:43Z</time></trkpt><trkpt lat="42.641300988951215" lon="12.342352293208872"><ele>693.0</ele><time>2026-04-17T14:16:44Z</time></trkpt><trkpt lat="42.641276510052776" lon="12.342453339311602"><ele>693.5</ele><time>2026-04-17T14:16:45Z</time></trkpt><trkpt lat="42.641181823211596" lon="12.342535933804784"><ele>694.0</ele><time>2026-04-17T14:16:47Z</time></trkpt><trkpt lat="42.64111474632072" lon="12.342553727415828"><ele>694.5</ele><time>2026-04-17T14:16:48Z</time></trkpt><trkpt lat="42.641042455645675" lon="12.342513221121214"><ele>695.0</ele><time>2026-04-17T14:16:49Z</time></trkpt><trkpt lat="42.64094971157419" lon="12.342511606499501"><ele>695.5</ele><time>2026-04-17T14:16:50Z</time></trkpt><trkpt lat="42.64086447789521" lon="12.342492338747201"><ele>696.0</ele><time>2026-04-17T14:16:51Z</time></trkpt><trkpt lat="42.64079524205889" lon="12.342497701703316"><ele>696.0</ele><time>2026-04-17T14:16:52Z</time></trkpt><trkpt lat="42.640682414468635" lon="12.342583310875828"><ele>696.0</ele><time>2026-04-17T14:16:54Z</time></trkpt><trkpt lat="42.64065632341534" lon="12.342704958686328"><ele>696.0</ele><time>2026-04-17T14:16:55Z</time></trkpt><trkpt lat="42.64061367294324" lon="12.34283851536759"><ele>696.0</ele><time>2026-04-17T14:16:56Z</time></trkpt><trkpt lat="42.64054861954203" lon="12.342982640429447"><ele>697.8333333333334</ele><time>2026-04-17T14:16:57Z</time></trkpt><trkpt lat="42.640528240269994" lon="12.343132595010314"><ele>699.6666666666666</ele><time>2026-04-17T14:16:58Z</time></trkpt><trkpt lat="42.64049391495238" lon="12.34324027059067"><ele>701.5</ele><time>2026-04-17T14:16:59Z</time></trkpt><trkpt lat="42.64044036887733" lon="12.343319124015542"><ele>703.3333333333333</ele><time>2026-04-17T14:17:00Z</time></trkpt><trkpt lat="42.64041182442966" lon="12.343398373778378"><ele>705.1666666666666</ele><time>2026-04-17T14:17:01Z</time></trkpt><trkpt lat="42.640341619054716" lon="12.343438159367436"><ele>707.0</ele><time>2026-04-17T14:17:02Z</time></trkpt><trkpt lat="42.64026907082084" lon="12.343472347644644"><ele>707.0</ele><time>2026-04-17T14:17:03Z</time></trkpt><trkpt lat="42.64018492138623" lon="12.343487937440148"><ele>707.0</ele><time>2026-04-17T14:17:04Z</time></trkpt><trkpt lat="42.64006520823929" lon="12.343519894067155"><ele>707.0</ele><time>2026-04-17T14:17:05Z</time></trkpt><trkpt lat="42.63992472207103" lon="12.343555903041866"><ele>707.0</ele><time>2026-04-17T14:17:06Z</time></trkpt><trkpt lat="42.63981075457476" lon="12.34361270782488"><ele>707.0</ele><time>2026-04-17T14:17:07Z</time></trkpt><trkpt lat="42.639687510902775" lon="12.343637028128178"><ele>707.0</ele><time>2026-04-17T14:17:08Z</time></trkpt><trkpt lat="42.63958734701655" lon="12.343688735471709"><ele>707.0</ele><time>2026-04-17T14:17:09Z</time></trkpt><trkpt lat="42.63949841406977" lon="12.34372543568445"><ele>707.0</ele><time>2026-04-17T14:17:10Z</time></trkpt><trkpt lat="42.6394148679083" lon="12.343768524236937"><ele>707.0</ele><time>2026-04-17T14:17:11Z</time></trkpt><trkpt lat="42.63934427887641" lon="12.343821289696386"><ele>708.8</ele><time>2026-04-17T14:17:12Z</time></trkpt><trkpt lat="42.63929294479439" lon="12.343915896077146"><ele>710.6</ele><time>2026-04-17T14:17:13Z</time></trkpt><trkpt lat="42.63928416157333" lon="12.344052896074698"><ele>712.4</ele><time>2026-04-17T14:17:14Z</time></trkpt><trkpt lat="42.63928232637718" lon="12.344215164798165"><ele>714.1999999999999</ele><time>2026-04-17T14:17:15Z</time></trkpt><trkpt lat="42.639299539602945" lon="12.34439965885035"><ele>716.0</ele><time>2026-04-17T14:17:16Z</time></trkpt><trkpt lat="42.6393251166818" lon="12.34455189914467"><ele>716.0</ele><time>2026-04-17T14:17:17Z</time></trkpt><trkpt lat="42.63934850044682" lon="12.34470095666552"><ele>716.0</ele><time>2026-04-17T14:17:18Z</time></trkpt><trkpt lat="42.639353263412296" lon="12.344846672481877"><ele>716.0</ele><time>2026-04-17T14:17:19Z</time></trkpt><trkpt lat="42.63935610596668" lon="12.344975558973989"><ele>716.0</ele><time>2026-04-17T14:17:20Z</time></trkpt><trkpt lat="42.639371163873534" lon="12.345076431624818"><ele>716.0</ele><time>2026-04-17T14:17:21Z</time></trkpt><trkpt lat="42.63936298667165" lon="12.345204294398235"><ele>715.1666666666666</ele><time>2026-04-17T14:17:22Z</time></trkpt><trkpt lat="42.63931418614662" lon="12.345295283169847"><ele>714.3333333333333</ele><time>2026-04-17T14:17:23Z</time></trkpt><trkpt lat="42.639282148114255" lon="12.345371775501093"><ele>713.5</ele><time>2026-04-17T14:17:24Z</time></trkpt><trkpt lat="42.639251989557756" lon="12.3454502232104"><ele>712.6666666666666</ele><time>2026-04-17T14:17:25Z</time></trkpt><trkpt lat="42.63916844123711" lon="12.345603111477812"><ele>711.8333333333334</ele><time>2026-04-17T14:17:27Z</time></trkpt><trkpt lat="42.63910780692968" lon="12.345689350491233"><ele>711.0</ele><time>2026-04-17T14:17:28Z</time></trkpt><trkpt lat="42.63904501540039" lon="12.345800543299655"><ele>708.0</ele><time>2026-04-17T14:17:29Z</time></trkpt><trkpt lat="42.63898532844965" lon="12.34593165987465"><ele>705.0</ele><time>2026-04-17T14:17:30.001Z</time></trkpt><trkpt lat="42.638930001007566" lon="12.346100694701486"><ele>702.0</ele><time>2026-04-17T14:17:31.001Z</time></trkpt><trkpt lat="42.63888226445991" lon="12.346285057776582"><ele>699.0</ele><time>2026-04-17T14:17:32.001Z</time></trkpt><trkpt lat="42.63885663096032" lon="12.346478336442269"><ele>696.5</ele><time>2026-04-17T14:17:33.001Z</time></trkpt><trkpt lat="42.63884943300044" lon="12.346692749012313"><ele>694.0</ele><time>2026-04-17T14:17:34.001Z</time></trkpt><trkpt lat="42.63883359232981" lon="12.346862920022293"><ele>691.5</ele><time>2026-04-17T14:17:35.001Z</time></trkpt><trkpt lat="42.638815308760485" lon="12.346988739215144"><ele>689.0</ele><time>2026-04-17T14:17:36.001Z</time></trkpt><trkpt lat="42.638805968898176" lon="12.347098679566129"><ele>688.8000000000001</ele><time>2026-04-17T14:17:37.001Z</time></trkpt><trkpt lat="42.63881285602813" lon="12.347216592177226"><ele>688.6</ele><time>2026-04-17T14:17:38.001Z</time></trkpt><trkpt lat="42.63878292788498" lon="12.347303593007913"><ele>688.4</ele><time>2026-04-17T14:17:39.001Z</time></trkpt><trkpt lat="42.63869512560145" lon="12.347400491192117"><ele>688.2</ele><time>2026-04-17T14:17:41.001Z</time></trkpt><trkpt lat="42.638616087187955" lon="12.347352816934897"><ele>688.0</ele><time>2026-04-17T14:17:42Z</time></trkpt><trkpt lat="42.63851394308209" lon="12.347375155971298"><ele>688.8</ele><time>2026-04-17T14:17:43Z</time></trkpt><trkpt lat="42.6384243742999" lon="12.34741253338992"><ele>689.5999999999999</ele><time>2026-04-17T14:17:44Z</time></trkpt><trkpt lat="42.63833102223094" lon="12.347402408506243"><ele>690.4000000000001</ele><time>2026-04-17T14:17:45Z</time></trkpt><trkpt lat="42.63823961095561" lon="12.347454169320264"><ele>691.2</ele><time>2026-04-17T14:17:46Z</time></trkpt><trkpt lat="42.63815824160347" lon="12.347500334119642"><ele>692.0</ele><time>2026-04-17T14:17:47Z</time></trkpt><trkpt lat="42.638062040708256" lon="12.34755828681627"><ele>692.0</ele><time>2026-04-17T14:17:48Z</time></trkpt><trkpt lat="42.63797073052447" lon="12.347638205460395"><ele>692.0</ele><time>2026-04-17T14:17:49Z</time></trkpt><trkpt lat="42.63791469756527" lon="12.347749853951528"><ele>692.0</ele><time>2026-04-17T14:17:50Z</time></trkpt><trkpt lat="42.63786826491891" lon="12.347856012912803"><ele>692.0</ele><time>2026-04-17T14:17:51Z</time></trkpt><trkpt lat="42.63782232996456" lon="12.347949405283018"><ele>692.0</ele><time>2026-04-17T14:17:52Z</time></trkpt><trkpt lat="42.63776394142706" lon="12.348015897778058"><ele>689.2</ele><time>2026-04-17T14:17:53Z</time></trkpt><trkpt lat="42.63767792267274" lon="12.34806605801375"><ele>686.4000000000001</ele><time>2026-04-17T14:17:54Z</time></trkpt><trkpt lat="42.63757650076694" lon="12.348063343429159"><ele>683.5999999999999</ele><time>2026-04-17T14:17:55Z</time></trkpt><trkpt lat="42.63746831889102" lon="12.348076188227072"><ele>680.8</ele><time>2026-04-17T14:17:56Z</time></trkpt><trkpt lat="42.63734646556213" lon="12.348116868088429"><ele>678.0</ele><time>2026-04-17T14:17:57Z</time></trkpt><trkpt lat="42.637224679972775" lon="12.348144427926389"><ele>678.0</ele><time>2026-04-17T14:17:58Z</time></trkpt><trkpt lat="42.63712498272124" lon="12.348182158174994"><ele>678.0</ele><time>2026-04-17T14:17:59Z</time></trkpt><trkpt lat="42.63705413335266" lon="12.348236657462346"><ele>678.0</ele><time>2026-04-17T14:18:00Z</time></trkpt><trkpt lat="42.63700198527411" lon="12.348318034617106"><ele>678.0</ele><time>2026-04-17T14:18:01Z</time></trkpt><trkpt lat="42.636962321234364" lon="12.348422958673186"><ele>678.0</ele><time>2026-04-17T14:18:02Z</time></trkpt><trkpt lat="42.63690928277069" lon="12.34855937124555"><ele>675.8</ele><time>2026-04-17T14:18:03Z</time></trkpt><trkpt lat="42.63686907118746" lon="12.34867048824329"><ele>673.5999999999999</ele><time>2026-04-17T14:18:04Z</time></trkpt><trkpt lat="42.636827860732744" lon="12.348772802734079"><ele>671.4000000000001</ele><time>2026-04-17T14:18:05Z</time></trkpt><trkpt lat="42.636781101883635" lon="12.348840979732383"><ele>669.2</ele><time>2026-04-17T14:18:06Z</time></trkpt><trkpt lat="42.636675668810895" lon="12.348925342887366"><ele>667.0</ele><time>2026-04-17T14:18:08Z</time></trkpt><trkpt lat="42.63655850822058" lon="12.348930216415964"><ele>667.0</ele><time>2026-04-17T14:18:10Z</time></trkpt><trkpt lat="42.63649172040925" lon="12.34890940897585"><ele>667.0</ele><time>2026-04-17T14:18:11Z</time></trkpt><trkpt lat="42.63638963913319" lon="12.348895412614349"><ele>667.0</ele><time>2026-04-17T14:18:12Z</time></trkpt><trkpt lat="42.63625103351038" lon="12.34888129520372"><ele>667.0</ele><time>2026-04-17T14:18:13Z</time></trkpt><trkpt lat="42.63609830060262" lon="12.348865284872177"><ele>672.0</ele><time>2026-04-17T14:18:14Z</time></trkpt><trkpt lat="42.635953759614615" lon="12.348861380203896"><ele>677.0</ele><time>2026-04-17T14:18:15Z</time></trkpt><trkpt lat="42.6358242209759" lon="12.348833020382578"><ele>682.0</ele><time>2026-04-17T14:18:16Z</time></trkpt><trkpt lat="42.63570416245718" lon="12.348810335665632"><ele>687.0</ele><time>2026-04-17T14:18:17Z</time></trkpt><trkpt lat="42.63558617342561" lon="12.348784873542414"><ele>687.0</ele><time>2026-04-17T14:18:18Z</time></trkpt><trkpt lat="42.635476498260466" lon="12.348756524671742"><ele>687.0</ele><time>2026-04-17T14:18:19Z</time></trkpt><trkpt lat="42.63536514661046" lon="12.348737257943055"><ele>687.0</ele><time>2026-04-17T14:18:20Z</time></trkpt><trkpt lat="42.635253201579104" lon="12.34867714931288"><ele>687.0</ele><time>2026-04-17T14:18:21Z</time></trkpt><trkpt lat="42.63513858771777" lon="12.34860762113406"><ele>684.4000000000001</ele><time>2026-04-17T14:18:22Z</time></trkpt><trkpt lat="42.63502434168596" lon="12.348548758996968"><ele>681.8000000000001</ele><time>2026-04-17T14:18:23Z</time></trkpt><trkpt lat="42.63491380807718" lon="12.348499741045067"><ele>679.2</ele><time>2026-04-17T14:18:24Z</time></trkpt><trkpt lat="42.63480607909077" lon="12.34845500765645"><ele>676.6</ele><time>2026-04-17T14:18:25Z</time></trkpt><trkpt lat="42.63472127341059" lon="12.348418830758757"><ele>674.0</ele><time>2026-04-17T14:18:26Z</time></trkpt><trkpt lat="42.63462556904527" lon="12.348414764371682"><ele>674.0</ele><time>2026-04-17T14:18:27Z</time></trkpt><trkpt lat="42.634505496275196" lon="12.348444879524111"><ele>674.0</ele><time>2026-04-17T14:18:28Z</time></trkpt><trkpt lat="42.63438958672035" lon="12.34846668970117"><ele>674.0</ele><time>2026-04-17T14:18:29Z</time></trkpt><trkpt lat="42.63429295304942" lon="12.348477574630314"><ele>674.0</ele><time>2026-04-17T14:18:30Z</time></trkpt><trkpt lat="42.634205817747834" lon="12.348470043895942"><ele>674.0</ele><time>2026-04-17T14:18:31Z</time></trkpt><trkpt lat="42.63412586879976" lon="12.34844272992557"><ele>671.8333333333333</ele><time>2026-04-17T14:18:32Z</time></trkpt><trkpt lat="42.63405059212066" lon="12.34839242503711"><ele>669.6666666666666</ele><time>2026-04-17T14:18:33Z</time></trkpt><trkpt lat="42.63397835892901" lon="12.348320612886859"><ele>667.5</ele><time>2026-04-17T14:18:34Z</time></trkpt><trkpt lat="42.63389668838095" lon="12.348244517077175"><ele>665.3333333333334</ele><time>2026-04-17T14:18:35Z</time></trkpt><trkpt lat="42.63382425545382" lon="12.348214655481039"><ele>663.1666666666667</ele><time>2026-04-17T14:18:36Z</time></trkpt><trkpt lat="42.63374766837762" lon="12.348216812970199"><ele>661.0</ele><time>2026-04-17T14:18:37Z</time></trkpt><trkpt lat="42.6336515036355" lon="12.348249812990394"><ele>660.0</ele><time>2026-04-17T14:18:38Z</time></trkpt><trkpt lat="42.633522910048285" lon="12.348317644851726"><ele>659.0</ele><time>2026-04-17T14:18:39Z</time></trkpt><trkpt lat="42.633412416928444" lon="12.348377114280794"><ele>658.0</ele><time>2026-04-17T14:18:40Z</time></trkpt><trkpt lat="42.633320272612636" lon="12.348397224004012"><ele>657.0</ele><time>2026-04-17T14:18:41Z</time></trkpt><trkpt lat="42.63323656831439" lon="12.34838816896462"><ele>656.0</ele><time>2026-04-17T14:18:42Z</time></trkpt><trkpt lat="42.63315091784004" lon="12.34833775784194"><ele>656.0</ele><time>2026-04-17T14:18:43Z</time></trkpt><trkpt lat="42.633059863905245" lon="12.348300440919088"><ele>656.0</ele><time>2026-04-17T14:18:44Z</time></trkpt><trkpt lat="42.63296080137371" lon="12.348252648049694"><ele>656.0</ele><time>2026-04-17T14:18:45Z</time></trkpt><trkpt lat="42.63286694460347" lon="12.34819492170806"><ele>656.0</ele><time>2026-04-17T14:18:46Z</time></trkpt><trkpt lat="42.63279131052072" lon="12.348122077366819"><ele>656.0</ele><time>2026-04-17T14:18:47Z</time></trkpt><trkpt lat="42.63270973599822" lon="12.348034519910103"><ele>658.5999999999999</ele><time>2026-04-17T14:18:48Z</time></trkpt><trkpt lat="42.63261200119398" lon="12.347924745563757"><ele>661.2</ele><time>2026-04-17T14:18:49Z</time></trkpt><trkpt lat="42.63253113924578" lon="12.347841372897044"><ele>663.8</ele><time>2026-04-17T14:18:50Z</time></trkpt><trkpt lat="42.632472472451525" lon="12.347749440441866"><ele>666.4000000000001</ele><time>2026-04-17T14:18:51Z</time></trkpt><trkpt lat="42.63239382082447" lon="12.347703070457955"><ele>669.0</ele><time>2026-04-17T14:18:52Z</time></trkpt><trkpt lat="42.63227211123482" lon="12.347660939984923"><ele>669.0</ele><time>2026-04-17T14:18:53Z</time></trkpt><trkpt lat="42.632133256061955" lon="12.34766755970513"><ele>669.0</ele><time>2026-04-17T14:18:54Z</time></trkpt><trkpt lat="42.632030983400554" lon="12.347647848473583"><ele>669.0</ele><time>2026-04-17T14:18:55Z</time></trkpt><trkpt lat="42.631949354517225" lon="12.347564336560824"><ele>669.0</ele><time>2026-04-17T14:18:56Z</time></trkpt><trkpt lat="42.631845848141396" lon="12.347487075504201"><ele>667.4000000000001</ele><time>2026-04-17T14:18:57Z</time></trkpt><trkpt lat="42.63173667716721" lon="12.347415686747425"><ele>665.8</ele><time>2026-04-17T14:18:58Z</time></trkpt><trkpt lat="42.63163246113005" lon="12.347374121988915"><ele>664.2</ele><time>2026-04-17T14:18:59Z</time></trkpt><trkpt lat="42.631549192650375" lon="12.347351925146754"><ele>662.5999999999999</ele><time>2026-04-17T14:19:00Z</time></trkpt><trkpt lat="42.63145718296418" lon="12.347385474689005"><ele>661.0</ele><time>2026-04-17T14:19:01Z</time></trkpt><trkpt lat="42.631361057682554" lon="12.347446144288266"><ele>661.0</ele><time>2026-04-17T14:19:02Z</time></trkpt><trkpt lat="42.63126265798918" lon="12.347534435126631"><ele>661.0</ele><time>2026-04-17T14:19:03Z</time></trkpt><trkpt lat="42.631155155525605" lon="12.347589147498532"><ele>661.0</ele><time>2026-04-17T14:19:04Z</time></trkpt><trkpt lat="42.63103401701319" lon="12.347677257299619"><ele>661.0</ele><time>2026-04-17T14:19:05Z</time></trkpt><trkpt lat="42.63090893903794" lon="12.347717027955175"><ele>663.75</ele><time>2026-04-17T14:19:06Z</time></trkpt><trkpt lat="42.63079506148768" lon="12.347753292062812"><ele>666.5</ele><time>2026-04-17T14:19:07Z</time></trkpt><trkpt lat="42.630688411790615" lon="12.347813320354234"><ele>669.25</ele><time>2026-04-17T14:19:08Z</time></trkpt><trkpt lat="42.630593590268376" lon="12.34789769615935"><ele>672.0</ele><time>2026-04-17T14:19:09Z</time></trkpt><trkpt lat="42.63050076455833" lon="12.348007349149974"><ele>672.5</ele><time>2026-04-17T14:19:10Z</time></trkpt><trkpt lat="42.63037773884745" lon="12.348137190882827"><ele>673.0</ele><time>2026-04-17T14:19:11Z</time></trkpt><trkpt lat="42.630266910493006" lon="12.348250861947069"><ele>673.5</ele><time>2026-04-17T14:19:12Z</time></trkpt><trkpt lat="42.630162775565374" lon="12.348343336371585"><ele>674.0</ele><time>2026-04-17T14:19:13Z</time></trkpt><trkpt lat="42.630059797601525" lon="12.348404059864869"><ele>674.0</ele><time>2026-04-17T14:19:14Z</time></trkpt><trkpt lat="42.62994185592848" lon="12.348460152714937"><ele>674.0</ele><time>2026-04-17T14:19:15Z</time></trkpt><trkpt lat="42.629853362216664" lon="12.3485111045123"><ele>674.0</ele><time>2026-04-17T14:19:16Z</time></trkpt><trkpt lat="42.629779335408266" lon="12.348549820018311"><ele>674.0</ele><time>2026-04-17T14:19:17Z</time></trkpt><trkpt lat="42.62970078427311" lon="12.348586734897399"><ele>674.0</ele><time>2026-04-17T14:19:18Z</time></trkpt><trkpt lat="42.629620014987" lon="12.348623455138902"><ele>674.0</ele><time>2026-04-17T14:19:19Z</time></trkpt><trkpt lat="42.62955658855943" lon="12.348689118922241"><ele>674.0</ele><time>2026-04-17T14:19:20Z</time></trkpt><trkpt lat="42.62947161283202" lon="12.348778965592395"><ele>674.0</ele><time>2026-04-17T14:19:21Z</time></trkpt><trkpt lat="42.62942689221185" lon="12.348931449334074"><ele>674.0</ele><time>2026-04-17T14:19:22Z</time></trkpt><trkpt lat="42.62935837988806" lon="12.349090011268984"><ele>674.0</ele><time>2026-04-17T14:19:23Z</time></trkpt><trkpt lat="42.62928879882108" lon="12.349157193206725"><ele>674.8333333333333</ele><time>2026-04-17T14:19:24Z</time></trkpt><trkpt lat="42.6292285825337" lon="12.349215517103083"><ele>675.6666666666666</ele><time>2026-04-17T14:19:25Z</time></trkpt><trkpt lat="42.629158357837156" lon="12.349285102754045"><ele>676.5</ele><time>2026-04-17T14:19:26Z</time></trkpt><trkpt lat="42.629082827800865" lon="12.349330029486923"><ele>677.3333333333334</ele><time>2026-04-17T14:19:27Z</time></trkpt><trkpt lat="42.62899727316455" lon="12.349381386290107"><ele>678.1666666666667</ele><time>2026-04-17T14:19:28Z</time></trkpt><trkpt lat="42.62890885428108" lon="12.349462399773325"><ele>679.0</ele><time>2026-04-17T14:19:29Z</time></trkpt><trkpt lat="42.628807838425885" lon="12.349519348784256"><ele>679.0</ele><time>2026-04-17T14:19:30Z</time></trkpt><trkpt lat="42.628694774589356" lon="12.349549530367817"><ele>679.0</ele><time>2026-04-17T14:19:31Z</time></trkpt><trkpt lat="42.62860075331253" lon="12.34958175821662"><ele>679.0</ele><time>2026-04-17T14:19:32Z</time></trkpt><trkpt lat="42.628524205833344" lon="12.349631092559688"><ele>679.0</ele><time>2026-04-17T14:19:33Z</time></trkpt><trkpt lat="42.62844213043692" lon="12.3496491849658"><ele>679.0</ele><time>2026-04-17T14:19:34Z</time></trkpt><trkpt lat="42.628356237945056" lon="12.349631599297142"><ele>680.6666666666667</ele><time>2026-04-17T14:19:35Z</time></trkpt><trkpt lat="42.62827593152155" lon="12.349639247516372"><ele>682.3333333333334</ele><time>2026-04-17T14:19:36Z</time></trkpt><trkpt lat="42.62819482763099" lon="12.349630339736978"><ele>684.0</ele><time>2026-04-17T14:19:37Z</time></trkpt><trkpt lat="42.62811567475119" lon="12.34960133231987"><ele>685.6666666666666</ele><time>2026-04-17T14:19:38Z</time></trkpt><trkpt lat="42.62804768045399" lon="12.349571938382988"><ele>687.3333333333333</ele><time>2026-04-17T14:19:39Z</time></trkpt><trkpt lat="42.627982968059484" lon="12.349542259536229"><ele>689.0</ele><time>2026-04-17T14:19:40Z</time></trkpt><trkpt lat="42.62790211789514" lon="12.349500168982638"><ele>689.0</ele><time>2026-04-17T14:19:41.001Z</time></trkpt><trkpt lat="42.6278251968844" lon="12.349464737100561"><ele>689.0</ele><time>2026-04-17T14:19:42.001Z</time></trkpt><trkpt lat="42.62776286671099" lon="12.349363636038966"><ele>689.0</ele><time>2026-04-17T14:19:43.001Z</time></trkpt><trkpt lat="42.62766844587889" lon="12.349279152384186"><ele>689.0</ele><time>2026-04-17T14:19:44.001Z</time></trkpt><trkpt lat="42.62756591727079" lon="12.349202785171848"><ele>689.0</ele><time>2026-04-17T14:19:45.001Z</time></trkpt><trkpt lat="42.62748112479017" lon="12.349151904408197"><ele>690.1666666666666</ele><time>2026-04-17T14:19:46.001Z</time></trkpt><trkpt lat="42.62742572656017" lon="12.349093604719489"><ele>691.3333333333333</ele><time>2026-04-17T14:19:47.001Z</time></trkpt><trkpt lat="42.627371572416855" lon="12.34902808715255"><ele>692.5</ele><time>2026-04-17T14:19:49Z</time></trkpt><trkpt lat="42.62736302207958" lon="12.348930169628302"><ele>693.6666666666666</ele><time>2026-04-17T14:19:51Z</time></trkpt><trkpt lat="42.62734839703357" lon="12.348838226449537"><ele>694.8333333333334</ele><time>2026-04-17T14:19:53Z</time></trkpt><trkpt lat="42.62741785951632" lon="12.348771733833129"><ele>696.0</ele><time>2026-04-17T14:19:55Z</time></trkpt><trkpt lat="42.6275253781042" lon="12.348782432641292"><ele>698.4</ele><time>2026-04-17T14:19:57Z</time></trkpt><trkpt lat="42.62763336792497" lon="12.348750725596908"><ele>700.8</ele><time>2026-04-17T14:19:59Z</time></trkpt><trkpt lat="42.627725721297374" lon="12.34867681284409"><ele>703.1999999999999</ele><time>2026-04-17T14:20:01Z</time></trkpt><trkpt lat="42.62779259988721" lon="12.348590368776971"><ele>705.5999999999999</ele><time>2026-04-17T14:20:03Z</time></trkpt><trkpt lat="42.62779021071235" lon="12.34842236203263"><ele>708.0</ele><time>2026-04-17T14:20:05Z</time></trkpt><trkpt lat="42.62775816381217" lon="12.348345808919927"><ele>708.0</ele><time>2026-04-17T14:20:06Z</time></trkpt><trkpt lat="42.62770514622305" lon="12.348270118832776"><ele>708.0</ele><time>2026-04-17T14:20:07Z</time></trkpt><trkpt lat="42.627625396010124" lon="12.348201270363198"><ele>708.0</ele><time>2026-04-17T14:20:08Z</time></trkpt><trkpt lat="42.62754160736368" lon="12.348141258547656"><ele>708.0</ele><time>2026-04-17T14:20:09Z</time></trkpt><trkpt lat="42.62745823539518" lon="12.348082895386566"><ele>708.0</ele><time>2026-04-17T14:20:10Z</time></trkpt><trkpt lat="42.62738373500261" lon="12.348004053845333"><ele>709.5999999999999</ele><time>2026-04-17T14:20:11Z</time></trkpt><trkpt lat="42.6273066780025" lon="12.347930691083551"><ele>711.1999999999999</ele><time>2026-04-17T14:20:12Z</time></trkpt><trkpt lat="42.62721514576645" lon="12.347854581151246"><ele>712.8</ele><time>2026-04-17T14:20:13Z</time></trkpt><trkpt lat="42.62711557169389" lon="12.347784553959022"><ele>714.4</ele><time>2026-04-17T14:20:14Z</time></trkpt><trkpt lat="42.627049805135265" lon="12.347699192479354"><ele>716.0</ele><time>2026-04-17T14:20:15Z</time></trkpt><trkpt lat="42.62699772978477" lon="12.347593428633758"><ele>716.5</ele><time>2026-04-17T14:20:16Z</time></trkpt><trkpt lat="42.62693259565617" lon="12.347477421325145"><ele>717.0</ele><time>2026-04-17T14:20:17Z</time></trkpt><trkpt lat="42.62684986795268" lon="12.347340055821302"><ele>717.5</ele><time>2026-04-17T14:20:18Z</time></trkpt><trkpt lat="42.626762046150525" lon="12.347201581280025"><ele>718.0</ele><time>2026-04-17T14:20:19Z</time></trkpt><trkpt lat="42.62671887600797" lon="12.347094520216539"><ele>719.5</ele><time>2026-04-17T14:20:20Z</time></trkpt><trkpt lat="42.626698093380575" lon="12.346994427210241"><ele>721.0</ele><time>2026-04-17T14:20:21Z</time></trkpt><trkpt lat="42.6266968815628" lon="12.346892016571882"><ele>722.5</ele><time>2026-04-17T14:20:22Z</time></trkpt><trkpt lat="42.626707504368945" lon="12.34680227691381"><ele>724.0</ele><time>2026-04-17T14:20:23Z</time></trkpt><trkpt lat="42.62674268699061" lon="12.346727781374122"><ele>725.5</ele><time>2026-04-17T14:20:24Z</time></trkpt><trkpt lat="42.626779883372514" lon="12.346633207017604"><ele>727.0</ele><time>2026-04-17T14:20:25Z</time></trkpt><trkpt lat="42.62680994937573" lon="12.346512332463492"><ele>727.0</ele><time>2026-04-17T14:20:26Z</time></trkpt><trkpt lat="42.62684672515973" lon="12.346405471063091"><ele>727.0</ele><time>2026-04-17T14:20:27Z</time></trkpt><trkpt lat="42.62687116647142" lon="12.346286045159987"><ele>727.0</ele><time>2026-04-17T14:20:28Z</time></trkpt><trkpt lat="42.626875937758776" lon="12.346179349338438"><ele>727.0</ele><time>2026-04-17T14:20:29Z</time></trkpt><trkpt lat="42.62687719468504" lon="12.34604403911205"><ele>727.0</ele><time>2026-04-17T14:20:31Z</time></trkpt><trkpt lat="42.62684147347646" lon="12.34592102256751"><ele>727.6666666666667</ele><time>2026-04-17T14:20:33Z</time></trkpt><trkpt lat="42.6267998072729" lon="12.345788492405298"><ele>728.3333333333334</ele><time>2026-04-17T14:20:35Z</time></trkpt><trkpt lat="42.62676528746053" lon="12.345711197421592"><ele>729.0</ele><time>2026-04-17T14:20:36Z</time></trkpt><trkpt lat="42.6267089481357" lon="12.345623794166324"><ele>729.6666666666666</ele><time>2026-04-17T14:20:37Z</time></trkpt><trkpt lat="42.6266579296977" lon="12.345550202549571"><ele>730.3333333333333</ele><time>2026-04-17T14:20:38Z</time></trkpt><trkpt lat="42.62660698820979" lon="12.345480106311832"><ele>731.0</ele><time>2026-04-17T14:20:39Z</time></trkpt><trkpt lat="42.626546766382496" lon="12.345411495535746"><ele>729.6666666666666</ele><time>2026-04-17T14:20:40Z</time></trkpt><trkpt lat="42.626491180898114" lon="12.345334465516752"><ele>728.3333333333333</ele><time>2026-04-17T14:20:41Z</time></trkpt><trkpt lat="42.626430707184525" lon="12.345265032695137"><ele>727.0</ele><time>2026-04-17T14:20:42Z</time></trkpt><trkpt lat="42.626375038567886" lon="12.34518893365965"><ele>725.6666666666666</ele><time>2026-04-17T14:20:43Z</time></trkpt><trkpt lat="42.62631407897618" lon="12.345123168804914"><ele>724.3333333333334</ele><time>2026-04-17T14:20:44Z</time></trkpt><trkpt lat="42.62625049051034" lon="12.345071564569174"><ele>723.0</ele><time>2026-04-17T14:20:45Z</time></trkpt><trkpt lat="42.62617192335922" lon="12.345017320782855"><ele>723.5999999999999</ele><time>2026-04-17T14:20:46Z</time></trkpt><trkpt lat="42.626098664563756" lon="12.3449678496156"><ele>724.1999999999999</ele><time>2026-04-17T14:20:47Z</time></trkpt><trkpt lat="42.62602658974907" lon="12.344925472797987"><ele>724.8</ele><time>2026-04-17T14:20:48Z</time></trkpt><trkpt lat="42.62593531235856" lon="12.344882529408505"><ele>725.4</ele><time>2026-04-17T14:20:49Z</time></trkpt><trkpt lat="42.6258382305438" lon="12.344833923279097"><ele>726.0</ele><time>2026-04-17T14:20:50Z</time></trkpt><trkpt lat="42.62575269740658" lon="12.344785058333624"><ele>726.0</ele><time>2026-04-17T14:20:51Z</time></trkpt><trkpt lat="42.62566479497264" lon="12.344765059649946"><ele>726.0</ele><time>2026-04-17T14:20:52Z</time></trkpt><trkpt lat="42.62557913417322" lon="12.344752203819507"><ele>726.0</ele><time>2026-04-17T14:20:53Z</time></trkpt><trkpt lat="42.62549921470629" lon="12.344740033461116"><ele>726.0</ele><time>2026-04-17T14:20:54Z</time></trkpt><trkpt lat="42.62542102335264" lon="12.344736182937948"><ele>726.0</ele><time>2026-04-17T14:20:55Z</time></trkpt><trkpt lat="42.62534209904799" lon="12.344745950348393"><ele>726.0</ele><time>2026-04-17T14:20:56Z</time></trkpt><trkpt lat="42.625256135496286" lon="12.344772581602424"><ele>724.25</ele><time>2026-04-17T14:20:57Z</time></trkpt><trkpt lat="42.6251517022062" lon="12.344810263245616"><ele>722.5</ele><time>2026-04-17T14:20:58Z</time></trkpt><trkpt lat="42.62502410036949" lon="12.344854462275663"><ele>720.75</ele><time>2026-04-17T14:20:59Z</time></trkpt><trkpt lat="42.62488016170166" lon="12.34492162050342"><ele>719.0</ele><time>2026-04-17T14:21:00Z</time></trkpt><trkpt lat="42.62476012987402" lon="12.344987408789622"><ele>719.0</ele><time>2026-04-17T14:21:01Z</time></trkpt><trkpt lat="42.624657307441986" lon="12.345039949260899"><ele>719.0</ele><time>2026-04-17T14:21:02Z</time></trkpt><trkpt lat="42.62455584410683" lon="12.345085537411972"><ele>719.0</ele><time>2026-04-17T14:21:03Z</time></trkpt><trkpt lat="42.62446240218305" lon="12.345126681267503"><ele>719.0</ele><time>2026-04-17T14:21:04Z</time></trkpt><trkpt lat="42.62436443040468" lon="12.345163336364646"><ele>719.0</ele><time>2026-04-17T14:21:05Z</time></trkpt><trkpt lat="42.62427030512675" lon="12.345192780005542"><ele>716.4000000000001</ele><time>2026-04-17T14:21:06Z</time></trkpt><trkpt lat="42.62417421442308" lon="12.34523259272494"><ele>713.8</ele><time>2026-04-17T14:21:07Z</time></trkpt><trkpt lat="42.624071147003335" lon="12.34525271904359"><ele>711.2</ele><time>2026-04-17T14:21:08Z</time></trkpt><trkpt lat="42.623967961956374" lon="12.345245950579807"><ele>708.5999999999999</ele><time>2026-04-17T14:21:09Z</time></trkpt><trkpt lat="42.623863671375815" lon="12.34523175922063"><ele>706.0</ele><time>2026-04-17T14:21:10Z</time></trkpt><trkpt lat="42.623764790547625" lon="12.345211536848282"><ele>706.0</ele><time>2026-04-17T14:21:11Z</time></trkpt><trkpt lat="42.623675414437386" lon="12.345186140147428"><ele>706.0</ele><time>2026-04-17T14:21:12Z</time></trkpt><trkpt lat="42.62359194476867" lon="12.345169362326798"><ele>706.0</ele><time>2026-04-17T14:21:13Z</time></trkpt><trkpt lat="42.62350382387546" lon="12.345168759504979"><ele>706.0</ele><time>2026-04-17T14:21:14Z</time></trkpt><trkpt lat="42.62342075756899" lon="12.345161576203772"><ele>706.0</ele><time>2026-04-17T14:21:15Z</time></trkpt><trkpt lat="42.62334267485467" lon="12.345144765063592"><ele>706.0</ele><time>2026-04-17T14:21:16Z</time></trkpt><trkpt lat="42.623277764527394" lon="12.345099694858153"><ele>706.1666666666667</ele><time>2026-04-17T14:21:17Z</time></trkpt><trkpt lat="42.62321436402613" lon="12.345021478684204"><ele>706.3333333333334</ele><time>2026-04-17T14:21:19Z</time></trkpt><trkpt lat="42.623227001115396" lon="12.34493292609087"><ele>706.5</ele><time>2026-04-17T14:21:21Z</time></trkpt><trkpt lat="42.623247021663275" lon="12.34477376016169"><ele>706.6666666666666</ele><time>2026-04-17T14:21:23Z</time></trkpt><trkpt lat="42.623256122612894" lon="12.344679737489512"><ele>706.8333333333333</ele><time>2026-04-17T14:21:24Z</time></trkpt><trkpt lat="42.62326839045151" lon="12.34459169568977"><ele>707.0</ele><time>2026-04-17T14:21:25.001Z</time></trkpt><trkpt lat="42.623272906627875" lon="12.34448556669671"><ele>704.8333333333333</ele><time>2026-04-17T14:21:26.001Z</time></trkpt><trkpt lat="42.62325215433643" lon="12.344377798335252"><ele>702.6666666666666</ele><time>2026-04-17T14:21:27.001Z</time></trkpt><trkpt lat="42.62324956615949" lon="12.344272321598707"><ele>700.5</ele><time>2026-04-17T14:21:28.001Z</time></trkpt><trkpt lat="42.62324475250908" lon="12.344150012301984"><ele>698.3333333333334</ele><time>2026-04-17T14:21:29.001Z</time></trkpt><trkpt lat="42.623252145764006" lon="12.344012391950404"><ele>696.1666666666667</ele><time>2026-04-17T14:21:30.001Z</time></trkpt><trkpt lat="42.62324803490779" lon="12.343883413783848"><ele>694.0</ele><time>2026-04-17T14:21:31.001Z</time></trkpt><trkpt lat="42.62324262935785" lon="12.343745392330534"><ele>692.4000000000001</ele><time>2026-04-17T14:21:32.001Z</time></trkpt><trkpt lat="42.623221230967076" lon="12.343602019942297"><ele>690.8</ele><time>2026-04-17T14:21:33.001Z</time></trkpt><trkpt lat="42.62321901767855" lon="12.343460449100885"><ele>689.2</ele><time>2026-04-17T14:21:34.001Z</time></trkpt><trkpt lat="42.623236143831235" lon="12.34332832496198"><ele>687.5999999999999</ele><time>2026-04-17T14:21:35.001Z</time></trkpt><trkpt lat="42.62322867478192" lon="12.343189937408313"><ele>686.0</ele><time>2026-04-17T14:21:36.001Z</time></trkpt><trkpt lat="42.62324460756273" lon="12.343035007221483"><ele>685.5999999999999</ele><time>2026-04-17T14:21:37.001Z</time></trkpt><trkpt lat="42.62326491946351" lon="12.342888416483378"><ele>685.2</ele><time>2026-04-17T14:21:38.001Z</time></trkpt><trkpt lat="42.623285392342645" lon="12.342758578731146"><ele>684.8</ele><time>2026-04-17T14:21:39.001Z</time></trkpt><trkpt lat="42.62330271478059" lon="12.342635578882986"><ele>684.4000000000001</ele><time>2026-04-17T14:21:40.001Z</time></trkpt><trkpt lat="42.62331772037687" lon="12.342522417783742"><ele>684.0</ele><time>2026-04-17T14:21:41.001Z</time></trkpt><trkpt lat="42.62332689869385" lon="12.342414321736275"><ele>684.0</ele><time>2026-04-17T14:21:42.001Z</time></trkpt><trkpt lat="42.62332907259434" lon="12.342303160904027"><ele>684.0</ele><time>2026-04-17T14:21:43.001Z</time></trkpt><trkpt lat="42.623309913253784" lon="12.34218063581997"><ele>684.0</ele><time>2026-04-17T14:21:44.001Z</time></trkpt><trkpt lat="42.62330748381576" lon="12.342065322520202"><ele>684.0</ele><time>2026-04-17T14:21:45.001Z</time></trkpt><trkpt lat="42.62330942526858" lon="12.341925935372313"><ele>684.0</ele><time>2026-04-17T14:21:46.001Z</time></trkpt><trkpt lat="42.62330567776532" lon="12.34177261808511"><ele>683.2</ele><time>2026-04-17T14:21:47.001Z</time></trkpt><trkpt lat="42.62330287899368" lon="12.341633158888307"><ele>682.4000000000001</ele><time>2026-04-17T14:21:48.001Z</time></trkpt><trkpt lat="42.623304632889884" lon="12.34150164712048"><ele>681.6</ele><time>2026-04-17T14:21:49.001Z</time></trkpt><trkpt lat="42.62331736010148" lon="12.341379673017066"><ele>680.8</ele><time>2026-04-17T14:21:50.001Z</time></trkpt><trkpt lat="42.6233298928556" lon="12.341259371879563"><ele>680.0</ele><time>2026-04-17T14:21:51.001Z</time></trkpt><trkpt lat="42.62334747780112" lon="12.34113475251661"><ele>678.5714285714286</ele><time>2026-04-17T14:21:52.001Z</time></trkpt><trkpt lat="42.62336893403845" lon="12.341028669309296"><ele>677.1428571428571</ele><time>2026-04-17T14:21:53.001Z</time></trkpt><trkpt lat="42.62339062662949" lon="12.340914415511584"><ele>675.7142857142857</ele><time>2026-04-17T14:21:54Z</time></trkpt><trkpt lat="42.623396766515" lon="12.34080643838083"><ele>674.2857142857142</ele><time>2026-04-17T14:21:55Z</time></trkpt><trkpt lat="42.6234007099572" lon="12.340712585995789"><ele>672.8571428571429</ele><time>2026-04-17T14:21:56Z</time></trkpt><trkpt lat="42.62339169906571" lon="12.340625619102363"><ele>671.4285714285713</ele><time>2026-04-17T14:21:57Z</time></trkpt><trkpt lat="42.623375874036164" lon="12.340542592549436"><ele>670.0</ele><time>2026-04-17T14:21:58Z</time></trkpt><trkpt lat="42.623337302320586" lon="12.340397742492646"><ele>666.8333333333334</ele><time>2026-04-17T14:22:00Z</time></trkpt><trkpt lat="42.62326603562062" lon="12.340283023773946"><ele>663.6666666666667</ele><time>2026-04-17T14:22:02Z</time></trkpt><trkpt lat="42.62321575257066" lon="12.340213248810908"><ele>660.5</ele><time>2026-04-17T14:22:03Z</time></trkpt><trkpt lat="42.62317012119246" lon="12.340148001827233"><ele>657.3333333333334</ele><time>2026-04-17T14:22:04Z</time></trkpt><trkpt lat="42.62312304545195" lon="12.34008011411627"><ele>654.1666666666666</ele><time>2026-04-17T14:22:05Z</time></trkpt><trkpt lat="42.623006415675334" lon="12.340002686759775"><ele>651.0</ele><time>2026-04-17T14:22:07Z</time></trkpt><trkpt lat="42.62295542960393" lon="12.339935428123356"><ele>651.0</ele><time>2026-04-17T14:22:08Z</time></trkpt><trkpt lat="42.622897678935175" lon="12.339887663025875"><ele>651.0</ele><time>2026-04-17T14:22:09Z</time></trkpt><trkpt lat="42.62279872956984" lon="12.339829735606695"><ele>651.0</ele><time>2026-04-17T14:22:11Z</time></trkpt><trkpt lat="42.62271499401848" lon="12.33978194207101"><ele>651.0</ele><time>2026-04-17T14:22:13Z</time></trkpt><trkpt lat="42.622628416227265" lon="12.339717563024315"><ele>651.0</ele><time>2026-04-17T14:22:15Z</time></trkpt><trkpt lat="42.62252100621793" lon="12.339682294928076"><ele>648.4</ele><time>2026-04-17T14:22:17Z</time></trkpt><trkpt lat="42.62238809865137" lon="12.3396085173338"><ele>645.8</ele><time>2026-04-17T14:22:19Z</time></trkpt><trkpt lat="42.62230153163909" lon="12.339566899810963"><ele>643.1999999999999</ele><time>2026-04-17T14:22:20Z</time></trkpt><trkpt lat="42.62222556052841" lon="12.339532486501895"><ele>640.5999999999999</ele><time>2026-04-17T14:22:21Z</time></trkpt><trkpt lat="42.62211774258574" lon="12.339475185193486"><ele>638.0</ele><time>2026-04-17T14:22:23Z</time></trkpt><trkpt lat="42.62201749869125" lon="12.339411049723346"><ele>639.1666666666666</ele><time>2026-04-17T14:22:25Z</time></trkpt><trkpt lat="42.62189719510663" lon="12.339349495177139"><ele>640.3333333333333</ele><time>2026-04-17T14:22:27Z</time></trkpt><trkpt lat="42.621835922925975" lon="12.339327476116782"><ele>641.5</ele><time>2026-04-17T14:22:28Z</time></trkpt><trkpt lat="42.621774049823145" lon="12.339306701702363"><ele>642.6666666666666</ele><time>2026-04-17T14:22:29Z</time></trkpt><trkpt lat="42.621703158386694" lon="12.339277113251805"><ele>643.8333333333334</ele><time>2026-04-17T14:22:30Z</time></trkpt><trkpt lat="42.62162799510417" lon="12.339226207398385"><ele>645.0</ele><time>2026-04-17T14:22:31Z</time></trkpt><trkpt lat="42.621561636729716" lon="12.33917540359554"><ele>645.0</ele><time>2026-04-17T14:22:32Z</time></trkpt><trkpt lat="42.62149628562987" lon="12.339147911579484"><ele>645.0</ele><time>2026-04-17T14:22:33Z</time></trkpt><trkpt lat="42.621391554039995" lon="12.339106743066125"><ele>645.0</ele><time>2026-04-17T14:22:35Z</time></trkpt><trkpt lat="42.621322613064606" lon="12.339021006851985"><ele>645.0</ele><time>2026-04-17T14:22:37Z</time></trkpt><trkpt lat="42.621218795185264" lon="12.338918666134427"><ele>645.0</ele><time>2026-04-17T14:22:39Z</time></trkpt><trkpt lat="42.621152733801146" lon="12.33889489683471"><ele>640.8333333333334</ele><time>2026-04-17T14:22:40Z</time></trkpt><trkpt lat="42.62106411289989" lon="12.338858230817275"><ele>636.6666666666666</ele><time>2026-04-17T14:22:42Z</time></trkpt><trkpt lat="42.62099589435814" lon="12.338828251690368"><ele>632.5</ele><time>2026-04-17T14:22:44Z</time></trkpt><trkpt lat="42.620921041425035" lon="12.338801703468354"><ele>628.3333333333333</ele><time>2026-04-17T14:22:46Z</time></trkpt><trkpt lat="42.62082931220925" lon="12.33878453977359"><ele>624.1666666666666</ele><time>2026-04-17T14:22:48Z</time></trkpt><trkpt lat="42.62072339093597" lon="12.338796530725263"><ele>620.0</ele><time>2026-04-17T14:22:50Z</time></trkpt><trkpt lat="42.620608648675216" lon="12.3388770561243"><ele>621.3333333333333</ele><time>2026-04-17T14:22:52Z</time></trkpt><trkpt lat="42.620543521436794" lon="12.338921173323623"><ele>622.6666666666666</ele><time>2026-04-17T14:22:53Z</time></trkpt><trkpt lat="42.620460973769475" lon="12.33895893692553"><ele>624.0</ele><time>2026-04-17T14:22:54Z</time></trkpt><trkpt lat="42.620385456875994" lon="12.339002067612103"><ele>625.3333333333334</ele><time>2026-04-17T14:22:55Z</time></trkpt><trkpt lat="42.62030479840036" lon="12.33904860815517"><ele>626.6666666666667</ele><time>2026-04-17T14:22:56Z</time></trkpt><trkpt lat="42.62023234914337" lon="12.339091139719182"><ele>628.0</ele><time>2026-04-17T14:22:57Z</time></trkpt><trkpt lat="42.62015592655373" lon="12.339132809374053"><ele>628.0</ele><time>2026-04-17T14:22:58Z</time></trkpt><trkpt lat="42.62008217788764" lon="12.33917408339129"><ele>628.0</ele><time>2026-04-17T14:22:59Z</time></trkpt><trkpt lat="42.62001016042446" lon="12.339218719057572"><ele>628.0</ele><time>2026-04-17T14:23:00Z</time></trkpt><trkpt lat="42.61993553188065" lon="12.339264037258308"><ele>628.0</ele><time>2026-04-17T14:23:01Z</time></trkpt><trkpt lat="42.619862220661005" lon="12.33929192711039"><ele>628.0</ele><time>2026-04-17T14:23:02Z</time></trkpt><trkpt lat="42.619787313829306" lon="12.33932554032287"><ele>628.0</ele><time>2026-04-17T14:23:03Z</time></trkpt><trkpt lat="42.61971332521427" lon="12.339364153299782"><ele>628.0</ele><time>2026-04-17T14:23:04Z</time></trkpt><trkpt lat="42.619641739506704" lon="12.339403421227724"><ele>628.0</ele><time>2026-04-17T14:23:05Z</time></trkpt><trkpt lat="42.61957410140677" lon="12.339441262150428"><ele>628.0</ele><time>2026-04-17T14:23:06Z</time></trkpt><trkpt lat="42.61950586829876" lon="12.339468369259151"><ele>628.0</ele><time>2026-04-17T14:23:07Z</time></trkpt><trkpt lat="42.61943345285162" lon="12.339491478975267"><ele>628.0</ele><time>2026-04-17T14:23:08Z</time></trkpt><trkpt lat="42.61935097581386" lon="12.339511213875275"><ele>628.0</ele><time>2026-04-17T14:23:09Z</time></trkpt><trkpt lat="42.61925896518291" lon="12.339525345813461"><ele>626.4</ele><time>2026-04-17T14:23:10Z</time></trkpt><trkpt lat="42.619167872097606" lon="12.339531911456836"><ele>624.8</ele><time>2026-04-17T14:23:11Z</time></trkpt><trkpt lat="42.619057127924094" lon="12.339516580961648"><ele>623.2</ele><time>2026-04-17T14:23:12Z</time></trkpt><trkpt lat="42.61894404118956" lon="12.339499024609855"><ele>621.6</ele><time>2026-04-17T14:23:13Z</time></trkpt><trkpt lat="42.618836398041296" lon="12.339455121956195"><ele>620.0</ele><time>2026-04-17T14:23:14Z</time></trkpt><trkpt lat="42.61873467815992" lon="12.339414607251534"><ele>618.6</ele><time>2026-04-17T14:23:15Z</time></trkpt><trkpt lat="42.6186427341913" lon="12.339380189514323"><ele>617.2</ele><time>2026-04-17T14:23:16Z</time></trkpt><trkpt lat="42.61855270494126" lon="12.339353259587233"><ele>615.8</ele><time>2026-04-17T14:23:17Z</time></trkpt><trkpt lat="42.618465405599814" lon="12.339336150767426"><ele>614.4</ele><time>2026-04-17T14:23:18Z</time></trkpt><trkpt lat="42.61837418741615" lon="12.339342134072874"><ele>613.0</ele><time>2026-04-17T14:23:19Z</time></trkpt><trkpt lat="42.61827561443788" lon="12.339349882880297"><ele>613.0</ele><time>2026-04-17T14:23:20Z</time></trkpt><trkpt lat="42.61818473811234" lon="12.339364636465898"><ele>613.0</ele><time>2026-04-17T14:23:21Z</time></trkpt><trkpt lat="42.61809232818004" lon="12.33941114471173"><ele>613.0</ele><time>2026-04-17T14:23:22Z</time></trkpt><trkpt lat="42.617980858385266" lon="12.339466696461868"><ele>613.0</ele><time>2026-04-17T14:23:23Z</time></trkpt><trkpt lat="42.617872121138966" lon="12.339535562428033"><ele>613.0</ele><time>2026-04-17T14:23:24Z</time></trkpt><trkpt lat="42.617768555328865" lon="12.33958292108183"><ele>612.1666666666667</ele><time>2026-04-17T14:23:25Z</time></trkpt><trkpt lat="42.61767109015517" lon="12.339605577044095"><ele>611.3333333333334</ele><time>2026-04-17T14:23:26Z</time></trkpt><trkpt lat="42.61758730102303" lon="12.339606029550286"><ele>610.5</ele><time>2026-04-17T14:23:27Z</time></trkpt><trkpt lat="42.617511554241254" lon="12.339615193582398"><ele>609.6666666666666</ele><time>2026-04-17T14:23:28Z</time></trkpt><trkpt lat="42.61743394202422" lon="12.33964261335582"><ele>608.8333333333333</ele><time>2026-04-17T14:23:29Z</time></trkpt><trkpt lat="42.61734625428656" lon="12.339700353963874"><ele>608.0</ele><time>2026-04-17T14:23:30Z</time></trkpt><trkpt lat="42.61726084311053" lon="12.339745209496188"><ele>611.0</ele><time>2026-04-17T14:23:31Z</time></trkpt><trkpt lat="42.617182207543884" lon="12.33976410752972"><ele>614.0</ele><time>2026-04-17T14:23:32Z</time></trkpt><trkpt lat="42.61710556986138" lon="12.339751326138067"><ele>617.0</ele><time>2026-04-17T14:23:33Z</time></trkpt><trkpt lat="42.61699020275275" lon="12.339742552501296"><ele>620.0</ele><time>2026-04-17T14:23:35Z</time></trkpt><trkpt lat="42.61695757254705" lon="12.339579932486252"><ele>623.0</ele><time>2026-04-17T14:23:37Z</time></trkpt><trkpt lat="42.616962750412945" lon="12.339467213295181"><ele>623.0</ele><time>2026-04-17T14:23:38Z</time></trkpt><trkpt lat="42.6169547256805" lon="12.33932213700238"><ele>623.0</ele><time>2026-04-17T14:23:39Z</time></trkpt><trkpt lat="42.616935591801855" lon="12.339189784952938"><ele>623.0</ele><time>2026-04-17T14:23:40Z</time></trkpt><trkpt lat="42.61691726420595" lon="12.339076571667421"><ele>623.0</ele><time>2026-04-17T14:23:41Z</time></trkpt><trkpt lat="42.61687934016543" lon="12.338959632557877"><ele>623.0</ele><time>2026-04-17T14:23:42Z</time></trkpt><trkpt lat="42.61683836553361" lon="12.338823103330919"><ele>621.8</ele><time>2026-04-17T14:23:43Z</time></trkpt><trkpt lat="42.616794751897565" lon="12.338674105918823"><ele>620.5999999999999</ele><time>2026-04-17T14:23:44Z</time></trkpt><trkpt lat="42.61674584012225" lon="12.33853576481209"><ele>619.4000000000001</ele><time>2026-04-17T14:23:45Z</time></trkpt><trkpt lat="42.61673531502394" lon="12.33839451470787"><ele>618.2</ele><time>2026-04-17T14:23:46Z</time></trkpt><trkpt lat="42.61670192964336" lon="12.33825419058608"><ele>617.0</ele><time>2026-04-17T14:23:47Z</time></trkpt><trkpt lat="42.61670649935067" lon="12.33810659402682"><ele>616.5</ele><time>2026-04-17T14:23:48Z</time></trkpt><trkpt lat="42.616689631137184" lon="12.337977479846442"><ele>616.0</ele><time>2026-04-17T14:23:49.001Z</time></trkpt><trkpt lat="42.616712655318636" lon="12.337867998928601"><ele>615.5</ele><time>2026-04-17T14:23:50.001Z</time></trkpt><trkpt lat="42.616702605765525" lon="12.337749148543319"><ele>615.0</ele><time>2026-04-17T14:23:51.001Z</time></trkpt><trkpt lat="42.61669656286356" lon="12.337640664141158"><ele>614.5</ele><time>2026-04-17T14:23:52.001Z</time></trkpt><trkpt lat="42.6166833244991" lon="12.33754689615124"><ele>614.0</ele><time>2026-04-17T14:23:53.001Z</time></trkpt><trkpt lat="42.616668059955146" lon="12.337462461230668"><ele>614.0</ele><time>2026-04-17T14:23:54.001Z</time></trkpt><trkpt lat="42.616656944080525" lon="12.337336624019752"><ele>614.0</ele><time>2026-04-17T14:23:56.001Z</time></trkpt><trkpt lat="42.61664450080745" lon="12.337233103765529"><ele>614.0</ele><time>2026-04-17T14:23:58.001Z</time></trkpt><trkpt lat="42.61668361079936" lon="12.337156254007878"><ele>614.0</ele><time>2026-04-17T14:24:01Z</time></trkpt><trkpt lat="42.61675719875505" lon="12.337199547794887"><ele>614.0</ele><time>2026-04-17T14:24:04Z</time></trkpt><trkpt lat="42.6168377801668" lon="12.337305916653667"><ele>614.0</ele><time>2026-04-17T14:24:06Z</time></trkpt><trkpt lat="42.61689102893853" lon="12.33742427671229"><ele>614.0</ele><time>2026-04-17T14:24:08Z</time></trkpt><trkpt lat="42.61691944553238" lon="12.337583876063825"><ele>614.0</ele><time>2026-04-17T14:24:10Z</time></trkpt><trkpt lat="42.61693308378822" lon="12.337681171012598"><ele>614.0</ele><time>2026-04-17T14:24:11Z</time></trkpt><trkpt lat="42.61695572925697" lon="12.337840811531684"><ele>614.0</ele><time>2026-04-17T14:24:13Z</time></trkpt><trkpt lat="42.6170003441609" lon="12.33800194060904"><ele>614.0</ele><time>2026-04-17T14:24:15Z</time></trkpt><trkpt lat="42.617025594247046" lon="12.338159595551899"><ele>610.4</ele><time>2026-04-17T14:24:17Z</time></trkpt><trkpt lat="42.617064407208446" lon="12.338309192595785"><ele>606.8</ele><time>2026-04-17T14:24:19Z</time></trkpt><trkpt lat="42.61710902978289" lon="12.3384017192317"><ele>603.2</ele><time>2026-04-17T14:24:20Z</time></trkpt><trkpt lat="42.61715467786309" lon="12.338521329772906"><ele>599.6</ele><time>2026-04-17T14:24:21Z</time></trkpt><trkpt lat="42.61719839783348" lon="12.338626176240824"><ele>596.0</ele><time>2026-04-17T14:24:22Z</time></trkpt><trkpt lat="42.61724417429722" lon="12.33872098485252"><ele>596.0</ele><time>2026-04-17T14:24:23Z</time></trkpt><trkpt lat="42.61729673385462" lon="12.338785623390956"><ele>596.0</ele><time>2026-04-17T14:24:24Z</time></trkpt><trkpt lat="42.61736034373705" lon="12.338841450386129"><ele>596.0</ele><time>2026-04-17T14:24:25Z</time></trkpt><trkpt lat="42.617440556124386" lon="12.338871897785491"><ele>596.0</ele><time>2026-04-17T14:24:26Z</time></trkpt><trkpt lat="42.6175213686719" lon="12.338879139528403"><ele>596.0</ele><time>2026-04-17T14:24:27Z</time></trkpt><trkpt lat="42.61761208602515" lon="12.338837717573627"><ele>596.0</ele><time>2026-04-17T14:24:28Z</time></trkpt><trkpt lat="42.61769902012684" lon="12.338773471604599"><ele>596.0</ele><time>2026-04-17T14:24:29Z</time></trkpt><trkpt lat="42.61781352170754" lon="12.33871080469822"><ele>596.0</ele><time>2026-04-17T14:24:30Z</time></trkpt><trkpt lat="42.61790322801378" lon="12.338618660844043"><ele>596.0</ele><time>2026-04-17T14:24:31Z</time></trkpt><trkpt lat="42.61798383351827" lon="12.338579903724161"><ele>596.0</ele><time>2026-04-17T14:24:32Z</time></trkpt><trkpt lat="42.61807507906282" lon="12.338533651277714"><ele>596.0</ele><time>2026-04-17T14:24:33Z</time></trkpt><trkpt lat="42.61815798604351" lon="12.338479318886959"><ele>594.8</ele><time>2026-04-17T14:24:34Z</time></trkpt><trkpt lat="42.618247197550495" lon="12.33846356389724"><ele>593.6</ele><time>2026-04-17T14:24:35Z</time></trkpt><trkpt lat="42.618336442973046" lon="12.338442532089822"><ele>592.4</ele><time>2026-04-17T14:24:36Z</time></trkpt><trkpt lat="42.618424939357936" lon="12.338413529324475"><ele>591.2</ele><time>2026-04-17T14:24:37Z</time></trkpt><trkpt lat="42.618517690529345" lon="12.3384087368657"><ele>590.0</ele><time>2026-04-17T14:24:38Z</time></trkpt><trkpt lat="42.61861237662504" lon="12.338391536206643"><ele>590.3333333333333</ele><time>2026-04-17T14:24:39Z</time></trkpt><trkpt lat="42.6187017542159" lon="12.338377093052099"><ele>590.6666666666666</ele><time>2026-04-17T14:24:40Z</time></trkpt><trkpt lat="42.61878992888946" lon="12.338366019625276"><ele>591.0</ele><time>2026-04-17T14:24:41Z</time></trkpt><trkpt lat="42.61885924869158" lon="12.338357314077824"><ele>591.3333333333334</ele><time>2026-04-17T14:24:42Z</time></trkpt><trkpt lat="42.618929468210254" lon="12.338347272606406"><ele>591.6666666666667</ele><time>2026-04-17T14:24:43Z</time></trkpt><trkpt lat="42.61899047398582" lon="12.338316368891801"><ele>592.0</ele><time>2026-04-17T14:24:44Z</time></trkpt><trkpt lat="42.61908106028408" lon="12.338274385466562"><ele>592.0</ele><time>2026-04-17T14:24:46Z</time></trkpt><trkpt lat="42.61915341131214" lon="12.338165879002855"><ele>592.0</ele><time>2026-04-17T14:24:48Z</time></trkpt><trkpt lat="42.6191239544441" lon="12.338080581976683"><ele>592.0</ele><time>2026-04-17T14:24:49Z</time></trkpt><trkpt lat="42.619048785515524" lon="12.337969365661868"><ele>592.0</ele><time>2026-04-17T14:24:51Z</time></trkpt><trkpt lat="42.61898777453038" lon="12.337935975837272"><ele>592.0</ele><time>2026-04-17T14:24:52Z</time></trkpt><trkpt lat="42.61892204569273" lon="12.337931206440686"><ele>592.0</ele><time>2026-04-17T14:24:53Z</time></trkpt><trkpt lat="42.61885487744668" lon="12.337944769264057"><ele>589.1666666666667</ele><time>2026-04-17T14:24:54Z</time></trkpt><trkpt lat="42.618791023165045" lon="12.337929833092392"><ele>586.3333333333334</ele><time>2026-04-17T14:24:55Z</time></trkpt><trkpt lat="42.61866657397491" lon="12.337895253956384"><ele>583.5</ele><time>2026-04-17T14:24:57Z</time></trkpt><trkpt lat="42.61859497796421" lon="12.337884169977643"><ele>580.6666666666666</ele><time>2026-04-17T14:24:58Z</time></trkpt><trkpt lat="42.61853320786778" lon="12.337862034284454"><ele>577.8333333333333</ele><time>2026-04-17T14:24:59Z</time></trkpt><trkpt lat="42.618465059697726" lon="12.337808573456977"><ele>575.0</ele><time>2026-04-17T14:25:00Z</time></trkpt><trkpt lat="42.61839242531301" lon="12.337760175391121"><ele>575.0</ele><time>2026-04-17T14:25:01Z</time></trkpt><trkpt lat="42.618323909320964" lon="12.337711638055083"><ele>575.0</ele><time>2026-04-17T14:25:02Z</time></trkpt><trkpt lat="42.618248588283656" lon="12.337694644569162"><ele>575.0</ele><time>2026-04-17T14:25:03Z</time></trkpt><trkpt lat="42.618163935222626" lon="12.33766716112118"><ele>575.0</ele><time>2026-04-17T14:25:04Z</time></trkpt><trkpt lat="42.61809829208133" lon="12.337647616550925"><ele>575.0</ele><time>2026-04-17T14:25:05Z</time></trkpt><trkpt lat="42.61806217842237" lon="12.337575955282777"><ele>575.0</ele><time>2026-04-17T14:25:06Z</time></trkpt><trkpt lat="42.61805872718648" lon="12.33746916044502"><ele>575.0</ele><time>2026-04-17T14:25:08Z</time></trkpt><trkpt lat="42.61807647607218" lon="12.337363368493865"><ele>575.0</ele><time>2026-04-17T14:25:10Z</time></trkpt><trkpt lat="42.618165707242134" lon="12.337318605390685"><ele>575.0</ele><time>2026-04-17T14:25:12Z</time></trkpt><trkpt lat="42.618227234152904" lon="12.337297053558853"><ele>575.0</ele><time>2026-04-17T14:25:13Z</time></trkpt><trkpt lat="42.618284463186676" lon="12.337254591160768"><ele>575.0</ele><time>2026-04-17T14:25:14Z</time></trkpt><trkpt lat="42.61835091673815" lon="12.337169432468304"><ele>575.0</ele><time>2026-04-17T14:25:15Z</time></trkpt><trkpt lat="42.6184097062477" lon="12.337094788953369"><ele>574.6</ele><time>2026-04-17T14:25:16Z</time></trkpt><trkpt lat="42.61846183828198" lon="12.33699806444799"><ele>574.2</ele><time>2026-04-17T14:25:17Z</time></trkpt><trkpt lat="42.6185285876628" lon="12.336933580644102"><ele>573.8</ele><time>2026-04-17T14:25:18Z</time></trkpt><trkpt lat="42.618585979172046" lon="12.336848564181569"><ele>573.4</ele><time>2026-04-17T14:25:19Z</time></trkpt><trkpt lat="42.618646000659" lon="12.336741572971848"><ele>573.0</ele><time>2026-04-17T14:25:20Z</time></trkpt><trkpt lat="42.618715408872404" lon="12.336639147862693"><ele>570.8</ele><time>2026-04-17T14:25:21Z</time></trkpt><trkpt lat="42.61878591623868" lon="12.336545767191366"><ele>568.5999999999999</ele><time>2026-04-17T14:25:22Z</time></trkpt><trkpt lat="42.618856169615086" lon="12.336440458387184"><ele>566.4000000000001</ele><time>2026-04-17T14:25:23Z</time></trkpt><trkpt lat="42.618928690808985" lon="12.336328377644273"><ele>564.2</ele><time>2026-04-17T14:25:24Z</time></trkpt><trkpt lat="42.61900662563548" lon="12.336242662659087"><ele>562.0</ele><time>2026-04-17T14:25:25Z</time></trkpt><trkpt lat="42.61907701789104" lon="12.336148568815254"><ele>561.6</ele><time>2026-04-17T14:25:26Z</time></trkpt><trkpt lat="42.619137232904045" lon="12.336040476610524"><ele>561.2</ele><time>2026-04-17T14:25:27Z</time></trkpt><trkpt lat="42.61921164042661" lon="12.335974295322192"><ele>560.8</ele><time>2026-04-17T14:25:28Z</time></trkpt><trkpt lat="42.61927177351252" lon="12.335891653066936"><ele>560.4</ele><time>2026-04-17T14:25:29Z</time></trkpt><trkpt lat="42.61934019618036" lon="12.335817357659314"><ele>560.0</ele><time>2026-04-17T14:25:30Z</time></trkpt><trkpt lat="42.61940629690974" lon="12.335738339948334"><ele>560.0</ele><time>2026-04-17T14:25:31Z</time></trkpt><trkpt lat="42.619453831133804" lon="12.33564618193552"><ele>560.0</ele><time>2026-04-17T14:25:32Z</time></trkpt><trkpt lat="42.61951695057516" lon="12.335581794641111"><ele>560.0</ele><time>2026-04-17T14:25:33Z</time></trkpt><trkpt lat="42.61957273134387" lon="12.335511471586184"><ele>560.0</ele><time>2026-04-17T14:25:34Z</time></trkpt><trkpt lat="42.61963487057317" lon="12.33543313276417"><ele>560.0</ele><time>2026-04-17T14:25:35Z</time></trkpt><trkpt lat="42.619704969732396" lon="12.335344758243133"><ele>560.0</ele><time>2026-04-17T14:25:36Z</time></trkpt><trkpt lat="42.61977321851906" lon="12.33527758591169"><ele>556.5</ele><time>2026-04-17T14:25:37Z</time></trkpt><trkpt lat="42.619834713922046" lon="12.335207160787464"><ele>553.0</ele><time>2026-04-17T14:25:38Z</time></trkpt><trkpt lat="42.6198993167859" lon="12.335103718128144"><ele>549.5</ele><time>2026-04-17T14:25:39Z</time></trkpt><trkpt lat="42.61997882373163" lon="12.334950085289538"><ele>546.0</ele><time>2026-04-17T14:25:40Z</time></trkpt><trkpt lat="42.620062689384426" lon="12.334789738381401"><ele>548.0</ele><time>2026-04-17T14:25:41Z</time></trkpt><trkpt lat="42.620137426463884" lon="12.334676260316096"><ele>550.0</ele><time>2026-04-17T14:25:42Z</time></trkpt><trkpt lat="42.620218901843266" lon="12.334604534704727"><ele>552.0</ele><time>2026-04-17T14:25:43Z</time></trkpt><trkpt lat="42.62029032450275" lon="12.334535973025053"><ele>554.0</ele><time>2026-04-17T14:25:44Z</time></trkpt><trkpt lat="42.62036754703779" lon="12.334447861284433"><ele>556.0</ele><time>2026-04-17T14:25:45Z</time></trkpt><trkpt lat="42.62042184343057" lon="12.334348297102641"><ele>551.6666666666667</ele><time>2026-04-17T14:25:46Z</time></trkpt><trkpt lat="42.62049234339344" lon="12.33428058490731"><ele>547.3333333333334</ele><time>2026-04-17T14:25:47.001Z</time></trkpt><trkpt lat="42.620547010531766" lon="12.334188204931541"><ele>543.0</ele><time>2026-04-17T14:25:48.001Z</time></trkpt><trkpt lat="42.62060993476318" lon="12.334129784951111"><ele>538.6666666666666</ele><time>2026-04-17T14:25:49.001Z</time></trkpt><trkpt lat="42.62066489508944" lon="12.3340521618805"><ele>534.3333333333333</ele><time>2026-04-17T14:25:50.001Z</time></trkpt><trkpt lat="42.62073599415425" lon="12.334007250624769"><ele>530.0</ele><time>2026-04-17T14:25:51.001Z</time></trkpt><trkpt lat="42.62079582499032" lon="12.333951425314636"><ele>531.5</ele><time>2026-04-17T14:25:52.001Z</time></trkpt><trkpt lat="42.62090458602125" lon="12.333828755177294"><ele>533.0</ele><time>2026-04-17T14:25:54.001Z</time></trkpt><trkpt lat="42.620975841086526" lon="12.333784646782444"><ele>534.5</ele><time>2026-04-17T14:25:55.001Z</time></trkpt><trkpt lat="42.62106764589117" lon="12.333697420512063"><ele>536.0</ele><time>2026-04-17T14:25:57.001Z</time></trkpt><trkpt lat="42.62117739347093" lon="12.333632708933582"><ele>532.0</ele><time>2026-04-17T14:25:59.001Z</time></trkpt><trkpt lat="42.621276614299994" lon="12.333601566723573"><ele>528.0</ele><time>2026-04-17T14:26:01.001Z</time></trkpt><trkpt lat="42.62134346981679" lon="12.333599856015692"><ele>524.0</ele><time>2026-04-17T14:26:02.001Z</time></trkpt><trkpt lat="42.6214110629242" lon="12.333576794784939"><ele>520.0</ele><time>2026-04-17T14:26:03.001Z</time></trkpt><trkpt lat="42.621489991784756" lon="12.333575524340507"><ele>516.0</ele><time>2026-04-17T14:26:04.001Z</time></trkpt><trkpt lat="42.62156912589101" lon="12.33355929174819"><ele>512.0</ele><time>2026-04-17T14:26:05.001Z</time></trkpt><trkpt lat="42.621632226796734" lon="12.33352611505538"><ele>512.0</ele><time>2026-04-17T14:26:06Z</time></trkpt><trkpt lat="42.6216886285636" lon="12.333473343803105"><ele>512.0</ele><time>2026-04-17T14:26:07Z</time></trkpt><trkpt lat="42.62176822852607" lon="12.33339158707912"><ele>512.0</ele><time>2026-04-17T14:26:08Z</time></trkpt><trkpt lat="42.62186207277068" lon="12.333274134701208"><ele>512.0</ele><time>2026-04-17T14:26:09Z</time></trkpt><trkpt lat="42.62195656569268" lon="12.333157032097464"><ele>512.0</ele><time>2026-04-17T14:26:10Z</time></trkpt><trkpt lat="42.62200992201772" lon="12.333072582021819"><ele>511.16666666666663</ele><time>2026-04-17T14:26:11Z</time></trkpt><trkpt lat="42.622046455880124" lon="12.332987808810246"><ele>510.3333333333333</ele><time>2026-04-17T14:26:12Z</time></trkpt><trkpt lat="42.62207639497209" lon="12.332866855527078"><ele>509.5</ele><time>2026-04-17T14:26:13Z</time></trkpt><trkpt lat="42.622113741696815" lon="12.332786500785115"><ele>508.66666666666663</ele><time>2026-04-17T14:26:14Z</time></trkpt><trkpt lat="42.62220295945073" lon="12.33266901883656"><ele>507.8333333333333</ele><time>2026-04-17T14:26:16Z</time></trkpt><trkpt lat="42.622254515454195" lon="12.332609832497722"><ele>507.0</ele><time>2026-04-17T14:26:17Z</time></trkpt><trkpt lat="42.62229499089606" lon="12.332507178455788"><ele>507.0</ele><time>2026-04-17T14:26:18Z</time></trkpt><trkpt lat="42.62234486373296" lon="12.332404017000806"><ele>507.0</ele><time>2026-04-17T14:26:19Z</time></trkpt><trkpt lat="42.62243158560168" lon="12.332339110867773"><ele>507.0</ele><time>2026-04-17T14:26:20Z</time></trkpt><trkpt lat="42.62249197909231" lon="12.33223790515831"><ele>507.0</ele><time>2026-04-17T14:26:21Z</time></trkpt><trkpt lat="42.62253983910952" lon="12.332151158217338"><ele>507.0</ele><time>2026-04-17T14:26:22Z</time></trkpt><trkpt lat="42.62259106297079" lon="12.332067375734688"><ele>507.0</ele><time>2026-04-17T14:26:23Z</time></trkpt><trkpt lat="42.62265318639304" lon="12.331978088325572"><ele>506.5</ele><time>2026-04-17T14:26:24Z</time></trkpt><trkpt lat="42.622717628210104" lon="12.331897358406911"><ele>506.0</ele><time>2026-04-17T14:26:25Z</time></trkpt><trkpt lat="42.62278041473377" lon="12.331820345321681"><ele>505.5</ele><time>2026-04-17T14:26:26Z</time></trkpt><trkpt lat="42.62283039079298" lon="12.331735134203928"><ele>505.0</ele><time>2026-04-17T14:26:27Z</time></trkpt><trkpt lat="42.62285766967658" lon="12.331632793679034"><ele>504.5</ele><time>2026-04-17T14:26:28Z</time></trkpt><trkpt lat="42.622883824632204" lon="12.331548426923234"><ele>504.0</ele><time>2026-04-17T14:26:29Z</time></trkpt><trkpt lat="42.6229245491491" lon="12.331384317833784"><ele>505.1666666666667</ele><time>2026-04-17T14:26:31Z</time></trkpt><trkpt lat="42.622959941955116" lon="12.33127437607686"><ele>506.33333333333337</ele><time>2026-04-17T14:26:32Z</time></trkpt><trkpt lat="42.622995855441175" lon="12.331174777896129"><ele>507.5</ele><time>2026-04-17T14:26:33Z</time></trkpt><trkpt lat="42.62300989816575" lon="12.33108354408207"><ele>508.6666666666667</ele><time>2026-04-17T14:26:34Z</time></trkpt><trkpt lat="42.6230223235014" lon="12.33099040758013"><ele>509.83333333333337</ele><time>2026-04-17T14:26:35Z</time></trkpt><trkpt lat="42.62303272911391" lon="12.330885479138349"><ele>511.0</ele><time>2026-04-17T14:26:36Z</time></trkpt><trkpt lat="42.62303903578824" lon="12.330759966525756"><ele>511.00000000000006</ele><time>2026-04-17T14:26:37Z</time></trkpt><trkpt lat="42.62303104761146" lon="12.33064364001887"><ele>511.0</ele><time>2026-04-17T14:26:38Z</time></trkpt><trkpt lat="42.62305294550647" lon="12.330541067561061"><ele>511.0</ele><time>2026-04-17T14:26:39Z</time></trkpt><trkpt lat="42.62306054994224" lon="12.330451847251654"><ele>511.0</ele><time>2026-04-17T14:26:40Z</time></trkpt><trkpt lat="42.62304556689863" lon="12.330362106030957"><ele>511.00000000000006</ele><time>2026-04-17T14:26:41Z</time></trkpt><trkpt lat="42.62301790188292" lon="12.330281936134346"><ele>511.0</ele><time>2026-04-17T14:26:42Z</time></trkpt><trkpt lat="42.62294463130961" lon="12.330178347433268"><ele>511.4</ele><time>2026-04-17T14:26:43Z</time></trkpt><trkpt lat="42.62289399372713" lon="12.330059706522459"><ele>511.8</ele><time>2026-04-17T14:26:44Z</time></trkpt><trkpt lat="42.62279936914922" lon="12.329888200477379"><ele>512.1999999999999</ele><time>2026-04-17T14:26:46Z</time></trkpt><trkpt lat="42.6227513105867" lon="12.329786254213968"><ele>512.6</ele><time>2026-04-17T14:26:47Z</time></trkpt><trkpt lat="42.62270778778445" lon="12.329684145849118"><ele>513.0</ele><time>2026-04-17T14:26:48Z</time></trkpt><trkpt lat="42.62267406776486" lon="12.329577525808459"><ele>510.28571428571433</ele><time>2026-04-17T14:26:49Z</time></trkpt><trkpt lat="42.62264920442775" lon="12.329476353169268"><ele>507.57142857142856</ele><time>2026-04-17T14:26:50Z</time></trkpt><trkpt lat="42.622630751910336" lon="12.329381728566693"><ele>504.8571428571429</ele><time>2026-04-17T14:26:51Z</time></trkpt><trkpt lat="42.622622905894076" lon="12.329295739017443"><ele>502.14285714285717</ele><time>2026-04-17T14:26:52Z</time></trkpt><trkpt lat="42.62259904453851" lon="12.329189671446667"><ele>499.42857142857144</ele><time>2026-04-17T14:26:53Z</time></trkpt><trkpt lat="42.62258777418231" lon="12.329089906829168"><ele>496.7142857142857</ele><time>2026-04-17T14:26:54Z</time></trkpt><trkpt lat="42.62256473442376" lon="12.329006106689587"><ele>494.0</ele><time>2026-04-17T14:26:55Z</time></trkpt><trkpt lat="42.622532240425315" lon="12.328915508784835"><ele>493.8333333333333</ele><time>2026-04-17T14:26:56Z</time></trkpt><trkpt lat="42.62249755284276" lon="12.32883825581296"><ele>493.66666666666663</ele><time>2026-04-17T14:26:57Z</time></trkpt><trkpt lat="42.622463587527804" lon="12.328762611444692"><ele>493.5</ele><time>2026-04-17T14:26:58Z</time></trkpt><trkpt lat="42.62242935653778" lon="12.328679310600815"><ele>493.33333333333337</ele><time>2026-04-17T14:26:59Z</time></trkpt><trkpt lat="42.622397088343405" lon="12.32859708650907"><ele>493.1666666666667</ele><time>2026-04-17T14:27:00Z</time></trkpt><trkpt lat="42.62236130707892" lon="12.328487406286095"><ele>493.0</ele><time>2026-04-17T14:27:01Z</time></trkpt><trkpt lat="42.622327311587085" lon="12.32836871287525"><ele>493.00000000000006</ele><time>2026-04-17T14:27:02Z</time></trkpt><trkpt lat="42.622300716975474" lon="12.328237027107368"><ele>493.0</ele><time>2026-04-17T14:27:03Z</time></trkpt><trkpt lat="42.62226471546498" lon="12.328134775691778"><ele>493.0</ele><time>2026-04-17T14:27:04Z</time></trkpt><trkpt lat="42.622230194695874" lon="12.328037809581339"><ele>493.0</ele><time>2026-04-17T14:27:05Z</time></trkpt><trkpt lat="42.62218526220305" lon="12.32794013123281"><ele>493.00000000000006</ele><time>2026-04-17T14:27:06Z</time></trkpt><trkpt lat="42.62216090235101" lon="12.327833783750476"><ele>493.0</ele><time>2026-04-17T14:27:07Z</time></trkpt><trkpt lat="42.62215871412829" lon="12.32774430790363"><ele>492.6666666666667</ele><time>2026-04-17T14:27:08Z</time></trkpt><trkpt lat="42.6221919115599" lon="12.327655874169338"><ele>492.33333333333337</ele><time>2026-04-17T14:27:09Z</time></trkpt><trkpt lat="42.62221926614628" lon="12.327565223096567"><ele>492.0</ele><time>2026-04-17T14:27:10Z</time></trkpt><trkpt lat="42.62223407907023" lon="12.327427510931514"><ele>491.66666666666663</ele><time>2026-04-17T14:27:11Z</time></trkpt><trkpt lat="42.622273524343626" lon="12.327310620169971"><ele>491.3333333333333</ele><time>2026-04-17T14:27:12Z</time></trkpt><trkpt lat="42.62229924764093" lon="12.327198501290583"><ele>491.0</ele><time>2026-04-17T14:27:13Z</time></trkpt><trkpt lat="42.622287685354856" lon="12.32707905081418"><ele>489.3333333333333</ele><time>2026-04-17T14:27:14Z</time></trkpt><trkpt lat="42.62228854196266" lon="12.326964080640476"><ele>487.66666666666663</ele><time>2026-04-17T14:27:15Z</time></trkpt><trkpt lat="42.62231105212799" lon="12.326876449794039"><ele>486.0</ele><time>2026-04-17T14:27:16Z</time></trkpt><trkpt lat="42.62233409779927" lon="12.326784185353066"><ele>484.33333333333337</ele><time>2026-04-17T14:27:17Z</time></trkpt><trkpt lat="42.622372061195954" lon="12.326673338503532"><ele>482.6666666666667</ele><time>2026-04-17T14:27:18Z</time></trkpt><trkpt lat="42.62241690696264" lon="12.326541889038674"><ele>481.0</ele><time>2026-04-17T14:27:19Z</time></trkpt><trkpt lat="42.622461151804494" lon="12.326412200976595"><ele>479.83333333333337</ele><time>2026-04-17T14:27:20Z</time></trkpt><trkpt lat="42.622481445559856" lon="12.326285449970468"><ele>478.6666666666667</ele><time>2026-04-17T14:27:21Z</time></trkpt><trkpt lat="42.62252210379288" lon="12.326176135030245"><ele>477.5</ele><time>2026-04-17T14:27:22Z</time></trkpt><trkpt lat="42.622556430158376" lon="12.326068834586833"><ele>476.33333333333337</ele><time>2026-04-17T14:27:23Z</time></trkpt><trkpt lat="42.62260896452716" lon="12.325965886393547"><ele>475.1666666666667</ele><time>2026-04-17T14:27:24Z</time></trkpt><trkpt lat="42.62264987553544" lon="12.32587109689995"><ele>474.0</ele><time>2026-04-17T14:27:25Z</time></trkpt><trkpt lat="42.62272049764924" lon="12.325781477521828"><ele>474.0</ele><time>2026-04-17T14:27:26Z</time></trkpt><trkpt lat="42.62278576250369" lon="12.325692510567146"><ele>474.0</ele><time>2026-04-17T14:27:27Z</time></trkpt><trkpt lat="42.62284102047394" lon="12.325615906371853"><ele>474.0</ele><time>2026-04-17T14:27:28Z</time></trkpt><trkpt lat="42.6228911635336" lon="12.325541592105653"><ele>474.0</ele><time>2026-04-17T14:27:29Z</time></trkpt><trkpt lat="42.62294977177352" lon="12.325459826947359"><ele>474.0</ele><time>2026-04-17T14:27:30Z</time></trkpt><trkpt lat="42.62300105791988" lon="12.325373759661952"><ele>474.0</ele><time>2026-04-17T14:27:31Z</time></trkpt><trkpt lat="42.6230396705994" lon="12.325273240183332"><ele>473.0</ele><time>2026-04-17T14:27:32Z</time></trkpt><trkpt lat="42.62307800999109" lon="12.325156062958126"><ele>472.0</ele><time>2026-04-17T14:27:33Z</time></trkpt><trkpt lat="42.62312676491868" lon="12.325055403503969"><ele>471.0</ele><time>2026-04-17T14:27:34Z</time></trkpt><trkpt lat="42.623170798850204" lon="12.324957723326575"><ele>470.0</ele><time>2026-04-17T14:27:35Z</time></trkpt><trkpt lat="42.62322921077315" lon="12.324868368375245"><ele>469.0</ele><time>2026-04-17T14:27:36Z</time></trkpt><trkpt lat="42.623301591498034" lon="12.324781566929781"><ele>466.0</ele><time>2026-04-17T14:27:37Z</time></trkpt><trkpt lat="42.62337172100365" lon="12.324695925959292"><ele>463.0</ele><time>2026-04-17T14:27:38Z</time></trkpt><trkpt lat="42.62344236005155" lon="12.324613511161228"><ele>460.0</ele><time>2026-04-17T14:27:39Z</time></trkpt><trkpt lat="42.623508091420376" lon="12.324527831182808"><ele>457.0</ele><time>2026-04-17T14:27:40Z</time></trkpt><trkpt lat="42.62356779612755" lon="12.324436188356565"><ele>454.0</ele><time>2026-04-17T14:27:41Z</time></trkpt><trkpt lat="42.62362256939349" lon="12.324335723303241"><ele>455.6666666666667</ele><time>2026-04-17T14:27:42Z</time></trkpt><trkpt lat="42.623695139837004" lon="12.324250699229022"><ele>457.33333333333337</ele><time>2026-04-17T14:27:43Z</time></trkpt><trkpt lat="42.62373493491763" lon="12.324176682273299"><ele>459.0</ele><time>2026-04-17T14:27:44Z</time></trkpt><trkpt lat="42.62378911462007" lon="12.324106236266411"><ele>460.66666666666663</ele><time>2026-04-17T14:27:45Z</time></trkpt><trkpt lat="42.62385705031732" lon="12.324059386889694"><ele>462.3333333333333</ele><time>2026-04-17T14:27:46Z</time></trkpt><trkpt lat="42.623943055535385" lon="12.324008769313245"><ele>464.0</ele><time>2026-04-17T14:27:47Z</time></trkpt><trkpt lat="42.624039217762615" lon="12.32393189860447"><ele>460.79999999999995</ele><time>2026-04-17T14:27:48Z</time></trkpt><trkpt lat="42.62411711200374" lon="12.323842360964953"><ele>457.59999999999997</ele><time>2026-04-17T14:27:49Z</time></trkpt><trkpt lat="42.62418296677963" lon="12.323756334820349"><ele>454.4</ele><time>2026-04-17T14:27:50Z</time></trkpt><trkpt lat="42.62425420465861" lon="12.32366764847947"><ele>451.2</ele><time>2026-04-17T14:27:51.001Z</time></trkpt><trkpt lat="42.624319155346434" lon="12.323585902507663"><ele>448.0</ele><time>2026-04-17T14:27:52.001Z</time></trkpt><trkpt lat="42.624396730651185" lon="12.323488894102297"><ele>448.0</ele><time>2026-04-17T14:27:53.001Z</time></trkpt><trkpt lat="42.6244683689801" lon="12.323397357172926"><ele>447.99999999999994</ele><time>2026-04-17T14:27:54.001Z</time></trkpt><trkpt lat="42.62454711941422" lon="12.32329484138364"><ele>447.99999999999994</ele><time>2026-04-17T14:27:55.001Z</time></trkpt><trkpt lat="42.624630749676264" lon="12.323206701240998"><ele>448.0</ele><time>2026-04-17T14:27:56.001Z</time></trkpt><trkpt lat="42.624715968302866" lon="12.323125321113325"><ele>448.0</ele><time>2026-04-17T14:27:57.001Z</time></trkpt><trkpt lat="42.62480071456902" lon="12.323038698116262"><ele>447.0</ele><time>2026-04-17T14:27:58.001Z</time></trkpt><trkpt lat="42.624865676135144" lon="12.322943316157202"><ele>445.99999999999994</ele><time>2026-04-17T14:27:59.001Z</time></trkpt><trkpt lat="42.62492573359591" lon="12.322825843211035"><ele>444.99999999999994</ele><time>2026-04-17T14:28:00.001Z</time></trkpt><trkpt lat="42.62497253460475" lon="12.322705196220355"><ele>444.0</ele><time>2026-04-17T14:28:01.001Z</time></trkpt><trkpt lat="42.625024814647595" lon="12.322595287012572"><ele>443.0</ele><time>2026-04-17T14:28:02.001Z</time></trkpt><trkpt lat="42.62508672096458" lon="12.32249432499992"><ele>443.0</ele><time>2026-04-17T14:28:03.001Z</time></trkpt><trkpt lat="42.62513516946478" lon="12.322420668381163"><ele>443.0</ele><time>2026-04-17T14:28:04.001Z</time></trkpt><trkpt lat="42.6251772590099" lon="12.322349408524556"><ele>443.0</ele><time>2026-04-17T14:28:06.001Z</time></trkpt><trkpt lat="42.625230907859816" lon="12.322297244276717"><ele>443.0</ele><time>2026-04-17T14:28:10.001Z</time></trkpt><trkpt lat="42.625267373588194" lon="12.322227198007715"><ele>443.0</ele><time>2026-04-17T14:28:52Z</time></trkpt><trkpt lat="42.62535146032685" lon="12.32220393214834"><ele>443.0</ele><time>2026-04-17T14:28:56Z</time></trkpt><trkpt lat="42.62542701094572" lon="12.322168941911697"><ele>443.0</ele><time>2026-04-17T14:28:57Z</time></trkpt><trkpt lat="42.625516215024135" lon="12.322104236898845"><ele>442.4</ele><time>2026-04-17T14:28:58Z</time></trkpt><trkpt lat="42.625589119252744" lon="12.322038645702964"><ele>441.79999999999995</ele><time>2026-04-17T14:28:59Z</time></trkpt><trkpt lat="42.62565197858631" lon="12.321967877405987"><ele>441.2</ele><time>2026-04-17T14:29:00Z</time></trkpt><trkpt lat="42.625718039519505" lon="12.321893716961924"><ele>440.6</ele><time>2026-04-17T14:29:01Z</time></trkpt><trkpt lat="42.62579124150152" lon="12.321825418687103"><ele>440.0</ele><time>2026-04-17T14:29:02Z</time></trkpt><trkpt lat="42.625881769474766" lon="12.321705460999116"><ele>440.0</ele><time>2026-04-17T14:29:03Z</time></trkpt><trkpt lat="42.6259644076715" lon="12.321537435605357"><ele>440.0</ele><time>2026-04-17T14:29:04Z</time></trkpt><trkpt lat="42.62604456086637" lon="12.321391840886529"><ele>440.0</ele><time>2026-04-17T14:29:05Z</time></trkpt><trkpt lat="42.626106255573625" lon="12.321264483483926"><ele>440.0</ele><time>2026-04-17T14:29:06Z</time></trkpt><trkpt lat="42.626155669874834" lon="12.321150960709868"><ele>440.2</ele><time>2026-04-17T14:29:07Z</time></trkpt><trkpt lat="42.62619739187726" lon="12.321043001092985"><ele>440.4</ele><time>2026-04-17T14:29:08Z</time></trkpt><trkpt lat="42.62625173350227" lon="12.320947658873706"><ele>440.6</ele><time>2026-04-17T14:29:09Z</time></trkpt><trkpt lat="42.62630480716316" lon="12.320854192527346"><ele>440.8</ele><time>2026-04-17T14:29:10Z</time></trkpt><trkpt lat="42.62636578246657" lon="12.320752159397628"><ele>441.0</ele><time>2026-04-17T14:29:11Z</time></trkpt><trkpt lat="42.62645731539616" lon="12.320641321407495"><ele>439.8</ele><time>2026-04-17T14:29:12Z</time></trkpt><trkpt lat="42.62652470135901" lon="12.320561384845291"><ele>438.6</ele><time>2026-04-17T14:29:13Z</time></trkpt><trkpt lat="42.62659543412622" lon="12.320474228395755"><ele>437.4</ele><time>2026-04-17T14:29:14Z</time></trkpt><trkpt lat="42.62667325156225" lon="12.320404045768742"><ele>436.2</ele><time>2026-04-17T14:29:15Z</time></trkpt><trkpt lat="42.62675465372804" lon="12.320334488036838"><ele>435.0</ele><time>2026-04-17T14:29:16Z</time></trkpt><trkpt lat="42.62683079659554" lon="12.320272803910774"><ele>435.0</ele><time>2026-04-17T14:29:17Z</time></trkpt><trkpt lat="42.62690710795291" lon="12.320204345438631"><ele>435.0</ele><time>2026-04-17T14:29:18Z</time></trkpt><trkpt lat="42.626983621013665" lon="12.320132294074572"><ele>435.0</ele><time>2026-04-17T14:29:19Z</time></trkpt><trkpt lat="42.62705523478632" lon="12.320063518501591"><ele>435.0</ele><time>2026-04-17T14:29:20Z</time></trkpt><trkpt lat="42.627127257560474" lon="12.319997080070248"><ele>435.0</ele><time>2026-04-17T14:29:21Z</time></trkpt><trkpt lat="42.627203015371265" lon="12.319934740035164"><ele>435.0</ele><time>2026-04-17T14:29:22Z</time></trkpt><trkpt lat="42.62728263899478" lon="12.319878771950773"><ele>434.7142857142857</ele><time>2026-04-17T14:29:23Z</time></trkpt><trkpt lat="42.627355648604215" lon="12.319838264541753"><ele>434.42857142857144</ele><time>2026-04-17T14:29:24Z</time></trkpt><trkpt lat="42.62742521463486" lon="12.319803938369352"><ele>434.1428571428571</ele><time>2026-04-17T14:29:25Z</time></trkpt><trkpt lat="42.62749223216758" lon="12.319780055547797"><ele>433.8571428571429</ele><time>2026-04-17T14:29:26Z</time></trkpt><trkpt lat="42.62756508766142" lon="12.319761774002371"><ele>433.57142857142856</ele><time>2026-04-17T14:29:27Z</time></trkpt><trkpt lat="42.62763344609123" lon="12.319733322830087"><ele>433.2857142857143</ele><time>2026-04-17T14:29:28Z</time></trkpt><trkpt lat="42.62769671698875" lon="12.319694047286491"><ele>433.0</ele><time>2026-04-17T14:29:29Z</time></trkpt><trkpt lat="42.627757841885135" lon="12.319656529372578"><ele>432.79999999999995</ele><time>2026-04-17T14:29:30Z</time></trkpt><trkpt lat="42.62786140240446" lon="12.319599118693068"><ele>432.59999999999997</ele><time>2026-04-17T14:29:32Z</time></trkpt><trkpt lat="42.62794747936079" lon="12.319509762664696"><ele>432.40000000000003</ele><time>2026-04-17T14:29:34Z</time></trkpt><trkpt lat="42.62802548687999" lon="12.319426184637784"><ele>432.20000000000005</ele><time>2026-04-17T14:29:36Z</time></trkpt><trkpt lat="42.62808948435771" lon="12.319371855746239"><ele>432.0</ele><time>2026-04-17T14:29:38Z</time></trkpt><trkpt lat="42.628150880546656" lon="12.31930855874945"><ele>432.0</ele><time>2026-04-17T14:29:40Z</time></trkpt><trkpt lat="42.62821933080526" lon="12.319228147303642"><ele>432.00000000000006</ele><time>2026-04-17T14:29:42Z</time></trkpt><trkpt lat="42.628296640814355" lon="12.319143961953689"><ele>432.00000000000006</ele><time>2026-04-17T14:29:44Z</time></trkpt><trkpt lat="42.62838139692581" lon="12.319063523181578"><ele>432.0</ele><time>2026-04-17T14:29:46Z</time></trkpt><trkpt lat="42.62846754585225" lon="12.31897831407691"><ele>432.0</ele><time>2026-04-17T14:29:48Z</time></trkpt><trkpt lat="42.62852056123854" lon="12.318923797714882"><ele>430.8333333333333</ele><time>2026-04-17T14:29:49Z</time></trkpt><trkpt lat="42.62858033138777" lon="12.318861047013282"><ele>429.66666666666663</ele><time>2026-04-17T14:29:50Z</time></trkpt><trkpt lat="42.62863643260869" lon="12.318789221379774"><ele>428.5</ele><time>2026-04-17T14:29:51Z</time></trkpt><trkpt lat="42.628698580948964" lon="12.318711758798264"><ele>427.3333333333333</ele><time>2026-04-17T14:29:52Z</time></trkpt><trkpt lat="42.62876723094963" lon="12.318631098911201"><ele>426.16666666666663</ele><time>2026-04-17T14:29:53Z</time></trkpt><trkpt lat="42.628836319681916" lon="12.318549997013577"><ele>425.0</ele><time>2026-04-17T14:29:54Z</time></trkpt><trkpt lat="42.6289024243742" lon="12.318469913224634"><ele>424.99999999999994</ele><time>2026-04-17T14:29:55Z</time></trkpt><trkpt lat="42.62897051442532" lon="12.318384482698088"><ele>425.0</ele><time>2026-04-17T14:29:56Z</time></trkpt><trkpt lat="42.62903464301457" lon="12.318300035434593"><ele>425.0</ele><time>2026-04-17T14:29:57Z</time></trkpt><trkpt lat="42.6290925061593" lon="12.318217084617435"><ele>425.0</ele><time>2026-04-17T14:29:58Z</time></trkpt><trkpt lat="42.62914521807473" lon="12.318133116715341"><ele>424.99999999999994</ele><time>2026-04-17T14:29:59Z</time></trkpt><trkpt lat="42.62920986838595" lon="12.318057874328161"><ele>425.0</ele><time>2026-04-17T14:30:00Z</time></trkpt><trkpt lat="42.62925710480924" lon="12.317969533022994"><ele>425.2857142857143</ele><time>2026-04-17T14:30:01Z</time></trkpt><trkpt lat="42.629284117407906" lon="12.317875312334857"><ele>425.57142857142856</ele><time>2026-04-17T14:30:02Z</time></trkpt><trkpt lat="42.62932801546025" lon="12.317802945899778"><ele>425.8571428571429</ele><time>2026-04-17T14:30:03Z</time></trkpt><trkpt lat="42.62936500397977" lon="12.317720403634988"><ele>426.1428571428571</ele><time>2026-04-17T14:30:04Z</time></trkpt><trkpt lat="42.629418891183875" lon="12.317663480005834"><ele>426.42857142857144</ele><time>2026-04-17T14:30:05Z</time></trkpt><trkpt lat="42.62945706386804" lon="12.3175916728158"><ele>426.7142857142857</ele><time>2026-04-17T14:30:06Z</time></trkpt><trkpt lat="42.62951030751087" lon="12.31753789391969"><ele>427.0</ele><time>2026-04-17T14:30:07Z</time></trkpt><trkpt lat="42.62962111411558" lon="12.3174670487679"><ele>427.00000000000006</ele><time>2026-04-17T14:30:09Z</time></trkpt><trkpt lat="42.62967198525958" lon="12.317330252820959"><ele>427.0</ele><time>2026-04-17T14:30:11Z</time></trkpt><trkpt lat="42.62962233876233" lon="12.31724017974983"><ele>427.0</ele><time>2026-04-17T14:30:12Z</time></trkpt><trkpt lat="42.62956277540519" lon="12.317191202763256"><ele>427.0</ele><time>2026-04-17T14:30:13Z</time></trkpt><trkpt lat="42.629535257869925" lon="12.317072468966103"><ele>427.00000000000006</ele><time>2026-04-17T14:30:15Z</time></trkpt><trkpt lat="42.629530813644124" lon="12.316975937928014"><ele>427.0</ele><time>2026-04-17T14:30:17.001Z</time></trkpt><trkpt lat="42.62960575037101" lon="12.316888529128747"><ele>426.50000000000006</ele><time>2026-04-17T14:30:18Z</time></trkpt><trkpt lat="42.62963166019004" lon="12.31680124826856"><ele>426.0</ele><time>2026-04-17T14:30:19Z</time></trkpt><trkpt lat="42.62964916266216" lon="12.31668913960005"><ele>425.5</ele><time>2026-04-17T14:30:20Z</time></trkpt><trkpt lat="42.62967435026686" lon="12.316543269223846"><ele>425.0</ele><time>2026-04-17T14:30:21Z</time></trkpt><trkpt lat="42.629684929107526" lon="12.316425506740273"><ele>424.50000000000006</ele><time>2026-04-17T14:30:22Z</time></trkpt><trkpt lat="42.629694328702094" lon="12.316320685708718"><ele>424.0</ele><time>2026-04-17T14:30:23Z</time></trkpt><trkpt lat="42.629703964132" lon="12.316218136935332"><ele>423.33333333333337</ele><time>2026-04-17T14:30:24Z</time></trkpt><trkpt lat="42.62971393853834" lon="12.316119629846174"><ele>422.6666666666667</ele><time>2026-04-17T14:30:25Z</time></trkpt><trkpt lat="42.629726619321474" lon="12.316008896983618"><ele>422.0</ele><time>2026-04-17T14:30:26Z</time></trkpt><trkpt lat="42.62974842401179" lon="12.31588805926633"><ele>421.33333333333337</ele><time>2026-04-17T14:30:27Z</time></trkpt><trkpt lat="42.62977404301282" lon="12.315760211733235"><ele>420.6666666666667</ele><time>2026-04-17T14:30:28Z</time></trkpt><trkpt lat="42.629818875355376" lon="12.31564394768251"><ele>420.0</ele><time>2026-04-17T14:30:29Z</time></trkpt><trkpt lat="42.629861623738506" lon="12.315533283142534"><ele>419.4</ele><time>2026-04-17T14:30:30Z</time></trkpt><trkpt lat="42.62991326799814" lon="12.315432859137895"><ele>418.8</ele><time>2026-04-17T14:30:31Z</time></trkpt><trkpt lat="42.62997256635327" lon="12.315332782090268"><ele>418.20000000000005</ele><time>2026-04-17T14:30:32Z</time></trkpt><trkpt lat="42.63003562443859" lon="12.315221175189553"><ele>417.6</ele><time>2026-04-17T14:30:33Z</time></trkpt><trkpt lat="42.63009700053336" lon="12.31510908458078"><ele>417.0</ele><time>2026-04-17T14:30:34Z</time></trkpt><trkpt lat="42.63016039336542" lon="12.314993774671706"><ele>417.0</ele><time>2026-04-17T14:30:35Z</time></trkpt><trkpt lat="42.63022889028184" lon="12.314879553395649"><ele>417.0</ele><time>2026-04-17T14:30:36Z</time></trkpt><trkpt lat="42.63028331404701" lon="12.314760380680728"><ele>417.0</ele><time>2026-04-17T14:30:37Z</time></trkpt><trkpt lat="42.63036084476827" lon="12.31467263957702"><ele>417.0</ele><time>2026-04-17T14:30:38Z</time></trkpt><trkpt lat="42.63042285009489" lon="12.31457555448251"><ele>417.0</ele><time>2026-04-17T14:30:39Z</time></trkpt><trkpt lat="42.63047416455159" lon="12.314478039492528"><ele>417.6</ele><time>2026-04-17T14:30:40Z</time></trkpt><trkpt lat="42.63052302858773" lon="12.314380334566037"><ele>418.20000000000005</ele><time>2026-04-17T14:30:41Z</time></trkpt><trkpt lat="42.63058270555184" lon="12.314279066370185"><ele>418.8</ele><time>2026-04-17T14:30:42Z</time></trkpt><trkpt lat="42.630649081265005" lon="12.314173386019696"><ele>419.4</ele><time>2026-04-17T14:30:43Z</time></trkpt><trkpt lat="42.63070260790047" lon="12.31405573345174"><ele>420.0</ele><time>2026-04-17T14:30:44Z</time></trkpt><trkpt lat="42.63075770969533" lon="12.313955474804503"><ele>419.2</ele><time>2026-04-17T14:30:45Z</time></trkpt><trkpt lat="42.63082445348141" lon="12.313852846116315"><ele>418.4</ele><time>2026-04-17T14:30:46Z</time></trkpt><trkpt lat="42.6308601969736" lon="12.313713941575045"><ele>417.6</ele><time>2026-04-17T14:30:47Z</time></trkpt><trkpt lat="42.63090871203011" lon="12.313587330681008"><ele>416.8</ele><time>2026-04-17T14:30:48Z</time></trkpt><trkpt lat="42.63096931264338" lon="12.31347170714537"><ele>416.0</ele><time>2026-04-17T14:30:49Z</time></trkpt><trkpt lat="42.631017397621946" lon="12.313343886665216"><ele>416.0</ele><time>2026-04-17T14:30:50Z</time></trkpt><trkpt lat="42.63104912488345" lon="12.313208562633289"><ele>416.0</ele><time>2026-04-17T14:30:51Z</time></trkpt><trkpt lat="42.63110004372386" lon="12.31308446623039"><ele>416.0</ele><time>2026-04-17T14:30:52Z</time></trkpt><trkpt lat="42.63113322742506" lon="12.312944256673864"><ele>416.0</ele><time>2026-04-17T14:30:53Z</time></trkpt><trkpt lat="42.6311784699843" lon="12.312808854407935"><ele>416.0</ele><time>2026-04-17T14:30:54Z</time></trkpt><trkpt lat="42.631223899833735" lon="12.312667984299596"><ele>416.20000000000005</ele><time>2026-04-17T14:30:55Z</time></trkpt><trkpt lat="42.63126244976118" lon="12.312534929856952"><ele>416.40000000000003</ele><time>2026-04-17T14:30:56Z</time></trkpt><trkpt lat="42.631316884749296" lon="12.3124097229733"><ele>416.6</ele><time>2026-04-17T14:30:57Z</time></trkpt><trkpt lat="42.63135516273968" lon="12.312276256647085"><ele>416.8</ele><time>2026-04-17T14:30:58Z</time></trkpt><trkpt lat="42.63138253421122" lon="12.312147204437583"><ele>417.0</ele><time>2026-04-17T14:30:59Z</time></trkpt><trkpt lat="42.631386412051214" lon="12.312019318890243"><ele>417.40000000000003</ele><time>2026-04-17T14:31:00Z</time></trkpt><trkpt lat="42.63141809764765" lon="12.311910387210117"><ele>417.8</ele><time>2026-04-17T14:31:01Z</time></trkpt><trkpt lat="42.63148394092745" lon="12.311813989465852"><ele>418.2</ele><time>2026-04-17T14:31:02Z</time></trkpt><trkpt lat="42.63153136749013" lon="12.311727242057172"><ele>418.6</ele><time>2026-04-17T14:31:03Z</time></trkpt><trkpt lat="42.631656921172194" lon="12.311757959725657"><ele>419.0</ele><time>2026-04-17T14:31:04Z</time></trkpt><trkpt lat="42.631761328392514" lon="12.311722691017591"><ele>419.0</ele><time>2026-04-17T14:31:05Z</time></trkpt><trkpt lat="42.63185005669017" lon="12.311691092744736"><ele>419.0</ele><time>2026-04-17T14:31:06Z</time></trkpt><trkpt lat="42.63193784351759" lon="12.311658518781393"><ele>419.0</ele><time>2026-04-17T14:31:07Z</time></trkpt><trkpt lat="42.632036388089915" lon="12.311615963626908"><ele>419.0</ele><time>2026-04-17T14:31:08Z</time></trkpt><trkpt lat="42.63212994233122" lon="12.311572865201034"><ele>419.0</ele><time>2026-04-17T14:31:09Z</time></trkpt><trkpt lat="42.632230846535315" lon="12.311525271149097"><ele>419.0</ele><time>2026-04-17T14:31:10Z</time></trkpt><trkpt lat="42.63232780844654" lon="12.311476794490044"><ele>419.0</ele><time>2026-04-17T14:31:11Z</time></trkpt><trkpt lat="42.63242637724418" lon="12.311426673714024"><ele>419.0</ele><time>2026-04-17T14:31:12Z</time></trkpt><trkpt lat="42.63253152012237" lon="12.311370476656071"><ele>419.0</ele><time>2026-04-17T14:31:13Z</time></trkpt><trkpt lat="42.63263602074435" lon="12.311314018607902"><ele>419.0</ele><time>2026-04-17T14:31:14Z</time></trkpt><trkpt lat="42.6327390315942" lon="12.31125700449456"><ele>418.79999999999995</ele><time>2026-04-17T14:31:15Z</time></trkpt><trkpt lat="42.63283436956824" lon="12.311204237138464"><ele>418.59999999999997</ele><time>2026-04-17T14:31:16Z</time></trkpt><trkpt lat="42.63293598171131" lon="12.311147997178356"><ele>418.4</ele><time>2026-04-17T14:31:17Z</time></trkpt><trkpt lat="42.63303826584054" lon="12.311091385287627"><ele>418.2</ele><time>2026-04-17T14:31:18Z</time></trkpt><trkpt lat="42.63313279745363" lon="12.311039064234361"><ele>418.0</ele><time>2026-04-17T14:31:19Z</time></trkpt><trkpt lat="42.63323580611182" lon="12.310982051337538"><ele>418.0</ele><time>2026-04-17T14:31:20Z</time></trkpt><trkpt lat="42.633343671077945" lon="12.310922350582473"><ele>418.0</ele><time>2026-04-17T14:31:21Z</time></trkpt><trkpt lat="42.63344754036113" lon="12.310864861344195"><ele>418.0</ele><time>2026-04-17T14:31:22Z</time></trkpt><trkpt lat="42.63355028932523" lon="12.31080799218055"><ele>418.0</ele><time>2026-04-17T14:31:23Z</time></trkpt><trkpt lat="42.633658285516084" lon="12.310748275353001"><ele>418.25</ele><time>2026-04-17T14:31:24Z</time></trkpt><trkpt lat="42.63376738609384" lon="12.310687957865676"><ele>418.5</ele><time>2026-04-17T14:31:25Z</time></trkpt><trkpt lat="42.63387324196271" lon="12.310633141240558"><ele>418.75</ele><time>2026-04-17T14:31:26Z</time></trkpt><trkpt lat="42.63397824109771" lon="12.310579396587304"><ele>419.0</ele><time>2026-04-17T14:31:27Z</time></trkpt><trkpt lat="42.63409023671494" lon="12.310525225954862"><ele>419.25</ele><time>2026-04-17T14:31:28Z</time></trkpt><trkpt lat="42.63420428477851" lon="12.310470062598164"><ele>419.5</ele><time>2026-04-17T14:31:29Z</time></trkpt><trkpt lat="42.634310366027684" lon="12.310415217417505"><ele>419.75</ele><time>2026-04-17T14:31:30Z</time></trkpt><trkpt lat="42.63440958438732" lon="12.310342420234846"><ele>420.0</ele><time>2026-04-17T14:31:31Z</time></trkpt><trkpt lat="42.63451267091707" lon="12.310296840590663"><ele>420.2</ele><time>2026-04-17T14:31:32Z</time></trkpt><trkpt lat="42.63460676590328" lon="12.31025605351635"><ele>420.4</ele><time>2026-04-17T14:31:33Z</time></trkpt><trkpt lat="42.634708870775064" lon="12.31025079294013"><ele>420.6</ele><time>2026-04-17T14:31:34Z</time></trkpt><trkpt lat="42.63480544738396" lon="12.310230564163914"><ele>420.8</ele><time>2026-04-17T14:31:35Z</time></trkpt><trkpt lat="42.634911574823576" lon="12.310223642797014"><ele>421.0</ele><time>2026-04-17T14:31:36Z</time></trkpt><trkpt lat="42.63501504201373" lon="12.310217983118317"><ele>421.0</ele><time>2026-04-17T14:31:37Z</time></trkpt><trkpt lat="42.63511414788582" lon="12.310215324540387"><ele>421.0</ele><time>2026-04-17T14:31:38Z</time></trkpt><trkpt lat="42.635216900889084" lon="12.310212477036611"><ele>421.0</ele><time>2026-04-17T14:31:39Z</time></trkpt><trkpt lat="42.635325357757864" lon="12.310209177873565"><ele>421.0</ele><time>2026-04-17T14:31:40Z</time></trkpt><trkpt lat="42.63543223324293" lon="12.310205926812852"><ele>421.0</ele><time>2026-04-17T14:31:41Z</time></trkpt><trkpt lat="42.63554268830467" lon="12.310202566865451"><ele>420.75</ele><time>2026-04-17T14:31:42Z</time></trkpt><trkpt lat="42.63565443649166" lon="12.310199167581006"><ele>420.5</ele><time>2026-04-17T14:31:43Z</time></trkpt><trkpt lat="42.63576844883846" lon="12.310195699422499"><ele>420.25</ele><time>2026-04-17T14:31:44Z</time></trkpt><trkpt lat="42.63588829512534" lon="12.310192053802018"><ele>420.0</ele><time>2026-04-17T14:31:45Z</time></trkpt><trkpt lat="42.63601017076884" lon="12.310188346451548"><ele>420.0</ele><time>2026-04-17T14:31:46Z</time></trkpt><trkpt lat="42.636133179529196" lon="12.310184604630678"><ele>420.0</ele><time>2026-04-17T14:31:47Z</time></trkpt><trkpt lat="42.63625384868653" lon="12.310180933978637"><ele>420.0</ele><time>2026-04-17T14:31:48.001Z</time></trkpt><trkpt lat="42.636372322698485" lon="12.310177330101208"><ele>420.0</ele><time>2026-04-17T14:31:49.001Z</time></trkpt><trkpt lat="42.636486525297364" lon="12.310174254873566"><ele>419.25</ele><time>2026-04-17T14:31:50.001Z</time></trkpt><trkpt lat="42.636603308955635" lon="12.310173558777727"><ele>418.5</ele><time>2026-04-17T14:31:51.001Z</time></trkpt><trkpt lat="42.63672903663544" lon="12.31017332934325"><ele>417.75</ele><time>2026-04-17T14:31:52.001Z</time></trkpt><trkpt lat="42.63686317284702" lon="12.310174233408468"><ele>417.0</ele><time>2026-04-17T14:31:53.001Z</time></trkpt><trkpt lat="42.63700802466803" lon="12.31017520969449"><ele>416.40000000000003</ele><time>2026-04-17T14:31:54.001Z</time></trkpt><trkpt lat="42.637140407140436" lon="12.310175753159218"><ele>415.8</ele><time>2026-04-17T14:31:55.001Z</time></trkpt><trkpt lat="42.6372569587898" lon="12.3101757531603"><ele>415.2</ele><time>2026-04-17T14:31:56.001Z</time></trkpt><trkpt lat="42.63736019419438" lon="12.31016027025426"><ele>414.6</ele><time>2026-04-17T14:31:57.001Z</time></trkpt><trkpt lat="42.637453514668586" lon="12.31017233388767"><ele>414.0</ele><time>2026-04-17T14:31:58.001Z</time></trkpt><trkpt lat="42.63754739905643" lon="12.310183511546837"><ele>414.0</ele><time>2026-04-17T14:31:59.001Z</time></trkpt><trkpt lat="42.63765100068191" lon="12.310175190207135"><ele>414.0</ele><time>2026-04-17T14:32:00.001Z</time></trkpt><trkpt lat="42.63775903962213" lon="12.310173982403805"><ele>414.0</ele><time>2026-04-17T14:32:01.001Z</time></trkpt><trkpt lat="42.637850005771085" lon="12.31010785875957"><ele>414.0</ele><time>2026-04-17T14:32:02.001Z</time></trkpt><trkpt lat="42.63794032727976" lon="12.310079564608891"><ele>414.0</ele><time>2026-04-17T14:32:03.001Z</time></trkpt><trkpt lat="42.63802674760779" lon="12.310031056459676"><ele>413.4</ele><time>2026-04-17T14:32:04.001Z</time></trkpt><trkpt lat="42.63811502763489" lon="12.309979583383203"><ele>412.79999999999995</ele><time>2026-04-17T14:32:05.001Z</time></trkpt><trkpt lat="42.63819913567283" lon="12.309928316332712"><ele>412.20000000000005</ele><time>2026-04-17T14:32:06.001Z</time></trkpt><trkpt lat="42.63828888067079" lon="12.3098715665054"><ele>411.6</ele><time>2026-04-17T14:32:07.001Z</time></trkpt><trkpt lat="42.638380747426794" lon="12.309806506252952"><ele>411.0</ele><time>2026-04-17T14:32:08.001Z</time></trkpt><trkpt lat="42.63847120033187" lon="12.309740268132884"><ele>410.75</ele><time>2026-04-17T14:32:09.001Z</time></trkpt><trkpt lat="42.6385629969453" lon="12.309670753635803"><ele>410.5</ele><time>2026-04-17T14:32:10.001Z</time></trkpt><trkpt lat="42.63866895627482" lon="12.309586402420637"><ele>410.25</ele><time>2026-04-17T14:32:11.001Z</time></trkpt><trkpt lat="42.63878585963235" lon="12.309491942282362"><ele>410.0</ele><time>2026-04-17T14:32:12.001Z</time></trkpt><trkpt lat="42.63889629638217" lon="12.309406593995565"><ele>409.75</ele><time>2026-04-17T14:32:13.001Z</time></trkpt><trkpt lat="42.6389990421275" lon="12.309306502339208"><ele>409.5</ele><time>2026-04-17T14:32:14.001Z</time></trkpt><trkpt lat="42.63910836113669" lon="12.309231804508524"><ele>409.25</ele><time>2026-04-17T14:32:15.001Z</time></trkpt><trkpt lat="42.639226553361475" lon="12.309154361724078"><ele>409.0</ele><time>2026-04-17T14:32:16.001Z</time></trkpt><trkpt lat="42.63933906863711" lon="12.309076004649143"><ele>409.0</ele><time>2026-04-17T14:32:17.001Z</time></trkpt><trkpt lat="42.63945850302517" lon="12.309021840123908"><ele>409.0</ele><time>2026-04-17T14:32:18.001Z</time></trkpt><trkpt lat="42.63957684659296" lon="12.30893198126958"><ele>409.0</ele><time>2026-04-17T14:32:19.001Z</time></trkpt><trkpt lat="42.63968698010481" lon="12.30886393827574"><ele>409.0</ele><time>2026-04-17T14:32:20.001Z</time></trkpt><trkpt lat="42.63978358885479" lon="12.308805656627694"><ele>408.83333333333337</ele><time>2026-04-17T14:32:21.001Z</time></trkpt><trkpt lat="42.63986446712519" lon="12.308763172607572"><ele>408.6666666666667</ele><time>2026-04-17T14:32:22.001Z</time></trkpt><trkpt lat="42.63993295286105" lon="12.30869516235017"><ele>408.5</ele><time>2026-04-17T14:32:23.001Z</time></trkpt><trkpt lat="42.63999144730948" lon="12.308639879597512"><ele>408.33333333333337</ele><time>2026-04-17T14:32:24Z</time></trkpt><trkpt lat="42.64003175486953" lon="12.308536884537197"><ele>408.1666666666667</ele><time>2026-04-17T14:32:25Z</time></trkpt><trkpt lat="42.640033807783084" lon="12.308415425903876"><ele>408.0</ele><time>2026-04-17T14:32:26Z</time></trkpt><trkpt lat="42.64005286701519" lon="12.308308995278777"><ele>408.0</ele><time>2026-04-17T14:32:27Z</time></trkpt><trkpt lat="42.64009023281822" lon="12.308210154842628"><ele>408.0</ele><time>2026-04-17T14:32:28Z</time></trkpt><trkpt lat="42.64014700605477" lon="12.308129516893795"><ele>408.0</ele><time>2026-04-17T14:32:29Z</time></trkpt><trkpt lat="42.640216697065505" lon="12.308038727959271"><ele>408.0</ele><time>2026-04-17T14:32:30Z</time></trkpt><trkpt lat="42.64027809989155" lon="12.307957270567305"><ele>408.0</ele><time>2026-04-17T14:32:31Z</time></trkpt><trkpt lat="42.6403327818636" lon="12.307884729180147"><ele>408.0</ele><time>2026-04-17T14:32:32Z</time></trkpt><trkpt lat="42.64038560878551" lon="12.307814648778049"><ele>408.1666666666667</ele><time>2026-04-17T14:32:33Z</time></trkpt><trkpt lat="42.64044093018334" lon="12.307741930282198"><ele>408.33333333333337</ele><time>2026-04-17T14:32:34Z</time></trkpt><trkpt lat="42.6404959378172" lon="12.307669605801758"><ele>408.5</ele><time>2026-04-17T14:32:35Z</time></trkpt><trkpt lat="42.6405540614099" lon="12.30759318434969"><ele>408.6666666666667</ele><time>2026-04-17T14:32:36Z</time></trkpt><trkpt lat="42.64061432305943" lon="12.307513951772583"><ele>408.83333333333337</ele><time>2026-04-17T14:32:37Z</time></trkpt><trkpt lat="42.64066235279719" lon="12.30742206082952"><ele>409.0</ele><time>2026-04-17T14:32:38Z</time></trkpt><trkpt lat="42.64072792072483" lon="12.30734557070059"><ele>409.0</ele><time>2026-04-17T14:32:39Z</time></trkpt><trkpt lat="42.64078770942419" lon="12.307255010440427"><ele>409.0</ele><time>2026-04-17T14:32:40Z</time></trkpt><trkpt lat="42.640851177848994" lon="12.307165311418093"><ele>409.0</ele><time>2026-04-17T14:32:41Z</time></trkpt><trkpt lat="42.640920265759455" lon="12.307077572836212"><ele>409.0</ele><time>2026-04-17T14:32:42Z</time></trkpt><trkpt lat="42.64098362534022" lon="12.306986455179509"><ele>409.0</ele><time>2026-04-17T14:32:43Z</time></trkpt><trkpt lat="42.64104648548092" lon="12.306893166558682"><ele>408.83333333333337</ele><time>2026-04-17T14:32:44Z</time></trkpt><trkpt lat="42.64110465610961" lon="12.306813478916226"><ele>408.6666666666667</ele><time>2026-04-17T14:32:45Z</time></trkpt><trkpt lat="42.64115428370998" lon="12.306748677038927"><ele>408.5</ele><time>2026-04-17T14:32:46Z</time></trkpt><trkpt lat="42.64121160531532" lon="12.306663357456902"><ele>408.33333333333337</ele><time>2026-04-17T14:32:48Z</time></trkpt><trkpt lat="42.64125321335378" lon="12.306589403892776"><ele>408.1666666666667</ele><time>2026-04-17T14:34:41Z</time></trkpt><trkpt lat="42.64131423517416" lon="12.30650567556728"><ele>408.0</ele><time>2026-04-17T14:34:44Z</time></trkpt><trkpt lat="42.64137694072753" lon="12.306419294848666"><ele>407.4</ele><time>2026-04-17T14:34:45Z</time></trkpt><trkpt lat="42.641463300648326" lon="12.306304922117743"><ele>406.79999999999995</ele><time>2026-04-17T14:34:46Z</time></trkpt><trkpt lat="42.64154572559087" lon="12.306193289724018"><ele>406.2</ele><time>2026-04-17T14:34:47Z</time></trkpt><trkpt lat="42.6416124059506" lon="12.306103809028036"><ele>405.6</ele><time>2026-04-17T14:34:48Z</time></trkpt><trkpt lat="42.64167205271679" lon="12.306018747650377"><ele>405.0</ele><time>2026-04-17T14:34:49Z</time></trkpt><trkpt lat="42.641737184113175" lon="12.305955708668181"><ele>405.0</ele><time>2026-04-17T14:34:50Z</time></trkpt><trkpt lat="42.64178494171037" lon="12.305889808087661"><ele>405.0</ele><time>2026-04-17T14:34:51Z</time></trkpt><trkpt lat="42.64182668751557" lon="12.305812246749877"><ele>405.0</ele><time>2026-04-17T14:34:52Z</time></trkpt><trkpt lat="42.64191873736586" lon="12.305693167756514"><ele>405.0</ele><time>2026-04-17T14:34:54Z</time></trkpt><trkpt lat="42.64199180229084" lon="12.30560228079203"><ele>405.0</ele><time>2026-04-17T14:34:56Z</time></trkpt><trkpt lat="42.64204889583962" lon="12.305529868187174"><ele>405.0</ele><time>2026-04-17T14:35:01Z</time></trkpt><trkpt lat="42.642140403001854" lon="12.305383191115183"><ele>406.0</ele><time>2026-04-17T14:35:03Z</time></trkpt><trkpt lat="42.64220755978049" lon="12.3052867485847"><ele>407.0</ele><time>2026-04-17T14:35:04Z</time></trkpt><trkpt lat="42.64228741724668" lon="12.305177638077314"><ele>408.0</ele><time>2026-04-17T14:35:05Z</time></trkpt><trkpt lat="42.642402093288375" lon="12.305018512920206"><ele>409.0</ele><time>2026-04-17T14:35:06Z</time></trkpt><trkpt lat="42.642542737349416" lon="12.304834698252007"><ele>408.6666666666667</ele><time>2026-04-17T14:35:07Z</time></trkpt><trkpt lat="42.64267478138046" lon="12.304660409588916"><ele>408.33333333333337</ele><time>2026-04-17T14:35:08Z</time></trkpt><trkpt lat="42.64279237307402" lon="12.304540944549089"><ele>408.0</ele><time>2026-04-17T14:35:09Z</time></trkpt><trkpt lat="42.64288448678681" lon="12.30442212893451"><ele>408.0</ele><time>2026-04-17T14:35:10Z</time></trkpt><trkpt lat="42.64296075068466" lon="12.304316252220781"><ele>408.0</ele><time>2026-04-17T14:35:11Z</time></trkpt><trkpt lat="42.64303027593667" lon="12.304219730703588"><ele>408.0</ele><time>2026-04-17T14:35:12Z</time></trkpt><trkpt lat="42.64309099146922" lon="12.304135439700968"><ele>408.0</ele><time>2026-04-17T14:35:13Z</time></trkpt><trkpt lat="42.64315302338414" lon="12.304050213846882"><ele>408.0</ele><time>2026-04-17T14:35:14Z</time></trkpt><trkpt lat="42.64323143697272" lon="12.303945979074031"><ele>408.0</ele><time>2026-04-17T14:35:15Z</time></trkpt><trkpt lat="42.64332583728012" lon="12.303813304332355"><ele>408.0</ele><time>2026-04-17T14:35:16Z</time></trkpt><trkpt lat="42.64341183372089" lon="12.303717665547207"><ele>408.0</ele><time>2026-04-17T14:35:17Z</time></trkpt><trkpt lat="42.64348265758526" lon="12.303639979721282"><ele>408.0</ele><time>2026-04-17T14:35:18Z</time></trkpt><trkpt lat="42.64356083105159" lon="12.303587900416893"><ele>408.0</ele><time>2026-04-17T14:35:19Z</time></trkpt><trkpt lat="42.64363892641292" lon="12.30353072749675"><ele>408.0</ele><time>2026-04-17T14:35:20Z</time></trkpt><trkpt lat="42.643722973171634" lon="12.303477677899703"><ele>408.0</ele><time>2026-04-17T14:35:21Z</time></trkpt><trkpt lat="42.64381170532377" lon="12.30343262874042"><ele>408.0</ele><time>2026-04-17T14:35:22Z</time></trkpt><trkpt lat="42.643903033782074" lon="12.303375223688217"><ele>408.0</ele><time>2026-04-17T14:35:23Z</time></trkpt><trkpt lat="42.643987045944094" lon="12.303337267980194"><ele>408.0</ele><time>2026-04-17T14:35:24Z</time></trkpt><trkpt lat="42.644076935274626" lon="12.303282506681724"><ele>408.0</ele><time>2026-04-17T14:35:25Z</time></trkpt><trkpt lat="42.64416568859555" lon="12.30319327907923"><ele>408.0</ele><time>2026-04-17T14:35:26Z</time></trkpt><trkpt lat="42.64423642276253" lon="12.30308289726035"><ele>408.0</ele><time>2026-04-17T14:35:27Z</time></trkpt><trkpt lat="42.64431537264162" lon="12.302937469203636"><ele>408.0</ele><time>2026-04-17T14:35:28Z</time></trkpt><trkpt lat="42.644384383206464" lon="12.302819815052"><ele>407.25</ele><time>2026-04-17T14:35:29Z</time></trkpt><trkpt lat="42.64446482580871" lon="12.302755128288661"><ele>406.5</ele><time>2026-04-17T14:35:30Z</time></trkpt><trkpt lat="42.64458156314074" lon="12.302730998745494"><ele>405.75</ele><time>2026-04-17T14:35:31Z</time></trkpt><trkpt lat="42.64469458261707" lon="12.302685942119886"><ele>405.0</ele><time>2026-04-17T14:35:32Z</time></trkpt><trkpt lat="42.64481954458112" lon="12.302639381876446"><ele>405.0</ele><time>2026-04-17T14:35:33Z</time></trkpt><trkpt lat="42.64492635515769" lon="12.302578584885099"><ele>405.0</ele><time>2026-04-17T14:35:34Z</time></trkpt><trkpt lat="42.64502702939586" lon="12.302547138961804"><ele>405.0</ele><time>2026-04-17T14:35:35Z</time></trkpt><trkpt lat="42.64511397406486" lon="12.302517006266362"><ele>405.0</ele><time>2026-04-17T14:35:36Z</time></trkpt><trkpt lat="42.64521626379039" lon="12.302490651868482"><ele>405.0</ele><time>2026-04-17T14:35:37Z</time></trkpt><trkpt lat="42.645322009789815" lon="12.302455237987578"><ele>405.25</ele><time>2026-04-17T14:35:38.001Z</time></trkpt><trkpt lat="42.64543704798993" lon="12.302430324823534"><ele>405.5</ele><time>2026-04-17T14:35:39.001Z</time></trkpt><trkpt lat="42.645561522837184" lon="12.30240292250171"><ele>405.75</ele><time>2026-04-17T14:35:40.001Z</time></trkpt><trkpt lat="42.6456761519827" lon="12.302367663164961"><ele>406.0</ele><time>2026-04-17T14:35:41.001Z</time></trkpt><trkpt lat="42.6457831942028" lon="12.302335351676353"><ele>406.0</ele><time>2026-04-17T14:35:42.001Z</time></trkpt><trkpt lat="42.64588253202034" lon="12.3023013089632"><ele>406.0</ele><time>2026-04-17T14:35:43.001Z</time></trkpt><trkpt lat="42.64597869966046" lon="12.30227082328895"><ele>406.0</ele><time>2026-04-17T14:35:44.001Z</time></trkpt><trkpt lat="42.64607371676195" lon="12.30224720300504"><ele>406.0</ele><time>2026-04-17T14:35:45.001Z</time></trkpt><trkpt lat="42.646161670413804" lon="12.30222079796164"><ele>406.0</ele><time>2026-04-17T14:35:46.001Z</time></trkpt><trkpt lat="42.64625438233084" lon="12.302224052606105"><ele>405.0</ele><time>2026-04-17T14:35:47.001Z</time></trkpt><trkpt lat="42.64633369604848" lon="12.302152875574972"><ele>404.0</ele><time>2026-04-17T14:35:48.001Z</time></trkpt><trkpt lat="42.64642671850913" lon="12.302105735187702"><ele>403.0</ele><time>2026-04-17T14:35:49.001Z</time></trkpt><trkpt lat="42.6465311397542" lon="12.30209408705692"><ele>402.0</ele><time>2026-04-17T14:35:50.001Z</time></trkpt><trkpt lat="42.646633577570064" lon="12.302069785077704"><ele>401.0</ele><time>2026-04-17T14:35:51.001Z</time></trkpt><trkpt lat="42.64673308978214" lon="12.30205499570992"><ele>401.0</ele><time>2026-04-17T14:35:52.001Z</time></trkpt><trkpt lat="42.646832600550894" lon="12.30205049015395"><ele>401.0</ele><time>2026-04-17T14:35:53.001Z</time></trkpt><trkpt lat="42.64692600541952" lon="12.30205259032966"><ele>401.0</ele><time>2026-04-17T14:35:54.001Z</time></trkpt><trkpt lat="42.64702539470869" lon="12.302058659573499"><ele>401.0</ele><time>2026-04-17T14:35:55.001Z</time></trkpt><trkpt lat="42.64713094408498" lon="12.30206768763493"><ele>401.0</ele><time>2026-04-17T14:35:56.001Z</time></trkpt><trkpt lat="42.64724542975297" lon="12.302079822496768"><ele>400.5</ele><time>2026-04-17T14:35:57.001Z</time></trkpt><trkpt lat="42.64735813674547" lon="12.302091768831195"><ele>400.0</ele><time>2026-04-17T14:35:58.001Z</time></trkpt><trkpt lat="42.647477988167736" lon="12.302103685676554"><ele>399.5</ele><time>2026-04-17T14:35:59.001Z</time></trkpt><trkpt lat="42.64761900029607" lon="12.302092674906412"><ele>399.0</ele><time>2026-04-17T14:36:00.001Z</time></trkpt><trkpt lat="42.647754770164894" lon="12.302117589774035"><ele>398.4</ele><time>2026-04-17T14:36:01.001Z</time></trkpt><trkpt lat="42.647873199209215" lon="12.3021213892031"><ele>397.79999999999995</ele><time>2026-04-17T14:36:02.001Z</time></trkpt><trkpt lat="42.64798220152868" lon="12.302129142479004"><ele>397.20000000000005</ele><time>2026-04-17T14:36:03.001Z</time></trkpt><trkpt lat="42.64808239066654" lon="12.302136331189452"><ele>396.6</ele><time>2026-04-17T14:36:04.001Z</time></trkpt><trkpt lat="42.64817967399902" lon="12.302143032992785"><ele>396.0</ele><time>2026-04-17T14:36:05.001Z</time></trkpt><trkpt lat="42.648272360825054" lon="12.302148646912249"><ele>396.0</ele><time>2026-04-17T14:36:06.001Z</time></trkpt><trkpt lat="42.6483595876716" lon="12.302153930115079"><ele>396.0</ele><time>2026-04-17T14:36:07.001Z</time></trkpt><trkpt lat="42.648471154296224" lon="12.302160679425644"><ele>396.0</ele><time>2026-04-17T14:36:08.001Z</time></trkpt><trkpt lat="42.64859837359804" lon="12.302155180887185"><ele>396.0</ele><time>2026-04-17T14:36:09.001Z</time></trkpt><trkpt lat="42.648712340915004" lon="12.302164469504671"><ele>396.0</ele><time>2026-04-17T14:36:10.001Z</time></trkpt><trkpt lat="42.64881669377022" lon="12.302170260843523"><ele>396.20000000000005</ele><time>2026-04-17T14:36:11.001Z</time></trkpt><trkpt lat="42.648911732564684" lon="12.302162738096877"><ele>396.40000000000003</ele><time>2026-04-17T14:36:12.001Z</time></trkpt><trkpt lat="42.64900314803778" lon="12.302147991521181"><ele>396.6</ele><time>2026-04-17T14:36:13.001Z</time></trkpt><trkpt lat="42.64910573876528" lon="12.302120112338613"><ele>396.8</ele><time>2026-04-17T14:36:14.001Z</time></trkpt><trkpt lat="42.64920938883958" lon="12.302081578287858"><ele>397.0</ele><time>2026-04-17T14:36:15.001Z</time></trkpt><trkpt lat="42.64931541582564" lon="12.302014959671096"><ele>397.0</ele><time>2026-04-17T14:36:16.001Z</time></trkpt><trkpt lat="42.64945067054474" lon="12.301928250080584"><ele>397.0</ele><time>2026-04-17T14:36:17.001Z</time></trkpt><trkpt lat="42.64958205582547" lon="12.301896418903501"><ele>397.0</ele><time>2026-04-17T14:36:18.001Z</time></trkpt><trkpt lat="42.64971281639443" lon="12.30187910981061"><ele>397.0</ele><time>2026-04-17T14:36:19.001Z</time></trkpt><trkpt lat="42.649866890261386" lon="12.301858772584156"><ele>397.0</ele><time>2026-04-17T14:36:20.001Z</time></trkpt><trkpt lat="42.650030572293566" lon="12.301838851966082"><ele>397.0</ele><time>2026-04-17T14:36:21.001Z</time></trkpt><trkpt lat="42.65017008031706" lon="12.301821363256431"><ele>397.0</ele><time>2026-04-17T14:36:22.001Z</time></trkpt><trkpt lat="42.65030145062328" lon="12.30178305347283"><ele>397.0</ele><time>2026-04-17T14:36:23.001Z</time></trkpt><trkpt lat="42.65042078031248" lon="12.30176925825637"><ele>397.33333333333337</ele><time>2026-04-17T14:36:24.001Z</time></trkpt><trkpt lat="42.65052790348216" lon="12.301755917270587"><ele>397.6666666666667</ele><time>2026-04-17T14:36:25.001Z</time></trkpt><trkpt lat="42.65062203903056" lon="12.301742884922689"><ele>398.0</ele><time>2026-04-17T14:36:26.001Z</time></trkpt><trkpt lat="42.65070389395777" lon="12.301739451698587"><ele>398.33333333333337</ele><time>2026-04-17T14:36:27.001Z</time></trkpt><trkpt lat="42.65077573627051" lon="12.301741154850754"><ele>398.6666666666667</ele><time>2026-04-17T14:36:28.001Z</time></trkpt><trkpt lat="42.65084369042037" lon="12.301742054201267"><ele>399.0</ele><time>2026-04-17T14:36:29.001Z</time></trkpt><trkpt lat="42.650910753727665" lon="12.301744204775305"><ele>399.0</ele><time>2026-04-17T14:36:30.001Z</time></trkpt><trkpt lat="42.65097649019428" lon="12.301741687178327"><ele>399.0</ele><time>2026-04-17T14:36:31.001Z</time></trkpt><trkpt lat="42.65108646494316" lon="12.301669152509692"><ele>399.0</ele><time>2026-04-17T14:36:33.001Z</time></trkpt><trkpt lat="42.65110779468366" lon="12.301572654453478"><ele>399.0</ele><time>2026-04-17T14:36:34.001Z</time></trkpt><trkpt lat="42.651099445103725" lon="12.301470417225273"><ele>399.0</ele><time>2026-04-17T14:36:35.001Z</time></trkpt><trkpt lat="42.65108333331501" lon="12.301366147821101"><ele>399.0</ele><time>2026-04-17T14:36:36Z</time></trkpt><trkpt lat="42.651073263442406" lon="12.30126509902053"><ele>398.3333333333333</ele><time>2026-04-17T14:36:37Z</time></trkpt><trkpt lat="42.65106762097959" lon="12.30117320958851"><ele>397.66666666666663</ele><time>2026-04-17T14:36:38Z</time></trkpt><trkpt lat="42.65106443882324" lon="12.301082469898306"><ele>397.0</ele><time>2026-04-17T14:36:39Z</time></trkpt><trkpt lat="42.651060086885714" lon="12.300982326391"><ele>396.3333333333333</ele><time>2026-04-17T14:36:40Z</time></trkpt><trkpt lat="42.65106260967455" lon="12.30087692290745"><ele>395.66666666666663</ele><time>2026-04-17T14:36:41Z</time></trkpt><trkpt lat="42.65107812596052" lon="12.300760572758154"><ele>395.0</ele><time>2026-04-17T14:36:42Z</time></trkpt><trkpt lat="42.651099564810956" lon="12.300642881667784"><ele>394.16666666666663</ele><time>2026-04-17T14:36:43Z</time></trkpt><trkpt lat="42.65114906711794" lon="12.300537555495714"><ele>393.3333333333333</ele><time>2026-04-17T14:36:44Z</time></trkpt><trkpt lat="42.651174211721084" lon="12.300416879906379"><ele>392.5</ele><time>2026-04-17T14:36:45Z</time></trkpt><trkpt lat="42.65122024544995" lon="12.30031922815683"><ele>391.66666666666663</ele><time>2026-04-17T14:36:46Z</time></trkpt><trkpt lat="42.65125508226187" lon="12.300213539905393"><ele>390.8333333333333</ele><time>2026-04-17T14:36:47Z</time></trkpt><trkpt lat="42.65128261087872" lon="12.300099941885218"><ele>390.0</ele><time>2026-04-17T14:36:48Z</time></trkpt><trkpt lat="42.651302580956816" lon="12.299973436717329"><ele>390.0</ele><time>2026-04-17T14:36:49Z</time></trkpt><trkpt lat="42.65130451351444" lon="12.299849464153157"><ele>390.0</ele><time>2026-04-17T14:36:50Z</time></trkpt><trkpt lat="42.651322744358254" lon="12.299743754624597"><ele>390.0</ele><time>2026-04-17T14:36:51Z</time></trkpt><trkpt lat="42.651324711559624" lon="12.299657345477824"><ele>390.0</ele><time>2026-04-17T14:36:52Z</time></trkpt><trkpt lat="42.651321542207" lon="12.299527951968761"><ele>390.0</ele><time>2026-04-17T14:36:54Z</time></trkpt><trkpt lat="42.65133581894031" lon="12.299441449187663"><ele>390.0</ele><time>2026-04-17T14:36:56Z</time></trkpt><trkpt lat="42.65140070387417" lon="12.299349043288606"><ele>389.6666666666667</ele><time>2026-04-17T14:37:04Z</time></trkpt><trkpt lat="42.65146889857523" lon="12.299274747926077"><ele>389.33333333333337</ele><time>2026-04-17T14:37:06Z</time></trkpt><trkpt lat="42.65152697417036" lon="12.299200334714358"><ele>389.0</ele><time>2026-04-17T14:37:07Z</time></trkpt><trkpt lat="42.65157168538074" lon="12.299133851429781"><ele>388.6666666666667</ele><time>2026-04-17T14:37:08Z</time></trkpt><trkpt lat="42.65160467143459" lon="12.299036416130086"><ele>388.33333333333337</ele><time>2026-04-17T14:37:09Z</time></trkpt><trkpt lat="42.651659203183264" lon="12.298963884372514"><ele>388.0</ele><time>2026-04-17T14:37:10Z</time></trkpt><trkpt lat="42.651703592014584" lon="12.298877487900842"><ele>387.79999999999995</ele><time>2026-04-17T14:37:11Z</time></trkpt><trkpt lat="42.65175704989053" lon="12.298785632844748"><ele>387.6</ele><time>2026-04-17T14:37:12Z</time></trkpt><trkpt lat="42.651822901635306" lon="12.2986978673002"><ele>387.4</ele><time>2026-04-17T14:37:13Z</time></trkpt><trkpt lat="42.65189852548082" lon="12.298602977517302"><ele>387.20000000000005</ele><time>2026-04-17T14:37:14Z</time></trkpt><trkpt lat="42.65198609859777" lon="12.298513504041315"><ele>387.0</ele><time>2026-04-17T14:37:15Z</time></trkpt><trkpt lat="42.65207251382533" lon="12.2984371883858"><ele>385.75</ele><time>2026-04-17T14:37:16Z</time></trkpt><trkpt lat="42.65217243120156" lon="12.298366261409882"><ele>384.5</ele><time>2026-04-17T14:37:17Z</time></trkpt><trkpt lat="42.65228006810891" lon="12.298307317286229"><ele>383.25</ele><time>2026-04-17T14:37:18Z</time></trkpt><trkpt lat="42.652384785649296" lon="12.29823975374283"><ele>382.0</ele><time>2026-04-17T14:37:19Z</time></trkpt><trkpt lat="42.6524879442785" lon="12.298171331341177"><ele>382.0</ele><time>2026-04-17T14:37:20Z</time></trkpt><trkpt lat="42.65257976707534" lon="12.298086647416875"><ele>382.0</ele><time>2026-04-17T14:37:21Z</time></trkpt><trkpt lat="42.65267286706416" lon="12.29797286341259"><ele>382.0</ele><time>2026-04-17T14:37:22Z</time></trkpt><trkpt lat="42.65276644483811" lon="12.297848655700164"><ele>382.0</ele><time>2026-04-17T14:37:23Z</time></trkpt><trkpt lat="42.65286866828567" lon="12.297725099066556"><ele>383.0</ele><time>2026-04-17T14:37:24Z</time></trkpt><trkpt lat="42.652977208403094" lon="12.29763208992291"><ele>384.0</ele><time>2026-04-17T14:37:25Z</time></trkpt><trkpt lat="42.653069303030534" lon="12.297544599915298"><ele>385.0</ele><time>2026-04-17T14:37:26Z</time></trkpt><trkpt lat="42.653156829230866" lon="12.297457529052881"><ele>386.0</ele><time>2026-04-17T14:37:27Z</time></trkpt><trkpt lat="42.653244473642374" lon="12.297359198251783"><ele>384.75</ele><time>2026-04-17T14:37:28Z</time></trkpt><trkpt lat="42.653319562149186" lon="12.297216652659124"><ele>383.5</ele><time>2026-04-17T14:37:29Z</time></trkpt><trkpt lat="42.65339839667253" lon="12.29706323884417"><ele>382.25</ele><time>2026-04-17T14:37:30Z</time></trkpt><trkpt lat="42.65348302963716" lon="12.296930085407807"><ele>381.0</ele><time>2026-04-17T14:37:31Z</time></trkpt><trkpt lat="42.65353761511807" lon="12.296784254195"><ele>381.0</ele><time>2026-04-17T14:37:32Z</time></trkpt><trkpt lat="42.653608425067674" lon="12.296669028189747"><ele>381.0</ele><time>2026-04-17T14:37:33Z</time></trkpt><trkpt lat="42.653667458423904" lon="12.296545171154408"><ele>381.0</ele><time>2026-04-17T14:37:34Z</time></trkpt><trkpt lat="42.65373772517155" lon="12.296417716237308"><ele>381.0</ele><time>2026-04-17T14:37:35Z</time></trkpt><trkpt lat="42.65380775720348" lon="12.296299291225736"><ele>381.0</ele><time>2026-04-17T14:37:36Z</time></trkpt><trkpt lat="42.65387863346821" lon="12.296192108400245"><ele>379.8</ele><time>2026-04-17T14:37:37Z</time></trkpt><trkpt lat="42.65395805268188" lon="12.296100628579099"><ele>378.6</ele><time>2026-04-17T14:37:38Z</time></trkpt><trkpt lat="42.65405017089771" lon="12.296035509744229"><ele>377.4</ele><time>2026-04-17T14:37:39Z</time></trkpt><trkpt lat="42.65415911302693" lon="12.295975350764472"><ele>376.2</ele><time>2026-04-17T14:37:40Z</time></trkpt><trkpt lat="42.65427233768456" lon="12.295931102156446"><ele>375.0</ele><time>2026-04-17T14:37:41Z</time></trkpt><trkpt lat="42.65438019091184" lon="12.295891906350192"><ele>374.0</ele><time>2026-04-17T14:37:42Z</time></trkpt><trkpt lat="42.6544792580103" lon="12.295863620555902"><ele>373.0</ele><time>2026-04-17T14:37:43Z</time></trkpt><trkpt lat="42.65458109818393" lon="12.295837228084062"><ele>372.0</ele><time>2026-04-17T14:37:44Z</time></trkpt><trkpt lat="42.65468691415637" lon="12.295850811079868"><ele>371.0</ele><time>2026-04-17T14:37:45Z</time></trkpt><trkpt lat="42.65479819342871" lon="12.295849474719443"><ele>370.0</ele><time>2026-04-17T14:37:46Z</time></trkpt><trkpt lat="42.65491845176014" lon="12.295854846482943"><ele>370.0</ele><time>2026-04-17T14:37:47Z</time></trkpt><trkpt lat="42.65503809577142" lon="12.295866052597507"><ele>370.0</ele><time>2026-04-17T14:37:48Z</time></trkpt><trkpt lat="42.65515092212769" lon="12.295870240509082"><ele>370.0</ele><time>2026-04-17T14:37:49Z</time></trkpt><trkpt lat="42.65526152419427" lon="12.295880566499614"><ele>370.0</ele><time>2026-04-17T14:37:50Z</time></trkpt><trkpt lat="42.65537229067314" lon="12.295886246922448"><ele>369.6</ele><time>2026-04-17T14:37:51Z</time></trkpt><trkpt lat="42.65548012661666" lon="12.295882551574994"><ele>369.2</ele><time>2026-04-17T14:37:52Z</time></trkpt><trkpt lat="42.65558791932579" lon="12.295869796220888"><ele>368.79999999999995</ele><time>2026-04-17T14:37:53Z</time></trkpt><trkpt lat="42.65569364480933" lon="12.295845611867076"><ele>368.4</ele><time>2026-04-17T14:37:54Z</time></trkpt><trkpt lat="42.6557994806353" lon="12.295811245964696"><ele>368.0</ele><time>2026-04-17T14:37:55Z</time></trkpt><trkpt lat="42.65589909978647" lon="12.295751778733273"><ele>368.0</ele><time>2026-04-17T14:37:56Z</time></trkpt><trkpt lat="42.65599781045754" lon="12.2956761503297"><ele>368.0</ele><time>2026-04-17T14:37:57Z</time></trkpt><trkpt lat="42.65610378709144" lon="12.29560026423643"><ele>368.0</ele><time>2026-04-17T14:37:58Z</time></trkpt><trkpt lat="42.656220364033416" lon="12.29555035228481"><ele>368.0</ele><time>2026-04-17T14:37:59Z</time></trkpt><trkpt lat="42.656309542336636" lon="12.295465232304808"><ele>370.25</ele><time>2026-04-17T14:38:00Z</time></trkpt><trkpt lat="42.65640602996865" lon="12.295376066129338"><ele>372.5</ele><time>2026-04-17T14:38:01Z</time></trkpt><trkpt lat="42.65649543398138" lon="12.29526806380604"><ele>374.75</ele><time>2026-04-17T14:38:02Z</time></trkpt><trkpt lat="42.6565831869268" lon="12.295157408140396"><ele>377.0</ele><time>2026-04-17T14:38:03Z</time></trkpt><trkpt lat="42.656657316936965" lon="12.2950529539988"><ele>377.0</ele><time>2026-04-17T14:38:04Z</time></trkpt><trkpt lat="42.656739167486975" lon="12.294954036336202"><ele>377.0</ele><time>2026-04-17T14:38:05Z</time></trkpt><trkpt lat="42.65682055856992" lon="12.294855938340728"><ele>377.0</ele><time>2026-04-17T14:38:06Z</time></trkpt><trkpt lat="42.656899442989996" lon="12.29476030340918"><ele>377.0</ele><time>2026-04-17T14:38:07Z</time></trkpt><trkpt lat="42.65697270573597" lon="12.294670291868274"><ele>377.0</ele><time>2026-04-17T14:38:08Z</time></trkpt><trkpt lat="42.65704889339209" lon="12.294579862500441"><ele>380.6666666666667</ele><time>2026-04-17T14:38:09Z</time></trkpt><trkpt lat="42.65712490725914" lon="12.29448941270096"><ele>384.33333333333337</ele><time>2026-04-17T14:38:10Z</time></trkpt><trkpt lat="42.65718310085972" lon="12.294394950238678"><ele>388.0</ele><time>2026-04-17T14:38:11Z</time></trkpt><trkpt lat="42.65723203744279" lon="12.294302904023676"><ele>391.6666666666667</ele><time>2026-04-17T14:38:12Z</time></trkpt><trkpt lat="42.65728143724013" lon="12.29420552685855"><ele>395.3333333333333</ele><time>2026-04-17T14:38:13Z</time></trkpt><trkpt lat="42.65732358500872" lon="12.294105432858636"><ele>399.0</ele><time>2026-04-17T14:38:14Z</time></trkpt><trkpt lat="42.657369970893974" lon="12.29401344876359"><ele>399.0</ele><time>2026-04-17T14:38:15Z</time></trkpt><trkpt lat="42.65739626373421" lon="12.293929550140442"><ele>399.0</ele><time>2026-04-17T14:38:16Z</time></trkpt><trkpt lat="42.65743499031114" lon="12.293838678689513"><ele>399.0</ele><time>2026-04-17T14:38:18Z</time></trkpt><trkpt lat="42.65752870730211" lon="12.293781392204826"><ele>399.0</ele><time>2026-04-17T14:38:21Z</time></trkpt><trkpt lat="42.65763578713189" lon="12.293734069435665"><ele>399.0</ele><time>2026-04-17T14:38:23Z</time></trkpt><trkpt lat="42.657703291627286" lon="12.293699063812836"><ele>399.0</ele><time>2026-04-17T14:38:24Z</time></trkpt><trkpt lat="42.65778219139939" lon="12.293652529588757"><ele>400.0</ele><time>2026-04-17T14:38:25Z</time></trkpt><trkpt lat="42.65786442397358" lon="12.293551314157062"><ele>401.0</ele><time>2026-04-17T14:38:26Z</time></trkpt><trkpt lat="42.65796015815447" lon="12.293428858219063"><ele>402.0</ele><time>2026-04-17T14:38:27Z</time></trkpt><trkpt lat="42.65807521381139" lon="12.29334195226376"><ele>403.0</ele><time>2026-04-17T14:38:28Z</time></trkpt><trkpt lat="42.65821150984474" lon="12.293220548579821"><ele>401.6666666666667</ele><time>2026-04-17T14:38:29Z</time></trkpt><trkpt lat="42.65835271602043" lon="12.29308503573228"><ele>400.33333333333337</ele><time>2026-04-17T14:38:30Z</time></trkpt><trkpt lat="42.65850270533826" lon="12.292974367580722"><ele>399.0</ele><time>2026-04-17T14:38:31Z</time></trkpt><trkpt lat="42.65865045242511" lon="12.292842709900944"><ele>399.0</ele><time>2026-04-17T14:38:32Z</time></trkpt><trkpt lat="42.65878128472642" lon="12.292695166377488"><ele>399.0</ele><time>2026-04-17T14:38:33Z</time></trkpt><trkpt lat="42.658922137164446" lon="12.292585534079034"><ele>399.0</ele><time>2026-04-17T14:38:34Z</time></trkpt><trkpt lat="42.6590430463558" lon="12.292469258104388"><ele>399.0</ele><time>2026-04-17T14:38:35Z</time></trkpt><trkpt lat="42.65914834196709" lon="12.292365722486089"><ele>399.0</ele><time>2026-04-17T14:38:36.001Z</time></trkpt><trkpt lat="42.65924519455506" lon="12.29226845795064"><ele>399.0</ele><time>2026-04-17T14:38:37.001Z</time></trkpt><trkpt lat="42.65934218195532" lon="12.292167086172629"><ele>399.0</ele><time>2026-04-17T14:38:38.001Z</time></trkpt><trkpt lat="42.65942516110652" lon="12.292049985927745"><ele>396.79999999999995</ele><time>2026-04-17T14:38:39.001Z</time></trkpt><trkpt lat="42.65951479788367" lon="12.29195131260137"><ele>394.59999999999997</ele><time>2026-04-17T14:38:40.001Z</time></trkpt><trkpt lat="42.65959817899652" lon="12.291860122431013"><ele>392.4</ele><time>2026-04-17T14:38:41.001Z</time></trkpt><trkpt lat="42.659679802179184" lon="12.291772119182989"><ele>390.2</ele><time>2026-04-17T14:38:41.999Z</time></trkpt><trkpt lat="42.65976283959021" lon="12.29169773227117"><ele>388.0</ele><time>2026-04-17T14:38:42.999Z</time></trkpt><trkpt lat="42.659835438042094" lon="12.291640082927247"><ele>388.0</ele><time>2026-04-17T14:38:43.999Z</time></trkpt><trkpt lat="42.65992334444438" lon="12.291651427194225"><ele>388.0</ele><time>2026-04-17T14:38:44.999Z</time></trkpt><trkpt lat="42.66002337927348" lon="12.291676298656999"><ele>388.0</ele><time>2026-04-17T14:38:45.999Z</time></trkpt><trkpt lat="42.66014024411264" lon="12.291701868101244"><ele>388.0</ele><time>2026-04-17T14:38:46.999Z</time></trkpt><trkpt lat="42.66023358844523" lon="12.2917086874069"><ele>388.0</ele><time>2026-04-17T14:38:47.999Z</time></trkpt><trkpt lat="42.660307446343595" lon="12.291714142103618"><ele>388.2</ele><time>2026-04-17T14:38:48.999Z</time></trkpt><trkpt lat="42.660379962022105" lon="12.291690633921393"><ele>388.4</ele><time>2026-04-17T14:38:49.999Z</time></trkpt><trkpt lat="42.6604546045288" lon="12.291635725923031"><ele>388.59999999999997</ele><time>2026-04-17T14:38:50.999Z</time></trkpt><trkpt lat="42.66052986287168" lon="12.291563124050361"><ele>388.79999999999995</ele><time>2026-04-17T14:38:51.999Z</time></trkpt><trkpt lat="42.66060901213274" lon="12.291481026395122"><ele>389.0</ele><time>2026-04-17T14:38:52.999Z</time></trkpt><trkpt lat="42.66068380782548" lon="12.291372102519178"><ele>385.75</ele><time>2026-04-17T14:38:53.999Z</time></trkpt><trkpt lat="42.660766958550646" lon="12.29125514478653"><ele>382.5</ele><time>2026-04-17T14:38:54.999Z</time></trkpt><trkpt lat="42.66081502710843" lon="12.291101897152071"><ele>379.25</ele><time>2026-04-17T14:38:55.999Z</time></trkpt><trkpt lat="42.660862801318586" lon="12.290956478929235"><ele>376.0</ele><time>2026-04-17T14:38:57Z</time></trkpt><trkpt lat="42.660894054667075" lon="12.290802889851246"><ele>376.0</ele><time>2026-04-17T14:38:58Z</time></trkpt><trkpt lat="42.66093204139498" lon="12.290648491635165"><ele>376.0</ele><time>2026-04-17T14:38:59Z</time></trkpt><trkpt lat="42.66094402562699" lon="12.290490045137"><ele>376.0</ele><time>2026-04-17T14:39:00Z</time></trkpt><trkpt lat="42.66093709943221" lon="12.290334349370426"><ele>376.0</ele><time>2026-04-17T14:39:01Z</time></trkpt><trkpt lat="42.660944040254044" lon="12.290181562795212"><ele>374.6</ele><time>2026-04-17T14:39:02Z</time></trkpt><trkpt lat="42.66095182468859" lon="12.290027888014363"><ele>373.20000000000005</ele><time>2026-04-17T14:39:03Z</time></trkpt><trkpt lat="42.660964743528794" lon="12.289875882610932"><ele>371.79999999999995</ele><time>2026-04-17T14:39:04Z</time></trkpt><trkpt lat="42.66098741532973" lon="12.289731759258776"><ele>370.4</ele><time>2026-04-17T14:39:05Z</time></trkpt><trkpt lat="42.661035093831266" lon="12.289598531140786"><ele>369.0</ele><time>2026-04-17T14:39:06Z</time></trkpt><trkpt lat="42.66107781769264" lon="12.289465100828346"><ele>368.79999999999995</ele><time>2026-04-17T14:39:07Z</time></trkpt><trkpt lat="42.661131249153044" lon="12.28934483283182"><ele>368.59999999999997</ele><time>2026-04-17T14:39:08Z</time></trkpt><trkpt lat="42.66119675682394" lon="12.289218971453725"><ele>368.4</ele><time>2026-04-17T14:39:09Z</time></trkpt><trkpt lat="42.66125587311725" lon="12.289089602349822"><ele>368.2</ele><time>2026-04-17T14:39:10Z</time></trkpt><trkpt lat="42.66134296974695" lon="12.288991629604912"><ele>368.0</ele><time>2026-04-17T14:39:11Z</time></trkpt><trkpt lat="42.66140729173175" lon="12.288872836516731"><ele>368.0</ele><time>2026-04-17T14:39:12Z</time></trkpt><trkpt lat="42.661492648206156" lon="12.288793150748262"><ele>368.0</ele><time>2026-04-17T14:39:13Z</time></trkpt><trkpt lat="42.66156250393608" lon="12.28870316878823"><ele>368.0</ele><time>2026-04-17T14:39:14Z</time></trkpt><trkpt lat="42.66162751658084" lon="12.288616242340169"><ele>368.0</ele><time>2026-04-17T14:39:15Z</time></trkpt><trkpt lat="42.66167991161083" lon="12.288517430778903"><ele>368.0</ele><time>2026-04-17T14:39:16Z</time></trkpt><trkpt lat="42.66174518790869" lon="12.288428524351682"><ele>368.0</ele><time>2026-04-17T14:39:17Z</time></trkpt><trkpt lat="42.66181390208626" lon="12.28833609294501"><ele>368.0</ele><time>2026-04-17T14:39:18Z</time></trkpt><trkpt lat="42.66188224596586" lon="12.28824425340479"><ele>368.0</ele><time>2026-04-17T14:39:19Z</time></trkpt><trkpt lat="42.661953321675384" lon="12.288172389127304"><ele>368.0</ele><time>2026-04-17T14:39:20Z</time></trkpt><trkpt lat="42.66202020381814" lon="12.288081517426056"><ele>368.0</ele><time>2026-04-17T14:39:21Z</time></trkpt><trkpt lat="42.66208150434804" lon="12.288002439246698"><ele>367.79999999999995</ele><time>2026-04-17T14:39:22Z</time></trkpt><trkpt lat="42.66213642580901" lon="12.287932513815127"><ele>367.6</ele><time>2026-04-17T14:39:23Z</time></trkpt><trkpt lat="42.66218621906645" lon="12.287867531761789"><ele>367.4</ele><time>2026-04-17T14:39:24Z</time></trkpt><trkpt lat="42.66225857409672" lon="12.287749693106697"><ele>367.20000000000005</ele><time>2026-04-17T14:39:26Z</time></trkpt><trkpt lat="42.66232333146362" lon="12.28764356259059"><ele>367.0</ele><time>2026-04-17T14:39:28Z</time></trkpt><trkpt lat="42.66238092170174" lon="12.28754419013721"><ele>367.0</ele><time>2026-04-17T14:39:30Z</time></trkpt><trkpt lat="42.66243545199541" lon="12.287449576811944"><ele>367.0</ele><time>2026-04-17T14:39:32Z</time></trkpt><trkpt lat="42.66247755570309" lon="12.287362933356976"><ele>367.0</ele><time>2026-04-17T14:39:34Z</time></trkpt><trkpt lat="42.662504527315164" lon="12.287283837101121"><ele>367.0</ele><time>2026-04-17T14:39:36Z</time></trkpt><trkpt lat="42.66253837715344" lon="12.287199685304254"><ele>367.0</ele><time>2026-04-17T14:39:39Z</time></trkpt><trkpt lat="42.66251272971383" lon="12.287284973609061"><ele>367.0</ele><time>2026-04-17T14:42:58Z</time></trkpt><trkpt lat="42.662471102674694" lon="12.287350532063348"><ele>367.0</ele><time>2026-04-17T14:43:04Z</time></trkpt><trkpt lat="42.66243886654893" lon="12.287434186068579"><ele>367.0</ele><time>2026-04-17T14:43:10Z</time></trkpt><trkpt lat="42.66240156204106" lon="12.287509142446714"><ele>367.0</ele><time>2026-04-17T14:43:16Z</time></trkpt><trkpt lat="42.66238361977677" lon="12.287595341663254"><ele>367.0</ele><time>2026-04-17T14:43:22Z</time></trkpt><trkpt lat="42.66239234307099" lon="12.287689984880563"><ele>367.0</ele><time>2026-04-17T14:43:31Z</time></trkpt><trkpt lat="42.66240849139272" lon="12.2878129431137"><ele>367.0</ele><time>2026-04-17T14:44:04.896Z</time></trkpt><trkpt lat="42.6624372768854" lon="12.287900083206967"><ele>367.0</ele><time>2026-04-17T14:44:09.018Z</time></trkpt><trkpt lat="42.662465718761496" lon="12.287997260709577"><ele>367.0</ele><time>2026-04-17T14:44:13.019Z</time></trkpt><trkpt lat="42.662492512063125" lon="12.288099661153138"><ele>367.0</ele><time>2026-04-17T14:44:17.032Z</time></trkpt><trkpt lat="42.6624445096673" lon="12.28756991391343"><ele>367.0</ele><time>2026-04-17T14:45:17.635Z</time></trkpt><trkpt lat="42.66234816790657" lon="12.287540900379387"><ele>367.0</ele><time>2026-04-17T14:52:25.006Z</time></trkpt><trkpt lat="42.662410996730465" lon="12.287516427071985"><ele>367.0</ele><time>2026-04-17T14:52:28.006Z</time></trkpt><trkpt lat="42.66244040229409" lon="12.287433750535259"><ele>367.0</ele><time>2026-04-17T14:52:34.003Z</time></trkpt><trkpt lat="42.66247920657654" lon="12.287354676696586"><ele>367.0</ele><time>2026-04-17T14:52:41.002Z</time></trkpt></trkseg></trk></gpx>